<?xml version="1.0" encoding="UTF-8" standalone="no" ?>
<gpx xmlns="http://www.topografix.com/GPX/1/1" xmlns:xsi="http://www.w3.org/2001/XMLSchema-instance" xsi:schemaLocation="http://www.topografix.com/GPX/1/1 http://www.topografix.com/GPX/1/1/gpx.xsd" version="1.1" creator="VisuGPX - https://www.visugpx.com">
  <metadata>
    <name>Champagnat Cyclisme</name>
  </metadata>
  <trk>
    <name><![CDATA[Champagnat Cyclisme_1]]></name>
    <trkseg>
      <trkpt lat="46.48268" lon="5.36828">
        <ele>266</ele>
        <time>2021-08-26T12:14:29Z</time>
      </trkpt>
      <trkpt lat="46.48259" lon="5.36817">
        <ele>264.6</ele>
        <time>2021-08-26T12:14:30Z</time>
      </trkpt>
      <trkpt lat="46.48248" lon="5.36807">
        <ele>263.8</ele>
        <time>2021-08-26T12:14:31Z</time>
      </trkpt>
      <trkpt lat="46.48237" lon="5.36799">
        <ele>263</ele>
        <time>2021-08-26T12:14:32Z</time>
      </trkpt>
      <trkpt lat="46.48227" lon="5.3679">
        <ele>262.6</ele>
        <time>2021-08-26T12:14:33Z</time>
      </trkpt>
      <trkpt lat="46.48216" lon="5.36781">
        <ele>261.6</ele>
        <time>2021-08-26T12:14:34Z</time>
      </trkpt>
      <trkpt lat="46.48205" lon="5.36772">
        <ele>260.6</ele>
        <time>2021-08-26T12:14:35Z</time>
      </trkpt>
      <trkpt lat="46.48194" lon="5.36762">
        <ele>259.4</ele>
        <time>2021-08-26T12:14:36Z</time>
      </trkpt>
      <trkpt lat="46.48183" lon="5.36753">
        <ele>258.8</ele>
        <time>2021-08-26T12:14:37Z</time>
      </trkpt>
      <trkpt lat="46.48172" lon="5.36744">
        <ele>258.6</ele>
        <time>2021-08-26T12:14:38Z</time>
      </trkpt>
      <trkpt lat="46.48162" lon="5.36736">
        <ele>258</ele>
        <time>2021-08-26T12:14:39Z</time>
      </trkpt>
      <trkpt lat="46.48141" lon="5.36721">
        <ele>256.6</ele>
        <time>2021-08-26T12:14:41Z</time>
      </trkpt>
      <trkpt lat="46.48124" lon="5.36707">
        <ele>254.8</ele>
        <time>2021-08-26T12:14:43Z</time>
      </trkpt>
      <trkpt lat="46.48112" lon="5.36694">
        <ele>253.6</ele>
        <time>2021-08-26T12:14:45Z</time>
      </trkpt>
      <trkpt lat="46.48111" lon="5.36685">
        <ele>253.2</ele>
        <time>2021-08-26T12:14:46Z</time>
      </trkpt>
      <trkpt lat="46.48113" lon="5.36676">
        <ele>252.8</ele>
        <time>2021-08-26T12:14:47Z</time>
      </trkpt>
      <trkpt lat="46.48118" lon="5.3667">
        <ele>252.2</ele>
        <time>2021-08-26T12:14:48Z</time>
      </trkpt>
      <trkpt lat="46.48124" lon="5.36664">
        <ele>251.8</ele>
        <time>2021-08-26T12:14:49Z</time>
      </trkpt>
      <trkpt lat="46.48137" lon="5.36652">
        <ele>251.6</ele>
        <time>2021-08-26T12:14:51Z</time>
      </trkpt>
      <trkpt lat="46.48144" lon="5.36646">
        <ele>251.6</ele>
        <time>2021-08-26T12:14:52Z</time>
      </trkpt>
      <trkpt lat="46.4815" lon="5.36639">
        <ele>251.4</ele>
        <time>2021-08-26T12:14:53Z</time>
      </trkpt>
      <trkpt lat="46.48163" lon="5.36625">
        <ele>251</ele>
        <time>2021-08-26T12:14:55Z</time>
      </trkpt>
      <trkpt lat="46.48176" lon="5.36613">
        <ele>249.6</ele>
        <time>2021-08-26T12:14:57Z</time>
      </trkpt>
      <trkpt lat="46.48183" lon="5.36609">
        <ele>248.6</ele>
        <time>2021-08-26T12:14:58Z</time>
      </trkpt>
      <trkpt lat="46.48191" lon="5.36605">
        <ele>248.2</ele>
        <time>2021-08-26T12:14:59Z</time>
      </trkpt>
      <trkpt lat="46.48199" lon="5.36603">
        <ele>248</ele>
        <time>2021-08-26T12:15:00Z</time>
      </trkpt>
      <trkpt lat="46.48206" lon="5.36601">
        <ele>247.8</ele>
        <time>2021-08-26T12:15:01Z</time>
      </trkpt>
      <trkpt lat="46.48218" lon="5.3659">
        <ele>247.6</ele>
        <time>2021-08-26T12:15:03Z</time>
      </trkpt>
      <trkpt lat="46.48225" lon="5.3657">
        <ele>247.6</ele>
        <time>2021-08-26T12:15:05Z</time>
      </trkpt>
      <trkpt lat="46.48229" lon="5.3656">
        <ele>247.4</ele>
        <time>2021-08-26T12:15:06Z</time>
      </trkpt>
      <trkpt lat="46.48234" lon="5.36552">
        <ele>247.4</ele>
        <time>2021-08-26T12:15:07Z</time>
      </trkpt>
      <trkpt lat="46.48246" lon="5.36538">
        <ele>247.2</ele>
        <time>2021-08-26T12:15:09Z</time>
      </trkpt>
      <trkpt lat="46.48253" lon="5.36532">
        <ele>247.2</ele>
        <time>2021-08-26T12:15:10Z</time>
      </trkpt>
      <trkpt lat="46.4826" lon="5.36525">
        <ele>247.2</ele>
        <time>2021-08-26T12:15:11Z</time>
      </trkpt>
      <trkpt lat="46.48272" lon="5.36512">
        <ele>247</ele>
        <time>2021-08-26T12:15:13Z</time>
      </trkpt>
      <trkpt lat="46.48284" lon="5.36499">
        <ele>247</ele>
        <time>2021-08-26T12:15:15Z</time>
      </trkpt>
      <trkpt lat="46.48291" lon="5.36492">
        <ele>246.6</ele>
        <time>2021-08-26T12:15:16Z</time>
      </trkpt>
      <trkpt lat="46.48297" lon="5.36485">
        <ele>246.8</ele>
        <time>2021-08-26T12:15:17Z</time>
      </trkpt>
      <trkpt lat="46.48304" lon="5.36478">
        <ele>246.4</ele>
        <time>2021-08-26T12:15:18Z</time>
      </trkpt>
      <trkpt lat="46.4831" lon="5.36471">
        <ele>246.2</ele>
        <time>2021-08-26T12:15:19Z</time>
      </trkpt>
      <trkpt lat="46.48323" lon="5.36456">
        <ele>245.6</ele>
        <time>2021-08-26T12:15:21Z</time>
      </trkpt>
      <trkpt lat="46.4833" lon="5.36449">
        <ele>245.4</ele>
        <time>2021-08-26T12:15:22Z</time>
      </trkpt>
      <trkpt lat="46.48336" lon="5.36441">
        <ele>245.2</ele>
        <time>2021-08-26T12:15:23Z</time>
      </trkpt>
      <trkpt lat="46.4835" lon="5.36426">
        <ele>245</ele>
        <time>2021-08-26T12:15:25Z</time>
      </trkpt>
      <trkpt lat="46.48363" lon="5.36411">
        <ele>244.6</ele>
        <time>2021-08-26T12:15:27Z</time>
      </trkpt>
      <trkpt lat="46.4837" lon="5.36404">
        <ele>244.2</ele>
        <time>2021-08-26T12:15:28Z</time>
      </trkpt>
      <trkpt lat="46.48377" lon="5.36397">
        <ele>244</ele>
        <time>2021-08-26T12:15:29Z</time>
      </trkpt>
      <trkpt lat="46.4839" lon="5.36383">
        <ele>243.4</ele>
        <time>2021-08-26T12:15:31Z</time>
      </trkpt>
      <trkpt lat="46.48397" lon="5.36376">
        <ele>243</ele>
        <time>2021-08-26T12:15:32Z</time>
      </trkpt>
      <trkpt lat="46.48403" lon="5.36369">
        <ele>242.4</ele>
        <time>2021-08-26T12:15:33Z</time>
      </trkpt>
      <trkpt lat="46.48417" lon="5.36359">
        <ele>241.6</ele>
        <time>2021-08-26T12:15:35Z</time>
      </trkpt>
      <trkpt lat="46.48432" lon="5.36351">
        <ele>241.2</ele>
        <time>2021-08-26T12:15:37Z</time>
      </trkpt>
      <trkpt lat="46.48446" lon="5.36347">
        <ele>240.6</ele>
        <time>2021-08-26T12:15:39Z</time>
      </trkpt>
      <trkpt lat="46.48454" lon="5.36346">
        <ele>240.6</ele>
        <time>2021-08-26T12:15:40Z</time>
      </trkpt>
      <trkpt lat="46.48461" lon="5.36345">
        <ele>240.6</ele>
        <time>2021-08-26T12:15:41Z</time>
      </trkpt>
      <trkpt lat="46.48468" lon="5.36344">
        <ele>240.4</ele>
        <time>2021-08-26T12:15:42Z</time>
      </trkpt>
      <trkpt lat="46.48476" lon="5.36343">
        <ele>240.4</ele>
        <time>2021-08-26T12:15:43Z</time>
      </trkpt>
      <trkpt lat="46.4849" lon="5.36341">
        <ele>240.4</ele>
        <time>2021-08-26T12:15:45Z</time>
      </trkpt>
      <trkpt lat="46.48504" lon="5.36338">
        <ele>240.4</ele>
        <time>2021-08-26T12:15:47Z</time>
      </trkpt>
      <trkpt lat="46.48518" lon="5.36336">
        <ele>240.4</ele>
        <time>2021-08-26T12:15:49Z</time>
      </trkpt>
      <trkpt lat="46.48531" lon="5.36333">
        <ele>240.4</ele>
        <time>2021-08-26T12:15:51Z</time>
      </trkpt>
      <trkpt lat="46.48545" lon="5.36332">
        <ele>240.4</ele>
        <time>2021-08-26T12:15:53Z</time>
      </trkpt>
      <trkpt lat="46.48558" lon="5.36329">
        <ele>240.4</ele>
        <time>2021-08-26T12:15:55Z</time>
      </trkpt>
      <trkpt lat="46.48572" lon="5.36327">
        <ele>240.4</ele>
        <time>2021-08-26T12:15:57Z</time>
      </trkpt>
      <trkpt lat="46.48587" lon="5.36325">
        <ele>240.2</ele>
        <time>2021-08-26T12:15:59Z</time>
      </trkpt>
      <trkpt lat="46.48602" lon="5.36322">
        <ele>239.8</ele>
        <time>2021-08-26T12:16:01Z</time>
      </trkpt>
      <trkpt lat="46.4861" lon="5.36321">
        <ele>239.6</ele>
        <time>2021-08-26T12:16:02Z</time>
      </trkpt>
      <trkpt lat="46.48617" lon="5.36318">
        <ele>239.4</ele>
        <time>2021-08-26T12:16:03Z</time>
      </trkpt>
      <trkpt lat="46.48624" lon="5.36312">
        <ele>239.4</ele>
        <time>2021-08-26T12:16:04Z</time>
      </trkpt>
      <trkpt lat="46.48629" lon="5.36303">
        <ele>239.2</ele>
        <time>2021-08-26T12:16:05Z</time>
      </trkpt>
      <trkpt lat="46.48637" lon="5.3628">
        <ele>238.8</ele>
        <time>2021-08-26T12:16:07Z</time>
      </trkpt>
      <trkpt lat="46.48639" lon="5.36268">
        <ele>238.4</ele>
        <time>2021-08-26T12:16:08Z</time>
      </trkpt>
      <trkpt lat="46.4864" lon="5.36255">
        <ele>238.2</ele>
        <time>2021-08-26T12:16:09Z</time>
      </trkpt>
      <trkpt lat="46.48642" lon="5.36242">
        <ele>238</ele>
        <time>2021-08-26T12:16:10Z</time>
      </trkpt>
      <trkpt lat="46.48644" lon="5.36229">
        <ele>237.8</ele>
        <time>2021-08-26T12:16:11Z</time>
      </trkpt>
      <trkpt lat="46.48646" lon="5.36203">
        <ele>237</ele>
        <time>2021-08-26T12:16:13Z</time>
      </trkpt>
      <trkpt lat="46.48648" lon="5.36178">
        <ele>236.2</ele>
        <time>2021-08-26T12:16:15Z</time>
      </trkpt>
      <trkpt lat="46.48649" lon="5.36165">
        <ele>235.8</ele>
        <time>2021-08-26T12:16:16Z</time>
      </trkpt>
      <trkpt lat="46.4865" lon="5.36153">
        <ele>235.6</ele>
        <time>2021-08-26T12:16:17Z</time>
      </trkpt>
      <trkpt lat="46.48651" lon="5.3614">
        <ele>235.2</ele>
        <time>2021-08-26T12:16:18Z</time>
      </trkpt>
      <trkpt lat="46.48654" lon="5.36128">
        <ele>234.8</ele>
        <time>2021-08-26T12:16:19Z</time>
      </trkpt>
      <trkpt lat="46.48658" lon="5.36104">
        <ele>234.2</ele>
        <time>2021-08-26T12:16:21Z</time>
      </trkpt>
      <trkpt lat="46.48663" lon="5.36082">
        <ele>234</ele>
        <time>2021-08-26T12:16:23Z</time>
      </trkpt>
      <trkpt lat="46.48666" lon="5.36071">
        <ele>234</ele>
        <time>2021-08-26T12:16:24Z</time>
      </trkpt>
      <trkpt lat="46.48668" lon="5.3606">
        <ele>234</ele>
        <time>2021-08-26T12:16:25Z</time>
      </trkpt>
      <trkpt lat="46.48672" lon="5.36041">
        <ele>234</ele>
        <time>2021-08-26T12:16:27Z</time>
      </trkpt>
      <trkpt lat="46.48676" lon="5.36022">
        <ele>234</ele>
        <time>2021-08-26T12:16:29Z</time>
      </trkpt>
      <trkpt lat="46.48678" lon="5.36014">
        <ele>234</ele>
        <time>2021-08-26T12:16:30Z</time>
      </trkpt>
      <trkpt lat="46.4868" lon="5.36005">
        <ele>234</ele>
        <time>2021-08-26T12:16:31Z</time>
      </trkpt>
      <trkpt lat="46.48681" lon="5.35996">
        <ele>234</ele>
        <time>2021-08-26T12:16:32Z</time>
      </trkpt>
      <trkpt lat="46.48682" lon="5.35988">
        <ele>234.2</ele>
        <time>2021-08-26T12:16:33Z</time>
      </trkpt>
      <trkpt lat="46.48685" lon="5.3597">
        <ele>234.8</ele>
        <time>2021-08-26T12:16:35Z</time>
      </trkpt>
      <trkpt lat="46.48686" lon="5.35961">
        <ele>235.2</ele>
        <time>2021-08-26T12:16:36Z</time>
      </trkpt>
      <trkpt lat="46.48687" lon="5.35952">
        <ele>235.2</ele>
        <time>2021-08-26T12:16:37Z</time>
      </trkpt>
      <trkpt lat="46.4869" lon="5.35933">
        <ele>235.6</ele>
        <time>2021-08-26T12:16:39Z</time>
      </trkpt>
      <trkpt lat="46.48696" lon="5.35914">
        <ele>235.8</ele>
        <time>2021-08-26T12:16:41Z</time>
      </trkpt>
      <trkpt lat="46.48702" lon="5.35895">
        <ele>235.8</ele>
        <time>2021-08-26T12:16:43Z</time>
      </trkpt>
      <trkpt lat="46.48709" lon="5.35876">
        <ele>235.8</ele>
        <time>2021-08-26T12:16:45Z</time>
      </trkpt>
      <trkpt lat="46.48717" lon="5.35856">
        <ele>235.8</ele>
        <time>2021-08-26T12:16:47Z</time>
      </trkpt>
      <trkpt lat="46.48725" lon="5.35837">
        <ele>235.6</ele>
        <time>2021-08-26T12:16:49Z</time>
      </trkpt>
      <trkpt lat="46.48734" lon="5.35817">
        <ele>235.2</ele>
        <time>2021-08-26T12:16:51Z</time>
      </trkpt>
      <trkpt lat="46.48742" lon="5.35799">
        <ele>234.6</ele>
        <time>2021-08-26T12:16:53Z</time>
      </trkpt>
      <trkpt lat="46.48746" lon="5.35789">
        <ele>234.6</ele>
        <time>2021-08-26T12:16:54Z</time>
      </trkpt>
      <trkpt lat="46.4875" lon="5.3578">
        <ele>234.4</ele>
        <time>2021-08-26T12:16:55Z</time>
      </trkpt>
      <trkpt lat="46.48759" lon="5.35761">
        <ele>234.2</ele>
        <time>2021-08-26T12:16:57Z</time>
      </trkpt>
      <trkpt lat="46.48767" lon="5.35743">
        <ele>234</ele>
        <time>2021-08-26T12:16:59Z</time>
      </trkpt>
      <trkpt lat="46.48774" lon="5.35725">
        <ele>233.2</ele>
        <time>2021-08-26T12:17:01Z</time>
      </trkpt>
      <trkpt lat="46.48782" lon="5.35707">
        <ele>233</ele>
        <time>2021-08-26T12:17:03Z</time>
      </trkpt>
      <trkpt lat="46.4879" lon="5.3569">
        <ele>232.8</ele>
        <time>2021-08-26T12:17:05Z</time>
      </trkpt>
      <trkpt lat="46.48797" lon="5.35673">
        <ele>232.8</ele>
        <time>2021-08-26T12:17:07Z</time>
      </trkpt>
      <trkpt lat="46.48805" lon="5.35657">
        <ele>232.8</ele>
        <time>2021-08-26T12:17:09Z</time>
      </trkpt>
      <trkpt lat="46.48812" lon="5.3564">
        <ele>232.8</ele>
        <time>2021-08-26T12:17:11Z</time>
      </trkpt>
      <trkpt lat="46.4882" lon="5.35624">
        <ele>233</ele>
        <time>2021-08-26T12:17:13Z</time>
      </trkpt>
      <trkpt lat="46.48827" lon="5.35607">
        <ele>233.2</ele>
        <time>2021-08-26T12:17:15Z</time>
      </trkpt>
      <trkpt lat="46.48834" lon="5.3559">
        <ele>233.2</ele>
        <time>2021-08-26T12:17:17Z</time>
      </trkpt>
      <trkpt lat="46.48842" lon="5.35575">
        <ele>233.2</ele>
        <time>2021-08-26T12:17:19Z</time>
      </trkpt>
      <trkpt lat="46.48853" lon="5.35564">
        <ele>233.2</ele>
        <time>2021-08-26T12:17:21Z</time>
      </trkpt>
      <trkpt lat="46.4886" lon="5.35561">
        <ele>233.2</ele>
        <time>2021-08-26T12:17:22Z</time>
      </trkpt>
      <trkpt lat="46.48867" lon="5.3556">
        <ele>233.2</ele>
        <time>2021-08-26T12:17:23Z</time>
      </trkpt>
      <trkpt lat="46.48874" lon="5.3556">
        <ele>233.2</ele>
        <time>2021-08-26T12:17:24Z</time>
      </trkpt>
      <trkpt lat="46.48882" lon="5.3556">
        <ele>233.2</ele>
        <time>2021-08-26T12:17:25Z</time>
      </trkpt>
      <trkpt lat="46.4889" lon="5.35559">
        <ele>233.2</ele>
        <time>2021-08-26T12:17:26Z</time>
      </trkpt>
      <trkpt lat="46.48898" lon="5.35559">
        <ele>233.2</ele>
        <time>2021-08-26T12:17:27Z</time>
      </trkpt>
      <trkpt lat="46.48914" lon="5.35558">
        <ele>233</ele>
        <time>2021-08-26T12:17:29Z</time>
      </trkpt>
      <trkpt lat="46.4893" lon="5.35558">
        <ele>233</ele>
        <time>2021-08-26T12:17:31Z</time>
      </trkpt>
      <trkpt lat="46.48939" lon="5.35558">
        <ele>232.8</ele>
        <time>2021-08-26T12:17:32Z</time>
      </trkpt>
      <trkpt lat="46.48947" lon="5.35557">
        <ele>232.6</ele>
        <time>2021-08-26T12:17:33Z</time>
      </trkpt>
      <trkpt lat="46.48956" lon="5.35557">
        <ele>232.2</ele>
        <time>2021-08-26T12:17:34Z</time>
      </trkpt>
      <trkpt lat="46.48964" lon="5.35556">
        <ele>231.8</ele>
        <time>2021-08-26T12:17:35Z</time>
      </trkpt>
      <trkpt lat="46.48982" lon="5.35555">
        <ele>231.2</ele>
        <time>2021-08-26T12:17:37Z</time>
      </trkpt>
      <trkpt lat="46.4899" lon="5.35555">
        <ele>231</ele>
        <time>2021-08-26T12:17:38Z</time>
      </trkpt>
      <trkpt lat="46.48999" lon="5.35555">
        <ele>230.8</ele>
        <time>2021-08-26T12:17:39Z</time>
      </trkpt>
      <trkpt lat="46.49015" lon="5.35554">
        <ele>230.2</ele>
        <time>2021-08-26T12:17:41Z</time>
      </trkpt>
      <trkpt lat="46.49023" lon="5.35553">
        <ele>230</ele>
        <time>2021-08-26T12:17:42Z</time>
      </trkpt>
      <trkpt lat="46.49031" lon="5.35553">
        <ele>229.8</ele>
        <time>2021-08-26T12:17:43Z</time>
      </trkpt>
      <trkpt lat="46.49047" lon="5.35552">
        <ele>229.8</ele>
        <time>2021-08-26T12:17:45Z</time>
      </trkpt>
      <trkpt lat="46.49054" lon="5.35551">
        <ele>229.8</ele>
        <time>2021-08-26T12:17:46Z</time>
      </trkpt>
      <trkpt lat="46.49061" lon="5.35551">
        <ele>229.8</ele>
        <time>2021-08-26T12:17:47Z</time>
      </trkpt>
      <trkpt lat="46.49075" lon="5.35551">
        <ele>229.8</ele>
        <time>2021-08-26T12:17:49Z</time>
      </trkpt>
      <trkpt lat="46.49089" lon="5.35551">
        <ele>229.8</ele>
        <time>2021-08-26T12:17:51Z</time>
      </trkpt>
      <trkpt lat="46.49102" lon="5.3555">
        <ele>230</ele>
        <time>2021-08-26T12:17:53Z</time>
      </trkpt>
      <trkpt lat="46.49114" lon="5.3555">
        <ele>230.4</ele>
        <time>2021-08-26T12:17:55Z</time>
      </trkpt>
      <trkpt lat="46.4912" lon="5.3555">
        <ele>230.6</ele>
        <time>2021-08-26T12:17:56Z</time>
      </trkpt>
      <trkpt lat="46.49126" lon="5.35549">
        <ele>230.8</ele>
        <time>2021-08-26T12:17:57Z</time>
      </trkpt>
      <trkpt lat="46.49133" lon="5.35549">
        <ele>231</ele>
        <time>2021-08-26T12:17:58Z</time>
      </trkpt>
      <trkpt lat="46.49139" lon="5.35548">
        <ele>231</ele>
        <time>2021-08-26T12:17:59Z</time>
      </trkpt>
      <trkpt lat="46.49151" lon="5.35548">
        <ele>231.6</ele>
        <time>2021-08-26T12:18:01Z</time>
      </trkpt>
      <trkpt lat="46.49157" lon="5.35548">
        <ele>231.8</ele>
        <time>2021-08-26T12:18:02Z</time>
      </trkpt>
      <trkpt lat="46.49163" lon="5.35548">
        <ele>232</ele>
        <time>2021-08-26T12:18:03Z</time>
      </trkpt>
      <trkpt lat="46.49173" lon="5.35549">
        <ele>232.6</ele>
        <time>2021-08-26T12:18:05Z</time>
      </trkpt>
      <trkpt lat="46.49177" lon="5.35549">
        <ele>232.6</ele>
        <time>2021-08-26T12:18:06Z</time>
      </trkpt>
      <trkpt lat="46.49182" lon="5.35549">
        <ele>232.8</ele>
        <time>2021-08-26T12:18:07Z</time>
      </trkpt>
      <trkpt lat="46.49193" lon="5.35549">
        <ele>232.8</ele>
        <time>2021-08-26T12:18:09Z</time>
      </trkpt>
      <trkpt lat="46.49199" lon="5.35548">
        <ele>233</ele>
        <time>2021-08-26T12:18:10Z</time>
      </trkpt>
      <trkpt lat="46.49205" lon="5.35548">
        <ele>233.2</ele>
        <time>2021-08-26T12:18:11Z</time>
      </trkpt>
      <trkpt lat="46.49211" lon="5.35548">
        <ele>233.6</ele>
        <time>2021-08-26T12:18:12Z</time>
      </trkpt>
      <trkpt lat="46.49217" lon="5.35547">
        <ele>233.8</ele>
        <time>2021-08-26T12:18:13Z</time>
      </trkpt>
      <trkpt lat="46.4923" lon="5.35547">
        <ele>234.2</ele>
        <time>2021-08-26T12:18:15Z</time>
      </trkpt>
      <trkpt lat="46.49244" lon="5.35546">
        <ele>234.4</ele>
        <time>2021-08-26T12:18:17Z</time>
      </trkpt>
      <trkpt lat="46.49259" lon="5.35546">
        <ele>234.4</ele>
        <time>2021-08-26T12:18:19Z</time>
      </trkpt>
      <trkpt lat="46.49266" lon="5.35546">
        <ele>234.4</ele>
        <time>2021-08-26T12:18:20Z</time>
      </trkpt>
      <trkpt lat="46.49273" lon="5.35545">
        <ele>234.4</ele>
        <time>2021-08-26T12:18:21Z</time>
      </trkpt>
      <trkpt lat="46.49287" lon="5.35543">
        <ele>234.4</ele>
        <time>2021-08-26T12:18:23Z</time>
      </trkpt>
      <trkpt lat="46.49302" lon="5.35541">
        <ele>234.4</ele>
        <time>2021-08-26T12:18:25Z</time>
      </trkpt>
      <trkpt lat="46.49309" lon="5.35541">
        <ele>234.4</ele>
        <time>2021-08-26T12:18:26Z</time>
      </trkpt>
      <trkpt lat="46.49317" lon="5.35541">
        <ele>234.4</ele>
        <time>2021-08-26T12:18:27Z</time>
      </trkpt>
      <trkpt lat="46.49332" lon="5.3554">
        <ele>234.4</ele>
        <time>2021-08-26T12:18:29Z</time>
      </trkpt>
      <trkpt lat="46.49339" lon="5.35539">
        <ele>234.2</ele>
        <time>2021-08-26T12:18:30Z</time>
      </trkpt>
      <trkpt lat="46.49346" lon="5.35539">
        <ele>234.2</ele>
        <time>2021-08-26T12:18:31Z</time>
      </trkpt>
      <trkpt lat="46.49362" lon="5.35539">
        <ele>233.8</ele>
        <time>2021-08-26T12:18:33Z</time>
      </trkpt>
      <trkpt lat="46.49377" lon="5.35539">
        <ele>233.6</ele>
        <time>2021-08-26T12:18:35Z</time>
      </trkpt>
      <trkpt lat="46.49386" lon="5.3554">
        <ele>233.4</ele>
        <time>2021-08-26T12:18:36Z</time>
      </trkpt>
      <trkpt lat="46.49393" lon="5.35542">
        <ele>233.2</ele>
        <time>2021-08-26T12:18:37Z</time>
      </trkpt>
      <trkpt lat="46.49409" lon="5.35547">
        <ele>233</ele>
        <time>2021-08-26T12:18:39Z</time>
      </trkpt>
      <trkpt lat="46.49424" lon="5.35553">
        <ele>232.6</ele>
        <time>2021-08-26T12:18:41Z</time>
      </trkpt>
      <trkpt lat="46.49432" lon="5.35556">
        <ele>232.4</ele>
        <time>2021-08-26T12:18:42Z</time>
      </trkpt>
      <trkpt lat="46.4944" lon="5.35559">
        <ele>232.2</ele>
        <time>2021-08-26T12:18:43Z</time>
      </trkpt>
      <trkpt lat="46.49454" lon="5.35564">
        <ele>232</ele>
        <time>2021-08-26T12:18:45Z</time>
      </trkpt>
      <trkpt lat="46.49469" lon="5.3557">
        <ele>231.6</ele>
        <time>2021-08-26T12:18:47Z</time>
      </trkpt>
      <trkpt lat="46.49483" lon="5.35576">
        <ele>231.6</ele>
        <time>2021-08-26T12:18:49Z</time>
      </trkpt>
      <trkpt lat="46.49498" lon="5.35582">
        <ele>231.6</ele>
        <time>2021-08-26T12:18:51Z</time>
      </trkpt>
      <trkpt lat="46.49512" lon="5.35588">
        <ele>231.6</ele>
        <time>2021-08-26T12:18:53Z</time>
      </trkpt>
      <trkpt lat="46.49526" lon="5.35594">
        <ele>231.2</ele>
        <time>2021-08-26T12:18:55Z</time>
      </trkpt>
      <trkpt lat="46.49541" lon="5.356">
        <ele>231.2</ele>
        <time>2021-08-26T12:18:57Z</time>
      </trkpt>
      <trkpt lat="46.49556" lon="5.35606">
        <ele>231.2</ele>
        <time>2021-08-26T12:18:59Z</time>
      </trkpt>
      <trkpt lat="46.49571" lon="5.35611">
        <ele>231.2</ele>
        <time>2021-08-26T12:19:01Z</time>
      </trkpt>
      <trkpt lat="46.49586" lon="5.35616">
        <ele>230.8</ele>
        <time>2021-08-26T12:19:03Z</time>
      </trkpt>
      <trkpt lat="46.49601" lon="5.3562">
        <ele>230.2</ele>
        <time>2021-08-26T12:19:05Z</time>
      </trkpt>
      <trkpt lat="46.49616" lon="5.35625">
        <ele>229.6</ele>
        <time>2021-08-26T12:19:07Z</time>
      </trkpt>
      <trkpt lat="46.49631" lon="5.35629">
        <ele>229.2</ele>
        <time>2021-08-26T12:19:09Z</time>
      </trkpt>
      <trkpt lat="46.49645" lon="5.35633">
        <ele>228.8</ele>
        <time>2021-08-26T12:19:11Z</time>
      </trkpt>
      <trkpt lat="46.4966" lon="5.35637">
        <ele>228.6</ele>
        <time>2021-08-26T12:19:13Z</time>
      </trkpt>
      <trkpt lat="46.49667" lon="5.35639">
        <ele>228.2</ele>
        <time>2021-08-26T12:19:14Z</time>
      </trkpt>
      <trkpt lat="46.49674" lon="5.35641">
        <ele>227.8</ele>
        <time>2021-08-26T12:19:15Z</time>
      </trkpt>
      <trkpt lat="46.49687" lon="5.35644">
        <ele>227.4</ele>
        <time>2021-08-26T12:19:17Z</time>
      </trkpt>
      <trkpt lat="46.49697" lon="5.3565">
        <ele>227.4</ele>
        <time>2021-08-26T12:19:19Z</time>
      </trkpt>
      <trkpt lat="46.49701" lon="5.35662">
        <ele>227.2</ele>
        <time>2021-08-26T12:19:21Z</time>
      </trkpt>
      <trkpt lat="46.497" lon="5.3567">
        <ele>227.2</ele>
        <time>2021-08-26T12:19:22Z</time>
      </trkpt>
      <trkpt lat="46.49698" lon="5.35679">
        <ele>227.2</ele>
        <time>2021-08-26T12:19:23Z</time>
      </trkpt>
      <trkpt lat="46.49696" lon="5.35688">
        <ele>227.2</ele>
        <time>2021-08-26T12:19:24Z</time>
      </trkpt>
      <trkpt lat="46.49694" lon="5.35698">
        <ele>227</ele>
        <time>2021-08-26T12:19:25Z</time>
      </trkpt>
      <trkpt lat="46.49691" lon="5.35708">
        <ele>227</ele>
        <time>2021-08-26T12:19:26Z</time>
      </trkpt>
      <trkpt lat="46.49688" lon="5.35718">
        <ele>226.8</ele>
        <time>2021-08-26T12:19:27Z</time>
      </trkpt>
      <trkpt lat="46.4968" lon="5.35738">
        <ele>226.8</ele>
        <time>2021-08-26T12:19:29Z</time>
      </trkpt>
      <trkpt lat="46.49671" lon="5.35757">
        <ele>226.4</ele>
        <time>2021-08-26T12:19:31Z</time>
      </trkpt>
      <trkpt lat="46.49667" lon="5.35767">
        <ele>226</ele>
        <time>2021-08-26T12:19:32Z</time>
      </trkpt>
      <trkpt lat="46.49662" lon="5.35776">
        <ele>225.6</ele>
        <time>2021-08-26T12:19:33Z</time>
      </trkpt>
      <trkpt lat="46.49653" lon="5.35796">
        <ele>225.2</ele>
        <time>2021-08-26T12:19:35Z</time>
      </trkpt>
      <trkpt lat="46.49645" lon="5.35818">
        <ele>225</ele>
        <time>2021-08-26T12:19:37Z</time>
      </trkpt>
      <trkpt lat="46.49642" lon="5.3583">
        <ele>225</ele>
        <time>2021-08-26T12:19:38Z</time>
      </trkpt>
      <trkpt lat="46.49639" lon="5.35842">
        <ele>224.8</ele>
        <time>2021-08-26T12:19:39Z</time>
      </trkpt>
      <trkpt lat="46.49637" lon="5.35869">
        <ele>224.2</ele>
        <time>2021-08-26T12:19:41Z</time>
      </trkpt>
      <trkpt lat="46.49637" lon="5.35883">
        <ele>224</ele>
        <time>2021-08-26T12:19:42Z</time>
      </trkpt>
      <trkpt lat="46.49638" lon="5.35897">
        <ele>223.8</ele>
        <time>2021-08-26T12:19:43Z</time>
      </trkpt>
      <trkpt lat="46.49639" lon="5.35925">
        <ele>223.6</ele>
        <time>2021-08-26T12:19:45Z</time>
      </trkpt>
      <trkpt lat="46.49641" lon="5.35952">
        <ele>222.6</ele>
        <time>2021-08-26T12:19:47Z</time>
      </trkpt>
      <trkpt lat="46.49643" lon="5.35978">
        <ele>221.4</ele>
        <time>2021-08-26T12:19:49Z</time>
      </trkpt>
      <trkpt lat="46.49645" lon="5.36003">
        <ele>220.6</ele>
        <time>2021-08-26T12:19:51Z</time>
      </trkpt>
      <trkpt lat="46.49646" lon="5.36028">
        <ele>220.4</ele>
        <time>2021-08-26T12:19:53Z</time>
      </trkpt>
      <trkpt lat="46.49648" lon="5.36053">
        <ele>220.4</ele>
        <time>2021-08-26T12:19:55Z</time>
      </trkpt>
      <trkpt lat="46.49649" lon="5.36065">
        <ele>220.4</ele>
        <time>2021-08-26T12:19:56Z</time>
      </trkpt>
      <trkpt lat="46.49651" lon="5.36077">
        <ele>220.2</ele>
        <time>2021-08-26T12:19:57Z</time>
      </trkpt>
      <trkpt lat="46.49653" lon="5.36088">
        <ele>220.2</ele>
        <time>2021-08-26T12:19:58Z</time>
      </trkpt>
      <trkpt lat="46.49656" lon="5.36099">
        <ele>220</ele>
        <time>2021-08-26T12:19:59Z</time>
      </trkpt>
      <trkpt lat="46.4966" lon="5.36109">
        <ele>220</ele>
        <time>2021-08-26T12:20:00Z</time>
      </trkpt>
      <trkpt lat="46.49664" lon="5.36118">
        <ele>219.8</ele>
        <time>2021-08-26T12:20:01Z</time>
      </trkpt>
      <trkpt lat="46.49673" lon="5.36136">
        <ele>219.8</ele>
        <time>2021-08-26T12:20:03Z</time>
      </trkpt>
      <trkpt lat="46.49678" lon="5.36144">
        <ele>219.8</ele>
        <time>2021-08-26T12:20:04Z</time>
      </trkpt>
      <trkpt lat="46.49683" lon="5.36152">
        <ele>220</ele>
        <time>2021-08-26T12:20:05Z</time>
      </trkpt>
      <trkpt lat="46.49692" lon="5.36167">
        <ele>220</ele>
        <time>2021-08-26T12:20:07Z</time>
      </trkpt>
      <trkpt lat="46.49702" lon="5.36182">
        <ele>220</ele>
        <time>2021-08-26T12:20:09Z</time>
      </trkpt>
      <trkpt lat="46.49711" lon="5.36198">
        <ele>220</ele>
        <time>2021-08-26T12:20:11Z</time>
      </trkpt>
      <trkpt lat="46.4972" lon="5.36214">
        <ele>220</ele>
        <time>2021-08-26T12:20:13Z</time>
      </trkpt>
      <trkpt lat="46.49728" lon="5.3623">
        <ele>220</ele>
        <time>2021-08-26T12:20:15Z</time>
      </trkpt>
      <trkpt lat="46.49736" lon="5.36246">
        <ele>220.2</ele>
        <time>2021-08-26T12:20:17Z</time>
      </trkpt>
      <trkpt lat="46.49742" lon="5.36262">
        <ele>220.4</ele>
        <time>2021-08-26T12:20:19Z</time>
      </trkpt>
      <trkpt lat="46.49746" lon="5.3627">
        <ele>220.4</ele>
        <time>2021-08-26T12:20:20Z</time>
      </trkpt>
      <trkpt lat="46.49749" lon="5.36277">
        <ele>220.6</ele>
        <time>2021-08-26T12:20:21Z</time>
      </trkpt>
      <trkpt lat="46.49755" lon="5.36292">
        <ele>220.8</ele>
        <time>2021-08-26T12:20:23Z</time>
      </trkpt>
      <trkpt lat="46.49761" lon="5.36305">
        <ele>221</ele>
        <time>2021-08-26T12:20:25Z</time>
      </trkpt>
      <trkpt lat="46.49767" lon="5.36319">
        <ele>221.8</ele>
        <time>2021-08-26T12:20:27Z</time>
      </trkpt>
      <trkpt lat="46.49769" lon="5.36326">
        <ele>222</ele>
        <time>2021-08-26T12:20:28Z</time>
      </trkpt>
      <trkpt lat="46.49772" lon="5.36333">
        <ele>222.2</ele>
        <time>2021-08-26T12:20:29Z</time>
      </trkpt>
      <trkpt lat="46.49778" lon="5.36345">
        <ele>223</ele>
        <time>2021-08-26T12:20:31Z</time>
      </trkpt>
      <trkpt lat="46.4978" lon="5.36351">
        <ele>223.2</ele>
        <time>2021-08-26T12:20:32Z</time>
      </trkpt>
      <trkpt lat="46.49783" lon="5.36358">
        <ele>223.6</ele>
        <time>2021-08-26T12:20:33Z</time>
      </trkpt>
      <trkpt lat="46.49788" lon="5.3637">
        <ele>223.8</ele>
        <time>2021-08-26T12:20:35Z</time>
      </trkpt>
      <trkpt lat="46.49791" lon="5.36376">
        <ele>224</ele>
        <time>2021-08-26T12:20:36Z</time>
      </trkpt>
      <trkpt lat="46.49794" lon="5.36382">
        <ele>224.2</ele>
        <time>2021-08-26T12:20:37Z</time>
      </trkpt>
      <trkpt lat="46.49796" lon="5.36388">
        <ele>224.4</ele>
        <time>2021-08-26T12:20:38Z</time>
      </trkpt>
      <trkpt lat="46.49799" lon="5.36395">
        <ele>224.8</ele>
        <time>2021-08-26T12:20:39Z</time>
      </trkpt>
      <trkpt lat="46.49804" lon="5.36409">
        <ele>225.2</ele>
        <time>2021-08-26T12:20:41Z</time>
      </trkpt>
      <trkpt lat="46.49809" lon="5.36422">
        <ele>225.4</ele>
        <time>2021-08-26T12:20:43Z</time>
      </trkpt>
      <trkpt lat="46.49815" lon="5.36436">
        <ele>225.6</ele>
        <time>2021-08-26T12:20:45Z</time>
      </trkpt>
      <trkpt lat="46.49821" lon="5.36448">
        <ele>225.8</ele>
        <time>2021-08-26T12:20:47Z</time>
      </trkpt>
      <trkpt lat="46.49827" lon="5.36461">
        <ele>225.8</ele>
        <time>2021-08-26T12:20:49Z</time>
      </trkpt>
      <trkpt lat="46.49834" lon="5.36473">
        <ele>225.8</ele>
        <time>2021-08-26T12:20:51Z</time>
      </trkpt>
      <trkpt lat="46.4984" lon="5.36484">
        <ele>226</ele>
        <time>2021-08-26T12:20:53Z</time>
      </trkpt>
      <trkpt lat="46.49847" lon="5.36495">
        <ele>226</ele>
        <time>2021-08-26T12:20:55Z</time>
      </trkpt>
      <trkpt lat="46.49854" lon="5.36506">
        <ele>226.2</ele>
        <time>2021-08-26T12:20:57Z</time>
      </trkpt>
      <trkpt lat="46.49861" lon="5.36516">
        <ele>226.2</ele>
        <time>2021-08-26T12:20:59Z</time>
      </trkpt>
      <trkpt lat="46.49868" lon="5.36526">
        <ele>226.8</ele>
        <time>2021-08-26T12:21:01Z</time>
      </trkpt>
      <trkpt lat="46.49875" lon="5.36536">
        <ele>227.2</ele>
        <time>2021-08-26T12:21:03Z</time>
      </trkpt>
      <trkpt lat="46.49882" lon="5.36547">
        <ele>227.6</ele>
        <time>2021-08-26T12:21:05Z</time>
      </trkpt>
      <trkpt lat="46.49886" lon="5.36552">
        <ele>227.6</ele>
        <time>2021-08-26T12:21:06Z</time>
      </trkpt>
      <trkpt lat="46.49889" lon="5.36557">
        <ele>227.8</ele>
        <time>2021-08-26T12:21:07Z</time>
      </trkpt>
      <trkpt lat="46.49896" lon="5.36568">
        <ele>228</ele>
        <time>2021-08-26T12:21:09Z</time>
      </trkpt>
      <trkpt lat="46.49903" lon="5.36579">
        <ele>228.4</ele>
        <time>2021-08-26T12:21:11Z</time>
      </trkpt>
      <trkpt lat="46.49909" lon="5.3659">
        <ele>228.6</ele>
        <time>2021-08-26T12:21:13Z</time>
      </trkpt>
      <trkpt lat="46.49915" lon="5.36602">
        <ele>228.8</ele>
        <time>2021-08-26T12:21:15Z</time>
      </trkpt>
      <trkpt lat="46.49919" lon="5.36614">
        <ele>229</ele>
        <time>2021-08-26T12:21:17Z</time>
      </trkpt>
      <trkpt lat="46.49921" lon="5.36627">
        <ele>229.2</ele>
        <time>2021-08-26T12:21:19Z</time>
      </trkpt>
      <trkpt lat="46.49924" lon="5.36632">
        <ele>229.2</ele>
        <time>2021-08-26T12:21:20Z</time>
      </trkpt>
      <trkpt lat="46.49927" lon="5.36636">
        <ele>229.4</ele>
        <time>2021-08-26T12:21:21Z</time>
      </trkpt>
      <trkpt lat="46.4993" lon="5.36641">
        <ele>229.6</ele>
        <time>2021-08-26T12:21:22Z</time>
      </trkpt>
      <trkpt lat="46.49933" lon="5.36647">
        <ele>229.6</ele>
        <time>2021-08-26T12:21:23Z</time>
      </trkpt>
      <trkpt lat="46.49937" lon="5.36661">
        <ele>229.6</ele>
        <time>2021-08-26T12:21:25Z</time>
      </trkpt>
      <trkpt lat="46.49939" lon="5.3667">
        <ele>229.8</ele>
        <time>2021-08-26T12:21:26Z</time>
      </trkpt>
      <trkpt lat="46.49941" lon="5.36678">
        <ele>229.8</ele>
        <time>2021-08-26T12:21:27Z</time>
      </trkpt>
      <trkpt lat="46.49944" lon="5.36695">
        <ele>230</ele>
        <time>2021-08-26T12:21:29Z</time>
      </trkpt>
      <trkpt lat="46.49947" lon="5.36712">
        <ele>230.2</ele>
        <time>2021-08-26T12:21:31Z</time>
      </trkpt>
      <trkpt lat="46.49948" lon="5.3672">
        <ele>230.2</ele>
        <time>2021-08-26T12:21:32Z</time>
      </trkpt>
      <trkpt lat="46.4995" lon="5.36728">
        <ele>230.2</ele>
        <time>2021-08-26T12:21:33Z</time>
      </trkpt>
      <trkpt lat="46.49953" lon="5.36744">
        <ele>230.4</ele>
        <time>2021-08-26T12:21:35Z</time>
      </trkpt>
      <trkpt lat="46.49956" lon="5.36759">
        <ele>230.4</ele>
        <time>2021-08-26T12:21:37Z</time>
      </trkpt>
      <trkpt lat="46.49959" lon="5.36773">
        <ele>230.6</ele>
        <time>2021-08-26T12:21:39Z</time>
      </trkpt>
      <trkpt lat="46.49961" lon="5.36788">
        <ele>230.6</ele>
        <time>2021-08-26T12:21:41Z</time>
      </trkpt>
      <trkpt lat="46.49964" lon="5.36802">
        <ele>230.8</ele>
        <time>2021-08-26T12:21:43Z</time>
      </trkpt>
      <trkpt lat="46.49965" lon="5.3681">
        <ele>231</ele>
        <time>2021-08-26T12:21:44Z</time>
      </trkpt>
      <trkpt lat="46.49967" lon="5.36817">
        <ele>231</ele>
        <time>2021-08-26T12:21:45Z</time>
      </trkpt>
      <trkpt lat="46.4997" lon="5.36831">
        <ele>231.4</ele>
        <time>2021-08-26T12:21:47Z</time>
      </trkpt>
      <trkpt lat="46.49972" lon="5.36846">
        <ele>231.8</ele>
        <time>2021-08-26T12:21:49Z</time>
      </trkpt>
      <trkpt lat="46.49974" lon="5.36853">
        <ele>232.4</ele>
        <time>2021-08-26T12:21:50Z</time>
      </trkpt>
      <trkpt lat="46.49975" lon="5.36861">
        <ele>232.6</ele>
        <time>2021-08-26T12:21:51Z</time>
      </trkpt>
      <trkpt lat="46.49978" lon="5.36875">
        <ele>233</ele>
        <time>2021-08-26T12:21:53Z</time>
      </trkpt>
      <trkpt lat="46.49981" lon="5.36889">
        <ele>233</ele>
        <time>2021-08-26T12:21:55Z</time>
      </trkpt>
      <trkpt lat="46.49983" lon="5.36903">
        <ele>233.2</ele>
        <time>2021-08-26T12:21:57Z</time>
      </trkpt>
      <trkpt lat="46.49986" lon="5.36918">
        <ele>233.6</ele>
        <time>2021-08-26T12:21:59Z</time>
      </trkpt>
      <trkpt lat="46.49989" lon="5.36932">
        <ele>234.2</ele>
        <time>2021-08-26T12:22:01Z</time>
      </trkpt>
      <trkpt lat="46.49991" lon="5.36946">
        <ele>234.6</ele>
        <time>2021-08-26T12:22:03Z</time>
      </trkpt>
      <trkpt lat="46.49993" lon="5.36953">
        <ele>234.6</ele>
        <time>2021-08-26T12:22:04Z</time>
      </trkpt>
      <trkpt lat="46.49994" lon="5.3696">
        <ele>234.8</ele>
        <time>2021-08-26T12:22:05Z</time>
      </trkpt>
      <trkpt lat="46.49996" lon="5.36974">
        <ele>235</ele>
        <time>2021-08-26T12:22:07Z</time>
      </trkpt>
      <trkpt lat="46.49999" lon="5.36988">
        <ele>235</ele>
        <time>2021-08-26T12:22:09Z</time>
      </trkpt>
      <trkpt lat="46.5" lon="5.36995">
        <ele>235.2</ele>
        <time>2021-08-26T12:22:10Z</time>
      </trkpt>
      <trkpt lat="46.50002" lon="5.37002">
        <ele>235.2</ele>
        <time>2021-08-26T12:22:11Z</time>
      </trkpt>
      <trkpt lat="46.50004" lon="5.37017">
        <ele>235.4</ele>
        <time>2021-08-26T12:22:13Z</time>
      </trkpt>
      <trkpt lat="46.50005" lon="5.37024">
        <ele>235.6</ele>
        <time>2021-08-26T12:22:14Z</time>
      </trkpt>
      <trkpt lat="46.50007" lon="5.37031">
        <ele>236</ele>
        <time>2021-08-26T12:22:15Z</time>
      </trkpt>
      <trkpt lat="46.50009" lon="5.37045">
        <ele>236.2</ele>
        <time>2021-08-26T12:22:17Z</time>
      </trkpt>
      <trkpt lat="46.50012" lon="5.37059">
        <ele>236.4</ele>
        <time>2021-08-26T12:22:19Z</time>
      </trkpt>
      <trkpt lat="46.50014" lon="5.37073">
        <ele>236.8</ele>
        <time>2021-08-26T12:22:21Z</time>
      </trkpt>
      <trkpt lat="46.50016" lon="5.3708">
        <ele>237</ele>
        <time>2021-08-26T12:22:22Z</time>
      </trkpt>
      <trkpt lat="46.50017" lon="5.37087">
        <ele>237</ele>
        <time>2021-08-26T12:22:23Z</time>
      </trkpt>
      <trkpt lat="46.5002" lon="5.37101">
        <ele>237.4</ele>
        <time>2021-08-26T12:22:25Z</time>
      </trkpt>
      <trkpt lat="46.50022" lon="5.37115">
        <ele>237.6</ele>
        <time>2021-08-26T12:22:27Z</time>
      </trkpt>
      <trkpt lat="46.50025" lon="5.37129">
        <ele>238</ele>
        <time>2021-08-26T12:22:29Z</time>
      </trkpt>
      <trkpt lat="46.50028" lon="5.37143">
        <ele>238.2</ele>
        <time>2021-08-26T12:22:31Z</time>
      </trkpt>
      <trkpt lat="46.50031" lon="5.37157">
        <ele>238.6</ele>
        <time>2021-08-26T12:22:33Z</time>
      </trkpt>
      <trkpt lat="46.50033" lon="5.37171">
        <ele>239</ele>
        <time>2021-08-26T12:22:35Z</time>
      </trkpt>
      <trkpt lat="46.50035" lon="5.37178">
        <ele>239.2</ele>
        <time>2021-08-26T12:22:36Z</time>
      </trkpt>
      <trkpt lat="46.50036" lon="5.37185">
        <ele>239.2</ele>
        <time>2021-08-26T12:22:37Z</time>
      </trkpt>
      <trkpt lat="46.50037" lon="5.37192">
        <ele>239.4</ele>
        <time>2021-08-26T12:22:38Z</time>
      </trkpt>
      <trkpt lat="46.50039" lon="5.37198">
        <ele>239.4</ele>
        <time>2021-08-26T12:22:39Z</time>
      </trkpt>
      <trkpt lat="46.50042" lon="5.37212">
        <ele>239.6</ele>
        <time>2021-08-26T12:22:41Z</time>
      </trkpt>
      <trkpt lat="46.50045" lon="5.37227">
        <ele>239.8</ele>
        <time>2021-08-26T12:22:43Z</time>
      </trkpt>
      <trkpt lat="46.50047" lon="5.37241">
        <ele>240.2</ele>
        <time>2021-08-26T12:22:45Z</time>
      </trkpt>
      <trkpt lat="46.50049" lon="5.37248">
        <ele>240.4</ele>
        <time>2021-08-26T12:22:46Z</time>
      </trkpt>
      <trkpt lat="46.5005" lon="5.37256">
        <ele>240.6</ele>
        <time>2021-08-26T12:22:47Z</time>
      </trkpt>
      <trkpt lat="46.50053" lon="5.3727">
        <ele>240.8</ele>
        <time>2021-08-26T12:22:49Z</time>
      </trkpt>
      <trkpt lat="46.50055" lon="5.37284">
        <ele>241.2</ele>
        <time>2021-08-26T12:22:51Z</time>
      </trkpt>
      <trkpt lat="46.50058" lon="5.37298">
        <ele>241.4</ele>
        <time>2021-08-26T12:22:53Z</time>
      </trkpt>
      <trkpt lat="46.50061" lon="5.37312">
        <ele>241.8</ele>
        <time>2021-08-26T12:22:55Z</time>
      </trkpt>
      <trkpt lat="46.50062" lon="5.37319">
        <ele>241.8</ele>
        <time>2021-08-26T12:22:56Z</time>
      </trkpt>
      <trkpt lat="46.50063" lon="5.37326">
        <ele>242</ele>
        <time>2021-08-26T12:22:57Z</time>
      </trkpt>
      <trkpt lat="46.50065" lon="5.37341">
        <ele>242.2</ele>
        <time>2021-08-26T12:22:59Z</time>
      </trkpt>
      <trkpt lat="46.50068" lon="5.37355">
        <ele>242.4</ele>
        <time>2021-08-26T12:23:01Z</time>
      </trkpt>
      <trkpt lat="46.50071" lon="5.37369">
        <ele>242.6</ele>
        <time>2021-08-26T12:23:03Z</time>
      </trkpt>
      <trkpt lat="46.50074" lon="5.37384">
        <ele>242.8</ele>
        <time>2021-08-26T12:23:05Z</time>
      </trkpt>
      <trkpt lat="46.50076" lon="5.37399">
        <ele>243.2</ele>
        <time>2021-08-26T12:23:07Z</time>
      </trkpt>
      <trkpt lat="46.50078" lon="5.37406">
        <ele>243.4</ele>
        <time>2021-08-26T12:23:08Z</time>
      </trkpt>
      <trkpt lat="46.5008" lon="5.37413">
        <ele>243.4</ele>
        <time>2021-08-26T12:23:09Z</time>
      </trkpt>
      <trkpt lat="46.50084" lon="5.37428">
        <ele>243.6</ele>
        <time>2021-08-26T12:23:11Z</time>
      </trkpt>
      <trkpt lat="46.50087" lon="5.37435">
        <ele>243.6</ele>
        <time>2021-08-26T12:23:12Z</time>
      </trkpt>
      <trkpt lat="46.5009" lon="5.37441">
        <ele>243.8</ele>
        <time>2021-08-26T12:23:13Z</time>
      </trkpt>
      <trkpt lat="46.50097" lon="5.37454">
        <ele>243.8</ele>
        <time>2021-08-26T12:23:15Z</time>
      </trkpt>
      <trkpt lat="46.50104" lon="5.37467">
        <ele>243.8</ele>
        <time>2021-08-26T12:23:17Z</time>
      </trkpt>
      <trkpt lat="46.50111" lon="5.3748">
        <ele>244</ele>
        <time>2021-08-26T12:23:19Z</time>
      </trkpt>
      <trkpt lat="46.50115" lon="5.37487">
        <ele>244.2</ele>
        <time>2021-08-26T12:23:20Z</time>
      </trkpt>
      <trkpt lat="46.50119" lon="5.37493">
        <ele>244.2</ele>
        <time>2021-08-26T12:23:21Z</time>
      </trkpt>
      <trkpt lat="46.50126" lon="5.37507">
        <ele>244.2</ele>
        <time>2021-08-26T12:23:23Z</time>
      </trkpt>
      <trkpt lat="46.50132" lon="5.37522">
        <ele>244.2</ele>
        <time>2021-08-26T12:23:25Z</time>
      </trkpt>
      <trkpt lat="46.50134" lon="5.37529">
        <ele>244.2</ele>
        <time>2021-08-26T12:23:26Z</time>
      </trkpt>
      <trkpt lat="46.50137" lon="5.37537">
        <ele>244.2</ele>
        <time>2021-08-26T12:23:27Z</time>
      </trkpt>
      <trkpt lat="46.50141" lon="5.37553">
        <ele>244.2</ele>
        <time>2021-08-26T12:23:29Z</time>
      </trkpt>
      <trkpt lat="46.50142" lon="5.37562">
        <ele>244.4</ele>
        <time>2021-08-26T12:23:30Z</time>
      </trkpt>
      <trkpt lat="46.50143" lon="5.3757">
        <ele>244.4</ele>
        <time>2021-08-26T12:23:31Z</time>
      </trkpt>
      <trkpt lat="46.50144" lon="5.37579">
        <ele>244.4</ele>
        <time>2021-08-26T12:23:32Z</time>
      </trkpt>
      <trkpt lat="46.50144" lon="5.37588">
        <ele>244.4</ele>
        <time>2021-08-26T12:23:33Z</time>
      </trkpt>
      <trkpt lat="46.50145" lon="5.37605">
        <ele>244.4</ele>
        <time>2021-08-26T12:23:35Z</time>
      </trkpt>
      <trkpt lat="46.50146" lon="5.37622">
        <ele>244.4</ele>
        <time>2021-08-26T12:23:37Z</time>
      </trkpt>
      <trkpt lat="46.50147" lon="5.3764">
        <ele>244.6</ele>
        <time>2021-08-26T12:23:39Z</time>
      </trkpt>
      <trkpt lat="46.50147" lon="5.37657">
        <ele>244.6</ele>
        <time>2021-08-26T12:23:41Z</time>
      </trkpt>
      <trkpt lat="46.50146" lon="5.37665">
        <ele>244.8</ele>
        <time>2021-08-26T12:23:42Z</time>
      </trkpt>
      <trkpt lat="46.50146" lon="5.37673">
        <ele>244.8</ele>
        <time>2021-08-26T12:23:43Z</time>
      </trkpt>
      <trkpt lat="46.50148" lon="5.37688">
        <ele>244.8</ele>
        <time>2021-08-26T12:23:45Z</time>
      </trkpt>
      <trkpt lat="46.5015" lon="5.37695">
        <ele>244.8</ele>
        <time>2021-08-26T12:23:46Z</time>
      </trkpt>
      <trkpt lat="46.50152" lon="5.37702">
        <ele>245</ele>
        <time>2021-08-26T12:23:47Z</time>
      </trkpt>
      <trkpt lat="46.50154" lon="5.37714">
        <ele>245.4</ele>
        <time>2021-08-26T12:23:49Z</time>
      </trkpt>
      <trkpt lat="46.50156" lon="5.3772">
        <ele>245.6</ele>
        <time>2021-08-26T12:23:50Z</time>
      </trkpt>
      <trkpt lat="46.50159" lon="5.37727">
        <ele>245.8</ele>
        <time>2021-08-26T12:23:51Z</time>
      </trkpt>
      <trkpt lat="46.50163" lon="5.37737">
        <ele>246.2</ele>
        <time>2021-08-26T12:23:53Z</time>
      </trkpt>
      <trkpt lat="46.50167" lon="5.37747">
        <ele>246.8</ele>
        <time>2021-08-26T12:23:55Z</time>
      </trkpt>
      <trkpt lat="46.5017" lon="5.37752">
        <ele>247</ele>
        <time>2021-08-26T12:23:56Z</time>
      </trkpt>
      <trkpt lat="46.50175" lon="5.37756">
        <ele>247.2</ele>
        <time>2021-08-26T12:23:57Z</time>
      </trkpt>
      <trkpt lat="46.50186" lon="5.37761">
        <ele>247.8</ele>
        <time>2021-08-26T12:23:59Z</time>
      </trkpt>
      <trkpt lat="46.50192" lon="5.37763">
        <ele>248.2</ele>
        <time>2021-08-26T12:24:00Z</time>
      </trkpt>
      <trkpt lat="46.50198" lon="5.37766">
        <ele>248.4</ele>
        <time>2021-08-26T12:24:01Z</time>
      </trkpt>
      <trkpt lat="46.50211" lon="5.37773">
        <ele>248.6</ele>
        <time>2021-08-26T12:24:03Z</time>
      </trkpt>
      <trkpt lat="46.50222" lon="5.37781">
        <ele>248.8</ele>
        <time>2021-08-26T12:24:05Z</time>
      </trkpt>
      <trkpt lat="46.50233" lon="5.3779">
        <ele>248.8</ele>
        <time>2021-08-26T12:24:07Z</time>
      </trkpt>
      <trkpt lat="46.50242" lon="5.37799">
        <ele>249.4</ele>
        <time>2021-08-26T12:24:09Z</time>
      </trkpt>
      <trkpt lat="46.50247" lon="5.37803">
        <ele>249.4</ele>
        <time>2021-08-26T12:24:10Z</time>
      </trkpt>
      <trkpt lat="46.50252" lon="5.37808">
        <ele>249.4</ele>
        <time>2021-08-26T12:24:11Z</time>
      </trkpt>
      <trkpt lat="46.50261" lon="5.37816">
        <ele>249.6</ele>
        <time>2021-08-26T12:24:13Z</time>
      </trkpt>
      <trkpt lat="46.50269" lon="5.37826">
        <ele>249.6</ele>
        <time>2021-08-26T12:24:15Z</time>
      </trkpt>
      <trkpt lat="46.50279" lon="5.37835">
        <ele>249.6</ele>
        <time>2021-08-26T12:24:17Z</time>
      </trkpt>
      <trkpt lat="46.50288" lon="5.37845">
        <ele>249.6</ele>
        <time>2021-08-26T12:24:19Z</time>
      </trkpt>
      <trkpt lat="46.50297" lon="5.37855">
        <ele>249.8</ele>
        <time>2021-08-26T12:24:21Z</time>
      </trkpt>
      <trkpt lat="46.50307" lon="5.37866">
        <ele>249.8</ele>
        <time>2021-08-26T12:24:23Z</time>
      </trkpt>
      <trkpt lat="46.50318" lon="5.37876">
        <ele>250</ele>
        <time>2021-08-26T12:24:25Z</time>
      </trkpt>
      <trkpt lat="46.50328" lon="5.37886">
        <ele>250</ele>
        <time>2021-08-26T12:24:27Z</time>
      </trkpt>
      <trkpt lat="46.50339" lon="5.37897">
        <ele>250</ele>
        <time>2021-08-26T12:24:29Z</time>
      </trkpt>
      <trkpt lat="46.50344" lon="5.37904">
        <ele>250</ele>
        <time>2021-08-26T12:24:30Z</time>
      </trkpt>
      <trkpt lat="46.50348" lon="5.3791">
        <ele>250</ele>
        <time>2021-08-26T12:24:31Z</time>
      </trkpt>
      <trkpt lat="46.50355" lon="5.37925">
        <ele>250.2</ele>
        <time>2021-08-26T12:24:33Z</time>
      </trkpt>
      <trkpt lat="46.50359" lon="5.37941">
        <ele>250.2</ele>
        <time>2021-08-26T12:24:35Z</time>
      </trkpt>
      <trkpt lat="46.50361" lon="5.37949">
        <ele>250.2</ele>
        <time>2021-08-26T12:24:36Z</time>
      </trkpt>
      <trkpt lat="46.50361" lon="5.37958">
        <ele>250.2</ele>
        <time>2021-08-26T12:24:37Z</time>
      </trkpt>
      <trkpt lat="46.50361" lon="5.37966">
        <ele>250.4</ele>
        <time>2021-08-26T12:24:38Z</time>
      </trkpt>
      <trkpt lat="46.50361" lon="5.37975">
        <ele>250.4</ele>
        <time>2021-08-26T12:24:39Z</time>
      </trkpt>
      <trkpt lat="46.5036" lon="5.37984">
        <ele>250.6</ele>
        <time>2021-08-26T12:24:40Z</time>
      </trkpt>
      <trkpt lat="46.50359" lon="5.37993">
        <ele>250.6</ele>
        <time>2021-08-26T12:24:41Z</time>
      </trkpt>
      <trkpt lat="46.50358" lon="5.38012">
        <ele>250.8</ele>
        <time>2021-08-26T12:24:43Z</time>
      </trkpt>
      <trkpt lat="46.50358" lon="5.38022">
        <ele>250.8</ele>
        <time>2021-08-26T12:24:44Z</time>
      </trkpt>
      <trkpt lat="46.5036" lon="5.38031">
        <ele>250.8</ele>
        <time>2021-08-26T12:24:45Z</time>
      </trkpt>
      <trkpt lat="46.50366" lon="5.38042">
        <ele>250.8</ele>
        <time>2021-08-26T12:24:47Z</time>
      </trkpt>
      <trkpt lat="46.50368" lon="5.38045">
        <ele>250.8</ele>
        <time>2021-08-26T12:24:48Z</time>
      </trkpt>
      <trkpt lat="46.50369" lon="5.38047">
        <ele>251</ele>
        <time>2021-08-26T12:24:49Z</time>
      </trkpt>
      <trkpt lat="46.50371" lon="5.38049">
        <ele>251.2</ele>
        <time>2021-08-26T12:24:51Z</time>
      </trkpt>
      <trkpt lat="46.50371" lon="5.3805">
        <ele>251.4</ele>
        <time>2021-08-26T12:24:52Z</time>
      </trkpt>
      <trkpt lat="46.50371" lon="5.3805">
        <ele>251.4</ele>
        <time>2021-08-26T12:24:53Z</time>
      </trkpt>
      <trkpt lat="46.50374" lon="5.38052">
        <ele>251.4</ele>
        <time>2021-08-26T12:24:59Z</time>
      </trkpt>
      <trkpt lat="46.50376" lon="5.38052">
        <ele>251.4</ele>
        <time>2021-08-26T12:25:00Z</time>
      </trkpt>
      <trkpt lat="46.50379" lon="5.38053">
        <ele>251.4</ele>
        <time>2021-08-26T12:25:01Z</time>
      </trkpt>
      <trkpt lat="46.50383" lon="5.38052">
        <ele>251.4</ele>
        <time>2021-08-26T12:25:02Z</time>
      </trkpt>
      <trkpt lat="46.50387" lon="5.38048">
        <ele>251.4</ele>
        <time>2021-08-26T12:25:03Z</time>
      </trkpt>
      <trkpt lat="46.50395" lon="5.38034">
        <ele>251.4</ele>
        <time>2021-08-26T12:25:05Z</time>
      </trkpt>
      <trkpt lat="46.50404" lon="5.38017">
        <ele>251.2</ele>
        <time>2021-08-26T12:25:07Z</time>
      </trkpt>
      <trkpt lat="46.50414" lon="5.38">
        <ele>251</ele>
        <time>2021-08-26T12:25:09Z</time>
      </trkpt>
      <trkpt lat="46.50425" lon="5.37981">
        <ele>250.4</ele>
        <time>2021-08-26T12:25:11Z</time>
      </trkpt>
      <trkpt lat="46.50431" lon="5.37971">
        <ele>249.6</ele>
        <time>2021-08-26T12:25:12Z</time>
      </trkpt>
      <trkpt lat="46.50437" lon="5.37961">
        <ele>249</ele>
        <time>2021-08-26T12:25:13Z</time>
      </trkpt>
      <trkpt lat="46.50443" lon="5.37951">
        <ele>248.4</ele>
        <time>2021-08-26T12:25:14Z</time>
      </trkpt>
      <trkpt lat="46.50449" lon="5.37941">
        <ele>248</ele>
        <time>2021-08-26T12:25:15Z</time>
      </trkpt>
      <trkpt lat="46.50455" lon="5.37931">
        <ele>247.4</ele>
        <time>2021-08-26T12:25:16Z</time>
      </trkpt>
      <trkpt lat="46.50462" lon="5.37921">
        <ele>247</ele>
        <time>2021-08-26T12:25:17Z</time>
      </trkpt>
      <trkpt lat="46.50469" lon="5.37911">
        <ele>246.4</ele>
        <time>2021-08-26T12:25:18Z</time>
      </trkpt>
      <trkpt lat="46.50476" lon="5.37901">
        <ele>245.8</ele>
        <time>2021-08-26T12:25:19Z</time>
      </trkpt>
      <trkpt lat="46.50482" lon="5.37892">
        <ele>245.2</ele>
        <time>2021-08-26T12:25:20Z</time>
      </trkpt>
      <trkpt lat="46.50489" lon="5.37882">
        <ele>244.6</ele>
        <time>2021-08-26T12:25:21Z</time>
      </trkpt>
      <trkpt lat="46.50495" lon="5.37871">
        <ele>243.8</ele>
        <time>2021-08-26T12:25:22Z</time>
      </trkpt>
      <trkpt lat="46.50502" lon="5.37861">
        <ele>243</ele>
        <time>2021-08-26T12:25:23Z</time>
      </trkpt>
      <trkpt lat="46.50509" lon="5.37851">
        <ele>242.4</ele>
        <time>2021-08-26T12:25:24Z</time>
      </trkpt>
      <trkpt lat="46.50515" lon="5.3784">
        <ele>242</ele>
        <time>2021-08-26T12:25:25Z</time>
      </trkpt>
      <trkpt lat="46.50529" lon="5.3782">
        <ele>241.4</ele>
        <time>2021-08-26T12:25:27Z</time>
      </trkpt>
      <trkpt lat="46.50542" lon="5.37799">
        <ele>240.6</ele>
        <time>2021-08-26T12:25:29Z</time>
      </trkpt>
      <trkpt lat="46.50549" lon="5.37789">
        <ele>240</ele>
        <time>2021-08-26T12:25:30Z</time>
      </trkpt>
      <trkpt lat="46.50556" lon="5.37778">
        <ele>239.8</ele>
        <time>2021-08-26T12:25:31Z</time>
      </trkpt>
      <trkpt lat="46.5057" lon="5.37758">
        <ele>238.8</ele>
        <time>2021-08-26T12:25:33Z</time>
      </trkpt>
      <trkpt lat="46.50583" lon="5.37737">
        <ele>237.2</ele>
        <time>2021-08-26T12:25:35Z</time>
      </trkpt>
      <trkpt lat="46.50597" lon="5.37716">
        <ele>236.4</ele>
        <time>2021-08-26T12:25:37Z</time>
      </trkpt>
      <trkpt lat="46.50604" lon="5.37706">
        <ele>236</ele>
        <time>2021-08-26T12:25:38Z</time>
      </trkpt>
      <trkpt lat="46.50611" lon="5.37695">
        <ele>235.6</ele>
        <time>2021-08-26T12:25:39Z</time>
      </trkpt>
      <trkpt lat="46.50625" lon="5.37673">
        <ele>234.6</ele>
        <time>2021-08-26T12:25:41Z</time>
      </trkpt>
      <trkpt lat="46.50638" lon="5.37652">
        <ele>234.2</ele>
        <time>2021-08-26T12:25:43Z</time>
      </trkpt>
      <trkpt lat="46.50645" lon="5.37642">
        <ele>234.2</ele>
        <time>2021-08-26T12:25:44Z</time>
      </trkpt>
      <trkpt lat="46.50651" lon="5.37632">
        <ele>234</ele>
        <time>2021-08-26T12:25:45Z</time>
      </trkpt>
      <trkpt lat="46.50664" lon="5.37614">
        <ele>233.6</ele>
        <time>2021-08-26T12:25:47Z</time>
      </trkpt>
      <trkpt lat="46.5067" lon="5.37604">
        <ele>233.2</ele>
        <time>2021-08-26T12:25:48Z</time>
      </trkpt>
      <trkpt lat="46.50675" lon="5.37596">
        <ele>232.8</ele>
        <time>2021-08-26T12:25:49Z</time>
      </trkpt>
      <trkpt lat="46.50681" lon="5.37587">
        <ele>232.2</ele>
        <time>2021-08-26T12:25:50Z</time>
      </trkpt>
      <trkpt lat="46.50686" lon="5.37579">
        <ele>232</ele>
        <time>2021-08-26T12:25:51Z</time>
      </trkpt>
      <trkpt lat="46.50696" lon="5.37567">
        <ele>231.8</ele>
        <time>2021-08-26T12:25:53Z</time>
      </trkpt>
      <trkpt lat="46.50702" lon="5.37565">
        <ele>231.8</ele>
        <time>2021-08-26T12:25:54Z</time>
      </trkpt>
      <trkpt lat="46.50708" lon="5.37567">
        <ele>231.8</ele>
        <time>2021-08-26T12:25:55Z</time>
      </trkpt>
      <trkpt lat="46.50713" lon="5.37573">
        <ele>231.8</ele>
        <time>2021-08-26T12:25:56Z</time>
      </trkpt>
      <trkpt lat="46.50718" lon="5.3758">
        <ele>231.8</ele>
        <time>2021-08-26T12:25:57Z</time>
      </trkpt>
      <trkpt lat="46.50727" lon="5.37594">
        <ele>231.8</ele>
        <time>2021-08-26T12:25:59Z</time>
      </trkpt>
      <trkpt lat="46.50735" lon="5.37609">
        <ele>232</ele>
        <time>2021-08-26T12:26:01Z</time>
      </trkpt>
      <trkpt lat="46.5074" lon="5.37626">
        <ele>232</ele>
        <time>2021-08-26T12:26:03Z</time>
      </trkpt>
      <trkpt lat="46.50742" lon="5.37643">
        <ele>232.6</ele>
        <time>2021-08-26T12:26:05Z</time>
      </trkpt>
      <trkpt lat="46.50742" lon="5.3766">
        <ele>232.8</ele>
        <time>2021-08-26T12:26:07Z</time>
      </trkpt>
      <trkpt lat="46.50743" lon="5.37675">
        <ele>233.4</ele>
        <time>2021-08-26T12:26:09Z</time>
      </trkpt>
      <trkpt lat="46.50744" lon="5.3769">
        <ele>234.4</ele>
        <time>2021-08-26T12:26:11Z</time>
      </trkpt>
      <trkpt lat="46.50745" lon="5.37704">
        <ele>235.2</ele>
        <time>2021-08-26T12:26:13Z</time>
      </trkpt>
      <trkpt lat="46.50745" lon="5.37711">
        <ele>235.2</ele>
        <time>2021-08-26T12:26:14Z</time>
      </trkpt>
      <trkpt lat="46.50746" lon="5.37718">
        <ele>235.8</ele>
        <time>2021-08-26T12:26:15Z</time>
      </trkpt>
      <trkpt lat="46.50747" lon="5.37733">
        <ele>236.8</ele>
        <time>2021-08-26T12:26:17Z</time>
      </trkpt>
      <trkpt lat="46.50749" lon="5.37749">
        <ele>237.8</ele>
        <time>2021-08-26T12:26:19Z</time>
      </trkpt>
      <trkpt lat="46.5075" lon="5.37756">
        <ele>238.2</ele>
        <time>2021-08-26T12:26:20Z</time>
      </trkpt>
      <trkpt lat="46.50751" lon="5.37764">
        <ele>238.6</ele>
        <time>2021-08-26T12:26:21Z</time>
      </trkpt>
      <trkpt lat="46.50754" lon="5.3778">
        <ele>239</ele>
        <time>2021-08-26T12:26:23Z</time>
      </trkpt>
      <trkpt lat="46.50757" lon="5.37795">
        <ele>239</ele>
        <time>2021-08-26T12:26:25Z</time>
      </trkpt>
      <trkpt lat="46.50759" lon="5.37803">
        <ele>239.4</ele>
        <time>2021-08-26T12:26:26Z</time>
      </trkpt>
      <trkpt lat="46.50762" lon="5.3781">
        <ele>239.4</ele>
        <time>2021-08-26T12:26:27Z</time>
      </trkpt>
      <trkpt lat="46.50768" lon="5.37824">
        <ele>239.4</ele>
        <time>2021-08-26T12:26:29Z</time>
      </trkpt>
      <trkpt lat="46.50774" lon="5.37837">
        <ele>239.6</ele>
        <time>2021-08-26T12:26:31Z</time>
      </trkpt>
      <trkpt lat="46.5078" lon="5.37849">
        <ele>239.6</ele>
        <time>2021-08-26T12:26:33Z</time>
      </trkpt>
      <trkpt lat="46.50788" lon="5.37861">
        <ele>239.8</ele>
        <time>2021-08-26T12:26:35Z</time>
      </trkpt>
      <trkpt lat="46.50797" lon="5.37872">
        <ele>240</ele>
        <time>2021-08-26T12:26:37Z</time>
      </trkpt>
      <trkpt lat="46.50806" lon="5.37883">
        <ele>240.2</ele>
        <time>2021-08-26T12:26:39Z</time>
      </trkpt>
      <trkpt lat="46.50811" lon="5.37888">
        <ele>240.2</ele>
        <time>2021-08-26T12:26:40Z</time>
      </trkpt>
      <trkpt lat="46.50817" lon="5.37892">
        <ele>240.4</ele>
        <time>2021-08-26T12:26:41Z</time>
      </trkpt>
      <trkpt lat="46.50829" lon="5.37899">
        <ele>240.4</ele>
        <time>2021-08-26T12:26:43Z</time>
      </trkpt>
      <trkpt lat="46.50835" lon="5.37901">
        <ele>240.4</ele>
        <time>2021-08-26T12:26:44Z</time>
      </trkpt>
      <trkpt lat="46.50841" lon="5.37902">
        <ele>240.4</ele>
        <time>2021-08-26T12:26:45Z</time>
      </trkpt>
      <trkpt lat="46.50847" lon="5.37902">
        <ele>240.4</ele>
        <time>2021-08-26T12:26:46Z</time>
      </trkpt>
      <trkpt lat="46.50854" lon="5.37903">
        <ele>240.4</ele>
        <time>2021-08-26T12:26:47Z</time>
      </trkpt>
      <trkpt lat="46.50867" lon="5.37904">
        <ele>240.4</ele>
        <time>2021-08-26T12:26:49Z</time>
      </trkpt>
      <trkpt lat="46.5088" lon="5.37905">
        <ele>240.2</ele>
        <time>2021-08-26T12:26:51Z</time>
      </trkpt>
      <trkpt lat="46.50892" lon="5.37905">
        <ele>240</ele>
        <time>2021-08-26T12:26:53Z</time>
      </trkpt>
      <trkpt lat="46.50905" lon="5.37905">
        <ele>239.8</ele>
        <time>2021-08-26T12:26:55Z</time>
      </trkpt>
      <trkpt lat="46.50918" lon="5.37904">
        <ele>239.8</ele>
        <time>2021-08-26T12:26:57Z</time>
      </trkpt>
      <trkpt lat="46.5093" lon="5.37901">
        <ele>239.8</ele>
        <time>2021-08-26T12:26:59Z</time>
      </trkpt>
      <trkpt lat="46.50942" lon="5.37897">
        <ele>239.8</ele>
        <time>2021-08-26T12:27:01Z</time>
      </trkpt>
      <trkpt lat="46.50954" lon="5.37893">
        <ele>239.8</ele>
        <time>2021-08-26T12:27:03Z</time>
      </trkpt>
      <trkpt lat="46.50965" lon="5.37889">
        <ele>239.8</ele>
        <time>2021-08-26T12:27:05Z</time>
      </trkpt>
      <trkpt lat="46.50978" lon="5.37886">
        <ele>239.8</ele>
        <time>2021-08-26T12:27:07Z</time>
      </trkpt>
      <trkpt lat="46.50984" lon="5.37884">
        <ele>239.8</ele>
        <time>2021-08-26T12:27:08Z</time>
      </trkpt>
      <trkpt lat="46.5099" lon="5.37883">
        <ele>239.6</ele>
        <time>2021-08-26T12:27:09Z</time>
      </trkpt>
      <trkpt lat="46.51003" lon="5.3788">
        <ele>239.6</ele>
        <time>2021-08-26T12:27:11Z</time>
      </trkpt>
      <trkpt lat="46.51016" lon="5.37878">
        <ele>239.4</ele>
        <time>2021-08-26T12:27:13Z</time>
      </trkpt>
      <trkpt lat="46.51029" lon="5.37876">
        <ele>239.4</ele>
        <time>2021-08-26T12:27:15Z</time>
      </trkpt>
      <trkpt lat="46.51043" lon="5.37873">
        <ele>239</ele>
        <time>2021-08-26T12:27:17Z</time>
      </trkpt>
      <trkpt lat="46.51058" lon="5.37871">
        <ele>238.8</ele>
        <time>2021-08-26T12:27:19Z</time>
      </trkpt>
      <trkpt lat="46.51073" lon="5.37871">
        <ele>238</ele>
        <time>2021-08-26T12:27:21Z</time>
      </trkpt>
      <trkpt lat="46.51081" lon="5.3787">
        <ele>237.8</ele>
        <time>2021-08-26T12:27:22Z</time>
      </trkpt>
      <trkpt lat="46.51088" lon="5.37868">
        <ele>237.6</ele>
        <time>2021-08-26T12:27:23Z</time>
      </trkpt>
      <trkpt lat="46.51103" lon="5.37863">
        <ele>237.4</ele>
        <time>2021-08-26T12:27:25Z</time>
      </trkpt>
      <trkpt lat="46.5111" lon="5.3786">
        <ele>237</ele>
        <time>2021-08-26T12:27:26Z</time>
      </trkpt>
      <trkpt lat="46.51117" lon="5.37856">
        <ele>236.2</ele>
        <time>2021-08-26T12:27:27Z</time>
      </trkpt>
      <trkpt lat="46.51125" lon="5.37852">
        <ele>235.8</ele>
        <time>2021-08-26T12:27:28Z</time>
      </trkpt>
      <trkpt lat="46.51132" lon="5.37847">
        <ele>235.4</ele>
        <time>2021-08-26T12:27:29Z</time>
      </trkpt>
      <trkpt lat="46.51147" lon="5.37836">
        <ele>235</ele>
        <time>2021-08-26T12:27:31Z</time>
      </trkpt>
      <trkpt lat="46.51154" lon="5.37831">
        <ele>234.8</ele>
        <time>2021-08-26T12:27:32Z</time>
      </trkpt>
      <trkpt lat="46.51161" lon="5.37825">
        <ele>234.8</ele>
        <time>2021-08-26T12:27:33Z</time>
      </trkpt>
      <trkpt lat="46.51168" lon="5.3782">
        <ele>234.6</ele>
        <time>2021-08-26T12:27:34Z</time>
      </trkpt>
      <trkpt lat="46.51175" lon="5.37816">
        <ele>234.6</ele>
        <time>2021-08-26T12:27:35Z</time>
      </trkpt>
      <trkpt lat="46.5119" lon="5.37809">
        <ele>233.8</ele>
        <time>2021-08-26T12:27:37Z</time>
      </trkpt>
      <trkpt lat="46.51198" lon="5.37808">
        <ele>233.6</ele>
        <time>2021-08-26T12:27:38Z</time>
      </trkpt>
      <trkpt lat="46.51207" lon="5.37806">
        <ele>233.4</ele>
        <time>2021-08-26T12:27:39Z</time>
      </trkpt>
      <trkpt lat="46.51223" lon="5.37804">
        <ele>233</ele>
        <time>2021-08-26T12:27:41Z</time>
      </trkpt>
      <trkpt lat="46.5124" lon="5.37801">
        <ele>232.8</ele>
        <time>2021-08-26T12:27:43Z</time>
      </trkpt>
      <trkpt lat="46.51256" lon="5.37797">
        <ele>232.4</ele>
        <time>2021-08-26T12:27:45Z</time>
      </trkpt>
      <trkpt lat="46.51271" lon="5.3779">
        <ele>232</ele>
        <time>2021-08-26T12:27:47Z</time>
      </trkpt>
      <trkpt lat="46.51279" lon="5.37787">
        <ele>231.8</ele>
        <time>2021-08-26T12:27:48Z</time>
      </trkpt>
      <trkpt lat="46.51287" lon="5.37783">
        <ele>231</ele>
        <time>2021-08-26T12:27:49Z</time>
      </trkpt>
      <trkpt lat="46.51302" lon="5.37775">
        <ele>230.8</ele>
        <time>2021-08-26T12:27:51Z</time>
      </trkpt>
      <trkpt lat="46.51317" lon="5.37768">
        <ele>230.8</ele>
        <time>2021-08-26T12:27:53Z</time>
      </trkpt>
      <trkpt lat="46.51331" lon="5.3776">
        <ele>230.6</ele>
        <time>2021-08-26T12:27:55Z</time>
      </trkpt>
      <trkpt lat="46.51346" lon="5.37753">
        <ele>230.2</ele>
        <time>2021-08-26T12:27:57Z</time>
      </trkpt>
      <trkpt lat="46.51353" lon="5.37749">
        <ele>230</ele>
        <time>2021-08-26T12:27:58Z</time>
      </trkpt>
      <trkpt lat="46.51361" lon="5.37745">
        <ele>229.6</ele>
        <time>2021-08-26T12:27:59Z</time>
      </trkpt>
      <trkpt lat="46.51376" lon="5.37737">
        <ele>229.4</ele>
        <time>2021-08-26T12:28:01Z</time>
      </trkpt>
      <trkpt lat="46.51391" lon="5.37729">
        <ele>229</ele>
        <time>2021-08-26T12:28:03Z</time>
      </trkpt>
      <trkpt lat="46.51399" lon="5.37726">
        <ele>228.6</ele>
        <time>2021-08-26T12:28:04Z</time>
      </trkpt>
      <trkpt lat="46.51407" lon="5.37723">
        <ele>228.4</ele>
        <time>2021-08-26T12:28:05Z</time>
      </trkpt>
      <trkpt lat="46.51422" lon="5.37718">
        <ele>228</ele>
        <time>2021-08-26T12:28:07Z</time>
      </trkpt>
      <trkpt lat="46.51438" lon="5.37713">
        <ele>227.6</ele>
        <time>2021-08-26T12:28:09Z</time>
      </trkpt>
      <trkpt lat="46.51446" lon="5.37711">
        <ele>227.6</ele>
        <time>2021-08-26T12:28:10Z</time>
      </trkpt>
      <trkpt lat="46.51454" lon="5.37709">
        <ele>227.6</ele>
        <time>2021-08-26T12:28:11Z</time>
      </trkpt>
      <trkpt lat="46.5147" lon="5.37705">
        <ele>227.4</ele>
        <time>2021-08-26T12:28:13Z</time>
      </trkpt>
      <trkpt lat="46.51486" lon="5.37702">
        <ele>227.2</ele>
        <time>2021-08-26T12:28:15Z</time>
      </trkpt>
      <trkpt lat="46.51502" lon="5.37699">
        <ele>226.6</ele>
        <time>2021-08-26T12:28:17Z</time>
      </trkpt>
      <trkpt lat="46.51518" lon="5.37695">
        <ele>226.2</ele>
        <time>2021-08-26T12:28:19Z</time>
      </trkpt>
      <trkpt lat="46.51534" lon="5.37691">
        <ele>225.8</ele>
        <time>2021-08-26T12:28:21Z</time>
      </trkpt>
      <trkpt lat="46.51551" lon="5.37687">
        <ele>225.6</ele>
        <time>2021-08-26T12:28:23Z</time>
      </trkpt>
      <trkpt lat="46.51567" lon="5.37684">
        <ele>225.4</ele>
        <time>2021-08-26T12:28:25Z</time>
      </trkpt>
      <trkpt lat="46.51584" lon="5.37682">
        <ele>225</ele>
        <time>2021-08-26T12:28:27Z</time>
      </trkpt>
      <trkpt lat="46.51601" lon="5.3768">
        <ele>224.4</ele>
        <time>2021-08-26T12:28:29Z</time>
      </trkpt>
      <trkpt lat="46.51609" lon="5.37679">
        <ele>224.2</ele>
        <time>2021-08-26T12:28:30Z</time>
      </trkpt>
      <trkpt lat="46.51618" lon="5.37677">
        <ele>224</ele>
        <time>2021-08-26T12:28:31Z</time>
      </trkpt>
      <trkpt lat="46.51634" lon="5.37671">
        <ele>223.6</ele>
        <time>2021-08-26T12:28:33Z</time>
      </trkpt>
      <trkpt lat="46.51643" lon="5.37668">
        <ele>223.4</ele>
        <time>2021-08-26T12:28:34Z</time>
      </trkpt>
      <trkpt lat="46.51651" lon="5.37664">
        <ele>223.4</ele>
        <time>2021-08-26T12:28:35Z</time>
      </trkpt>
      <trkpt lat="46.51666" lon="5.37657">
        <ele>223.2</ele>
        <time>2021-08-26T12:28:37Z</time>
      </trkpt>
      <trkpt lat="46.51673" lon="5.37653">
        <ele>223</ele>
        <time>2021-08-26T12:28:38Z</time>
      </trkpt>
      <trkpt lat="46.5168" lon="5.37648">
        <ele>222.8</ele>
        <time>2021-08-26T12:28:39Z</time>
      </trkpt>
      <trkpt lat="46.51687" lon="5.37643">
        <ele>222.8</ele>
        <time>2021-08-26T12:28:40Z</time>
      </trkpt>
      <trkpt lat="46.51694" lon="5.37638">
        <ele>222.6</ele>
        <time>2021-08-26T12:28:41Z</time>
      </trkpt>
      <trkpt lat="46.51701" lon="5.37634">
        <ele>222.6</ele>
        <time>2021-08-26T12:28:42Z</time>
      </trkpt>
      <trkpt lat="46.51708" lon="5.37632">
        <ele>222.6</ele>
        <time>2021-08-26T12:28:43Z</time>
      </trkpt>
      <trkpt lat="46.51716" lon="5.37632">
        <ele>222.6</ele>
        <time>2021-08-26T12:28:44Z</time>
      </trkpt>
      <trkpt lat="46.51723" lon="5.37633">
        <ele>222.6</ele>
        <time>2021-08-26T12:28:45Z</time>
      </trkpt>
      <trkpt lat="46.5173" lon="5.37635">
        <ele>222.6</ele>
        <time>2021-08-26T12:28:46Z</time>
      </trkpt>
      <trkpt lat="46.51736" lon="5.37637">
        <ele>222.6</ele>
        <time>2021-08-26T12:28:47Z</time>
      </trkpt>
      <trkpt lat="46.5175" lon="5.37641">
        <ele>222.6</ele>
        <time>2021-08-26T12:28:49Z</time>
      </trkpt>
      <trkpt lat="46.51762" lon="5.37645">
        <ele>222.8</ele>
        <time>2021-08-26T12:28:51Z</time>
      </trkpt>
      <trkpt lat="46.51774" lon="5.37648">
        <ele>223.2</ele>
        <time>2021-08-26T12:28:53Z</time>
      </trkpt>
      <trkpt lat="46.51786" lon="5.37651">
        <ele>223.8</ele>
        <time>2021-08-26T12:28:55Z</time>
      </trkpt>
      <trkpt lat="46.51791" lon="5.37652">
        <ele>224</ele>
        <time>2021-08-26T12:28:56Z</time>
      </trkpt>
      <trkpt lat="46.51797" lon="5.37653">
        <ele>224.2</ele>
        <time>2021-08-26T12:28:57Z</time>
      </trkpt>
      <trkpt lat="46.51808" lon="5.37653">
        <ele>224.6</ele>
        <time>2021-08-26T12:28:59Z</time>
      </trkpt>
      <trkpt lat="46.5182" lon="5.37653">
        <ele>225</ele>
        <time>2021-08-26T12:29:01Z</time>
      </trkpt>
      <trkpt lat="46.51825" lon="5.37652">
        <ele>225.2</ele>
        <time>2021-08-26T12:29:02Z</time>
      </trkpt>
      <trkpt lat="46.51831" lon="5.37651">
        <ele>225.2</ele>
        <time>2021-08-26T12:29:03Z</time>
      </trkpt>
      <trkpt lat="46.51842" lon="5.37651">
        <ele>225.8</ele>
        <time>2021-08-26T12:29:05Z</time>
      </trkpt>
      <trkpt lat="46.51853" lon="5.3765">
        <ele>226.2</ele>
        <time>2021-08-26T12:29:07Z</time>
      </trkpt>
      <trkpt lat="46.51859" lon="5.3765">
        <ele>226.4</ele>
        <time>2021-08-26T12:29:08Z</time>
      </trkpt>
      <trkpt lat="46.51865" lon="5.37649">
        <ele>226.4</ele>
        <time>2021-08-26T12:29:09Z</time>
      </trkpt>
      <trkpt lat="46.51878" lon="5.37649">
        <ele>226.6</ele>
        <time>2021-08-26T12:29:11Z</time>
      </trkpt>
      <trkpt lat="46.51891" lon="5.37649">
        <ele>227.2</ele>
        <time>2021-08-26T12:29:13Z</time>
      </trkpt>
      <trkpt lat="46.51903" lon="5.37648">
        <ele>227.2</ele>
        <time>2021-08-26T12:29:15Z</time>
      </trkpt>
      <trkpt lat="46.5191" lon="5.37647">
        <ele>227.4</ele>
        <time>2021-08-26T12:29:16Z</time>
      </trkpt>
      <trkpt lat="46.51917" lon="5.37646">
        <ele>227.4</ele>
        <time>2021-08-26T12:29:17Z</time>
      </trkpt>
      <trkpt lat="46.51931" lon="5.37643">
        <ele>227.4</ele>
        <time>2021-08-26T12:29:19Z</time>
      </trkpt>
      <trkpt lat="46.51944" lon="5.3764">
        <ele>227.4</ele>
        <time>2021-08-26T12:29:21Z</time>
      </trkpt>
      <trkpt lat="46.51958" lon="5.37638">
        <ele>227.4</ele>
        <time>2021-08-26T12:29:23Z</time>
      </trkpt>
      <trkpt lat="46.51971" lon="5.37635">
        <ele>227.2</ele>
        <time>2021-08-26T12:29:25Z</time>
      </trkpt>
      <trkpt lat="46.51985" lon="5.37633">
        <ele>226.8</ele>
        <time>2021-08-26T12:29:27Z</time>
      </trkpt>
      <trkpt lat="46.51998" lon="5.37631">
        <ele>226.4</ele>
        <time>2021-08-26T12:29:29Z</time>
      </trkpt>
      <trkpt lat="46.52009" lon="5.3763">
        <ele>226.4</ele>
        <time>2021-08-26T12:29:31Z</time>
      </trkpt>
      <trkpt lat="46.52017" lon="5.37629">
        <ele>226.2</ele>
        <time>2021-08-26T12:29:33Z</time>
      </trkpt>
      <trkpt lat="46.52023" lon="5.37625">
        <ele>226.2</ele>
        <time>2021-08-26T12:29:35Z</time>
      </trkpt>
      <trkpt lat="46.52028" lon="5.37613">
        <ele>226.2</ele>
        <time>2021-08-26T12:29:37Z</time>
      </trkpt>
      <trkpt lat="46.5203" lon="5.37605">
        <ele>226.2</ele>
        <time>2021-08-26T12:29:38Z</time>
      </trkpt>
      <trkpt lat="46.52032" lon="5.37597">
        <ele>226.6</ele>
        <time>2021-08-26T12:29:39Z</time>
      </trkpt>
      <trkpt lat="46.52036" lon="5.37579">
        <ele>226.6</ele>
        <time>2021-08-26T12:29:41Z</time>
      </trkpt>
      <trkpt lat="46.5204" lon="5.37561">
        <ele>226.6</ele>
        <time>2021-08-26T12:29:43Z</time>
      </trkpt>
      <trkpt lat="46.52045" lon="5.37543">
        <ele>226.6</ele>
        <time>2021-08-26T12:29:45Z</time>
      </trkpt>
      <trkpt lat="46.52049" lon="5.37525">
        <ele>226.6</ele>
        <time>2021-08-26T12:29:47Z</time>
      </trkpt>
      <trkpt lat="46.52053" lon="5.37506">
        <ele>226.4</ele>
        <time>2021-08-26T12:29:49Z</time>
      </trkpt>
      <trkpt lat="46.52057" lon="5.37488">
        <ele>226.4</ele>
        <time>2021-08-26T12:29:51Z</time>
      </trkpt>
      <trkpt lat="46.52059" lon="5.37479">
        <ele>226.4</ele>
        <time>2021-08-26T12:29:52Z</time>
      </trkpt>
      <trkpt lat="46.52061" lon="5.3747">
        <ele>226.4</ele>
        <time>2021-08-26T12:29:53Z</time>
      </trkpt>
      <trkpt lat="46.52065" lon="5.37452">
        <ele>226.4</ele>
        <time>2021-08-26T12:29:55Z</time>
      </trkpt>
      <trkpt lat="46.52069" lon="5.37435">
        <ele>226.4</ele>
        <time>2021-08-26T12:29:57Z</time>
      </trkpt>
      <trkpt lat="46.52073" lon="5.37418">
        <ele>226.4</ele>
        <time>2021-08-26T12:29:59Z</time>
      </trkpt>
      <trkpt lat="46.52077" lon="5.37401">
        <ele>226.4</ele>
        <time>2021-08-26T12:30:01Z</time>
      </trkpt>
      <trkpt lat="46.52081" lon="5.37383">
        <ele>226.4</ele>
        <time>2021-08-26T12:30:03Z</time>
      </trkpt>
      <trkpt lat="46.52085" lon="5.37366">
        <ele>226.4</ele>
        <time>2021-08-26T12:30:05Z</time>
      </trkpt>
      <trkpt lat="46.52089" lon="5.37357">
        <ele>226.4</ele>
        <time>2021-08-26T12:30:06Z</time>
      </trkpt>
      <trkpt lat="46.52093" lon="5.37349">
        <ele>226.4</ele>
        <time>2021-08-26T12:30:07Z</time>
      </trkpt>
      <trkpt lat="46.52106" lon="5.37337">
        <ele>226.2</ele>
        <time>2021-08-26T12:30:09Z</time>
      </trkpt>
      <trkpt lat="46.52113" lon="5.37331">
        <ele>226</ele>
        <time>2021-08-26T12:30:10Z</time>
      </trkpt>
      <trkpt lat="46.52121" lon="5.37326">
        <ele>226</ele>
        <time>2021-08-26T12:30:11Z</time>
      </trkpt>
      <trkpt lat="46.52136" lon="5.37316">
        <ele>225.4</ele>
        <time>2021-08-26T12:30:13Z</time>
      </trkpt>
      <trkpt lat="46.52152" lon="5.37305">
        <ele>225</ele>
        <time>2021-08-26T12:30:15Z</time>
      </trkpt>
      <trkpt lat="46.52168" lon="5.37293">
        <ele>223.8</ele>
        <time>2021-08-26T12:30:17Z</time>
      </trkpt>
      <trkpt lat="46.52184" lon="5.37282">
        <ele>222.4</ele>
        <time>2021-08-26T12:30:19Z</time>
      </trkpt>
      <trkpt lat="46.522" lon="5.37269">
        <ele>221</ele>
        <time>2021-08-26T12:30:21Z</time>
      </trkpt>
      <trkpt lat="46.52215" lon="5.37257">
        <ele>220</ele>
        <time>2021-08-26T12:30:23Z</time>
      </trkpt>
      <trkpt lat="46.52223" lon="5.37251">
        <ele>219.2</ele>
        <time>2021-08-26T12:30:24Z</time>
      </trkpt>
      <trkpt lat="46.5223" lon="5.37245">
        <ele>218.8</ele>
        <time>2021-08-26T12:30:25Z</time>
      </trkpt>
      <trkpt lat="46.52244" lon="5.37232">
        <ele>218</ele>
        <time>2021-08-26T12:30:27Z</time>
      </trkpt>
      <trkpt lat="46.52259" lon="5.37217">
        <ele>217</ele>
        <time>2021-08-26T12:30:29Z</time>
      </trkpt>
      <trkpt lat="46.52273" lon="5.37203">
        <ele>216.4</ele>
        <time>2021-08-26T12:30:31Z</time>
      </trkpt>
      <trkpt lat="46.5228" lon="5.37195">
        <ele>216</ele>
        <time>2021-08-26T12:30:32Z</time>
      </trkpt>
      <trkpt lat="46.52287" lon="5.37187">
        <ele>215.4</ele>
        <time>2021-08-26T12:30:33Z</time>
      </trkpt>
      <trkpt lat="46.52302" lon="5.37172">
        <ele>214.6</ele>
        <time>2021-08-26T12:30:35Z</time>
      </trkpt>
      <trkpt lat="46.52316" lon="5.37156">
        <ele>214.2</ele>
        <time>2021-08-26T12:30:37Z</time>
      </trkpt>
      <trkpt lat="46.52331" lon="5.3714">
        <ele>213.8</ele>
        <time>2021-08-26T12:30:39Z</time>
      </trkpt>
      <trkpt lat="46.52338" lon="5.37132">
        <ele>213.4</ele>
        <time>2021-08-26T12:30:40Z</time>
      </trkpt>
      <trkpt lat="46.52346" lon="5.37124">
        <ele>213.2</ele>
        <time>2021-08-26T12:30:41Z</time>
      </trkpt>
      <trkpt lat="46.52361" lon="5.37108">
        <ele>212</ele>
        <time>2021-08-26T12:30:43Z</time>
      </trkpt>
      <trkpt lat="46.52376" lon="5.37092">
        <ele>211.2</ele>
        <time>2021-08-26T12:30:45Z</time>
      </trkpt>
      <trkpt lat="46.52384" lon="5.37084">
        <ele>210.8</ele>
        <time>2021-08-26T12:30:46Z</time>
      </trkpt>
      <trkpt lat="46.52391" lon="5.37076">
        <ele>210.6</ele>
        <time>2021-08-26T12:30:47Z</time>
      </trkpt>
      <trkpt lat="46.52405" lon="5.37059">
        <ele>209.8</ele>
        <time>2021-08-26T12:30:49Z</time>
      </trkpt>
      <trkpt lat="46.52416" lon="5.3704">
        <ele>208.6</ele>
        <time>2021-08-26T12:30:51Z</time>
      </trkpt>
      <trkpt lat="46.52426" lon="5.37021">
        <ele>208</ele>
        <time>2021-08-26T12:30:53Z</time>
      </trkpt>
      <trkpt lat="46.52435" lon="5.37002">
        <ele>207.8</ele>
        <time>2021-08-26T12:30:55Z</time>
      </trkpt>
      <trkpt lat="46.52443" lon="5.36982">
        <ele>207.8</ele>
        <time>2021-08-26T12:30:57Z</time>
      </trkpt>
      <trkpt lat="46.52446" lon="5.36972">
        <ele>207.8</ele>
        <time>2021-08-26T12:30:58Z</time>
      </trkpt>
      <trkpt lat="46.52448" lon="5.36961">
        <ele>207.6</ele>
        <time>2021-08-26T12:30:59Z</time>
      </trkpt>
      <trkpt lat="46.52452" lon="5.36938">
        <ele>207.6</ele>
        <time>2021-08-26T12:31:01Z</time>
      </trkpt>
      <trkpt lat="46.52454" lon="5.36927">
        <ele>207.6</ele>
        <time>2021-08-26T12:31:02Z</time>
      </trkpt>
      <trkpt lat="46.52455" lon="5.36915">
        <ele>207.6</ele>
        <time>2021-08-26T12:31:03Z</time>
      </trkpt>
      <trkpt lat="46.52458" lon="5.36893">
        <ele>207.6</ele>
        <time>2021-08-26T12:31:05Z</time>
      </trkpt>
      <trkpt lat="46.52462" lon="5.36871">
        <ele>207.6</ele>
        <time>2021-08-26T12:31:07Z</time>
      </trkpt>
      <trkpt lat="46.52464" lon="5.3686">
        <ele>207.6</ele>
        <time>2021-08-26T12:31:08Z</time>
      </trkpt>
      <trkpt lat="46.52465" lon="5.3685">
        <ele>207.6</ele>
        <time>2021-08-26T12:31:09Z</time>
      </trkpt>
      <trkpt lat="46.52467" lon="5.36828">
        <ele>207.6</ele>
        <time>2021-08-26T12:31:11Z</time>
      </trkpt>
      <trkpt lat="46.52468" lon="5.36807">
        <ele>207.6</ele>
        <time>2021-08-26T12:31:13Z</time>
      </trkpt>
      <trkpt lat="46.52469" lon="5.36797">
        <ele>207.6</ele>
        <time>2021-08-26T12:31:14Z</time>
      </trkpt>
      <trkpt lat="46.52469" lon="5.36786">
        <ele>207.6</ele>
        <time>2021-08-26T12:31:15Z</time>
      </trkpt>
      <trkpt lat="46.5247" lon="5.36764">
        <ele>207.6</ele>
        <time>2021-08-26T12:31:17Z</time>
      </trkpt>
      <trkpt lat="46.52471" lon="5.36743">
        <ele>207.4</ele>
        <time>2021-08-26T12:31:19Z</time>
      </trkpt>
      <trkpt lat="46.52471" lon="5.36733">
        <ele>207.4</ele>
        <time>2021-08-26T12:31:20Z</time>
      </trkpt>
      <trkpt lat="46.52471" lon="5.36722">
        <ele>207.4</ele>
        <time>2021-08-26T12:31:21Z</time>
      </trkpt>
      <trkpt lat="46.52472" lon="5.36701">
        <ele>207.4</ele>
        <time>2021-08-26T12:31:23Z</time>
      </trkpt>
      <trkpt lat="46.52473" lon="5.3668">
        <ele>207.4</ele>
        <time>2021-08-26T12:31:25Z</time>
      </trkpt>
      <trkpt lat="46.52474" lon="5.36658">
        <ele>207.4</ele>
        <time>2021-08-26T12:31:27Z</time>
      </trkpt>
      <trkpt lat="46.52474" lon="5.36648">
        <ele>207.4</ele>
        <time>2021-08-26T12:31:28Z</time>
      </trkpt>
      <trkpt lat="46.52475" lon="5.36638">
        <ele>207.4</ele>
        <time>2021-08-26T12:31:29Z</time>
      </trkpt>
      <trkpt lat="46.52476" lon="5.36616">
        <ele>207.2</ele>
        <time>2021-08-26T12:31:31Z</time>
      </trkpt>
      <trkpt lat="46.52477" lon="5.36595">
        <ele>207.2</ele>
        <time>2021-08-26T12:31:33Z</time>
      </trkpt>
      <trkpt lat="46.52478" lon="5.36585">
        <ele>207.2</ele>
        <time>2021-08-26T12:31:34Z</time>
      </trkpt>
      <trkpt lat="46.52478" lon="5.36575">
        <ele>207.2</ele>
        <time>2021-08-26T12:31:35Z</time>
      </trkpt>
      <trkpt lat="46.5248" lon="5.36554">
        <ele>207.2</ele>
        <time>2021-08-26T12:31:37Z</time>
      </trkpt>
      <trkpt lat="46.52482" lon="5.36533">
        <ele>207.2</ele>
        <time>2021-08-26T12:31:39Z</time>
      </trkpt>
      <trkpt lat="46.52484" lon="5.36511">
        <ele>207</ele>
        <time>2021-08-26T12:31:41Z</time>
      </trkpt>
      <trkpt lat="46.52487" lon="5.3649">
        <ele>207</ele>
        <time>2021-08-26T12:31:43Z</time>
      </trkpt>
      <trkpt lat="46.52489" lon="5.36469">
        <ele>207</ele>
        <time>2021-08-26T12:31:45Z</time>
      </trkpt>
      <trkpt lat="46.52492" lon="5.36447">
        <ele>206.8</ele>
        <time>2021-08-26T12:31:47Z</time>
      </trkpt>
      <trkpt lat="46.52494" lon="5.36426">
        <ele>206.8</ele>
        <time>2021-08-26T12:31:49Z</time>
      </trkpt>
      <trkpt lat="46.52497" lon="5.36405">
        <ele>206.6</ele>
        <time>2021-08-26T12:31:51Z</time>
      </trkpt>
      <trkpt lat="46.52498" lon="5.36395">
        <ele>206.6</ele>
        <time>2021-08-26T12:31:52Z</time>
      </trkpt>
      <trkpt lat="46.525" lon="5.36384">
        <ele>206.6</ele>
        <time>2021-08-26T12:31:53Z</time>
      </trkpt>
      <trkpt lat="46.52502" lon="5.36374">
        <ele>206.4</ele>
        <time>2021-08-26T12:31:54Z</time>
      </trkpt>
      <trkpt lat="46.52504" lon="5.36364">
        <ele>206.4</ele>
        <time>2021-08-26T12:31:55Z</time>
      </trkpt>
      <trkpt lat="46.52511" lon="5.36345">
        <ele>206.2</ele>
        <time>2021-08-26T12:31:57Z</time>
      </trkpt>
      <trkpt lat="46.52521" lon="5.3633">
        <ele>206.2</ele>
        <time>2021-08-26T12:31:59Z</time>
      </trkpt>
      <trkpt lat="46.52528" lon="5.36324">
        <ele>206</ele>
        <time>2021-08-26T12:32:00Z</time>
      </trkpt>
      <trkpt lat="46.52534" lon="5.36319">
        <ele>206</ele>
        <time>2021-08-26T12:32:01Z</time>
      </trkpt>
      <trkpt lat="46.52549" lon="5.36314">
        <ele>206</ele>
        <time>2021-08-26T12:32:03Z</time>
      </trkpt>
      <trkpt lat="46.52561" lon="5.36315">
        <ele>206</ele>
        <time>2021-08-26T12:32:05Z</time>
      </trkpt>
      <trkpt lat="46.52574" lon="5.36316">
        <ele>206</ele>
        <time>2021-08-26T12:32:07Z</time>
      </trkpt>
      <trkpt lat="46.52586" lon="5.36307">
        <ele>205.8</ele>
        <time>2021-08-26T12:32:09Z</time>
      </trkpt>
      <trkpt lat="46.52591" lon="5.363">
        <ele>205.8</ele>
        <time>2021-08-26T12:32:10Z</time>
      </trkpt>
      <trkpt lat="46.52596" lon="5.36294">
        <ele>206</ele>
        <time>2021-08-26T12:32:11Z</time>
      </trkpt>
      <trkpt lat="46.52602" lon="5.36288">
        <ele>205.6</ele>
        <time>2021-08-26T12:32:12Z</time>
      </trkpt>
      <trkpt lat="46.52608" lon="5.36282">
        <ele>205.6</ele>
        <time>2021-08-26T12:32:13Z</time>
      </trkpt>
      <trkpt lat="46.52614" lon="5.36277">
        <ele>205.4</ele>
        <time>2021-08-26T12:32:14Z</time>
      </trkpt>
      <trkpt lat="46.5262" lon="5.36273">
        <ele>205.6</ele>
        <time>2021-08-26T12:32:15Z</time>
      </trkpt>
      <trkpt lat="46.52632" lon="5.36265">
        <ele>205.4</ele>
        <time>2021-08-26T12:32:17Z</time>
      </trkpt>
      <trkpt lat="46.52644" lon="5.36257">
        <ele>205.4</ele>
        <time>2021-08-26T12:32:19Z</time>
      </trkpt>
      <trkpt lat="46.52656" lon="5.3625">
        <ele>205.2</ele>
        <time>2021-08-26T12:32:21Z</time>
      </trkpt>
      <trkpt lat="46.52668" lon="5.36242">
        <ele>205.2</ele>
        <time>2021-08-26T12:32:23Z</time>
      </trkpt>
      <trkpt lat="46.5268" lon="5.36234">
        <ele>205</ele>
        <time>2021-08-26T12:32:25Z</time>
      </trkpt>
      <trkpt lat="46.52691" lon="5.36224">
        <ele>205</ele>
        <time>2021-08-26T12:32:27Z</time>
      </trkpt>
      <trkpt lat="46.52702" lon="5.36213">
        <ele>205</ele>
        <time>2021-08-26T12:32:29Z</time>
      </trkpt>
      <trkpt lat="46.52706" lon="5.36207">
        <ele>205</ele>
        <time>2021-08-26T12:32:30Z</time>
      </trkpt>
      <trkpt lat="46.52711" lon="5.362">
        <ele>205</ele>
        <time>2021-08-26T12:32:31Z</time>
      </trkpt>
      <trkpt lat="46.52718" lon="5.36185">
        <ele>205</ele>
        <time>2021-08-26T12:32:33Z</time>
      </trkpt>
      <trkpt lat="46.52723" lon="5.36169">
        <ele>205</ele>
        <time>2021-08-26T12:32:35Z</time>
      </trkpt>
      <trkpt lat="46.52728" lon="5.36153">
        <ele>205.2</ele>
        <time>2021-08-26T12:32:37Z</time>
      </trkpt>
      <trkpt lat="46.52733" lon="5.36136">
        <ele>205.2</ele>
        <time>2021-08-26T12:32:39Z</time>
      </trkpt>
      <trkpt lat="46.52735" lon="5.36128">
        <ele>205.2</ele>
        <time>2021-08-26T12:32:40Z</time>
      </trkpt>
      <trkpt lat="46.52738" lon="5.3612">
        <ele>205.2</ele>
        <time>2021-08-26T12:32:41Z</time>
      </trkpt>
      <trkpt lat="46.52743" lon="5.36105">
        <ele>205.6</ele>
        <time>2021-08-26T12:32:43Z</time>
      </trkpt>
      <trkpt lat="46.52749" lon="5.36089">
        <ele>206</ele>
        <time>2021-08-26T12:32:45Z</time>
      </trkpt>
      <trkpt lat="46.52753" lon="5.36073">
        <ele>206</ele>
        <time>2021-08-26T12:32:47Z</time>
      </trkpt>
      <trkpt lat="46.52756" lon="5.36065">
        <ele>206.2</ele>
        <time>2021-08-26T12:32:48Z</time>
      </trkpt>
      <trkpt lat="46.52759" lon="5.36058">
        <ele>206.2</ele>
        <time>2021-08-26T12:32:49Z</time>
      </trkpt>
      <trkpt lat="46.52766" lon="5.36048">
        <ele>206.2</ele>
        <time>2021-08-26T12:32:51Z</time>
      </trkpt>
      <trkpt lat="46.52775" lon="5.36044">
        <ele>206.4</ele>
        <time>2021-08-26T12:32:53Z</time>
      </trkpt>
      <trkpt lat="46.5278" lon="5.36044">
        <ele>206.4</ele>
        <time>2021-08-26T12:32:54Z</time>
      </trkpt>
      <trkpt lat="46.52784" lon="5.36045">
        <ele>206.6</ele>
        <time>2021-08-26T12:32:55Z</time>
      </trkpt>
      <trkpt lat="46.52789" lon="5.36046">
        <ele>206.6</ele>
        <time>2021-08-26T12:32:56Z</time>
      </trkpt>
      <trkpt lat="46.52793" lon="5.36047">
        <ele>206.8</ele>
        <time>2021-08-26T12:32:57Z</time>
      </trkpt>
      <trkpt lat="46.52801" lon="5.3605">
        <ele>206.8</ele>
        <time>2021-08-26T12:32:59Z</time>
      </trkpt>
      <trkpt lat="46.52804" lon="5.36052">
        <ele>207</ele>
        <time>2021-08-26T12:33:00Z</time>
      </trkpt>
      <trkpt lat="46.52808" lon="5.36053">
        <ele>207.4</ele>
        <time>2021-08-26T12:33:01Z</time>
      </trkpt>
      <trkpt lat="46.52816" lon="5.36056">
        <ele>207.8</ele>
        <time>2021-08-26T12:33:03Z</time>
      </trkpt>
      <trkpt lat="46.52824" lon="5.36059">
        <ele>208</ele>
        <time>2021-08-26T12:33:05Z</time>
      </trkpt>
      <trkpt lat="46.5283" lon="5.36061">
        <ele>208.2</ele>
        <time>2021-08-26T12:33:07Z</time>
      </trkpt>
      <trkpt lat="46.52833" lon="5.36062">
        <ele>208.4</ele>
        <time>2021-08-26T12:33:08Z</time>
      </trkpt>
      <trkpt lat="46.52834" lon="5.36063">
        <ele>208.6</ele>
        <time>2021-08-26T12:33:09Z</time>
      </trkpt>
      <trkpt lat="46.52835" lon="5.36063">
        <ele>208.8</ele>
        <time>2021-08-26T12:33:11Z</time>
      </trkpt>
      <trkpt lat="46.52837" lon="5.36065">
        <ele>211.2</ele>
        <time>2021-08-26T12:33:27Z</time>
      </trkpt>
      <trkpt lat="46.52841" lon="5.36066">
        <ele>211.2</ele>
        <time>2021-08-26T12:33:29Z</time>
      </trkpt>
      <trkpt lat="46.52849" lon="5.36066">
        <ele>211.2</ele>
        <time>2021-08-26T12:33:31Z</time>
      </trkpt>
      <trkpt lat="46.52859" lon="5.36066">
        <ele>211.2</ele>
        <time>2021-08-26T12:33:33Z</time>
      </trkpt>
      <trkpt lat="46.52869" lon="5.36067">
        <ele>211.2</ele>
        <time>2021-08-26T12:33:35Z</time>
      </trkpt>
      <trkpt lat="46.5288" lon="5.36069">
        <ele>211</ele>
        <time>2021-08-26T12:33:37Z</time>
      </trkpt>
      <trkpt lat="46.52891" lon="5.3607">
        <ele>211</ele>
        <time>2021-08-26T12:33:39Z</time>
      </trkpt>
      <trkpt lat="46.52902" lon="5.36071">
        <ele>211</ele>
        <time>2021-08-26T12:33:41Z</time>
      </trkpt>
      <trkpt lat="46.52907" lon="5.36072">
        <ele>211</ele>
        <time>2021-08-26T12:33:42Z</time>
      </trkpt>
      <trkpt lat="46.52912" lon="5.36073">
        <ele>211</ele>
        <time>2021-08-26T12:33:43Z</time>
      </trkpt>
      <trkpt lat="46.52923" lon="5.36075">
        <ele>211</ele>
        <time>2021-08-26T12:33:45Z</time>
      </trkpt>
      <trkpt lat="46.52932" lon="5.36078">
        <ele>211</ele>
        <time>2021-08-26T12:33:47Z</time>
      </trkpt>
      <trkpt lat="46.52938" lon="5.36079">
        <ele>211</ele>
        <time>2021-08-26T12:33:48Z</time>
      </trkpt>
      <trkpt lat="46.52942" lon="5.36081">
        <ele>211</ele>
        <time>2021-08-26T12:33:49Z</time>
      </trkpt>
      <trkpt lat="46.52952" lon="5.36085">
        <ele>211.4</ele>
        <time>2021-08-26T12:33:51Z</time>
      </trkpt>
      <trkpt lat="46.52956" lon="5.36089">
        <ele>211.6</ele>
        <time>2021-08-26T12:33:52Z</time>
      </trkpt>
      <trkpt lat="46.52959" lon="5.36094">
        <ele>211.6</ele>
        <time>2021-08-26T12:33:53Z</time>
      </trkpt>
      <trkpt lat="46.52964" lon="5.36105">
        <ele>212</ele>
        <time>2021-08-26T12:33:55Z</time>
      </trkpt>
      <trkpt lat="46.5297" lon="5.36115">
        <ele>212.4</ele>
        <time>2021-08-26T12:33:57Z</time>
      </trkpt>
      <trkpt lat="46.52973" lon="5.36121">
        <ele>212.6</ele>
        <time>2021-08-26T12:33:58Z</time>
      </trkpt>
      <trkpt lat="46.52977" lon="5.36126">
        <ele>212.6</ele>
        <time>2021-08-26T12:33:59Z</time>
      </trkpt>
      <trkpt lat="46.52981" lon="5.3613">
        <ele>212.8</ele>
        <time>2021-08-26T12:34:00Z</time>
      </trkpt>
      <trkpt lat="46.52985" lon="5.36134">
        <ele>213.2</ele>
        <time>2021-08-26T12:34:01Z</time>
      </trkpt>
      <trkpt lat="46.52989" lon="5.36136">
        <ele>213.6</ele>
        <time>2021-08-26T12:34:02Z</time>
      </trkpt>
      <trkpt lat="46.52994" lon="5.36138">
        <ele>214</ele>
        <time>2021-08-26T12:34:03Z</time>
      </trkpt>
      <trkpt lat="46.52999" lon="5.36139">
        <ele>214.4</ele>
        <time>2021-08-26T12:34:04Z</time>
      </trkpt>
      <trkpt lat="46.53003" lon="5.36141">
        <ele>214.6</ele>
        <time>2021-08-26T12:34:05Z</time>
      </trkpt>
      <trkpt lat="46.53007" lon="5.36141">
        <ele>214.6</ele>
        <time>2021-08-26T12:34:06Z</time>
      </trkpt>
      <trkpt lat="46.53012" lon="5.36141">
        <ele>214.6</ele>
        <time>2021-08-26T12:34:07Z</time>
      </trkpt>
      <trkpt lat="46.53016" lon="5.36142">
        <ele>214.8</ele>
        <time>2021-08-26T12:34:08Z</time>
      </trkpt>
      <trkpt lat="46.53021" lon="5.36142">
        <ele>214.8</ele>
        <time>2021-08-26T12:34:09Z</time>
      </trkpt>
      <trkpt lat="46.5303" lon="5.36144">
        <ele>214.8</ele>
        <time>2021-08-26T12:34:11Z</time>
      </trkpt>
      <trkpt lat="46.5304" lon="5.36145">
        <ele>215</ele>
        <time>2021-08-26T12:34:13Z</time>
      </trkpt>
      <trkpt lat="46.53044" lon="5.36144">
        <ele>215</ele>
        <time>2021-08-26T12:34:14Z</time>
      </trkpt>
      <trkpt lat="46.53048" lon="5.36143">
        <ele>215.4</ele>
        <time>2021-08-26T12:34:15Z</time>
      </trkpt>
      <trkpt lat="46.53053" lon="5.36142">
        <ele>215.8</ele>
        <time>2021-08-26T12:34:16Z</time>
      </trkpt>
      <trkpt lat="46.53057" lon="5.3614">
        <ele>216</ele>
        <time>2021-08-26T12:34:17Z</time>
      </trkpt>
      <trkpt lat="46.53066" lon="5.36134">
        <ele>216.6</ele>
        <time>2021-08-26T12:34:19Z</time>
      </trkpt>
      <trkpt lat="46.5307" lon="5.36131">
        <ele>216.6</ele>
        <time>2021-08-26T12:34:20Z</time>
      </trkpt>
      <trkpt lat="46.53074" lon="5.36128">
        <ele>216.6</ele>
        <time>2021-08-26T12:34:21Z</time>
      </trkpt>
      <trkpt lat="46.53078" lon="5.36124">
        <ele>216.8</ele>
        <time>2021-08-26T12:34:22Z</time>
      </trkpt>
      <trkpt lat="46.53081" lon="5.36121">
        <ele>217</ele>
        <time>2021-08-26T12:34:23Z</time>
      </trkpt>
      <trkpt lat="46.53088" lon="5.36114">
        <ele>217.4</ele>
        <time>2021-08-26T12:34:25Z</time>
      </trkpt>
      <trkpt lat="46.53094" lon="5.36106">
        <ele>217.8</ele>
        <time>2021-08-26T12:34:27Z</time>
      </trkpt>
      <trkpt lat="46.53099" lon="5.36097">
        <ele>218.2</ele>
        <time>2021-08-26T12:34:29Z</time>
      </trkpt>
      <trkpt lat="46.53104" lon="5.36088">
        <ele>218.6</ele>
        <time>2021-08-26T12:34:31Z</time>
      </trkpt>
      <trkpt lat="46.53109" lon="5.36077">
        <ele>219.2</ele>
        <time>2021-08-26T12:34:33Z</time>
      </trkpt>
      <trkpt lat="46.53114" lon="5.36067">
        <ele>219.6</ele>
        <time>2021-08-26T12:34:35Z</time>
      </trkpt>
      <trkpt lat="46.53119" lon="5.36057">
        <ele>220</ele>
        <time>2021-08-26T12:34:37Z</time>
      </trkpt>
      <trkpt lat="46.53125" lon="5.36047">
        <ele>220.2</ele>
        <time>2021-08-26T12:34:39Z</time>
      </trkpt>
      <trkpt lat="46.53131" lon="5.36037">
        <ele>220.6</ele>
        <time>2021-08-26T12:34:41Z</time>
      </trkpt>
      <trkpt lat="46.53137" lon="5.36027">
        <ele>220.8</ele>
        <time>2021-08-26T12:34:43Z</time>
      </trkpt>
      <trkpt lat="46.53144" lon="5.36017">
        <ele>221.2</ele>
        <time>2021-08-26T12:34:45Z</time>
      </trkpt>
      <trkpt lat="46.5315" lon="5.36007">
        <ele>221.4</ele>
        <time>2021-08-26T12:34:47Z</time>
      </trkpt>
      <trkpt lat="46.53156" lon="5.35996">
        <ele>221.6</ele>
        <time>2021-08-26T12:34:49Z</time>
      </trkpt>
      <trkpt lat="46.53162" lon="5.35986">
        <ele>221.8</ele>
        <time>2021-08-26T12:34:51Z</time>
      </trkpt>
      <trkpt lat="46.53167" lon="5.35975">
        <ele>222</ele>
        <time>2021-08-26T12:34:53Z</time>
      </trkpt>
      <trkpt lat="46.5317" lon="5.35969">
        <ele>222</ele>
        <time>2021-08-26T12:34:54Z</time>
      </trkpt>
      <trkpt lat="46.53172" lon="5.35964">
        <ele>222.2</ele>
        <time>2021-08-26T12:34:55Z</time>
      </trkpt>
      <trkpt lat="46.53178" lon="5.35953">
        <ele>222.4</ele>
        <time>2021-08-26T12:34:57Z</time>
      </trkpt>
      <trkpt lat="46.53184" lon="5.35943">
        <ele>222.8</ele>
        <time>2021-08-26T12:34:59Z</time>
      </trkpt>
      <trkpt lat="46.53192" lon="5.35933">
        <ele>223.2</ele>
        <time>2021-08-26T12:35:01Z</time>
      </trkpt>
      <trkpt lat="46.53197" lon="5.35929">
        <ele>223.2</ele>
        <time>2021-08-26T12:35:02Z</time>
      </trkpt>
      <trkpt lat="46.53202" lon="5.35926">
        <ele>223.2</ele>
        <time>2021-08-26T12:35:03Z</time>
      </trkpt>
      <trkpt lat="46.53213" lon="5.35921">
        <ele>223.2</ele>
        <time>2021-08-26T12:35:05Z</time>
      </trkpt>
      <trkpt lat="46.53225" lon="5.35917">
        <ele>223.2</ele>
        <time>2021-08-26T12:35:07Z</time>
      </trkpt>
      <trkpt lat="46.53237" lon="5.35912">
        <ele>223.2</ele>
        <time>2021-08-26T12:35:09Z</time>
      </trkpt>
      <trkpt lat="46.5325" lon="5.35907">
        <ele>223.2</ele>
        <time>2021-08-26T12:35:11Z</time>
      </trkpt>
      <trkpt lat="46.53262" lon="5.35901">
        <ele>223</ele>
        <time>2021-08-26T12:35:13Z</time>
      </trkpt>
      <trkpt lat="46.53275" lon="5.35895">
        <ele>223</ele>
        <time>2021-08-26T12:35:15Z</time>
      </trkpt>
      <trkpt lat="46.53288" lon="5.35889">
        <ele>222.8</ele>
        <time>2021-08-26T12:35:17Z</time>
      </trkpt>
      <trkpt lat="46.53301" lon="5.35883">
        <ele>222.8</ele>
        <time>2021-08-26T12:35:19Z</time>
      </trkpt>
      <trkpt lat="46.53313" lon="5.35878">
        <ele>222.8</ele>
        <time>2021-08-26T12:35:21Z</time>
      </trkpt>
      <trkpt lat="46.53326" lon="5.35873">
        <ele>222.8</ele>
        <time>2021-08-26T12:35:23Z</time>
      </trkpt>
      <trkpt lat="46.53338" lon="5.35869">
        <ele>222.8</ele>
        <time>2021-08-26T12:35:25Z</time>
      </trkpt>
      <trkpt lat="46.53351" lon="5.35865">
        <ele>222.8</ele>
        <time>2021-08-26T12:35:27Z</time>
      </trkpt>
      <trkpt lat="46.53363" lon="5.35864">
        <ele>222.8</ele>
        <time>2021-08-26T12:35:29Z</time>
      </trkpt>
      <trkpt lat="46.53368" lon="5.35863">
        <ele>222.8</ele>
        <time>2021-08-26T12:35:30Z</time>
      </trkpt>
      <trkpt lat="46.53374" lon="5.35863">
        <ele>223</ele>
        <time>2021-08-26T12:35:31Z</time>
      </trkpt>
      <trkpt lat="46.53385" lon="5.35864">
        <ele>223.4</ele>
        <time>2021-08-26T12:35:33Z</time>
      </trkpt>
      <trkpt lat="46.5339" lon="5.35865">
        <ele>223.4</ele>
        <time>2021-08-26T12:35:34Z</time>
      </trkpt>
      <trkpt lat="46.53396" lon="5.35865">
        <ele>223.6</ele>
        <time>2021-08-26T12:35:35Z</time>
      </trkpt>
      <trkpt lat="46.53402" lon="5.35866">
        <ele>223.6</ele>
        <time>2021-08-26T12:35:36Z</time>
      </trkpt>
      <trkpt lat="46.53407" lon="5.35866">
        <ele>223.8</ele>
        <time>2021-08-26T12:35:37Z</time>
      </trkpt>
      <trkpt lat="46.53418" lon="5.35868">
        <ele>224.4</ele>
        <time>2021-08-26T12:35:39Z</time>
      </trkpt>
      <trkpt lat="46.53423" lon="5.35868">
        <ele>225</ele>
        <time>2021-08-26T12:35:40Z</time>
      </trkpt>
      <trkpt lat="46.53428" lon="5.35869">
        <ele>225.4</ele>
        <time>2021-08-26T12:35:41Z</time>
      </trkpt>
      <trkpt lat="46.53439" lon="5.3587">
        <ele>225.8</ele>
        <time>2021-08-26T12:35:43Z</time>
      </trkpt>
      <trkpt lat="46.53449" lon="5.35872">
        <ele>226</ele>
        <time>2021-08-26T12:35:45Z</time>
      </trkpt>
      <trkpt lat="46.53454" lon="5.35872">
        <ele>226.2</ele>
        <time>2021-08-26T12:35:46Z</time>
      </trkpt>
      <trkpt lat="46.53459" lon="5.35872">
        <ele>226.6</ele>
        <time>2021-08-26T12:35:47Z</time>
      </trkpt>
      <trkpt lat="46.5347" lon="5.3587">
        <ele>227.2</ele>
        <time>2021-08-26T12:35:49Z</time>
      </trkpt>
      <trkpt lat="46.53475" lon="5.35868">
        <ele>227.2</ele>
        <time>2021-08-26T12:35:50Z</time>
      </trkpt>
      <trkpt lat="46.53479" lon="5.35865">
        <ele>227.4</ele>
        <time>2021-08-26T12:35:51Z</time>
      </trkpt>
      <trkpt lat="46.53489" lon="5.35861">
        <ele>227.6</ele>
        <time>2021-08-26T12:35:53Z</time>
      </trkpt>
      <trkpt lat="46.53498" lon="5.35856">
        <ele>227.8</ele>
        <time>2021-08-26T12:35:55Z</time>
      </trkpt>
      <trkpt lat="46.53509" lon="5.35852">
        <ele>227.8</ele>
        <time>2021-08-26T12:35:57Z</time>
      </trkpt>
      <trkpt lat="46.53514" lon="5.35851">
        <ele>227.8</ele>
        <time>2021-08-26T12:35:58Z</time>
      </trkpt>
      <trkpt lat="46.53519" lon="5.35851">
        <ele>228</ele>
        <time>2021-08-26T12:35:59Z</time>
      </trkpt>
      <trkpt lat="46.53531" lon="5.35853">
        <ele>228</ele>
        <time>2021-08-26T12:36:01Z</time>
      </trkpt>
      <trkpt lat="46.53543" lon="5.35855">
        <ele>228.4</ele>
        <time>2021-08-26T12:36:03Z</time>
      </trkpt>
      <trkpt lat="46.53555" lon="5.35857">
        <ele>228.6</ele>
        <time>2021-08-26T12:36:05Z</time>
      </trkpt>
      <trkpt lat="46.53568" lon="5.3586">
        <ele>228.8</ele>
        <time>2021-08-26T12:36:07Z</time>
      </trkpt>
      <trkpt lat="46.5358" lon="5.35864">
        <ele>228.8</ele>
        <time>2021-08-26T12:36:09Z</time>
      </trkpt>
      <trkpt lat="46.53592" lon="5.35867">
        <ele>228.8</ele>
        <time>2021-08-26T12:36:11Z</time>
      </trkpt>
      <trkpt lat="46.53598" lon="5.3587">
        <ele>228.6</ele>
        <time>2021-08-26T12:36:12Z</time>
      </trkpt>
      <trkpt lat="46.53604" lon="5.35872">
        <ele>228.6</ele>
        <time>2021-08-26T12:36:13Z</time>
      </trkpt>
      <trkpt lat="46.53617" lon="5.35876">
        <ele>228.4</ele>
        <time>2021-08-26T12:36:15Z</time>
      </trkpt>
      <trkpt lat="46.53628" lon="5.35881">
        <ele>228.2</ele>
        <time>2021-08-26T12:36:17Z</time>
      </trkpt>
      <trkpt lat="46.53633" lon="5.35883">
        <ele>228.2</ele>
        <time>2021-08-26T12:36:18Z</time>
      </trkpt>
      <trkpt lat="46.53637" lon="5.35886">
        <ele>228</ele>
        <time>2021-08-26T12:36:19Z</time>
      </trkpt>
      <trkpt lat="46.53643" lon="5.35887">
        <ele>228</ele>
        <time>2021-08-26T12:36:21Z</time>
      </trkpt>
      <trkpt lat="46.53646" lon="5.35887">
        <ele>227.8</ele>
        <time>2021-08-26T12:36:22Z</time>
      </trkpt>
      <trkpt lat="46.53649" lon="5.35885">
        <ele>228</ele>
        <time>2021-08-26T12:36:23Z</time>
      </trkpt>
      <trkpt lat="46.53658" lon="5.35877">
        <ele>227.6</ele>
        <time>2021-08-26T12:36:25Z</time>
      </trkpt>
      <trkpt lat="46.53662" lon="5.35871">
        <ele>227.6</ele>
        <time>2021-08-26T12:36:26Z</time>
      </trkpt>
      <trkpt lat="46.53667" lon="5.35863">
        <ele>227.6</ele>
        <time>2021-08-26T12:36:27Z</time>
      </trkpt>
      <trkpt lat="46.53673" lon="5.35856">
        <ele>227.6</ele>
        <time>2021-08-26T12:36:28Z</time>
      </trkpt>
      <trkpt lat="46.53678" lon="5.35847">
        <ele>227.4</ele>
        <time>2021-08-26T12:36:29Z</time>
      </trkpt>
      <trkpt lat="46.53684" lon="5.35839">
        <ele>227.2</ele>
        <time>2021-08-26T12:36:30Z</time>
      </trkpt>
      <trkpt lat="46.5369" lon="5.3583">
        <ele>227.2</ele>
        <time>2021-08-26T12:36:31Z</time>
      </trkpt>
      <trkpt lat="46.53703" lon="5.35811">
        <ele>226.8</ele>
        <time>2021-08-26T12:36:33Z</time>
      </trkpt>
      <trkpt lat="46.53709" lon="5.35802">
        <ele>226</ele>
        <time>2021-08-26T12:36:34Z</time>
      </trkpt>
      <trkpt lat="46.53715" lon="5.35793">
        <ele>225</ele>
        <time>2021-08-26T12:36:35Z</time>
      </trkpt>
      <trkpt lat="46.53721" lon="5.35784">
        <ele>224.2</ele>
        <time>2021-08-26T12:36:36Z</time>
      </trkpt>
      <trkpt lat="46.53726" lon="5.35775">
        <ele>223.2</ele>
        <time>2021-08-26T12:36:37Z</time>
      </trkpt>
      <trkpt lat="46.5373" lon="5.35766">
        <ele>221.6</ele>
        <time>2021-08-26T12:36:38Z</time>
      </trkpt>
      <trkpt lat="46.53735" lon="5.35757">
        <ele>220.8</ele>
        <time>2021-08-26T12:36:39Z</time>
      </trkpt>
      <trkpt lat="46.53739" lon="5.35747">
        <ele>220.2</ele>
        <time>2021-08-26T12:36:40Z</time>
      </trkpt>
      <trkpt lat="46.53743" lon="5.35736">
        <ele>219.8</ele>
        <time>2021-08-26T12:36:41Z</time>
      </trkpt>
      <trkpt lat="46.53746" lon="5.35726">
        <ele>219.6</ele>
        <time>2021-08-26T12:36:42Z</time>
      </trkpt>
      <trkpt lat="46.5375" lon="5.35715">
        <ele>219.4</ele>
        <time>2021-08-26T12:36:43Z</time>
      </trkpt>
      <trkpt lat="46.53755" lon="5.35693">
        <ele>219.2</ele>
        <time>2021-08-26T12:36:45Z</time>
      </trkpt>
      <trkpt lat="46.53758" lon="5.35671">
        <ele>219</ele>
        <time>2021-08-26T12:36:47Z</time>
      </trkpt>
      <trkpt lat="46.5376" lon="5.35649">
        <ele>218.8</ele>
        <time>2021-08-26T12:36:49Z</time>
      </trkpt>
      <trkpt lat="46.53759" lon="5.35627">
        <ele>218.8</ele>
        <time>2021-08-26T12:36:51Z</time>
      </trkpt>
      <trkpt lat="46.53758" lon="5.35616">
        <ele>218.8</ele>
        <time>2021-08-26T12:36:52Z</time>
      </trkpt>
      <trkpt lat="46.53757" lon="5.35605">
        <ele>218.8</ele>
        <time>2021-08-26T12:36:53Z</time>
      </trkpt>
      <trkpt lat="46.53752" lon="5.35584">
        <ele>219</ele>
        <time>2021-08-26T12:36:55Z</time>
      </trkpt>
      <trkpt lat="46.53749" lon="5.35573">
        <ele>219.2</ele>
        <time>2021-08-26T12:36:56Z</time>
      </trkpt>
      <trkpt lat="46.53745" lon="5.35563">
        <ele>219.4</ele>
        <time>2021-08-26T12:36:57Z</time>
      </trkpt>
      <trkpt lat="46.5374" lon="5.35542">
        <ele>219.4</ele>
        <time>2021-08-26T12:36:59Z</time>
      </trkpt>
      <trkpt lat="46.53735" lon="5.35522">
        <ele>219.6</ele>
        <time>2021-08-26T12:37:01Z</time>
      </trkpt>
      <trkpt lat="46.53733" lon="5.35512">
        <ele>219.6</ele>
        <time>2021-08-26T12:37:02Z</time>
      </trkpt>
      <trkpt lat="46.53732" lon="5.35501">
        <ele>219.6</ele>
        <time>2021-08-26T12:37:03Z</time>
      </trkpt>
      <trkpt lat="46.5373" lon="5.35481">
        <ele>219.6</ele>
        <time>2021-08-26T12:37:05Z</time>
      </trkpt>
      <trkpt lat="46.5373" lon="5.35461">
        <ele>219.8</ele>
        <time>2021-08-26T12:37:07Z</time>
      </trkpt>
      <trkpt lat="46.53731" lon="5.35441">
        <ele>219.8</ele>
        <time>2021-08-26T12:37:09Z</time>
      </trkpt>
      <trkpt lat="46.53733" lon="5.35422">
        <ele>220</ele>
        <time>2021-08-26T12:37:11Z</time>
      </trkpt>
      <trkpt lat="46.53735" lon="5.35403">
        <ele>220.2</ele>
        <time>2021-08-26T12:37:13Z</time>
      </trkpt>
      <trkpt lat="46.53737" lon="5.35386">
        <ele>220.4</ele>
        <time>2021-08-26T12:37:15Z</time>
      </trkpt>
      <trkpt lat="46.5374" lon="5.3537">
        <ele>220.4</ele>
        <time>2021-08-26T12:37:17Z</time>
      </trkpt>
      <trkpt lat="46.53743" lon="5.35354">
        <ele>220.8</ele>
        <time>2021-08-26T12:37:19Z</time>
      </trkpt>
      <trkpt lat="46.53745" lon="5.35347">
        <ele>221</ele>
        <time>2021-08-26T12:37:20Z</time>
      </trkpt>
      <trkpt lat="46.53747" lon="5.35339">
        <ele>221.4</ele>
        <time>2021-08-26T12:37:21Z</time>
      </trkpt>
      <trkpt lat="46.53751" lon="5.35325">
        <ele>222</ele>
        <time>2021-08-26T12:37:23Z</time>
      </trkpt>
      <trkpt lat="46.53754" lon="5.35318">
        <ele>222.4</ele>
        <time>2021-08-26T12:37:24Z</time>
      </trkpt>
      <trkpt lat="46.53757" lon="5.35312">
        <ele>223</ele>
        <time>2021-08-26T12:37:25Z</time>
      </trkpt>
      <trkpt lat="46.5376" lon="5.35306">
        <ele>223.4</ele>
        <time>2021-08-26T12:37:26Z</time>
      </trkpt>
      <trkpt lat="46.53764" lon="5.353">
        <ele>223.8</ele>
        <time>2021-08-26T12:37:27Z</time>
      </trkpt>
      <trkpt lat="46.53771" lon="5.35288">
        <ele>224.2</ele>
        <time>2021-08-26T12:37:29Z</time>
      </trkpt>
      <trkpt lat="46.53778" lon="5.35277">
        <ele>224.6</ele>
        <time>2021-08-26T12:37:31Z</time>
      </trkpt>
      <trkpt lat="46.53782" lon="5.35272">
        <ele>224.8</ele>
        <time>2021-08-26T12:37:32Z</time>
      </trkpt>
      <trkpt lat="46.53787" lon="5.35267">
        <ele>225</ele>
        <time>2021-08-26T12:37:33Z</time>
      </trkpt>
      <trkpt lat="46.53796" lon="5.35256">
        <ele>225.6</ele>
        <time>2021-08-26T12:37:35Z</time>
      </trkpt>
      <trkpt lat="46.53806" lon="5.35244">
        <ele>225.6</ele>
        <time>2021-08-26T12:37:37Z</time>
      </trkpt>
      <trkpt lat="46.53816" lon="5.35233">
        <ele>225.6</ele>
        <time>2021-08-26T12:37:39Z</time>
      </trkpt>
      <trkpt lat="46.53822" lon="5.35229">
        <ele>225.6</ele>
        <time>2021-08-26T12:37:40Z</time>
      </trkpt>
      <trkpt lat="46.53827" lon="5.35224">
        <ele>225.6</ele>
        <time>2021-08-26T12:37:41Z</time>
      </trkpt>
      <trkpt lat="46.53838" lon="5.35216">
        <ele>225.6</ele>
        <time>2021-08-26T12:37:43Z</time>
      </trkpt>
      <trkpt lat="46.5385" lon="5.35207">
        <ele>225.2</ele>
        <time>2021-08-26T12:37:45Z</time>
      </trkpt>
      <trkpt lat="46.53863" lon="5.352">
        <ele>224.6</ele>
        <time>2021-08-26T12:37:47Z</time>
      </trkpt>
      <trkpt lat="46.53876" lon="5.35191">
        <ele>224.4</ele>
        <time>2021-08-26T12:37:49Z</time>
      </trkpt>
      <trkpt lat="46.5389" lon="5.35182">
        <ele>224.2</ele>
        <time>2021-08-26T12:37:51Z</time>
      </trkpt>
      <trkpt lat="46.53897" lon="5.35178">
        <ele>224.2</ele>
        <time>2021-08-26T12:37:52Z</time>
      </trkpt>
      <trkpt lat="46.53904" lon="5.35173">
        <ele>224</ele>
        <time>2021-08-26T12:37:53Z</time>
      </trkpt>
      <trkpt lat="46.53917" lon="5.35163">
        <ele>224</ele>
        <time>2021-08-26T12:37:55Z</time>
      </trkpt>
      <trkpt lat="46.53931" lon="5.35153">
        <ele>223.8</ele>
        <time>2021-08-26T12:37:57Z</time>
      </trkpt>
      <trkpt lat="46.53944" lon="5.35142">
        <ele>223.4</ele>
        <time>2021-08-26T12:37:59Z</time>
      </trkpt>
      <trkpt lat="46.5395" lon="5.35136">
        <ele>223.2</ele>
        <time>2021-08-26T12:38:00Z</time>
      </trkpt>
      <trkpt lat="46.53956" lon="5.35129">
        <ele>223.2</ele>
        <time>2021-08-26T12:38:01Z</time>
      </trkpt>
      <trkpt lat="46.53968" lon="5.35116">
        <ele>222.6</ele>
        <time>2021-08-26T12:38:03Z</time>
      </trkpt>
      <trkpt lat="46.53979" lon="5.35102">
        <ele>222.6</ele>
        <time>2021-08-26T12:38:05Z</time>
      </trkpt>
      <trkpt lat="46.53991" lon="5.35087">
        <ele>222.2</ele>
        <time>2021-08-26T12:38:07Z</time>
      </trkpt>
      <trkpt lat="46.54003" lon="5.35073">
        <ele>222.2</ele>
        <time>2021-08-26T12:38:09Z</time>
      </trkpt>
      <trkpt lat="46.54016" lon="5.3506">
        <ele>222</ele>
        <time>2021-08-26T12:38:11Z</time>
      </trkpt>
      <trkpt lat="46.5403" lon="5.35048">
        <ele>221.8</ele>
        <time>2021-08-26T12:38:13Z</time>
      </trkpt>
      <trkpt lat="46.54037" lon="5.35042">
        <ele>221.6</ele>
        <time>2021-08-26T12:38:14Z</time>
      </trkpt>
      <trkpt lat="46.54044" lon="5.35036">
        <ele>221.4</ele>
        <time>2021-08-26T12:38:15Z</time>
      </trkpt>
      <trkpt lat="46.54059" lon="5.35026">
        <ele>221.2</ele>
        <time>2021-08-26T12:38:17Z</time>
      </trkpt>
      <trkpt lat="46.54076" lon="5.35018">
        <ele>220.8</ele>
        <time>2021-08-26T12:38:19Z</time>
      </trkpt>
      <trkpt lat="46.54084" lon="5.35014">
        <ele>220.6</ele>
        <time>2021-08-26T12:38:20Z</time>
      </trkpt>
      <trkpt lat="46.54093" lon="5.35011">
        <ele>220.4</ele>
        <time>2021-08-26T12:38:21Z</time>
      </trkpt>
      <trkpt lat="46.5411" lon="5.35004">
        <ele>220</ele>
        <time>2021-08-26T12:38:23Z</time>
      </trkpt>
      <trkpt lat="46.54127" lon="5.34996">
        <ele>219.6</ele>
        <time>2021-08-26T12:38:25Z</time>
      </trkpt>
      <trkpt lat="46.54135" lon="5.34991">
        <ele>219.2</ele>
        <time>2021-08-26T12:38:26Z</time>
      </trkpt>
      <trkpt lat="46.54143" lon="5.34985">
        <ele>218.8</ele>
        <time>2021-08-26T12:38:27Z</time>
      </trkpt>
      <trkpt lat="46.54158" lon="5.34971">
        <ele>218</ele>
        <time>2021-08-26T12:38:29Z</time>
      </trkpt>
      <trkpt lat="46.54172" lon="5.34954">
        <ele>217.6</ele>
        <time>2021-08-26T12:38:31Z</time>
      </trkpt>
      <trkpt lat="46.54186" lon="5.34938">
        <ele>217</ele>
        <time>2021-08-26T12:38:33Z</time>
      </trkpt>
      <trkpt lat="46.54193" lon="5.3493">
        <ele>216.6</ele>
        <time>2021-08-26T12:38:34Z</time>
      </trkpt>
      <trkpt lat="46.542" lon="5.34923">
        <ele>216.2</ele>
        <time>2021-08-26T12:38:35Z</time>
      </trkpt>
      <trkpt lat="46.54215" lon="5.34909">
        <ele>215.8</ele>
        <time>2021-08-26T12:38:37Z</time>
      </trkpt>
      <trkpt lat="46.54223" lon="5.34903">
        <ele>215.8</ele>
        <time>2021-08-26T12:38:38Z</time>
      </trkpt>
      <trkpt lat="46.5423" lon="5.34895">
        <ele>215.4</ele>
        <time>2021-08-26T12:38:39Z</time>
      </trkpt>
      <trkpt lat="46.54236" lon="5.34887">
        <ele>215</ele>
        <time>2021-08-26T12:38:40Z</time>
      </trkpt>
      <trkpt lat="46.54242" lon="5.34878">
        <ele>214.8</ele>
        <time>2021-08-26T12:38:41Z</time>
      </trkpt>
      <trkpt lat="46.54247" lon="5.34868">
        <ele>214.6</ele>
        <time>2021-08-26T12:38:42Z</time>
      </trkpt>
      <trkpt lat="46.54252" lon="5.34858">
        <ele>214.4</ele>
        <time>2021-08-26T12:38:43Z</time>
      </trkpt>
      <trkpt lat="46.54258" lon="5.34848">
        <ele>214.4</ele>
        <time>2021-08-26T12:38:44Z</time>
      </trkpt>
      <trkpt lat="46.54264" lon="5.34839">
        <ele>214.4</ele>
        <time>2021-08-26T12:38:45Z</time>
      </trkpt>
      <trkpt lat="46.54276" lon="5.34822">
        <ele>214.2</ele>
        <time>2021-08-26T12:38:47Z</time>
      </trkpt>
      <trkpt lat="46.54283" lon="5.34814">
        <ele>214.2</ele>
        <time>2021-08-26T12:38:48Z</time>
      </trkpt>
      <trkpt lat="46.54289" lon="5.34806">
        <ele>214.2</ele>
        <time>2021-08-26T12:38:49Z</time>
      </trkpt>
      <trkpt lat="46.54303" lon="5.34792">
        <ele>214.2</ele>
        <time>2021-08-26T12:38:51Z</time>
      </trkpt>
      <trkpt lat="46.54317" lon="5.34779">
        <ele>214.2</ele>
        <time>2021-08-26T12:38:53Z</time>
      </trkpt>
      <trkpt lat="46.5433" lon="5.34766">
        <ele>214</ele>
        <time>2021-08-26T12:38:55Z</time>
      </trkpt>
      <trkpt lat="46.54343" lon="5.34755">
        <ele>213.8</ele>
        <time>2021-08-26T12:38:57Z</time>
      </trkpt>
      <trkpt lat="46.54357" lon="5.34747">
        <ele>213.8</ele>
        <time>2021-08-26T12:38:59Z</time>
      </trkpt>
      <trkpt lat="46.54364" lon="5.34745">
        <ele>213.8</ele>
        <time>2021-08-26T12:39:00Z</time>
      </trkpt>
      <trkpt lat="46.54371" lon="5.34742">
        <ele>213.8</ele>
        <time>2021-08-26T12:39:01Z</time>
      </trkpt>
      <trkpt lat="46.54384" lon="5.34738">
        <ele>213.8</ele>
        <time>2021-08-26T12:39:03Z</time>
      </trkpt>
      <trkpt lat="46.54397" lon="5.34734">
        <ele>214</ele>
        <time>2021-08-26T12:39:05Z</time>
      </trkpt>
      <trkpt lat="46.54403" lon="5.34731">
        <ele>214.2</ele>
        <time>2021-08-26T12:39:06Z</time>
      </trkpt>
      <trkpt lat="46.54409" lon="5.34728">
        <ele>214.4</ele>
        <time>2021-08-26T12:39:07Z</time>
      </trkpt>
      <trkpt lat="46.5442" lon="5.34721">
        <ele>214.8</ele>
        <time>2021-08-26T12:39:09Z</time>
      </trkpt>
      <trkpt lat="46.54432" lon="5.34713">
        <ele>215</ele>
        <time>2021-08-26T12:39:11Z</time>
      </trkpt>
      <trkpt lat="46.54445" lon="5.34706">
        <ele>215.2</ele>
        <time>2021-08-26T12:39:13Z</time>
      </trkpt>
      <trkpt lat="46.54457" lon="5.34698">
        <ele>215.2</ele>
        <time>2021-08-26T12:39:15Z</time>
      </trkpt>
      <trkpt lat="46.54469" lon="5.3469">
        <ele>215.2</ele>
        <time>2021-08-26T12:39:17Z</time>
      </trkpt>
      <trkpt lat="46.5448" lon="5.3468">
        <ele>215.4</ele>
        <time>2021-08-26T12:39:19Z</time>
      </trkpt>
      <trkpt lat="46.54485" lon="5.34675">
        <ele>215.4</ele>
        <time>2021-08-26T12:39:20Z</time>
      </trkpt>
      <trkpt lat="46.5449" lon="5.34669">
        <ele>215.4</ele>
        <time>2021-08-26T12:39:21Z</time>
      </trkpt>
      <trkpt lat="46.54499" lon="5.34657">
        <ele>215.4</ele>
        <time>2021-08-26T12:39:23Z</time>
      </trkpt>
      <trkpt lat="46.54508" lon="5.34643">
        <ele>215.4</ele>
        <time>2021-08-26T12:39:25Z</time>
      </trkpt>
      <trkpt lat="46.54512" lon="5.34637">
        <ele>215.2</ele>
        <time>2021-08-26T12:39:26Z</time>
      </trkpt>
      <trkpt lat="46.54516" lon="5.3463">
        <ele>215.2</ele>
        <time>2021-08-26T12:39:27Z</time>
      </trkpt>
      <trkpt lat="46.54525" lon="5.34618">
        <ele>215.2</ele>
        <time>2021-08-26T12:39:29Z</time>
      </trkpt>
      <trkpt lat="46.54536" lon="5.34607">
        <ele>215.4</ele>
        <time>2021-08-26T12:39:31Z</time>
      </trkpt>
      <trkpt lat="46.54541" lon="5.34602">
        <ele>215.4</ele>
        <time>2021-08-26T12:39:32Z</time>
      </trkpt>
      <trkpt lat="46.54546" lon="5.34598">
        <ele>215.4</ele>
        <time>2021-08-26T12:39:33Z</time>
      </trkpt>
      <trkpt lat="46.54556" lon="5.3459">
        <ele>215.4</ele>
        <time>2021-08-26T12:39:35Z</time>
      </trkpt>
      <trkpt lat="46.54564" lon="5.34582">
        <ele>215.6</ele>
        <time>2021-08-26T12:39:37Z</time>
      </trkpt>
      <trkpt lat="46.54572" lon="5.34576">
        <ele>215.6</ele>
        <time>2021-08-26T12:39:39Z</time>
      </trkpt>
      <trkpt lat="46.54579" lon="5.34569">
        <ele>216.2</ele>
        <time>2021-08-26T12:39:41Z</time>
      </trkpt>
      <trkpt lat="46.54586" lon="5.34563">
        <ele>216.6</ele>
        <time>2021-08-26T12:39:43Z</time>
      </trkpt>
      <trkpt lat="46.54592" lon="5.34557">
        <ele>217.4</ele>
        <time>2021-08-26T12:39:45Z</time>
      </trkpt>
      <trkpt lat="46.54595" lon="5.34554">
        <ele>217.8</ele>
        <time>2021-08-26T12:39:46Z</time>
      </trkpt>
      <trkpt lat="46.54598" lon="5.34551">
        <ele>218</ele>
        <time>2021-08-26T12:39:47Z</time>
      </trkpt>
      <trkpt lat="46.54604" lon="5.34545">
        <ele>218.8</ele>
        <time>2021-08-26T12:39:49Z</time>
      </trkpt>
      <trkpt lat="46.54611" lon="5.34539">
        <ele>219.8</ele>
        <time>2021-08-26T12:39:51Z</time>
      </trkpt>
      <trkpt lat="46.54618" lon="5.34533">
        <ele>220.8</ele>
        <time>2021-08-26T12:39:53Z</time>
      </trkpt>
      <trkpt lat="46.54622" lon="5.34529">
        <ele>221.2</ele>
        <time>2021-08-26T12:39:54Z</time>
      </trkpt>
      <trkpt lat="46.54626" lon="5.34525">
        <ele>221.4</ele>
        <time>2021-08-26T12:39:55Z</time>
      </trkpt>
      <trkpt lat="46.54636" lon="5.34517">
        <ele>222</ele>
        <time>2021-08-26T12:39:57Z</time>
      </trkpt>
      <trkpt lat="46.54647" lon="5.34509">
        <ele>222.4</ele>
        <time>2021-08-26T12:39:59Z</time>
      </trkpt>
      <trkpt lat="46.54653" lon="5.34505">
        <ele>222.4</ele>
        <time>2021-08-26T12:40:00Z</time>
      </trkpt>
      <trkpt lat="46.54658" lon="5.345">
        <ele>222.6</ele>
        <time>2021-08-26T12:40:01Z</time>
      </trkpt>
      <trkpt lat="46.54669" lon="5.34493">
        <ele>222.6</ele>
        <time>2021-08-26T12:40:03Z</time>
      </trkpt>
      <trkpt lat="46.5468" lon="5.34486">
        <ele>222.8</ele>
        <time>2021-08-26T12:40:05Z</time>
      </trkpt>
      <trkpt lat="46.54691" lon="5.3448">
        <ele>222.8</ele>
        <time>2021-08-26T12:40:07Z</time>
      </trkpt>
      <trkpt lat="46.54704" lon="5.34475">
        <ele>222.8</ele>
        <time>2021-08-26T12:40:09Z</time>
      </trkpt>
      <trkpt lat="46.54717" lon="5.34471">
        <ele>222.8</ele>
        <time>2021-08-26T12:40:11Z</time>
      </trkpt>
      <trkpt lat="46.5473" lon="5.34467">
        <ele>222.8</ele>
        <time>2021-08-26T12:40:13Z</time>
      </trkpt>
      <trkpt lat="46.54737" lon="5.34465">
        <ele>222.8</ele>
        <time>2021-08-26T12:40:14Z</time>
      </trkpt>
      <trkpt lat="46.54744" lon="5.34463">
        <ele>222.6</ele>
        <time>2021-08-26T12:40:15Z</time>
      </trkpt>
      <trkpt lat="46.54758" lon="5.3446">
        <ele>222.4</ele>
        <time>2021-08-26T12:40:17Z</time>
      </trkpt>
      <trkpt lat="46.54772" lon="5.34455">
        <ele>222.2</ele>
        <time>2021-08-26T12:40:19Z</time>
      </trkpt>
      <trkpt lat="46.54779" lon="5.34452">
        <ele>222</ele>
        <time>2021-08-26T12:40:20Z</time>
      </trkpt>
      <trkpt lat="46.54786" lon="5.3445">
        <ele>222</ele>
        <time>2021-08-26T12:40:21Z</time>
      </trkpt>
      <trkpt lat="46.548" lon="5.34445">
        <ele>221.6</ele>
        <time>2021-08-26T12:40:23Z</time>
      </trkpt>
      <trkpt lat="46.54813" lon="5.34439">
        <ele>221.4</ele>
        <time>2021-08-26T12:40:25Z</time>
      </trkpt>
      <trkpt lat="46.5482" lon="5.34436">
        <ele>221.4</ele>
        <time>2021-08-26T12:40:26Z</time>
      </trkpt>
      <trkpt lat="46.54826" lon="5.34434">
        <ele>221.4</ele>
        <time>2021-08-26T12:40:27Z</time>
      </trkpt>
      <trkpt lat="46.54839" lon="5.34427">
        <ele>221.4</ele>
        <time>2021-08-26T12:40:29Z</time>
      </trkpt>
      <trkpt lat="46.54851" lon="5.3442">
        <ele>221.4</ele>
        <time>2021-08-26T12:40:31Z</time>
      </trkpt>
      <trkpt lat="46.54857" lon="5.34417">
        <ele>221.4</ele>
        <time>2021-08-26T12:40:32Z</time>
      </trkpt>
      <trkpt lat="46.54864" lon="5.34413">
        <ele>221.4</ele>
        <time>2021-08-26T12:40:33Z</time>
      </trkpt>
      <trkpt lat="46.54876" lon="5.34404">
        <ele>221.4</ele>
        <time>2021-08-26T12:40:35Z</time>
      </trkpt>
      <trkpt lat="46.54888" lon="5.34395">
        <ele>221.6</ele>
        <time>2021-08-26T12:40:37Z</time>
      </trkpt>
      <trkpt lat="46.549" lon="5.34384">
        <ele>221.6</ele>
        <time>2021-08-26T12:40:39Z</time>
      </trkpt>
      <trkpt lat="46.5491" lon="5.34375">
        <ele>221.8</ele>
        <time>2021-08-26T12:40:41Z</time>
      </trkpt>
      <trkpt lat="46.54921" lon="5.34366">
        <ele>222.2</ele>
        <time>2021-08-26T12:40:43Z</time>
      </trkpt>
      <trkpt lat="46.54933" lon="5.34356">
        <ele>222.6</ele>
        <time>2021-08-26T12:40:45Z</time>
      </trkpt>
      <trkpt lat="46.54944" lon="5.34344">
        <ele>222.8</ele>
        <time>2021-08-26T12:40:47Z</time>
      </trkpt>
      <trkpt lat="46.54956" lon="5.34332">
        <ele>222.8</ele>
        <time>2021-08-26T12:40:49Z</time>
      </trkpt>
      <trkpt lat="46.54968" lon="5.34319">
        <ele>222.8</ele>
        <time>2021-08-26T12:40:51Z</time>
      </trkpt>
      <trkpt lat="46.54979" lon="5.34306">
        <ele>222.8</ele>
        <time>2021-08-26T12:40:53Z</time>
      </trkpt>
      <trkpt lat="46.54984" lon="5.34298">
        <ele>222.8</ele>
        <time>2021-08-26T12:40:54Z</time>
      </trkpt>
      <trkpt lat="46.5499" lon="5.3429">
        <ele>222.6</ele>
        <time>2021-08-26T12:40:55Z</time>
      </trkpt>
      <trkpt lat="46.55002" lon="5.34276">
        <ele>222.6</ele>
        <time>2021-08-26T12:40:57Z</time>
      </trkpt>
      <trkpt lat="46.55013" lon="5.34262">
        <ele>222.4</ele>
        <time>2021-08-26T12:40:59Z</time>
      </trkpt>
      <trkpt lat="46.55024" lon="5.34248">
        <ele>222.2</ele>
        <time>2021-08-26T12:41:01Z</time>
      </trkpt>
      <trkpt lat="46.55035" lon="5.34235">
        <ele>221.8</ele>
        <time>2021-08-26T12:41:03Z</time>
      </trkpt>
      <trkpt lat="46.55046" lon="5.34222">
        <ele>221.4</ele>
        <time>2021-08-26T12:41:05Z</time>
      </trkpt>
      <trkpt lat="46.55051" lon="5.34216">
        <ele>221.4</ele>
        <time>2021-08-26T12:41:06Z</time>
      </trkpt>
      <trkpt lat="46.55057" lon="5.3421">
        <ele>221.2</ele>
        <time>2021-08-26T12:41:07Z</time>
      </trkpt>
      <trkpt lat="46.55069" lon="5.34198">
        <ele>221.2</ele>
        <time>2021-08-26T12:41:09Z</time>
      </trkpt>
      <trkpt lat="46.55081" lon="5.34185">
        <ele>221</ele>
        <time>2021-08-26T12:41:11Z</time>
      </trkpt>
      <trkpt lat="46.55093" lon="5.34173">
        <ele>220.8</ele>
        <time>2021-08-26T12:41:13Z</time>
      </trkpt>
      <trkpt lat="46.55105" lon="5.34161">
        <ele>221</ele>
        <time>2021-08-26T12:41:15Z</time>
      </trkpt>
      <trkpt lat="46.55116" lon="5.34148">
        <ele>220.6</ele>
        <time>2021-08-26T12:41:17Z</time>
      </trkpt>
      <trkpt lat="46.55127" lon="5.34135">
        <ele>220.6</ele>
        <time>2021-08-26T12:41:19Z</time>
      </trkpt>
      <trkpt lat="46.55137" lon="5.34121">
        <ele>220.6</ele>
        <time>2021-08-26T12:41:21Z</time>
      </trkpt>
      <trkpt lat="46.55148" lon="5.34108">
        <ele>220.6</ele>
        <time>2021-08-26T12:41:23Z</time>
      </trkpt>
      <trkpt lat="46.55158" lon="5.34095">
        <ele>220.6</ele>
        <time>2021-08-26T12:41:25Z</time>
      </trkpt>
      <trkpt lat="46.55167" lon="5.34082">
        <ele>220.6</ele>
        <time>2021-08-26T12:41:27Z</time>
      </trkpt>
      <trkpt lat="46.55177" lon="5.3407">
        <ele>220.6</ele>
        <time>2021-08-26T12:41:29Z</time>
      </trkpt>
      <trkpt lat="46.55181" lon="5.34064">
        <ele>220.6</ele>
        <time>2021-08-26T12:41:30Z</time>
      </trkpt>
      <trkpt lat="46.55186" lon="5.3406">
        <ele>220.6</ele>
        <time>2021-08-26T12:41:31Z</time>
      </trkpt>
      <trkpt lat="46.55193" lon="5.34058">
        <ele>220.6</ele>
        <time>2021-08-26T12:41:33Z</time>
      </trkpt>
      <trkpt lat="46.55199" lon="5.34065">
        <ele>220.6</ele>
        <time>2021-08-26T12:41:35Z</time>
      </trkpt>
      <trkpt lat="46.55201" lon="5.3407">
        <ele>220.8</ele>
        <time>2021-08-26T12:41:36Z</time>
      </trkpt>
      <trkpt lat="46.55203" lon="5.34075">
        <ele>220.8</ele>
        <time>2021-08-26T12:41:37Z</time>
      </trkpt>
      <trkpt lat="46.55207" lon="5.34088">
        <ele>220.8</ele>
        <time>2021-08-26T12:41:39Z</time>
      </trkpt>
      <trkpt lat="46.55212" lon="5.34102">
        <ele>221</ele>
        <time>2021-08-26T12:41:41Z</time>
      </trkpt>
      <trkpt lat="46.55217" lon="5.34116">
        <ele>221</ele>
        <time>2021-08-26T12:41:43Z</time>
      </trkpt>
      <trkpt lat="46.55222" lon="5.3413">
        <ele>221</ele>
        <time>2021-08-26T12:41:45Z</time>
      </trkpt>
      <trkpt lat="46.55224" lon="5.34138">
        <ele>221.2</ele>
        <time>2021-08-26T12:41:46Z</time>
      </trkpt>
      <trkpt lat="46.55226" lon="5.34146">
        <ele>221.2</ele>
        <time>2021-08-26T12:41:47Z</time>
      </trkpt>
      <trkpt lat="46.55228" lon="5.34163">
        <ele>221.4</ele>
        <time>2021-08-26T12:41:49Z</time>
      </trkpt>
      <trkpt lat="46.55231" lon="5.34182">
        <ele>221.4</ele>
        <time>2021-08-26T12:41:51Z</time>
      </trkpt>
      <trkpt lat="46.55232" lon="5.34193">
        <ele>221.4</ele>
        <time>2021-08-26T12:41:52Z</time>
      </trkpt>
      <trkpt lat="46.55234" lon="5.34203">
        <ele>221.4</ele>
        <time>2021-08-26T12:41:53Z</time>
      </trkpt>
      <trkpt lat="46.55238" lon="5.34225">
        <ele>221.4</ele>
        <time>2021-08-26T12:41:55Z</time>
      </trkpt>
      <trkpt lat="46.55242" lon="5.34235">
        <ele>221.4</ele>
        <time>2021-08-26T12:41:56Z</time>
      </trkpt>
      <trkpt lat="46.55247" lon="5.34245">
        <ele>221.4</ele>
        <time>2021-08-26T12:41:57Z</time>
      </trkpt>
      <trkpt lat="46.55258" lon="5.34261">
        <ele>221.4</ele>
        <time>2021-08-26T12:41:59Z</time>
      </trkpt>
      <trkpt lat="46.55263" lon="5.34269">
        <ele>221.4</ele>
        <time>2021-08-26T12:42:00Z</time>
      </trkpt>
      <trkpt lat="46.5527" lon="5.34275">
        <ele>221.4</ele>
        <time>2021-08-26T12:42:01Z</time>
      </trkpt>
      <trkpt lat="46.55283" lon="5.34289">
        <ele>221.2</ele>
        <time>2021-08-26T12:42:03Z</time>
      </trkpt>
      <trkpt lat="46.55297" lon="5.34303">
        <ele>220.6</ele>
        <time>2021-08-26T12:42:05Z</time>
      </trkpt>
      <trkpt lat="46.5531" lon="5.34318">
        <ele>220</ele>
        <time>2021-08-26T12:42:07Z</time>
      </trkpt>
      <trkpt lat="46.55325" lon="5.34334">
        <ele>219.4</ele>
        <time>2021-08-26T12:42:09Z</time>
      </trkpt>
      <trkpt lat="46.55338" lon="5.34349">
        <ele>218.4</ele>
        <time>2021-08-26T12:42:11Z</time>
      </trkpt>
      <trkpt lat="46.55345" lon="5.34356">
        <ele>218.2</ele>
        <time>2021-08-26T12:42:12Z</time>
      </trkpt>
      <trkpt lat="46.55352" lon="5.34364">
        <ele>217.8</ele>
        <time>2021-08-26T12:42:13Z</time>
      </trkpt>
      <trkpt lat="46.55359" lon="5.34371">
        <ele>217.4</ele>
        <time>2021-08-26T12:42:14Z</time>
      </trkpt>
      <trkpt lat="46.55365" lon="5.34378">
        <ele>217.2</ele>
        <time>2021-08-26T12:42:15Z</time>
      </trkpt>
      <trkpt lat="46.55379" lon="5.34393">
        <ele>216</ele>
        <time>2021-08-26T12:42:17Z</time>
      </trkpt>
      <trkpt lat="46.55394" lon="5.34407">
        <ele>215.6</ele>
        <time>2021-08-26T12:42:19Z</time>
      </trkpt>
      <trkpt lat="46.554" lon="5.34415">
        <ele>215.4</ele>
        <time>2021-08-26T12:42:20Z</time>
      </trkpt>
      <trkpt lat="46.55407" lon="5.34422">
        <ele>215.4</ele>
        <time>2021-08-26T12:42:21Z</time>
      </trkpt>
      <trkpt lat="46.55421" lon="5.34436">
        <ele>215.2</ele>
        <time>2021-08-26T12:42:23Z</time>
      </trkpt>
      <trkpt lat="46.55427" lon="5.34442">
        <ele>215</ele>
        <time>2021-08-26T12:42:24Z</time>
      </trkpt>
      <trkpt lat="46.55434" lon="5.34449">
        <ele>215</ele>
        <time>2021-08-26T12:42:25Z</time>
      </trkpt>
      <trkpt lat="46.55447" lon="5.34462">
        <ele>214.8</ele>
        <time>2021-08-26T12:42:27Z</time>
      </trkpt>
      <trkpt lat="46.5546" lon="5.34475">
        <ele>214.8</ele>
        <time>2021-08-26T12:42:29Z</time>
      </trkpt>
      <trkpt lat="46.55473" lon="5.34488">
        <ele>214.6</ele>
        <time>2021-08-26T12:42:31Z</time>
      </trkpt>
      <trkpt lat="46.55485" lon="5.34501">
        <ele>214.6</ele>
        <time>2021-08-26T12:42:33Z</time>
      </trkpt>
      <trkpt lat="46.55498" lon="5.34512">
        <ele>214.6</ele>
        <time>2021-08-26T12:42:35Z</time>
      </trkpt>
      <trkpt lat="46.55511" lon="5.34523">
        <ele>214.6</ele>
        <time>2021-08-26T12:42:37Z</time>
      </trkpt>
      <trkpt lat="46.55524" lon="5.34533">
        <ele>214.8</ele>
        <time>2021-08-26T12:42:39Z</time>
      </trkpt>
      <trkpt lat="46.55538" lon="5.34542">
        <ele>214.8</ele>
        <time>2021-08-26T12:42:41Z</time>
      </trkpt>
      <trkpt lat="46.55553" lon="5.34548">
        <ele>215</ele>
        <time>2021-08-26T12:42:43Z</time>
      </trkpt>
      <trkpt lat="46.55568" lon="5.34554">
        <ele>214.8</ele>
        <time>2021-08-26T12:42:45Z</time>
      </trkpt>
      <trkpt lat="46.55584" lon="5.34559">
        <ele>214.8</ele>
        <time>2021-08-26T12:42:47Z</time>
      </trkpt>
      <trkpt lat="46.55601" lon="5.34565">
        <ele>214.8</ele>
        <time>2021-08-26T12:42:49Z</time>
      </trkpt>
      <trkpt lat="46.55609" lon="5.34569">
        <ele>214.8</ele>
        <time>2021-08-26T12:42:50Z</time>
      </trkpt>
      <trkpt lat="46.55617" lon="5.34572">
        <ele>214.8</ele>
        <time>2021-08-26T12:42:51Z</time>
      </trkpt>
      <trkpt lat="46.55635" lon="5.34577">
        <ele>214.4</ele>
        <time>2021-08-26T12:42:53Z</time>
      </trkpt>
      <trkpt lat="46.55655" lon="5.34579">
        <ele>213.8</ele>
        <time>2021-08-26T12:42:55Z</time>
      </trkpt>
      <trkpt lat="46.55675" lon="5.34579">
        <ele>212.8</ele>
        <time>2021-08-26T12:42:57Z</time>
      </trkpt>
      <trkpt lat="46.55686" lon="5.34578">
        <ele>212.6</ele>
        <time>2021-08-26T12:42:58Z</time>
      </trkpt>
      <trkpt lat="46.55696" lon="5.34578">
        <ele>212.4</ele>
        <time>2021-08-26T12:42:59Z</time>
      </trkpt>
      <trkpt lat="46.55717" lon="5.34581">
        <ele>211</ele>
        <time>2021-08-26T12:43:01Z</time>
      </trkpt>
      <trkpt lat="46.55739" lon="5.34585">
        <ele>209.4</ele>
        <time>2021-08-26T12:43:03Z</time>
      </trkpt>
      <trkpt lat="46.5576" lon="5.3459">
        <ele>207.8</ele>
        <time>2021-08-26T12:43:05Z</time>
      </trkpt>
      <trkpt lat="46.55781" lon="5.34595">
        <ele>205.6</ele>
        <time>2021-08-26T12:43:07Z</time>
      </trkpt>
      <trkpt lat="46.55802" lon="5.346">
        <ele>204.8</ele>
        <time>2021-08-26T12:43:09Z</time>
      </trkpt>
      <trkpt lat="46.55812" lon="5.34602">
        <ele>204.2</ele>
        <time>2021-08-26T12:43:10Z</time>
      </trkpt>
      <trkpt lat="46.55822" lon="5.34605">
        <ele>204</ele>
        <time>2021-08-26T12:43:11Z</time>
      </trkpt>
      <trkpt lat="46.55841" lon="5.34609">
        <ele>203.2</ele>
        <time>2021-08-26T12:43:13Z</time>
      </trkpt>
      <trkpt lat="46.55859" lon="5.34614">
        <ele>202.8</ele>
        <time>2021-08-26T12:43:15Z</time>
      </trkpt>
      <trkpt lat="46.55877" lon="5.34618">
        <ele>202.6</ele>
        <time>2021-08-26T12:43:17Z</time>
      </trkpt>
      <trkpt lat="46.55895" lon="5.34621">
        <ele>202.2</ele>
        <time>2021-08-26T12:43:19Z</time>
      </trkpt>
      <trkpt lat="46.55914" lon="5.34626">
        <ele>202</ele>
        <time>2021-08-26T12:43:21Z</time>
      </trkpt>
      <trkpt lat="46.55932" lon="5.3463">
        <ele>201.8</ele>
        <time>2021-08-26T12:43:23Z</time>
      </trkpt>
      <trkpt lat="46.5595" lon="5.34635">
        <ele>201.6</ele>
        <time>2021-08-26T12:43:25Z</time>
      </trkpt>
      <trkpt lat="46.55966" lon="5.3464">
        <ele>201.6</ele>
        <time>2021-08-26T12:43:27Z</time>
      </trkpt>
      <trkpt lat="46.55981" lon="5.34645">
        <ele>201.4</ele>
        <time>2021-08-26T12:43:29Z</time>
      </trkpt>
      <trkpt lat="46.55989" lon="5.34647">
        <ele>201.2</ele>
        <time>2021-08-26T12:43:30Z</time>
      </trkpt>
      <trkpt lat="46.55996" lon="5.34649">
        <ele>201.2</ele>
        <time>2021-08-26T12:43:31Z</time>
      </trkpt>
      <trkpt lat="46.5601" lon="5.34652">
        <ele>201.2</ele>
        <time>2021-08-26T12:43:33Z</time>
      </trkpt>
      <trkpt lat="46.56024" lon="5.34656">
        <ele>201.2</ele>
        <time>2021-08-26T12:43:35Z</time>
      </trkpt>
      <trkpt lat="46.56039" lon="5.34659">
        <ele>201.2</ele>
        <time>2021-08-26T12:43:37Z</time>
      </trkpt>
      <trkpt lat="46.56053" lon="5.34663">
        <ele>201.2</ele>
        <time>2021-08-26T12:43:39Z</time>
      </trkpt>
      <trkpt lat="46.56067" lon="5.34667">
        <ele>201.4</ele>
        <time>2021-08-26T12:43:41Z</time>
      </trkpt>
      <trkpt lat="46.56081" lon="5.3467">
        <ele>201.8</ele>
        <time>2021-08-26T12:43:43Z</time>
      </trkpt>
      <trkpt lat="46.56095" lon="5.34673">
        <ele>202</ele>
        <time>2021-08-26T12:43:45Z</time>
      </trkpt>
      <trkpt lat="46.56102" lon="5.34675">
        <ele>202</ele>
        <time>2021-08-26T12:43:46Z</time>
      </trkpt>
      <trkpt lat="46.56108" lon="5.34676">
        <ele>202</ele>
        <time>2021-08-26T12:43:47Z</time>
      </trkpt>
      <trkpt lat="46.5612" lon="5.34679">
        <ele>202.2</ele>
        <time>2021-08-26T12:43:49Z</time>
      </trkpt>
      <trkpt lat="46.56132" lon="5.34681">
        <ele>202.2</ele>
        <time>2021-08-26T12:43:51Z</time>
      </trkpt>
      <trkpt lat="46.56138" lon="5.34682">
        <ele>202.2</ele>
        <time>2021-08-26T12:43:52Z</time>
      </trkpt>
      <trkpt lat="46.56143" lon="5.34682">
        <ele>202.4</ele>
        <time>2021-08-26T12:43:53Z</time>
      </trkpt>
      <trkpt lat="46.56154" lon="5.34683">
        <ele>202.4</ele>
        <time>2021-08-26T12:43:55Z</time>
      </trkpt>
      <trkpt lat="46.56165" lon="5.34683">
        <ele>202.8</ele>
        <time>2021-08-26T12:43:57Z</time>
      </trkpt>
      <trkpt lat="46.5617" lon="5.34683">
        <ele>203.2</ele>
        <time>2021-08-26T12:43:58Z</time>
      </trkpt>
      <trkpt lat="46.56175" lon="5.34682">
        <ele>203.6</ele>
        <time>2021-08-26T12:43:59Z</time>
      </trkpt>
      <trkpt lat="46.56185" lon="5.3468">
        <ele>204.2</ele>
        <time>2021-08-26T12:44:01Z</time>
      </trkpt>
      <trkpt lat="46.5619" lon="5.34679">
        <ele>204.6</ele>
        <time>2021-08-26T12:44:02Z</time>
      </trkpt>
      <trkpt lat="46.56194" lon="5.34678">
        <ele>205</ele>
        <time>2021-08-26T12:44:03Z</time>
      </trkpt>
      <trkpt lat="46.56204" lon="5.34675">
        <ele>205.6</ele>
        <time>2021-08-26T12:44:05Z</time>
      </trkpt>
      <trkpt lat="46.56213" lon="5.34672">
        <ele>206.2</ele>
        <time>2021-08-26T12:44:07Z</time>
      </trkpt>
      <trkpt lat="46.56222" lon="5.34669">
        <ele>206.6</ele>
        <time>2021-08-26T12:44:09Z</time>
      </trkpt>
      <trkpt lat="46.56231" lon="5.34667">
        <ele>207.2</ele>
        <time>2021-08-26T12:44:11Z</time>
      </trkpt>
      <trkpt lat="46.5624" lon="5.34664">
        <ele>207.4</ele>
        <time>2021-08-26T12:44:13Z</time>
      </trkpt>
      <trkpt lat="46.56249" lon="5.34661">
        <ele>207.6</ele>
        <time>2021-08-26T12:44:15Z</time>
      </trkpt>
      <trkpt lat="46.56253" lon="5.3466">
        <ele>207.8</ele>
        <time>2021-08-26T12:44:16Z</time>
      </trkpt>
      <trkpt lat="46.56258" lon="5.34659">
        <ele>208</ele>
        <time>2021-08-26T12:44:17Z</time>
      </trkpt>
      <trkpt lat="46.56266" lon="5.34657">
        <ele>208.4</ele>
        <time>2021-08-26T12:44:19Z</time>
      </trkpt>
      <trkpt lat="46.56271" lon="5.34656">
        <ele>208.8</ele>
        <time>2021-08-26T12:44:20Z</time>
      </trkpt>
      <trkpt lat="46.56275" lon="5.34654">
        <ele>209</ele>
        <time>2021-08-26T12:44:21Z</time>
      </trkpt>
      <trkpt lat="46.56284" lon="5.34652">
        <ele>209.2</ele>
        <time>2021-08-26T12:44:23Z</time>
      </trkpt>
      <trkpt lat="46.56293" lon="5.34651">
        <ele>209.6</ele>
        <time>2021-08-26T12:44:25Z</time>
      </trkpt>
      <trkpt lat="46.56297" lon="5.3465">
        <ele>210</ele>
        <time>2021-08-26T12:44:26Z</time>
      </trkpt>
      <trkpt lat="46.56301" lon="5.34649">
        <ele>210.2</ele>
        <time>2021-08-26T12:44:27Z</time>
      </trkpt>
      <trkpt lat="46.5631" lon="5.34649">
        <ele>210.2</ele>
        <time>2021-08-26T12:44:29Z</time>
      </trkpt>
      <trkpt lat="46.56319" lon="5.3465">
        <ele>210.8</ele>
        <time>2021-08-26T12:44:31Z</time>
      </trkpt>
      <trkpt lat="46.56323" lon="5.3465">
        <ele>211</ele>
        <time>2021-08-26T12:44:32Z</time>
      </trkpt>
      <trkpt lat="46.56327" lon="5.34651">
        <ele>211.2</ele>
        <time>2021-08-26T12:44:33Z</time>
      </trkpt>
      <trkpt lat="46.56336" lon="5.34654">
        <ele>211.6</ele>
        <time>2021-08-26T12:44:35Z</time>
      </trkpt>
      <trkpt lat="46.56341" lon="5.34656">
        <ele>211.8</ele>
        <time>2021-08-26T12:44:36Z</time>
      </trkpt>
      <trkpt lat="46.56346" lon="5.34658">
        <ele>212</ele>
        <time>2021-08-26T12:44:37Z</time>
      </trkpt>
      <trkpt lat="46.56351" lon="5.3466">
        <ele>212.2</ele>
        <time>2021-08-26T12:44:38Z</time>
      </trkpt>
      <trkpt lat="46.56356" lon="5.34662">
        <ele>212.4</ele>
        <time>2021-08-26T12:44:39Z</time>
      </trkpt>
      <trkpt lat="46.56366" lon="5.34668">
        <ele>212.6</ele>
        <time>2021-08-26T12:44:41Z</time>
      </trkpt>
      <trkpt lat="46.56377" lon="5.34672">
        <ele>212.6</ele>
        <time>2021-08-26T12:44:43Z</time>
      </trkpt>
      <trkpt lat="46.56383" lon="5.34674">
        <ele>212.6</ele>
        <time>2021-08-26T12:44:44Z</time>
      </trkpt>
      <trkpt lat="46.56389" lon="5.34675">
        <ele>212.6</ele>
        <time>2021-08-26T12:44:45Z</time>
      </trkpt>
      <trkpt lat="46.56401" lon="5.34677">
        <ele>212.6</ele>
        <time>2021-08-26T12:44:47Z</time>
      </trkpt>
      <trkpt lat="46.56414" lon="5.34681">
        <ele>212.6</ele>
        <time>2021-08-26T12:44:49Z</time>
      </trkpt>
      <trkpt lat="46.5642" lon="5.34683">
        <ele>212.4</ele>
        <time>2021-08-26T12:44:50Z</time>
      </trkpt>
      <trkpt lat="46.56426" lon="5.34686">
        <ele>212.2</ele>
        <time>2021-08-26T12:44:51Z</time>
      </trkpt>
      <trkpt lat="46.56439" lon="5.34694">
        <ele>212</ele>
        <time>2021-08-26T12:44:53Z</time>
      </trkpt>
      <trkpt lat="46.56452" lon="5.34701">
        <ele>211.6</ele>
        <time>2021-08-26T12:44:55Z</time>
      </trkpt>
      <trkpt lat="46.56458" lon="5.34704">
        <ele>211.2</ele>
        <time>2021-08-26T12:44:56Z</time>
      </trkpt>
      <trkpt lat="46.56464" lon="5.34707">
        <ele>211.4</ele>
        <time>2021-08-26T12:44:57Z</time>
      </trkpt>
      <trkpt lat="46.56475" lon="5.34713">
        <ele>210.8</ele>
        <time>2021-08-26T12:44:59Z</time>
      </trkpt>
      <trkpt lat="46.56486" lon="5.34718">
        <ele>210.4</ele>
        <time>2021-08-26T12:45:01Z</time>
      </trkpt>
      <trkpt lat="46.5649" lon="5.34721">
        <ele>210.4</ele>
        <time>2021-08-26T12:45:02Z</time>
      </trkpt>
      <trkpt lat="46.56495" lon="5.34724">
        <ele>210.2</ele>
        <time>2021-08-26T12:45:03Z</time>
      </trkpt>
      <trkpt lat="46.56506" lon="5.34732">
        <ele>210</ele>
        <time>2021-08-26T12:45:05Z</time>
      </trkpt>
      <trkpt lat="46.56513" lon="5.34736">
        <ele>209.6</ele>
        <time>2021-08-26T12:45:06Z</time>
      </trkpt>
      <trkpt lat="46.56519" lon="5.3474">
        <ele>209.2</ele>
        <time>2021-08-26T12:45:07Z</time>
      </trkpt>
      <trkpt lat="46.56533" lon="5.34749">
        <ele>208.6</ele>
        <time>2021-08-26T12:45:09Z</time>
      </trkpt>
      <trkpt lat="46.56548" lon="5.34757">
        <ele>208.4</ele>
        <time>2021-08-26T12:45:11Z</time>
      </trkpt>
      <trkpt lat="46.56556" lon="5.34761">
        <ele>208.2</ele>
        <time>2021-08-26T12:45:12Z</time>
      </trkpt>
      <trkpt lat="46.56564" lon="5.34765">
        <ele>207.6</ele>
        <time>2021-08-26T12:45:13Z</time>
      </trkpt>
      <trkpt lat="46.56572" lon="5.34769">
        <ele>207</ele>
        <time>2021-08-26T12:45:14Z</time>
      </trkpt>
      <trkpt lat="46.56581" lon="5.34772">
        <ele>206.6</ele>
        <time>2021-08-26T12:45:15Z</time>
      </trkpt>
      <trkpt lat="46.5659" lon="5.34772">
        <ele>206.2</ele>
        <time>2021-08-26T12:45:16Z</time>
      </trkpt>
      <trkpt lat="46.56598" lon="5.3477">
        <ele>205.8</ele>
        <time>2021-08-26T12:45:17Z</time>
      </trkpt>
      <trkpt lat="46.56607" lon="5.34765">
        <ele>205.4</ele>
        <time>2021-08-26T12:45:18Z</time>
      </trkpt>
      <trkpt lat="46.56614" lon="5.34757">
        <ele>204.8</ele>
        <time>2021-08-26T12:45:19Z</time>
      </trkpt>
      <trkpt lat="46.56626" lon="5.34736">
        <ele>203.6</ele>
        <time>2021-08-26T12:45:21Z</time>
      </trkpt>
      <trkpt lat="46.56637" lon="5.34713">
        <ele>202.8</ele>
        <time>2021-08-26T12:45:23Z</time>
      </trkpt>
      <trkpt lat="46.56644" lon="5.34703">
        <ele>202.2</ele>
        <time>2021-08-26T12:45:24Z</time>
      </trkpt>
      <trkpt lat="46.56651" lon="5.34696">
        <ele>201.4</ele>
        <time>2021-08-26T12:45:25Z</time>
      </trkpt>
      <trkpt lat="46.5666" lon="5.34691">
        <ele>200.6</ele>
        <time>2021-08-26T12:45:26Z</time>
      </trkpt>
      <trkpt lat="46.56668" lon="5.34688">
        <ele>199.8</ele>
        <time>2021-08-26T12:45:27Z</time>
      </trkpt>
      <trkpt lat="46.56677" lon="5.34685">
        <ele>199.2</ele>
        <time>2021-08-26T12:45:28Z</time>
      </trkpt>
      <trkpt lat="46.56685" lon="5.34683">
        <ele>198.8</ele>
        <time>2021-08-26T12:45:29Z</time>
      </trkpt>
      <trkpt lat="46.56702" lon="5.34678">
        <ele>198.6</ele>
        <time>2021-08-26T12:45:31Z</time>
      </trkpt>
      <trkpt lat="46.56718" lon="5.34673">
        <ele>198.4</ele>
        <time>2021-08-26T12:45:33Z</time>
      </trkpt>
      <trkpt lat="46.56725" lon="5.3467">
        <ele>198.4</ele>
        <time>2021-08-26T12:45:34Z</time>
      </trkpt>
      <trkpt lat="46.56733" lon="5.34667">
        <ele>198.4</ele>
        <time>2021-08-26T12:45:35Z</time>
      </trkpt>
      <trkpt lat="46.56748" lon="5.34661">
        <ele>198.2</ele>
        <time>2021-08-26T12:45:37Z</time>
      </trkpt>
      <trkpt lat="46.56763" lon="5.34663">
        <ele>198.2</ele>
        <time>2021-08-26T12:45:39Z</time>
      </trkpt>
      <trkpt lat="46.56774" lon="5.34677">
        <ele>198.2</ele>
        <time>2021-08-26T12:45:41Z</time>
      </trkpt>
      <trkpt lat="46.56781" lon="5.34697">
        <ele>198.4</ele>
        <time>2021-08-26T12:45:43Z</time>
      </trkpt>
      <trkpt lat="46.56784" lon="5.34707">
        <ele>198.4</ele>
        <time>2021-08-26T12:45:44Z</time>
      </trkpt>
      <trkpt lat="46.56786" lon="5.34717">
        <ele>198.4</ele>
        <time>2021-08-26T12:45:45Z</time>
      </trkpt>
      <trkpt lat="46.56791" lon="5.34738">
        <ele>198.6</ele>
        <time>2021-08-26T12:45:47Z</time>
      </trkpt>
      <trkpt lat="46.56795" lon="5.34759">
        <ele>198.8</ele>
        <time>2021-08-26T12:45:49Z</time>
      </trkpt>
      <trkpt lat="46.56799" lon="5.3478">
        <ele>198.8</ele>
        <time>2021-08-26T12:45:51Z</time>
      </trkpt>
      <trkpt lat="46.56803" lon="5.34801">
        <ele>199.2</ele>
        <time>2021-08-26T12:45:53Z</time>
      </trkpt>
      <trkpt lat="46.56805" lon="5.34812">
        <ele>199.2</ele>
        <time>2021-08-26T12:45:54Z</time>
      </trkpt>
      <trkpt lat="46.56807" lon="5.34822">
        <ele>199</ele>
        <time>2021-08-26T12:45:55Z</time>
      </trkpt>
      <trkpt lat="46.56811" lon="5.34844">
        <ele>199</ele>
        <time>2021-08-26T12:45:57Z</time>
      </trkpt>
      <trkpt lat="46.56815" lon="5.34865">
        <ele>199</ele>
        <time>2021-08-26T12:45:59Z</time>
      </trkpt>
      <trkpt lat="46.56819" lon="5.34886">
        <ele>199</ele>
        <time>2021-08-26T12:46:01Z</time>
      </trkpt>
      <trkpt lat="46.56822" lon="5.34905">
        <ele>199.2</ele>
        <time>2021-08-26T12:46:03Z</time>
      </trkpt>
      <trkpt lat="46.56826" lon="5.34924">
        <ele>199.2</ele>
        <time>2021-08-26T12:46:05Z</time>
      </trkpt>
      <trkpt lat="46.56829" lon="5.34942">
        <ele>199.2</ele>
        <time>2021-08-26T12:46:07Z</time>
      </trkpt>
      <trkpt lat="46.56833" lon="5.3496">
        <ele>199.4</ele>
        <time>2021-08-26T12:46:09Z</time>
      </trkpt>
      <trkpt lat="46.56834" lon="5.34968">
        <ele>199.6</ele>
        <time>2021-08-26T12:46:10Z</time>
      </trkpt>
      <trkpt lat="46.56836" lon="5.34975">
        <ele>199.6</ele>
        <time>2021-08-26T12:46:11Z</time>
      </trkpt>
      <trkpt lat="46.56841" lon="5.34989">
        <ele>200.4</ele>
        <time>2021-08-26T12:46:13Z</time>
      </trkpt>
      <trkpt lat="46.56846" lon="5.35003">
        <ele>201</ele>
        <time>2021-08-26T12:46:15Z</time>
      </trkpt>
      <trkpt lat="46.56848" lon="5.35009">
        <ele>201</ele>
        <time>2021-08-26T12:46:16Z</time>
      </trkpt>
      <trkpt lat="46.56851" lon="5.35015">
        <ele>201.2</ele>
        <time>2021-08-26T12:46:17Z</time>
      </trkpt>
      <trkpt lat="46.56854" lon="5.35021">
        <ele>201.4</ele>
        <time>2021-08-26T12:46:18Z</time>
      </trkpt>
      <trkpt lat="46.56857" lon="5.35026">
        <ele>201.6</ele>
        <time>2021-08-26T12:46:19Z</time>
      </trkpt>
      <trkpt lat="46.56862" lon="5.35038">
        <ele>202.2</ele>
        <time>2021-08-26T12:46:21Z</time>
      </trkpt>
      <trkpt lat="46.56865" lon="5.35043">
        <ele>202.6</ele>
        <time>2021-08-26T12:46:22Z</time>
      </trkpt>
      <trkpt lat="46.56867" lon="5.35049">
        <ele>203.2</ele>
        <time>2021-08-26T12:46:23Z</time>
      </trkpt>
      <trkpt lat="46.5687" lon="5.35054">
        <ele>203.6</ele>
        <time>2021-08-26T12:46:24Z</time>
      </trkpt>
      <trkpt lat="46.56873" lon="5.3506">
        <ele>204</ele>
        <time>2021-08-26T12:46:25Z</time>
      </trkpt>
      <trkpt lat="46.56878" lon="5.3507">
        <ele>204.4</ele>
        <time>2021-08-26T12:46:27Z</time>
      </trkpt>
      <trkpt lat="46.5688" lon="5.35076">
        <ele>204.6</ele>
        <time>2021-08-26T12:46:28Z</time>
      </trkpt>
      <trkpt lat="46.56882" lon="5.35081">
        <ele>205</ele>
        <time>2021-08-26T12:46:29Z</time>
      </trkpt>
      <trkpt lat="46.56885" lon="5.35087">
        <ele>205.4</ele>
        <time>2021-08-26T12:46:30Z</time>
      </trkpt>
      <trkpt lat="46.56887" lon="5.35092">
        <ele>205.8</ele>
        <time>2021-08-26T12:46:31Z</time>
      </trkpt>
      <trkpt lat="46.56892" lon="5.35103">
        <ele>206.6</ele>
        <time>2021-08-26T12:46:33Z</time>
      </trkpt>
      <trkpt lat="46.56894" lon="5.35109">
        <ele>207</ele>
        <time>2021-08-26T12:46:34Z</time>
      </trkpt>
      <trkpt lat="46.56897" lon="5.35114">
        <ele>207.2</ele>
        <time>2021-08-26T12:46:35Z</time>
      </trkpt>
      <trkpt lat="46.56902" lon="5.35125">
        <ele>207.8</ele>
        <time>2021-08-26T12:46:37Z</time>
      </trkpt>
      <trkpt lat="46.56905" lon="5.3513">
        <ele>208</ele>
        <time>2021-08-26T12:46:38Z</time>
      </trkpt>
      <trkpt lat="46.56907" lon="5.35136">
        <ele>208.4</ele>
        <time>2021-08-26T12:46:39Z</time>
      </trkpt>
      <trkpt lat="46.56911" lon="5.35146">
        <ele>209</ele>
        <time>2021-08-26T12:46:41Z</time>
      </trkpt>
      <trkpt lat="46.56914" lon="5.35151">
        <ele>209.2</ele>
        <time>2021-08-26T12:46:42Z</time>
      </trkpt>
      <trkpt lat="46.56917" lon="5.35155">
        <ele>209.4</ele>
        <time>2021-08-26T12:46:43Z</time>
      </trkpt>
      <trkpt lat="46.5692" lon="5.3516">
        <ele>209.6</ele>
        <time>2021-08-26T12:46:44Z</time>
      </trkpt>
      <trkpt lat="46.56924" lon="5.35164">
        <ele>209.8</ele>
        <time>2021-08-26T12:46:45Z</time>
      </trkpt>
      <trkpt lat="46.56933" lon="5.35173">
        <ele>210.4</ele>
        <time>2021-08-26T12:46:47Z</time>
      </trkpt>
      <trkpt lat="46.56943" lon="5.3518">
        <ele>210.6</ele>
        <time>2021-08-26T12:46:49Z</time>
      </trkpt>
      <trkpt lat="46.56948" lon="5.35184">
        <ele>210.8</ele>
        <time>2021-08-26T12:46:50Z</time>
      </trkpt>
      <trkpt lat="46.56954" lon="5.35188">
        <ele>210.8</ele>
        <time>2021-08-26T12:46:51Z</time>
      </trkpt>
      <trkpt lat="46.5696" lon="5.35193">
        <ele>210.8</ele>
        <time>2021-08-26T12:46:52Z</time>
      </trkpt>
      <trkpt lat="46.56965" lon="5.352">
        <ele>210.8</ele>
        <time>2021-08-26T12:46:53Z</time>
      </trkpt>
      <trkpt lat="46.5697" lon="5.35208">
        <ele>210.8</ele>
        <time>2021-08-26T12:46:54Z</time>
      </trkpt>
      <trkpt lat="46.56973" lon="5.35218">
        <ele>210.8</ele>
        <time>2021-08-26T12:46:55Z</time>
      </trkpt>
      <trkpt lat="46.56978" lon="5.35241">
        <ele>210.8</ele>
        <time>2021-08-26T12:46:57Z</time>
      </trkpt>
      <trkpt lat="46.56983" lon="5.35265">
        <ele>210.6</ele>
        <time>2021-08-26T12:46:59Z</time>
      </trkpt>
      <trkpt lat="46.56989" lon="5.35289">
        <ele>209.4</ele>
        <time>2021-08-26T12:47:01Z</time>
      </trkpt>
      <trkpt lat="46.56992" lon="5.35301">
        <ele>208.8</ele>
        <time>2021-08-26T12:47:02Z</time>
      </trkpt>
      <trkpt lat="46.56996" lon="5.35313">
        <ele>208.2</ele>
        <time>2021-08-26T12:47:03Z</time>
      </trkpt>
      <trkpt lat="46.56999" lon="5.35324">
        <ele>207.4</ele>
        <time>2021-08-26T12:47:04Z</time>
      </trkpt>
      <trkpt lat="46.57003" lon="5.35335">
        <ele>207</ele>
        <time>2021-08-26T12:47:05Z</time>
      </trkpt>
      <trkpt lat="46.57007" lon="5.35346">
        <ele>206.2</ele>
        <time>2021-08-26T12:47:06Z</time>
      </trkpt>
      <trkpt lat="46.5701" lon="5.35357">
        <ele>205.4</ele>
        <time>2021-08-26T12:47:07Z</time>
      </trkpt>
      <trkpt lat="46.57014" lon="5.35368">
        <ele>205</ele>
        <time>2021-08-26T12:47:08Z</time>
      </trkpt>
      <trkpt lat="46.57018" lon="5.35378">
        <ele>204.6</ele>
        <time>2021-08-26T12:47:09Z</time>
      </trkpt>
      <trkpt lat="46.57025" lon="5.354">
        <ele>204.4</ele>
        <time>2021-08-26T12:47:11Z</time>
      </trkpt>
      <trkpt lat="46.57032" lon="5.35421">
        <ele>204.2</ele>
        <time>2021-08-26T12:47:13Z</time>
      </trkpt>
      <trkpt lat="46.57037" lon="5.35444">
        <ele>204.2</ele>
        <time>2021-08-26T12:47:15Z</time>
      </trkpt>
      <trkpt lat="46.57038" lon="5.35455">
        <ele>204.2</ele>
        <time>2021-08-26T12:47:16Z</time>
      </trkpt>
      <trkpt lat="46.5704" lon="5.35467">
        <ele>204</ele>
        <time>2021-08-26T12:47:17Z</time>
      </trkpt>
      <trkpt lat="46.57042" lon="5.35488">
        <ele>204.2</ele>
        <time>2021-08-26T12:47:19Z</time>
      </trkpt>
      <trkpt lat="46.57044" lon="5.35509">
        <ele>204.2</ele>
        <time>2021-08-26T12:47:21Z</time>
      </trkpt>
      <trkpt lat="46.57045" lon="5.35518">
        <ele>204.2</ele>
        <time>2021-08-26T12:47:22Z</time>
      </trkpt>
      <trkpt lat="46.57045" lon="5.35528">
        <ele>204.2</ele>
        <time>2021-08-26T12:47:23Z</time>
      </trkpt>
      <trkpt lat="46.57047" lon="5.35549">
        <ele>204.2</ele>
        <time>2021-08-26T12:47:25Z</time>
      </trkpt>
      <trkpt lat="46.57049" lon="5.35571">
        <ele>204.2</ele>
        <time>2021-08-26T12:47:27Z</time>
      </trkpt>
      <trkpt lat="46.57052" lon="5.35593">
        <ele>204.2</ele>
        <time>2021-08-26T12:47:29Z</time>
      </trkpt>
      <trkpt lat="46.57054" lon="5.35604">
        <ele>204.2</ele>
        <time>2021-08-26T12:47:30Z</time>
      </trkpt>
      <trkpt lat="46.57058" lon="5.35615">
        <ele>204</ele>
        <time>2021-08-26T12:47:31Z</time>
      </trkpt>
      <trkpt lat="46.57062" lon="5.35625">
        <ele>204</ele>
        <time>2021-08-26T12:47:32Z</time>
      </trkpt>
      <trkpt lat="46.57066" lon="5.35634">
        <ele>203.8</ele>
        <time>2021-08-26T12:47:33Z</time>
      </trkpt>
      <trkpt lat="46.57075" lon="5.35651">
        <ele>203.6</ele>
        <time>2021-08-26T12:47:35Z</time>
      </trkpt>
      <trkpt lat="46.57081" lon="5.35658">
        <ele>203.4</ele>
        <time>2021-08-26T12:47:36Z</time>
      </trkpt>
      <trkpt lat="46.57086" lon="5.35666">
        <ele>203.2</ele>
        <time>2021-08-26T12:47:37Z</time>
      </trkpt>
      <trkpt lat="46.57098" lon="5.35681">
        <ele>202.8</ele>
        <time>2021-08-26T12:47:39Z</time>
      </trkpt>
      <trkpt lat="46.57108" lon="5.35696">
        <ele>202.6</ele>
        <time>2021-08-26T12:47:41Z</time>
      </trkpt>
      <trkpt lat="46.57119" lon="5.3571">
        <ele>202.6</ele>
        <time>2021-08-26T12:47:43Z</time>
      </trkpt>
      <trkpt lat="46.57124" lon="5.35718">
        <ele>202.6</ele>
        <time>2021-08-26T12:47:44Z</time>
      </trkpt>
      <trkpt lat="46.5713" lon="5.35724">
        <ele>202.6</ele>
        <time>2021-08-26T12:47:45Z</time>
      </trkpt>
      <trkpt lat="46.57136" lon="5.35729">
        <ele>202.4</ele>
        <time>2021-08-26T12:47:46Z</time>
      </trkpt>
      <trkpt lat="46.57142" lon="5.35734">
        <ele>202.4</ele>
        <time>2021-08-26T12:47:47Z</time>
      </trkpt>
      <trkpt lat="46.57155" lon="5.35745">
        <ele>202.4</ele>
        <time>2021-08-26T12:47:49Z</time>
      </trkpt>
      <trkpt lat="46.57169" lon="5.35755">
        <ele>202.6</ele>
        <time>2021-08-26T12:47:51Z</time>
      </trkpt>
      <trkpt lat="46.57176" lon="5.35759">
        <ele>202.6</ele>
        <time>2021-08-26T12:47:52Z</time>
      </trkpt>
      <trkpt lat="46.57183" lon="5.35763">
        <ele>202.6</ele>
        <time>2021-08-26T12:47:53Z</time>
      </trkpt>
      <trkpt lat="46.57197" lon="5.35771">
        <ele>202.6</ele>
        <time>2021-08-26T12:47:55Z</time>
      </trkpt>
      <trkpt lat="46.57211" lon="5.35779">
        <ele>202.6</ele>
        <time>2021-08-26T12:47:57Z</time>
      </trkpt>
      <trkpt lat="46.57224" lon="5.35787">
        <ele>202.6</ele>
        <time>2021-08-26T12:47:59Z</time>
      </trkpt>
      <trkpt lat="46.57237" lon="5.35796">
        <ele>202.8</ele>
        <time>2021-08-26T12:48:01Z</time>
      </trkpt>
      <trkpt lat="46.5725" lon="5.35804">
        <ele>202.8</ele>
        <time>2021-08-26T12:48:03Z</time>
      </trkpt>
      <trkpt lat="46.57262" lon="5.35812">
        <ele>202.8</ele>
        <time>2021-08-26T12:48:05Z</time>
      </trkpt>
      <trkpt lat="46.57275" lon="5.3582">
        <ele>203</ele>
        <time>2021-08-26T12:48:07Z</time>
      </trkpt>
      <trkpt lat="46.57287" lon="5.35827">
        <ele>203</ele>
        <time>2021-08-26T12:48:09Z</time>
      </trkpt>
      <trkpt lat="46.57298" lon="5.35834">
        <ele>203.2</ele>
        <time>2021-08-26T12:48:11Z</time>
      </trkpt>
      <trkpt lat="46.57311" lon="5.35839">
        <ele>203.4</ele>
        <time>2021-08-26T12:48:13Z</time>
      </trkpt>
      <trkpt lat="46.57323" lon="5.35841">
        <ele>203.6</ele>
        <time>2021-08-26T12:48:15Z</time>
      </trkpt>
      <trkpt lat="46.57336" lon="5.35844">
        <ele>203.8</ele>
        <time>2021-08-26T12:48:17Z</time>
      </trkpt>
      <trkpt lat="46.57342" lon="5.35845">
        <ele>204</ele>
        <time>2021-08-26T12:48:18Z</time>
      </trkpt>
      <trkpt lat="46.57349" lon="5.35847">
        <ele>204</ele>
        <time>2021-08-26T12:48:19Z</time>
      </trkpt>
      <trkpt lat="46.5736" lon="5.3585">
        <ele>204</ele>
        <time>2021-08-26T12:48:21Z</time>
      </trkpt>
      <trkpt lat="46.5737" lon="5.35858">
        <ele>204.2</ele>
        <time>2021-08-26T12:48:23Z</time>
      </trkpt>
      <trkpt lat="46.57379" lon="5.35868">
        <ele>204.2</ele>
        <time>2021-08-26T12:48:25Z</time>
      </trkpt>
      <trkpt lat="46.57385" lon="5.35881">
        <ele>204.4</ele>
        <time>2021-08-26T12:48:27Z</time>
      </trkpt>
      <trkpt lat="46.57388" lon="5.35888">
        <ele>204.6</ele>
        <time>2021-08-26T12:48:28Z</time>
      </trkpt>
      <trkpt lat="46.57391" lon="5.35894">
        <ele>205</ele>
        <time>2021-08-26T12:48:29Z</time>
      </trkpt>
      <trkpt lat="46.57394" lon="5.35908">
        <ele>205.6</ele>
        <time>2021-08-26T12:48:31Z</time>
      </trkpt>
      <trkpt lat="46.57395" lon="5.35915">
        <ele>206.2</ele>
        <time>2021-08-26T12:48:32Z</time>
      </trkpt>
      <trkpt lat="46.57397" lon="5.35921">
        <ele>206.4</ele>
        <time>2021-08-26T12:48:33Z</time>
      </trkpt>
      <trkpt lat="46.57399" lon="5.35933">
        <ele>206.8</ele>
        <time>2021-08-26T12:48:35Z</time>
      </trkpt>
      <trkpt lat="46.574" lon="5.35946">
        <ele>207</ele>
        <time>2021-08-26T12:48:37Z</time>
      </trkpt>
      <trkpt lat="46.57401" lon="5.35951">
        <ele>207.4</ele>
        <time>2021-08-26T12:48:38Z</time>
      </trkpt>
      <trkpt lat="46.57402" lon="5.35957">
        <ele>207.6</ele>
        <time>2021-08-26T12:48:39Z</time>
      </trkpt>
      <trkpt lat="46.57403" lon="5.35968">
        <ele>208</ele>
        <time>2021-08-26T12:48:41Z</time>
      </trkpt>
      <trkpt lat="46.57404" lon="5.35974">
        <ele>208.4</ele>
        <time>2021-08-26T12:48:42Z</time>
      </trkpt>
      <trkpt lat="46.57405" lon="5.3598">
        <ele>209.2</ele>
        <time>2021-08-26T12:48:43Z</time>
      </trkpt>
      <trkpt lat="46.57406" lon="5.35992">
        <ele>209.8</ele>
        <time>2021-08-26T12:48:45Z</time>
      </trkpt>
      <trkpt lat="46.57407" lon="5.35998">
        <ele>210.2</ele>
        <time>2021-08-26T12:48:46Z</time>
      </trkpt>
      <trkpt lat="46.57408" lon="5.36005">
        <ele>210.6</ele>
        <time>2021-08-26T12:48:47Z</time>
      </trkpt>
      <trkpt lat="46.57408" lon="5.36019">
        <ele>211</ele>
        <time>2021-08-26T12:48:49Z</time>
      </trkpt>
      <trkpt lat="46.57408" lon="5.36033">
        <ele>211.2</ele>
        <time>2021-08-26T12:48:51Z</time>
      </trkpt>
      <trkpt lat="46.57408" lon="5.3604">
        <ele>211.4</ele>
        <time>2021-08-26T12:48:52Z</time>
      </trkpt>
      <trkpt lat="46.57408" lon="5.36048">
        <ele>211.6</ele>
        <time>2021-08-26T12:48:53Z</time>
      </trkpt>
      <trkpt lat="46.57406" lon="5.36064">
        <ele>211.6</ele>
        <time>2021-08-26T12:48:55Z</time>
      </trkpt>
      <trkpt lat="46.57403" lon="5.3608">
        <ele>211.8</ele>
        <time>2021-08-26T12:48:57Z</time>
      </trkpt>
      <trkpt lat="46.57402" lon="5.36088">
        <ele>211.8</ele>
        <time>2021-08-26T12:48:58Z</time>
      </trkpt>
      <trkpt lat="46.574" lon="5.36097">
        <ele>211.8</ele>
        <time>2021-08-26T12:48:59Z</time>
      </trkpt>
      <trkpt lat="46.57397" lon="5.36116">
        <ele>211.8</ele>
        <time>2021-08-26T12:49:01Z</time>
      </trkpt>
      <trkpt lat="46.57395" lon="5.36126">
        <ele>211.8</ele>
        <time>2021-08-26T12:49:02Z</time>
      </trkpt>
      <trkpt lat="46.57395" lon="5.36136">
        <ele>211.8</ele>
        <time>2021-08-26T12:49:03Z</time>
      </trkpt>
      <trkpt lat="46.57395" lon="5.36146">
        <ele>211.6</ele>
        <time>2021-08-26T12:49:04Z</time>
      </trkpt>
      <trkpt lat="46.57396" lon="5.36157">
        <ele>211.6</ele>
        <time>2021-08-26T12:49:05Z</time>
      </trkpt>
      <trkpt lat="46.57398" lon="5.36167">
        <ele>211.2</ele>
        <time>2021-08-26T12:49:06Z</time>
      </trkpt>
      <trkpt lat="46.57399" lon="5.36178">
        <ele>211</ele>
        <time>2021-08-26T12:49:07Z</time>
      </trkpt>
      <trkpt lat="46.57403" lon="5.362">
        <ele>210.4</ele>
        <time>2021-08-26T12:49:09Z</time>
      </trkpt>
      <trkpt lat="46.57404" lon="5.36211">
        <ele>210.2</ele>
        <time>2021-08-26T12:49:10Z</time>
      </trkpt>
      <trkpt lat="46.57406" lon="5.36223">
        <ele>210</ele>
        <time>2021-08-26T12:49:11Z</time>
      </trkpt>
      <trkpt lat="46.5741" lon="5.36246">
        <ele>209.4</ele>
        <time>2021-08-26T12:49:13Z</time>
      </trkpt>
      <trkpt lat="46.57413" lon="5.36269">
        <ele>208.8</ele>
        <time>2021-08-26T12:49:15Z</time>
      </trkpt>
      <trkpt lat="46.57417" lon="5.36294">
        <ele>207.6</ele>
        <time>2021-08-26T12:49:17Z</time>
      </trkpt>
      <trkpt lat="46.57421" lon="5.36318">
        <ele>206.8</ele>
        <time>2021-08-26T12:49:19Z</time>
      </trkpt>
      <trkpt lat="46.57423" lon="5.36331">
        <ele>206.4</ele>
        <time>2021-08-26T12:49:20Z</time>
      </trkpt>
      <trkpt lat="46.57425" lon="5.36343">
        <ele>206.2</ele>
        <time>2021-08-26T12:49:21Z</time>
      </trkpt>
      <trkpt lat="46.57429" lon="5.36369">
        <ele>205.6</ele>
        <time>2021-08-26T12:49:23Z</time>
      </trkpt>
      <trkpt lat="46.57431" lon="5.36382">
        <ele>205.4</ele>
        <time>2021-08-26T12:49:24Z</time>
      </trkpt>
      <trkpt lat="46.57434" lon="5.36395">
        <ele>205</ele>
        <time>2021-08-26T12:49:25Z</time>
      </trkpt>
      <trkpt lat="46.57438" lon="5.36407">
        <ele>204.8</ele>
        <time>2021-08-26T12:49:26Z</time>
      </trkpt>
      <trkpt lat="46.57442" lon="5.36419">
        <ele>204.4</ele>
        <time>2021-08-26T12:49:27Z</time>
      </trkpt>
      <trkpt lat="46.57447" lon="5.36431">
        <ele>204</ele>
        <time>2021-08-26T12:49:28Z</time>
      </trkpt>
      <trkpt lat="46.57452" lon="5.36442">
        <ele>203.4</ele>
        <time>2021-08-26T12:49:29Z</time>
      </trkpt>
      <trkpt lat="46.57457" lon="5.36453">
        <ele>203</ele>
        <time>2021-08-26T12:49:30Z</time>
      </trkpt>
      <trkpt lat="46.57463" lon="5.36463">
        <ele>202.8</ele>
        <time>2021-08-26T12:49:31Z</time>
      </trkpt>
      <trkpt lat="46.57475" lon="5.36482">
        <ele>202.2</ele>
        <time>2021-08-26T12:49:33Z</time>
      </trkpt>
      <trkpt lat="46.57481" lon="5.36491">
        <ele>201.8</ele>
        <time>2021-08-26T12:49:34Z</time>
      </trkpt>
      <trkpt lat="46.57486" lon="5.36501">
        <ele>201</ele>
        <time>2021-08-26T12:49:35Z</time>
      </trkpt>
      <trkpt lat="46.57491" lon="5.36511">
        <ele>200.4</ele>
        <time>2021-08-26T12:49:36Z</time>
      </trkpt>
      <trkpt lat="46.57496" lon="5.3652">
        <ele>200</ele>
        <time>2021-08-26T12:49:37Z</time>
      </trkpt>
      <trkpt lat="46.57501" lon="5.36529">
        <ele>200</ele>
        <time>2021-08-26T12:49:38Z</time>
      </trkpt>
      <trkpt lat="46.57506" lon="5.36538">
        <ele>199.6</ele>
        <time>2021-08-26T12:49:39Z</time>
      </trkpt>
      <trkpt lat="46.57517" lon="5.36555">
        <ele>199.6</ele>
        <time>2021-08-26T12:49:41Z</time>
      </trkpt>
      <trkpt lat="46.57526" lon="5.36574">
        <ele>199.4</ele>
        <time>2021-08-26T12:49:43Z</time>
      </trkpt>
      <trkpt lat="46.57534" lon="5.36593">
        <ele>199.6</ele>
        <time>2021-08-26T12:49:45Z</time>
      </trkpt>
      <trkpt lat="46.57537" lon="5.36603">
        <ele>199.4</ele>
        <time>2021-08-26T12:49:46Z</time>
      </trkpt>
      <trkpt lat="46.57538" lon="5.36614">
        <ele>199.4</ele>
        <time>2021-08-26T12:49:47Z</time>
      </trkpt>
      <trkpt lat="46.57539" lon="5.36625">
        <ele>199.4</ele>
        <time>2021-08-26T12:49:48Z</time>
      </trkpt>
      <trkpt lat="46.57537" lon="5.36634">
        <ele>199.4</ele>
        <time>2021-08-26T12:49:49Z</time>
      </trkpt>
      <trkpt lat="46.57529" lon="5.3665">
        <ele>199.8</ele>
        <time>2021-08-26T12:49:51Z</time>
      </trkpt>
      <trkpt lat="46.57521" lon="5.36664">
        <ele>200</ele>
        <time>2021-08-26T12:49:53Z</time>
      </trkpt>
      <trkpt lat="46.57516" lon="5.3668">
        <ele>200</ele>
        <time>2021-08-26T12:49:55Z</time>
      </trkpt>
      <trkpt lat="46.57515" lon="5.36696">
        <ele>200</ele>
        <time>2021-08-26T12:49:57Z</time>
      </trkpt>
      <trkpt lat="46.57516" lon="5.36713">
        <ele>200.4</ele>
        <time>2021-08-26T12:49:59Z</time>
      </trkpt>
      <trkpt lat="46.57518" lon="5.36728">
        <ele>200.8</ele>
        <time>2021-08-26T12:50:01Z</time>
      </trkpt>
      <trkpt lat="46.5752" lon="5.36744">
        <ele>201</ele>
        <time>2021-08-26T12:50:03Z</time>
      </trkpt>
      <trkpt lat="46.57522" lon="5.36759">
        <ele>201.2</ele>
        <time>2021-08-26T12:50:05Z</time>
      </trkpt>
      <trkpt lat="46.57522" lon="5.36767">
        <ele>202</ele>
        <time>2021-08-26T12:50:06Z</time>
      </trkpt>
      <trkpt lat="46.57522" lon="5.36774">
        <ele>203</ele>
        <time>2021-08-26T12:50:07Z</time>
      </trkpt>
      <trkpt lat="46.57522" lon="5.36782">
        <ele>203.2</ele>
        <time>2021-08-26T12:50:08Z</time>
      </trkpt>
      <trkpt lat="46.57522" lon="5.36789">
        <ele>203.6</ele>
        <time>2021-08-26T12:50:09Z</time>
      </trkpt>
      <trkpt lat="46.57521" lon="5.36796">
        <ele>204</ele>
        <time>2021-08-26T12:50:10Z</time>
      </trkpt>
      <trkpt lat="46.57521" lon="5.36803">
        <ele>204.6</ele>
        <time>2021-08-26T12:50:11Z</time>
      </trkpt>
      <trkpt lat="46.5752" lon="5.36817">
        <ele>204.8</ele>
        <time>2021-08-26T12:50:13Z</time>
      </trkpt>
      <trkpt lat="46.57518" lon="5.36829">
        <ele>205</ele>
        <time>2021-08-26T12:50:15Z</time>
      </trkpt>
      <trkpt lat="46.57517" lon="5.3684">
        <ele>205.4</ele>
        <time>2021-08-26T12:50:17Z</time>
      </trkpt>
      <trkpt lat="46.57516" lon="5.36853">
        <ele>205.8</ele>
        <time>2021-08-26T12:50:19Z</time>
      </trkpt>
      <trkpt lat="46.57517" lon="5.36866">
        <ele>206.4</ele>
        <time>2021-08-26T12:50:21Z</time>
      </trkpt>
      <trkpt lat="46.57519" lon="5.36878">
        <ele>207.2</ele>
        <time>2021-08-26T12:50:23Z</time>
      </trkpt>
      <trkpt lat="46.5752" lon="5.36885">
        <ele>207.6</ele>
        <time>2021-08-26T12:50:24Z</time>
      </trkpt>
      <trkpt lat="46.57522" lon="5.36891">
        <ele>207.8</ele>
        <time>2021-08-26T12:50:25Z</time>
      </trkpt>
      <trkpt lat="46.57526" lon="5.36904">
        <ele>208.4</ele>
        <time>2021-08-26T12:50:27Z</time>
      </trkpt>
      <trkpt lat="46.57527" lon="5.36911">
        <ele>208.6</ele>
        <time>2021-08-26T12:50:28Z</time>
      </trkpt>
      <trkpt lat="46.57528" lon="5.36919">
        <ele>208.8</ele>
        <time>2021-08-26T12:50:29Z</time>
      </trkpt>
      <trkpt lat="46.57528" lon="5.36927">
        <ele>209</ele>
        <time>2021-08-26T12:50:30Z</time>
      </trkpt>
      <trkpt lat="46.57527" lon="5.36936">
        <ele>209.2</ele>
        <time>2021-08-26T12:50:31Z</time>
      </trkpt>
      <trkpt lat="46.57523" lon="5.36954">
        <ele>209.2</ele>
        <time>2021-08-26T12:50:33Z</time>
      </trkpt>
      <trkpt lat="46.57521" lon="5.36963">
        <ele>209.2</ele>
        <time>2021-08-26T12:50:34Z</time>
      </trkpt>
      <trkpt lat="46.57519" lon="5.36972">
        <ele>209.2</ele>
        <time>2021-08-26T12:50:35Z</time>
      </trkpt>
      <trkpt lat="46.57514" lon="5.3699">
        <ele>209.2</ele>
        <time>2021-08-26T12:50:37Z</time>
      </trkpt>
      <trkpt lat="46.57509" lon="5.37008">
        <ele>209.2</ele>
        <time>2021-08-26T12:50:39Z</time>
      </trkpt>
      <trkpt lat="46.57504" lon="5.37025">
        <ele>209.2</ele>
        <time>2021-08-26T12:50:41Z</time>
      </trkpt>
      <trkpt lat="46.57499" lon="5.37041">
        <ele>209.2</ele>
        <time>2021-08-26T12:50:43Z</time>
      </trkpt>
      <trkpt lat="46.57494" lon="5.37056">
        <ele>209.2</ele>
        <time>2021-08-26T12:50:45Z</time>
      </trkpt>
      <trkpt lat="46.5749" lon="5.37071">
        <ele>209.2</ele>
        <time>2021-08-26T12:50:47Z</time>
      </trkpt>
      <trkpt lat="46.57486" lon="5.37085">
        <ele>209.6</ele>
        <time>2021-08-26T12:50:49Z</time>
      </trkpt>
      <trkpt lat="46.57484" lon="5.37092">
        <ele>210</ele>
        <time>2021-08-26T12:50:50Z</time>
      </trkpt>
      <trkpt lat="46.57482" lon="5.371">
        <ele>210</ele>
        <time>2021-08-26T12:50:51Z</time>
      </trkpt>
      <trkpt lat="46.57481" lon="5.37108">
        <ele>210.4</ele>
        <time>2021-08-26T12:50:52Z</time>
      </trkpt>
      <trkpt lat="46.57479" lon="5.37116">
        <ele>211</ele>
        <time>2021-08-26T12:50:53Z</time>
      </trkpt>
      <trkpt lat="46.57478" lon="5.37125">
        <ele>211.4</ele>
        <time>2021-08-26T12:50:54Z</time>
      </trkpt>
      <trkpt lat="46.57476" lon="5.37134">
        <ele>211.8</ele>
        <time>2021-08-26T12:50:55Z</time>
      </trkpt>
      <trkpt lat="46.57474" lon="5.37153">
        <ele>212.4</ele>
        <time>2021-08-26T12:50:57Z</time>
      </trkpt>
      <trkpt lat="46.57472" lon="5.37163">
        <ele>212.4</ele>
        <time>2021-08-26T12:50:58Z</time>
      </trkpt>
      <trkpt lat="46.57472" lon="5.37172">
        <ele>212.4</ele>
        <time>2021-08-26T12:50:59Z</time>
      </trkpt>
      <trkpt lat="46.5747" lon="5.37192">
        <ele>212.4</ele>
        <time>2021-08-26T12:51:01Z</time>
      </trkpt>
      <trkpt lat="46.5747" lon="5.3721">
        <ele>212.6</ele>
        <time>2021-08-26T12:51:03Z</time>
      </trkpt>
      <trkpt lat="46.57469" lon="5.37228">
        <ele>212.8</ele>
        <time>2021-08-26T12:51:05Z</time>
      </trkpt>
      <trkpt lat="46.57469" lon="5.37247">
        <ele>212.8</ele>
        <time>2021-08-26T12:51:07Z</time>
      </trkpt>
      <trkpt lat="46.5747" lon="5.37264">
        <ele>212.8</ele>
        <time>2021-08-26T12:51:09Z</time>
      </trkpt>
      <trkpt lat="46.57471" lon="5.37281">
        <ele>212.8</ele>
        <time>2021-08-26T12:51:11Z</time>
      </trkpt>
      <trkpt lat="46.57472" lon="5.37297">
        <ele>212.8</ele>
        <time>2021-08-26T12:51:13Z</time>
      </trkpt>
      <trkpt lat="46.57472" lon="5.37305">
        <ele>213</ele>
        <time>2021-08-26T12:51:14Z</time>
      </trkpt>
      <trkpt lat="46.57472" lon="5.37312">
        <ele>213</ele>
        <time>2021-08-26T12:51:15Z</time>
      </trkpt>
      <trkpt lat="46.57473" lon="5.37327">
        <ele>213.4</ele>
        <time>2021-08-26T12:51:17Z</time>
      </trkpt>
      <trkpt lat="46.57473" lon="5.37342">
        <ele>213.6</ele>
        <time>2021-08-26T12:51:19Z</time>
      </trkpt>
      <trkpt lat="46.57469" lon="5.37356">
        <ele>214.2</ele>
        <time>2021-08-26T12:51:21Z</time>
      </trkpt>
      <trkpt lat="46.57463" lon="5.37368">
        <ele>214.6</ele>
        <time>2021-08-26T12:51:23Z</time>
      </trkpt>
      <trkpt lat="46.57459" lon="5.37373">
        <ele>214.8</ele>
        <time>2021-08-26T12:51:24Z</time>
      </trkpt>
      <trkpt lat="46.57455" lon="5.37379">
        <ele>215.2</ele>
        <time>2021-08-26T12:51:25Z</time>
      </trkpt>
      <trkpt lat="46.57448" lon="5.37391">
        <ele>215.6</ele>
        <time>2021-08-26T12:51:27Z</time>
      </trkpt>
      <trkpt lat="46.57444" lon="5.37406">
        <ele>216</ele>
        <time>2021-08-26T12:51:29Z</time>
      </trkpt>
      <trkpt lat="46.57442" lon="5.37414">
        <ele>216.2</ele>
        <time>2021-08-26T12:51:30Z</time>
      </trkpt>
      <trkpt lat="46.57441" lon="5.37422">
        <ele>216.4</ele>
        <time>2021-08-26T12:51:31Z</time>
      </trkpt>
      <trkpt lat="46.57437" lon="5.37439">
        <ele>216.4</ele>
        <time>2021-08-26T12:51:33Z</time>
      </trkpt>
      <trkpt lat="46.57433" lon="5.37457">
        <ele>216.4</ele>
        <time>2021-08-26T12:51:35Z</time>
      </trkpt>
      <trkpt lat="46.57428" lon="5.37474">
        <ele>216.4</ele>
        <time>2021-08-26T12:51:37Z</time>
      </trkpt>
      <trkpt lat="46.57421" lon="5.3749">
        <ele>216.6</ele>
        <time>2021-08-26T12:51:39Z</time>
      </trkpt>
      <trkpt lat="46.57414" lon="5.37504">
        <ele>216.6</ele>
        <time>2021-08-26T12:51:41Z</time>
      </trkpt>
      <trkpt lat="46.57408" lon="5.37518">
        <ele>216.8</ele>
        <time>2021-08-26T12:51:43Z</time>
      </trkpt>
      <trkpt lat="46.57405" lon="5.37525">
        <ele>216.8</ele>
        <time>2021-08-26T12:51:44Z</time>
      </trkpt>
      <trkpt lat="46.57401" lon="5.37531">
        <ele>216.8</ele>
        <time>2021-08-26T12:51:45Z</time>
      </trkpt>
      <trkpt lat="46.57394" lon="5.37544">
        <ele>217</ele>
        <time>2021-08-26T12:51:47Z</time>
      </trkpt>
      <trkpt lat="46.57387" lon="5.37556">
        <ele>217</ele>
        <time>2021-08-26T12:51:49Z</time>
      </trkpt>
      <trkpt lat="46.57384" lon="5.37562">
        <ele>217</ele>
        <time>2021-08-26T12:51:50Z</time>
      </trkpt>
      <trkpt lat="46.5738" lon="5.37568">
        <ele>217.2</ele>
        <time>2021-08-26T12:51:51Z</time>
      </trkpt>
      <trkpt lat="46.57372" lon="5.37579">
        <ele>217.6</ele>
        <time>2021-08-26T12:51:53Z</time>
      </trkpt>
      <trkpt lat="46.57364" lon="5.3759">
        <ele>218</ele>
        <time>2021-08-26T12:51:55Z</time>
      </trkpt>
      <trkpt lat="46.5736" lon="5.37595">
        <ele>218</ele>
        <time>2021-08-26T12:51:56Z</time>
      </trkpt>
      <trkpt lat="46.57356" lon="5.37601">
        <ele>218.2</ele>
        <time>2021-08-26T12:51:57Z</time>
      </trkpt>
      <trkpt lat="46.57347" lon="5.3761">
        <ele>218.4</ele>
        <time>2021-08-26T12:51:59Z</time>
      </trkpt>
      <trkpt lat="46.57342" lon="5.37616">
        <ele>218.6</ele>
        <time>2021-08-26T12:52:00Z</time>
      </trkpt>
      <trkpt lat="46.57337" lon="5.37621">
        <ele>218.6</ele>
        <time>2021-08-26T12:52:01Z</time>
      </trkpt>
      <trkpt lat="46.57326" lon="5.37632">
        <ele>218.6</ele>
        <time>2021-08-26T12:52:03Z</time>
      </trkpt>
      <trkpt lat="46.57315" lon="5.37643">
        <ele>218.6</ele>
        <time>2021-08-26T12:52:05Z</time>
      </trkpt>
      <trkpt lat="46.57304" lon="5.37656">
        <ele>218.6</ele>
        <time>2021-08-26T12:52:07Z</time>
      </trkpt>
      <trkpt lat="46.57298" lon="5.37662">
        <ele>218.6</ele>
        <time>2021-08-26T12:52:08Z</time>
      </trkpt>
      <trkpt lat="46.57292" lon="5.37669">
        <ele>218.4</ele>
        <time>2021-08-26T12:52:09Z</time>
      </trkpt>
      <trkpt lat="46.5728" lon="5.37682">
        <ele>218.2</ele>
        <time>2021-08-26T12:52:11Z</time>
      </trkpt>
      <trkpt lat="46.57267" lon="5.37695">
        <ele>217.8</ele>
        <time>2021-08-26T12:52:13Z</time>
      </trkpt>
      <trkpt lat="46.57255" lon="5.37708">
        <ele>217.6</ele>
        <time>2021-08-26T12:52:15Z</time>
      </trkpt>
      <trkpt lat="46.57244" lon="5.37722">
        <ele>217.4</ele>
        <time>2021-08-26T12:52:17Z</time>
      </trkpt>
      <trkpt lat="46.57238" lon="5.37728">
        <ele>217</ele>
        <time>2021-08-26T12:52:18Z</time>
      </trkpt>
      <trkpt lat="46.57233" lon="5.37735">
        <ele>216.6</ele>
        <time>2021-08-26T12:52:19Z</time>
      </trkpt>
      <trkpt lat="46.5723" lon="5.37744">
        <ele>216.4</ele>
        <time>2021-08-26T12:52:20Z</time>
      </trkpt>
      <trkpt lat="46.57229" lon="5.37754">
        <ele>216.2</ele>
        <time>2021-08-26T12:52:21Z</time>
      </trkpt>
      <trkpt lat="46.57231" lon="5.37764">
        <ele>216</ele>
        <time>2021-08-26T12:52:22Z</time>
      </trkpt>
      <trkpt lat="46.57234" lon="5.37774">
        <ele>215.8</ele>
        <time>2021-08-26T12:52:23Z</time>
      </trkpt>
      <trkpt lat="46.57242" lon="5.37793">
        <ele>215.6</ele>
        <time>2021-08-26T12:52:25Z</time>
      </trkpt>
      <trkpt lat="46.57246" lon="5.37802">
        <ele>215.2</ele>
        <time>2021-08-26T12:52:26Z</time>
      </trkpt>
      <trkpt lat="46.57251" lon="5.37811">
        <ele>215.2</ele>
        <time>2021-08-26T12:52:27Z</time>
      </trkpt>
      <trkpt lat="46.57255" lon="5.37821">
        <ele>214.8</ele>
        <time>2021-08-26T12:52:28Z</time>
      </trkpt>
      <trkpt lat="46.5726" lon="5.37831">
        <ele>214.4</ele>
        <time>2021-08-26T12:52:29Z</time>
      </trkpt>
      <trkpt lat="46.57266" lon="5.37841">
        <ele>213.6</ele>
        <time>2021-08-26T12:52:30Z</time>
      </trkpt>
      <trkpt lat="46.57271" lon="5.37851">
        <ele>213.2</ele>
        <time>2021-08-26T12:52:31Z</time>
      </trkpt>
      <trkpt lat="46.57276" lon="5.37862">
        <ele>212.8</ele>
        <time>2021-08-26T12:52:32Z</time>
      </trkpt>
      <trkpt lat="46.57281" lon="5.37873">
        <ele>212.6</ele>
        <time>2021-08-26T12:52:33Z</time>
      </trkpt>
      <trkpt lat="46.57292" lon="5.37896">
        <ele>212.4</ele>
        <time>2021-08-26T12:52:35Z</time>
      </trkpt>
      <trkpt lat="46.57304" lon="5.37918">
        <ele>212</ele>
        <time>2021-08-26T12:52:37Z</time>
      </trkpt>
      <trkpt lat="46.57315" lon="5.37941">
        <ele>211.6</ele>
        <time>2021-08-26T12:52:39Z</time>
      </trkpt>
      <trkpt lat="46.57321" lon="5.37952">
        <ele>211</ele>
        <time>2021-08-26T12:52:40Z</time>
      </trkpt>
      <trkpt lat="46.57327" lon="5.37963">
        <ele>210.6</ele>
        <time>2021-08-26T12:52:41Z</time>
      </trkpt>
      <trkpt lat="46.57333" lon="5.37974">
        <ele>210</ele>
        <time>2021-08-26T12:52:42Z</time>
      </trkpt>
      <trkpt lat="46.57339" lon="5.37986">
        <ele>209.4</ele>
        <time>2021-08-26T12:52:43Z</time>
      </trkpt>
      <trkpt lat="46.57344" lon="5.37997">
        <ele>208.6</ele>
        <time>2021-08-26T12:52:44Z</time>
      </trkpt>
      <trkpt lat="46.5735" lon="5.38009">
        <ele>208</ele>
        <time>2021-08-26T12:52:45Z</time>
      </trkpt>
      <trkpt lat="46.57361" lon="5.38032">
        <ele>207</ele>
        <time>2021-08-26T12:52:47Z</time>
      </trkpt>
      <trkpt lat="46.57367" lon="5.38044">
        <ele>206.8</ele>
        <time>2021-08-26T12:52:48Z</time>
      </trkpt>
      <trkpt lat="46.57373" lon="5.38056">
        <ele>206.4</ele>
        <time>2021-08-26T12:52:49Z</time>
      </trkpt>
      <trkpt lat="46.57386" lon="5.38079">
        <ele>205.8</ele>
        <time>2021-08-26T12:52:51Z</time>
      </trkpt>
      <trkpt lat="46.57394" lon="5.38089">
        <ele>205.4</ele>
        <time>2021-08-26T12:52:52Z</time>
      </trkpt>
      <trkpt lat="46.57403" lon="5.38098">
        <ele>205</ele>
        <time>2021-08-26T12:52:53Z</time>
      </trkpt>
      <trkpt lat="46.57412" lon="5.38105">
        <ele>204.2</ele>
        <time>2021-08-26T12:52:54Z</time>
      </trkpt>
      <trkpt lat="46.57421" lon="5.38112">
        <ele>203.8</ele>
        <time>2021-08-26T12:52:55Z</time>
      </trkpt>
      <trkpt lat="46.57429" lon="5.38118">
        <ele>203.4</ele>
        <time>2021-08-26T12:52:56Z</time>
      </trkpt>
      <trkpt lat="46.57438" lon="5.38125">
        <ele>203</ele>
        <time>2021-08-26T12:52:57Z</time>
      </trkpt>
      <trkpt lat="46.57454" lon="5.38137">
        <ele>201.6</ele>
        <time>2021-08-26T12:52:59Z</time>
      </trkpt>
      <trkpt lat="46.5747" lon="5.3815">
        <ele>201</ele>
        <time>2021-08-26T12:53:01Z</time>
      </trkpt>
      <trkpt lat="46.57485" lon="5.38162">
        <ele>200.8</ele>
        <time>2021-08-26T12:53:03Z</time>
      </trkpt>
      <trkpt lat="46.575" lon="5.38174">
        <ele>200.8</ele>
        <time>2021-08-26T12:53:05Z</time>
      </trkpt>
      <trkpt lat="46.57515" lon="5.38185">
        <ele>200.8</ele>
        <time>2021-08-26T12:53:07Z</time>
      </trkpt>
      <trkpt lat="46.5753" lon="5.38196">
        <ele>200.8</ele>
        <time>2021-08-26T12:53:09Z</time>
      </trkpt>
      <trkpt lat="46.57544" lon="5.38207">
        <ele>200.8</ele>
        <time>2021-08-26T12:53:11Z</time>
      </trkpt>
      <trkpt lat="46.57551" lon="5.38213">
        <ele>200.8</ele>
        <time>2021-08-26T12:53:12Z</time>
      </trkpt>
      <trkpt lat="46.57558" lon="5.38218">
        <ele>201</ele>
        <time>2021-08-26T12:53:13Z</time>
      </trkpt>
      <trkpt lat="46.57571" lon="5.3823">
        <ele>201</ele>
        <time>2021-08-26T12:53:15Z</time>
      </trkpt>
      <trkpt lat="46.57583" lon="5.38243">
        <ele>201</ele>
        <time>2021-08-26T12:53:17Z</time>
      </trkpt>
      <trkpt lat="46.57589" lon="5.3825">
        <ele>201</ele>
        <time>2021-08-26T12:53:18Z</time>
      </trkpt>
      <trkpt lat="46.57594" lon="5.38257">
        <ele>201</ele>
        <time>2021-08-26T12:53:19Z</time>
      </trkpt>
      <trkpt lat="46.57603" lon="5.38272">
        <ele>201.2</ele>
        <time>2021-08-26T12:53:21Z</time>
      </trkpt>
      <trkpt lat="46.57611" lon="5.38286">
        <ele>201.6</ele>
        <time>2021-08-26T12:53:23Z</time>
      </trkpt>
      <trkpt lat="46.57618" lon="5.38301">
        <ele>201.8</ele>
        <time>2021-08-26T12:53:25Z</time>
      </trkpt>
      <trkpt lat="46.57623" lon="5.38316">
        <ele>202.2</ele>
        <time>2021-08-26T12:53:27Z</time>
      </trkpt>
      <trkpt lat="46.57627" lon="5.38322">
        <ele>202.8</ele>
        <time>2021-08-26T12:53:28Z</time>
      </trkpt>
      <trkpt lat="46.57631" lon="5.38326">
        <ele>203.2</ele>
        <time>2021-08-26T12:53:29Z</time>
      </trkpt>
      <trkpt lat="46.57641" lon="5.38328">
        <ele>203.8</ele>
        <time>2021-08-26T12:53:31Z</time>
      </trkpt>
      <trkpt lat="46.57651" lon="5.38324">
        <ele>204.4</ele>
        <time>2021-08-26T12:53:33Z</time>
      </trkpt>
      <trkpt lat="46.57656" lon="5.38321">
        <ele>205</ele>
        <time>2021-08-26T12:53:34Z</time>
      </trkpt>
      <trkpt lat="46.57662" lon="5.38319">
        <ele>205.6</ele>
        <time>2021-08-26T12:53:35Z</time>
      </trkpt>
      <trkpt lat="46.57672" lon="5.38316">
        <ele>206.2</ele>
        <time>2021-08-26T12:53:37Z</time>
      </trkpt>
      <trkpt lat="46.57684" lon="5.38315">
        <ele>206.6</ele>
        <time>2021-08-26T12:53:39Z</time>
      </trkpt>
      <trkpt lat="46.57694" lon="5.38313">
        <ele>206.8</ele>
        <time>2021-08-26T12:53:41Z</time>
      </trkpt>
      <trkpt lat="46.57706" lon="5.38309">
        <ele>207</ele>
        <time>2021-08-26T12:53:43Z</time>
      </trkpt>
      <trkpt lat="46.57717" lon="5.38306">
        <ele>207.2</ele>
        <time>2021-08-26T12:53:45Z</time>
      </trkpt>
      <trkpt lat="46.57728" lon="5.38303">
        <ele>207.4</ele>
        <time>2021-08-26T12:53:47Z</time>
      </trkpt>
      <trkpt lat="46.5774" lon="5.38298">
        <ele>207.4</ele>
        <time>2021-08-26T12:53:49Z</time>
      </trkpt>
      <trkpt lat="46.57751" lon="5.38292">
        <ele>207.4</ele>
        <time>2021-08-26T12:53:51Z</time>
      </trkpt>
      <trkpt lat="46.57762" lon="5.38283">
        <ele>207.4</ele>
        <time>2021-08-26T12:53:53Z</time>
      </trkpt>
      <trkpt lat="46.57768" lon="5.38278">
        <ele>207.4</ele>
        <time>2021-08-26T12:53:54Z</time>
      </trkpt>
      <trkpt lat="46.57774" lon="5.38273">
        <ele>207.4</ele>
        <time>2021-08-26T12:53:55Z</time>
      </trkpt>
      <trkpt lat="46.57785" lon="5.38262">
        <ele>207.4</ele>
        <time>2021-08-26T12:53:57Z</time>
      </trkpt>
      <trkpt lat="46.57797" lon="5.3825">
        <ele>207</ele>
        <time>2021-08-26T12:53:59Z</time>
      </trkpt>
      <trkpt lat="46.57808" lon="5.38238">
        <ele>206.8</ele>
        <time>2021-08-26T12:54:01Z</time>
      </trkpt>
      <trkpt lat="46.57814" lon="5.38232">
        <ele>206.6</ele>
        <time>2021-08-26T12:54:02Z</time>
      </trkpt>
      <trkpt lat="46.57821" lon="5.38227">
        <ele>206.6</ele>
        <time>2021-08-26T12:54:03Z</time>
      </trkpt>
      <trkpt lat="46.57833" lon="5.38216">
        <ele>206.4</ele>
        <time>2021-08-26T12:54:05Z</time>
      </trkpt>
      <trkpt lat="46.57839" lon="5.3821">
        <ele>206</ele>
        <time>2021-08-26T12:54:06Z</time>
      </trkpt>
      <trkpt lat="46.57845" lon="5.38204">
        <ele>205.8</ele>
        <time>2021-08-26T12:54:07Z</time>
      </trkpt>
      <trkpt lat="46.5785" lon="5.38198">
        <ele>205.6</ele>
        <time>2021-08-26T12:54:08Z</time>
      </trkpt>
      <trkpt lat="46.57855" lon="5.3819">
        <ele>205.4</ele>
        <time>2021-08-26T12:54:09Z</time>
      </trkpt>
      <trkpt lat="46.57863" lon="5.38173">
        <ele>205.4</ele>
        <time>2021-08-26T12:54:11Z</time>
      </trkpt>
      <trkpt lat="46.5787" lon="5.38156">
        <ele>205.2</ele>
        <time>2021-08-26T12:54:13Z</time>
      </trkpt>
      <trkpt lat="46.57877" lon="5.38138">
        <ele>205.2</ele>
        <time>2021-08-26T12:54:15Z</time>
      </trkpt>
      <trkpt lat="46.57883" lon="5.3812">
        <ele>205.2</ele>
        <time>2021-08-26T12:54:17Z</time>
      </trkpt>
      <trkpt lat="46.57889" lon="5.38102">
        <ele>205.2</ele>
        <time>2021-08-26T12:54:19Z</time>
      </trkpt>
      <trkpt lat="46.57895" lon="5.38084">
        <ele>205.2</ele>
        <time>2021-08-26T12:54:21Z</time>
      </trkpt>
      <trkpt lat="46.579" lon="5.38065">
        <ele>205.4</ele>
        <time>2021-08-26T12:54:23Z</time>
      </trkpt>
      <trkpt lat="46.57906" lon="5.38048">
        <ele>205.4</ele>
        <time>2021-08-26T12:54:25Z</time>
      </trkpt>
      <trkpt lat="46.57914" lon="5.3803">
        <ele>205.4</ele>
        <time>2021-08-26T12:54:27Z</time>
      </trkpt>
      <trkpt lat="46.57918" lon="5.38022">
        <ele>205.4</ele>
        <time>2021-08-26T12:54:28Z</time>
      </trkpt>
      <trkpt lat="46.57923" lon="5.38014">
        <ele>205.4</ele>
        <time>2021-08-26T12:54:29Z</time>
      </trkpt>
      <trkpt lat="46.57936" lon="5.38002">
        <ele>205.4</ele>
        <time>2021-08-26T12:54:31Z</time>
      </trkpt>
      <trkpt lat="46.57942" lon="5.37996">
        <ele>205.4</ele>
        <time>2021-08-26T12:54:32Z</time>
      </trkpt>
      <trkpt lat="46.57949" lon="5.37991">
        <ele>205.2</ele>
        <time>2021-08-26T12:54:33Z</time>
      </trkpt>
      <trkpt lat="46.57957" lon="5.37987">
        <ele>205.2</ele>
        <time>2021-08-26T12:54:34Z</time>
      </trkpt>
      <trkpt lat="46.57965" lon="5.37982">
        <ele>205</ele>
        <time>2021-08-26T12:54:35Z</time>
      </trkpt>
      <trkpt lat="46.57973" lon="5.37978">
        <ele>204.8</ele>
        <time>2021-08-26T12:54:36Z</time>
      </trkpt>
      <trkpt lat="46.5798" lon="5.37972">
        <ele>204.4</ele>
        <time>2021-08-26T12:54:37Z</time>
      </trkpt>
      <trkpt lat="46.57995" lon="5.3796">
        <ele>203.8</ele>
        <time>2021-08-26T12:54:39Z</time>
      </trkpt>
      <trkpt lat="46.58002" lon="5.37954">
        <ele>203.4</ele>
        <time>2021-08-26T12:54:40Z</time>
      </trkpt>
      <trkpt lat="46.5801" lon="5.3795">
        <ele>203.2</ele>
        <time>2021-08-26T12:54:41Z</time>
      </trkpt>
      <trkpt lat="46.58017" lon="5.37946">
        <ele>202.8</ele>
        <time>2021-08-26T12:54:42Z</time>
      </trkpt>
      <trkpt lat="46.58025" lon="5.37942">
        <ele>202.2</ele>
        <time>2021-08-26T12:54:43Z</time>
      </trkpt>
      <trkpt lat="46.5804" lon="5.37937">
        <ele>201.4</ele>
        <time>2021-08-26T12:54:45Z</time>
      </trkpt>
      <trkpt lat="46.58047" lon="5.37935">
        <ele>201.2</ele>
        <time>2021-08-26T12:54:46Z</time>
      </trkpt>
      <trkpt lat="46.58055" lon="5.37932">
        <ele>201</ele>
        <time>2021-08-26T12:54:47Z</time>
      </trkpt>
      <trkpt lat="46.58063" lon="5.3793">
        <ele>201</ele>
        <time>2021-08-26T12:54:48Z</time>
      </trkpt>
      <trkpt lat="46.5807" lon="5.37928">
        <ele>200.8</ele>
        <time>2021-08-26T12:54:49Z</time>
      </trkpt>
      <trkpt lat="46.58086" lon="5.37923">
        <ele>200.8</ele>
        <time>2021-08-26T12:54:51Z</time>
      </trkpt>
      <trkpt lat="46.581" lon="5.37918">
        <ele>200.6</ele>
        <time>2021-08-26T12:54:53Z</time>
      </trkpt>
      <trkpt lat="46.58114" lon="5.37914">
        <ele>200.6</ele>
        <time>2021-08-26T12:54:55Z</time>
      </trkpt>
      <trkpt lat="46.58121" lon="5.37911">
        <ele>200.6</ele>
        <time>2021-08-26T12:54:56Z</time>
      </trkpt>
      <trkpt lat="46.58127" lon="5.37908">
        <ele>200.6</ele>
        <time>2021-08-26T12:54:57Z</time>
      </trkpt>
      <trkpt lat="46.58133" lon="5.37903">
        <ele>200.6</ele>
        <time>2021-08-26T12:54:58Z</time>
      </trkpt>
      <trkpt lat="46.58138" lon="5.37898">
        <ele>200.6</ele>
        <time>2021-08-26T12:54:59Z</time>
      </trkpt>
      <trkpt lat="46.5815" lon="5.37888">
        <ele>200.6</ele>
        <time>2021-08-26T12:55:01Z</time>
      </trkpt>
      <trkpt lat="46.58156" lon="5.37884">
        <ele>200.8</ele>
        <time>2021-08-26T12:55:02Z</time>
      </trkpt>
      <trkpt lat="46.58163" lon="5.37882">
        <ele>201</ele>
        <time>2021-08-26T12:55:03Z</time>
      </trkpt>
      <trkpt lat="46.58176" lon="5.37881">
        <ele>201.2</ele>
        <time>2021-08-26T12:55:05Z</time>
      </trkpt>
      <trkpt lat="46.58189" lon="5.37884">
        <ele>201.4</ele>
        <time>2021-08-26T12:55:07Z</time>
      </trkpt>
      <trkpt lat="46.58201" lon="5.3789">
        <ele>201.6</ele>
        <time>2021-08-26T12:55:09Z</time>
      </trkpt>
      <trkpt lat="46.58206" lon="5.37894">
        <ele>201.6</ele>
        <time>2021-08-26T12:55:10Z</time>
      </trkpt>
      <trkpt lat="46.58212" lon="5.37898">
        <ele>201.8</ele>
        <time>2021-08-26T12:55:11Z</time>
      </trkpt>
      <trkpt lat="46.58222" lon="5.37905">
        <ele>201.8</ele>
        <time>2021-08-26T12:55:13Z</time>
      </trkpt>
      <trkpt lat="46.58228" lon="5.37908">
        <ele>202.2</ele>
        <time>2021-08-26T12:55:14Z</time>
      </trkpt>
      <trkpt lat="46.58233" lon="5.37911">
        <ele>202.4</ele>
        <time>2021-08-26T12:55:15Z</time>
      </trkpt>
      <trkpt lat="46.58243" lon="5.37918">
        <ele>203</ele>
        <time>2021-08-26T12:55:17Z</time>
      </trkpt>
      <trkpt lat="46.58248" lon="5.37921">
        <ele>203.2</ele>
        <time>2021-08-26T12:55:18Z</time>
      </trkpt>
      <trkpt lat="46.58253" lon="5.37924">
        <ele>203.4</ele>
        <time>2021-08-26T12:55:19Z</time>
      </trkpt>
      <trkpt lat="46.58263" lon="5.37931">
        <ele>203.8</ele>
        <time>2021-08-26T12:55:21Z</time>
      </trkpt>
      <trkpt lat="46.58273" lon="5.37938">
        <ele>204.4</ele>
        <time>2021-08-26T12:55:23Z</time>
      </trkpt>
      <trkpt lat="46.58283" lon="5.37943">
        <ele>204.8</ele>
        <time>2021-08-26T12:55:25Z</time>
      </trkpt>
      <trkpt lat="46.58293" lon="5.3795">
        <ele>205</ele>
        <time>2021-08-26T12:55:27Z</time>
      </trkpt>
      <trkpt lat="46.58303" lon="5.37956">
        <ele>205</ele>
        <time>2021-08-26T12:55:29Z</time>
      </trkpt>
      <trkpt lat="46.58313" lon="5.37962">
        <ele>205.4</ele>
        <time>2021-08-26T12:55:31Z</time>
      </trkpt>
      <trkpt lat="46.58317" lon="5.37964">
        <ele>205.6</ele>
        <time>2021-08-26T12:55:32Z</time>
      </trkpt>
      <trkpt lat="46.58322" lon="5.37967">
        <ele>205.6</ele>
        <time>2021-08-26T12:55:33Z</time>
      </trkpt>
      <trkpt lat="46.58333" lon="5.37972">
        <ele>206</ele>
        <time>2021-08-26T12:55:35Z</time>
      </trkpt>
      <trkpt lat="46.58343" lon="5.37977">
        <ele>206</ele>
        <time>2021-08-26T12:55:37Z</time>
      </trkpt>
      <trkpt lat="46.58353" lon="5.37982">
        <ele>206.2</ele>
        <time>2021-08-26T12:55:39Z</time>
      </trkpt>
      <trkpt lat="46.58363" lon="5.37986">
        <ele>206.8</ele>
        <time>2021-08-26T12:55:41Z</time>
      </trkpt>
      <trkpt lat="46.58368" lon="5.37988">
        <ele>207</ele>
        <time>2021-08-26T12:55:42Z</time>
      </trkpt>
      <trkpt lat="46.58373" lon="5.3799">
        <ele>207</ele>
        <time>2021-08-26T12:55:43Z</time>
      </trkpt>
      <trkpt lat="46.58378" lon="5.37992">
        <ele>207.2</ele>
        <time>2021-08-26T12:55:44Z</time>
      </trkpt>
      <trkpt lat="46.58383" lon="5.37994">
        <ele>207.2</ele>
        <time>2021-08-26T12:55:45Z</time>
      </trkpt>
      <trkpt lat="46.58393" lon="5.37997">
        <ele>207.4</ele>
        <time>2021-08-26T12:55:47Z</time>
      </trkpt>
      <trkpt lat="46.58403" lon="5.38001">
        <ele>207.4</ele>
        <time>2021-08-26T12:55:49Z</time>
      </trkpt>
      <trkpt lat="46.58412" lon="5.38005">
        <ele>207.6</ele>
        <time>2021-08-26T12:55:51Z</time>
      </trkpt>
      <trkpt lat="46.58422" lon="5.38008">
        <ele>208</ele>
        <time>2021-08-26T12:55:53Z</time>
      </trkpt>
      <trkpt lat="46.58427" lon="5.3801">
        <ele>208.2</ele>
        <time>2021-08-26T12:55:54Z</time>
      </trkpt>
      <trkpt lat="46.58431" lon="5.38011">
        <ele>208.6</ele>
        <time>2021-08-26T12:55:55Z</time>
      </trkpt>
      <trkpt lat="46.58436" lon="5.38013">
        <ele>208.6</ele>
        <time>2021-08-26T12:55:56Z</time>
      </trkpt>
      <trkpt lat="46.5844" lon="5.38015">
        <ele>208.8</ele>
        <time>2021-08-26T12:55:57Z</time>
      </trkpt>
      <trkpt lat="46.58449" lon="5.38019">
        <ele>209</ele>
        <time>2021-08-26T12:55:59Z</time>
      </trkpt>
      <trkpt lat="46.58458" lon="5.38023">
        <ele>209.6</ele>
        <time>2021-08-26T12:56:01Z</time>
      </trkpt>
      <trkpt lat="46.58466" lon="5.38026">
        <ele>210</ele>
        <time>2021-08-26T12:56:03Z</time>
      </trkpt>
      <trkpt lat="46.58474" lon="5.38029">
        <ele>210.6</ele>
        <time>2021-08-26T12:56:05Z</time>
      </trkpt>
      <trkpt lat="46.58482" lon="5.38032">
        <ele>211</ele>
        <time>2021-08-26T12:56:07Z</time>
      </trkpt>
      <trkpt lat="46.58491" lon="5.38034">
        <ele>211.2</ele>
        <time>2021-08-26T12:56:09Z</time>
      </trkpt>
      <trkpt lat="46.58495" lon="5.38034">
        <ele>211.6</ele>
        <time>2021-08-26T12:56:10Z</time>
      </trkpt>
      <trkpt lat="46.585" lon="5.38034">
        <ele>212</ele>
        <time>2021-08-26T12:56:11Z</time>
      </trkpt>
      <trkpt lat="46.58509" lon="5.38033">
        <ele>212.4</ele>
        <time>2021-08-26T12:56:13Z</time>
      </trkpt>
      <trkpt lat="46.58519" lon="5.3803">
        <ele>213</ele>
        <time>2021-08-26T12:56:15Z</time>
      </trkpt>
      <trkpt lat="46.58529" lon="5.38024">
        <ele>213.2</ele>
        <time>2021-08-26T12:56:17Z</time>
      </trkpt>
      <trkpt lat="46.5854" lon="5.38017">
        <ele>213.4</ele>
        <time>2021-08-26T12:56:19Z</time>
      </trkpt>
      <trkpt lat="46.58552" lon="5.38011">
        <ele>213.4</ele>
        <time>2021-08-26T12:56:21Z</time>
      </trkpt>
      <trkpt lat="46.58565" lon="5.38006">
        <ele>213.4</ele>
        <time>2021-08-26T12:56:23Z</time>
      </trkpt>
      <trkpt lat="46.58578" lon="5.38008">
        <ele>213.4</ele>
        <time>2021-08-26T12:56:25Z</time>
      </trkpt>
      <trkpt lat="46.58589" lon="5.38017">
        <ele>213.4</ele>
        <time>2021-08-26T12:56:27Z</time>
      </trkpt>
      <trkpt lat="46.586" lon="5.38027">
        <ele>213.4</ele>
        <time>2021-08-26T12:56:29Z</time>
      </trkpt>
      <trkpt lat="46.5861" lon="5.38037">
        <ele>213.4</ele>
        <time>2021-08-26T12:56:31Z</time>
      </trkpt>
      <trkpt lat="46.58621" lon="5.38045">
        <ele>213.4</ele>
        <time>2021-08-26T12:56:33Z</time>
      </trkpt>
      <trkpt lat="46.58631" lon="5.38051">
        <ele>213.6</ele>
        <time>2021-08-26T12:56:35Z</time>
      </trkpt>
      <trkpt lat="46.58643" lon="5.38054">
        <ele>213.6</ele>
        <time>2021-08-26T12:56:37Z</time>
      </trkpt>
      <trkpt lat="46.58656" lon="5.38056">
        <ele>214</ele>
        <time>2021-08-26T12:56:39Z</time>
      </trkpt>
      <trkpt lat="46.58668" lon="5.38058">
        <ele>214</ele>
        <time>2021-08-26T12:56:41Z</time>
      </trkpt>
      <trkpt lat="46.58681" lon="5.38059">
        <ele>214.2</ele>
        <time>2021-08-26T12:56:43Z</time>
      </trkpt>
      <trkpt lat="46.58693" lon="5.3806">
        <ele>214.2</ele>
        <time>2021-08-26T12:56:45Z</time>
      </trkpt>
      <trkpt lat="46.58705" lon="5.3806">
        <ele>214.2</ele>
        <time>2021-08-26T12:56:47Z</time>
      </trkpt>
      <trkpt lat="46.58718" lon="5.38061">
        <ele>214.4</ele>
        <time>2021-08-26T12:56:49Z</time>
      </trkpt>
      <trkpt lat="46.5873" lon="5.38062">
        <ele>214.4</ele>
        <time>2021-08-26T12:56:51Z</time>
      </trkpt>
      <trkpt lat="46.58742" lon="5.38063">
        <ele>214.8</ele>
        <time>2021-08-26T12:56:53Z</time>
      </trkpt>
      <trkpt lat="46.58748" lon="5.38063">
        <ele>215.2</ele>
        <time>2021-08-26T12:56:54Z</time>
      </trkpt>
      <trkpt lat="46.58755" lon="5.38064">
        <ele>215.2</ele>
        <time>2021-08-26T12:56:55Z</time>
      </trkpt>
      <trkpt lat="46.58767" lon="5.38067">
        <ele>215.4</ele>
        <time>2021-08-26T12:56:57Z</time>
      </trkpt>
      <trkpt lat="46.58779" lon="5.38072">
        <ele>215.4</ele>
        <time>2021-08-26T12:56:59Z</time>
      </trkpt>
      <trkpt lat="46.58785" lon="5.38075">
        <ele>215.4</ele>
        <time>2021-08-26T12:57:00Z</time>
      </trkpt>
      <trkpt lat="46.5879" lon="5.3808">
        <ele>215.6</ele>
        <time>2021-08-26T12:57:01Z</time>
      </trkpt>
      <trkpt lat="46.588" lon="5.3809">
        <ele>215.6</ele>
        <time>2021-08-26T12:57:03Z</time>
      </trkpt>
      <trkpt lat="46.58809" lon="5.38101">
        <ele>215.8</ele>
        <time>2021-08-26T12:57:05Z</time>
      </trkpt>
      <trkpt lat="46.58818" lon="5.38112">
        <ele>215.8</ele>
        <time>2021-08-26T12:57:07Z</time>
      </trkpt>
      <trkpt lat="46.58827" lon="5.38124">
        <ele>215.8</ele>
        <time>2021-08-26T12:57:09Z</time>
      </trkpt>
      <trkpt lat="46.58837" lon="5.38137">
        <ele>215.8</ele>
        <time>2021-08-26T12:57:11Z</time>
      </trkpt>
      <trkpt lat="46.58848" lon="5.38149">
        <ele>215.8</ele>
        <time>2021-08-26T12:57:13Z</time>
      </trkpt>
      <trkpt lat="46.58859" lon="5.38163">
        <ele>215.8</ele>
        <time>2021-08-26T12:57:15Z</time>
      </trkpt>
      <trkpt lat="46.5887" lon="5.38177">
        <ele>215.8</ele>
        <time>2021-08-26T12:57:17Z</time>
      </trkpt>
      <trkpt lat="46.58881" lon="5.3819">
        <ele>215.6</ele>
        <time>2021-08-26T12:57:19Z</time>
      </trkpt>
      <trkpt lat="46.58892" lon="5.38205">
        <ele>215.4</ele>
        <time>2021-08-26T12:57:21Z</time>
      </trkpt>
      <trkpt lat="46.58898" lon="5.38212">
        <ele>215.2</ele>
        <time>2021-08-26T12:57:22Z</time>
      </trkpt>
      <trkpt lat="46.58904" lon="5.38219">
        <ele>215</ele>
        <time>2021-08-26T12:57:23Z</time>
      </trkpt>
      <trkpt lat="46.58915" lon="5.38233">
        <ele>214.8</ele>
        <time>2021-08-26T12:57:25Z</time>
      </trkpt>
      <trkpt lat="46.58926" lon="5.38247">
        <ele>214.4</ele>
        <time>2021-08-26T12:57:27Z</time>
      </trkpt>
      <trkpt lat="46.58937" lon="5.3826">
        <ele>214</ele>
        <time>2021-08-26T12:57:29Z</time>
      </trkpt>
      <trkpt lat="46.5895" lon="5.38273">
        <ele>213.4</ele>
        <time>2021-08-26T12:57:31Z</time>
      </trkpt>
      <trkpt lat="46.58963" lon="5.38285">
        <ele>213</ele>
        <time>2021-08-26T12:57:33Z</time>
      </trkpt>
      <trkpt lat="46.5897" lon="5.38291">
        <ele>212.4</ele>
        <time>2021-08-26T12:57:34Z</time>
      </trkpt>
      <trkpt lat="46.58977" lon="5.38297">
        <ele>212.2</ele>
        <time>2021-08-26T12:57:35Z</time>
      </trkpt>
      <trkpt lat="46.58992" lon="5.38309">
        <ele>211.8</ele>
        <time>2021-08-26T12:57:37Z</time>
      </trkpt>
      <trkpt lat="46.59006" lon="5.38321">
        <ele>211.6</ele>
        <time>2021-08-26T12:57:39Z</time>
      </trkpt>
      <trkpt lat="46.59019" lon="5.38332">
        <ele>211.6</ele>
        <time>2021-08-26T12:57:41Z</time>
      </trkpt>
      <trkpt lat="46.59032" lon="5.38343">
        <ele>211.4</ele>
        <time>2021-08-26T12:57:43Z</time>
      </trkpt>
      <trkpt lat="46.59044" lon="5.38353">
        <ele>211.4</ele>
        <time>2021-08-26T12:57:45Z</time>
      </trkpt>
      <trkpt lat="46.59056" lon="5.38363">
        <ele>211.4</ele>
        <time>2021-08-26T12:57:47Z</time>
      </trkpt>
      <trkpt lat="46.59068" lon="5.38373">
        <ele>211.4</ele>
        <time>2021-08-26T12:57:49Z</time>
      </trkpt>
      <trkpt lat="46.59079" lon="5.38382">
        <ele>211.6</ele>
        <time>2021-08-26T12:57:51Z</time>
      </trkpt>
      <trkpt lat="46.5909" lon="5.38391">
        <ele>211.6</ele>
        <time>2021-08-26T12:57:53Z</time>
      </trkpt>
      <trkpt lat="46.59101" lon="5.384">
        <ele>212.4</ele>
        <time>2021-08-26T12:57:55Z</time>
      </trkpt>
      <trkpt lat="46.59106" lon="5.38404">
        <ele>212.8</ele>
        <time>2021-08-26T12:57:56Z</time>
      </trkpt>
      <trkpt lat="46.59111" lon="5.38409">
        <ele>213</ele>
        <time>2021-08-26T12:57:57Z</time>
      </trkpt>
      <trkpt lat="46.59121" lon="5.38418">
        <ele>213.4</ele>
        <time>2021-08-26T12:57:59Z</time>
      </trkpt>
      <trkpt lat="46.5913" lon="5.38429">
        <ele>213.8</ele>
        <time>2021-08-26T12:58:01Z</time>
      </trkpt>
      <trkpt lat="46.59134" lon="5.38434">
        <ele>214.4</ele>
        <time>2021-08-26T12:58:02Z</time>
      </trkpt>
      <trkpt lat="46.59138" lon="5.3844">
        <ele>214.6</ele>
        <time>2021-08-26T12:58:03Z</time>
      </trkpt>
      <trkpt lat="46.59145" lon="5.38453">
        <ele>214.8</ele>
        <time>2021-08-26T12:58:05Z</time>
      </trkpt>
      <trkpt lat="46.59152" lon="5.38465">
        <ele>215.2</ele>
        <time>2021-08-26T12:58:07Z</time>
      </trkpt>
      <trkpt lat="46.5916" lon="5.38478">
        <ele>215.4</ele>
        <time>2021-08-26T12:58:09Z</time>
      </trkpt>
      <trkpt lat="46.59163" lon="5.38484">
        <ele>215.6</ele>
        <time>2021-08-26T12:58:10Z</time>
      </trkpt>
      <trkpt lat="46.59167" lon="5.38491">
        <ele>216</ele>
        <time>2021-08-26T12:58:11Z</time>
      </trkpt>
      <trkpt lat="46.59171" lon="5.38497">
        <ele>216.2</ele>
        <time>2021-08-26T12:58:12Z</time>
      </trkpt>
      <trkpt lat="46.59175" lon="5.38503">
        <ele>216.6</ele>
        <time>2021-08-26T12:58:13Z</time>
      </trkpt>
      <trkpt lat="46.59183" lon="5.38513">
        <ele>217.4</ele>
        <time>2021-08-26T12:58:15Z</time>
      </trkpt>
      <trkpt lat="46.59192" lon="5.38524">
        <ele>217.6</ele>
        <time>2021-08-26T12:58:17Z</time>
      </trkpt>
      <trkpt lat="46.592" lon="5.38533">
        <ele>217.8</ele>
        <time>2021-08-26T12:58:19Z</time>
      </trkpt>
      <trkpt lat="46.59209" lon="5.38542">
        <ele>218.2</ele>
        <time>2021-08-26T12:58:21Z</time>
      </trkpt>
      <trkpt lat="46.59218" lon="5.38551">
        <ele>218.2</ele>
        <time>2021-08-26T12:58:23Z</time>
      </trkpt>
      <trkpt lat="46.59227" lon="5.38561">
        <ele>218.6</ele>
        <time>2021-08-26T12:58:25Z</time>
      </trkpt>
      <trkpt lat="46.59231" lon="5.38566">
        <ele>218.8</ele>
        <time>2021-08-26T12:58:26Z</time>
      </trkpt>
      <trkpt lat="46.59236" lon="5.38571">
        <ele>219</ele>
        <time>2021-08-26T12:58:27Z</time>
      </trkpt>
      <trkpt lat="46.59246" lon="5.38582">
        <ele>219</ele>
        <time>2021-08-26T12:58:29Z</time>
      </trkpt>
      <trkpt lat="46.59257" lon="5.38594">
        <ele>219</ele>
        <time>2021-08-26T12:58:31Z</time>
      </trkpt>
      <trkpt lat="46.59268" lon="5.38606">
        <ele>219</ele>
        <time>2021-08-26T12:58:33Z</time>
      </trkpt>
      <trkpt lat="46.59273" lon="5.38612">
        <ele>219</ele>
        <time>2021-08-26T12:58:34Z</time>
      </trkpt>
      <trkpt lat="46.59278" lon="5.38618">
        <ele>219</ele>
        <time>2021-08-26T12:58:35Z</time>
      </trkpt>
      <trkpt lat="46.5929" lon="5.38631">
        <ele>219</ele>
        <time>2021-08-26T12:58:37Z</time>
      </trkpt>
      <trkpt lat="46.59301" lon="5.38643">
        <ele>218.8</ele>
        <time>2021-08-26T12:58:39Z</time>
      </trkpt>
      <trkpt lat="46.59313" lon="5.38655">
        <ele>218.4</ele>
        <time>2021-08-26T12:58:41Z</time>
      </trkpt>
      <trkpt lat="46.59324" lon="5.38667">
        <ele>218.4</ele>
        <time>2021-08-26T12:58:43Z</time>
      </trkpt>
      <trkpt lat="46.59329" lon="5.38673">
        <ele>218.4</ele>
        <time>2021-08-26T12:58:44Z</time>
      </trkpt>
      <trkpt lat="46.59335" lon="5.38679">
        <ele>218.4</ele>
        <time>2021-08-26T12:58:45Z</time>
      </trkpt>
      <trkpt lat="46.59345" lon="5.3869">
        <ele>218.2</ele>
        <time>2021-08-26T12:58:47Z</time>
      </trkpt>
      <trkpt lat="46.59355" lon="5.38701">
        <ele>218.2</ele>
        <time>2021-08-26T12:58:49Z</time>
      </trkpt>
      <trkpt lat="46.59366" lon="5.38712">
        <ele>218.4</ele>
        <time>2021-08-26T12:58:51Z</time>
      </trkpt>
      <trkpt lat="46.59371" lon="5.38717">
        <ele>218.4</ele>
        <time>2021-08-26T12:58:52Z</time>
      </trkpt>
      <trkpt lat="46.59376" lon="5.38723">
        <ele>218.4</ele>
        <time>2021-08-26T12:58:53Z</time>
      </trkpt>
      <trkpt lat="46.59386" lon="5.38734">
        <ele>218.4</ele>
        <time>2021-08-26T12:58:55Z</time>
      </trkpt>
      <trkpt lat="46.59396" lon="5.38745">
        <ele>218.8</ele>
        <time>2021-08-26T12:58:57Z</time>
      </trkpt>
      <trkpt lat="46.59407" lon="5.38756">
        <ele>219</ele>
        <time>2021-08-26T12:58:59Z</time>
      </trkpt>
      <trkpt lat="46.59412" lon="5.38762">
        <ele>219</ele>
        <time>2021-08-26T12:59:00Z</time>
      </trkpt>
      <trkpt lat="46.59417" lon="5.38767">
        <ele>219</ele>
        <time>2021-08-26T12:59:01Z</time>
      </trkpt>
      <trkpt lat="46.59428" lon="5.38778">
        <ele>219</ele>
        <time>2021-08-26T12:59:03Z</time>
      </trkpt>
      <trkpt lat="46.59437" lon="5.38791">
        <ele>219.2</ele>
        <time>2021-08-26T12:59:05Z</time>
      </trkpt>
      <trkpt lat="46.59441" lon="5.38799">
        <ele>219.2</ele>
        <time>2021-08-26T12:59:06Z</time>
      </trkpt>
      <trkpt lat="46.59444" lon="5.38807">
        <ele>219.4</ele>
        <time>2021-08-26T12:59:07Z</time>
      </trkpt>
      <trkpt lat="46.59449" lon="5.38825">
        <ele>219.4</ele>
        <time>2021-08-26T12:59:09Z</time>
      </trkpt>
      <trkpt lat="46.59453" lon="5.38844">
        <ele>219.4</ele>
        <time>2021-08-26T12:59:11Z</time>
      </trkpt>
      <trkpt lat="46.59453" lon="5.38864">
        <ele>219.4</ele>
        <time>2021-08-26T12:59:13Z</time>
      </trkpt>
      <trkpt lat="46.59454" lon="5.38885">
        <ele>219.4</ele>
        <time>2021-08-26T12:59:15Z</time>
      </trkpt>
      <trkpt lat="46.59458" lon="5.38905">
        <ele>219.4</ele>
        <time>2021-08-26T12:59:17Z</time>
      </trkpt>
      <trkpt lat="46.59464" lon="5.38925">
        <ele>219.4</ele>
        <time>2021-08-26T12:59:19Z</time>
      </trkpt>
      <trkpt lat="46.59472" lon="5.38944">
        <ele>219.4</ele>
        <time>2021-08-26T12:59:21Z</time>
      </trkpt>
      <trkpt lat="46.59475" lon="5.38954">
        <ele>219.4</ele>
        <time>2021-08-26T12:59:22Z</time>
      </trkpt>
      <trkpt lat="46.59478" lon="5.38964">
        <ele>219.4</ele>
        <time>2021-08-26T12:59:23Z</time>
      </trkpt>
      <trkpt lat="46.59483" lon="5.38985">
        <ele>219.2</ele>
        <time>2021-08-26T12:59:25Z</time>
      </trkpt>
      <trkpt lat="46.59485" lon="5.39007">
        <ele>219</ele>
        <time>2021-08-26T12:59:27Z</time>
      </trkpt>
      <trkpt lat="46.59488" lon="5.39029">
        <ele>218.8</ele>
        <time>2021-08-26T12:59:29Z</time>
      </trkpt>
      <trkpt lat="46.5949" lon="5.3905">
        <ele>218.8</ele>
        <time>2021-08-26T12:59:31Z</time>
      </trkpt>
      <trkpt lat="46.59492" lon="5.39072">
        <ele>218.8</ele>
        <time>2021-08-26T12:59:33Z</time>
      </trkpt>
      <trkpt lat="46.59495" lon="5.39093">
        <ele>218.6</ele>
        <time>2021-08-26T12:59:35Z</time>
      </trkpt>
      <trkpt lat="46.59497" lon="5.39114">
        <ele>218.8</ele>
        <time>2021-08-26T12:59:37Z</time>
      </trkpt>
      <trkpt lat="46.595" lon="5.39134">
        <ele>218.8</ele>
        <time>2021-08-26T12:59:39Z</time>
      </trkpt>
      <trkpt lat="46.59501" lon="5.39145">
        <ele>218.8</ele>
        <time>2021-08-26T12:59:40Z</time>
      </trkpt>
      <trkpt lat="46.59502" lon="5.39155">
        <ele>219</ele>
        <time>2021-08-26T12:59:41Z</time>
      </trkpt>
      <trkpt lat="46.59506" lon="5.39175">
        <ele>219.2</ele>
        <time>2021-08-26T12:59:43Z</time>
      </trkpt>
      <trkpt lat="46.59512" lon="5.39193">
        <ele>219.4</ele>
        <time>2021-08-26T12:59:45Z</time>
      </trkpt>
      <trkpt lat="46.59522" lon="5.39207">
        <ele>219.8</ele>
        <time>2021-08-26T12:59:47Z</time>
      </trkpt>
      <trkpt lat="46.59528" lon="5.39211">
        <ele>219.6</ele>
        <time>2021-08-26T12:59:48Z</time>
      </trkpt>
      <trkpt lat="46.59534" lon="5.39214">
        <ele>219.6</ele>
        <time>2021-08-26T12:59:49Z</time>
      </trkpt>
      <trkpt lat="46.59548" lon="5.39215">
        <ele>219.8</ele>
        <time>2021-08-26T12:59:51Z</time>
      </trkpt>
      <trkpt lat="46.59555" lon="5.39214">
        <ele>219.8</ele>
        <time>2021-08-26T12:59:52Z</time>
      </trkpt>
      <trkpt lat="46.59562" lon="5.39213">
        <ele>219.8</ele>
        <time>2021-08-26T12:59:53Z</time>
      </trkpt>
      <trkpt lat="46.59576" lon="5.39211">
        <ele>220</ele>
        <time>2021-08-26T12:59:55Z</time>
      </trkpt>
      <trkpt lat="46.59589" lon="5.39204">
        <ele>220</ele>
        <time>2021-08-26T12:59:57Z</time>
      </trkpt>
      <trkpt lat="46.59603" lon="5.39198">
        <ele>220</ele>
        <time>2021-08-26T12:59:59Z</time>
      </trkpt>
      <trkpt lat="46.59616" lon="5.39193">
        <ele>220.4</ele>
        <time>2021-08-26T13:00:01Z</time>
      </trkpt>
      <trkpt lat="46.59623" lon="5.39192">
        <ele>220.2</ele>
        <time>2021-08-26T13:00:02Z</time>
      </trkpt>
      <trkpt lat="46.5963" lon="5.39191">
        <ele>220.2</ele>
        <time>2021-08-26T13:00:03Z</time>
      </trkpt>
      <trkpt lat="46.59644" lon="5.39192">
        <ele>220.4</ele>
        <time>2021-08-26T13:00:05Z</time>
      </trkpt>
      <trkpt lat="46.59658" lon="5.39194">
        <ele>220.2</ele>
        <time>2021-08-26T13:00:07Z</time>
      </trkpt>
      <trkpt lat="46.59664" lon="5.39196">
        <ele>220.2</ele>
        <time>2021-08-26T13:00:08Z</time>
      </trkpt>
      <trkpt lat="46.59671" lon="5.39197">
        <ele>220.2</ele>
        <time>2021-08-26T13:00:09Z</time>
      </trkpt>
      <trkpt lat="46.59684" lon="5.39199">
        <ele>220.4</ele>
        <time>2021-08-26T13:00:11Z</time>
      </trkpt>
      <trkpt lat="46.59696" lon="5.39202">
        <ele>220.4</ele>
        <time>2021-08-26T13:00:13Z</time>
      </trkpt>
      <trkpt lat="46.59708" lon="5.39205">
        <ele>220.6</ele>
        <time>2021-08-26T13:00:15Z</time>
      </trkpt>
      <trkpt lat="46.59715" lon="5.39206">
        <ele>220.8</ele>
        <time>2021-08-26T13:00:16Z</time>
      </trkpt>
      <trkpt lat="46.59721" lon="5.39208">
        <ele>221</ele>
        <time>2021-08-26T13:00:17Z</time>
      </trkpt>
      <trkpt lat="46.59731" lon="5.39217">
        <ele>221.4</ele>
        <time>2021-08-26T13:00:19Z</time>
      </trkpt>
      <trkpt lat="46.5974" lon="5.39226">
        <ele>222</ele>
        <time>2021-08-26T13:00:21Z</time>
      </trkpt>
      <trkpt lat="46.59744" lon="5.39226">
        <ele>222</ele>
        <time>2021-08-26T13:00:22Z</time>
      </trkpt>
      <trkpt lat="46.5975" lon="5.39224">
        <ele>222</ele>
        <time>2021-08-26T13:00:23Z</time>
      </trkpt>
      <trkpt lat="46.59761" lon="5.39215">
        <ele>222</ele>
        <time>2021-08-26T13:00:25Z</time>
      </trkpt>
      <trkpt lat="46.59768" lon="5.3921">
        <ele>222</ele>
        <time>2021-08-26T13:00:26Z</time>
      </trkpt>
      <trkpt lat="46.59775" lon="5.39206">
        <ele>222</ele>
        <time>2021-08-26T13:00:27Z</time>
      </trkpt>
      <trkpt lat="46.59789" lon="5.392">
        <ele>222</ele>
        <time>2021-08-26T13:00:29Z</time>
      </trkpt>
      <trkpt lat="46.59803" lon="5.39197">
        <ele>221.8</ele>
        <time>2021-08-26T13:00:31Z</time>
      </trkpt>
      <trkpt lat="46.59817" lon="5.39196">
        <ele>221.4</ele>
        <time>2021-08-26T13:00:33Z</time>
      </trkpt>
      <trkpt lat="46.59825" lon="5.39197">
        <ele>221</ele>
        <time>2021-08-26T13:00:34Z</time>
      </trkpt>
      <trkpt lat="46.59832" lon="5.39198">
        <ele>220.6</ele>
        <time>2021-08-26T13:00:35Z</time>
      </trkpt>
      <trkpt lat="46.59846" lon="5.39201">
        <ele>220</ele>
        <time>2021-08-26T13:00:37Z</time>
      </trkpt>
      <trkpt lat="46.5986" lon="5.39202">
        <ele>220</ele>
        <time>2021-08-26T13:00:39Z</time>
      </trkpt>
      <trkpt lat="46.59874" lon="5.39202">
        <ele>220</ele>
        <time>2021-08-26T13:00:41Z</time>
      </trkpt>
      <trkpt lat="46.59881" lon="5.392">
        <ele>220</ele>
        <time>2021-08-26T13:00:42Z</time>
      </trkpt>
      <trkpt lat="46.59888" lon="5.39199">
        <ele>219.8</ele>
        <time>2021-08-26T13:00:43Z</time>
      </trkpt>
      <trkpt lat="46.59902" lon="5.39194">
        <ele>219.8</ele>
        <time>2021-08-26T13:00:45Z</time>
      </trkpt>
      <trkpt lat="46.59916" lon="5.3919">
        <ele>219.6</ele>
        <time>2021-08-26T13:00:47Z</time>
      </trkpt>
      <trkpt lat="46.59923" lon="5.39189">
        <ele>219.6</ele>
        <time>2021-08-26T13:00:48Z</time>
      </trkpt>
      <trkpt lat="46.5993" lon="5.39188">
        <ele>219.6</ele>
        <time>2021-08-26T13:00:49Z</time>
      </trkpt>
      <trkpt lat="46.59946" lon="5.39188">
        <ele>219.6</ele>
        <time>2021-08-26T13:00:51Z</time>
      </trkpt>
      <trkpt lat="46.59963" lon="5.39188">
        <ele>219.2</ele>
        <time>2021-08-26T13:00:53Z</time>
      </trkpt>
      <trkpt lat="46.59979" lon="5.3919">
        <ele>219</ele>
        <time>2021-08-26T13:00:55Z</time>
      </trkpt>
      <trkpt lat="46.59987" lon="5.39192">
        <ele>218.8</ele>
        <time>2021-08-26T13:00:56Z</time>
      </trkpt>
      <trkpt lat="46.59995" lon="5.39195">
        <ele>218.6</ele>
        <time>2021-08-26T13:00:57Z</time>
      </trkpt>
      <trkpt lat="46.6001" lon="5.39203">
        <ele>217.8</ele>
        <time>2021-08-26T13:00:59Z</time>
      </trkpt>
      <trkpt lat="46.60018" lon="5.39209">
        <ele>217.6</ele>
        <time>2021-08-26T13:01:00Z</time>
      </trkpt>
      <trkpt lat="46.60024" lon="5.39215">
        <ele>217.2</ele>
        <time>2021-08-26T13:01:01Z</time>
      </trkpt>
      <trkpt lat="46.60037" lon="5.39232">
        <ele>217</ele>
        <time>2021-08-26T13:01:03Z</time>
      </trkpt>
      <trkpt lat="46.60047" lon="5.39254">
        <ele>216.8</ele>
        <time>2021-08-26T13:01:05Z</time>
      </trkpt>
      <trkpt lat="46.60054" lon="5.39281">
        <ele>216.6</ele>
        <time>2021-08-26T13:01:07Z</time>
      </trkpt>
      <trkpt lat="46.60056" lon="5.39295">
        <ele>216.2</ele>
        <time>2021-08-26T13:01:08Z</time>
      </trkpt>
      <trkpt lat="46.60056" lon="5.3931">
        <ele>216</ele>
        <time>2021-08-26T13:01:09Z</time>
      </trkpt>
      <trkpt lat="46.60054" lon="5.3934">
        <ele>215.6</ele>
        <time>2021-08-26T13:01:11Z</time>
      </trkpt>
      <trkpt lat="46.60053" lon="5.39354">
        <ele>215</ele>
        <time>2021-08-26T13:01:12Z</time>
      </trkpt>
      <trkpt lat="46.60051" lon="5.39368">
        <ele>214.2</ele>
        <time>2021-08-26T13:01:13Z</time>
      </trkpt>
      <trkpt lat="46.60045" lon="5.39395">
        <ele>212.6</ele>
        <time>2021-08-26T13:01:15Z</time>
      </trkpt>
      <trkpt lat="46.6004" lon="5.3942">
        <ele>210.8</ele>
        <time>2021-08-26T13:01:17Z</time>
      </trkpt>
      <trkpt lat="46.60037" lon="5.39444">
        <ele>210.6</ele>
        <time>2021-08-26T13:01:19Z</time>
      </trkpt>
      <trkpt lat="46.60037" lon="5.39467">
        <ele>210.4</ele>
        <time>2021-08-26T13:01:21Z</time>
      </trkpt>
      <trkpt lat="46.60041" lon="5.3949">
        <ele>210.4</ele>
        <time>2021-08-26T13:01:23Z</time>
      </trkpt>
      <trkpt lat="46.60048" lon="5.39512">
        <ele>210.4</ele>
        <time>2021-08-26T13:01:25Z</time>
      </trkpt>
      <trkpt lat="46.60052" lon="5.39523">
        <ele>210.2</ele>
        <time>2021-08-26T13:01:26Z</time>
      </trkpt>
      <trkpt lat="46.60058" lon="5.39534">
        <ele>210.2</ele>
        <time>2021-08-26T13:01:27Z</time>
      </trkpt>
      <trkpt lat="46.60068" lon="5.39556">
        <ele>210</ele>
        <time>2021-08-26T13:01:29Z</time>
      </trkpt>
      <trkpt lat="46.60078" lon="5.39579">
        <ele>210</ele>
        <time>2021-08-26T13:01:31Z</time>
      </trkpt>
      <trkpt lat="46.60087" lon="5.39603">
        <ele>210</ele>
        <time>2021-08-26T13:01:33Z</time>
      </trkpt>
      <trkpt lat="46.60091" lon="5.3963">
        <ele>209.4</ele>
        <time>2021-08-26T13:01:35Z</time>
      </trkpt>
      <trkpt lat="46.60089" lon="5.39658">
        <ele>208</ele>
        <time>2021-08-26T13:01:37Z</time>
      </trkpt>
      <trkpt lat="46.60086" lon="5.39671">
        <ele>207.4</ele>
        <time>2021-08-26T13:01:38Z</time>
      </trkpt>
      <trkpt lat="46.60082" lon="5.39684">
        <ele>206.8</ele>
        <time>2021-08-26T13:01:39Z</time>
      </trkpt>
      <trkpt lat="46.60071" lon="5.39707">
        <ele>206</ele>
        <time>2021-08-26T13:01:41Z</time>
      </trkpt>
      <trkpt lat="46.60067" lon="5.3972">
        <ele>205.4</ele>
        <time>2021-08-26T13:01:42Z</time>
      </trkpt>
      <trkpt lat="46.60066" lon="5.39734">
        <ele>205</ele>
        <time>2021-08-26T13:01:43Z</time>
      </trkpt>
      <trkpt lat="46.60069" lon="5.39762">
        <ele>204.4</ele>
        <time>2021-08-26T13:01:45Z</time>
      </trkpt>
      <trkpt lat="46.60073" lon="5.39774">
        <ele>204.4</ele>
        <time>2021-08-26T13:01:46Z</time>
      </trkpt>
      <trkpt lat="46.60078" lon="5.39786">
        <ele>204.2</ele>
        <time>2021-08-26T13:01:47Z</time>
      </trkpt>
      <trkpt lat="46.60087" lon="5.39809">
        <ele>204</ele>
        <time>2021-08-26T13:01:49Z</time>
      </trkpt>
      <trkpt lat="46.60093" lon="5.3982">
        <ele>203.8</ele>
        <time>2021-08-26T13:01:50Z</time>
      </trkpt>
      <trkpt lat="46.601" lon="5.39828">
        <ele>203.4</ele>
        <time>2021-08-26T13:01:51Z</time>
      </trkpt>
      <trkpt lat="46.60107" lon="5.39836">
        <ele>203</ele>
        <time>2021-08-26T13:01:52Z</time>
      </trkpt>
      <trkpt lat="46.60114" lon="5.39844">
        <ele>202.4</ele>
        <time>2021-08-26T13:01:53Z</time>
      </trkpt>
      <trkpt lat="46.60121" lon="5.3985">
        <ele>202</ele>
        <time>2021-08-26T13:01:54Z</time>
      </trkpt>
      <trkpt lat="46.60129" lon="5.39856">
        <ele>201.6</ele>
        <time>2021-08-26T13:01:55Z</time>
      </trkpt>
      <trkpt lat="46.60136" lon="5.39863">
        <ele>201.4</ele>
        <time>2021-08-26T13:01:56Z</time>
      </trkpt>
      <trkpt lat="46.60143" lon="5.39869">
        <ele>201.2</ele>
        <time>2021-08-26T13:01:57Z</time>
      </trkpt>
      <trkpt lat="46.60156" lon="5.39881">
        <ele>201.2</ele>
        <time>2021-08-26T13:01:59Z</time>
      </trkpt>
      <trkpt lat="46.60168" lon="5.39893">
        <ele>201.2</ele>
        <time>2021-08-26T13:02:01Z</time>
      </trkpt>
      <trkpt lat="46.60173" lon="5.399">
        <ele>201.2</ele>
        <time>2021-08-26T13:02:02Z</time>
      </trkpt>
      <trkpt lat="46.60178" lon="5.39909">
        <ele>201.2</ele>
        <time>2021-08-26T13:02:03Z</time>
      </trkpt>
      <trkpt lat="46.60184" lon="5.39926">
        <ele>201.2</ele>
        <time>2021-08-26T13:02:05Z</time>
      </trkpt>
      <trkpt lat="46.60186" lon="5.39936">
        <ele>201.2</ele>
        <time>2021-08-26T13:02:06Z</time>
      </trkpt>
      <trkpt lat="46.60188" lon="5.39945">
        <ele>201.2</ele>
        <time>2021-08-26T13:02:07Z</time>
      </trkpt>
      <trkpt lat="46.60189" lon="5.39963">
        <ele>202</ele>
        <time>2021-08-26T13:02:09Z</time>
      </trkpt>
      <trkpt lat="46.60189" lon="5.39981">
        <ele>202.6</ele>
        <time>2021-08-26T13:02:11Z</time>
      </trkpt>
      <trkpt lat="46.6019" lon="5.3999">
        <ele>203</ele>
        <time>2021-08-26T13:02:12Z</time>
      </trkpt>
      <trkpt lat="46.6019" lon="5.39999">
        <ele>203.4</ele>
        <time>2021-08-26T13:02:13Z</time>
      </trkpt>
      <trkpt lat="46.6019" lon="5.40016">
        <ele>203.8</ele>
        <time>2021-08-26T13:02:15Z</time>
      </trkpt>
      <trkpt lat="46.60191" lon="5.40034">
        <ele>204.4</ele>
        <time>2021-08-26T13:02:17Z</time>
      </trkpt>
      <trkpt lat="46.60191" lon="5.40051">
        <ele>204.8</ele>
        <time>2021-08-26T13:02:19Z</time>
      </trkpt>
      <trkpt lat="46.60191" lon="5.40068">
        <ele>205.2</ele>
        <time>2021-08-26T13:02:21Z</time>
      </trkpt>
      <trkpt lat="46.60192" lon="5.40077">
        <ele>205.4</ele>
        <time>2021-08-26T13:02:22Z</time>
      </trkpt>
      <trkpt lat="46.60192" lon="5.40085">
        <ele>205.6</ele>
        <time>2021-08-26T13:02:23Z</time>
      </trkpt>
      <trkpt lat="46.60192" lon="5.40102">
        <ele>205.8</ele>
        <time>2021-08-26T13:02:25Z</time>
      </trkpt>
      <trkpt lat="46.60192" lon="5.40118">
        <ele>205.8</ele>
        <time>2021-08-26T13:02:27Z</time>
      </trkpt>
      <trkpt lat="46.60191" lon="5.40126">
        <ele>205.8</ele>
        <time>2021-08-26T13:02:28Z</time>
      </trkpt>
      <trkpt lat="46.6019" lon="5.40133">
        <ele>206</ele>
        <time>2021-08-26T13:02:29Z</time>
      </trkpt>
      <trkpt lat="46.60187" lon="5.40149">
        <ele>206.6</ele>
        <time>2021-08-26T13:02:31Z</time>
      </trkpt>
      <trkpt lat="46.60184" lon="5.40165">
        <ele>207</ele>
        <time>2021-08-26T13:02:33Z</time>
      </trkpt>
      <trkpt lat="46.60182" lon="5.40173">
        <ele>207.2</ele>
        <time>2021-08-26T13:02:34Z</time>
      </trkpt>
      <trkpt lat="46.6018" lon="5.40182">
        <ele>207.4</ele>
        <time>2021-08-26T13:02:35Z</time>
      </trkpt>
      <trkpt lat="46.60178" lon="5.4019">
        <ele>207.8</ele>
        <time>2021-08-26T13:02:36Z</time>
      </trkpt>
      <trkpt lat="46.60177" lon="5.40198">
        <ele>208</ele>
        <time>2021-08-26T13:02:37Z</time>
      </trkpt>
      <trkpt lat="46.60175" lon="5.4021">
        <ele>208.2</ele>
        <time>2021-08-26T13:02:39Z</time>
      </trkpt>
      <trkpt lat="46.60174" lon="5.40215">
        <ele>208.4</ele>
        <time>2021-08-26T13:02:41Z</time>
      </trkpt>
      <trkpt lat="46.60174" lon="5.40215">
        <ele>208.4</ele>
        <time>2021-08-26T13:02:42Z</time>
      </trkpt>
      <trkpt lat="46.60174" lon="5.40215">
        <ele>208.6</ele>
        <time>2021-08-26T13:02:43Z</time>
      </trkpt>
      <trkpt lat="46.60176" lon="5.40218">
        <ele>208.8</ele>
        <time>2021-08-26T13:03:24Z</time>
      </trkpt>
      <trkpt lat="46.60177" lon="5.40221">
        <ele>208.8</ele>
        <time>2021-08-26T13:03:25Z</time>
      </trkpt>
      <trkpt lat="46.60178" lon="5.40231">
        <ele>208.8</ele>
        <time>2021-08-26T13:03:27Z</time>
      </trkpt>
      <trkpt lat="46.60179" lon="5.40238">
        <ele>208.8</ele>
        <time>2021-08-26T13:03:28Z</time>
      </trkpt>
      <trkpt lat="46.60181" lon="5.40244">
        <ele>208.8</ele>
        <time>2021-08-26T13:03:29Z</time>
      </trkpt>
      <trkpt lat="46.60186" lon="5.40259">
        <ele>208.8</ele>
        <time>2021-08-26T13:03:31Z</time>
      </trkpt>
      <trkpt lat="46.60189" lon="5.40266">
        <ele>208.6</ele>
        <time>2021-08-26T13:03:32Z</time>
      </trkpt>
      <trkpt lat="46.60193" lon="5.40274">
        <ele>208.6</ele>
        <time>2021-08-26T13:03:33Z</time>
      </trkpt>
      <trkpt lat="46.602" lon="5.40291">
        <ele>208.6</ele>
        <time>2021-08-26T13:03:35Z</time>
      </trkpt>
      <trkpt lat="46.60206" lon="5.40307">
        <ele>208.2</ele>
        <time>2021-08-26T13:03:37Z</time>
      </trkpt>
      <trkpt lat="46.60209" lon="5.40316">
        <ele>208.2</ele>
        <time>2021-08-26T13:03:38Z</time>
      </trkpt>
      <trkpt lat="46.60212" lon="5.40324">
        <ele>208.2</ele>
        <time>2021-08-26T13:03:39Z</time>
      </trkpt>
      <trkpt lat="46.60216" lon="5.40341">
        <ele>208</ele>
        <time>2021-08-26T13:03:41Z</time>
      </trkpt>
      <trkpt lat="46.6022" lon="5.40358">
        <ele>208</ele>
        <time>2021-08-26T13:03:43Z</time>
      </trkpt>
      <trkpt lat="46.60222" lon="5.40376">
        <ele>207.8</ele>
        <time>2021-08-26T13:03:45Z</time>
      </trkpt>
      <trkpt lat="46.60223" lon="5.40397">
        <ele>207.8</ele>
        <time>2021-08-26T13:03:47Z</time>
      </trkpt>
      <trkpt lat="46.60222" lon="5.4042">
        <ele>207.8</ele>
        <time>2021-08-26T13:03:49Z</time>
      </trkpt>
      <trkpt lat="46.60222" lon="5.40432">
        <ele>207.6</ele>
        <time>2021-08-26T13:03:50Z</time>
      </trkpt>
      <trkpt lat="46.60221" lon="5.40445">
        <ele>207.6</ele>
        <time>2021-08-26T13:03:51Z</time>
      </trkpt>
      <trkpt lat="46.60221" lon="5.40471">
        <ele>207.4</ele>
        <time>2021-08-26T13:03:53Z</time>
      </trkpt>
      <trkpt lat="46.60222" lon="5.40484">
        <ele>207.4</ele>
        <time>2021-08-26T13:03:54Z</time>
      </trkpt>
      <trkpt lat="46.60223" lon="5.40497">
        <ele>207</ele>
        <time>2021-08-26T13:03:55Z</time>
      </trkpt>
      <trkpt lat="46.60226" lon="5.4051">
        <ele>206.8</ele>
        <time>2021-08-26T13:03:56Z</time>
      </trkpt>
      <trkpt lat="46.60229" lon="5.40523">
        <ele>206.4</ele>
        <time>2021-08-26T13:03:57Z</time>
      </trkpt>
      <trkpt lat="46.60234" lon="5.40548">
        <ele>205.4</ele>
        <time>2021-08-26T13:03:59Z</time>
      </trkpt>
      <trkpt lat="46.60236" lon="5.40561">
        <ele>204.6</ele>
        <time>2021-08-26T13:04:00Z</time>
      </trkpt>
      <trkpt lat="46.60238" lon="5.40573">
        <ele>204.2</ele>
        <time>2021-08-26T13:04:01Z</time>
      </trkpt>
      <trkpt lat="46.60237" lon="5.40598">
        <ele>203.2</ele>
        <time>2021-08-26T13:04:03Z</time>
      </trkpt>
      <trkpt lat="46.60235" lon="5.4061">
        <ele>202.8</ele>
        <time>2021-08-26T13:04:04Z</time>
      </trkpt>
      <trkpt lat="46.60232" lon="5.40621">
        <ele>202.2</ele>
        <time>2021-08-26T13:04:05Z</time>
      </trkpt>
      <trkpt lat="46.60227" lon="5.40632">
        <ele>202</ele>
        <time>2021-08-26T13:04:06Z</time>
      </trkpt>
      <trkpt lat="46.60223" lon="5.40642">
        <ele>202</ele>
        <time>2021-08-26T13:04:07Z</time>
      </trkpt>
      <trkpt lat="46.60212" lon="5.4066">
        <ele>201.8</ele>
        <time>2021-08-26T13:04:09Z</time>
      </trkpt>
      <trkpt lat="46.60201" lon="5.40678">
        <ele>201.8</ele>
        <time>2021-08-26T13:04:11Z</time>
      </trkpt>
      <trkpt lat="46.60195" lon="5.40687">
        <ele>201.8</ele>
        <time>2021-08-26T13:04:12Z</time>
      </trkpt>
      <trkpt lat="46.6019" lon="5.40697">
        <ele>201.8</ele>
        <time>2021-08-26T13:04:13Z</time>
      </trkpt>
      <trkpt lat="46.60181" lon="5.40717">
        <ele>202</ele>
        <time>2021-08-26T13:04:15Z</time>
      </trkpt>
      <trkpt lat="46.60176" lon="5.4074">
        <ele>202.2</ele>
        <time>2021-08-26T13:04:17Z</time>
      </trkpt>
      <trkpt lat="46.60174" lon="5.40764">
        <ele>202.2</ele>
        <time>2021-08-26T13:04:19Z</time>
      </trkpt>
      <trkpt lat="46.60175" lon="5.40776">
        <ele>202.2</ele>
        <time>2021-08-26T13:04:20Z</time>
      </trkpt>
      <trkpt lat="46.60177" lon="5.40788">
        <ele>202.2</ele>
        <time>2021-08-26T13:04:21Z</time>
      </trkpt>
      <trkpt lat="46.60184" lon="5.40809">
        <ele>202.2</ele>
        <time>2021-08-26T13:04:23Z</time>
      </trkpt>
      <trkpt lat="46.60195" lon="5.40826">
        <ele>202.2</ele>
        <time>2021-08-26T13:04:25Z</time>
      </trkpt>
      <trkpt lat="46.60201" lon="5.40832">
        <ele>202.2</ele>
        <time>2021-08-26T13:04:26Z</time>
      </trkpt>
      <trkpt lat="46.60208" lon="5.40839">
        <ele>202</ele>
        <time>2021-08-26T13:04:27Z</time>
      </trkpt>
      <trkpt lat="46.6022" lon="5.4085">
        <ele>201.4</ele>
        <time>2021-08-26T13:04:29Z</time>
      </trkpt>
      <trkpt lat="46.60232" lon="5.4086">
        <ele>201</ele>
        <time>2021-08-26T13:04:31Z</time>
      </trkpt>
      <trkpt lat="46.60238" lon="5.40864">
        <ele>200.8</ele>
        <time>2021-08-26T13:04:32Z</time>
      </trkpt>
      <trkpt lat="46.60244" lon="5.40869">
        <ele>200.8</ele>
        <time>2021-08-26T13:04:33Z</time>
      </trkpt>
      <trkpt lat="46.60255" lon="5.40877">
        <ele>200.8</ele>
        <time>2021-08-26T13:04:35Z</time>
      </trkpt>
      <trkpt lat="46.60266" lon="5.40886">
        <ele>200.8</ele>
        <time>2021-08-26T13:04:37Z</time>
      </trkpt>
      <trkpt lat="46.60276" lon="5.40894">
        <ele>201</ele>
        <time>2021-08-26T13:04:39Z</time>
      </trkpt>
      <trkpt lat="46.60285" lon="5.40903">
        <ele>201.6</ele>
        <time>2021-08-26T13:04:41Z</time>
      </trkpt>
      <trkpt lat="46.60294" lon="5.40912">
        <ele>202.6</ele>
        <time>2021-08-26T13:04:43Z</time>
      </trkpt>
      <trkpt lat="46.60302" lon="5.40923">
        <ele>203.2</ele>
        <time>2021-08-26T13:04:45Z</time>
      </trkpt>
      <trkpt lat="46.60308" lon="5.40934">
        <ele>203.8</ele>
        <time>2021-08-26T13:04:47Z</time>
      </trkpt>
      <trkpt lat="46.60314" lon="5.40945">
        <ele>204.2</ele>
        <time>2021-08-26T13:04:49Z</time>
      </trkpt>
      <trkpt lat="46.60319" lon="5.40955">
        <ele>204.8</ele>
        <time>2021-08-26T13:04:51Z</time>
      </trkpt>
      <trkpt lat="46.60322" lon="5.4096">
        <ele>205</ele>
        <time>2021-08-26T13:04:52Z</time>
      </trkpt>
      <trkpt lat="46.60325" lon="5.40965">
        <ele>205.4</ele>
        <time>2021-08-26T13:04:53Z</time>
      </trkpt>
      <trkpt lat="46.60329" lon="5.40974">
        <ele>206</ele>
        <time>2021-08-26T13:04:55Z</time>
      </trkpt>
      <trkpt lat="46.60334" lon="5.40982">
        <ele>206.8</ele>
        <time>2021-08-26T13:04:57Z</time>
      </trkpt>
      <trkpt lat="46.60336" lon="5.40986">
        <ele>207.2</ele>
        <time>2021-08-26T13:04:58Z</time>
      </trkpt>
      <trkpt lat="46.60339" lon="5.4099">
        <ele>207.6</ele>
        <time>2021-08-26T13:04:59Z</time>
      </trkpt>
      <trkpt lat="46.60345" lon="5.40997">
        <ele>208.4</ele>
        <time>2021-08-26T13:05:01Z</time>
      </trkpt>
      <trkpt lat="46.60352" lon="5.41003">
        <ele>209</ele>
        <time>2021-08-26T13:05:03Z</time>
      </trkpt>
      <trkpt lat="46.60356" lon="5.41006">
        <ele>209.2</ele>
        <time>2021-08-26T13:05:04Z</time>
      </trkpt>
      <trkpt lat="46.60359" lon="5.41008">
        <ele>209.6</ele>
        <time>2021-08-26T13:05:05Z</time>
      </trkpt>
      <trkpt lat="46.60366" lon="5.41013">
        <ele>209.8</ele>
        <time>2021-08-26T13:05:07Z</time>
      </trkpt>
      <trkpt lat="46.60374" lon="5.41017">
        <ele>210.6</ele>
        <time>2021-08-26T13:05:09Z</time>
      </trkpt>
      <trkpt lat="46.60381" lon="5.41022">
        <ele>211.2</ele>
        <time>2021-08-26T13:05:11Z</time>
      </trkpt>
      <trkpt lat="46.60388" lon="5.41029">
        <ele>211.8</ele>
        <time>2021-08-26T13:05:13Z</time>
      </trkpt>
      <trkpt lat="46.60395" lon="5.41036">
        <ele>212.6</ele>
        <time>2021-08-26T13:05:15Z</time>
      </trkpt>
      <trkpt lat="46.60402" lon="5.41044">
        <ele>213.2</ele>
        <time>2021-08-26T13:05:17Z</time>
      </trkpt>
      <trkpt lat="46.60408" lon="5.41054">
        <ele>213.6</ele>
        <time>2021-08-26T13:05:19Z</time>
      </trkpt>
      <trkpt lat="46.6041" lon="5.41059">
        <ele>213.8</ele>
        <time>2021-08-26T13:05:20Z</time>
      </trkpt>
      <trkpt lat="46.60413" lon="5.41065">
        <ele>214</ele>
        <time>2021-08-26T13:05:21Z</time>
      </trkpt>
      <trkpt lat="46.60417" lon="5.41077">
        <ele>214.2</ele>
        <time>2021-08-26T13:05:23Z</time>
      </trkpt>
      <trkpt lat="46.60422" lon="5.4109">
        <ele>214.6</ele>
        <time>2021-08-26T13:05:25Z</time>
      </trkpt>
      <trkpt lat="46.60428" lon="5.41104">
        <ele>215</ele>
        <time>2021-08-26T13:05:27Z</time>
      </trkpt>
      <trkpt lat="46.60435" lon="5.41117">
        <ele>215.2</ele>
        <time>2021-08-26T13:05:29Z</time>
      </trkpt>
      <trkpt lat="46.6044" lon="5.41123">
        <ele>215.2</ele>
        <time>2021-08-26T13:05:30Z</time>
      </trkpt>
      <trkpt lat="46.60445" lon="5.41128">
        <ele>215.2</ele>
        <time>2021-08-26T13:05:31Z</time>
      </trkpt>
      <trkpt lat="46.60458" lon="5.41136">
        <ele>215.2</ele>
        <time>2021-08-26T13:05:33Z</time>
      </trkpt>
      <trkpt lat="46.60465" lon="5.41139">
        <ele>215.2</ele>
        <time>2021-08-26T13:05:34Z</time>
      </trkpt>
      <trkpt lat="46.60471" lon="5.41141">
        <ele>215</ele>
        <time>2021-08-26T13:05:35Z</time>
      </trkpt>
      <trkpt lat="46.60479" lon="5.41143">
        <ele>214.8</ele>
        <time>2021-08-26T13:05:36Z</time>
      </trkpt>
      <trkpt lat="46.60486" lon="5.41144">
        <ele>214.6</ele>
        <time>2021-08-26T13:05:37Z</time>
      </trkpt>
      <trkpt lat="46.60502" lon="5.41145">
        <ele>214.2</ele>
        <time>2021-08-26T13:05:39Z</time>
      </trkpt>
      <trkpt lat="46.60518" lon="5.41145">
        <ele>214</ele>
        <time>2021-08-26T13:05:41Z</time>
      </trkpt>
      <trkpt lat="46.60535" lon="5.41146">
        <ele>213.6</ele>
        <time>2021-08-26T13:05:43Z</time>
      </trkpt>
      <trkpt lat="46.60543" lon="5.41146">
        <ele>213.6</ele>
        <time>2021-08-26T13:05:44Z</time>
      </trkpt>
      <trkpt lat="46.60552" lon="5.41147">
        <ele>213.2</ele>
        <time>2021-08-26T13:05:45Z</time>
      </trkpt>
      <trkpt lat="46.60569" lon="5.4115">
        <ele>212.2</ele>
        <time>2021-08-26T13:05:47Z</time>
      </trkpt>
      <trkpt lat="46.60586" lon="5.41155">
        <ele>211.4</ele>
        <time>2021-08-26T13:05:49Z</time>
      </trkpt>
      <trkpt lat="46.60594" lon="5.41156">
        <ele>211.2</ele>
        <time>2021-08-26T13:05:50Z</time>
      </trkpt>
      <trkpt lat="46.60603" lon="5.41159">
        <ele>210.6</ele>
        <time>2021-08-26T13:05:51Z</time>
      </trkpt>
      <trkpt lat="46.6062" lon="5.41164">
        <ele>210.6</ele>
        <time>2021-08-26T13:05:53Z</time>
      </trkpt>
      <trkpt lat="46.60637" lon="5.4117">
        <ele>209.8</ele>
        <time>2021-08-26T13:05:55Z</time>
      </trkpt>
      <trkpt lat="46.60655" lon="5.41175">
        <ele>208.8</ele>
        <time>2021-08-26T13:05:57Z</time>
      </trkpt>
      <trkpt lat="46.60672" lon="5.41181">
        <ele>208</ele>
        <time>2021-08-26T13:05:59Z</time>
      </trkpt>
      <trkpt lat="46.6068" lon="5.41185">
        <ele>207.6</ele>
        <time>2021-08-26T13:06:00Z</time>
      </trkpt>
      <trkpt lat="46.60688" lon="5.4119">
        <ele>207.2</ele>
        <time>2021-08-26T13:06:01Z</time>
      </trkpt>
      <trkpt lat="46.60695" lon="5.41196">
        <ele>207</ele>
        <time>2021-08-26T13:06:02Z</time>
      </trkpt>
      <trkpt lat="46.60702" lon="5.41202">
        <ele>206.8</ele>
        <time>2021-08-26T13:06:03Z</time>
      </trkpt>
      <trkpt lat="46.60715" lon="5.41217">
        <ele>206.6</ele>
        <time>2021-08-26T13:06:05Z</time>
      </trkpt>
      <trkpt lat="46.60721" lon="5.41225">
        <ele>206.6</ele>
        <time>2021-08-26T13:06:06Z</time>
      </trkpt>
      <trkpt lat="46.60727" lon="5.41233">
        <ele>206.6</ele>
        <time>2021-08-26T13:06:07Z</time>
      </trkpt>
      <trkpt lat="46.60738" lon="5.41247">
        <ele>206.6</ele>
        <time>2021-08-26T13:06:09Z</time>
      </trkpt>
      <trkpt lat="46.60749" lon="5.41261">
        <ele>206.6</ele>
        <time>2021-08-26T13:06:11Z</time>
      </trkpt>
      <trkpt lat="46.6076" lon="5.41273">
        <ele>206.6</ele>
        <time>2021-08-26T13:06:13Z</time>
      </trkpt>
      <trkpt lat="46.60766" lon="5.41279">
        <ele>206.6</ele>
        <time>2021-08-26T13:06:14Z</time>
      </trkpt>
      <trkpt lat="46.60772" lon="5.41285">
        <ele>206.6</ele>
        <time>2021-08-26T13:06:15Z</time>
      </trkpt>
      <trkpt lat="46.60783" lon="5.41298">
        <ele>206.8</ele>
        <time>2021-08-26T13:06:17Z</time>
      </trkpt>
      <trkpt lat="46.60796" lon="5.41311">
        <ele>206.8</ele>
        <time>2021-08-26T13:06:19Z</time>
      </trkpt>
      <trkpt lat="46.60803" lon="5.41318">
        <ele>206.8</ele>
        <time>2021-08-26T13:06:20Z</time>
      </trkpt>
      <trkpt lat="46.60811" lon="5.41324">
        <ele>206.8</ele>
        <time>2021-08-26T13:06:21Z</time>
      </trkpt>
      <trkpt lat="46.60826" lon="5.41335">
        <ele>206.8</ele>
        <time>2021-08-26T13:06:23Z</time>
      </trkpt>
      <trkpt lat="46.60834" lon="5.41337">
        <ele>206.8</ele>
        <time>2021-08-26T13:06:24Z</time>
      </trkpt>
      <trkpt lat="46.60842" lon="5.41337">
        <ele>206.4</ele>
        <time>2021-08-26T13:06:25Z</time>
      </trkpt>
      <trkpt lat="46.60856" lon="5.41332">
        <ele>205.8</ele>
        <time>2021-08-26T13:06:27Z</time>
      </trkpt>
      <trkpt lat="46.60862" lon="5.41327">
        <ele>205.2</ele>
        <time>2021-08-26T13:06:28Z</time>
      </trkpt>
      <trkpt lat="46.60868" lon="5.4132">
        <ele>204.8</ele>
        <time>2021-08-26T13:06:29Z</time>
      </trkpt>
      <trkpt lat="46.60875" lon="5.41313">
        <ele>204.4</ele>
        <time>2021-08-26T13:06:30Z</time>
      </trkpt>
      <trkpt lat="46.60881" lon="5.41305">
        <ele>204.2</ele>
        <time>2021-08-26T13:06:31Z</time>
      </trkpt>
      <trkpt lat="46.60894" lon="5.41288">
        <ele>203.8</ele>
        <time>2021-08-26T13:06:33Z</time>
      </trkpt>
      <trkpt lat="46.60907" lon="5.41271">
        <ele>203.6</ele>
        <time>2021-08-26T13:06:35Z</time>
      </trkpt>
      <trkpt lat="46.6092" lon="5.41255">
        <ele>203.2</ele>
        <time>2021-08-26T13:06:37Z</time>
      </trkpt>
      <trkpt lat="46.60927" lon="5.41247">
        <ele>203</ele>
        <time>2021-08-26T13:06:38Z</time>
      </trkpt>
      <trkpt lat="46.60933" lon="5.41239">
        <ele>202.8</ele>
        <time>2021-08-26T13:06:39Z</time>
      </trkpt>
      <trkpt lat="46.60947" lon="5.41224">
        <ele>202</ele>
        <time>2021-08-26T13:06:41Z</time>
      </trkpt>
      <trkpt lat="46.60961" lon="5.4121">
        <ele>201.4</ele>
        <time>2021-08-26T13:06:43Z</time>
      </trkpt>
      <trkpt lat="46.60975" lon="5.41197">
        <ele>201</ele>
        <time>2021-08-26T13:06:45Z</time>
      </trkpt>
      <trkpt lat="46.60989" lon="5.41184">
        <ele>200.4</ele>
        <time>2021-08-26T13:06:47Z</time>
      </trkpt>
      <trkpt lat="46.61003" lon="5.41171">
        <ele>200</ele>
        <time>2021-08-26T13:06:49Z</time>
      </trkpt>
      <trkpt lat="46.61018" lon="5.41161">
        <ele>200</ele>
        <time>2021-08-26T13:06:51Z</time>
      </trkpt>
      <trkpt lat="46.61025" lon="5.41158">
        <ele>200</ele>
        <time>2021-08-26T13:06:52Z</time>
      </trkpt>
      <trkpt lat="46.61033" lon="5.41156">
        <ele>199.8</ele>
        <time>2021-08-26T13:06:53Z</time>
      </trkpt>
      <trkpt lat="46.61049" lon="5.41155">
        <ele>199.8</ele>
        <time>2021-08-26T13:06:55Z</time>
      </trkpt>
      <trkpt lat="46.61057" lon="5.41157">
        <ele>199.8</ele>
        <time>2021-08-26T13:06:56Z</time>
      </trkpt>
      <trkpt lat="46.61065" lon="5.4116">
        <ele>199.8</ele>
        <time>2021-08-26T13:06:57Z</time>
      </trkpt>
      <trkpt lat="46.61081" lon="5.41165">
        <ele>199.8</ele>
        <time>2021-08-26T13:06:59Z</time>
      </trkpt>
      <trkpt lat="46.61097" lon="5.41169">
        <ele>199.8</ele>
        <time>2021-08-26T13:07:01Z</time>
      </trkpt>
      <trkpt lat="46.61113" lon="5.41174">
        <ele>200</ele>
        <time>2021-08-26T13:07:03Z</time>
      </trkpt>
      <trkpt lat="46.61129" lon="5.41178">
        <ele>200</ele>
        <time>2021-08-26T13:07:05Z</time>
      </trkpt>
      <trkpt lat="46.61145" lon="5.41183">
        <ele>200</ele>
        <time>2021-08-26T13:07:07Z</time>
      </trkpt>
      <trkpt lat="46.6116" lon="5.41187">
        <ele>200</ele>
        <time>2021-08-26T13:07:09Z</time>
      </trkpt>
      <trkpt lat="46.61176" lon="5.41192">
        <ele>199.8</ele>
        <time>2021-08-26T13:07:11Z</time>
      </trkpt>
      <trkpt lat="46.61191" lon="5.41196">
        <ele>199.8</ele>
        <time>2021-08-26T13:07:13Z</time>
      </trkpt>
      <trkpt lat="46.61206" lon="5.412">
        <ele>199.6</ele>
        <time>2021-08-26T13:07:15Z</time>
      </trkpt>
      <trkpt lat="46.61213" lon="5.41203">
        <ele>199.6</ele>
        <time>2021-08-26T13:07:16Z</time>
      </trkpt>
      <trkpt lat="46.61221" lon="5.41205">
        <ele>199.6</ele>
        <time>2021-08-26T13:07:17Z</time>
      </trkpt>
      <trkpt lat="46.61235" lon="5.41209">
        <ele>199.4</ele>
        <time>2021-08-26T13:07:19Z</time>
      </trkpt>
      <trkpt lat="46.6125" lon="5.41213">
        <ele>199.4</ele>
        <time>2021-08-26T13:07:21Z</time>
      </trkpt>
      <trkpt lat="46.61264" lon="5.41217">
        <ele>199.4</ele>
        <time>2021-08-26T13:07:23Z</time>
      </trkpt>
      <trkpt lat="46.61278" lon="5.41221">
        <ele>199.4</ele>
        <time>2021-08-26T13:07:25Z</time>
      </trkpt>
      <trkpt lat="46.61285" lon="5.41223">
        <ele>199.4</ele>
        <time>2021-08-26T13:07:26Z</time>
      </trkpt>
      <trkpt lat="46.61292" lon="5.41225">
        <ele>199.4</ele>
        <time>2021-08-26T13:07:27Z</time>
      </trkpt>
      <trkpt lat="46.61305" lon="5.41228">
        <ele>199.4</ele>
        <time>2021-08-26T13:07:29Z</time>
      </trkpt>
      <trkpt lat="46.61319" lon="5.41232">
        <ele>199.4</ele>
        <time>2021-08-26T13:07:31Z</time>
      </trkpt>
      <trkpt lat="46.61332" lon="5.41236">
        <ele>199.4</ele>
        <time>2021-08-26T13:07:33Z</time>
      </trkpt>
      <trkpt lat="46.61345" lon="5.4124">
        <ele>199.4</ele>
        <time>2021-08-26T13:07:35Z</time>
      </trkpt>
      <trkpt lat="46.61358" lon="5.41243">
        <ele>199.4</ele>
        <time>2021-08-26T13:07:37Z</time>
      </trkpt>
      <trkpt lat="46.61371" lon="5.41246">
        <ele>199.4</ele>
        <time>2021-08-26T13:07:39Z</time>
      </trkpt>
      <trkpt lat="46.61384" lon="5.4125">
        <ele>199.4</ele>
        <time>2021-08-26T13:07:41Z</time>
      </trkpt>
      <trkpt lat="46.61397" lon="5.41254">
        <ele>199.6</ele>
        <time>2021-08-26T13:07:43Z</time>
      </trkpt>
      <trkpt lat="46.6141" lon="5.41258">
        <ele>199.8</ele>
        <time>2021-08-26T13:07:45Z</time>
      </trkpt>
      <trkpt lat="46.61423" lon="5.41261">
        <ele>200.2</ele>
        <time>2021-08-26T13:07:47Z</time>
      </trkpt>
      <trkpt lat="46.61436" lon="5.41265">
        <ele>200.6</ele>
        <time>2021-08-26T13:07:49Z</time>
      </trkpt>
      <trkpt lat="46.61449" lon="5.41268">
        <ele>200.8</ele>
        <time>2021-08-26T13:07:51Z</time>
      </trkpt>
      <trkpt lat="46.61462" lon="5.41272">
        <ele>200.8</ele>
        <time>2021-08-26T13:07:53Z</time>
      </trkpt>
      <trkpt lat="46.61475" lon="5.41275">
        <ele>201.2</ele>
        <time>2021-08-26T13:07:55Z</time>
      </trkpt>
      <trkpt lat="46.61487" lon="5.41279">
        <ele>201.2</ele>
        <time>2021-08-26T13:07:57Z</time>
      </trkpt>
      <trkpt lat="46.615" lon="5.41283">
        <ele>201.2</ele>
        <time>2021-08-26T13:07:59Z</time>
      </trkpt>
      <trkpt lat="46.61507" lon="5.41286">
        <ele>201.4</ele>
        <time>2021-08-26T13:08:00Z</time>
      </trkpt>
      <trkpt lat="46.61514" lon="5.41289">
        <ele>201.4</ele>
        <time>2021-08-26T13:08:01Z</time>
      </trkpt>
      <trkpt lat="46.61528" lon="5.41297">
        <ele>201.4</ele>
        <time>2021-08-26T13:08:03Z</time>
      </trkpt>
      <trkpt lat="46.61541" lon="5.41305">
        <ele>201.4</ele>
        <time>2021-08-26T13:08:05Z</time>
      </trkpt>
      <trkpt lat="46.61554" lon="5.41314">
        <ele>201.4</ele>
        <time>2021-08-26T13:08:07Z</time>
      </trkpt>
      <trkpt lat="46.61567" lon="5.41323">
        <ele>201.4</ele>
        <time>2021-08-26T13:08:09Z</time>
      </trkpt>
      <trkpt lat="46.6158" lon="5.41332">
        <ele>200.8</ele>
        <time>2021-08-26T13:08:11Z</time>
      </trkpt>
      <trkpt lat="46.61592" lon="5.41341">
        <ele>200.8</ele>
        <time>2021-08-26T13:08:13Z</time>
      </trkpt>
      <trkpt lat="46.61605" lon="5.41351">
        <ele>200.8</ele>
        <time>2021-08-26T13:08:15Z</time>
      </trkpt>
      <trkpt lat="46.61617" lon="5.41361">
        <ele>200.8</ele>
        <time>2021-08-26T13:08:17Z</time>
      </trkpt>
      <trkpt lat="46.61628" lon="5.41374">
        <ele>200.8</ele>
        <time>2021-08-26T13:08:19Z</time>
      </trkpt>
      <trkpt lat="46.61639" lon="5.41387">
        <ele>201</ele>
        <time>2021-08-26T13:08:21Z</time>
      </trkpt>
      <trkpt lat="46.61649" lon="5.414">
        <ele>201.2</ele>
        <time>2021-08-26T13:08:23Z</time>
      </trkpt>
      <trkpt lat="46.61655" lon="5.41406">
        <ele>201.2</ele>
        <time>2021-08-26T13:08:24Z</time>
      </trkpt>
      <trkpt lat="46.6166" lon="5.41412">
        <ele>201.2</ele>
        <time>2021-08-26T13:08:25Z</time>
      </trkpt>
      <trkpt lat="46.61672" lon="5.41423">
        <ele>201.2</ele>
        <time>2021-08-26T13:08:27Z</time>
      </trkpt>
      <trkpt lat="46.61684" lon="5.41432">
        <ele>201.4</ele>
        <time>2021-08-26T13:08:29Z</time>
      </trkpt>
      <trkpt lat="46.6169" lon="5.41435">
        <ele>201.6</ele>
        <time>2021-08-26T13:08:30Z</time>
      </trkpt>
      <trkpt lat="46.61697" lon="5.41438">
        <ele>201.6</ele>
        <time>2021-08-26T13:08:31Z</time>
      </trkpt>
      <trkpt lat="46.61711" lon="5.41442">
        <ele>201.6</ele>
        <time>2021-08-26T13:08:33Z</time>
      </trkpt>
      <trkpt lat="46.61718" lon="5.41442">
        <ele>201.6</ele>
        <time>2021-08-26T13:08:34Z</time>
      </trkpt>
      <trkpt lat="46.61724" lon="5.41442">
        <ele>201.6</ele>
        <time>2021-08-26T13:08:35Z</time>
      </trkpt>
      <trkpt lat="46.61738" lon="5.41438">
        <ele>201.6</ele>
        <time>2021-08-26T13:08:37Z</time>
      </trkpt>
      <trkpt lat="46.61745" lon="5.41435">
        <ele>201.6</ele>
        <time>2021-08-26T13:08:38Z</time>
      </trkpt>
      <trkpt lat="46.61752" lon="5.41432">
        <ele>201.6</ele>
        <time>2021-08-26T13:08:39Z</time>
      </trkpt>
      <trkpt lat="46.61758" lon="5.41428">
        <ele>201.4</ele>
        <time>2021-08-26T13:08:40Z</time>
      </trkpt>
      <trkpt lat="46.61764" lon="5.41424">
        <ele>201.4</ele>
        <time>2021-08-26T13:08:41Z</time>
      </trkpt>
      <trkpt lat="46.61776" lon="5.41413">
        <ele>201.2</ele>
        <time>2021-08-26T13:08:43Z</time>
      </trkpt>
      <trkpt lat="46.61781" lon="5.41406">
        <ele>201.2</ele>
        <time>2021-08-26T13:08:44Z</time>
      </trkpt>
      <trkpt lat="46.61786" lon="5.414">
        <ele>201.2</ele>
        <time>2021-08-26T13:08:45Z</time>
      </trkpt>
      <trkpt lat="46.61795" lon="5.41385">
        <ele>201</ele>
        <time>2021-08-26T13:08:47Z</time>
      </trkpt>
      <trkpt lat="46.61803" lon="5.4137">
        <ele>200.4</ele>
        <time>2021-08-26T13:08:49Z</time>
      </trkpt>
      <trkpt lat="46.61812" lon="5.41355">
        <ele>200.2</ele>
        <time>2021-08-26T13:08:51Z</time>
      </trkpt>
      <trkpt lat="46.6182" lon="5.41339">
        <ele>200.2</ele>
        <time>2021-08-26T13:08:53Z</time>
      </trkpt>
      <trkpt lat="46.61829" lon="5.41324">
        <ele>200.2</ele>
        <time>2021-08-26T13:08:55Z</time>
      </trkpt>
      <trkpt lat="46.61837" lon="5.41308">
        <ele>200.2</ele>
        <time>2021-08-26T13:08:57Z</time>
      </trkpt>
      <trkpt lat="46.61845" lon="5.41292">
        <ele>200.2</ele>
        <time>2021-08-26T13:08:59Z</time>
      </trkpt>
      <trkpt lat="46.61854" lon="5.41277">
        <ele>200.2</ele>
        <time>2021-08-26T13:09:01Z</time>
      </trkpt>
      <trkpt lat="46.61862" lon="5.41262">
        <ele>200.2</ele>
        <time>2021-08-26T13:09:03Z</time>
      </trkpt>
      <trkpt lat="46.61867" lon="5.41255">
        <ele>200.2</ele>
        <time>2021-08-26T13:09:04Z</time>
      </trkpt>
      <trkpt lat="46.61871" lon="5.41247">
        <ele>200.2</ele>
        <time>2021-08-26T13:09:05Z</time>
      </trkpt>
      <trkpt lat="46.6188" lon="5.41233">
        <ele>200.2</ele>
        <time>2021-08-26T13:09:07Z</time>
      </trkpt>
      <trkpt lat="46.6189" lon="5.41219">
        <ele>200.2</ele>
        <time>2021-08-26T13:09:09Z</time>
      </trkpt>
      <trkpt lat="46.619" lon="5.41206">
        <ele>200.2</ele>
        <time>2021-08-26T13:09:11Z</time>
      </trkpt>
      <trkpt lat="46.61909" lon="5.41192">
        <ele>200.4</ele>
        <time>2021-08-26T13:09:13Z</time>
      </trkpt>
      <trkpt lat="46.61919" lon="5.41178">
        <ele>200.4</ele>
        <time>2021-08-26T13:09:15Z</time>
      </trkpt>
      <trkpt lat="46.61929" lon="5.41165">
        <ele>200.4</ele>
        <time>2021-08-26T13:09:17Z</time>
      </trkpt>
      <trkpt lat="46.61939" lon="5.41151">
        <ele>200.6</ele>
        <time>2021-08-26T13:09:19Z</time>
      </trkpt>
      <trkpt lat="46.61949" lon="5.41138">
        <ele>200.8</ele>
        <time>2021-08-26T13:09:21Z</time>
      </trkpt>
      <trkpt lat="46.61959" lon="5.41124">
        <ele>200.8</ele>
        <time>2021-08-26T13:09:23Z</time>
      </trkpt>
      <trkpt lat="46.61969" lon="5.41111">
        <ele>201</ele>
        <time>2021-08-26T13:09:25Z</time>
      </trkpt>
      <trkpt lat="46.61979" lon="5.41097">
        <ele>201</ele>
        <time>2021-08-26T13:09:27Z</time>
      </trkpt>
      <trkpt lat="46.61988" lon="5.41084">
        <ele>201</ele>
        <time>2021-08-26T13:09:29Z</time>
      </trkpt>
      <trkpt lat="46.61993" lon="5.41077">
        <ele>201</ele>
        <time>2021-08-26T13:09:30Z</time>
      </trkpt>
      <trkpt lat="46.61998" lon="5.4107">
        <ele>201</ele>
        <time>2021-08-26T13:09:31Z</time>
      </trkpt>
      <trkpt lat="46.62007" lon="5.41056">
        <ele>201</ele>
        <time>2021-08-26T13:09:33Z</time>
      </trkpt>
      <trkpt lat="46.62015" lon="5.4104">
        <ele>201</ele>
        <time>2021-08-26T13:09:35Z</time>
      </trkpt>
      <trkpt lat="46.62022" lon="5.41023">
        <ele>201</ele>
        <time>2021-08-26T13:09:37Z</time>
      </trkpt>
      <trkpt lat="46.62028" lon="5.41005">
        <ele>201</ele>
        <time>2021-08-26T13:09:39Z</time>
      </trkpt>
      <trkpt lat="46.62034" lon="5.40987">
        <ele>200.8</ele>
        <time>2021-08-26T13:09:41Z</time>
      </trkpt>
      <trkpt lat="46.6204" lon="5.40969">
        <ele>200.8</ele>
        <time>2021-08-26T13:09:43Z</time>
      </trkpt>
      <trkpt lat="46.62046" lon="5.40951">
        <ele>200.8</ele>
        <time>2021-08-26T13:09:45Z</time>
      </trkpt>
      <trkpt lat="46.62052" lon="5.40933">
        <ele>200.8</ele>
        <time>2021-08-26T13:09:47Z</time>
      </trkpt>
      <trkpt lat="46.62058" lon="5.40916">
        <ele>200.8</ele>
        <time>2021-08-26T13:09:49Z</time>
      </trkpt>
      <trkpt lat="46.62063" lon="5.40898">
        <ele>200.8</ele>
        <time>2021-08-26T13:09:51Z</time>
      </trkpt>
      <trkpt lat="46.62069" lon="5.4088">
        <ele>200.8</ele>
        <time>2021-08-26T13:09:53Z</time>
      </trkpt>
      <trkpt lat="46.62075" lon="5.40863">
        <ele>200.8</ele>
        <time>2021-08-26T13:09:55Z</time>
      </trkpt>
      <trkpt lat="46.62082" lon="5.40845">
        <ele>200.8</ele>
        <time>2021-08-26T13:09:57Z</time>
      </trkpt>
      <trkpt lat="46.62088" lon="5.40828">
        <ele>200.8</ele>
        <time>2021-08-26T13:09:59Z</time>
      </trkpt>
      <trkpt lat="46.62094" lon="5.40811">
        <ele>201</ele>
        <time>2021-08-26T13:10:01Z</time>
      </trkpt>
      <trkpt lat="46.62101" lon="5.40794">
        <ele>201.2</ele>
        <time>2021-08-26T13:10:03Z</time>
      </trkpt>
      <trkpt lat="46.62106" lon="5.40778">
        <ele>201.2</ele>
        <time>2021-08-26T13:10:05Z</time>
      </trkpt>
      <trkpt lat="46.62109" lon="5.4077">
        <ele>201.4</ele>
        <time>2021-08-26T13:10:06Z</time>
      </trkpt>
      <trkpt lat="46.62113" lon="5.40762">
        <ele>201.4</ele>
        <time>2021-08-26T13:10:07Z</time>
      </trkpt>
      <trkpt lat="46.62116" lon="5.40754">
        <ele>201.4</ele>
        <time>2021-08-26T13:10:08Z</time>
      </trkpt>
      <trkpt lat="46.6212" lon="5.40746">
        <ele>201.4</ele>
        <time>2021-08-26T13:10:09Z</time>
      </trkpt>
      <trkpt lat="46.6213" lon="5.40731">
        <ele>201.4</ele>
        <time>2021-08-26T13:10:11Z</time>
      </trkpt>
      <trkpt lat="46.62142" lon="5.4072">
        <ele>201.6</ele>
        <time>2021-08-26T13:10:13Z</time>
      </trkpt>
      <trkpt lat="46.62155" lon="5.40713">
        <ele>201.6</ele>
        <time>2021-08-26T13:10:15Z</time>
      </trkpt>
      <trkpt lat="46.62169" lon="5.40709">
        <ele>201.4</ele>
        <time>2021-08-26T13:10:17Z</time>
      </trkpt>
      <trkpt lat="46.62183" lon="5.4071">
        <ele>201.6</ele>
        <time>2021-08-26T13:10:19Z</time>
      </trkpt>
      <trkpt lat="46.62196" lon="5.40714">
        <ele>201.6</ele>
        <time>2021-08-26T13:10:21Z</time>
      </trkpt>
      <trkpt lat="46.6221" lon="5.40722">
        <ele>201.8</ele>
        <time>2021-08-26T13:10:23Z</time>
      </trkpt>
      <trkpt lat="46.62216" lon="5.40727">
        <ele>201.8</ele>
        <time>2021-08-26T13:10:24Z</time>
      </trkpt>
      <trkpt lat="46.62222" lon="5.40732">
        <ele>201.8</ele>
        <time>2021-08-26T13:10:25Z</time>
      </trkpt>
      <trkpt lat="46.62234" lon="5.40745">
        <ele>201.8</ele>
        <time>2021-08-26T13:10:27Z</time>
      </trkpt>
      <trkpt lat="46.62246" lon="5.40756">
        <ele>202</ele>
        <time>2021-08-26T13:10:29Z</time>
      </trkpt>
      <trkpt lat="46.62258" lon="5.40768">
        <ele>202.2</ele>
        <time>2021-08-26T13:10:31Z</time>
      </trkpt>
      <trkpt lat="46.62269" lon="5.4078">
        <ele>202.2</ele>
        <time>2021-08-26T13:10:33Z</time>
      </trkpt>
      <trkpt lat="46.6228" lon="5.40792">
        <ele>202.2</ele>
        <time>2021-08-26T13:10:35Z</time>
      </trkpt>
      <trkpt lat="46.62291" lon="5.40805">
        <ele>202.2</ele>
        <time>2021-08-26T13:10:37Z</time>
      </trkpt>
      <trkpt lat="46.62301" lon="5.40819">
        <ele>202.2</ele>
        <time>2021-08-26T13:10:39Z</time>
      </trkpt>
      <trkpt lat="46.62311" lon="5.40834">
        <ele>202.4</ele>
        <time>2021-08-26T13:10:41Z</time>
      </trkpt>
      <trkpt lat="46.62316" lon="5.40842">
        <ele>202.4</ele>
        <time>2021-08-26T13:10:42Z</time>
      </trkpt>
      <trkpt lat="46.6232" lon="5.4085">
        <ele>202.6</ele>
        <time>2021-08-26T13:10:43Z</time>
      </trkpt>
      <trkpt lat="46.62329" lon="5.40866">
        <ele>202.8</ele>
        <time>2021-08-26T13:10:45Z</time>
      </trkpt>
      <trkpt lat="46.62339" lon="5.4088">
        <ele>202.8</ele>
        <time>2021-08-26T13:10:47Z</time>
      </trkpt>
      <trkpt lat="46.62345" lon="5.40886">
        <ele>202.8</ele>
        <time>2021-08-26T13:10:48Z</time>
      </trkpt>
      <trkpt lat="46.62351" lon="5.40891">
        <ele>202.8</ele>
        <time>2021-08-26T13:10:49Z</time>
      </trkpt>
      <trkpt lat="46.62362" lon="5.40902">
        <ele>202.8</ele>
        <time>2021-08-26T13:10:51Z</time>
      </trkpt>
      <trkpt lat="46.62374" lon="5.40913">
        <ele>202.8</ele>
        <time>2021-08-26T13:10:53Z</time>
      </trkpt>
      <trkpt lat="46.62386" lon="5.40925">
        <ele>202.8</ele>
        <time>2021-08-26T13:10:55Z</time>
      </trkpt>
      <trkpt lat="46.62397" lon="5.40937">
        <ele>202.8</ele>
        <time>2021-08-26T13:10:57Z</time>
      </trkpt>
      <trkpt lat="46.62406" lon="5.40953">
        <ele>202.8</ele>
        <time>2021-08-26T13:10:59Z</time>
      </trkpt>
      <trkpt lat="46.62413" lon="5.40969">
        <ele>202.8</ele>
        <time>2021-08-26T13:11:01Z</time>
      </trkpt>
      <trkpt lat="46.62417" lon="5.40977">
        <ele>202.8</ele>
        <time>2021-08-26T13:11:02Z</time>
      </trkpt>
      <trkpt lat="46.6242" lon="5.40986">
        <ele>202.8</ele>
        <time>2021-08-26T13:11:03Z</time>
      </trkpt>
      <trkpt lat="46.62426" lon="5.41003">
        <ele>202.8</ele>
        <time>2021-08-26T13:11:05Z</time>
      </trkpt>
      <trkpt lat="46.62433" lon="5.41019">
        <ele>202.8</ele>
        <time>2021-08-26T13:11:07Z</time>
      </trkpt>
      <trkpt lat="46.62436" lon="5.41028">
        <ele>203</ele>
        <time>2021-08-26T13:11:08Z</time>
      </trkpt>
      <trkpt lat="46.62439" lon="5.41036">
        <ele>203</ele>
        <time>2021-08-26T13:11:09Z</time>
      </trkpt>
      <trkpt lat="46.62446" lon="5.41053">
        <ele>203</ele>
        <time>2021-08-26T13:11:11Z</time>
      </trkpt>
      <trkpt lat="46.62451" lon="5.41069">
        <ele>203.2</ele>
        <time>2021-08-26T13:11:13Z</time>
      </trkpt>
      <trkpt lat="46.62454" lon="5.41077">
        <ele>203.4</ele>
        <time>2021-08-26T13:11:14Z</time>
      </trkpt>
      <trkpt lat="46.62457" lon="5.41085">
        <ele>203.4</ele>
        <time>2021-08-26T13:11:15Z</time>
      </trkpt>
      <trkpt lat="46.62465" lon="5.411">
        <ele>203.6</ele>
        <time>2021-08-26T13:11:17Z</time>
      </trkpt>
      <trkpt lat="46.62473" lon="5.41114">
        <ele>203.8</ele>
        <time>2021-08-26T13:11:19Z</time>
      </trkpt>
      <trkpt lat="46.62478" lon="5.4112">
        <ele>203.8</ele>
        <time>2021-08-26T13:11:20Z</time>
      </trkpt>
      <trkpt lat="46.62483" lon="5.41126">
        <ele>203.8</ele>
        <time>2021-08-26T13:11:21Z</time>
      </trkpt>
      <trkpt lat="46.62493" lon="5.41135">
        <ele>204</ele>
        <time>2021-08-26T13:11:23Z</time>
      </trkpt>
      <trkpt lat="46.62498" lon="5.41139">
        <ele>204</ele>
        <time>2021-08-26T13:11:24Z</time>
      </trkpt>
      <trkpt lat="46.62503" lon="5.41142">
        <ele>204</ele>
        <time>2021-08-26T13:11:25Z</time>
      </trkpt>
      <trkpt lat="46.62515" lon="5.41148">
        <ele>204.2</ele>
        <time>2021-08-26T13:11:27Z</time>
      </trkpt>
      <trkpt lat="46.62526" lon="5.41154">
        <ele>204.4</ele>
        <time>2021-08-26T13:11:29Z</time>
      </trkpt>
      <trkpt lat="46.62532" lon="5.41157">
        <ele>204.4</ele>
        <time>2021-08-26T13:11:30Z</time>
      </trkpt>
      <trkpt lat="46.62538" lon="5.41159">
        <ele>204.6</ele>
        <time>2021-08-26T13:11:31Z</time>
      </trkpt>
      <trkpt lat="46.6255" lon="5.41164">
        <ele>205</ele>
        <time>2021-08-26T13:11:33Z</time>
      </trkpt>
      <trkpt lat="46.62556" lon="5.41167">
        <ele>205.2</ele>
        <time>2021-08-26T13:11:34Z</time>
      </trkpt>
      <trkpt lat="46.62562" lon="5.41169">
        <ele>205.2</ele>
        <time>2021-08-26T13:11:35Z</time>
      </trkpt>
      <trkpt lat="46.62573" lon="5.41175">
        <ele>205.4</ele>
        <time>2021-08-26T13:11:37Z</time>
      </trkpt>
      <trkpt lat="46.62585" lon="5.41179">
        <ele>205.6</ele>
        <time>2021-08-26T13:11:39Z</time>
      </trkpt>
      <trkpt lat="46.62596" lon="5.41184">
        <ele>206</ele>
        <time>2021-08-26T13:11:41Z</time>
      </trkpt>
      <trkpt lat="46.62608" lon="5.41189">
        <ele>206.4</ele>
        <time>2021-08-26T13:11:43Z</time>
      </trkpt>
      <trkpt lat="46.62619" lon="5.41194">
        <ele>206.6</ele>
        <time>2021-08-26T13:11:45Z</time>
      </trkpt>
      <trkpt lat="46.62625" lon="5.41197">
        <ele>206.8</ele>
        <time>2021-08-26T13:11:46Z</time>
      </trkpt>
      <trkpt lat="46.62631" lon="5.41199">
        <ele>207</ele>
        <time>2021-08-26T13:11:47Z</time>
      </trkpt>
      <trkpt lat="46.62643" lon="5.41204">
        <ele>207.2</ele>
        <time>2021-08-26T13:11:49Z</time>
      </trkpt>
      <trkpt lat="46.62654" lon="5.41209">
        <ele>207.4</ele>
        <time>2021-08-26T13:11:51Z</time>
      </trkpt>
      <trkpt lat="46.62666" lon="5.41215">
        <ele>207.4</ele>
        <time>2021-08-26T13:11:53Z</time>
      </trkpt>
      <trkpt lat="46.62677" lon="5.41219">
        <ele>207.6</ele>
        <time>2021-08-26T13:11:55Z</time>
      </trkpt>
      <trkpt lat="46.62683" lon="5.41222">
        <ele>207.6</ele>
        <time>2021-08-26T13:11:56Z</time>
      </trkpt>
      <trkpt lat="46.62688" lon="5.41224">
        <ele>207.8</ele>
        <time>2021-08-26T13:11:57Z</time>
      </trkpt>
      <trkpt lat="46.62699" lon="5.41228">
        <ele>207.8</ele>
        <time>2021-08-26T13:11:59Z</time>
      </trkpt>
      <trkpt lat="46.62705" lon="5.4123">
        <ele>207.8</ele>
        <time>2021-08-26T13:12:00Z</time>
      </trkpt>
      <trkpt lat="46.6271" lon="5.41233">
        <ele>208</ele>
        <time>2021-08-26T13:12:01Z</time>
      </trkpt>
      <trkpt lat="46.62721" lon="5.41239">
        <ele>208.2</ele>
        <time>2021-08-26T13:12:03Z</time>
      </trkpt>
      <trkpt lat="46.62732" lon="5.41244">
        <ele>208.6</ele>
        <time>2021-08-26T13:12:05Z</time>
      </trkpt>
      <trkpt lat="46.62743" lon="5.41248">
        <ele>209</ele>
        <time>2021-08-26T13:12:07Z</time>
      </trkpt>
      <trkpt lat="46.62754" lon="5.41253">
        <ele>209.2</ele>
        <time>2021-08-26T13:12:09Z</time>
      </trkpt>
      <trkpt lat="46.62764" lon="5.41257">
        <ele>209.6</ele>
        <time>2021-08-26T13:12:11Z</time>
      </trkpt>
      <trkpt lat="46.62774" lon="5.41262">
        <ele>210</ele>
        <time>2021-08-26T13:12:13Z</time>
      </trkpt>
      <trkpt lat="46.62779" lon="5.41264">
        <ele>210.2</ele>
        <time>2021-08-26T13:12:14Z</time>
      </trkpt>
      <trkpt lat="46.62785" lon="5.41266">
        <ele>210.4</ele>
        <time>2021-08-26T13:12:15Z</time>
      </trkpt>
      <trkpt lat="46.62795" lon="5.41271">
        <ele>210.6</ele>
        <time>2021-08-26T13:12:17Z</time>
      </trkpt>
      <trkpt lat="46.62805" lon="5.41275">
        <ele>210.8</ele>
        <time>2021-08-26T13:12:19Z</time>
      </trkpt>
      <trkpt lat="46.62815" lon="5.41279">
        <ele>210.8</ele>
        <time>2021-08-26T13:12:21Z</time>
      </trkpt>
      <trkpt lat="46.6282" lon="5.41282">
        <ele>211</ele>
        <time>2021-08-26T13:12:22Z</time>
      </trkpt>
      <trkpt lat="46.62825" lon="5.41284">
        <ele>211.2</ele>
        <time>2021-08-26T13:12:23Z</time>
      </trkpt>
      <trkpt lat="46.62835" lon="5.41288">
        <ele>211.4</ele>
        <time>2021-08-26T13:12:25Z</time>
      </trkpt>
      <trkpt lat="46.62844" lon="5.41292">
        <ele>211.4</ele>
        <time>2021-08-26T13:12:27Z</time>
      </trkpt>
      <trkpt lat="46.62853" lon="5.41296">
        <ele>211.8</ele>
        <time>2021-08-26T13:12:29Z</time>
      </trkpt>
      <trkpt lat="46.62862" lon="5.41301">
        <ele>212.4</ele>
        <time>2021-08-26T13:12:31Z</time>
      </trkpt>
      <trkpt lat="46.62872" lon="5.41305">
        <ele>213</ele>
        <time>2021-08-26T13:12:33Z</time>
      </trkpt>
      <trkpt lat="46.62881" lon="5.41308">
        <ele>213.4</ele>
        <time>2021-08-26T13:12:35Z</time>
      </trkpt>
      <trkpt lat="46.62885" lon="5.4131">
        <ele>213.4</ele>
        <time>2021-08-26T13:12:36Z</time>
      </trkpt>
      <trkpt lat="46.6289" lon="5.41312">
        <ele>213.6</ele>
        <time>2021-08-26T13:12:37Z</time>
      </trkpt>
      <trkpt lat="46.62894" lon="5.41314">
        <ele>213.8</ele>
        <time>2021-08-26T13:12:38Z</time>
      </trkpt>
      <trkpt lat="46.62899" lon="5.41316">
        <ele>214</ele>
        <time>2021-08-26T13:12:39Z</time>
      </trkpt>
      <trkpt lat="46.62907" lon="5.4132">
        <ele>214.6</ele>
        <time>2021-08-26T13:12:41Z</time>
      </trkpt>
      <trkpt lat="46.62917" lon="5.41324">
        <ele>215</ele>
        <time>2021-08-26T13:12:43Z</time>
      </trkpt>
      <trkpt lat="46.62926" lon="5.41328">
        <ele>215.6</ele>
        <time>2021-08-26T13:12:45Z</time>
      </trkpt>
      <trkpt lat="46.62935" lon="5.41332">
        <ele>216</ele>
        <time>2021-08-26T13:12:47Z</time>
      </trkpt>
      <trkpt lat="46.62944" lon="5.41336">
        <ele>216.4</ele>
        <time>2021-08-26T13:12:49Z</time>
      </trkpt>
      <trkpt lat="46.62953" lon="5.4134">
        <ele>216.6</ele>
        <time>2021-08-26T13:12:51Z</time>
      </trkpt>
      <trkpt lat="46.62963" lon="5.41345">
        <ele>217.2</ele>
        <time>2021-08-26T13:12:53Z</time>
      </trkpt>
      <trkpt lat="46.62967" lon="5.41346">
        <ele>217.6</ele>
        <time>2021-08-26T13:12:54Z</time>
      </trkpt>
      <trkpt lat="46.62972" lon="5.41348">
        <ele>218.2</ele>
        <time>2021-08-26T13:12:55Z</time>
      </trkpt>
      <trkpt lat="46.62981" lon="5.41352">
        <ele>219</ele>
        <time>2021-08-26T13:12:57Z</time>
      </trkpt>
      <trkpt lat="46.62986" lon="5.41354">
        <ele>219.2</ele>
        <time>2021-08-26T13:12:58Z</time>
      </trkpt>
      <trkpt lat="46.6299" lon="5.41356">
        <ele>219.4</ele>
        <time>2021-08-26T13:12:59Z</time>
      </trkpt>
      <trkpt lat="46.62998" lon="5.4136">
        <ele>220.2</ele>
        <time>2021-08-26T13:13:01Z</time>
      </trkpt>
      <trkpt lat="46.63002" lon="5.41361">
        <ele>220.4</ele>
        <time>2021-08-26T13:13:02Z</time>
      </trkpt>
      <trkpt lat="46.63006" lon="5.41364">
        <ele>220.8</ele>
        <time>2021-08-26T13:13:03Z</time>
      </trkpt>
      <trkpt lat="46.63015" lon="5.41368">
        <ele>221.4</ele>
        <time>2021-08-26T13:13:05Z</time>
      </trkpt>
      <trkpt lat="46.6302" lon="5.41371">
        <ele>221.6</ele>
        <time>2021-08-26T13:13:06Z</time>
      </trkpt>
      <trkpt lat="46.63024" lon="5.41374">
        <ele>221.6</ele>
        <time>2021-08-26T13:13:07Z</time>
      </trkpt>
      <trkpt lat="46.63029" lon="5.41378">
        <ele>221.8</ele>
        <time>2021-08-26T13:13:08Z</time>
      </trkpt>
      <trkpt lat="46.63033" lon="5.41381">
        <ele>221.8</ele>
        <time>2021-08-26T13:13:09Z</time>
      </trkpt>
      <trkpt lat="46.63041" lon="5.41389">
        <ele>222</ele>
        <time>2021-08-26T13:13:11Z</time>
      </trkpt>
      <trkpt lat="46.6305" lon="5.41397">
        <ele>222.4</ele>
        <time>2021-08-26T13:13:13Z</time>
      </trkpt>
      <trkpt lat="46.63054" lon="5.41402">
        <ele>222.6</ele>
        <time>2021-08-26T13:13:14Z</time>
      </trkpt>
      <trkpt lat="46.63058" lon="5.41407">
        <ele>223</ele>
        <time>2021-08-26T13:13:15Z</time>
      </trkpt>
      <trkpt lat="46.63066" lon="5.41417">
        <ele>223.6</ele>
        <time>2021-08-26T13:13:17Z</time>
      </trkpt>
      <trkpt lat="46.6307" lon="5.41423">
        <ele>223.8</ele>
        <time>2021-08-26T13:13:18Z</time>
      </trkpt>
      <trkpt lat="46.63075" lon="5.41429">
        <ele>224</ele>
        <time>2021-08-26T13:13:19Z</time>
      </trkpt>
      <trkpt lat="46.63084" lon="5.41442">
        <ele>224.2</ele>
        <time>2021-08-26T13:13:21Z</time>
      </trkpt>
      <trkpt lat="46.63094" lon="5.41455">
        <ele>224.2</ele>
        <time>2021-08-26T13:13:23Z</time>
      </trkpt>
      <trkpt lat="46.63104" lon="5.41469">
        <ele>224.2</ele>
        <time>2021-08-26T13:13:25Z</time>
      </trkpt>
      <trkpt lat="46.63114" lon="5.41484">
        <ele>224.2</ele>
        <time>2021-08-26T13:13:27Z</time>
      </trkpt>
      <trkpt lat="46.63123" lon="5.41502">
        <ele>224.2</ele>
        <time>2021-08-26T13:13:29Z</time>
      </trkpt>
      <trkpt lat="46.63131" lon="5.4152">
        <ele>224</ele>
        <time>2021-08-26T13:13:31Z</time>
      </trkpt>
      <trkpt lat="46.63139" lon="5.41537">
        <ele>224</ele>
        <time>2021-08-26T13:13:33Z</time>
      </trkpt>
      <trkpt lat="46.63147" lon="5.41555">
        <ele>223.8</ele>
        <time>2021-08-26T13:13:35Z</time>
      </trkpt>
      <trkpt lat="46.63156" lon="5.41573">
        <ele>223.8</ele>
        <time>2021-08-26T13:13:37Z</time>
      </trkpt>
      <trkpt lat="46.63165" lon="5.41591">
        <ele>223.8</ele>
        <time>2021-08-26T13:13:39Z</time>
      </trkpt>
      <trkpt lat="46.63174" lon="5.4161">
        <ele>223.8</ele>
        <time>2021-08-26T13:13:41Z</time>
      </trkpt>
      <trkpt lat="46.63183" lon="5.41628">
        <ele>224</ele>
        <time>2021-08-26T13:13:43Z</time>
      </trkpt>
      <trkpt lat="46.63191" lon="5.41647">
        <ele>224</ele>
        <time>2021-08-26T13:13:45Z</time>
      </trkpt>
      <trkpt lat="46.63195" lon="5.41657">
        <ele>224</ele>
        <time>2021-08-26T13:13:46Z</time>
      </trkpt>
      <trkpt lat="46.63199" lon="5.41666">
        <ele>223.8</ele>
        <time>2021-08-26T13:13:47Z</time>
      </trkpt>
      <trkpt lat="46.63207" lon="5.41684">
        <ele>223.8</ele>
        <time>2021-08-26T13:13:49Z</time>
      </trkpt>
      <trkpt lat="46.63215" lon="5.41702">
        <ele>223.8</ele>
        <time>2021-08-26T13:13:51Z</time>
      </trkpt>
      <trkpt lat="46.63224" lon="5.41718">
        <ele>223.8</ele>
        <time>2021-08-26T13:13:53Z</time>
      </trkpt>
      <trkpt lat="46.63229" lon="5.41725">
        <ele>224</ele>
        <time>2021-08-26T13:13:54Z</time>
      </trkpt>
      <trkpt lat="46.63234" lon="5.41732">
        <ele>224</ele>
        <time>2021-08-26T13:13:55Z</time>
      </trkpt>
      <trkpt lat="46.63244" lon="5.41745">
        <ele>224</ele>
        <time>2021-08-26T13:13:57Z</time>
      </trkpt>
      <trkpt lat="46.63254" lon="5.41757">
        <ele>224</ele>
        <time>2021-08-26T13:13:59Z</time>
      </trkpt>
      <trkpt lat="46.63264" lon="5.4177">
        <ele>224.2</ele>
        <time>2021-08-26T13:14:01Z</time>
      </trkpt>
      <trkpt lat="46.63274" lon="5.41784">
        <ele>224.2</ele>
        <time>2021-08-26T13:14:03Z</time>
      </trkpt>
      <trkpt lat="46.63284" lon="5.41798">
        <ele>224.4</ele>
        <time>2021-08-26T13:14:05Z</time>
      </trkpt>
      <trkpt lat="46.63295" lon="5.41813">
        <ele>224.4</ele>
        <time>2021-08-26T13:14:07Z</time>
      </trkpt>
      <trkpt lat="46.633" lon="5.41821">
        <ele>224.4</ele>
        <time>2021-08-26T13:14:08Z</time>
      </trkpt>
      <trkpt lat="46.63306" lon="5.41829">
        <ele>224.4</ele>
        <time>2021-08-26T13:14:09Z</time>
      </trkpt>
      <trkpt lat="46.63317" lon="5.41845">
        <ele>224.4</ele>
        <time>2021-08-26T13:14:11Z</time>
      </trkpt>
      <trkpt lat="46.63329" lon="5.41862">
        <ele>224.4</ele>
        <time>2021-08-26T13:14:13Z</time>
      </trkpt>
      <trkpt lat="46.6334" lon="5.41878">
        <ele>224</ele>
        <time>2021-08-26T13:14:15Z</time>
      </trkpt>
      <trkpt lat="46.63351" lon="5.41893">
        <ele>223.4</ele>
        <time>2021-08-26T13:14:17Z</time>
      </trkpt>
      <trkpt lat="46.63361" lon="5.41908">
        <ele>222.8</ele>
        <time>2021-08-26T13:14:19Z</time>
      </trkpt>
      <trkpt lat="46.63367" lon="5.41915">
        <ele>222.8</ele>
        <time>2021-08-26T13:14:20Z</time>
      </trkpt>
      <trkpt lat="46.63373" lon="5.4192">
        <ele>222.8</ele>
        <time>2021-08-26T13:14:21Z</time>
      </trkpt>
      <trkpt lat="46.63385" lon="5.4193">
        <ele>222.8</ele>
        <time>2021-08-26T13:14:23Z</time>
      </trkpt>
      <trkpt lat="46.63397" lon="5.4194">
        <ele>222.8</ele>
        <time>2021-08-26T13:14:25Z</time>
      </trkpt>
      <trkpt lat="46.63403" lon="5.41945">
        <ele>222.8</ele>
        <time>2021-08-26T13:14:26Z</time>
      </trkpt>
      <trkpt lat="46.63409" lon="5.4195">
        <ele>222.8</ele>
        <time>2021-08-26T13:14:27Z</time>
      </trkpt>
      <trkpt lat="46.63421" lon="5.41958">
        <ele>222.8</ele>
        <time>2021-08-26T13:14:29Z</time>
      </trkpt>
      <trkpt lat="46.63433" lon="5.41964">
        <ele>222.8</ele>
        <time>2021-08-26T13:14:31Z</time>
      </trkpt>
      <trkpt lat="46.63439" lon="5.41966">
        <ele>223</ele>
        <time>2021-08-26T13:14:32Z</time>
      </trkpt>
      <trkpt lat="46.63445" lon="5.41969">
        <ele>223.2</ele>
        <time>2021-08-26T13:14:33Z</time>
      </trkpt>
      <trkpt lat="46.63458" lon="5.41977">
        <ele>223.8</ele>
        <time>2021-08-26T13:14:35Z</time>
      </trkpt>
      <trkpt lat="46.63464" lon="5.41982">
        <ele>224</ele>
        <time>2021-08-26T13:14:36Z</time>
      </trkpt>
      <trkpt lat="46.6347" lon="5.41986">
        <ele>224.2</ele>
        <time>2021-08-26T13:14:37Z</time>
      </trkpt>
      <trkpt lat="46.63481" lon="5.41996">
        <ele>224.4</ele>
        <time>2021-08-26T13:14:39Z</time>
      </trkpt>
      <trkpt lat="46.63492" lon="5.42006">
        <ele>224.6</ele>
        <time>2021-08-26T13:14:41Z</time>
      </trkpt>
      <trkpt lat="46.63498" lon="5.42011">
        <ele>224.6</ele>
        <time>2021-08-26T13:14:42Z</time>
      </trkpt>
      <trkpt lat="46.63503" lon="5.42015">
        <ele>224.8</ele>
        <time>2021-08-26T13:14:43Z</time>
      </trkpt>
      <trkpt lat="46.63515" lon="5.42023">
        <ele>224.8</ele>
        <time>2021-08-26T13:14:45Z</time>
      </trkpt>
      <trkpt lat="46.63527" lon="5.4203">
        <ele>224.8</ele>
        <time>2021-08-26T13:14:47Z</time>
      </trkpt>
      <trkpt lat="46.63539" lon="5.42036">
        <ele>224.8</ele>
        <time>2021-08-26T13:14:49Z</time>
      </trkpt>
      <trkpt lat="46.63552" lon="5.42043">
        <ele>224.8</ele>
        <time>2021-08-26T13:14:51Z</time>
      </trkpt>
      <trkpt lat="46.63563" lon="5.42054">
        <ele>225</ele>
        <time>2021-08-26T13:14:53Z</time>
      </trkpt>
      <trkpt lat="46.63574" lon="5.42066">
        <ele>225</ele>
        <time>2021-08-26T13:14:55Z</time>
      </trkpt>
      <trkpt lat="46.6358" lon="5.42074">
        <ele>225</ele>
        <time>2021-08-26T13:14:56Z</time>
      </trkpt>
      <trkpt lat="46.63585" lon="5.42082">
        <ele>225</ele>
        <time>2021-08-26T13:14:57Z</time>
      </trkpt>
      <trkpt lat="46.63591" lon="5.42101">
        <ele>225</ele>
        <time>2021-08-26T13:14:59Z</time>
      </trkpt>
      <trkpt lat="46.63597" lon="5.42121">
        <ele>225</ele>
        <time>2021-08-26T13:15:01Z</time>
      </trkpt>
      <trkpt lat="46.63606" lon="5.42135">
        <ele>225</ele>
        <time>2021-08-26T13:15:03Z</time>
      </trkpt>
      <trkpt lat="46.63613" lon="5.4214">
        <ele>225</ele>
        <time>2021-08-26T13:15:04Z</time>
      </trkpt>
      <trkpt lat="46.63619" lon="5.42143">
        <ele>225</ele>
        <time>2021-08-26T13:15:05Z</time>
      </trkpt>
      <trkpt lat="46.63625" lon="5.42146">
        <ele>225</ele>
        <time>2021-08-26T13:15:06Z</time>
      </trkpt>
      <trkpt lat="46.63632" lon="5.42149">
        <ele>225.2</ele>
        <time>2021-08-26T13:15:07Z</time>
      </trkpt>
      <trkpt lat="46.63644" lon="5.42154">
        <ele>225.4</ele>
        <time>2021-08-26T13:15:09Z</time>
      </trkpt>
      <trkpt lat="46.6365" lon="5.42157">
        <ele>225.4</ele>
        <time>2021-08-26T13:15:10Z</time>
      </trkpt>
      <trkpt lat="46.63656" lon="5.42159">
        <ele>225.6</ele>
        <time>2021-08-26T13:15:11Z</time>
      </trkpt>
      <trkpt lat="46.63668" lon="5.42166">
        <ele>225.8</ele>
        <time>2021-08-26T13:15:13Z</time>
      </trkpt>
      <trkpt lat="46.63679" lon="5.42174">
        <ele>226.4</ele>
        <time>2021-08-26T13:15:15Z</time>
      </trkpt>
      <trkpt lat="46.63685" lon="5.42178">
        <ele>226.6</ele>
        <time>2021-08-26T13:15:16Z</time>
      </trkpt>
      <trkpt lat="46.63691" lon="5.42181">
        <ele>226.6</ele>
        <time>2021-08-26T13:15:17Z</time>
      </trkpt>
      <trkpt lat="46.63703" lon="5.4219">
        <ele>226.8</ele>
        <time>2021-08-26T13:15:19Z</time>
      </trkpt>
      <trkpt lat="46.63714" lon="5.42199">
        <ele>227</ele>
        <time>2021-08-26T13:15:21Z</time>
      </trkpt>
      <trkpt lat="46.63725" lon="5.42209">
        <ele>227.2</ele>
        <time>2021-08-26T13:15:23Z</time>
      </trkpt>
      <trkpt lat="46.6373" lon="5.42214">
        <ele>227.2</ele>
        <time>2021-08-26T13:15:24Z</time>
      </trkpt>
      <trkpt lat="46.63735" lon="5.42219">
        <ele>227.2</ele>
        <time>2021-08-26T13:15:25Z</time>
      </trkpt>
      <trkpt lat="46.63744" lon="5.4223">
        <ele>227.4</ele>
        <time>2021-08-26T13:15:27Z</time>
      </trkpt>
      <trkpt lat="46.63748" lon="5.42237">
        <ele>227.4</ele>
        <time>2021-08-26T13:15:28Z</time>
      </trkpt>
      <trkpt lat="46.63751" lon="5.42245">
        <ele>227.6</ele>
        <time>2021-08-26T13:15:29Z</time>
      </trkpt>
      <trkpt lat="46.63751" lon="5.42263">
        <ele>227.6</ele>
        <time>2021-08-26T13:15:31Z</time>
      </trkpt>
      <trkpt lat="46.63752" lon="5.42273">
        <ele>227.6</ele>
        <time>2021-08-26T13:15:32Z</time>
      </trkpt>
      <trkpt lat="46.63755" lon="5.42282">
        <ele>227.6</ele>
        <time>2021-08-26T13:15:33Z</time>
      </trkpt>
      <trkpt lat="46.63764" lon="5.42298">
        <ele>227.6</ele>
        <time>2021-08-26T13:15:35Z</time>
      </trkpt>
      <trkpt lat="46.63774" lon="5.42311">
        <ele>227.8</ele>
        <time>2021-08-26T13:15:37Z</time>
      </trkpt>
      <trkpt lat="46.6378" lon="5.42316">
        <ele>227.8</ele>
        <time>2021-08-26T13:15:38Z</time>
      </trkpt>
      <trkpt lat="46.63786" lon="5.42321">
        <ele>227.8</ele>
        <time>2021-08-26T13:15:39Z</time>
      </trkpt>
      <trkpt lat="46.63792" lon="5.42326">
        <ele>227.8</ele>
        <time>2021-08-26T13:15:40Z</time>
      </trkpt>
      <trkpt lat="46.63797" lon="5.42331">
        <ele>227.8</ele>
        <time>2021-08-26T13:15:41Z</time>
      </trkpt>
      <trkpt lat="46.63808" lon="5.42343">
        <ele>227.8</ele>
        <time>2021-08-26T13:15:43Z</time>
      </trkpt>
      <trkpt lat="46.63818" lon="5.42356">
        <ele>227.8</ele>
        <time>2021-08-26T13:15:45Z</time>
      </trkpt>
      <trkpt lat="46.63823" lon="5.42363">
        <ele>227.8</ele>
        <time>2021-08-26T13:15:46Z</time>
      </trkpt>
      <trkpt lat="46.63827" lon="5.4237">
        <ele>227.8</ele>
        <time>2021-08-26T13:15:47Z</time>
      </trkpt>
      <trkpt lat="46.63835" lon="5.42385">
        <ele>227.8</ele>
        <time>2021-08-26T13:15:49Z</time>
      </trkpt>
      <trkpt lat="46.63844" lon="5.42399">
        <ele>227.8</ele>
        <time>2021-08-26T13:15:51Z</time>
      </trkpt>
      <trkpt lat="46.63853" lon="5.42414">
        <ele>228.2</ele>
        <time>2021-08-26T13:15:53Z</time>
      </trkpt>
      <trkpt lat="46.63857" lon="5.42422">
        <ele>228.2</ele>
        <time>2021-08-26T13:15:54Z</time>
      </trkpt>
      <trkpt lat="46.63861" lon="5.42429">
        <ele>228.4</ele>
        <time>2021-08-26T13:15:55Z</time>
      </trkpt>
      <trkpt lat="46.63865" lon="5.42437">
        <ele>228.6</ele>
        <time>2021-08-26T13:15:56Z</time>
      </trkpt>
      <trkpt lat="46.63869" lon="5.42445">
        <ele>228.6</ele>
        <time>2021-08-26T13:15:57Z</time>
      </trkpt>
      <trkpt lat="46.63877" lon="5.42462">
        <ele>228.6</ele>
        <time>2021-08-26T13:15:59Z</time>
      </trkpt>
      <trkpt lat="46.63886" lon="5.4248">
        <ele>228.6</ele>
        <time>2021-08-26T13:16:01Z</time>
      </trkpt>
      <trkpt lat="46.63891" lon="5.42501">
        <ele>228.6</ele>
        <time>2021-08-26T13:16:03Z</time>
      </trkpt>
      <trkpt lat="46.63897" lon="5.42522">
        <ele>228.6</ele>
        <time>2021-08-26T13:16:05Z</time>
      </trkpt>
      <trkpt lat="46.63907" lon="5.4254">
        <ele>228.2</ele>
        <time>2021-08-26T13:16:07Z</time>
      </trkpt>
      <trkpt lat="46.63913" lon="5.42547">
        <ele>228</ele>
        <time>2021-08-26T13:16:08Z</time>
      </trkpt>
      <trkpt lat="46.63919" lon="5.42555">
        <ele>227.4</ele>
        <time>2021-08-26T13:16:09Z</time>
      </trkpt>
      <trkpt lat="46.63931" lon="5.42569">
        <ele>226.6</ele>
        <time>2021-08-26T13:16:11Z</time>
      </trkpt>
      <trkpt lat="46.63943" lon="5.42583">
        <ele>226.4</ele>
        <time>2021-08-26T13:16:13Z</time>
      </trkpt>
      <trkpt lat="46.63949" lon="5.4259">
        <ele>226.2</ele>
        <time>2021-08-26T13:16:14Z</time>
      </trkpt>
      <trkpt lat="46.63955" lon="5.42597">
        <ele>226</ele>
        <time>2021-08-26T13:16:15Z</time>
      </trkpt>
      <trkpt lat="46.63968" lon="5.4261">
        <ele>226</ele>
        <time>2021-08-26T13:16:17Z</time>
      </trkpt>
      <trkpt lat="46.63981" lon="5.42622">
        <ele>225.8</ele>
        <time>2021-08-26T13:16:19Z</time>
      </trkpt>
      <trkpt lat="46.63994" lon="5.42635">
        <ele>225.6</ele>
        <time>2021-08-26T13:16:21Z</time>
      </trkpt>
      <trkpt lat="46.64006" lon="5.4265">
        <ele>225.4</ele>
        <time>2021-08-26T13:16:23Z</time>
      </trkpt>
      <trkpt lat="46.64016" lon="5.42669">
        <ele>225.4</ele>
        <time>2021-08-26T13:16:25Z</time>
      </trkpt>
      <trkpt lat="46.64024" lon="5.42688">
        <ele>225.2</ele>
        <time>2021-08-26T13:16:27Z</time>
      </trkpt>
      <trkpt lat="46.64029" lon="5.42697">
        <ele>225.2</ele>
        <time>2021-08-26T13:16:28Z</time>
      </trkpt>
      <trkpt lat="46.64034" lon="5.42705">
        <ele>225.2</ele>
        <time>2021-08-26T13:16:29Z</time>
      </trkpt>
      <trkpt lat="46.64039" lon="5.42714">
        <ele>225</ele>
        <time>2021-08-26T13:16:30Z</time>
      </trkpt>
      <trkpt lat="46.64044" lon="5.42722">
        <ele>224.8</ele>
        <time>2021-08-26T13:16:31Z</time>
      </trkpt>
      <trkpt lat="46.64054" lon="5.42738">
        <ele>224.2</ele>
        <time>2021-08-26T13:16:33Z</time>
      </trkpt>
      <trkpt lat="46.6406" lon="5.42746">
        <ele>224</ele>
        <time>2021-08-26T13:16:34Z</time>
      </trkpt>
      <trkpt lat="46.64066" lon="5.42754">
        <ele>223.8</ele>
        <time>2021-08-26T13:16:35Z</time>
      </trkpt>
      <trkpt lat="46.64078" lon="5.42767">
        <ele>223.6</ele>
        <time>2021-08-26T13:16:37Z</time>
      </trkpt>
      <trkpt lat="46.64091" lon="5.4278">
        <ele>223.6</ele>
        <time>2021-08-26T13:16:39Z</time>
      </trkpt>
      <trkpt lat="46.64105" lon="5.4279">
        <ele>223.4</ele>
        <time>2021-08-26T13:16:41Z</time>
      </trkpt>
      <trkpt lat="46.64119" lon="5.42798">
        <ele>223.4</ele>
        <time>2021-08-26T13:16:43Z</time>
      </trkpt>
      <trkpt lat="46.64133" lon="5.42806">
        <ele>223.2</ele>
        <time>2021-08-26T13:16:45Z</time>
      </trkpt>
      <trkpt lat="46.6414" lon="5.42811">
        <ele>223.2</ele>
        <time>2021-08-26T13:16:46Z</time>
      </trkpt>
      <trkpt lat="46.64146" lon="5.42817">
        <ele>223.2</ele>
        <time>2021-08-26T13:16:47Z</time>
      </trkpt>
      <trkpt lat="46.64156" lon="5.42833">
        <ele>223</ele>
        <time>2021-08-26T13:16:49Z</time>
      </trkpt>
      <trkpt lat="46.64161" lon="5.42841">
        <ele>223</ele>
        <time>2021-08-26T13:16:50Z</time>
      </trkpt>
      <trkpt lat="46.64165" lon="5.4285">
        <ele>223</ele>
        <time>2021-08-26T13:16:51Z</time>
      </trkpt>
      <trkpt lat="46.64173" lon="5.42868">
        <ele>222.8</ele>
        <time>2021-08-26T13:16:53Z</time>
      </trkpt>
      <trkpt lat="46.6418" lon="5.42887">
        <ele>222.8</ele>
        <time>2021-08-26T13:16:55Z</time>
      </trkpt>
      <trkpt lat="46.64186" lon="5.42906">
        <ele>222.8</ele>
        <time>2021-08-26T13:16:57Z</time>
      </trkpt>
      <trkpt lat="46.64189" lon="5.42915">
        <ele>223</ele>
        <time>2021-08-26T13:16:58Z</time>
      </trkpt>
      <trkpt lat="46.64192" lon="5.42925">
        <ele>223</ele>
        <time>2021-08-26T13:16:59Z</time>
      </trkpt>
      <trkpt lat="46.64199" lon="5.42944">
        <ele>223</ele>
        <time>2021-08-26T13:17:01Z</time>
      </trkpt>
      <trkpt lat="46.64206" lon="5.42962">
        <ele>223</ele>
        <time>2021-08-26T13:17:03Z</time>
      </trkpt>
      <trkpt lat="46.64211" lon="5.42981">
        <ele>223.2</ele>
        <time>2021-08-26T13:17:05Z</time>
      </trkpt>
      <trkpt lat="46.64212" lon="5.43001">
        <ele>223.6</ele>
        <time>2021-08-26T13:17:07Z</time>
      </trkpt>
      <trkpt lat="46.64211" lon="5.43011">
        <ele>223.8</ele>
        <time>2021-08-26T13:17:08Z</time>
      </trkpt>
      <trkpt lat="46.64209" lon="5.43021">
        <ele>223.8</ele>
        <time>2021-08-26T13:17:09Z</time>
      </trkpt>
      <trkpt lat="46.64203" lon="5.43039">
        <ele>224</ele>
        <time>2021-08-26T13:17:11Z</time>
      </trkpt>
      <trkpt lat="46.64201" lon="5.43049">
        <ele>224</ele>
        <time>2021-08-26T13:17:12Z</time>
      </trkpt>
      <trkpt lat="46.64198" lon="5.43058">
        <ele>224.2</ele>
        <time>2021-08-26T13:17:13Z</time>
      </trkpt>
      <trkpt lat="46.64193" lon="5.43076">
        <ele>224.4</ele>
        <time>2021-08-26T13:17:15Z</time>
      </trkpt>
      <trkpt lat="46.64189" lon="5.43094">
        <ele>224.8</ele>
        <time>2021-08-26T13:17:17Z</time>
      </trkpt>
      <trkpt lat="46.64188" lon="5.43103">
        <ele>224.8</ele>
        <time>2021-08-26T13:17:18Z</time>
      </trkpt>
      <trkpt lat="46.64187" lon="5.43113">
        <ele>225</ele>
        <time>2021-08-26T13:17:19Z</time>
      </trkpt>
      <trkpt lat="46.64189" lon="5.43132">
        <ele>225.2</ele>
        <time>2021-08-26T13:17:21Z</time>
      </trkpt>
      <trkpt lat="46.6419" lon="5.43141">
        <ele>225.4</ele>
        <time>2021-08-26T13:17:22Z</time>
      </trkpt>
      <trkpt lat="46.64192" lon="5.4315">
        <ele>225.8</ele>
        <time>2021-08-26T13:17:23Z</time>
      </trkpt>
      <trkpt lat="46.64194" lon="5.43159">
        <ele>226</ele>
        <time>2021-08-26T13:17:24Z</time>
      </trkpt>
      <trkpt lat="46.64197" lon="5.43168">
        <ele>226.2</ele>
        <time>2021-08-26T13:17:25Z</time>
      </trkpt>
      <trkpt lat="46.64204" lon="5.43186">
        <ele>226.4</ele>
        <time>2021-08-26T13:17:27Z</time>
      </trkpt>
      <trkpt lat="46.64207" lon="5.43195">
        <ele>226.4</ele>
        <time>2021-08-26T13:17:28Z</time>
      </trkpt>
      <trkpt lat="46.64211" lon="5.43204">
        <ele>226.4</ele>
        <time>2021-08-26T13:17:29Z</time>
      </trkpt>
      <trkpt lat="46.6422" lon="5.43223">
        <ele>226.4</ele>
        <time>2021-08-26T13:17:31Z</time>
      </trkpt>
      <trkpt lat="46.6423" lon="5.43242">
        <ele>226.4</ele>
        <time>2021-08-26T13:17:33Z</time>
      </trkpt>
      <trkpt lat="46.6424" lon="5.43261">
        <ele>226.4</ele>
        <time>2021-08-26T13:17:35Z</time>
      </trkpt>
      <trkpt lat="46.64251" lon="5.4328">
        <ele>226.2</ele>
        <time>2021-08-26T13:17:37Z</time>
      </trkpt>
      <trkpt lat="46.64262" lon="5.43299">
        <ele>225.4</ele>
        <time>2021-08-26T13:17:39Z</time>
      </trkpt>
      <trkpt lat="46.64267" lon="5.43308">
        <ele>224.8</ele>
        <time>2021-08-26T13:17:40Z</time>
      </trkpt>
      <trkpt lat="46.64273" lon="5.43317">
        <ele>224.4</ele>
        <time>2021-08-26T13:17:41Z</time>
      </trkpt>
      <trkpt lat="46.64285" lon="5.43336">
        <ele>223.6</ele>
        <time>2021-08-26T13:17:43Z</time>
      </trkpt>
      <trkpt lat="46.6429" lon="5.43345">
        <ele>223.2</ele>
        <time>2021-08-26T13:17:44Z</time>
      </trkpt>
      <trkpt lat="46.64296" lon="5.43355">
        <ele>223</ele>
        <time>2021-08-26T13:17:45Z</time>
      </trkpt>
      <trkpt lat="46.64309" lon="5.43374">
        <ele>222.8</ele>
        <time>2021-08-26T13:17:47Z</time>
      </trkpt>
      <trkpt lat="46.64322" lon="5.43391">
        <ele>222.6</ele>
        <time>2021-08-26T13:17:49Z</time>
      </trkpt>
      <trkpt lat="46.64329" lon="5.43399">
        <ele>222.6</ele>
        <time>2021-08-26T13:17:50Z</time>
      </trkpt>
      <trkpt lat="46.64337" lon="5.43406">
        <ele>222.4</ele>
        <time>2021-08-26T13:17:51Z</time>
      </trkpt>
      <trkpt lat="46.64352" lon="5.43418">
        <ele>222</ele>
        <time>2021-08-26T13:17:53Z</time>
      </trkpt>
      <trkpt lat="46.64367" lon="5.43426">
        <ele>221.6</ele>
        <time>2021-08-26T13:17:55Z</time>
      </trkpt>
      <trkpt lat="46.64375" lon="5.4343">
        <ele>221.2</ele>
        <time>2021-08-26T13:17:56Z</time>
      </trkpt>
      <trkpt lat="46.64382" lon="5.43433">
        <ele>221.2</ele>
        <time>2021-08-26T13:17:57Z</time>
      </trkpt>
      <trkpt lat="46.64397" lon="5.43438">
        <ele>220.8</ele>
        <time>2021-08-26T13:17:59Z</time>
      </trkpt>
      <trkpt lat="46.64412" lon="5.43442">
        <ele>220.6</ele>
        <time>2021-08-26T13:18:01Z</time>
      </trkpt>
      <trkpt lat="46.64426" lon="5.43446">
        <ele>220.6</ele>
        <time>2021-08-26T13:18:03Z</time>
      </trkpt>
      <trkpt lat="46.6444" lon="5.43451">
        <ele>220.6</ele>
        <time>2021-08-26T13:18:05Z</time>
      </trkpt>
      <trkpt lat="46.64452" lon="5.43458">
        <ele>220.6</ele>
        <time>2021-08-26T13:18:07Z</time>
      </trkpt>
      <trkpt lat="46.64458" lon="5.43462">
        <ele>220.6</ele>
        <time>2021-08-26T13:18:08Z</time>
      </trkpt>
      <trkpt lat="46.64464" lon="5.43467">
        <ele>220.6</ele>
        <time>2021-08-26T13:18:09Z</time>
      </trkpt>
      <trkpt lat="46.64475" lon="5.43476">
        <ele>220.8</ele>
        <time>2021-08-26T13:18:11Z</time>
      </trkpt>
      <trkpt lat="46.64486" lon="5.43487">
        <ele>220.8</ele>
        <time>2021-08-26T13:18:13Z</time>
      </trkpt>
      <trkpt lat="46.64497" lon="5.43498">
        <ele>221.4</ele>
        <time>2021-08-26T13:18:15Z</time>
      </trkpt>
      <trkpt lat="46.64503" lon="5.43503">
        <ele>221.6</ele>
        <time>2021-08-26T13:18:16Z</time>
      </trkpt>
      <trkpt lat="46.64508" lon="5.43508">
        <ele>221.8</ele>
        <time>2021-08-26T13:18:17Z</time>
      </trkpt>
      <trkpt lat="46.6452" lon="5.43518">
        <ele>221.8</ele>
        <time>2021-08-26T13:18:19Z</time>
      </trkpt>
      <trkpt lat="46.64532" lon="5.43529">
        <ele>222</ele>
        <time>2021-08-26T13:18:21Z</time>
      </trkpt>
      <trkpt lat="46.64537" lon="5.43535">
        <ele>222</ele>
        <time>2021-08-26T13:18:22Z</time>
      </trkpt>
      <trkpt lat="46.64542" lon="5.43542">
        <ele>222.2</ele>
        <time>2021-08-26T13:18:23Z</time>
      </trkpt>
      <trkpt lat="46.64547" lon="5.43548">
        <ele>222.2</ele>
        <time>2021-08-26T13:18:24Z</time>
      </trkpt>
      <trkpt lat="46.64552" lon="5.43554">
        <ele>222.2</ele>
        <time>2021-08-26T13:18:25Z</time>
      </trkpt>
      <trkpt lat="46.64563" lon="5.43564">
        <ele>222.4</ele>
        <time>2021-08-26T13:18:27Z</time>
      </trkpt>
      <trkpt lat="46.64569" lon="5.43568">
        <ele>222.4</ele>
        <time>2021-08-26T13:18:28Z</time>
      </trkpt>
      <trkpt lat="46.64574" lon="5.43572">
        <ele>222.6</ele>
        <time>2021-08-26T13:18:29Z</time>
      </trkpt>
      <trkpt lat="46.6458" lon="5.43575">
        <ele>222.6</ele>
        <time>2021-08-26T13:18:30Z</time>
      </trkpt>
      <trkpt lat="46.64586" lon="5.43577">
        <ele>222.8</ele>
        <time>2021-08-26T13:18:31Z</time>
      </trkpt>
      <trkpt lat="46.64597" lon="5.4358">
        <ele>222.8</ele>
        <time>2021-08-26T13:18:33Z</time>
      </trkpt>
      <trkpt lat="46.64609" lon="5.43583">
        <ele>223</ele>
        <time>2021-08-26T13:18:35Z</time>
      </trkpt>
      <trkpt lat="46.64621" lon="5.43588">
        <ele>223</ele>
        <time>2021-08-26T13:18:37Z</time>
      </trkpt>
      <trkpt lat="46.64631" lon="5.43594">
        <ele>223.2</ele>
        <time>2021-08-26T13:18:39Z</time>
      </trkpt>
      <trkpt lat="46.64641" lon="5.43602">
        <ele>223.8</ele>
        <time>2021-08-26T13:18:41Z</time>
      </trkpt>
      <trkpt lat="46.6465" lon="5.4361">
        <ele>224.2</ele>
        <time>2021-08-26T13:18:43Z</time>
      </trkpt>
      <trkpt lat="46.6466" lon="5.43619">
        <ele>224.4</ele>
        <time>2021-08-26T13:18:45Z</time>
      </trkpt>
      <trkpt lat="46.64665" lon="5.43624">
        <ele>224.6</ele>
        <time>2021-08-26T13:18:46Z</time>
      </trkpt>
      <trkpt lat="46.6467" lon="5.43628">
        <ele>225</ele>
        <time>2021-08-26T13:18:47Z</time>
      </trkpt>
      <trkpt lat="46.6468" lon="5.43635">
        <ele>225.4</ele>
        <time>2021-08-26T13:18:49Z</time>
      </trkpt>
      <trkpt lat="46.64691" lon="5.43642">
        <ele>225.6</ele>
        <time>2021-08-26T13:18:51Z</time>
      </trkpt>
      <trkpt lat="46.64701" lon="5.43648">
        <ele>225.8</ele>
        <time>2021-08-26T13:18:53Z</time>
      </trkpt>
      <trkpt lat="46.64711" lon="5.43654">
        <ele>226</ele>
        <time>2021-08-26T13:18:55Z</time>
      </trkpt>
      <trkpt lat="46.64716" lon="5.43656">
        <ele>226.2</ele>
        <time>2021-08-26T13:18:56Z</time>
      </trkpt>
      <trkpt lat="46.64721" lon="5.43659">
        <ele>226.4</ele>
        <time>2021-08-26T13:18:57Z</time>
      </trkpt>
      <trkpt lat="46.64731" lon="5.43664">
        <ele>226.8</ele>
        <time>2021-08-26T13:18:59Z</time>
      </trkpt>
      <trkpt lat="46.64742" lon="5.43669">
        <ele>227.2</ele>
        <time>2021-08-26T13:19:01Z</time>
      </trkpt>
      <trkpt lat="46.64747" lon="5.43672">
        <ele>227.4</ele>
        <time>2021-08-26T13:19:02Z</time>
      </trkpt>
      <trkpt lat="46.64753" lon="5.43675">
        <ele>227.8</ele>
        <time>2021-08-26T13:19:03Z</time>
      </trkpt>
      <trkpt lat="46.64763" lon="5.43681">
        <ele>228.6</ele>
        <time>2021-08-26T13:19:05Z</time>
      </trkpt>
      <trkpt lat="46.64768" lon="5.43685">
        <ele>228.8</ele>
        <time>2021-08-26T13:19:06Z</time>
      </trkpt>
      <trkpt lat="46.64773" lon="5.43689">
        <ele>229</ele>
        <time>2021-08-26T13:19:07Z</time>
      </trkpt>
      <trkpt lat="46.64783" lon="5.43699">
        <ele>229.2</ele>
        <time>2021-08-26T13:19:09Z</time>
      </trkpt>
      <trkpt lat="46.64791" lon="5.43711">
        <ele>229.4</ele>
        <time>2021-08-26T13:19:11Z</time>
      </trkpt>
      <trkpt lat="46.64795" lon="5.43719">
        <ele>229.6</ele>
        <time>2021-08-26T13:19:12Z</time>
      </trkpt>
      <trkpt lat="46.64799" lon="5.43727">
        <ele>229.6</ele>
        <time>2021-08-26T13:19:13Z</time>
      </trkpt>
      <trkpt lat="46.64805" lon="5.43745">
        <ele>229.6</ele>
        <time>2021-08-26T13:19:15Z</time>
      </trkpt>
      <trkpt lat="46.64807" lon="5.43754">
        <ele>229.6</ele>
        <time>2021-08-26T13:19:16Z</time>
      </trkpt>
      <trkpt lat="46.6481" lon="5.43764">
        <ele>229.6</ele>
        <time>2021-08-26T13:19:17Z</time>
      </trkpt>
      <trkpt lat="46.64815" lon="5.43784">
        <ele>229.6</ele>
        <time>2021-08-26T13:19:19Z</time>
      </trkpt>
      <trkpt lat="46.64823" lon="5.43802">
        <ele>229.6</ele>
        <time>2021-08-26T13:19:21Z</time>
      </trkpt>
      <trkpt lat="46.64833" lon="5.43817">
        <ele>229.4</ele>
        <time>2021-08-26T13:19:23Z</time>
      </trkpt>
      <trkpt lat="46.64845" lon="5.43831">
        <ele>229</ele>
        <time>2021-08-26T13:19:25Z</time>
      </trkpt>
      <trkpt lat="46.64859" lon="5.43843">
        <ele>228.4</ele>
        <time>2021-08-26T13:19:27Z</time>
      </trkpt>
      <trkpt lat="46.64873" lon="5.43854">
        <ele>228.4</ele>
        <time>2021-08-26T13:19:29Z</time>
      </trkpt>
      <trkpt lat="46.64887" lon="5.43865">
        <ele>228.2</ele>
        <time>2021-08-26T13:19:31Z</time>
      </trkpt>
      <trkpt lat="46.64899" lon="5.4388">
        <ele>227.6</ele>
        <time>2021-08-26T13:19:33Z</time>
      </trkpt>
      <trkpt lat="46.64906" lon="5.43886">
        <ele>227.2</ele>
        <time>2021-08-26T13:19:34Z</time>
      </trkpt>
      <trkpt lat="46.64913" lon="5.43891">
        <ele>226.8</ele>
        <time>2021-08-26T13:19:35Z</time>
      </trkpt>
      <trkpt lat="46.64926" lon="5.43902">
        <ele>226.2</ele>
        <time>2021-08-26T13:19:37Z</time>
      </trkpt>
      <trkpt lat="46.64932" lon="5.43908">
        <ele>226.2</ele>
        <time>2021-08-26T13:19:38Z</time>
      </trkpt>
      <trkpt lat="46.64938" lon="5.43914">
        <ele>226</ele>
        <time>2021-08-26T13:19:39Z</time>
      </trkpt>
      <trkpt lat="46.64943" lon="5.43919">
        <ele>226</ele>
        <time>2021-08-26T13:19:40Z</time>
      </trkpt>
      <trkpt lat="46.64949" lon="5.43925">
        <ele>226</ele>
        <time>2021-08-26T13:19:41Z</time>
      </trkpt>
      <trkpt lat="46.6496" lon="5.43936">
        <ele>226</ele>
        <time>2021-08-26T13:19:43Z</time>
      </trkpt>
      <trkpt lat="46.64972" lon="5.43948">
        <ele>226</ele>
        <time>2021-08-26T13:19:45Z</time>
      </trkpt>
      <trkpt lat="46.64982" lon="5.43959">
        <ele>226.2</ele>
        <time>2021-08-26T13:19:47Z</time>
      </trkpt>
      <trkpt lat="46.64993" lon="5.43971">
        <ele>226.6</ele>
        <time>2021-08-26T13:19:49Z</time>
      </trkpt>
      <trkpt lat="46.65004" lon="5.43982">
        <ele>227</ele>
        <time>2021-08-26T13:19:51Z</time>
      </trkpt>
      <trkpt lat="46.65009" lon="5.43988">
        <ele>227.2</ele>
        <time>2021-08-26T13:19:52Z</time>
      </trkpt>
      <trkpt lat="46.65014" lon="5.43993">
        <ele>227.6</ele>
        <time>2021-08-26T13:19:53Z</time>
      </trkpt>
      <trkpt lat="46.65025" lon="5.44004">
        <ele>228.4</ele>
        <time>2021-08-26T13:19:55Z</time>
      </trkpt>
      <trkpt lat="46.65036" lon="5.44012">
        <ele>228.6</ele>
        <time>2021-08-26T13:19:57Z</time>
      </trkpt>
      <trkpt lat="46.65048" lon="5.44017">
        <ele>229</ele>
        <time>2021-08-26T13:19:59Z</time>
      </trkpt>
      <trkpt lat="46.6506" lon="5.44018">
        <ele>229.2</ele>
        <time>2021-08-26T13:20:01Z</time>
      </trkpt>
      <trkpt lat="46.65067" lon="5.44018">
        <ele>229.4</ele>
        <time>2021-08-26T13:20:02Z</time>
      </trkpt>
      <trkpt lat="46.65073" lon="5.44018">
        <ele>229.4</ele>
        <time>2021-08-26T13:20:03Z</time>
      </trkpt>
      <trkpt lat="46.65079" lon="5.44018">
        <ele>229.6</ele>
        <time>2021-08-26T13:20:04Z</time>
      </trkpt>
      <trkpt lat="46.65085" lon="5.44019">
        <ele>229.6</ele>
        <time>2021-08-26T13:20:05Z</time>
      </trkpt>
      <trkpt lat="46.65097" lon="5.44023">
        <ele>229.6</ele>
        <time>2021-08-26T13:20:07Z</time>
      </trkpt>
      <trkpt lat="46.65103" lon="5.44025">
        <ele>229.6</ele>
        <time>2021-08-26T13:20:08Z</time>
      </trkpt>
      <trkpt lat="46.65108" lon="5.44029">
        <ele>229.8</ele>
        <time>2021-08-26T13:20:09Z</time>
      </trkpt>
      <trkpt lat="46.65118" lon="5.44039">
        <ele>229.8</ele>
        <time>2021-08-26T13:20:11Z</time>
      </trkpt>
      <trkpt lat="46.65122" lon="5.44046">
        <ele>230</ele>
        <time>2021-08-26T13:20:12Z</time>
      </trkpt>
      <trkpt lat="46.65127" lon="5.44052">
        <ele>230</ele>
        <time>2021-08-26T13:20:13Z</time>
      </trkpt>
      <trkpt lat="46.65135" lon="5.44064">
        <ele>230.2</ele>
        <time>2021-08-26T13:20:15Z</time>
      </trkpt>
      <trkpt lat="46.65144" lon="5.44076">
        <ele>230</ele>
        <time>2021-08-26T13:20:17Z</time>
      </trkpt>
      <trkpt lat="46.65154" lon="5.44086">
        <ele>230.2</ele>
        <time>2021-08-26T13:20:19Z</time>
      </trkpt>
      <trkpt lat="46.65165" lon="5.44088">
        <ele>230.2</ele>
        <time>2021-08-26T13:20:21Z</time>
      </trkpt>
      <trkpt lat="46.65171" lon="5.44084">
        <ele>230.2</ele>
        <time>2021-08-26T13:20:22Z</time>
      </trkpt>
      <trkpt lat="46.65176" lon="5.4408">
        <ele>230.2</ele>
        <time>2021-08-26T13:20:23Z</time>
      </trkpt>
      <trkpt lat="46.65187" lon="5.44072">
        <ele>230.2</ele>
        <time>2021-08-26T13:20:25Z</time>
      </trkpt>
      <trkpt lat="46.652" lon="5.44065">
        <ele>230</ele>
        <time>2021-08-26T13:20:27Z</time>
      </trkpt>
      <trkpt lat="46.65212" lon="5.44059">
        <ele>229.8</ele>
        <time>2021-08-26T13:20:29Z</time>
      </trkpt>
      <trkpt lat="46.65225" lon="5.44056">
        <ele>229.8</ele>
        <time>2021-08-26T13:20:31Z</time>
      </trkpt>
      <trkpt lat="46.65239" lon="5.44053">
        <ele>229.8</ele>
        <time>2021-08-26T13:20:33Z</time>
      </trkpt>
      <trkpt lat="46.65252" lon="5.4405">
        <ele>229.6</ele>
        <time>2021-08-26T13:20:35Z</time>
      </trkpt>
      <trkpt lat="46.65265" lon="5.44046">
        <ele>229.6</ele>
        <time>2021-08-26T13:20:37Z</time>
      </trkpt>
      <trkpt lat="46.65278" lon="5.44043">
        <ele>229.6</ele>
        <time>2021-08-26T13:20:39Z</time>
      </trkpt>
      <trkpt lat="46.65292" lon="5.44039">
        <ele>229.6</ele>
        <time>2021-08-26T13:20:41Z</time>
      </trkpt>
      <trkpt lat="46.65305" lon="5.44036">
        <ele>229.4</ele>
        <time>2021-08-26T13:20:43Z</time>
      </trkpt>
      <trkpt lat="46.65319" lon="5.44037">
        <ele>229.4</ele>
        <time>2021-08-26T13:20:45Z</time>
      </trkpt>
      <trkpt lat="46.65333" lon="5.44041">
        <ele>229</ele>
        <time>2021-08-26T13:20:47Z</time>
      </trkpt>
      <trkpt lat="46.65347" lon="5.44045">
        <ele>228.8</ele>
        <time>2021-08-26T13:20:49Z</time>
      </trkpt>
      <trkpt lat="46.65354" lon="5.44047">
        <ele>228.2</ele>
        <time>2021-08-26T13:20:50Z</time>
      </trkpt>
      <trkpt lat="46.6536" lon="5.44048">
        <ele>227.8</ele>
        <time>2021-08-26T13:20:51Z</time>
      </trkpt>
      <trkpt lat="46.65373" lon="5.44052">
        <ele>227.6</ele>
        <time>2021-08-26T13:20:53Z</time>
      </trkpt>
      <trkpt lat="46.65385" lon="5.44055">
        <ele>227.4</ele>
        <time>2021-08-26T13:20:55Z</time>
      </trkpt>
      <trkpt lat="46.65397" lon="5.44056">
        <ele>227.4</ele>
        <time>2021-08-26T13:20:57Z</time>
      </trkpt>
      <trkpt lat="46.65403" lon="5.44057">
        <ele>227.4</ele>
        <time>2021-08-26T13:20:58Z</time>
      </trkpt>
      <trkpt lat="46.65408" lon="5.44057">
        <ele>227.4</ele>
        <time>2021-08-26T13:20:59Z</time>
      </trkpt>
      <trkpt lat="46.65418" lon="5.44057">
        <ele>227.4</ele>
        <time>2021-08-26T13:21:01Z</time>
      </trkpt>
      <trkpt lat="46.65429" lon="5.44057">
        <ele>227.6</ele>
        <time>2021-08-26T13:21:03Z</time>
      </trkpt>
      <trkpt lat="46.65438" lon="5.44058">
        <ele>228</ele>
        <time>2021-08-26T13:21:05Z</time>
      </trkpt>
      <trkpt lat="46.65447" lon="5.44058">
        <ele>228.4</ele>
        <time>2021-08-26T13:21:07Z</time>
      </trkpt>
      <trkpt lat="46.65453" lon="5.44059">
        <ele>228.8</ele>
        <time>2021-08-26T13:21:09Z</time>
      </trkpt>
      <trkpt lat="46.65456" lon="5.44059">
        <ele>228.8</ele>
        <time>2021-08-26T13:21:10Z</time>
      </trkpt>
      <trkpt lat="46.65458" lon="5.44059">
        <ele>228.8</ele>
        <time>2021-08-26T13:21:11Z</time>
      </trkpt>
      <trkpt lat="46.65462" lon="5.44059">
        <ele>229.2</ele>
        <time>2021-08-26T13:21:13Z</time>
      </trkpt>
      <trkpt lat="46.65464" lon="5.44059">
        <ele>229.4</ele>
        <time>2021-08-26T13:21:14Z</time>
      </trkpt>
      <trkpt lat="46.65466" lon="5.44058">
        <ele>229.6</ele>
        <time>2021-08-26T13:21:15Z</time>
      </trkpt>
      <trkpt lat="46.65465" lon="5.44056">
        <ele>230</ele>
        <time>2021-08-26T13:21:17Z</time>
      </trkpt>
      <trkpt lat="46.65462" lon="5.44056">
        <ele>230.2</ele>
        <time>2021-08-26T13:21:19Z</time>
      </trkpt>
      <trkpt lat="46.65457" lon="5.44057">
        <ele>230.2</ele>
        <time>2021-08-26T13:21:21Z</time>
      </trkpt>
      <trkpt lat="46.65453" lon="5.44056">
        <ele>230.2</ele>
        <time>2021-08-26T13:21:22Z</time>
      </trkpt>
      <trkpt lat="46.6545" lon="5.44056">
        <ele>230.2</ele>
        <time>2021-08-26T13:21:23Z</time>
      </trkpt>
      <trkpt lat="46.65442" lon="5.44056">
        <ele>230.2</ele>
        <time>2021-08-26T13:21:25Z</time>
      </trkpt>
      <trkpt lat="46.65434" lon="5.44055">
        <ele>230.2</ele>
        <time>2021-08-26T13:21:27Z</time>
      </trkpt>
      <trkpt lat="46.65424" lon="5.44055">
        <ele>230</ele>
        <time>2021-08-26T13:21:29Z</time>
      </trkpt>
      <trkpt lat="46.65414" lon="5.44053">
        <ele>229.8</ele>
        <time>2021-08-26T13:21:31Z</time>
      </trkpt>
      <trkpt lat="46.65409" lon="5.44053">
        <ele>229.8</ele>
        <time>2021-08-26T13:21:32Z</time>
      </trkpt>
      <trkpt lat="46.65404" lon="5.44053">
        <ele>229.6</ele>
        <time>2021-08-26T13:21:33Z</time>
      </trkpt>
      <trkpt lat="46.65398" lon="5.44053">
        <ele>229.4</ele>
        <time>2021-08-26T13:21:34Z</time>
      </trkpt>
      <trkpt lat="46.65393" lon="5.44052">
        <ele>229.4</ele>
        <time>2021-08-26T13:21:35Z</time>
      </trkpt>
      <trkpt lat="46.65382" lon="5.44051">
        <ele>229.2</ele>
        <time>2021-08-26T13:21:37Z</time>
      </trkpt>
      <trkpt lat="46.6537" lon="5.44047">
        <ele>228.8</ele>
        <time>2021-08-26T13:21:39Z</time>
      </trkpt>
      <trkpt lat="46.65364" lon="5.44046">
        <ele>228.8</ele>
        <time>2021-08-26T13:21:40Z</time>
      </trkpt>
      <trkpt lat="46.65358" lon="5.44044">
        <ele>228.6</ele>
        <time>2021-08-26T13:21:41Z</time>
      </trkpt>
      <trkpt lat="46.65346" lon="5.44041">
        <ele>228.2</ele>
        <time>2021-08-26T13:21:43Z</time>
      </trkpt>
      <trkpt lat="46.65334" lon="5.44037">
        <ele>228</ele>
        <time>2021-08-26T13:21:45Z</time>
      </trkpt>
      <trkpt lat="46.65322" lon="5.44034">
        <ele>227.8</ele>
        <time>2021-08-26T13:21:47Z</time>
      </trkpt>
      <trkpt lat="46.65311" lon="5.44031">
        <ele>227.8</ele>
        <time>2021-08-26T13:21:49Z</time>
      </trkpt>
      <trkpt lat="46.65301" lon="5.4403">
        <ele>227.8</ele>
        <time>2021-08-26T13:21:51Z</time>
      </trkpt>
      <trkpt lat="46.65297" lon="5.4403">
        <ele>227.8</ele>
        <time>2021-08-26T13:21:52Z</time>
      </trkpt>
      <trkpt lat="46.65293" lon="5.44032">
        <ele>227.8</ele>
        <time>2021-08-26T13:21:53Z</time>
      </trkpt>
      <trkpt lat="46.65291" lon="5.44037">
        <ele>227.8</ele>
        <time>2021-08-26T13:21:55Z</time>
      </trkpt>
      <trkpt lat="46.65295" lon="5.44038">
        <ele>228</ele>
        <time>2021-08-26T13:21:57Z</time>
      </trkpt>
      <trkpt lat="46.65298" lon="5.44037">
        <ele>228.2</ele>
        <time>2021-08-26T13:21:58Z</time>
      </trkpt>
      <trkpt lat="46.65302" lon="5.44036">
        <ele>228.4</ele>
        <time>2021-08-26T13:21:59Z</time>
      </trkpt>
      <trkpt lat="46.6531" lon="5.44036">
        <ele>228.6</ele>
        <time>2021-08-26T13:22:01Z</time>
      </trkpt>
      <trkpt lat="46.65315" lon="5.44037">
        <ele>228.6</ele>
        <time>2021-08-26T13:22:02Z</time>
      </trkpt>
      <trkpt lat="46.65319" lon="5.44037">
        <ele>228.6</ele>
        <time>2021-08-26T13:22:03Z</time>
      </trkpt>
      <trkpt lat="46.65327" lon="5.44039">
        <ele>228.6</ele>
        <time>2021-08-26T13:22:05Z</time>
      </trkpt>
      <trkpt lat="46.65332" lon="5.44041">
        <ele>228.6</ele>
        <time>2021-08-26T13:22:07Z</time>
      </trkpt>
      <trkpt lat="46.65336" lon="5.44043">
        <ele>228.4</ele>
        <time>2021-08-26T13:22:09Z</time>
      </trkpt>
      <trkpt lat="46.65337" lon="5.44042">
        <ele>228.4</ele>
        <time>2021-08-26T13:22:10Z</time>
      </trkpt>
      <trkpt lat="46.65336" lon="5.4404">
        <ele>228.4</ele>
        <time>2021-08-26T13:22:11Z</time>
      </trkpt>
      <trkpt lat="46.65331" lon="5.44038">
        <ele>228.2</ele>
        <time>2021-08-26T13:22:13Z</time>
      </trkpt>
      <trkpt lat="46.65327" lon="5.44037">
        <ele>228.2</ele>
        <time>2021-08-26T13:22:14Z</time>
      </trkpt>
      <trkpt lat="46.65322" lon="5.44036">
        <ele>228.2</ele>
        <time>2021-08-26T13:22:15Z</time>
      </trkpt>
      <trkpt lat="46.65312" lon="5.44033">
        <ele>228.2</ele>
        <time>2021-08-26T13:22:17Z</time>
      </trkpt>
      <trkpt lat="46.65307" lon="5.44032">
        <ele>228.2</ele>
        <time>2021-08-26T13:22:18Z</time>
      </trkpt>
      <trkpt lat="46.65302" lon="5.44034">
        <ele>228.2</ele>
        <time>2021-08-26T13:22:19Z</time>
      </trkpt>
      <trkpt lat="46.65298" lon="5.44038">
        <ele>228.2</ele>
        <time>2021-08-26T13:22:20Z</time>
      </trkpt>
      <trkpt lat="46.65296" lon="5.44045">
        <ele>228.2</ele>
        <time>2021-08-26T13:22:21Z</time>
      </trkpt>
      <trkpt lat="46.65291" lon="5.44059">
        <ele>228.2</ele>
        <time>2021-08-26T13:22:23Z</time>
      </trkpt>
      <trkpt lat="46.65288" lon="5.44066">
        <ele>228.2</ele>
        <time>2021-08-26T13:22:24Z</time>
      </trkpt>
      <trkpt lat="46.65285" lon="5.44072">
        <ele>228.2</ele>
        <time>2021-08-26T13:22:25Z</time>
      </trkpt>
      <trkpt lat="46.65279" lon="5.44085">
        <ele>228.4</ele>
        <time>2021-08-26T13:22:27Z</time>
      </trkpt>
      <trkpt lat="46.65273" lon="5.44097">
        <ele>228.6</ele>
        <time>2021-08-26T13:22:29Z</time>
      </trkpt>
      <trkpt lat="46.65265" lon="5.4411">
        <ele>229</ele>
        <time>2021-08-26T13:22:31Z</time>
      </trkpt>
      <trkpt lat="46.65258" lon="5.44123">
        <ele>229.2</ele>
        <time>2021-08-26T13:22:33Z</time>
      </trkpt>
      <trkpt lat="46.65254" lon="5.4413">
        <ele>229.4</ele>
        <time>2021-08-26T13:22:34Z</time>
      </trkpt>
      <trkpt lat="46.6525" lon="5.44136">
        <ele>229.4</ele>
        <time>2021-08-26T13:22:35Z</time>
      </trkpt>
      <trkpt lat="46.65243" lon="5.44149">
        <ele>229.6</ele>
        <time>2021-08-26T13:22:37Z</time>
      </trkpt>
      <trkpt lat="46.65235" lon="5.44161">
        <ele>229.8</ele>
        <time>2021-08-26T13:22:39Z</time>
      </trkpt>
      <trkpt lat="46.65228" lon="5.44173">
        <ele>229.8</ele>
        <time>2021-08-26T13:22:41Z</time>
      </trkpt>
      <trkpt lat="46.65225" lon="5.44178">
        <ele>230</ele>
        <time>2021-08-26T13:22:42Z</time>
      </trkpt>
      <trkpt lat="46.65222" lon="5.44183">
        <ele>230</ele>
        <time>2021-08-26T13:22:43Z</time>
      </trkpt>
      <trkpt lat="46.65221" lon="5.44186">
        <ele>230.2</ele>
        <time>2021-08-26T13:22:44Z</time>
      </trkpt>
      <trkpt lat="46.65221" lon="5.4419">
        <ele>230.2</ele>
        <time>2021-08-26T13:22:45Z</time>
      </trkpt>
      <trkpt lat="46.65223" lon="5.44199">
        <ele>230.4</ele>
        <time>2021-08-26T13:22:47Z</time>
      </trkpt>
      <trkpt lat="46.65225" lon="5.44205">
        <ele>230.4</ele>
        <time>2021-08-26T13:22:48Z</time>
      </trkpt>
      <trkpt lat="46.65229" lon="5.4421">
        <ele>230.6</ele>
        <time>2021-08-26T13:22:49Z</time>
      </trkpt>
      <trkpt lat="46.65233" lon="5.44215">
        <ele>230.6</ele>
        <time>2021-08-26T13:22:50Z</time>
      </trkpt>
      <trkpt lat="46.65237" lon="5.44221">
        <ele>230.6</ele>
        <time>2021-08-26T13:22:51Z</time>
      </trkpt>
      <trkpt lat="46.65242" lon="5.44228">
        <ele>230.6</ele>
        <time>2021-08-26T13:22:52Z</time>
      </trkpt>
      <trkpt lat="46.65247" lon="5.44234">
        <ele>230.6</ele>
        <time>2021-08-26T13:22:53Z</time>
      </trkpt>
      <trkpt lat="46.65258" lon="5.44245">
        <ele>230.6</ele>
        <time>2021-08-26T13:22:55Z</time>
      </trkpt>
      <trkpt lat="46.6527" lon="5.44255">
        <ele>230.6</ele>
        <time>2021-08-26T13:22:57Z</time>
      </trkpt>
      <trkpt lat="46.65275" lon="5.4426">
        <ele>230.6</ele>
        <time>2021-08-26T13:22:58Z</time>
      </trkpt>
      <trkpt lat="46.65281" lon="5.44264">
        <ele>230.6</ele>
        <time>2021-08-26T13:22:59Z</time>
      </trkpt>
      <trkpt lat="46.65293" lon="5.44272">
        <ele>230.6</ele>
        <time>2021-08-26T13:23:01Z</time>
      </trkpt>
      <trkpt lat="46.65304" lon="5.4428">
        <ele>230.6</ele>
        <time>2021-08-26T13:23:03Z</time>
      </trkpt>
      <trkpt lat="46.6531" lon="5.44284">
        <ele>230.4</ele>
        <time>2021-08-26T13:23:04Z</time>
      </trkpt>
      <trkpt lat="46.65315" lon="5.44289">
        <ele>230.4</ele>
        <time>2021-08-26T13:23:05Z</time>
      </trkpt>
      <trkpt lat="46.65326" lon="5.44297">
        <ele>230.2</ele>
        <time>2021-08-26T13:23:07Z</time>
      </trkpt>
      <trkpt lat="46.65337" lon="5.44306">
        <ele>230</ele>
        <time>2021-08-26T13:23:09Z</time>
      </trkpt>
      <trkpt lat="46.65348" lon="5.44315">
        <ele>230</ele>
        <time>2021-08-26T13:23:11Z</time>
      </trkpt>
      <trkpt lat="46.65358" lon="5.44325">
        <ele>230</ele>
        <time>2021-08-26T13:23:13Z</time>
      </trkpt>
      <trkpt lat="46.65368" lon="5.44335">
        <ele>229.8</ele>
        <time>2021-08-26T13:23:15Z</time>
      </trkpt>
      <trkpt lat="46.65378" lon="5.44346">
        <ele>229.8</ele>
        <time>2021-08-26T13:23:17Z</time>
      </trkpt>
      <trkpt lat="46.65388" lon="5.44358">
        <ele>229.8</ele>
        <time>2021-08-26T13:23:19Z</time>
      </trkpt>
      <trkpt lat="46.65393" lon="5.44364">
        <ele>229.6</ele>
        <time>2021-08-26T13:23:20Z</time>
      </trkpt>
      <trkpt lat="46.65398" lon="5.4437">
        <ele>229.6</ele>
        <time>2021-08-26T13:23:21Z</time>
      </trkpt>
      <trkpt lat="46.65408" lon="5.44382">
        <ele>229.8</ele>
        <time>2021-08-26T13:23:23Z</time>
      </trkpt>
      <trkpt lat="46.65418" lon="5.44396">
        <ele>229.8</ele>
        <time>2021-08-26T13:23:25Z</time>
      </trkpt>
      <trkpt lat="46.65427" lon="5.4441">
        <ele>229.8</ele>
        <time>2021-08-26T13:23:27Z</time>
      </trkpt>
      <trkpt lat="46.65431" lon="5.44417">
        <ele>229.6</ele>
        <time>2021-08-26T13:23:28Z</time>
      </trkpt>
      <trkpt lat="46.65435" lon="5.44424">
        <ele>229.6</ele>
        <time>2021-08-26T13:23:29Z</time>
      </trkpt>
      <trkpt lat="46.65444" lon="5.44439">
        <ele>229.6</ele>
        <time>2021-08-26T13:23:31Z</time>
      </trkpt>
      <trkpt lat="46.65449" lon="5.44446">
        <ele>229.6</ele>
        <time>2021-08-26T13:23:32Z</time>
      </trkpt>
      <trkpt lat="46.65454" lon="5.44453">
        <ele>229.6</ele>
        <time>2021-08-26T13:23:33Z</time>
      </trkpt>
      <trkpt lat="46.65465" lon="5.44464">
        <ele>229.2</ele>
        <time>2021-08-26T13:23:35Z</time>
      </trkpt>
      <trkpt lat="46.65477" lon="5.44473">
        <ele>228.8</ele>
        <time>2021-08-26T13:23:37Z</time>
      </trkpt>
      <trkpt lat="46.6549" lon="5.4448">
        <ele>228.6</ele>
        <time>2021-08-26T13:23:39Z</time>
      </trkpt>
      <trkpt lat="46.65496" lon="5.44483">
        <ele>228.6</ele>
        <time>2021-08-26T13:23:40Z</time>
      </trkpt>
      <trkpt lat="46.65502" lon="5.44487">
        <ele>228.6</ele>
        <time>2021-08-26T13:23:41Z</time>
      </trkpt>
      <trkpt lat="46.65513" lon="5.44493">
        <ele>228.4</ele>
        <time>2021-08-26T13:23:43Z</time>
      </trkpt>
      <trkpt lat="46.65524" lon="5.44499">
        <ele>228.4</ele>
        <time>2021-08-26T13:23:45Z</time>
      </trkpt>
      <trkpt lat="46.65535" lon="5.44503">
        <ele>228.4</ele>
        <time>2021-08-26T13:23:47Z</time>
      </trkpt>
      <trkpt lat="46.65547" lon="5.44505">
        <ele>228.4</ele>
        <time>2021-08-26T13:23:49Z</time>
      </trkpt>
      <trkpt lat="46.65558" lon="5.44506">
        <ele>228.6</ele>
        <time>2021-08-26T13:23:51Z</time>
      </trkpt>
      <trkpt lat="46.65569" lon="5.4451">
        <ele>228.8</ele>
        <time>2021-08-26T13:23:53Z</time>
      </trkpt>
      <trkpt lat="46.6558" lon="5.44517">
        <ele>229</ele>
        <time>2021-08-26T13:23:55Z</time>
      </trkpt>
      <trkpt lat="46.65589" lon="5.44527">
        <ele>229.2</ele>
        <time>2021-08-26T13:23:57Z</time>
      </trkpt>
      <trkpt lat="46.65594" lon="5.44532">
        <ele>229.4</ele>
        <time>2021-08-26T13:23:58Z</time>
      </trkpt>
      <trkpt lat="46.65599" lon="5.44537">
        <ele>229.4</ele>
        <time>2021-08-26T13:23:59Z</time>
      </trkpt>
      <trkpt lat="46.65608" lon="5.44548">
        <ele>229.6</ele>
        <time>2021-08-26T13:24:01Z</time>
      </trkpt>
      <trkpt lat="46.65613" lon="5.44553">
        <ele>229.8</ele>
        <time>2021-08-26T13:24:02Z</time>
      </trkpt>
      <trkpt lat="46.65618" lon="5.44559">
        <ele>230</ele>
        <time>2021-08-26T13:24:03Z</time>
      </trkpt>
      <trkpt lat="46.65628" lon="5.44569">
        <ele>230.4</ele>
        <time>2021-08-26T13:24:05Z</time>
      </trkpt>
      <trkpt lat="46.65637" lon="5.44581">
        <ele>230.6</ele>
        <time>2021-08-26T13:24:07Z</time>
      </trkpt>
      <trkpt lat="46.65647" lon="5.44592">
        <ele>230.6</ele>
        <time>2021-08-26T13:24:09Z</time>
      </trkpt>
      <trkpt lat="46.65656" lon="5.44604">
        <ele>230.6</ele>
        <time>2021-08-26T13:24:11Z</time>
      </trkpt>
      <trkpt lat="46.65665" lon="5.44616">
        <ele>230.6</ele>
        <time>2021-08-26T13:24:13Z</time>
      </trkpt>
      <trkpt lat="46.65674" lon="5.44628">
        <ele>230.6</ele>
        <time>2021-08-26T13:24:15Z</time>
      </trkpt>
      <trkpt lat="46.65684" lon="5.44641">
        <ele>230.6</ele>
        <time>2021-08-26T13:24:17Z</time>
      </trkpt>
      <trkpt lat="46.65693" lon="5.44654">
        <ele>230.8</ele>
        <time>2021-08-26T13:24:19Z</time>
      </trkpt>
      <trkpt lat="46.65702" lon="5.44667">
        <ele>230.8</ele>
        <time>2021-08-26T13:24:21Z</time>
      </trkpt>
      <trkpt lat="46.65711" lon="5.4468">
        <ele>230.8</ele>
        <time>2021-08-26T13:24:23Z</time>
      </trkpt>
      <trkpt lat="46.65715" lon="5.44687">
        <ele>231.2</ele>
        <time>2021-08-26T13:24:24Z</time>
      </trkpt>
      <trkpt lat="46.65719" lon="5.44695">
        <ele>231.2</ele>
        <time>2021-08-26T13:24:25Z</time>
      </trkpt>
      <trkpt lat="46.65725" lon="5.4471">
        <ele>231.6</ele>
        <time>2021-08-26T13:24:27Z</time>
      </trkpt>
      <trkpt lat="46.65729" lon="5.44726">
        <ele>231.6</ele>
        <time>2021-08-26T13:24:29Z</time>
      </trkpt>
      <trkpt lat="46.65731" lon="5.44735">
        <ele>231.8</ele>
        <time>2021-08-26T13:24:30Z</time>
      </trkpt>
      <trkpt lat="46.65732" lon="5.44743">
        <ele>231.8</ele>
        <time>2021-08-26T13:24:31Z</time>
      </trkpt>
      <trkpt lat="46.65735" lon="5.44761">
        <ele>231.8</ele>
        <time>2021-08-26T13:24:33Z</time>
      </trkpt>
      <trkpt lat="46.65736" lon="5.4477">
        <ele>232</ele>
        <time>2021-08-26T13:24:34Z</time>
      </trkpt>
      <trkpt lat="46.65738" lon="5.44779">
        <ele>232</ele>
        <time>2021-08-26T13:24:35Z</time>
      </trkpt>
      <trkpt lat="46.65741" lon="5.44797">
        <ele>232</ele>
        <time>2021-08-26T13:24:37Z</time>
      </trkpt>
      <trkpt lat="46.65746" lon="5.44815">
        <ele>232</ele>
        <time>2021-08-26T13:24:39Z</time>
      </trkpt>
      <trkpt lat="46.65751" lon="5.44833">
        <ele>232</ele>
        <time>2021-08-26T13:24:41Z</time>
      </trkpt>
      <trkpt lat="46.65756" lon="5.44851">
        <ele>232.2</ele>
        <time>2021-08-26T13:24:43Z</time>
      </trkpt>
      <trkpt lat="46.65761" lon="5.4487">
        <ele>232.4</ele>
        <time>2021-08-26T13:24:45Z</time>
      </trkpt>
      <trkpt lat="46.65764" lon="5.4489">
        <ele>232.4</ele>
        <time>2021-08-26T13:24:47Z</time>
      </trkpt>
      <trkpt lat="46.65766" lon="5.44911">
        <ele>232.4</ele>
        <time>2021-08-26T13:24:49Z</time>
      </trkpt>
      <trkpt lat="46.65766" lon="5.44921">
        <ele>232.4</ele>
        <time>2021-08-26T13:24:50Z</time>
      </trkpt>
      <trkpt lat="46.65767" lon="5.44931">
        <ele>232.4</ele>
        <time>2021-08-26T13:24:51Z</time>
      </trkpt>
      <trkpt lat="46.65768" lon="5.44953">
        <ele>232.4</ele>
        <time>2021-08-26T13:24:53Z</time>
      </trkpt>
      <trkpt lat="46.65769" lon="5.44975">
        <ele>232.4</ele>
        <time>2021-08-26T13:24:55Z</time>
      </trkpt>
      <trkpt lat="46.65771" lon="5.44997">
        <ele>232.2</ele>
        <time>2021-08-26T13:24:57Z</time>
      </trkpt>
      <trkpt lat="46.65774" lon="5.45008">
        <ele>232.2</ele>
        <time>2021-08-26T13:24:58Z</time>
      </trkpt>
      <trkpt lat="46.65777" lon="5.45018">
        <ele>232.2</ele>
        <time>2021-08-26T13:24:59Z</time>
      </trkpt>
      <trkpt lat="46.65787" lon="5.45036">
        <ele>231.8</ele>
        <time>2021-08-26T13:25:01Z</time>
      </trkpt>
      <trkpt lat="46.65794" lon="5.45044">
        <ele>231.4</ele>
        <time>2021-08-26T13:25:02Z</time>
      </trkpt>
      <trkpt lat="46.658" lon="5.45052">
        <ele>231</ele>
        <time>2021-08-26T13:25:03Z</time>
      </trkpt>
      <trkpt lat="46.65806" lon="5.4506">
        <ele>230.8</ele>
        <time>2021-08-26T13:25:04Z</time>
      </trkpt>
      <trkpt lat="46.65813" lon="5.45067">
        <ele>230.4</ele>
        <time>2021-08-26T13:25:05Z</time>
      </trkpt>
      <trkpt lat="46.65826" lon="5.45081">
        <ele>230</ele>
        <time>2021-08-26T13:25:07Z</time>
      </trkpt>
      <trkpt lat="46.65832" lon="5.45088">
        <ele>229.6</ele>
        <time>2021-08-26T13:25:08Z</time>
      </trkpt>
      <trkpt lat="46.65838" lon="5.45094">
        <ele>229.4</ele>
        <time>2021-08-26T13:25:09Z</time>
      </trkpt>
      <trkpt lat="46.6585" lon="5.45106">
        <ele>229.2</ele>
        <time>2021-08-26T13:25:11Z</time>
      </trkpt>
      <trkpt lat="46.65861" lon="5.45117">
        <ele>229.2</ele>
        <time>2021-08-26T13:25:13Z</time>
      </trkpt>
      <trkpt lat="46.65871" lon="5.45129">
        <ele>229.2</ele>
        <time>2021-08-26T13:25:15Z</time>
      </trkpt>
      <trkpt lat="46.65881" lon="5.45141">
        <ele>229.2</ele>
        <time>2021-08-26T13:25:17Z</time>
      </trkpt>
      <trkpt lat="46.6589" lon="5.45154">
        <ele>229.4</ele>
        <time>2021-08-26T13:25:19Z</time>
      </trkpt>
      <trkpt lat="46.65894" lon="5.45161">
        <ele>229.6</ele>
        <time>2021-08-26T13:25:20Z</time>
      </trkpt>
      <trkpt lat="46.65899" lon="5.45167">
        <ele>229.8</ele>
        <time>2021-08-26T13:25:21Z</time>
      </trkpt>
      <trkpt lat="46.65908" lon="5.45179">
        <ele>230.4</ele>
        <time>2021-08-26T13:25:23Z</time>
      </trkpt>
      <trkpt lat="46.65918" lon="5.45191">
        <ele>230.4</ele>
        <time>2021-08-26T13:25:25Z</time>
      </trkpt>
      <trkpt lat="46.65928" lon="5.45201">
        <ele>230.6</ele>
        <time>2021-08-26T13:25:27Z</time>
      </trkpt>
      <trkpt lat="46.65933" lon="5.45206">
        <ele>230.8</ele>
        <time>2021-08-26T13:25:28Z</time>
      </trkpt>
      <trkpt lat="46.65939" lon="5.45211">
        <ele>230.8</ele>
        <time>2021-08-26T13:25:29Z</time>
      </trkpt>
      <trkpt lat="46.6595" lon="5.45221">
        <ele>231.2</ele>
        <time>2021-08-26T13:25:31Z</time>
      </trkpt>
      <trkpt lat="46.6596" lon="5.45232">
        <ele>231.2</ele>
        <time>2021-08-26T13:25:33Z</time>
      </trkpt>
      <trkpt lat="46.6597" lon="5.45243">
        <ele>231.6</ele>
        <time>2021-08-26T13:25:35Z</time>
      </trkpt>
      <trkpt lat="46.65975" lon="5.4525">
        <ele>231.6</ele>
        <time>2021-08-26T13:25:36Z</time>
      </trkpt>
      <trkpt lat="46.65979" lon="5.45257">
        <ele>231.8</ele>
        <time>2021-08-26T13:25:37Z</time>
      </trkpt>
      <trkpt lat="46.65987" lon="5.45274">
        <ele>232</ele>
        <time>2021-08-26T13:25:39Z</time>
      </trkpt>
      <trkpt lat="46.6599" lon="5.45282">
        <ele>232</ele>
        <time>2021-08-26T13:25:40Z</time>
      </trkpt>
      <trkpt lat="46.65994" lon="5.45291">
        <ele>232</ele>
        <time>2021-08-26T13:25:41Z</time>
      </trkpt>
      <trkpt lat="46.65997" lon="5.453">
        <ele>232</ele>
        <time>2021-08-26T13:25:42Z</time>
      </trkpt>
      <trkpt lat="46.66" lon="5.45309">
        <ele>232</ele>
        <time>2021-08-26T13:25:43Z</time>
      </trkpt>
      <trkpt lat="46.66007" lon="5.45326">
        <ele>231.8</ele>
        <time>2021-08-26T13:25:45Z</time>
      </trkpt>
      <trkpt lat="46.66011" lon="5.45334">
        <ele>232</ele>
        <time>2021-08-26T13:25:46Z</time>
      </trkpt>
      <trkpt lat="46.66016" lon="5.45341">
        <ele>232</ele>
        <time>2021-08-26T13:25:47Z</time>
      </trkpt>
      <trkpt lat="46.66025" lon="5.45357">
        <ele>232</ele>
        <time>2021-08-26T13:25:49Z</time>
      </trkpt>
      <trkpt lat="46.66035" lon="5.45372">
        <ele>232</ele>
        <time>2021-08-26T13:25:51Z</time>
      </trkpt>
      <trkpt lat="46.66044" lon="5.45387">
        <ele>232</ele>
        <time>2021-08-26T13:25:53Z</time>
      </trkpt>
      <trkpt lat="46.66054" lon="5.45403">
        <ele>231.8</ele>
        <time>2021-08-26T13:25:55Z</time>
      </trkpt>
      <trkpt lat="46.66059" lon="5.45411">
        <ele>231.8</ele>
        <time>2021-08-26T13:25:56Z</time>
      </trkpt>
      <trkpt lat="46.66064" lon="5.45418">
        <ele>231.8</ele>
        <time>2021-08-26T13:25:57Z</time>
      </trkpt>
      <trkpt lat="46.66074" lon="5.45434">
        <ele>231.8</ele>
        <time>2021-08-26T13:25:59Z</time>
      </trkpt>
      <trkpt lat="46.66085" lon="5.45448">
        <ele>231.8</ele>
        <time>2021-08-26T13:26:01Z</time>
      </trkpt>
      <trkpt lat="46.66097" lon="5.45462">
        <ele>231.4</ele>
        <time>2021-08-26T13:26:03Z</time>
      </trkpt>
      <trkpt lat="46.66103" lon="5.45468">
        <ele>231.2</ele>
        <time>2021-08-26T13:26:04Z</time>
      </trkpt>
      <trkpt lat="46.6611" lon="5.45474">
        <ele>230.8</ele>
        <time>2021-08-26T13:26:05Z</time>
      </trkpt>
      <trkpt lat="46.66125" lon="5.45483">
        <ele>230.4</ele>
        <time>2021-08-26T13:26:07Z</time>
      </trkpt>
      <trkpt lat="46.66132" lon="5.45487">
        <ele>230.2</ele>
        <time>2021-08-26T13:26:08Z</time>
      </trkpt>
      <trkpt lat="46.6614" lon="5.45491">
        <ele>230</ele>
        <time>2021-08-26T13:26:09Z</time>
      </trkpt>
      <trkpt lat="46.66155" lon="5.45497">
        <ele>229.8</ele>
        <time>2021-08-26T13:26:11Z</time>
      </trkpt>
      <trkpt lat="46.66163" lon="5.455">
        <ele>229.6</ele>
        <time>2021-08-26T13:26:12Z</time>
      </trkpt>
      <trkpt lat="46.66171" lon="5.45503">
        <ele>229.4</ele>
        <time>2021-08-26T13:26:13Z</time>
      </trkpt>
      <trkpt lat="46.66187" lon="5.4551">
        <ele>228.8</ele>
        <time>2021-08-26T13:26:15Z</time>
      </trkpt>
      <trkpt lat="46.66195" lon="5.45513">
        <ele>228.6</ele>
        <time>2021-08-26T13:26:16Z</time>
      </trkpt>
      <trkpt lat="46.66203" lon="5.45516">
        <ele>228.6</ele>
        <time>2021-08-26T13:26:17Z</time>
      </trkpt>
      <trkpt lat="46.66218" lon="5.45523">
        <ele>228.4</ele>
        <time>2021-08-26T13:26:19Z</time>
      </trkpt>
      <trkpt lat="46.66234" lon="5.4553">
        <ele>228.2</ele>
        <time>2021-08-26T13:26:21Z</time>
      </trkpt>
      <trkpt lat="46.66241" lon="5.45534">
        <ele>227.8</ele>
        <time>2021-08-26T13:26:22Z</time>
      </trkpt>
      <trkpt lat="46.66248" lon="5.45539">
        <ele>227.6</ele>
        <time>2021-08-26T13:26:23Z</time>
      </trkpt>
      <trkpt lat="46.66261" lon="5.45549">
        <ele>227</ele>
        <time>2021-08-26T13:26:25Z</time>
      </trkpt>
      <trkpt lat="46.66275" lon="5.4556">
        <ele>226.8</ele>
        <time>2021-08-26T13:26:27Z</time>
      </trkpt>
      <trkpt lat="46.66281" lon="5.45566">
        <ele>226.8</ele>
        <time>2021-08-26T13:26:28Z</time>
      </trkpt>
      <trkpt lat="46.66287" lon="5.45572">
        <ele>226.8</ele>
        <time>2021-08-26T13:26:29Z</time>
      </trkpt>
      <trkpt lat="46.663" lon="5.45585">
        <ele>226.8</ele>
        <time>2021-08-26T13:26:31Z</time>
      </trkpt>
      <trkpt lat="46.66312" lon="5.45598">
        <ele>226.8</ele>
        <time>2021-08-26T13:26:33Z</time>
      </trkpt>
      <trkpt lat="46.66324" lon="5.45612">
        <ele>226.8</ele>
        <time>2021-08-26T13:26:35Z</time>
      </trkpt>
      <trkpt lat="46.66329" lon="5.45619">
        <ele>226.8</ele>
        <time>2021-08-26T13:26:36Z</time>
      </trkpt>
      <trkpt lat="46.66334" lon="5.45627">
        <ele>226.8</ele>
        <time>2021-08-26T13:26:37Z</time>
      </trkpt>
      <trkpt lat="46.66345" lon="5.45645">
        <ele>227</ele>
        <time>2021-08-26T13:26:39Z</time>
      </trkpt>
      <trkpt lat="46.66355" lon="5.45663">
        <ele>227</ele>
        <time>2021-08-26T13:26:41Z</time>
      </trkpt>
      <trkpt lat="46.66364" lon="5.45682">
        <ele>227</ele>
        <time>2021-08-26T13:26:43Z</time>
      </trkpt>
      <trkpt lat="46.66373" lon="5.45701">
        <ele>227</ele>
        <time>2021-08-26T13:26:45Z</time>
      </trkpt>
      <trkpt lat="46.66383" lon="5.45719">
        <ele>227</ele>
        <time>2021-08-26T13:26:47Z</time>
      </trkpt>
      <trkpt lat="46.66393" lon="5.45738">
        <ele>227</ele>
        <time>2021-08-26T13:26:49Z</time>
      </trkpt>
      <trkpt lat="46.66402" lon="5.45757">
        <ele>227</ele>
        <time>2021-08-26T13:26:51Z</time>
      </trkpt>
      <trkpt lat="46.66411" lon="5.45775">
        <ele>226.8</ele>
        <time>2021-08-26T13:26:53Z</time>
      </trkpt>
      <trkpt lat="46.66415" lon="5.45784">
        <ele>226.4</ele>
        <time>2021-08-26T13:26:54Z</time>
      </trkpt>
      <trkpt lat="46.6642" lon="5.45793">
        <ele>226.2</ele>
        <time>2021-08-26T13:26:55Z</time>
      </trkpt>
      <trkpt lat="46.66428" lon="5.45811">
        <ele>226.2</ele>
        <time>2021-08-26T13:26:57Z</time>
      </trkpt>
      <trkpt lat="46.66433" lon="5.4582">
        <ele>226.2</ele>
        <time>2021-08-26T13:26:58Z</time>
      </trkpt>
      <trkpt lat="46.66437" lon="5.45829">
        <ele>226.2</ele>
        <time>2021-08-26T13:26:59Z</time>
      </trkpt>
      <trkpt lat="46.66446" lon="5.45846">
        <ele>226.2</ele>
        <time>2021-08-26T13:27:01Z</time>
      </trkpt>
      <trkpt lat="46.66454" lon="5.45863">
        <ele>226.2</ele>
        <time>2021-08-26T13:27:03Z</time>
      </trkpt>
      <trkpt lat="46.66463" lon="5.4588">
        <ele>226.2</ele>
        <time>2021-08-26T13:27:05Z</time>
      </trkpt>
      <trkpt lat="46.66467" lon="5.45889">
        <ele>226.2</ele>
        <time>2021-08-26T13:27:06Z</time>
      </trkpt>
      <trkpt lat="46.66471" lon="5.45897">
        <ele>226.4</ele>
        <time>2021-08-26T13:27:07Z</time>
      </trkpt>
      <trkpt lat="46.6648" lon="5.45914">
        <ele>226.6</ele>
        <time>2021-08-26T13:27:09Z</time>
      </trkpt>
      <trkpt lat="46.66488" lon="5.4593">
        <ele>226.6</ele>
        <time>2021-08-26T13:27:11Z</time>
      </trkpt>
      <trkpt lat="46.66496" lon="5.45947">
        <ele>226.8</ele>
        <time>2021-08-26T13:27:13Z</time>
      </trkpt>
      <trkpt lat="46.665" lon="5.45956">
        <ele>226.8</ele>
        <time>2021-08-26T13:27:14Z</time>
      </trkpt>
      <trkpt lat="46.66502" lon="5.45966">
        <ele>226.8</ele>
        <time>2021-08-26T13:27:15Z</time>
      </trkpt>
      <trkpt lat="46.66505" lon="5.45986">
        <ele>226.8</ele>
        <time>2021-08-26T13:27:17Z</time>
      </trkpt>
      <trkpt lat="46.66506" lon="5.45996">
        <ele>226.8</ele>
        <time>2021-08-26T13:27:18Z</time>
      </trkpt>
      <trkpt lat="46.66507" lon="5.46006">
        <ele>227</ele>
        <time>2021-08-26T13:27:19Z</time>
      </trkpt>
      <trkpt lat="46.66508" lon="5.46026">
        <ele>227</ele>
        <time>2021-08-26T13:27:21Z</time>
      </trkpt>
      <trkpt lat="46.66508" lon="5.46046">
        <ele>227.2</ele>
        <time>2021-08-26T13:27:23Z</time>
      </trkpt>
      <trkpt lat="46.66509" lon="5.46055">
        <ele>227.4</ele>
        <time>2021-08-26T13:27:24Z</time>
      </trkpt>
      <trkpt lat="46.6651" lon="5.46064">
        <ele>227.8</ele>
        <time>2021-08-26T13:27:25Z</time>
      </trkpt>
      <trkpt lat="46.66511" lon="5.46082">
        <ele>228.4</ele>
        <time>2021-08-26T13:27:27Z</time>
      </trkpt>
      <trkpt lat="46.66512" lon="5.46091">
        <ele>228.6</ele>
        <time>2021-08-26T13:27:28Z</time>
      </trkpt>
      <trkpt lat="46.66512" lon="5.46099">
        <ele>228.6</ele>
        <time>2021-08-26T13:27:29Z</time>
      </trkpt>
      <trkpt lat="46.66513" lon="5.46117">
        <ele>229.2</ele>
        <time>2021-08-26T13:27:31Z</time>
      </trkpt>
      <trkpt lat="46.66513" lon="5.46125">
        <ele>229.4</ele>
        <time>2021-08-26T13:27:32Z</time>
      </trkpt>
      <trkpt lat="46.66513" lon="5.46134">
        <ele>229.6</ele>
        <time>2021-08-26T13:27:33Z</time>
      </trkpt>
      <trkpt lat="46.66513" lon="5.46151">
        <ele>230</ele>
        <time>2021-08-26T13:27:35Z</time>
      </trkpt>
      <trkpt lat="46.66511" lon="5.46168">
        <ele>230.2</ele>
        <time>2021-08-26T13:27:37Z</time>
      </trkpt>
      <trkpt lat="46.6651" lon="5.46185">
        <ele>230.6</ele>
        <time>2021-08-26T13:27:39Z</time>
      </trkpt>
      <trkpt lat="46.66509" lon="5.46194">
        <ele>230.6</ele>
        <time>2021-08-26T13:27:40Z</time>
      </trkpt>
      <trkpt lat="46.66508" lon="5.46202">
        <ele>231</ele>
        <time>2021-08-26T13:27:41Z</time>
      </trkpt>
      <trkpt lat="46.66508" lon="5.46218">
        <ele>231.2</ele>
        <time>2021-08-26T13:27:43Z</time>
      </trkpt>
      <trkpt lat="46.66506" lon="5.46226">
        <ele>231.4</ele>
        <time>2021-08-26T13:27:44Z</time>
      </trkpt>
      <trkpt lat="46.66504" lon="5.46234">
        <ele>231.6</ele>
        <time>2021-08-26T13:27:45Z</time>
      </trkpt>
      <trkpt lat="46.66501" lon="5.46242">
        <ele>231.8</ele>
        <time>2021-08-26T13:27:46Z</time>
      </trkpt>
      <trkpt lat="46.66497" lon="5.4625">
        <ele>231.8</ele>
        <time>2021-08-26T13:27:47Z</time>
      </trkpt>
      <trkpt lat="46.66494" lon="5.46258">
        <ele>232</ele>
        <time>2021-08-26T13:27:48Z</time>
      </trkpt>
      <trkpt lat="46.66491" lon="5.46267">
        <ele>232</ele>
        <time>2021-08-26T13:27:49Z</time>
      </trkpt>
      <trkpt lat="46.66489" lon="5.46287">
        <ele>232</ele>
        <time>2021-08-26T13:27:51Z</time>
      </trkpt>
      <trkpt lat="46.66488" lon="5.46298">
        <ele>232</ele>
        <time>2021-08-26T13:27:52Z</time>
      </trkpt>
      <trkpt lat="46.66488" lon="5.46309">
        <ele>232</ele>
        <time>2021-08-26T13:27:53Z</time>
      </trkpt>
      <trkpt lat="46.66486" lon="5.4632">
        <ele>232</ele>
        <time>2021-08-26T13:27:54Z</time>
      </trkpt>
      <trkpt lat="46.66483" lon="5.46331">
        <ele>231.8</ele>
        <time>2021-08-26T13:27:55Z</time>
      </trkpt>
      <trkpt lat="46.66478" lon="5.46339">
        <ele>231.4</ele>
        <time>2021-08-26T13:27:56Z</time>
      </trkpt>
      <trkpt lat="46.6647" lon="5.46345">
        <ele>231.2</ele>
        <time>2021-08-26T13:27:57Z</time>
      </trkpt>
      <trkpt lat="46.66454" lon="5.46349">
        <ele>231</ele>
        <time>2021-08-26T13:27:59Z</time>
      </trkpt>
      <trkpt lat="46.66437" lon="5.46347">
        <ele>230.6</ele>
        <time>2021-08-26T13:28:01Z</time>
      </trkpt>
      <trkpt lat="46.66419" lon="5.46345">
        <ele>229.2</ele>
        <time>2021-08-26T13:28:03Z</time>
      </trkpt>
      <trkpt lat="46.66402" lon="5.46351">
        <ele>227.8</ele>
        <time>2021-08-26T13:28:05Z</time>
      </trkpt>
      <trkpt lat="46.66394" lon="5.46357">
        <ele>227.2</ele>
        <time>2021-08-26T13:28:06Z</time>
      </trkpt>
      <trkpt lat="46.66387" lon="5.46366">
        <ele>226.8</ele>
        <time>2021-08-26T13:28:07Z</time>
      </trkpt>
      <trkpt lat="46.6638" lon="5.46376">
        <ele>226.4</ele>
        <time>2021-08-26T13:28:08Z</time>
      </trkpt>
      <trkpt lat="46.66372" lon="5.46386">
        <ele>226.2</ele>
        <time>2021-08-26T13:28:09Z</time>
      </trkpt>
      <trkpt lat="46.66364" lon="5.46396">
        <ele>226</ele>
        <time>2021-08-26T13:28:10Z</time>
      </trkpt>
      <trkpt lat="46.66355" lon="5.46405">
        <ele>225.6</ele>
        <time>2021-08-26T13:28:11Z</time>
      </trkpt>
      <trkpt lat="46.66336" lon="5.46423">
        <ele>224.6</ele>
        <time>2021-08-26T13:28:13Z</time>
      </trkpt>
      <trkpt lat="46.66326" lon="5.46431">
        <ele>224.4</ele>
        <time>2021-08-26T13:28:14Z</time>
      </trkpt>
      <trkpt lat="46.66317" lon="5.4644">
        <ele>223.8</ele>
        <time>2021-08-26T13:28:15Z</time>
      </trkpt>
      <trkpt lat="46.66308" lon="5.46449">
        <ele>223.2</ele>
        <time>2021-08-26T13:28:16Z</time>
      </trkpt>
      <trkpt lat="46.663" lon="5.46461">
        <ele>222</ele>
        <time>2021-08-26T13:28:17Z</time>
      </trkpt>
      <trkpt lat="46.66295" lon="5.46474">
        <ele>221.4</ele>
        <time>2021-08-26T13:28:18Z</time>
      </trkpt>
      <trkpt lat="46.66291" lon="5.46489">
        <ele>220.8</ele>
        <time>2021-08-26T13:28:19Z</time>
      </trkpt>
      <trkpt lat="46.66288" lon="5.46518">
        <ele>219.2</ele>
        <time>2021-08-26T13:28:21Z</time>
      </trkpt>
      <trkpt lat="46.66277" lon="5.46541">
        <ele>218.4</ele>
        <time>2021-08-26T13:28:23Z</time>
      </trkpt>
      <trkpt lat="46.66269" lon="5.46547">
        <ele>218.2</ele>
        <time>2021-08-26T13:28:24Z</time>
      </trkpt>
      <trkpt lat="46.6626" lon="5.4655">
        <ele>218</ele>
        <time>2021-08-26T13:28:25Z</time>
      </trkpt>
      <trkpt lat="46.66251" lon="5.46552">
        <ele>218</ele>
        <time>2021-08-26T13:28:26Z</time>
      </trkpt>
      <trkpt lat="46.66242" lon="5.46553">
        <ele>218</ele>
        <time>2021-08-26T13:28:27Z</time>
      </trkpt>
      <trkpt lat="46.66223" lon="5.46559">
        <ele>218</ele>
        <time>2021-08-26T13:28:29Z</time>
      </trkpt>
      <trkpt lat="46.66204" lon="5.46564">
        <ele>218</ele>
        <time>2021-08-26T13:28:31Z</time>
      </trkpt>
      <trkpt lat="46.66185" lon="5.46568">
        <ele>218</ele>
        <time>2021-08-26T13:28:33Z</time>
      </trkpt>
      <trkpt lat="46.66167" lon="5.46573">
        <ele>218</ele>
        <time>2021-08-26T13:28:35Z</time>
      </trkpt>
      <trkpt lat="46.66149" lon="5.46575">
        <ele>218</ele>
        <time>2021-08-26T13:28:37Z</time>
      </trkpt>
      <trkpt lat="46.6614" lon="5.46575">
        <ele>218</ele>
        <time>2021-08-26T13:28:38Z</time>
      </trkpt>
      <trkpt lat="46.66131" lon="5.46574">
        <ele>218</ele>
        <time>2021-08-26T13:28:39Z</time>
      </trkpt>
      <trkpt lat="46.66115" lon="5.46574">
        <ele>218</ele>
        <time>2021-08-26T13:28:41Z</time>
      </trkpt>
      <trkpt lat="46.66108" lon="5.46579">
        <ele>218</ele>
        <time>2021-08-26T13:28:42Z</time>
      </trkpt>
      <trkpt lat="46.66102" lon="5.46587">
        <ele>217.8</ele>
        <time>2021-08-26T13:28:43Z</time>
      </trkpt>
      <trkpt lat="46.66099" lon="5.46597">
        <ele>218</ele>
        <time>2021-08-26T13:28:44Z</time>
      </trkpt>
      <trkpt lat="46.66097" lon="5.46608">
        <ele>217.8</ele>
        <time>2021-08-26T13:28:45Z</time>
      </trkpt>
      <trkpt lat="46.66096" lon="5.46619">
        <ele>217.8</ele>
        <time>2021-08-26T13:28:46Z</time>
      </trkpt>
      <trkpt lat="46.66095" lon="5.4663">
        <ele>217.8</ele>
        <time>2021-08-26T13:28:47Z</time>
      </trkpt>
      <trkpt lat="46.66093" lon="5.46653">
        <ele>218</ele>
        <time>2021-08-26T13:28:49Z</time>
      </trkpt>
      <trkpt lat="46.66092" lon="5.46664">
        <ele>218</ele>
        <time>2021-08-26T13:28:50Z</time>
      </trkpt>
      <trkpt lat="46.66091" lon="5.46675">
        <ele>218</ele>
        <time>2021-08-26T13:28:51Z</time>
      </trkpt>
      <trkpt lat="46.66089" lon="5.46697">
        <ele>218</ele>
        <time>2021-08-26T13:28:53Z</time>
      </trkpt>
      <trkpt lat="46.66089" lon="5.46719">
        <ele>218</ele>
        <time>2021-08-26T13:28:55Z</time>
      </trkpt>
      <trkpt lat="46.66089" lon="5.4673">
        <ele>218</ele>
        <time>2021-08-26T13:28:56Z</time>
      </trkpt>
      <trkpt lat="46.66089" lon="5.46741">
        <ele>218</ele>
        <time>2021-08-26T13:28:57Z</time>
      </trkpt>
      <trkpt lat="46.66089" lon="5.46761">
        <ele>218</ele>
        <time>2021-08-26T13:28:59Z</time>
      </trkpt>
      <trkpt lat="46.66089" lon="5.46782">
        <ele>218</ele>
        <time>2021-08-26T13:29:01Z</time>
      </trkpt>
      <trkpt lat="46.66087" lon="5.46802">
        <ele>218</ele>
        <time>2021-08-26T13:29:03Z</time>
      </trkpt>
      <trkpt lat="46.66086" lon="5.46812">
        <ele>218</ele>
        <time>2021-08-26T13:29:04Z</time>
      </trkpt>
      <trkpt lat="46.66083" lon="5.46822">
        <ele>218</ele>
        <time>2021-08-26T13:29:05Z</time>
      </trkpt>
      <trkpt lat="46.66077" lon="5.4684">
        <ele>218.2</ele>
        <time>2021-08-26T13:29:07Z</time>
      </trkpt>
      <trkpt lat="46.66074" lon="5.46849">
        <ele>218.4</ele>
        <time>2021-08-26T13:29:08Z</time>
      </trkpt>
      <trkpt lat="46.66071" lon="5.46858">
        <ele>218.4</ele>
        <time>2021-08-26T13:29:09Z</time>
      </trkpt>
      <trkpt lat="46.66068" lon="5.46868">
        <ele>218.6</ele>
        <time>2021-08-26T13:29:10Z</time>
      </trkpt>
      <trkpt lat="46.66066" lon="5.46878">
        <ele>219</ele>
        <time>2021-08-26T13:29:11Z</time>
      </trkpt>
      <trkpt lat="46.66066" lon="5.46888">
        <ele>219.2</ele>
        <time>2021-08-26T13:29:12Z</time>
      </trkpt>
      <trkpt lat="46.66066" lon="5.46898">
        <ele>219.4</ele>
        <time>2021-08-26T13:29:13Z</time>
      </trkpt>
      <trkpt lat="46.66066" lon="5.46908">
        <ele>219.4</ele>
        <time>2021-08-26T13:29:14Z</time>
      </trkpt>
      <trkpt lat="46.66066" lon="5.46919">
        <ele>219.4</ele>
        <time>2021-08-26T13:29:15Z</time>
      </trkpt>
      <trkpt lat="46.66067" lon="5.46939">
        <ele>219.4</ele>
        <time>2021-08-26T13:29:17Z</time>
      </trkpt>
      <trkpt lat="46.66068" lon="5.46959">
        <ele>219.4</ele>
        <time>2021-08-26T13:29:19Z</time>
      </trkpt>
      <trkpt lat="46.6607" lon="5.46979">
        <ele>219.4</ele>
        <time>2021-08-26T13:29:21Z</time>
      </trkpt>
      <trkpt lat="46.6607" lon="5.46989">
        <ele>219.4</ele>
        <time>2021-08-26T13:29:22Z</time>
      </trkpt>
      <trkpt lat="46.66068" lon="5.46998">
        <ele>219.4</ele>
        <time>2021-08-26T13:29:23Z</time>
      </trkpt>
      <trkpt lat="46.66065" lon="5.47006">
        <ele>219.4</ele>
        <time>2021-08-26T13:29:24Z</time>
      </trkpt>
      <trkpt lat="46.66061" lon="5.47013">
        <ele>219.4</ele>
        <time>2021-08-26T13:29:25Z</time>
      </trkpt>
      <trkpt lat="46.66051" lon="5.47026">
        <ele>219.6</ele>
        <time>2021-08-26T13:29:27Z</time>
      </trkpt>
      <trkpt lat="46.66045" lon="5.47031">
        <ele>219.6</ele>
        <time>2021-08-26T13:29:28Z</time>
      </trkpt>
      <trkpt lat="46.66039" lon="5.47035">
        <ele>219.6</ele>
        <time>2021-08-26T13:29:29Z</time>
      </trkpt>
      <trkpt lat="46.66033" lon="5.4704">
        <ele>219.6</ele>
        <time>2021-08-26T13:29:30Z</time>
      </trkpt>
      <trkpt lat="46.66026" lon="5.47044">
        <ele>219.6</ele>
        <time>2021-08-26T13:29:31Z</time>
      </trkpt>
      <trkpt lat="46.66013" lon="5.47052">
        <ele>219.8</ele>
        <time>2021-08-26T13:29:33Z</time>
      </trkpt>
      <trkpt lat="46.66006" lon="5.47056">
        <ele>220</ele>
        <time>2021-08-26T13:29:34Z</time>
      </trkpt>
      <trkpt lat="46.66" lon="5.47061">
        <ele>220</ele>
        <time>2021-08-26T13:29:35Z</time>
      </trkpt>
      <trkpt lat="46.65987" lon="5.47071">
        <ele>220</ele>
        <time>2021-08-26T13:29:37Z</time>
      </trkpt>
      <trkpt lat="46.65974" lon="5.47083">
        <ele>220</ele>
        <time>2021-08-26T13:29:39Z</time>
      </trkpt>
      <trkpt lat="46.65962" lon="5.47095">
        <ele>220</ele>
        <time>2021-08-26T13:29:41Z</time>
      </trkpt>
      <trkpt lat="46.65951" lon="5.47108">
        <ele>220</ele>
        <time>2021-08-26T13:29:43Z</time>
      </trkpt>
      <trkpt lat="46.65941" lon="5.47123">
        <ele>220</ele>
        <time>2021-08-26T13:29:45Z</time>
      </trkpt>
      <trkpt lat="46.65931" lon="5.47139">
        <ele>220</ele>
        <time>2021-08-26T13:29:47Z</time>
      </trkpt>
      <trkpt lat="46.65922" lon="5.47155">
        <ele>220</ele>
        <time>2021-08-26T13:29:49Z</time>
      </trkpt>
      <trkpt lat="46.65913" lon="5.47172">
        <ele>220</ele>
        <time>2021-08-26T13:29:51Z</time>
      </trkpt>
      <trkpt lat="46.65905" lon="5.47189">
        <ele>220</ele>
        <time>2021-08-26T13:29:53Z</time>
      </trkpt>
      <trkpt lat="46.65897" lon="5.47207">
        <ele>220.2</ele>
        <time>2021-08-26T13:29:55Z</time>
      </trkpt>
      <trkpt lat="46.65893" lon="5.47216">
        <ele>220.2</ele>
        <time>2021-08-26T13:29:56Z</time>
      </trkpt>
      <trkpt lat="46.65889" lon="5.47224">
        <ele>220.2</ele>
        <time>2021-08-26T13:29:57Z</time>
      </trkpt>
      <trkpt lat="46.65882" lon="5.47243">
        <ele>220.4</ele>
        <time>2021-08-26T13:29:59Z</time>
      </trkpt>
      <trkpt lat="46.65875" lon="5.47261">
        <ele>220.4</ele>
        <time>2021-08-26T13:30:01Z</time>
      </trkpt>
      <trkpt lat="46.65868" lon="5.4728">
        <ele>220.4</ele>
        <time>2021-08-26T13:30:03Z</time>
      </trkpt>
      <trkpt lat="46.65864" lon="5.47289">
        <ele>220.4</ele>
        <time>2021-08-26T13:30:04Z</time>
      </trkpt>
      <trkpt lat="46.65861" lon="5.47298">
        <ele>220.4</ele>
        <time>2021-08-26T13:30:05Z</time>
      </trkpt>
      <trkpt lat="46.65854" lon="5.47317">
        <ele>220.6</ele>
        <time>2021-08-26T13:30:07Z</time>
      </trkpt>
      <trkpt lat="46.65851" lon="5.47326">
        <ele>220.8</ele>
        <time>2021-08-26T13:30:08Z</time>
      </trkpt>
      <trkpt lat="46.65847" lon="5.47336">
        <ele>220.8</ele>
        <time>2021-08-26T13:30:09Z</time>
      </trkpt>
      <trkpt lat="46.65841" lon="5.47354">
        <ele>220.8</ele>
        <time>2021-08-26T13:30:11Z</time>
      </trkpt>
      <trkpt lat="46.65834" lon="5.47373">
        <ele>221</ele>
        <time>2021-08-26T13:30:13Z</time>
      </trkpt>
      <trkpt lat="46.65828" lon="5.47392">
        <ele>221.2</ele>
        <time>2021-08-26T13:30:15Z</time>
      </trkpt>
      <trkpt lat="46.65825" lon="5.47401">
        <ele>221.2</ele>
        <time>2021-08-26T13:30:16Z</time>
      </trkpt>
      <trkpt lat="46.65821" lon="5.4741">
        <ele>221.2</ele>
        <time>2021-08-26T13:30:17Z</time>
      </trkpt>
      <trkpt lat="46.65814" lon="5.47429">
        <ele>221.4</ele>
        <time>2021-08-26T13:30:19Z</time>
      </trkpt>
      <trkpt lat="46.65811" lon="5.47439">
        <ele>221.4</ele>
        <time>2021-08-26T13:30:20Z</time>
      </trkpt>
      <trkpt lat="46.65807" lon="5.47448">
        <ele>221.6</ele>
        <time>2021-08-26T13:30:21Z</time>
      </trkpt>
      <trkpt lat="46.65801" lon="5.47467">
        <ele>221.8</ele>
        <time>2021-08-26T13:30:23Z</time>
      </trkpt>
      <trkpt lat="46.65795" lon="5.47485">
        <ele>221.8</ele>
        <time>2021-08-26T13:30:25Z</time>
      </trkpt>
      <trkpt lat="46.65791" lon="5.47495">
        <ele>222</ele>
        <time>2021-08-26T13:30:26Z</time>
      </trkpt>
      <trkpt lat="46.65789" lon="5.47504">
        <ele>222</ele>
        <time>2021-08-26T13:30:27Z</time>
      </trkpt>
      <trkpt lat="46.65783" lon="5.47524">
        <ele>222</ele>
        <time>2021-08-26T13:30:29Z</time>
      </trkpt>
      <trkpt lat="46.65779" lon="5.47544">
        <ele>222</ele>
        <time>2021-08-26T13:30:31Z</time>
      </trkpt>
      <trkpt lat="46.65778" lon="5.47554">
        <ele>222.2</ele>
        <time>2021-08-26T13:30:32Z</time>
      </trkpt>
      <trkpt lat="46.65776" lon="5.47564">
        <ele>222.2</ele>
        <time>2021-08-26T13:30:33Z</time>
      </trkpt>
      <trkpt lat="46.65772" lon="5.47585">
        <ele>222.4</ele>
        <time>2021-08-26T13:30:35Z</time>
      </trkpt>
      <trkpt lat="46.65771" lon="5.47595">
        <ele>222.6</ele>
        <time>2021-08-26T13:30:36Z</time>
      </trkpt>
      <trkpt lat="46.6577" lon="5.47606">
        <ele>222.8</ele>
        <time>2021-08-26T13:30:37Z</time>
      </trkpt>
      <trkpt lat="46.65767" lon="5.47627">
        <ele>222.8</ele>
        <time>2021-08-26T13:30:39Z</time>
      </trkpt>
      <trkpt lat="46.65764" lon="5.47647">
        <ele>223</ele>
        <time>2021-08-26T13:30:41Z</time>
      </trkpt>
      <trkpt lat="46.65761" lon="5.47668">
        <ele>223</ele>
        <time>2021-08-26T13:30:43Z</time>
      </trkpt>
      <trkpt lat="46.65758" lon="5.47689">
        <ele>223.2</ele>
        <time>2021-08-26T13:30:45Z</time>
      </trkpt>
      <trkpt lat="46.65755" lon="5.47709">
        <ele>223.2</ele>
        <time>2021-08-26T13:30:47Z</time>
      </trkpt>
      <trkpt lat="46.65754" lon="5.4773">
        <ele>223.4</ele>
        <time>2021-08-26T13:30:49Z</time>
      </trkpt>
      <trkpt lat="46.65753" lon="5.47751">
        <ele>223.4</ele>
        <time>2021-08-26T13:30:51Z</time>
      </trkpt>
      <trkpt lat="46.65752" lon="5.47761">
        <ele>223.4</ele>
        <time>2021-08-26T13:30:52Z</time>
      </trkpt>
      <trkpt lat="46.65752" lon="5.47772">
        <ele>223.6</ele>
        <time>2021-08-26T13:30:53Z</time>
      </trkpt>
      <trkpt lat="46.65752" lon="5.47793">
        <ele>223.6</ele>
        <time>2021-08-26T13:30:55Z</time>
      </trkpt>
      <trkpt lat="46.65752" lon="5.47814">
        <ele>223.6</ele>
        <time>2021-08-26T13:30:57Z</time>
      </trkpt>
      <trkpt lat="46.6575" lon="5.47835">
        <ele>223.8</ele>
        <time>2021-08-26T13:30:59Z</time>
      </trkpt>
      <trkpt lat="46.65749" lon="5.47845">
        <ele>223.8</ele>
        <time>2021-08-26T13:31:00Z</time>
      </trkpt>
      <trkpt lat="46.65746" lon="5.47854">
        <ele>223.8</ele>
        <time>2021-08-26T13:31:01Z</time>
      </trkpt>
      <trkpt lat="46.65739" lon="5.47872">
        <ele>223.8</ele>
        <time>2021-08-26T13:31:03Z</time>
      </trkpt>
      <trkpt lat="46.65736" lon="5.47881">
        <ele>223.8</ele>
        <time>2021-08-26T13:31:04Z</time>
      </trkpt>
      <trkpt lat="46.65732" lon="5.4789">
        <ele>223.8</ele>
        <time>2021-08-26T13:31:05Z</time>
      </trkpt>
      <trkpt lat="46.65725" lon="5.47907">
        <ele>224</ele>
        <time>2021-08-26T13:31:07Z</time>
      </trkpt>
      <trkpt lat="46.65717" lon="5.47924">
        <ele>224.2</ele>
        <time>2021-08-26T13:31:09Z</time>
      </trkpt>
      <trkpt lat="46.65709" lon="5.47941">
        <ele>224.2</ele>
        <time>2021-08-26T13:31:11Z</time>
      </trkpt>
      <trkpt lat="46.65706" lon="5.47949">
        <ele>224.2</ele>
        <time>2021-08-26T13:31:12Z</time>
      </trkpt>
      <trkpt lat="46.65703" lon="5.47958">
        <ele>224.4</ele>
        <time>2021-08-26T13:31:13Z</time>
      </trkpt>
      <trkpt lat="46.65697" lon="5.47977">
        <ele>224.4</ele>
        <time>2021-08-26T13:31:15Z</time>
      </trkpt>
      <trkpt lat="46.65693" lon="5.47997">
        <ele>224.4</ele>
        <time>2021-08-26T13:31:17Z</time>
      </trkpt>
      <trkpt lat="46.6569" lon="5.48018">
        <ele>224.6</ele>
        <time>2021-08-26T13:31:19Z</time>
      </trkpt>
      <trkpt lat="46.65686" lon="5.48038">
        <ele>224.8</ele>
        <time>2021-08-26T13:31:21Z</time>
      </trkpt>
      <trkpt lat="46.65683" lon="5.48058">
        <ele>224.8</ele>
        <time>2021-08-26T13:31:23Z</time>
      </trkpt>
      <trkpt lat="46.65679" lon="5.48077">
        <ele>225</ele>
        <time>2021-08-26T13:31:25Z</time>
      </trkpt>
      <trkpt lat="46.65678" lon="5.48087">
        <ele>225</ele>
        <time>2021-08-26T13:31:26Z</time>
      </trkpt>
      <trkpt lat="46.65676" lon="5.48097">
        <ele>225</ele>
        <time>2021-08-26T13:31:27Z</time>
      </trkpt>
      <trkpt lat="46.65671" lon="5.48115">
        <ele>225.2</ele>
        <time>2021-08-26T13:31:29Z</time>
      </trkpt>
      <trkpt lat="46.65663" lon="5.48131">
        <ele>225.6</ele>
        <time>2021-08-26T13:31:31Z</time>
      </trkpt>
      <trkpt lat="46.65651" lon="5.48136">
        <ele>225.8</ele>
        <time>2021-08-26T13:31:33Z</time>
      </trkpt>
      <trkpt lat="46.65644" lon="5.48134">
        <ele>225.8</ele>
        <time>2021-08-26T13:31:34Z</time>
      </trkpt>
      <trkpt lat="46.65637" lon="5.48131">
        <ele>225.8</ele>
        <time>2021-08-26T13:31:35Z</time>
      </trkpt>
      <trkpt lat="46.65631" lon="5.48127">
        <ele>226</ele>
        <time>2021-08-26T13:31:36Z</time>
      </trkpt>
      <trkpt lat="46.65625" lon="5.48123">
        <ele>226</ele>
        <time>2021-08-26T13:31:37Z</time>
      </trkpt>
      <trkpt lat="46.65612" lon="5.48115">
        <ele>226.2</ele>
        <time>2021-08-26T13:31:39Z</time>
      </trkpt>
      <trkpt lat="46.65598" lon="5.48107">
        <ele>226.2</ele>
        <time>2021-08-26T13:31:41Z</time>
      </trkpt>
      <trkpt lat="46.65591" lon="5.48104">
        <ele>226.2</ele>
        <time>2021-08-26T13:31:42Z</time>
      </trkpt>
      <trkpt lat="46.65584" lon="5.48103">
        <ele>226.2</ele>
        <time>2021-08-26T13:31:43Z</time>
      </trkpt>
      <trkpt lat="46.65577" lon="5.48106">
        <ele>226.2</ele>
        <time>2021-08-26T13:31:44Z</time>
      </trkpt>
      <trkpt lat="46.65571" lon="5.48111">
        <ele>226.2</ele>
        <time>2021-08-26T13:31:45Z</time>
      </trkpt>
      <trkpt lat="46.65567" lon="5.4812">
        <ele>226.2</ele>
        <time>2021-08-26T13:31:46Z</time>
      </trkpt>
      <trkpt lat="46.65564" lon="5.48129">
        <ele>226</ele>
        <time>2021-08-26T13:31:47Z</time>
      </trkpt>
      <trkpt lat="46.65562" lon="5.48139">
        <ele>226</ele>
        <time>2021-08-26T13:31:48Z</time>
      </trkpt>
      <trkpt lat="46.65559" lon="5.48149">
        <ele>226</ele>
        <time>2021-08-26T13:31:49Z</time>
      </trkpt>
      <trkpt lat="46.65557" lon="5.48159">
        <ele>226</ele>
        <time>2021-08-26T13:31:50Z</time>
      </trkpt>
      <trkpt lat="46.65556" lon="5.4817">
        <ele>226</ele>
        <time>2021-08-26T13:31:51Z</time>
      </trkpt>
      <trkpt lat="46.65552" lon="5.4819">
        <ele>226</ele>
        <time>2021-08-26T13:31:53Z</time>
      </trkpt>
      <trkpt lat="46.65549" lon="5.48211">
        <ele>226</ele>
        <time>2021-08-26T13:31:55Z</time>
      </trkpt>
      <trkpt lat="46.65547" lon="5.48232">
        <ele>226</ele>
        <time>2021-08-26T13:31:57Z</time>
      </trkpt>
      <trkpt lat="46.65544" lon="5.48252">
        <ele>226.2</ele>
        <time>2021-08-26T13:31:59Z</time>
      </trkpt>
      <trkpt lat="46.65542" lon="5.48271">
        <ele>226.4</ele>
        <time>2021-08-26T13:32:01Z</time>
      </trkpt>
      <trkpt lat="46.65541" lon="5.4829">
        <ele>226.4</ele>
        <time>2021-08-26T13:32:03Z</time>
      </trkpt>
      <trkpt lat="46.6554" lon="5.48308">
        <ele>226.4</ele>
        <time>2021-08-26T13:32:05Z</time>
      </trkpt>
      <trkpt lat="46.65539" lon="5.48325">
        <ele>226.8</ele>
        <time>2021-08-26T13:32:07Z</time>
      </trkpt>
      <trkpt lat="46.65538" lon="5.48341">
        <ele>227.2</ele>
        <time>2021-08-26T13:32:09Z</time>
      </trkpt>
      <trkpt lat="46.65538" lon="5.48357">
        <ele>227.8</ele>
        <time>2021-08-26T13:32:11Z</time>
      </trkpt>
      <trkpt lat="46.65538" lon="5.48371">
        <ele>228.2</ele>
        <time>2021-08-26T13:32:13Z</time>
      </trkpt>
      <trkpt lat="46.65538" lon="5.48378">
        <ele>228.6</ele>
        <time>2021-08-26T13:32:14Z</time>
      </trkpt>
      <trkpt lat="46.65537" lon="5.48385">
        <ele>228.8</ele>
        <time>2021-08-26T13:32:15Z</time>
      </trkpt>
      <trkpt lat="46.65535" lon="5.48398">
        <ele>229.6</ele>
        <time>2021-08-26T13:32:17Z</time>
      </trkpt>
      <trkpt lat="46.65532" lon="5.4841">
        <ele>230.4</ele>
        <time>2021-08-26T13:32:19Z</time>
      </trkpt>
      <trkpt lat="46.6553" lon="5.48416">
        <ele>230.8</ele>
        <time>2021-08-26T13:32:20Z</time>
      </trkpt>
      <trkpt lat="46.65528" lon="5.48422">
        <ele>231.2</ele>
        <time>2021-08-26T13:32:21Z</time>
      </trkpt>
      <trkpt lat="46.65524" lon="5.48435">
        <ele>232</ele>
        <time>2021-08-26T13:32:23Z</time>
      </trkpt>
      <trkpt lat="46.65521" lon="5.48447">
        <ele>233</ele>
        <time>2021-08-26T13:32:25Z</time>
      </trkpt>
      <trkpt lat="46.65519" lon="5.48453">
        <ele>233.4</ele>
        <time>2021-08-26T13:32:26Z</time>
      </trkpt>
      <trkpt lat="46.65517" lon="5.48459">
        <ele>234</ele>
        <time>2021-08-26T13:32:27Z</time>
      </trkpt>
      <trkpt lat="46.65515" lon="5.48465">
        <ele>234.4</ele>
        <time>2021-08-26T13:32:28Z</time>
      </trkpt>
      <trkpt lat="46.65512" lon="5.48471">
        <ele>234.6</ele>
        <time>2021-08-26T13:32:29Z</time>
      </trkpt>
      <trkpt lat="46.65507" lon="5.48482">
        <ele>235.2</ele>
        <time>2021-08-26T13:32:31Z</time>
      </trkpt>
      <trkpt lat="46.65499" lon="5.48489">
        <ele>235.6</ele>
        <time>2021-08-26T13:32:33Z</time>
      </trkpt>
      <trkpt lat="46.65491" lon="5.48496">
        <ele>236.2</ele>
        <time>2021-08-26T13:32:35Z</time>
      </trkpt>
      <trkpt lat="46.65483" lon="5.48502">
        <ele>237</ele>
        <time>2021-08-26T13:32:37Z</time>
      </trkpt>
      <trkpt lat="46.65475" lon="5.48508">
        <ele>237.6</ele>
        <time>2021-08-26T13:32:39Z</time>
      </trkpt>
      <trkpt lat="46.65471" lon="5.48511">
        <ele>238</ele>
        <time>2021-08-26T13:32:40Z</time>
      </trkpt>
      <trkpt lat="46.65467" lon="5.48516">
        <ele>238.2</ele>
        <time>2021-08-26T13:32:41Z</time>
      </trkpt>
      <trkpt lat="46.6546" lon="5.48525">
        <ele>239</ele>
        <time>2021-08-26T13:32:43Z</time>
      </trkpt>
      <trkpt lat="46.65454" lon="5.48535">
        <ele>239.6</ele>
        <time>2021-08-26T13:32:45Z</time>
      </trkpt>
      <trkpt lat="46.65447" lon="5.48546">
        <ele>240</ele>
        <time>2021-08-26T13:32:47Z</time>
      </trkpt>
      <trkpt lat="46.6544" lon="5.48556">
        <ele>240.6</ele>
        <time>2021-08-26T13:32:49Z</time>
      </trkpt>
      <trkpt lat="46.65432" lon="5.48566">
        <ele>241.4</ele>
        <time>2021-08-26T13:32:51Z</time>
      </trkpt>
      <trkpt lat="46.65426" lon="5.48578">
        <ele>242</ele>
        <time>2021-08-26T13:32:53Z</time>
      </trkpt>
      <trkpt lat="46.6542" lon="5.48591">
        <ele>242.6</ele>
        <time>2021-08-26T13:32:55Z</time>
      </trkpt>
      <trkpt lat="46.65413" lon="5.48606">
        <ele>242.8</ele>
        <time>2021-08-26T13:32:57Z</time>
      </trkpt>
      <trkpt lat="46.65407" lon="5.48622">
        <ele>242.8</ele>
        <time>2021-08-26T13:32:59Z</time>
      </trkpt>
      <trkpt lat="46.654" lon="5.48637">
        <ele>242.8</ele>
        <time>2021-08-26T13:33:01Z</time>
      </trkpt>
      <trkpt lat="46.65395" lon="5.48643">
        <ele>242.8</ele>
        <time>2021-08-26T13:33:02Z</time>
      </trkpt>
      <trkpt lat="46.6539" lon="5.48647">
        <ele>242.8</ele>
        <time>2021-08-26T13:33:03Z</time>
      </trkpt>
      <trkpt lat="46.65377" lon="5.48649">
        <ele>242.6</ele>
        <time>2021-08-26T13:33:05Z</time>
      </trkpt>
      <trkpt lat="46.6537" lon="5.48648">
        <ele>242.4</ele>
        <time>2021-08-26T13:33:06Z</time>
      </trkpt>
      <trkpt lat="46.65364" lon="5.48647">
        <ele>242.2</ele>
        <time>2021-08-26T13:33:07Z</time>
      </trkpt>
      <trkpt lat="46.65352" lon="5.48644">
        <ele>242</ele>
        <time>2021-08-26T13:33:09Z</time>
      </trkpt>
      <trkpt lat="46.65341" lon="5.48643">
        <ele>241.8</ele>
        <time>2021-08-26T13:33:11Z</time>
      </trkpt>
      <trkpt lat="46.65329" lon="5.48647">
        <ele>241.6</ele>
        <time>2021-08-26T13:33:13Z</time>
      </trkpt>
      <trkpt lat="46.65323" lon="5.48648">
        <ele>241.4</ele>
        <time>2021-08-26T13:33:14Z</time>
      </trkpt>
      <trkpt lat="46.65317" lon="5.48647">
        <ele>241.4</ele>
        <time>2021-08-26T13:33:15Z</time>
      </trkpt>
      <trkpt lat="46.65311" lon="5.48646">
        <ele>241.4</ele>
        <time>2021-08-26T13:33:16Z</time>
      </trkpt>
      <trkpt lat="46.65305" lon="5.48644">
        <ele>241.4</ele>
        <time>2021-08-26T13:33:17Z</time>
      </trkpt>
      <trkpt lat="46.65293" lon="5.48642">
        <ele>241.4</ele>
        <time>2021-08-26T13:33:19Z</time>
      </trkpt>
      <trkpt lat="46.65287" lon="5.48639">
        <ele>241.4</ele>
        <time>2021-08-26T13:33:20Z</time>
      </trkpt>
      <trkpt lat="46.65281" lon="5.48636">
        <ele>241.4</ele>
        <time>2021-08-26T13:33:21Z</time>
      </trkpt>
      <trkpt lat="46.65269" lon="5.48629">
        <ele>241.6</ele>
        <time>2021-08-26T13:33:23Z</time>
      </trkpt>
      <trkpt lat="46.65257" lon="5.48621">
        <ele>242</ele>
        <time>2021-08-26T13:33:25Z</time>
      </trkpt>
      <trkpt lat="46.65251" lon="5.48617">
        <ele>242.2</ele>
        <time>2021-08-26T13:33:26Z</time>
      </trkpt>
      <trkpt lat="46.65245" lon="5.48614">
        <ele>242.4</ele>
        <time>2021-08-26T13:33:27Z</time>
      </trkpt>
      <trkpt lat="46.65234" lon="5.48606">
        <ele>242.6</ele>
        <time>2021-08-26T13:33:29Z</time>
      </trkpt>
      <trkpt lat="46.65228" lon="5.48601">
        <ele>242.6</ele>
        <time>2021-08-26T13:33:30Z</time>
      </trkpt>
      <trkpt lat="46.65223" lon="5.48597">
        <ele>242.6</ele>
        <time>2021-08-26T13:33:31Z</time>
      </trkpt>
      <trkpt lat="46.65211" lon="5.4859">
        <ele>242.8</ele>
        <time>2021-08-26T13:33:33Z</time>
      </trkpt>
      <trkpt lat="46.65205" lon="5.48586">
        <ele>243.2</ele>
        <time>2021-08-26T13:33:34Z</time>
      </trkpt>
      <trkpt lat="46.65199" lon="5.48584">
        <ele>243.2</ele>
        <time>2021-08-26T13:33:35Z</time>
      </trkpt>
      <trkpt lat="46.65187" lon="5.48579">
        <ele>243.4</ele>
        <time>2021-08-26T13:33:37Z</time>
      </trkpt>
      <trkpt lat="46.65174" lon="5.48575">
        <ele>243.4</ele>
        <time>2021-08-26T13:33:39Z</time>
      </trkpt>
      <trkpt lat="46.65161" lon="5.48569">
        <ele>243.4</ele>
        <time>2021-08-26T13:33:41Z</time>
      </trkpt>
      <trkpt lat="46.65148" lon="5.48562">
        <ele>243.4</ele>
        <time>2021-08-26T13:33:43Z</time>
      </trkpt>
      <trkpt lat="46.65135" lon="5.48555">
        <ele>243.4</ele>
        <time>2021-08-26T13:33:45Z</time>
      </trkpt>
      <trkpt lat="46.65122" lon="5.48548">
        <ele>243.4</ele>
        <time>2021-08-26T13:33:47Z</time>
      </trkpt>
      <trkpt lat="46.65109" lon="5.48541">
        <ele>243.2</ele>
        <time>2021-08-26T13:33:49Z</time>
      </trkpt>
      <trkpt lat="46.65096" lon="5.48533">
        <ele>243.2</ele>
        <time>2021-08-26T13:33:51Z</time>
      </trkpt>
      <trkpt lat="46.65083" lon="5.48526">
        <ele>243.2</ele>
        <time>2021-08-26T13:33:53Z</time>
      </trkpt>
      <trkpt lat="46.65076" lon="5.48522">
        <ele>243.2</ele>
        <time>2021-08-26T13:33:54Z</time>
      </trkpt>
      <trkpt lat="46.6507" lon="5.48518">
        <ele>243.2</ele>
        <time>2021-08-26T13:33:55Z</time>
      </trkpt>
      <trkpt lat="46.65057" lon="5.4851">
        <ele>243.2</ele>
        <time>2021-08-26T13:33:57Z</time>
      </trkpt>
      <trkpt lat="46.65045" lon="5.48502">
        <ele>243.2</ele>
        <time>2021-08-26T13:33:59Z</time>
      </trkpt>
      <trkpt lat="46.65033" lon="5.48494">
        <ele>243.2</ele>
        <time>2021-08-26T13:34:01Z</time>
      </trkpt>
      <trkpt lat="46.65021" lon="5.48485">
        <ele>243.2</ele>
        <time>2021-08-26T13:34:03Z</time>
      </trkpt>
      <trkpt lat="46.65015" lon="5.48481">
        <ele>243.2</ele>
        <time>2021-08-26T13:34:04Z</time>
      </trkpt>
      <trkpt lat="46.65009" lon="5.48477">
        <ele>243.2</ele>
        <time>2021-08-26T13:34:05Z</time>
      </trkpt>
      <trkpt lat="46.64997" lon="5.48468">
        <ele>243.4</ele>
        <time>2021-08-26T13:34:07Z</time>
      </trkpt>
      <trkpt lat="46.64986" lon="5.48459">
        <ele>243.6</ele>
        <time>2021-08-26T13:34:09Z</time>
      </trkpt>
      <trkpt lat="46.64975" lon="5.4845">
        <ele>243.8</ele>
        <time>2021-08-26T13:34:11Z</time>
      </trkpt>
      <trkpt lat="46.64964" lon="5.48441">
        <ele>243.8</ele>
        <time>2021-08-26T13:34:13Z</time>
      </trkpt>
      <trkpt lat="46.64958" lon="5.48437">
        <ele>243.8</ele>
        <time>2021-08-26T13:34:14Z</time>
      </trkpt>
      <trkpt lat="46.64953" lon="5.48432">
        <ele>244</ele>
        <time>2021-08-26T13:34:15Z</time>
      </trkpt>
      <trkpt lat="46.64942" lon="5.48422">
        <ele>244.2</ele>
        <time>2021-08-26T13:34:17Z</time>
      </trkpt>
      <trkpt lat="46.64931" lon="5.48412">
        <ele>244.4</ele>
        <time>2021-08-26T13:34:19Z</time>
      </trkpt>
      <trkpt lat="46.6492" lon="5.48401">
        <ele>244.4</ele>
        <time>2021-08-26T13:34:21Z</time>
      </trkpt>
      <trkpt lat="46.64908" lon="5.48391">
        <ele>244.6</ele>
        <time>2021-08-26T13:34:23Z</time>
      </trkpt>
      <trkpt lat="46.64896" lon="5.4838">
        <ele>244.6</ele>
        <time>2021-08-26T13:34:25Z</time>
      </trkpt>
      <trkpt lat="46.64884" lon="5.4837">
        <ele>244.8</ele>
        <time>2021-08-26T13:34:27Z</time>
      </trkpt>
      <trkpt lat="46.64878" lon="5.48365">
        <ele>244.8</ele>
        <time>2021-08-26T13:34:28Z</time>
      </trkpt>
      <trkpt lat="46.64871" lon="5.4836">
        <ele>244.8</ele>
        <time>2021-08-26T13:34:29Z</time>
      </trkpt>
      <trkpt lat="46.64859" lon="5.4835">
        <ele>244.8</ele>
        <time>2021-08-26T13:34:31Z</time>
      </trkpt>
      <trkpt lat="46.64846" lon="5.48341">
        <ele>244.8</ele>
        <time>2021-08-26T13:34:33Z</time>
      </trkpt>
      <trkpt lat="46.64834" lon="5.48331">
        <ele>244.8</ele>
        <time>2021-08-26T13:34:35Z</time>
      </trkpt>
      <trkpt lat="46.64821" lon="5.48322">
        <ele>245</ele>
        <time>2021-08-26T13:34:37Z</time>
      </trkpt>
      <trkpt lat="46.64809" lon="5.48313">
        <ele>245</ele>
        <time>2021-08-26T13:34:39Z</time>
      </trkpt>
      <trkpt lat="46.64797" lon="5.48305">
        <ele>245</ele>
        <time>2021-08-26T13:34:41Z</time>
      </trkpt>
      <trkpt lat="46.64786" lon="5.48296">
        <ele>245</ele>
        <time>2021-08-26T13:34:43Z</time>
      </trkpt>
      <trkpt lat="46.64773" lon="5.48286">
        <ele>245</ele>
        <time>2021-08-26T13:34:45Z</time>
      </trkpt>
      <trkpt lat="46.6476" lon="5.48277">
        <ele>245.2</ele>
        <time>2021-08-26T13:34:47Z</time>
      </trkpt>
      <trkpt lat="46.64747" lon="5.48267">
        <ele>245.2</ele>
        <time>2021-08-26T13:34:49Z</time>
      </trkpt>
      <trkpt lat="46.64733" lon="5.48257">
        <ele>245</ele>
        <time>2021-08-26T13:34:51Z</time>
      </trkpt>
      <trkpt lat="46.64721" lon="5.48246">
        <ele>245</ele>
        <time>2021-08-26T13:34:53Z</time>
      </trkpt>
      <trkpt lat="46.64708" lon="5.48237">
        <ele>245</ele>
        <time>2021-08-26T13:34:55Z</time>
      </trkpt>
      <trkpt lat="46.64702" lon="5.48234">
        <ele>245</ele>
        <time>2021-08-26T13:34:56Z</time>
      </trkpt>
      <trkpt lat="46.64696" lon="5.48231">
        <ele>245</ele>
        <time>2021-08-26T13:34:57Z</time>
      </trkpt>
      <trkpt lat="46.6469" lon="5.48227">
        <ele>244.6</ele>
        <time>2021-08-26T13:34:58Z</time>
      </trkpt>
      <trkpt lat="46.64686" lon="5.48221">
        <ele>244.6</ele>
        <time>2021-08-26T13:34:59Z</time>
      </trkpt>
      <trkpt lat="46.64683" lon="5.48214">
        <ele>244.6</ele>
        <time>2021-08-26T13:35:00Z</time>
      </trkpt>
      <trkpt lat="46.64682" lon="5.48204">
        <ele>244.4</ele>
        <time>2021-08-26T13:35:01Z</time>
      </trkpt>
      <trkpt lat="46.6468" lon="5.48194">
        <ele>244.4</ele>
        <time>2021-08-26T13:35:02Z</time>
      </trkpt>
      <trkpt lat="46.64679" lon="5.48184">
        <ele>244.2</ele>
        <time>2021-08-26T13:35:03Z</time>
      </trkpt>
      <trkpt lat="46.64677" lon="5.48173">
        <ele>244.2</ele>
        <time>2021-08-26T13:35:04Z</time>
      </trkpt>
      <trkpt lat="46.64675" lon="5.48161">
        <ele>244.2</ele>
        <time>2021-08-26T13:35:05Z</time>
      </trkpt>
      <trkpt lat="46.64672" lon="5.48138">
        <ele>243.8</ele>
        <time>2021-08-26T13:35:07Z</time>
      </trkpt>
      <trkpt lat="46.6467" lon="5.48126">
        <ele>243.8</ele>
        <time>2021-08-26T13:35:08Z</time>
      </trkpt>
      <trkpt lat="46.64668" lon="5.48113">
        <ele>243.4</ele>
        <time>2021-08-26T13:35:09Z</time>
      </trkpt>
      <trkpt lat="46.64664" lon="5.48089">
        <ele>243</ele>
        <time>2021-08-26T13:35:11Z</time>
      </trkpt>
      <trkpt lat="46.6466" lon="5.48064">
        <ele>242.6</ele>
        <time>2021-08-26T13:35:13Z</time>
      </trkpt>
      <trkpt lat="46.64656" lon="5.48039">
        <ele>241.8</ele>
        <time>2021-08-26T13:35:15Z</time>
      </trkpt>
      <trkpt lat="46.64654" lon="5.48026">
        <ele>241.4</ele>
        <time>2021-08-26T13:35:16Z</time>
      </trkpt>
      <trkpt lat="46.64652" lon="5.48013">
        <ele>241.2</ele>
        <time>2021-08-26T13:35:17Z</time>
      </trkpt>
      <trkpt lat="46.64649" lon="5.47989">
        <ele>240.8</ele>
        <time>2021-08-26T13:35:19Z</time>
      </trkpt>
      <trkpt lat="46.64645" lon="5.47965">
        <ele>240.4</ele>
        <time>2021-08-26T13:35:21Z</time>
      </trkpt>
      <trkpt lat="46.64643" lon="5.47953">
        <ele>240</ele>
        <time>2021-08-26T13:35:22Z</time>
      </trkpt>
      <trkpt lat="46.64641" lon="5.47941">
        <ele>239.8</ele>
        <time>2021-08-26T13:35:23Z</time>
      </trkpt>
      <trkpt lat="46.64637" lon="5.47917">
        <ele>239.6</ele>
        <time>2021-08-26T13:35:25Z</time>
      </trkpt>
      <trkpt lat="46.64633" lon="5.47894">
        <ele>239.6</ele>
        <time>2021-08-26T13:35:27Z</time>
      </trkpt>
      <trkpt lat="46.64629" lon="5.47871">
        <ele>239.6</ele>
        <time>2021-08-26T13:35:29Z</time>
      </trkpt>
      <trkpt lat="46.64623" lon="5.47848">
        <ele>239.6</ele>
        <time>2021-08-26T13:35:31Z</time>
      </trkpt>
      <trkpt lat="46.64616" lon="5.47826">
        <ele>239.6</ele>
        <time>2021-08-26T13:35:33Z</time>
      </trkpt>
      <trkpt lat="46.64608" lon="5.47804">
        <ele>239.6</ele>
        <time>2021-08-26T13:35:35Z</time>
      </trkpt>
      <trkpt lat="46.646" lon="5.47782">
        <ele>239.6</ele>
        <time>2021-08-26T13:35:37Z</time>
      </trkpt>
      <trkpt lat="46.64593" lon="5.47759">
        <ele>239.6</ele>
        <time>2021-08-26T13:35:39Z</time>
      </trkpt>
      <trkpt lat="46.64585" lon="5.47736">
        <ele>239.6</ele>
        <time>2021-08-26T13:35:41Z</time>
      </trkpt>
      <trkpt lat="46.64577" lon="5.47714">
        <ele>239.4</ele>
        <time>2021-08-26T13:35:43Z</time>
      </trkpt>
      <trkpt lat="46.64569" lon="5.47691">
        <ele>239.4</ele>
        <time>2021-08-26T13:35:45Z</time>
      </trkpt>
      <trkpt lat="46.64562" lon="5.47669">
        <ele>239.2</ele>
        <time>2021-08-26T13:35:47Z</time>
      </trkpt>
      <trkpt lat="46.64554" lon="5.47647">
        <ele>239</ele>
        <time>2021-08-26T13:35:49Z</time>
      </trkpt>
      <trkpt lat="46.64547" lon="5.47625">
        <ele>238.4</ele>
        <time>2021-08-26T13:35:51Z</time>
      </trkpt>
      <trkpt lat="46.64543" lon="5.47614">
        <ele>238.4</ele>
        <time>2021-08-26T13:35:52Z</time>
      </trkpt>
      <trkpt lat="46.64539" lon="5.47603">
        <ele>238.2</ele>
        <time>2021-08-26T13:35:53Z</time>
      </trkpt>
      <trkpt lat="46.64531" lon="5.4758">
        <ele>238.2</ele>
        <time>2021-08-26T13:35:55Z</time>
      </trkpt>
      <trkpt lat="46.64522" lon="5.47556">
        <ele>238</ele>
        <time>2021-08-26T13:35:57Z</time>
      </trkpt>
      <trkpt lat="46.64514" lon="5.47532">
        <ele>237.8</ele>
        <time>2021-08-26T13:35:59Z</time>
      </trkpt>
      <trkpt lat="46.6451" lon="5.4752">
        <ele>237.8</ele>
        <time>2021-08-26T13:36:00Z</time>
      </trkpt>
      <trkpt lat="46.64506" lon="5.47508">
        <ele>237.8</ele>
        <time>2021-08-26T13:36:01Z</time>
      </trkpt>
      <trkpt lat="46.64499" lon="5.47483">
        <ele>237.4</ele>
        <time>2021-08-26T13:36:03Z</time>
      </trkpt>
      <trkpt lat="46.64495" lon="5.47471">
        <ele>237.2</ele>
        <time>2021-08-26T13:36:04Z</time>
      </trkpt>
      <trkpt lat="46.64491" lon="5.47459">
        <ele>236.8</ele>
        <time>2021-08-26T13:36:05Z</time>
      </trkpt>
      <trkpt lat="46.64486" lon="5.47448">
        <ele>236.4</ele>
        <time>2021-08-26T13:36:06Z</time>
      </trkpt>
      <trkpt lat="46.64481" lon="5.47436">
        <ele>236.2</ele>
        <time>2021-08-26T13:36:07Z</time>
      </trkpt>
      <trkpt lat="46.64472" lon="5.47413">
        <ele>235.6</ele>
        <time>2021-08-26T13:36:09Z</time>
      </trkpt>
      <trkpt lat="46.64464" lon="5.4739">
        <ele>234.6</ele>
        <time>2021-08-26T13:36:11Z</time>
      </trkpt>
      <trkpt lat="46.64456" lon="5.47366">
        <ele>234.2</ele>
        <time>2021-08-26T13:36:13Z</time>
      </trkpt>
      <trkpt lat="46.64449" lon="5.47343">
        <ele>234</ele>
        <time>2021-08-26T13:36:15Z</time>
      </trkpt>
      <trkpt lat="46.64441" lon="5.4732">
        <ele>234</ele>
        <time>2021-08-26T13:36:17Z</time>
      </trkpt>
      <trkpt lat="46.64433" lon="5.47298">
        <ele>234</ele>
        <time>2021-08-26T13:36:19Z</time>
      </trkpt>
      <trkpt lat="46.64429" lon="5.47287">
        <ele>234</ele>
        <time>2021-08-26T13:36:20Z</time>
      </trkpt>
      <trkpt lat="46.64426" lon="5.47276">
        <ele>233.8</ele>
        <time>2021-08-26T13:36:21Z</time>
      </trkpt>
      <trkpt lat="46.64418" lon="5.47254">
        <ele>233.8</ele>
        <time>2021-08-26T13:36:23Z</time>
      </trkpt>
      <trkpt lat="46.64411" lon="5.47233">
        <ele>233.8</ele>
        <time>2021-08-26T13:36:25Z</time>
      </trkpt>
      <trkpt lat="46.64404" lon="5.47212">
        <ele>233.8</ele>
        <time>2021-08-26T13:36:27Z</time>
      </trkpt>
      <trkpt lat="46.64397" lon="5.47191">
        <ele>233.8</ele>
        <time>2021-08-26T13:36:29Z</time>
      </trkpt>
      <trkpt lat="46.64394" lon="5.4718">
        <ele>233.8</ele>
        <time>2021-08-26T13:36:30Z</time>
      </trkpt>
      <trkpt lat="46.64391" lon="5.4717">
        <ele>233.8</ele>
        <time>2021-08-26T13:36:31Z</time>
      </trkpt>
      <trkpt lat="46.64384" lon="5.47148">
        <ele>233.8</ele>
        <time>2021-08-26T13:36:33Z</time>
      </trkpt>
      <trkpt lat="46.64377" lon="5.47126">
        <ele>233.8</ele>
        <time>2021-08-26T13:36:35Z</time>
      </trkpt>
      <trkpt lat="46.64371" lon="5.47105">
        <ele>233.8</ele>
        <time>2021-08-26T13:36:37Z</time>
      </trkpt>
      <trkpt lat="46.64364" lon="5.47085">
        <ele>233.6</ele>
        <time>2021-08-26T13:36:39Z</time>
      </trkpt>
      <trkpt lat="46.6436" lon="5.47075">
        <ele>233.6</ele>
        <time>2021-08-26T13:36:40Z</time>
      </trkpt>
      <trkpt lat="46.64356" lon="5.47067">
        <ele>233.6</ele>
        <time>2021-08-26T13:36:41Z</time>
      </trkpt>
      <trkpt lat="46.64349" lon="5.47062">
        <ele>233.6</ele>
        <time>2021-08-26T13:36:42Z</time>
      </trkpt>
      <trkpt lat="46.64342" lon="5.47061">
        <ele>233.4</ele>
        <time>2021-08-26T13:36:43Z</time>
      </trkpt>
      <trkpt lat="46.64328" lon="5.47057">
        <ele>233.4</ele>
        <time>2021-08-26T13:36:45Z</time>
      </trkpt>
      <trkpt lat="46.64317" lon="5.47045">
        <ele>233.4</ele>
        <time>2021-08-26T13:36:47Z</time>
      </trkpt>
      <trkpt lat="46.64312" lon="5.47037">
        <ele>233.6</ele>
        <time>2021-08-26T13:36:48Z</time>
      </trkpt>
      <trkpt lat="46.64307" lon="5.47029">
        <ele>233.6</ele>
        <time>2021-08-26T13:36:49Z</time>
      </trkpt>
      <trkpt lat="46.64297" lon="5.47015">
        <ele>233.6</ele>
        <time>2021-08-26T13:36:51Z</time>
      </trkpt>
      <trkpt lat="46.64287" lon="5.47">
        <ele>234</ele>
        <time>2021-08-26T13:36:53Z</time>
      </trkpt>
      <trkpt lat="46.64277" lon="5.46984">
        <ele>234.6</ele>
        <time>2021-08-26T13:36:55Z</time>
      </trkpt>
      <trkpt lat="46.64272" lon="5.46977">
        <ele>234.8</ele>
        <time>2021-08-26T13:36:56Z</time>
      </trkpt>
      <trkpt lat="46.64266" lon="5.46969">
        <ele>235</ele>
        <time>2021-08-26T13:36:57Z</time>
      </trkpt>
      <trkpt lat="46.64255" lon="5.46953">
        <ele>235</ele>
        <time>2021-08-26T13:36:59Z</time>
      </trkpt>
      <trkpt lat="46.64244" lon="5.46937">
        <ele>235.2</ele>
        <time>2021-08-26T13:37:01Z</time>
      </trkpt>
      <trkpt lat="46.64234" lon="5.46919">
        <ele>235.2</ele>
        <time>2021-08-26T13:37:03Z</time>
      </trkpt>
      <trkpt lat="46.64228" lon="5.46911">
        <ele>235.2</ele>
        <time>2021-08-26T13:37:04Z</time>
      </trkpt>
      <trkpt lat="46.64223" lon="5.46901">
        <ele>235.2</ele>
        <time>2021-08-26T13:37:05Z</time>
      </trkpt>
      <trkpt lat="46.64213" lon="5.46882">
        <ele>234.8</ele>
        <time>2021-08-26T13:37:07Z</time>
      </trkpt>
      <trkpt lat="46.64203" lon="5.46861">
        <ele>234.6</ele>
        <time>2021-08-26T13:37:09Z</time>
      </trkpt>
      <trkpt lat="46.64197" lon="5.46851">
        <ele>234.6</ele>
        <time>2021-08-26T13:37:10Z</time>
      </trkpt>
      <trkpt lat="46.64192" lon="5.4684">
        <ele>234.4</ele>
        <time>2021-08-26T13:37:11Z</time>
      </trkpt>
      <trkpt lat="46.6418" lon="5.46818">
        <ele>233.8</ele>
        <time>2021-08-26T13:37:13Z</time>
      </trkpt>
      <trkpt lat="46.64167" lon="5.46798">
        <ele>233.6</ele>
        <time>2021-08-26T13:37:15Z</time>
      </trkpt>
      <trkpt lat="46.6416" lon="5.46788">
        <ele>233.4</ele>
        <time>2021-08-26T13:37:16Z</time>
      </trkpt>
      <trkpt lat="46.64154" lon="5.46779">
        <ele>233.4</ele>
        <time>2021-08-26T13:37:17Z</time>
      </trkpt>
      <trkpt lat="46.64139" lon="5.46761">
        <ele>232</ele>
        <time>2021-08-26T13:37:19Z</time>
      </trkpt>
      <trkpt lat="46.64124" lon="5.46747">
        <ele>230.8</ele>
        <time>2021-08-26T13:37:21Z</time>
      </trkpt>
      <trkpt lat="46.6411" lon="5.46735">
        <ele>230</ele>
        <time>2021-08-26T13:37:23Z</time>
      </trkpt>
      <trkpt lat="46.64102" lon="5.46729">
        <ele>229.4</ele>
        <time>2021-08-26T13:37:24Z</time>
      </trkpt>
      <trkpt lat="46.64094" lon="5.46724">
        <ele>228.8</ele>
        <time>2021-08-26T13:37:25Z</time>
      </trkpt>
      <trkpt lat="46.64086" lon="5.4672">
        <ele>228.4</ele>
        <time>2021-08-26T13:37:26Z</time>
      </trkpt>
      <trkpt lat="46.64078" lon="5.46716">
        <ele>228.2</ele>
        <time>2021-08-26T13:37:27Z</time>
      </trkpt>
      <trkpt lat="46.64061" lon="5.4671">
        <ele>228</ele>
        <time>2021-08-26T13:37:29Z</time>
      </trkpt>
      <trkpt lat="46.64044" lon="5.46704">
        <ele>227.8</ele>
        <time>2021-08-26T13:37:31Z</time>
      </trkpt>
      <trkpt lat="46.64027" lon="5.46699">
        <ele>227.8</ele>
        <time>2021-08-26T13:37:33Z</time>
      </trkpt>
      <trkpt lat="46.64011" lon="5.46694">
        <ele>227.8</ele>
        <time>2021-08-26T13:37:35Z</time>
      </trkpt>
      <trkpt lat="46.63995" lon="5.46689">
        <ele>228</ele>
        <time>2021-08-26T13:37:37Z</time>
      </trkpt>
      <trkpt lat="46.63979" lon="5.46684">
        <ele>228</ele>
        <time>2021-08-26T13:37:39Z</time>
      </trkpt>
      <trkpt lat="46.63971" lon="5.46682">
        <ele>228.2</ele>
        <time>2021-08-26T13:37:40Z</time>
      </trkpt>
      <trkpt lat="46.63964" lon="5.4668">
        <ele>228.4</ele>
        <time>2021-08-26T13:37:41Z</time>
      </trkpt>
      <trkpt lat="46.63949" lon="5.46676">
        <ele>228.6</ele>
        <time>2021-08-26T13:37:43Z</time>
      </trkpt>
      <trkpt lat="46.63934" lon="5.46671">
        <ele>229</ele>
        <time>2021-08-26T13:37:45Z</time>
      </trkpt>
      <trkpt lat="46.6392" lon="5.46667">
        <ele>229.6</ele>
        <time>2021-08-26T13:37:47Z</time>
      </trkpt>
      <trkpt lat="46.63906" lon="5.46664">
        <ele>229.8</ele>
        <time>2021-08-26T13:37:49Z</time>
      </trkpt>
      <trkpt lat="46.63892" lon="5.4666">
        <ele>230.2</ele>
        <time>2021-08-26T13:37:51Z</time>
      </trkpt>
      <trkpt lat="46.63879" lon="5.46656">
        <ele>230.4</ele>
        <time>2021-08-26T13:37:53Z</time>
      </trkpt>
      <trkpt lat="46.63865" lon="5.46652">
        <ele>230.6</ele>
        <time>2021-08-26T13:37:55Z</time>
      </trkpt>
      <trkpt lat="46.63852" lon="5.46649">
        <ele>230.8</ele>
        <time>2021-08-26T13:37:57Z</time>
      </trkpt>
      <trkpt lat="46.63845" lon="5.46646">
        <ele>231</ele>
        <time>2021-08-26T13:37:58Z</time>
      </trkpt>
      <trkpt lat="46.63839" lon="5.46644">
        <ele>231.2</ele>
        <time>2021-08-26T13:37:59Z</time>
      </trkpt>
      <trkpt lat="46.63826" lon="5.4664">
        <ele>231.6</ele>
        <time>2021-08-26T13:38:01Z</time>
      </trkpt>
      <trkpt lat="46.63813" lon="5.46635">
        <ele>232.2</ele>
        <time>2021-08-26T13:38:03Z</time>
      </trkpt>
      <trkpt lat="46.638" lon="5.46629">
        <ele>232.4</ele>
        <time>2021-08-26T13:38:05Z</time>
      </trkpt>
      <trkpt lat="46.63787" lon="5.46621">
        <ele>232.6</ele>
        <time>2021-08-26T13:38:07Z</time>
      </trkpt>
      <trkpt lat="46.63776" lon="5.46611">
        <ele>232.6</ele>
        <time>2021-08-26T13:38:09Z</time>
      </trkpt>
      <trkpt lat="46.63765" lon="5.466">
        <ele>232.8</ele>
        <time>2021-08-26T13:38:11Z</time>
      </trkpt>
      <trkpt lat="46.63754" lon="5.4659">
        <ele>232.8</ele>
        <time>2021-08-26T13:38:13Z</time>
      </trkpt>
      <trkpt lat="46.63743" lon="5.4658">
        <ele>233</ele>
        <time>2021-08-26T13:38:15Z</time>
      </trkpt>
      <trkpt lat="46.63732" lon="5.4657">
        <ele>233.2</ele>
        <time>2021-08-26T13:38:17Z</time>
      </trkpt>
      <trkpt lat="46.63721" lon="5.46561">
        <ele>233.4</ele>
        <time>2021-08-26T13:38:19Z</time>
      </trkpt>
      <trkpt lat="46.6371" lon="5.46553">
        <ele>233.4</ele>
        <time>2021-08-26T13:38:21Z</time>
      </trkpt>
      <trkpt lat="46.63698" lon="5.46547">
        <ele>233.6</ele>
        <time>2021-08-26T13:38:23Z</time>
      </trkpt>
      <trkpt lat="46.63686" lon="5.46541">
        <ele>233.8</ele>
        <time>2021-08-26T13:38:25Z</time>
      </trkpt>
      <trkpt lat="46.63679" lon="5.46538">
        <ele>234</ele>
        <time>2021-08-26T13:38:26Z</time>
      </trkpt>
      <trkpt lat="46.63673" lon="5.46535">
        <ele>234</ele>
        <time>2021-08-26T13:38:27Z</time>
      </trkpt>
      <trkpt lat="46.63667" lon="5.46532">
        <ele>234.2</ele>
        <time>2021-08-26T13:38:28Z</time>
      </trkpt>
      <trkpt lat="46.63661" lon="5.4653">
        <ele>234.2</ele>
        <time>2021-08-26T13:38:29Z</time>
      </trkpt>
      <trkpt lat="46.63649" lon="5.46524">
        <ele>234.4</ele>
        <time>2021-08-26T13:38:31Z</time>
      </trkpt>
      <trkpt lat="46.63636" lon="5.46519">
        <ele>234.6</ele>
        <time>2021-08-26T13:38:33Z</time>
      </trkpt>
      <trkpt lat="46.63624" lon="5.46513">
        <ele>234.6</ele>
        <time>2021-08-26T13:38:35Z</time>
      </trkpt>
      <trkpt lat="46.63611" lon="5.46507">
        <ele>234.8</ele>
        <time>2021-08-26T13:38:37Z</time>
      </trkpt>
      <trkpt lat="46.63605" lon="5.46505">
        <ele>234.8</ele>
        <time>2021-08-26T13:38:38Z</time>
      </trkpt>
      <trkpt lat="46.63598" lon="5.46502">
        <ele>234.8</ele>
        <time>2021-08-26T13:38:39Z</time>
      </trkpt>
      <trkpt lat="46.63585" lon="5.46496">
        <ele>234.8</ele>
        <time>2021-08-26T13:38:41Z</time>
      </trkpt>
      <trkpt lat="46.63572" lon="5.46491">
        <ele>234.8</ele>
        <time>2021-08-26T13:38:43Z</time>
      </trkpt>
      <trkpt lat="46.63559" lon="5.46485">
        <ele>235</ele>
        <time>2021-08-26T13:38:45Z</time>
      </trkpt>
      <trkpt lat="46.63546" lon="5.46478">
        <ele>235</ele>
        <time>2021-08-26T13:38:47Z</time>
      </trkpt>
      <trkpt lat="46.63532" lon="5.46472">
        <ele>235.2</ele>
        <time>2021-08-26T13:38:49Z</time>
      </trkpt>
      <trkpt lat="46.63519" lon="5.46466">
        <ele>235.2</ele>
        <time>2021-08-26T13:38:51Z</time>
      </trkpt>
      <trkpt lat="46.63505" lon="5.4646">
        <ele>235.2</ele>
        <time>2021-08-26T13:38:53Z</time>
      </trkpt>
      <trkpt lat="46.63491" lon="5.46454">
        <ele>235.2</ele>
        <time>2021-08-26T13:38:55Z</time>
      </trkpt>
      <trkpt lat="46.63478" lon="5.46448">
        <ele>235.2</ele>
        <time>2021-08-26T13:38:57Z</time>
      </trkpt>
      <trkpt lat="46.63464" lon="5.46442">
        <ele>235.2</ele>
        <time>2021-08-26T13:38:59Z</time>
      </trkpt>
      <trkpt lat="46.63451" lon="5.46436">
        <ele>235.2</ele>
        <time>2021-08-26T13:39:01Z</time>
      </trkpt>
      <trkpt lat="46.63437" lon="5.4643">
        <ele>235.2</ele>
        <time>2021-08-26T13:39:03Z</time>
      </trkpt>
      <trkpt lat="46.63424" lon="5.46424">
        <ele>235.2</ele>
        <time>2021-08-26T13:39:05Z</time>
      </trkpt>
      <trkpt lat="46.6341" lon="5.46419">
        <ele>235.2</ele>
        <time>2021-08-26T13:39:07Z</time>
      </trkpt>
      <trkpt lat="46.63396" lon="5.46414">
        <ele>235.2</ele>
        <time>2021-08-26T13:39:09Z</time>
      </trkpt>
      <trkpt lat="46.63382" lon="5.4641">
        <ele>235.4</ele>
        <time>2021-08-26T13:39:11Z</time>
      </trkpt>
      <trkpt lat="46.63368" lon="5.46405">
        <ele>235.6</ele>
        <time>2021-08-26T13:39:13Z</time>
      </trkpt>
      <trkpt lat="46.63354" lon="5.46401">
        <ele>235.8</ele>
        <time>2021-08-26T13:39:15Z</time>
      </trkpt>
      <trkpt lat="46.63339" lon="5.46397">
        <ele>236.2</ele>
        <time>2021-08-26T13:39:17Z</time>
      </trkpt>
      <trkpt lat="46.63325" lon="5.46393">
        <ele>236.2</ele>
        <time>2021-08-26T13:39:19Z</time>
      </trkpt>
      <trkpt lat="46.63311" lon="5.4639">
        <ele>236.2</ele>
        <time>2021-08-26T13:39:21Z</time>
      </trkpt>
      <trkpt lat="46.63297" lon="5.46387">
        <ele>236.2</ele>
        <time>2021-08-26T13:39:23Z</time>
      </trkpt>
      <trkpt lat="46.6329" lon="5.46385">
        <ele>236.2</ele>
        <time>2021-08-26T13:39:24Z</time>
      </trkpt>
      <trkpt lat="46.63283" lon="5.46383">
        <ele>236.2</ele>
        <time>2021-08-26T13:39:25Z</time>
      </trkpt>
      <trkpt lat="46.63268" lon="5.4638">
        <ele>236.2</ele>
        <time>2021-08-26T13:39:27Z</time>
      </trkpt>
      <trkpt lat="46.63253" lon="5.46377">
        <ele>236.2</ele>
        <time>2021-08-26T13:39:29Z</time>
      </trkpt>
      <trkpt lat="46.63237" lon="5.46374">
        <ele>236.2</ele>
        <time>2021-08-26T13:39:31Z</time>
      </trkpt>
      <trkpt lat="46.63221" lon="5.46371">
        <ele>236.2</ele>
        <time>2021-08-26T13:39:33Z</time>
      </trkpt>
      <trkpt lat="46.63205" lon="5.46368">
        <ele>236</ele>
        <time>2021-08-26T13:39:35Z</time>
      </trkpt>
      <trkpt lat="46.63188" lon="5.46366">
        <ele>235.8</ele>
        <time>2021-08-26T13:39:37Z</time>
      </trkpt>
      <trkpt lat="46.63172" lon="5.46363">
        <ele>235.4</ele>
        <time>2021-08-26T13:39:39Z</time>
      </trkpt>
      <trkpt lat="46.63163" lon="5.46361">
        <ele>235.2</ele>
        <time>2021-08-26T13:39:40Z</time>
      </trkpt>
      <trkpt lat="46.63155" lon="5.46359">
        <ele>235</ele>
        <time>2021-08-26T13:39:41Z</time>
      </trkpt>
      <trkpt lat="46.63139" lon="5.46356">
        <ele>234.8</ele>
        <time>2021-08-26T13:39:43Z</time>
      </trkpt>
      <trkpt lat="46.63123" lon="5.46353">
        <ele>234.6</ele>
        <time>2021-08-26T13:39:45Z</time>
      </trkpt>
      <trkpt lat="46.63106" lon="5.4635">
        <ele>234.4</ele>
        <time>2021-08-26T13:39:47Z</time>
      </trkpt>
      <trkpt lat="46.63098" lon="5.46348">
        <ele>234.4</ele>
        <time>2021-08-26T13:39:48Z</time>
      </trkpt>
      <trkpt lat="46.63089" lon="5.46346">
        <ele>234.2</ele>
        <time>2021-08-26T13:39:49Z</time>
      </trkpt>
      <trkpt lat="46.63072" lon="5.46343">
        <ele>234.2</ele>
        <time>2021-08-26T13:39:51Z</time>
      </trkpt>
      <trkpt lat="46.63054" lon="5.46339">
        <ele>233.8</ele>
        <time>2021-08-26T13:39:53Z</time>
      </trkpt>
      <trkpt lat="46.63037" lon="5.46336">
        <ele>233.4</ele>
        <time>2021-08-26T13:39:55Z</time>
      </trkpt>
      <trkpt lat="46.63019" lon="5.46333">
        <ele>233.2</ele>
        <time>2021-08-26T13:39:57Z</time>
      </trkpt>
      <trkpt lat="46.6301" lon="5.46331">
        <ele>232.8</ele>
        <time>2021-08-26T13:39:58Z</time>
      </trkpt>
      <trkpt lat="46.63001" lon="5.46329">
        <ele>232.4</ele>
        <time>2021-08-26T13:39:59Z</time>
      </trkpt>
      <trkpt lat="46.62983" lon="5.46326">
        <ele>232.2</ele>
        <time>2021-08-26T13:40:01Z</time>
      </trkpt>
      <trkpt lat="46.62966" lon="5.46323">
        <ele>232</ele>
        <time>2021-08-26T13:40:03Z</time>
      </trkpt>
      <trkpt lat="46.62948" lon="5.46319">
        <ele>231.8</ele>
        <time>2021-08-26T13:40:05Z</time>
      </trkpt>
      <trkpt lat="46.6294" lon="5.46318">
        <ele>231.4</ele>
        <time>2021-08-26T13:40:06Z</time>
      </trkpt>
      <trkpt lat="46.62931" lon="5.46316">
        <ele>231.2</ele>
        <time>2021-08-26T13:40:07Z</time>
      </trkpt>
      <trkpt lat="46.62922" lon="5.46314">
        <ele>231</ele>
        <time>2021-08-26T13:40:08Z</time>
      </trkpt>
      <trkpt lat="46.62914" lon="5.46312">
        <ele>230.8</ele>
        <time>2021-08-26T13:40:09Z</time>
      </trkpt>
      <trkpt lat="46.62896" lon="5.46309">
        <ele>230.6</ele>
        <time>2021-08-26T13:40:11Z</time>
      </trkpt>
      <trkpt lat="46.62879" lon="5.46306">
        <ele>230.4</ele>
        <time>2021-08-26T13:40:13Z</time>
      </trkpt>
      <trkpt lat="46.6287" lon="5.46305">
        <ele>230.4</ele>
        <time>2021-08-26T13:40:14Z</time>
      </trkpt>
      <trkpt lat="46.62862" lon="5.46304">
        <ele>230.4</ele>
        <time>2021-08-26T13:40:15Z</time>
      </trkpt>
      <trkpt lat="46.62844" lon="5.463">
        <ele>230</ele>
        <time>2021-08-26T13:40:17Z</time>
      </trkpt>
      <trkpt lat="46.62826" lon="5.46297">
        <ele>229.8</ele>
        <time>2021-08-26T13:40:19Z</time>
      </trkpt>
      <trkpt lat="46.62817" lon="5.46295">
        <ele>229.6</ele>
        <time>2021-08-26T13:40:20Z</time>
      </trkpt>
      <trkpt lat="46.62808" lon="5.46294">
        <ele>229.4</ele>
        <time>2021-08-26T13:40:21Z</time>
      </trkpt>
      <trkpt lat="46.62799" lon="5.46292">
        <ele>229.2</ele>
        <time>2021-08-26T13:40:22Z</time>
      </trkpt>
      <trkpt lat="46.62789" lon="5.4629">
        <ele>229.2</ele>
        <time>2021-08-26T13:40:23Z</time>
      </trkpt>
      <trkpt lat="46.6277" lon="5.46286">
        <ele>228.8</ele>
        <time>2021-08-26T13:40:25Z</time>
      </trkpt>
      <trkpt lat="46.6275" lon="5.46282">
        <ele>228.2</ele>
        <time>2021-08-26T13:40:27Z</time>
      </trkpt>
      <trkpt lat="46.6273" lon="5.46278">
        <ele>227.4</ele>
        <time>2021-08-26T13:40:29Z</time>
      </trkpt>
      <trkpt lat="46.6272" lon="5.46275">
        <ele>227</ele>
        <time>2021-08-26T13:40:30Z</time>
      </trkpt>
      <trkpt lat="46.6271" lon="5.46273">
        <ele>226.4</ele>
        <time>2021-08-26T13:40:31Z</time>
      </trkpt>
      <trkpt lat="46.62699" lon="5.46271">
        <ele>226</ele>
        <time>2021-08-26T13:40:32Z</time>
      </trkpt>
      <trkpt lat="46.62689" lon="5.4627">
        <ele>225.6</ele>
        <time>2021-08-26T13:40:33Z</time>
      </trkpt>
      <trkpt lat="46.62667" lon="5.46266">
        <ele>224.8</ele>
        <time>2021-08-26T13:40:35Z</time>
      </trkpt>
      <trkpt lat="46.62646" lon="5.46261">
        <ele>223.8</ele>
        <time>2021-08-26T13:40:37Z</time>
      </trkpt>
      <trkpt lat="46.62635" lon="5.46259">
        <ele>223.4</ele>
        <time>2021-08-26T13:40:38Z</time>
      </trkpt>
      <trkpt lat="46.62625" lon="5.46257">
        <ele>222.8</ele>
        <time>2021-08-26T13:40:39Z</time>
      </trkpt>
      <trkpt lat="46.62614" lon="5.46255">
        <ele>222.2</ele>
        <time>2021-08-26T13:40:40Z</time>
      </trkpt>
      <trkpt lat="46.62604" lon="5.46254">
        <ele>221.4</ele>
        <time>2021-08-26T13:40:41Z</time>
      </trkpt>
      <trkpt lat="46.62594" lon="5.46252">
        <ele>220.8</ele>
        <time>2021-08-26T13:40:42Z</time>
      </trkpt>
      <trkpt lat="46.62583" lon="5.46251">
        <ele>220.2</ele>
        <time>2021-08-26T13:40:43Z</time>
      </trkpt>
      <trkpt lat="46.62574" lon="5.4625">
        <ele>219.8</ele>
        <time>2021-08-26T13:40:44Z</time>
      </trkpt>
      <trkpt lat="46.62564" lon="5.46249">
        <ele>219.4</ele>
        <time>2021-08-26T13:40:45Z</time>
      </trkpt>
      <trkpt lat="46.62545" lon="5.46248">
        <ele>218.8</ele>
        <time>2021-08-26T13:40:47Z</time>
      </trkpt>
      <trkpt lat="46.62526" lon="5.46247">
        <ele>218.4</ele>
        <time>2021-08-26T13:40:49Z</time>
      </trkpt>
      <trkpt lat="46.62517" lon="5.46246">
        <ele>218</ele>
        <time>2021-08-26T13:40:50Z</time>
      </trkpt>
      <trkpt lat="46.62507" lon="5.46246">
        <ele>217.8</ele>
        <time>2021-08-26T13:40:51Z</time>
      </trkpt>
      <trkpt lat="46.62498" lon="5.46246">
        <ele>217.6</ele>
        <time>2021-08-26T13:40:52Z</time>
      </trkpt>
      <trkpt lat="46.62489" lon="5.46246">
        <ele>217.6</ele>
        <time>2021-08-26T13:40:53Z</time>
      </trkpt>
      <trkpt lat="46.6247" lon="5.4625">
        <ele>217.4</ele>
        <time>2021-08-26T13:40:55Z</time>
      </trkpt>
      <trkpt lat="46.62461" lon="5.46254">
        <ele>217.2</ele>
        <time>2021-08-26T13:40:56Z</time>
      </trkpt>
      <trkpt lat="46.62453" lon="5.46261">
        <ele>217</ele>
        <time>2021-08-26T13:40:57Z</time>
      </trkpt>
      <trkpt lat="46.62446" lon="5.4627">
        <ele>216.8</ele>
        <time>2021-08-26T13:40:58Z</time>
      </trkpt>
      <trkpt lat="46.6244" lon="5.46281">
        <ele>216.4</ele>
        <time>2021-08-26T13:40:59Z</time>
      </trkpt>
      <trkpt lat="46.62435" lon="5.46293">
        <ele>216</ele>
        <time>2021-08-26T13:41:00Z</time>
      </trkpt>
      <trkpt lat="46.6243" lon="5.46305">
        <ele>216</ele>
        <time>2021-08-26T13:41:01Z</time>
      </trkpt>
      <trkpt lat="46.62425" lon="5.46317">
        <ele>215.8</ele>
        <time>2021-08-26T13:41:02Z</time>
      </trkpt>
      <trkpt lat="46.6242" lon="5.46328">
        <ele>215.4</ele>
        <time>2021-08-26T13:41:03Z</time>
      </trkpt>
      <trkpt lat="46.62411" lon="5.46351">
        <ele>214.8</ele>
        <time>2021-08-26T13:41:05Z</time>
      </trkpt>
      <trkpt lat="46.62407" lon="5.46362">
        <ele>214.6</ele>
        <time>2021-08-26T13:41:06Z</time>
      </trkpt>
      <trkpt lat="46.62403" lon="5.46373">
        <ele>214.6</ele>
        <time>2021-08-26T13:41:07Z</time>
      </trkpt>
      <trkpt lat="46.62396" lon="5.46396">
        <ele>214.6</ele>
        <time>2021-08-26T13:41:09Z</time>
      </trkpt>
      <trkpt lat="46.62391" lon="5.46418">
        <ele>214.4</ele>
        <time>2021-08-26T13:41:11Z</time>
      </trkpt>
      <trkpt lat="46.62389" lon="5.46429">
        <ele>214.4</ele>
        <time>2021-08-26T13:41:12Z</time>
      </trkpt>
      <trkpt lat="46.62387" lon="5.46439">
        <ele>214.4</ele>
        <time>2021-08-26T13:41:13Z</time>
      </trkpt>
      <trkpt lat="46.62382" lon="5.46459">
        <ele>214.4</ele>
        <time>2021-08-26T13:41:15Z</time>
      </trkpt>
      <trkpt lat="46.62378" lon="5.46477">
        <ele>214.8</ele>
        <time>2021-08-26T13:41:17Z</time>
      </trkpt>
      <trkpt lat="46.62374" lon="5.46494">
        <ele>215.4</ele>
        <time>2021-08-26T13:41:19Z</time>
      </trkpt>
      <trkpt lat="46.62371" lon="5.46511">
        <ele>216</ele>
        <time>2021-08-26T13:41:21Z</time>
      </trkpt>
      <trkpt lat="46.62367" lon="5.46528">
        <ele>216.6</ele>
        <time>2021-08-26T13:41:23Z</time>
      </trkpt>
      <trkpt lat="46.62363" lon="5.46543">
        <ele>217.4</ele>
        <time>2021-08-26T13:41:25Z</time>
      </trkpt>
      <trkpt lat="46.6236" lon="5.46557">
        <ele>218.2</ele>
        <time>2021-08-26T13:41:27Z</time>
      </trkpt>
      <trkpt lat="46.62358" lon="5.46564">
        <ele>218.4</ele>
        <time>2021-08-26T13:41:28Z</time>
      </trkpt>
      <trkpt lat="46.62356" lon="5.46571">
        <ele>218.8</ele>
        <time>2021-08-26T13:41:29Z</time>
      </trkpt>
      <trkpt lat="46.62354" lon="5.46584">
        <ele>219.4</ele>
        <time>2021-08-26T13:41:31Z</time>
      </trkpt>
      <trkpt lat="46.62352" lon="5.4659">
        <ele>219.8</ele>
        <time>2021-08-26T13:41:32Z</time>
      </trkpt>
      <trkpt lat="46.62351" lon="5.46597">
        <ele>220.2</ele>
        <time>2021-08-26T13:41:33Z</time>
      </trkpt>
      <trkpt lat="46.62348" lon="5.46609">
        <ele>221</ele>
        <time>2021-08-26T13:41:35Z</time>
      </trkpt>
      <trkpt lat="46.62345" lon="5.46622">
        <ele>221.8</ele>
        <time>2021-08-26T13:41:37Z</time>
      </trkpt>
      <trkpt lat="46.62344" lon="5.46629">
        <ele>222</ele>
        <time>2021-08-26T13:41:38Z</time>
      </trkpt>
      <trkpt lat="46.62342" lon="5.46635">
        <ele>222.6</ele>
        <time>2021-08-26T13:41:39Z</time>
      </trkpt>
      <trkpt lat="46.6234" lon="5.46648">
        <ele>223.2</ele>
        <time>2021-08-26T13:41:41Z</time>
      </trkpt>
      <trkpt lat="46.62337" lon="5.4666">
        <ele>224</ele>
        <time>2021-08-26T13:41:43Z</time>
      </trkpt>
      <trkpt lat="46.62335" lon="5.46666">
        <ele>224.4</ele>
        <time>2021-08-26T13:41:44Z</time>
      </trkpt>
      <trkpt lat="46.62334" lon="5.46673">
        <ele>224.6</ele>
        <time>2021-08-26T13:41:45Z</time>
      </trkpt>
      <trkpt lat="46.62331" lon="5.46686">
        <ele>225.6</ele>
        <time>2021-08-26T13:41:47Z</time>
      </trkpt>
      <trkpt lat="46.62329" lon="5.467">
        <ele>226.4</ele>
        <time>2021-08-26T13:41:49Z</time>
      </trkpt>
      <trkpt lat="46.62328" lon="5.46707">
        <ele>226.6</ele>
        <time>2021-08-26T13:41:50Z</time>
      </trkpt>
      <trkpt lat="46.62328" lon="5.46714">
        <ele>227</ele>
        <time>2021-08-26T13:41:51Z</time>
      </trkpt>
      <trkpt lat="46.62326" lon="5.46728">
        <ele>227.4</ele>
        <time>2021-08-26T13:41:53Z</time>
      </trkpt>
      <trkpt lat="46.62326" lon="5.46735">
        <ele>227.8</ele>
        <time>2021-08-26T13:41:54Z</time>
      </trkpt>
      <trkpt lat="46.62325" lon="5.46741">
        <ele>228</ele>
        <time>2021-08-26T13:41:55Z</time>
      </trkpt>
      <trkpt lat="46.62324" lon="5.46755">
        <ele>228.4</ele>
        <time>2021-08-26T13:41:57Z</time>
      </trkpt>
      <trkpt lat="46.62323" lon="5.46768">
        <ele>228.8</ele>
        <time>2021-08-26T13:41:59Z</time>
      </trkpt>
      <trkpt lat="46.62323" lon="5.46775">
        <ele>228.8</ele>
        <time>2021-08-26T13:42:00Z</time>
      </trkpt>
      <trkpt lat="46.62322" lon="5.46781">
        <ele>229</ele>
        <time>2021-08-26T13:42:01Z</time>
      </trkpt>
      <trkpt lat="46.62321" lon="5.46795">
        <ele>229.4</ele>
        <time>2021-08-26T13:42:03Z</time>
      </trkpt>
      <trkpt lat="46.6232" lon="5.46808">
        <ele>229.8</ele>
        <time>2021-08-26T13:42:05Z</time>
      </trkpt>
      <trkpt lat="46.6232" lon="5.46822">
        <ele>230.4</ele>
        <time>2021-08-26T13:42:07Z</time>
      </trkpt>
      <trkpt lat="46.62319" lon="5.46837">
        <ele>231</ele>
        <time>2021-08-26T13:42:09Z</time>
      </trkpt>
      <trkpt lat="46.62318" lon="5.46844">
        <ele>231.2</ele>
        <time>2021-08-26T13:42:10Z</time>
      </trkpt>
      <trkpt lat="46.62317" lon="5.46851">
        <ele>231.2</ele>
        <time>2021-08-26T13:42:11Z</time>
      </trkpt>
      <trkpt lat="46.62316" lon="5.46866">
        <ele>231.6</ele>
        <time>2021-08-26T13:42:13Z</time>
      </trkpt>
      <trkpt lat="46.62315" lon="5.46881">
        <ele>231.8</ele>
        <time>2021-08-26T13:42:15Z</time>
      </trkpt>
      <trkpt lat="46.62313" lon="5.46896">
        <ele>232</ele>
        <time>2021-08-26T13:42:17Z</time>
      </trkpt>
      <trkpt lat="46.6231" lon="5.46912">
        <ele>232.2</ele>
        <time>2021-08-26T13:42:19Z</time>
      </trkpt>
      <trkpt lat="46.62306" lon="5.46927">
        <ele>232.4</ele>
        <time>2021-08-26T13:42:21Z</time>
      </trkpt>
      <trkpt lat="46.62301" lon="5.46942">
        <ele>232.6</ele>
        <time>2021-08-26T13:42:23Z</time>
      </trkpt>
      <trkpt lat="46.62296" lon="5.46957">
        <ele>232.6</ele>
        <time>2021-08-26T13:42:25Z</time>
      </trkpt>
      <trkpt lat="46.6229" lon="5.46971">
        <ele>233</ele>
        <time>2021-08-26T13:42:27Z</time>
      </trkpt>
      <trkpt lat="46.62286" lon="5.46977">
        <ele>233</ele>
        <time>2021-08-26T13:42:28Z</time>
      </trkpt>
      <trkpt lat="46.62282" lon="5.46983">
        <ele>233</ele>
        <time>2021-08-26T13:42:29Z</time>
      </trkpt>
      <trkpt lat="46.62276" lon="5.46987">
        <ele>233.2</ele>
        <time>2021-08-26T13:42:30Z</time>
      </trkpt>
      <trkpt lat="46.62271" lon="5.46991">
        <ele>233.2</ele>
        <time>2021-08-26T13:42:31Z</time>
      </trkpt>
      <trkpt lat="46.6226" lon="5.46996">
        <ele>233.4</ele>
        <time>2021-08-26T13:42:33Z</time>
      </trkpt>
      <trkpt lat="46.62248" lon="5.47001">
        <ele>233.4</ele>
        <time>2021-08-26T13:42:35Z</time>
      </trkpt>
      <trkpt lat="46.62236" lon="5.47007">
        <ele>233.4</ele>
        <time>2021-08-26T13:42:37Z</time>
      </trkpt>
      <trkpt lat="46.62225" lon="5.47015">
        <ele>233.6</ele>
        <time>2021-08-26T13:42:39Z</time>
      </trkpt>
      <trkpt lat="46.6222" lon="5.4702">
        <ele>233.6</ele>
        <time>2021-08-26T13:42:40Z</time>
      </trkpt>
      <trkpt lat="46.62214" lon="5.47026">
        <ele>233.6</ele>
        <time>2021-08-26T13:42:41Z</time>
      </trkpt>
      <trkpt lat="46.62205" lon="5.47039">
        <ele>233.6</ele>
        <time>2021-08-26T13:42:43Z</time>
      </trkpt>
      <trkpt lat="46.62196" lon="5.47052">
        <ele>233.8</ele>
        <time>2021-08-26T13:42:45Z</time>
      </trkpt>
      <trkpt lat="46.62186" lon="5.47065">
        <ele>233.8</ele>
        <time>2021-08-26T13:42:47Z</time>
      </trkpt>
      <trkpt lat="46.62178" lon="5.47077">
        <ele>234</ele>
        <time>2021-08-26T13:42:49Z</time>
      </trkpt>
      <trkpt lat="46.62169" lon="5.47088">
        <ele>234</ele>
        <time>2021-08-26T13:42:51Z</time>
      </trkpt>
      <trkpt lat="46.62161" lon="5.471">
        <ele>234.2</ele>
        <time>2021-08-26T13:42:53Z</time>
      </trkpt>
      <trkpt lat="46.62157" lon="5.47106">
        <ele>234.2</ele>
        <time>2021-08-26T13:42:54Z</time>
      </trkpt>
      <trkpt lat="46.62152" lon="5.47111">
        <ele>234.4</ele>
        <time>2021-08-26T13:42:55Z</time>
      </trkpt>
      <trkpt lat="46.62147" lon="5.47115">
        <ele>234.4</ele>
        <time>2021-08-26T13:42:56Z</time>
      </trkpt>
      <trkpt lat="46.62142" lon="5.47119">
        <ele>234.8</ele>
        <time>2021-08-26T13:42:57Z</time>
      </trkpt>
      <trkpt lat="46.62131" lon="5.47122">
        <ele>235.2</ele>
        <time>2021-08-26T13:42:59Z</time>
      </trkpt>
      <trkpt lat="46.62125" lon="5.47121">
        <ele>235.4</ele>
        <time>2021-08-26T13:43:00Z</time>
      </trkpt>
      <trkpt lat="46.62119" lon="5.4712">
        <ele>235.6</ele>
        <time>2021-08-26T13:43:01Z</time>
      </trkpt>
      <trkpt lat="46.62114" lon="5.47118">
        <ele>235.8</ele>
        <time>2021-08-26T13:43:02Z</time>
      </trkpt>
      <trkpt lat="46.62108" lon="5.47116">
        <ele>236</ele>
        <time>2021-08-26T13:43:03Z</time>
      </trkpt>
      <trkpt lat="46.62102" lon="5.47113">
        <ele>236.4</ele>
        <time>2021-08-26T13:43:04Z</time>
      </trkpt>
      <trkpt lat="46.62096" lon="5.4711">
        <ele>236.6</ele>
        <time>2021-08-26T13:43:05Z</time>
      </trkpt>
      <trkpt lat="46.62084" lon="5.47104">
        <ele>237</ele>
        <time>2021-08-26T13:43:07Z</time>
      </trkpt>
      <trkpt lat="46.62073" lon="5.47098">
        <ele>237.2</ele>
        <time>2021-08-26T13:43:09Z</time>
      </trkpt>
      <trkpt lat="46.62061" lon="5.47092">
        <ele>237.4</ele>
        <time>2021-08-26T13:43:11Z</time>
      </trkpt>
      <trkpt lat="46.6205" lon="5.47086">
        <ele>237.6</ele>
        <time>2021-08-26T13:43:13Z</time>
      </trkpt>
      <trkpt lat="46.62044" lon="5.47083">
        <ele>237.6</ele>
        <time>2021-08-26T13:43:14Z</time>
      </trkpt>
      <trkpt lat="46.62038" lon="5.4708">
        <ele>237.6</ele>
        <time>2021-08-26T13:43:15Z</time>
      </trkpt>
      <trkpt lat="46.62026" lon="5.47073">
        <ele>237.6</ele>
        <time>2021-08-26T13:43:17Z</time>
      </trkpt>
      <trkpt lat="46.62014" lon="5.47068">
        <ele>237.6</ele>
        <time>2021-08-26T13:43:19Z</time>
      </trkpt>
      <trkpt lat="46.62007" lon="5.47065">
        <ele>237.6</ele>
        <time>2021-08-26T13:43:20Z</time>
      </trkpt>
      <trkpt lat="46.62001" lon="5.47062">
        <ele>237.6</ele>
        <time>2021-08-26T13:43:21Z</time>
      </trkpt>
      <trkpt lat="46.61988" lon="5.47056">
        <ele>237.6</ele>
        <time>2021-08-26T13:43:23Z</time>
      </trkpt>
      <trkpt lat="46.61975" lon="5.47049">
        <ele>237.6</ele>
        <time>2021-08-26T13:43:25Z</time>
      </trkpt>
      <trkpt lat="46.61961" lon="5.47043">
        <ele>237.4</ele>
        <time>2021-08-26T13:43:27Z</time>
      </trkpt>
      <trkpt lat="46.61948" lon="5.47036">
        <ele>237.4</ele>
        <time>2021-08-26T13:43:29Z</time>
      </trkpt>
      <trkpt lat="46.61934" lon="5.47029">
        <ele>237.4</ele>
        <time>2021-08-26T13:43:31Z</time>
      </trkpt>
      <trkpt lat="46.6192" lon="5.47023">
        <ele>237.2</ele>
        <time>2021-08-26T13:43:33Z</time>
      </trkpt>
      <trkpt lat="46.61906" lon="5.47016">
        <ele>237.2</ele>
        <time>2021-08-26T13:43:35Z</time>
      </trkpt>
      <trkpt lat="46.61892" lon="5.4701">
        <ele>237</ele>
        <time>2021-08-26T13:43:37Z</time>
      </trkpt>
      <trkpt lat="46.61885" lon="5.47008">
        <ele>236.8</ele>
        <time>2021-08-26T13:43:38Z</time>
      </trkpt>
      <trkpt lat="46.61877" lon="5.47005">
        <ele>236.6</ele>
        <time>2021-08-26T13:43:39Z</time>
      </trkpt>
      <trkpt lat="46.61863" lon="5.47">
        <ele>236.6</ele>
        <time>2021-08-26T13:43:41Z</time>
      </trkpt>
      <trkpt lat="46.61848" lon="5.46996">
        <ele>236.6</ele>
        <time>2021-08-26T13:43:43Z</time>
      </trkpt>
      <trkpt lat="46.61833" lon="5.46992">
        <ele>236.4</ele>
        <time>2021-08-26T13:43:45Z</time>
      </trkpt>
      <trkpt lat="46.61826" lon="5.4699">
        <ele>236.4</ele>
        <time>2021-08-26T13:43:46Z</time>
      </trkpt>
      <trkpt lat="46.61818" lon="5.46988">
        <ele>236.4</ele>
        <time>2021-08-26T13:43:47Z</time>
      </trkpt>
      <trkpt lat="46.61811" lon="5.46986">
        <ele>236.2</ele>
        <time>2021-08-26T13:43:48Z</time>
      </trkpt>
      <trkpt lat="46.61803" lon="5.46984">
        <ele>236.2</ele>
        <time>2021-08-26T13:43:49Z</time>
      </trkpt>
      <trkpt lat="46.61788" lon="5.46981">
        <ele>236.2</ele>
        <time>2021-08-26T13:43:51Z</time>
      </trkpt>
      <trkpt lat="46.61773" lon="5.46978">
        <ele>236.2</ele>
        <time>2021-08-26T13:43:53Z</time>
      </trkpt>
      <trkpt lat="46.61758" lon="5.46975">
        <ele>236.2</ele>
        <time>2021-08-26T13:43:55Z</time>
      </trkpt>
      <trkpt lat="46.61743" lon="5.46973">
        <ele>236.2</ele>
        <time>2021-08-26T13:43:57Z</time>
      </trkpt>
      <trkpt lat="46.61728" lon="5.46972">
        <ele>236.2</ele>
        <time>2021-08-26T13:43:59Z</time>
      </trkpt>
      <trkpt lat="46.61713" lon="5.4697">
        <ele>236.2</ele>
        <time>2021-08-26T13:44:01Z</time>
      </trkpt>
      <trkpt lat="46.61698" lon="5.46969">
        <ele>236.2</ele>
        <time>2021-08-26T13:44:03Z</time>
      </trkpt>
      <trkpt lat="46.61683" lon="5.46969">
        <ele>236.4</ele>
        <time>2021-08-26T13:44:05Z</time>
      </trkpt>
      <trkpt lat="46.61667" lon="5.4697">
        <ele>236.4</ele>
        <time>2021-08-26T13:44:07Z</time>
      </trkpt>
      <trkpt lat="46.61652" lon="5.46972">
        <ele>236.4</ele>
        <time>2021-08-26T13:44:09Z</time>
      </trkpt>
      <trkpt lat="46.61636" lon="5.46973">
        <ele>236.4</ele>
        <time>2021-08-26T13:44:11Z</time>
      </trkpt>
      <trkpt lat="46.61621" lon="5.46974">
        <ele>236.4</ele>
        <time>2021-08-26T13:44:13Z</time>
      </trkpt>
      <trkpt lat="46.61606" lon="5.46974">
        <ele>236.4</ele>
        <time>2021-08-26T13:44:15Z</time>
      </trkpt>
      <trkpt lat="46.61591" lon="5.46973">
        <ele>236.2</ele>
        <time>2021-08-26T13:44:17Z</time>
      </trkpt>
      <trkpt lat="46.61576" lon="5.46971">
        <ele>236.2</ele>
        <time>2021-08-26T13:44:19Z</time>
      </trkpt>
      <trkpt lat="46.61561" lon="5.4697">
        <ele>236.2</ele>
        <time>2021-08-26T13:44:21Z</time>
      </trkpt>
      <trkpt lat="46.61547" lon="5.4697">
        <ele>236</ele>
        <time>2021-08-26T13:44:23Z</time>
      </trkpt>
      <trkpt lat="46.61532" lon="5.4697">
        <ele>236</ele>
        <time>2021-08-26T13:44:25Z</time>
      </trkpt>
      <trkpt lat="46.61517" lon="5.46968">
        <ele>236</ele>
        <time>2021-08-26T13:44:27Z</time>
      </trkpt>
      <trkpt lat="46.61503" lon="5.46964">
        <ele>235.8</ele>
        <time>2021-08-26T13:44:29Z</time>
      </trkpt>
      <trkpt lat="46.61488" lon="5.46959">
        <ele>235.8</ele>
        <time>2021-08-26T13:44:31Z</time>
      </trkpt>
      <trkpt lat="46.61474" lon="5.46954">
        <ele>235.8</ele>
        <time>2021-08-26T13:44:33Z</time>
      </trkpt>
      <trkpt lat="46.61466" lon="5.46951">
        <ele>235.6</ele>
        <time>2021-08-26T13:44:34Z</time>
      </trkpt>
      <trkpt lat="46.61459" lon="5.46949">
        <ele>235.6</ele>
        <time>2021-08-26T13:44:35Z</time>
      </trkpt>
      <trkpt lat="46.61445" lon="5.46944">
        <ele>235.6</ele>
        <time>2021-08-26T13:44:37Z</time>
      </trkpt>
      <trkpt lat="46.61437" lon="5.46942">
        <ele>235.6</ele>
        <time>2021-08-26T13:44:38Z</time>
      </trkpt>
      <trkpt lat="46.6143" lon="5.4694">
        <ele>235.6</ele>
        <time>2021-08-26T13:44:39Z</time>
      </trkpt>
      <trkpt lat="46.61415" lon="5.46935">
        <ele>235.4</ele>
        <time>2021-08-26T13:44:41Z</time>
      </trkpt>
      <trkpt lat="46.61401" lon="5.46931">
        <ele>235.4</ele>
        <time>2021-08-26T13:44:43Z</time>
      </trkpt>
      <trkpt lat="46.61386" lon="5.46927">
        <ele>235.4</ele>
        <time>2021-08-26T13:44:45Z</time>
      </trkpt>
      <trkpt lat="46.6137" lon="5.46923">
        <ele>235.4</ele>
        <time>2021-08-26T13:44:47Z</time>
      </trkpt>
      <trkpt lat="46.61355" lon="5.46919">
        <ele>235.4</ele>
        <time>2021-08-26T13:44:49Z</time>
      </trkpt>
      <trkpt lat="46.61338" lon="5.46917">
        <ele>235.2</ele>
        <time>2021-08-26T13:44:51Z</time>
      </trkpt>
      <trkpt lat="46.61322" lon="5.46915">
        <ele>235</ele>
        <time>2021-08-26T13:44:53Z</time>
      </trkpt>
      <trkpt lat="46.61304" lon="5.46914">
        <ele>234.8</ele>
        <time>2021-08-26T13:44:55Z</time>
      </trkpt>
      <trkpt lat="46.61295" lon="5.46914">
        <ele>234.6</ele>
        <time>2021-08-26T13:44:56Z</time>
      </trkpt>
      <trkpt lat="46.61285" lon="5.46913">
        <ele>234.2</ele>
        <time>2021-08-26T13:44:57Z</time>
      </trkpt>
      <trkpt lat="46.61276" lon="5.46912">
        <ele>233.8</ele>
        <time>2021-08-26T13:44:58Z</time>
      </trkpt>
      <trkpt lat="46.61267" lon="5.46912">
        <ele>233.6</ele>
        <time>2021-08-26T13:44:59Z</time>
      </trkpt>
      <trkpt lat="46.61257" lon="5.46912">
        <ele>233.4</ele>
        <time>2021-08-26T13:45:00Z</time>
      </trkpt>
      <trkpt lat="46.61248" lon="5.46912">
        <ele>233</ele>
        <time>2021-08-26T13:45:01Z</time>
      </trkpt>
      <trkpt lat="46.61229" lon="5.46916">
        <ele>231.8</ele>
        <time>2021-08-26T13:45:03Z</time>
      </trkpt>
      <trkpt lat="46.61219" lon="5.46919">
        <ele>231.6</ele>
        <time>2021-08-26T13:45:04Z</time>
      </trkpt>
      <trkpt lat="46.6121" lon="5.46924">
        <ele>231.2</ele>
        <time>2021-08-26T13:45:05Z</time>
      </trkpt>
      <trkpt lat="46.612" lon="5.46929">
        <ele>230.8</ele>
        <time>2021-08-26T13:45:06Z</time>
      </trkpt>
      <trkpt lat="46.6119" lon="5.46935">
        <ele>230.4</ele>
        <time>2021-08-26T13:45:07Z</time>
      </trkpt>
      <trkpt lat="46.61171" lon="5.46946">
        <ele>229.4</ele>
        <time>2021-08-26T13:45:09Z</time>
      </trkpt>
      <trkpt lat="46.61151" lon="5.46957">
        <ele>228.6</ele>
        <time>2021-08-26T13:45:11Z</time>
      </trkpt>
      <trkpt lat="46.61141" lon="5.46963">
        <ele>228.2</ele>
        <time>2021-08-26T13:45:12Z</time>
      </trkpt>
      <trkpt lat="46.61131" lon="5.46969">
        <ele>227.6</ele>
        <time>2021-08-26T13:45:13Z</time>
      </trkpt>
      <trkpt lat="46.61121" lon="5.46974">
        <ele>227</ele>
        <time>2021-08-26T13:45:14Z</time>
      </trkpt>
      <trkpt lat="46.61111" lon="5.4698">
        <ele>226.4</ele>
        <time>2021-08-26T13:45:15Z</time>
      </trkpt>
      <trkpt lat="46.61102" lon="5.46986">
        <ele>225.8</ele>
        <time>2021-08-26T13:45:16Z</time>
      </trkpt>
      <trkpt lat="46.61092" lon="5.46993">
        <ele>225.4</ele>
        <time>2021-08-26T13:45:17Z</time>
      </trkpt>
      <trkpt lat="46.61075" lon="5.47008">
        <ele>224.4</ele>
        <time>2021-08-26T13:45:19Z</time>
      </trkpt>
      <trkpt lat="46.61067" lon="5.47017">
        <ele>223.8</ele>
        <time>2021-08-26T13:45:20Z</time>
      </trkpt>
      <trkpt lat="46.6106" lon="5.47026">
        <ele>223.2</ele>
        <time>2021-08-26T13:45:21Z</time>
      </trkpt>
      <trkpt lat="46.61047" lon="5.47047">
        <ele>222.4</ele>
        <time>2021-08-26T13:45:23Z</time>
      </trkpt>
      <trkpt lat="46.61042" lon="5.47058">
        <ele>222.2</ele>
        <time>2021-08-26T13:45:24Z</time>
      </trkpt>
      <trkpt lat="46.61036" lon="5.47068">
        <ele>222</ele>
        <time>2021-08-26T13:45:25Z</time>
      </trkpt>
      <trkpt lat="46.61027" lon="5.47087">
        <ele>221.8</ele>
        <time>2021-08-26T13:45:27Z</time>
      </trkpt>
      <trkpt lat="46.61017" lon="5.47105">
        <ele>221.8</ele>
        <time>2021-08-26T13:45:29Z</time>
      </trkpt>
      <trkpt lat="46.61008" lon="5.47122">
        <ele>221.8</ele>
        <time>2021-08-26T13:45:31Z</time>
      </trkpt>
      <trkpt lat="46.61001" lon="5.47139">
        <ele>221.8</ele>
        <time>2021-08-26T13:45:33Z</time>
      </trkpt>
      <trkpt lat="46.60995" lon="5.47155">
        <ele>222.4</ele>
        <time>2021-08-26T13:45:35Z</time>
      </trkpt>
      <trkpt lat="46.6099" lon="5.47172">
        <ele>223.4</ele>
        <time>2021-08-26T13:45:37Z</time>
      </trkpt>
      <trkpt lat="46.60988" lon="5.47189">
        <ele>224</ele>
        <time>2021-08-26T13:45:39Z</time>
      </trkpt>
      <trkpt lat="46.60987" lon="5.47197">
        <ele>224.4</ele>
        <time>2021-08-26T13:45:40Z</time>
      </trkpt>
      <trkpt lat="46.60987" lon="5.47205">
        <ele>224.8</ele>
        <time>2021-08-26T13:45:41Z</time>
      </trkpt>
      <trkpt lat="46.60989" lon="5.47222">
        <ele>225.8</ele>
        <time>2021-08-26T13:45:43Z</time>
      </trkpt>
      <trkpt lat="46.60991" lon="5.47229">
        <ele>226.4</ele>
        <time>2021-08-26T13:45:44Z</time>
      </trkpt>
      <trkpt lat="46.60993" lon="5.47236">
        <ele>226.8</ele>
        <time>2021-08-26T13:45:45Z</time>
      </trkpt>
      <trkpt lat="46.60996" lon="5.47243">
        <ele>227.2</ele>
        <time>2021-08-26T13:45:46Z</time>
      </trkpt>
      <trkpt lat="46.60998" lon="5.47251">
        <ele>227.8</ele>
        <time>2021-08-26T13:45:47Z</time>
      </trkpt>
      <trkpt lat="46.61002" lon="5.47264">
        <ele>228.8</ele>
        <time>2021-08-26T13:45:49Z</time>
      </trkpt>
      <trkpt lat="46.61004" lon="5.47271">
        <ele>229.2</ele>
        <time>2021-08-26T13:45:50Z</time>
      </trkpt>
      <trkpt lat="46.61006" lon="5.47277">
        <ele>229.6</ele>
        <time>2021-08-26T13:45:51Z</time>
      </trkpt>
      <trkpt lat="46.61008" lon="5.47284">
        <ele>230.2</ele>
        <time>2021-08-26T13:45:52Z</time>
      </trkpt>
      <trkpt lat="46.61009" lon="5.47291">
        <ele>230.8</ele>
        <time>2021-08-26T13:45:53Z</time>
      </trkpt>
      <trkpt lat="46.61011" lon="5.47306">
        <ele>231.4</ele>
        <time>2021-08-26T13:45:55Z</time>
      </trkpt>
      <trkpt lat="46.61011" lon="5.47313">
        <ele>231.6</ele>
        <time>2021-08-26T13:45:56Z</time>
      </trkpt>
      <trkpt lat="46.61011" lon="5.4732">
        <ele>231.8</ele>
        <time>2021-08-26T13:45:57Z</time>
      </trkpt>
      <trkpt lat="46.61011" lon="5.47326">
        <ele>232</ele>
        <time>2021-08-26T13:45:58Z</time>
      </trkpt>
      <trkpt lat="46.6101" lon="5.47332">
        <ele>232.6</ele>
        <time>2021-08-26T13:45:59Z</time>
      </trkpt>
      <trkpt lat="46.61008" lon="5.47342">
        <ele>233.4</ele>
        <time>2021-08-26T13:46:01Z</time>
      </trkpt>
      <trkpt lat="46.61006" lon="5.47346">
        <ele>233.8</ele>
        <time>2021-08-26T13:46:02Z</time>
      </trkpt>
      <trkpt lat="46.61004" lon="5.47349">
        <ele>234.2</ele>
        <time>2021-08-26T13:46:03Z</time>
      </trkpt>
      <trkpt lat="46.61002" lon="5.47352">
        <ele>234.6</ele>
        <time>2021-08-26T13:46:04Z</time>
      </trkpt>
      <trkpt lat="46.61" lon="5.47353">
        <ele>235.2</ele>
        <time>2021-08-26T13:46:05Z</time>
      </trkpt>
      <trkpt lat="46.60994" lon="5.47357">
        <ele>236.2</ele>
        <time>2021-08-26T13:46:07Z</time>
      </trkpt>
      <trkpt lat="46.60989" lon="5.47368">
        <ele>237</ele>
        <time>2021-08-26T13:46:09Z</time>
      </trkpt>
      <trkpt lat="46.60986" lon="5.47374">
        <ele>237.4</ele>
        <time>2021-08-26T13:46:10Z</time>
      </trkpt>
      <trkpt lat="46.60984" lon="5.47381">
        <ele>237.8</ele>
        <time>2021-08-26T13:46:11Z</time>
      </trkpt>
      <trkpt lat="46.60979" lon="5.47393">
        <ele>237.8</ele>
        <time>2021-08-26T13:46:13Z</time>
      </trkpt>
      <trkpt lat="46.60973" lon="5.47405">
        <ele>238.2</ele>
        <time>2021-08-26T13:46:15Z</time>
      </trkpt>
      <trkpt lat="46.60969" lon="5.4741">
        <ele>238.2</ele>
        <time>2021-08-26T13:46:16Z</time>
      </trkpt>
      <trkpt lat="46.60965" lon="5.47414">
        <ele>238.2</ele>
        <time>2021-08-26T13:46:17Z</time>
      </trkpt>
      <trkpt lat="46.60956" lon="5.47417">
        <ele>238.4</ele>
        <time>2021-08-26T13:46:19Z</time>
      </trkpt>
      <trkpt lat="46.60951" lon="5.47417">
        <ele>238.4</ele>
        <time>2021-08-26T13:46:20Z</time>
      </trkpt>
      <trkpt lat="46.60946" lon="5.47417">
        <ele>238.4</ele>
        <time>2021-08-26T13:46:21Z</time>
      </trkpt>
      <trkpt lat="46.60936" lon="5.47416">
        <ele>238.4</ele>
        <time>2021-08-26T13:46:23Z</time>
      </trkpt>
      <trkpt lat="46.60926" lon="5.47413">
        <ele>238.4</ele>
        <time>2021-08-26T13:46:25Z</time>
      </trkpt>
      <trkpt lat="46.60917" lon="5.47406">
        <ele>238.8</ele>
        <time>2021-08-26T13:46:27Z</time>
      </trkpt>
      <trkpt lat="46.60908" lon="5.47398">
        <ele>238.8</ele>
        <time>2021-08-26T13:46:29Z</time>
      </trkpt>
      <trkpt lat="46.60899" lon="5.4739">
        <ele>239</ele>
        <time>2021-08-26T13:46:31Z</time>
      </trkpt>
      <trkpt lat="46.6089" lon="5.47381">
        <ele>239.2</ele>
        <time>2021-08-26T13:46:33Z</time>
      </trkpt>
      <trkpt lat="46.60883" lon="5.47371">
        <ele>239.4</ele>
        <time>2021-08-26T13:46:35Z</time>
      </trkpt>
      <trkpt lat="46.60876" lon="5.47362">
        <ele>239.6</ele>
        <time>2021-08-26T13:46:37Z</time>
      </trkpt>
      <trkpt lat="46.60868" lon="5.47351">
        <ele>240</ele>
        <time>2021-08-26T13:46:39Z</time>
      </trkpt>
      <trkpt lat="46.6086" lon="5.47343">
        <ele>240.2</ele>
        <time>2021-08-26T13:46:41Z</time>
      </trkpt>
      <trkpt lat="46.60855" lon="5.47339">
        <ele>240.2</ele>
        <time>2021-08-26T13:46:42Z</time>
      </trkpt>
      <trkpt lat="46.60851" lon="5.47336">
        <ele>240.2</ele>
        <time>2021-08-26T13:46:43Z</time>
      </trkpt>
      <trkpt lat="46.60841" lon="5.47331">
        <ele>240.2</ele>
        <time>2021-08-26T13:46:45Z</time>
      </trkpt>
      <trkpt lat="46.60832" lon="5.47328">
        <ele>240.4</ele>
        <time>2021-08-26T13:46:47Z</time>
      </trkpt>
      <trkpt lat="46.60823" lon="5.47328">
        <ele>240.4</ele>
        <time>2021-08-26T13:46:49Z</time>
      </trkpt>
      <trkpt lat="46.60813" lon="5.47328">
        <ele>240.6</ele>
        <time>2021-08-26T13:46:51Z</time>
      </trkpt>
      <trkpt lat="46.60809" lon="5.47327">
        <ele>240.4</ele>
        <time>2021-08-26T13:46:52Z</time>
      </trkpt>
      <trkpt lat="46.60804" lon="5.47326">
        <ele>240.8</ele>
        <time>2021-08-26T13:46:53Z</time>
      </trkpt>
      <trkpt lat="46.60794" lon="5.47327">
        <ele>241</ele>
        <time>2021-08-26T13:46:55Z</time>
      </trkpt>
      <trkpt lat="46.60789" lon="5.47327">
        <ele>241.2</ele>
        <time>2021-08-26T13:46:56Z</time>
      </trkpt>
      <trkpt lat="46.60783" lon="5.47327">
        <ele>241.2</ele>
        <time>2021-08-26T13:46:57Z</time>
      </trkpt>
      <trkpt lat="46.60772" lon="5.47325">
        <ele>241.4</ele>
        <time>2021-08-26T13:46:59Z</time>
      </trkpt>
      <trkpt lat="46.60767" lon="5.47324">
        <ele>241.4</ele>
        <time>2021-08-26T13:47:00Z</time>
      </trkpt>
      <trkpt lat="46.60761" lon="5.47323">
        <ele>241.4</ele>
        <time>2021-08-26T13:47:01Z</time>
      </trkpt>
      <trkpt lat="46.6075" lon="5.47322">
        <ele>241.4</ele>
        <time>2021-08-26T13:47:03Z</time>
      </trkpt>
      <trkpt lat="46.60744" lon="5.47322">
        <ele>241.4</ele>
        <time>2021-08-26T13:47:04Z</time>
      </trkpt>
      <trkpt lat="46.60738" lon="5.47322">
        <ele>241.4</ele>
        <time>2021-08-26T13:47:05Z</time>
      </trkpt>
      <trkpt lat="46.60732" lon="5.47324">
        <ele>241.4</ele>
        <time>2021-08-26T13:47:06Z</time>
      </trkpt>
      <trkpt lat="46.60727" lon="5.47327">
        <ele>241.4</ele>
        <time>2021-08-26T13:47:07Z</time>
      </trkpt>
      <trkpt lat="46.60721" lon="5.4733">
        <ele>241.2</ele>
        <time>2021-08-26T13:47:08Z</time>
      </trkpt>
      <trkpt lat="46.60716" lon="5.47333">
        <ele>241.2</ele>
        <time>2021-08-26T13:47:09Z</time>
      </trkpt>
      <trkpt lat="46.60705" lon="5.47339">
        <ele>241</ele>
        <time>2021-08-26T13:47:11Z</time>
      </trkpt>
      <trkpt lat="46.60693" lon="5.47344">
        <ele>240.6</ele>
        <time>2021-08-26T13:47:13Z</time>
      </trkpt>
      <trkpt lat="46.60681" lon="5.47348">
        <ele>240.4</ele>
        <time>2021-08-26T13:47:15Z</time>
      </trkpt>
      <trkpt lat="46.60668" lon="5.4735">
        <ele>240.4</ele>
        <time>2021-08-26T13:47:17Z</time>
      </trkpt>
      <trkpt lat="46.60661" lon="5.47351">
        <ele>240.4</ele>
        <time>2021-08-26T13:47:18Z</time>
      </trkpt>
      <trkpt lat="46.60655" lon="5.47351">
        <ele>240.2</ele>
        <time>2021-08-26T13:47:19Z</time>
      </trkpt>
      <trkpt lat="46.60642" lon="5.47353">
        <ele>240.2</ele>
        <time>2021-08-26T13:47:21Z</time>
      </trkpt>
      <trkpt lat="46.60629" lon="5.47353">
        <ele>239.8</ele>
        <time>2021-08-26T13:47:23Z</time>
      </trkpt>
      <trkpt lat="46.60616" lon="5.47354">
        <ele>239.4</ele>
        <time>2021-08-26T13:47:25Z</time>
      </trkpt>
      <trkpt lat="46.60603" lon="5.47354">
        <ele>238.8</ele>
        <time>2021-08-26T13:47:27Z</time>
      </trkpt>
      <trkpt lat="46.60589" lon="5.47354">
        <ele>238.6</ele>
        <time>2021-08-26T13:47:29Z</time>
      </trkpt>
      <trkpt lat="46.60575" lon="5.47354">
        <ele>238.4</ele>
        <time>2021-08-26T13:47:31Z</time>
      </trkpt>
      <trkpt lat="46.60561" lon="5.47355">
        <ele>238.4</ele>
        <time>2021-08-26T13:47:33Z</time>
      </trkpt>
      <trkpt lat="46.60554" lon="5.47356">
        <ele>238.2</ele>
        <time>2021-08-26T13:47:34Z</time>
      </trkpt>
      <trkpt lat="46.60547" lon="5.47357">
        <ele>238</ele>
        <time>2021-08-26T13:47:35Z</time>
      </trkpt>
      <trkpt lat="46.60532" lon="5.47359">
        <ele>237.6</ele>
        <time>2021-08-26T13:47:37Z</time>
      </trkpt>
      <trkpt lat="46.60525" lon="5.47361">
        <ele>237.4</ele>
        <time>2021-08-26T13:47:38Z</time>
      </trkpt>
      <trkpt lat="46.60518" lon="5.47364">
        <ele>237.2</ele>
        <time>2021-08-26T13:47:39Z</time>
      </trkpt>
      <trkpt lat="46.60511" lon="5.47368">
        <ele>237</ele>
        <time>2021-08-26T13:47:40Z</time>
      </trkpt>
      <trkpt lat="46.60505" lon="5.47373">
        <ele>237</ele>
        <time>2021-08-26T13:47:41Z</time>
      </trkpt>
      <trkpt lat="46.60498" lon="5.47378">
        <ele>237</ele>
        <time>2021-08-26T13:47:42Z</time>
      </trkpt>
      <trkpt lat="46.60492" lon="5.47383">
        <ele>236.8</ele>
        <time>2021-08-26T13:47:43Z</time>
      </trkpt>
      <trkpt lat="46.6048" lon="5.47393">
        <ele>236.6</ele>
        <time>2021-08-26T13:47:45Z</time>
      </trkpt>
      <trkpt lat="46.60468" lon="5.47402">
        <ele>236.4</ele>
        <time>2021-08-26T13:47:47Z</time>
      </trkpt>
      <trkpt lat="46.60455" lon="5.47412">
        <ele>236.4</ele>
        <time>2021-08-26T13:47:49Z</time>
      </trkpt>
      <trkpt lat="46.60442" lon="5.4742">
        <ele>236.4</ele>
        <time>2021-08-26T13:47:51Z</time>
      </trkpt>
      <trkpt lat="46.60429" lon="5.47427">
        <ele>236.4</ele>
        <time>2021-08-26T13:47:53Z</time>
      </trkpt>
      <trkpt lat="46.60416" lon="5.47433">
        <ele>236.4</ele>
        <time>2021-08-26T13:47:55Z</time>
      </trkpt>
      <trkpt lat="46.60403" lon="5.47437">
        <ele>236.4</ele>
        <time>2021-08-26T13:47:57Z</time>
      </trkpt>
      <trkpt lat="46.60397" lon="5.47437">
        <ele>236.4</ele>
        <time>2021-08-26T13:47:58Z</time>
      </trkpt>
      <trkpt lat="46.6039" lon="5.47437">
        <ele>236.4</ele>
        <time>2021-08-26T13:47:59Z</time>
      </trkpt>
      <trkpt lat="46.60384" lon="5.47436">
        <ele>236.4</ele>
        <time>2021-08-26T13:48:00Z</time>
      </trkpt>
      <trkpt lat="46.60377" lon="5.47433">
        <ele>236.4</ele>
        <time>2021-08-26T13:48:01Z</time>
      </trkpt>
      <trkpt lat="46.60364" lon="5.47427">
        <ele>236.4</ele>
        <time>2021-08-26T13:48:03Z</time>
      </trkpt>
      <trkpt lat="46.60358" lon="5.47423">
        <ele>236.4</ele>
        <time>2021-08-26T13:48:04Z</time>
      </trkpt>
      <trkpt lat="46.60351" lon="5.47419">
        <ele>236.4</ele>
        <time>2021-08-26T13:48:05Z</time>
      </trkpt>
      <trkpt lat="46.60338" lon="5.4741">
        <ele>236.4</ele>
        <time>2021-08-26T13:48:07Z</time>
      </trkpt>
      <trkpt lat="46.60323" lon="5.47401">
        <ele>236.2</ele>
        <time>2021-08-26T13:48:09Z</time>
      </trkpt>
      <trkpt lat="46.60309" lon="5.47392">
        <ele>236</ele>
        <time>2021-08-26T13:48:11Z</time>
      </trkpt>
      <trkpt lat="46.60298" lon="5.47386">
        <ele>235.2</ele>
        <time>2021-08-26T13:48:13Z</time>
      </trkpt>
      <trkpt lat="46.60294" lon="5.47385">
        <ele>235</ele>
        <time>2021-08-26T13:48:14Z</time>
      </trkpt>
      <trkpt lat="46.60291" lon="5.47387">
        <ele>234.6</ele>
        <time>2021-08-26T13:48:15Z</time>
      </trkpt>
      <trkpt lat="46.60287" lon="5.47396">
        <ele>233.8</ele>
        <time>2021-08-26T13:48:17Z</time>
      </trkpt>
      <trkpt lat="46.60288" lon="5.4741">
        <ele>233</ele>
        <time>2021-08-26T13:48:19Z</time>
      </trkpt>
      <trkpt lat="46.60288" lon="5.47417">
        <ele>232.8</ele>
        <time>2021-08-26T13:48:20Z</time>
      </trkpt>
      <trkpt lat="46.60288" lon="5.47425">
        <ele>232.8</ele>
        <time>2021-08-26T13:48:21Z</time>
      </trkpt>
      <trkpt lat="46.60288" lon="5.47434">
        <ele>232.6</ele>
        <time>2021-08-26T13:48:22Z</time>
      </trkpt>
      <trkpt lat="46.60289" lon="5.47442">
        <ele>232.6</ele>
        <time>2021-08-26T13:48:23Z</time>
      </trkpt>
      <trkpt lat="46.60289" lon="5.47459">
        <ele>232.6</ele>
        <time>2021-08-26T13:48:25Z</time>
      </trkpt>
      <trkpt lat="46.60289" lon="5.47477">
        <ele>232.6</ele>
        <time>2021-08-26T13:48:27Z</time>
      </trkpt>
      <trkpt lat="46.60288" lon="5.47494">
        <ele>232.6</ele>
        <time>2021-08-26T13:48:29Z</time>
      </trkpt>
      <trkpt lat="46.60288" lon="5.4751">
        <ele>232.6</ele>
        <time>2021-08-26T13:48:31Z</time>
      </trkpt>
      <trkpt lat="46.60287" lon="5.47526">
        <ele>232.8</ele>
        <time>2021-08-26T13:48:33Z</time>
      </trkpt>
      <trkpt lat="46.60285" lon="5.47542">
        <ele>233.2</ele>
        <time>2021-08-26T13:48:35Z</time>
      </trkpt>
      <trkpt lat="46.60282" lon="5.4756">
        <ele>233.8</ele>
        <time>2021-08-26T13:48:37Z</time>
      </trkpt>
      <trkpt lat="46.6028" lon="5.47569">
        <ele>234.2</ele>
        <time>2021-08-26T13:48:38Z</time>
      </trkpt>
      <trkpt lat="46.60278" lon="5.47577">
        <ele>234.4</ele>
        <time>2021-08-26T13:48:39Z</time>
      </trkpt>
      <trkpt lat="46.60276" lon="5.47586">
        <ele>234.6</ele>
        <time>2021-08-26T13:48:40Z</time>
      </trkpt>
      <trkpt lat="46.60273" lon="5.47593">
        <ele>234.8</ele>
        <time>2021-08-26T13:48:41Z</time>
      </trkpt>
      <trkpt lat="46.60269" lon="5.47601">
        <ele>235</ele>
        <time>2021-08-26T13:48:42Z</time>
      </trkpt>
      <trkpt lat="46.60264" lon="5.47608">
        <ele>235</ele>
        <time>2021-08-26T13:48:43Z</time>
      </trkpt>
      <trkpt lat="46.60253" lon="5.47618">
        <ele>235.2</ele>
        <time>2021-08-26T13:48:45Z</time>
      </trkpt>
      <trkpt lat="46.60247" lon="5.47621">
        <ele>235.2</ele>
        <time>2021-08-26T13:48:46Z</time>
      </trkpt>
      <trkpt lat="46.60241" lon="5.47623">
        <ele>235.2</ele>
        <time>2021-08-26T13:48:47Z</time>
      </trkpt>
      <trkpt lat="46.60234" lon="5.47625">
        <ele>235.2</ele>
        <time>2021-08-26T13:48:48Z</time>
      </trkpt>
      <trkpt lat="46.60227" lon="5.47626">
        <ele>235.2</ele>
        <time>2021-08-26T13:48:49Z</time>
      </trkpt>
      <trkpt lat="46.60213" lon="5.47629">
        <ele>235</ele>
        <time>2021-08-26T13:48:51Z</time>
      </trkpt>
      <trkpt lat="46.602" lon="5.47632">
        <ele>235</ele>
        <time>2021-08-26T13:48:53Z</time>
      </trkpt>
      <trkpt lat="46.60186" lon="5.47637">
        <ele>235</ele>
        <time>2021-08-26T13:48:55Z</time>
      </trkpt>
      <trkpt lat="46.60174" lon="5.47645">
        <ele>235</ele>
        <time>2021-08-26T13:48:57Z</time>
      </trkpt>
      <trkpt lat="46.60163" lon="5.47655">
        <ele>235</ele>
        <time>2021-08-26T13:48:59Z</time>
      </trkpt>
      <trkpt lat="46.60151" lon="5.47665">
        <ele>235</ele>
        <time>2021-08-26T13:49:01Z</time>
      </trkpt>
      <trkpt lat="46.6014" lon="5.47675">
        <ele>235.2</ele>
        <time>2021-08-26T13:49:03Z</time>
      </trkpt>
      <trkpt lat="46.60129" lon="5.47686">
        <ele>235.2</ele>
        <time>2021-08-26T13:49:05Z</time>
      </trkpt>
      <trkpt lat="46.60124" lon="5.47691">
        <ele>235.2</ele>
        <time>2021-08-26T13:49:06Z</time>
      </trkpt>
      <trkpt lat="46.60118" lon="5.47697">
        <ele>235.2</ele>
        <time>2021-08-26T13:49:07Z</time>
      </trkpt>
      <trkpt lat="46.60109" lon="5.4771">
        <ele>235.4</ele>
        <time>2021-08-26T13:49:09Z</time>
      </trkpt>
      <trkpt lat="46.601" lon="5.47722">
        <ele>235.4</ele>
        <time>2021-08-26T13:49:11Z</time>
      </trkpt>
      <trkpt lat="46.60092" lon="5.47735">
        <ele>235.6</ele>
        <time>2021-08-26T13:49:13Z</time>
      </trkpt>
      <trkpt lat="46.60084" lon="5.47747">
        <ele>235.6</ele>
        <time>2021-08-26T13:49:15Z</time>
      </trkpt>
      <trkpt lat="46.60077" lon="5.47759">
        <ele>235.8</ele>
        <time>2021-08-26T13:49:17Z</time>
      </trkpt>
      <trkpt lat="46.60074" lon="5.47765">
        <ele>236</ele>
        <time>2021-08-26T13:49:18Z</time>
      </trkpt>
      <trkpt lat="46.60072" lon="5.47771">
        <ele>236.6</ele>
        <time>2021-08-26T13:49:19Z</time>
      </trkpt>
      <trkpt lat="46.60068" lon="5.47785">
        <ele>237.4</ele>
        <time>2021-08-26T13:49:21Z</time>
      </trkpt>
      <trkpt lat="46.60066" lon="5.47792">
        <ele>237.8</ele>
        <time>2021-08-26T13:49:22Z</time>
      </trkpt>
      <trkpt lat="46.60064" lon="5.47799">
        <ele>238</ele>
        <time>2021-08-26T13:49:23Z</time>
      </trkpt>
      <trkpt lat="46.60063" lon="5.47814">
        <ele>238.8</ele>
        <time>2021-08-26T13:49:25Z</time>
      </trkpt>
      <trkpt lat="46.60062" lon="5.47827">
        <ele>239.4</ele>
        <time>2021-08-26T13:49:27Z</time>
      </trkpt>
      <trkpt lat="46.60062" lon="5.47833">
        <ele>239.4</ele>
        <time>2021-08-26T13:49:28Z</time>
      </trkpt>
      <trkpt lat="46.60061" lon="5.47839">
        <ele>239.6</ele>
        <time>2021-08-26T13:49:29Z</time>
      </trkpt>
      <trkpt lat="46.60061" lon="5.47845">
        <ele>239.8</ele>
        <time>2021-08-26T13:49:30Z</time>
      </trkpt>
      <trkpt lat="46.60061" lon="5.47851">
        <ele>240.2</ele>
        <time>2021-08-26T13:49:31Z</time>
      </trkpt>
      <trkpt lat="46.60059" lon="5.47859">
        <ele>240.6</ele>
        <time>2021-08-26T13:49:33Z</time>
      </trkpt>
      <trkpt lat="46.60059" lon="5.47862">
        <ele>241</ele>
        <time>2021-08-26T13:49:34Z</time>
      </trkpt>
      <trkpt lat="46.60059" lon="5.47863">
        <ele>241.4</ele>
        <time>2021-08-26T13:49:35Z</time>
      </trkpt>
      <trkpt lat="46.60061" lon="5.47861">
        <ele>242.2</ele>
        <time>2021-08-26T13:49:37Z</time>
      </trkpt>
      <trkpt lat="46.60063" lon="5.47858">
        <ele>242.6</ele>
        <time>2021-08-26T13:49:39Z</time>
      </trkpt>
      <trkpt lat="46.60063" lon="5.47853">
        <ele>243.2</ele>
        <time>2021-08-26T13:49:41Z</time>
      </trkpt>
      <trkpt lat="46.60063" lon="5.47851">
        <ele>243.4</ele>
        <time>2021-08-26T13:49:42Z</time>
      </trkpt>
      <trkpt lat="46.60062" lon="5.47849">
        <ele>243.4</ele>
        <time>2021-08-26T13:49:43Z</time>
      </trkpt>
      <trkpt lat="46.60059" lon="5.47847">
        <ele>243.4</ele>
        <time>2021-08-26T13:49:45Z</time>
      </trkpt>
      <trkpt lat="46.60057" lon="5.47847">
        <ele>243.4</ele>
        <time>2021-08-26T13:49:47Z</time>
      </trkpt>
      <trkpt lat="46.60057" lon="5.47847">
        <ele>243.4</ele>
        <time>2021-08-26T13:49:48Z</time>
      </trkpt>
      <trkpt lat="46.60057" lon="5.47855">
        <ele>243.4</ele>
        <time>2021-08-26T13:50:12Z</time>
      </trkpt>
      <trkpt lat="46.60057" lon="5.47857">
        <ele>243.4</ele>
        <time>2021-08-26T13:50:13Z</time>
      </trkpt>
      <trkpt lat="46.60055" lon="5.47865">
        <ele>243.4</ele>
        <time>2021-08-26T13:50:15Z</time>
      </trkpt>
      <trkpt lat="46.60051" lon="5.47876">
        <ele>243.2</ele>
        <time>2021-08-26T13:50:17Z</time>
      </trkpt>
      <trkpt lat="46.60043" lon="5.47888">
        <ele>243.2</ele>
        <time>2021-08-26T13:50:19Z</time>
      </trkpt>
      <trkpt lat="46.60032" lon="5.47899">
        <ele>243.2</ele>
        <time>2021-08-26T13:50:21Z</time>
      </trkpt>
      <trkpt lat="46.60021" lon="5.47911">
        <ele>243</ele>
        <time>2021-08-26T13:50:23Z</time>
      </trkpt>
      <trkpt lat="46.60012" lon="5.47927">
        <ele>242.6</ele>
        <time>2021-08-26T13:50:25Z</time>
      </trkpt>
      <trkpt lat="46.60008" lon="5.47936">
        <ele>242.2</ele>
        <time>2021-08-26T13:50:26Z</time>
      </trkpt>
      <trkpt lat="46.60005" lon="5.47944">
        <ele>241.8</ele>
        <time>2021-08-26T13:50:27Z</time>
      </trkpt>
      <trkpt lat="46.60003" lon="5.47952">
        <ele>241</ele>
        <time>2021-08-26T13:50:28Z</time>
      </trkpt>
      <trkpt lat="46.60002" lon="5.47961">
        <ele>240.8</ele>
        <time>2021-08-26T13:50:29Z</time>
      </trkpt>
      <trkpt lat="46.60002" lon="5.47978">
        <ele>240.4</ele>
        <time>2021-08-26T13:50:31Z</time>
      </trkpt>
      <trkpt lat="46.60004" lon="5.47986">
        <ele>240.4</ele>
        <time>2021-08-26T13:50:32Z</time>
      </trkpt>
      <trkpt lat="46.60005" lon="5.47994">
        <ele>240.4</ele>
        <time>2021-08-26T13:50:33Z</time>
      </trkpt>
      <trkpt lat="46.60007" lon="5.48009">
        <ele>240.4</ele>
        <time>2021-08-26T13:50:35Z</time>
      </trkpt>
      <trkpt lat="46.60009" lon="5.48017">
        <ele>240.4</ele>
        <time>2021-08-26T13:50:36Z</time>
      </trkpt>
      <trkpt lat="46.60012" lon="5.48023">
        <ele>240.4</ele>
        <time>2021-08-26T13:50:37Z</time>
      </trkpt>
      <trkpt lat="46.60015" lon="5.4803">
        <ele>240.8</ele>
        <time>2021-08-26T13:50:38Z</time>
      </trkpt>
      <trkpt lat="46.60019" lon="5.48037">
        <ele>241.2</ele>
        <time>2021-08-26T13:50:39Z</time>
      </trkpt>
      <trkpt lat="46.60022" lon="5.48043">
        <ele>241.4</ele>
        <time>2021-08-26T13:50:40Z</time>
      </trkpt>
      <trkpt lat="46.60023" lon="5.4805">
        <ele>241.6</ele>
        <time>2021-08-26T13:50:41Z</time>
      </trkpt>
      <trkpt lat="46.60025" lon="5.48058">
        <ele>241.8</ele>
        <time>2021-08-26T13:50:42Z</time>
      </trkpt>
      <trkpt lat="46.60025" lon="5.48066">
        <ele>241.8</ele>
        <time>2021-08-26T13:50:43Z</time>
      </trkpt>
      <trkpt lat="46.60025" lon="5.48084">
        <ele>242</ele>
        <time>2021-08-26T13:50:45Z</time>
      </trkpt>
      <trkpt lat="46.60025" lon="5.48094">
        <ele>242</ele>
        <time>2021-08-26T13:50:46Z</time>
      </trkpt>
      <trkpt lat="46.60025" lon="5.48104">
        <ele>242</ele>
        <time>2021-08-26T13:50:47Z</time>
      </trkpt>
      <trkpt lat="46.60026" lon="5.48126">
        <ele>242</ele>
        <time>2021-08-26T13:50:49Z</time>
      </trkpt>
      <trkpt lat="46.60027" lon="5.48138">
        <ele>242</ele>
        <time>2021-08-26T13:50:50Z</time>
      </trkpt>
      <trkpt lat="46.60029" lon="5.48151">
        <ele>242</ele>
        <time>2021-08-26T13:50:51Z</time>
      </trkpt>
      <trkpt lat="46.60032" lon="5.48178">
        <ele>242</ele>
        <time>2021-08-26T13:50:53Z</time>
      </trkpt>
      <trkpt lat="46.60033" lon="5.48207">
        <ele>241.8</ele>
        <time>2021-08-26T13:50:55Z</time>
      </trkpt>
      <trkpt lat="46.60028" lon="5.48235">
        <ele>240.2</ele>
        <time>2021-08-26T13:50:57Z</time>
      </trkpt>
      <trkpt lat="46.60024" lon="5.48249">
        <ele>239.4</ele>
        <time>2021-08-26T13:50:58Z</time>
      </trkpt>
      <trkpt lat="46.6002" lon="5.48263">
        <ele>238.6</ele>
        <time>2021-08-26T13:50:59Z</time>
      </trkpt>
      <trkpt lat="46.60016" lon="5.48276">
        <ele>237.6</ele>
        <time>2021-08-26T13:51:00Z</time>
      </trkpt>
      <trkpt lat="46.60012" lon="5.48289">
        <ele>236.6</ele>
        <time>2021-08-26T13:51:01Z</time>
      </trkpt>
      <trkpt lat="46.60009" lon="5.48302">
        <ele>235.8</ele>
        <time>2021-08-26T13:51:02Z</time>
      </trkpt>
      <trkpt lat="46.60006" lon="5.48315">
        <ele>235</ele>
        <time>2021-08-26T13:51:03Z</time>
      </trkpt>
      <trkpt lat="46.60002" lon="5.48327">
        <ele>234.2</ele>
        <time>2021-08-26T13:51:04Z</time>
      </trkpt>
      <trkpt lat="46.59999" lon="5.4834">
        <ele>233.8</ele>
        <time>2021-08-26T13:51:05Z</time>
      </trkpt>
      <trkpt lat="46.59996" lon="5.48352">
        <ele>233.2</ele>
        <time>2021-08-26T13:51:06Z</time>
      </trkpt>
      <trkpt lat="46.59993" lon="5.48364">
        <ele>233</ele>
        <time>2021-08-26T13:51:07Z</time>
      </trkpt>
      <trkpt lat="46.59985" lon="5.48388">
        <ele>232.8</ele>
        <time>2021-08-26T13:51:09Z</time>
      </trkpt>
      <trkpt lat="46.59978" lon="5.48411">
        <ele>232.8</ele>
        <time>2021-08-26T13:51:11Z</time>
      </trkpt>
      <trkpt lat="46.59971" lon="5.48434">
        <ele>232.6</ele>
        <time>2021-08-26T13:51:13Z</time>
      </trkpt>
      <trkpt lat="46.59964" lon="5.48456">
        <ele>232.4</ele>
        <time>2021-08-26T13:51:15Z</time>
      </trkpt>
      <trkpt lat="46.59956" lon="5.48478">
        <ele>232.4</ele>
        <time>2021-08-26T13:51:17Z</time>
      </trkpt>
      <trkpt lat="46.5995" lon="5.48499">
        <ele>232.4</ele>
        <time>2021-08-26T13:51:19Z</time>
      </trkpt>
      <trkpt lat="46.59947" lon="5.4851">
        <ele>232.4</ele>
        <time>2021-08-26T13:51:20Z</time>
      </trkpt>
      <trkpt lat="46.59944" lon="5.48521">
        <ele>232.4</ele>
        <time>2021-08-26T13:51:21Z</time>
      </trkpt>
      <trkpt lat="46.59939" lon="5.48542">
        <ele>232.6</ele>
        <time>2021-08-26T13:51:23Z</time>
      </trkpt>
      <trkpt lat="46.59935" lon="5.48564">
        <ele>232.6</ele>
        <time>2021-08-26T13:51:25Z</time>
      </trkpt>
      <trkpt lat="46.59932" lon="5.48585">
        <ele>232.6</ele>
        <time>2021-08-26T13:51:27Z</time>
      </trkpt>
      <trkpt lat="46.5993" lon="5.48606">
        <ele>232.8</ele>
        <time>2021-08-26T13:51:29Z</time>
      </trkpt>
      <trkpt lat="46.5993" lon="5.48626">
        <ele>233</ele>
        <time>2021-08-26T13:51:31Z</time>
      </trkpt>
      <trkpt lat="46.59929" lon="5.48637">
        <ele>232.8</ele>
        <time>2021-08-26T13:51:32Z</time>
      </trkpt>
      <trkpt lat="46.59926" lon="5.48645">
        <ele>233</ele>
        <time>2021-08-26T13:51:33Z</time>
      </trkpt>
      <trkpt lat="46.59917" lon="5.48654">
        <ele>233</ele>
        <time>2021-08-26T13:51:35Z</time>
      </trkpt>
      <trkpt lat="46.59905" lon="5.48652">
        <ele>233.2</ele>
        <time>2021-08-26T13:51:37Z</time>
      </trkpt>
      <trkpt lat="46.59898" lon="5.48649">
        <ele>233.2</ele>
        <time>2021-08-26T13:51:38Z</time>
      </trkpt>
      <trkpt lat="46.59891" lon="5.48647">
        <ele>233.2</ele>
        <time>2021-08-26T13:51:39Z</time>
      </trkpt>
      <trkpt lat="46.59878" lon="5.48643">
        <ele>233.2</ele>
        <time>2021-08-26T13:51:41Z</time>
      </trkpt>
      <trkpt lat="46.59871" lon="5.48642">
        <ele>233.2</ele>
        <time>2021-08-26T13:51:42Z</time>
      </trkpt>
      <trkpt lat="46.59864" lon="5.48642">
        <ele>233.2</ele>
        <time>2021-08-26T13:51:43Z</time>
      </trkpt>
      <trkpt lat="46.59851" lon="5.48645">
        <ele>233.2</ele>
        <time>2021-08-26T13:51:45Z</time>
      </trkpt>
      <trkpt lat="46.59839" lon="5.4865">
        <ele>233</ele>
        <time>2021-08-26T13:51:47Z</time>
      </trkpt>
      <trkpt lat="46.59827" lon="5.48656">
        <ele>233</ele>
        <time>2021-08-26T13:51:49Z</time>
      </trkpt>
      <trkpt lat="46.59815" lon="5.48663">
        <ele>233</ele>
        <time>2021-08-26T13:51:51Z</time>
      </trkpt>
      <trkpt lat="46.59803" lon="5.48661">
        <ele>233</ele>
        <time>2021-08-26T13:51:53Z</time>
      </trkpt>
      <trkpt lat="46.59798" lon="5.48647">
        <ele>233</ele>
        <time>2021-08-26T13:51:55Z</time>
      </trkpt>
      <trkpt lat="46.59796" lon="5.48638">
        <ele>233.2</ele>
        <time>2021-08-26T13:51:56Z</time>
      </trkpt>
      <trkpt lat="46.59794" lon="5.4863">
        <ele>233.2</ele>
        <time>2021-08-26T13:51:57Z</time>
      </trkpt>
      <trkpt lat="46.59789" lon="5.48612">
        <ele>233.4</ele>
        <time>2021-08-26T13:51:59Z</time>
      </trkpt>
      <trkpt lat="46.59784" lon="5.48596">
        <ele>233.8</ele>
        <time>2021-08-26T13:52:01Z</time>
      </trkpt>
      <trkpt lat="46.59781" lon="5.48587">
        <ele>234</ele>
        <time>2021-08-26T13:52:02Z</time>
      </trkpt>
      <trkpt lat="46.59779" lon="5.48578">
        <ele>234</ele>
        <time>2021-08-26T13:52:03Z</time>
      </trkpt>
      <trkpt lat="46.59778" lon="5.48559">
        <ele>234</ele>
        <time>2021-08-26T13:52:05Z</time>
      </trkpt>
      <trkpt lat="46.59778" lon="5.48539">
        <ele>234.2</ele>
        <time>2021-08-26T13:52:07Z</time>
      </trkpt>
      <trkpt lat="46.59777" lon="5.48518">
        <ele>234.4</ele>
        <time>2021-08-26T13:52:09Z</time>
      </trkpt>
      <trkpt lat="46.59775" lon="5.48498">
        <ele>234.4</ele>
        <time>2021-08-26T13:52:11Z</time>
      </trkpt>
      <trkpt lat="46.59773" lon="5.48489">
        <ele>234.4</ele>
        <time>2021-08-26T13:52:12Z</time>
      </trkpt>
      <trkpt lat="46.59772" lon="5.48479">
        <ele>234.4</ele>
        <time>2021-08-26T13:52:13Z</time>
      </trkpt>
      <trkpt lat="46.59769" lon="5.48459">
        <ele>234.4</ele>
        <time>2021-08-26T13:52:15Z</time>
      </trkpt>
      <trkpt lat="46.59765" lon="5.48439">
        <ele>234.4</ele>
        <time>2021-08-26T13:52:17Z</time>
      </trkpt>
      <trkpt lat="46.5976" lon="5.48419">
        <ele>234.4</ele>
        <time>2021-08-26T13:52:19Z</time>
      </trkpt>
      <trkpt lat="46.59755" lon="5.484">
        <ele>234.4</ele>
        <time>2021-08-26T13:52:21Z</time>
      </trkpt>
      <trkpt lat="46.5975" lon="5.48381">
        <ele>234.4</ele>
        <time>2021-08-26T13:52:23Z</time>
      </trkpt>
      <trkpt lat="46.59746" lon="5.48362">
        <ele>234</ele>
        <time>2021-08-26T13:52:25Z</time>
      </trkpt>
      <trkpt lat="46.59741" lon="5.48343">
        <ele>233.8</ele>
        <time>2021-08-26T13:52:27Z</time>
      </trkpt>
      <trkpt lat="46.59738" lon="5.48323">
        <ele>233.8</ele>
        <time>2021-08-26T13:52:29Z</time>
      </trkpt>
      <trkpt lat="46.59735" lon="5.48303">
        <ele>233.6</ele>
        <time>2021-08-26T13:52:31Z</time>
      </trkpt>
      <trkpt lat="46.59733" lon="5.48282">
        <ele>233.6</ele>
        <time>2021-08-26T13:52:33Z</time>
      </trkpt>
      <trkpt lat="46.59732" lon="5.48261">
        <ele>233.6</ele>
        <time>2021-08-26T13:52:35Z</time>
      </trkpt>
      <trkpt lat="46.59731" lon="5.4825">
        <ele>233.6</ele>
        <time>2021-08-26T13:52:36Z</time>
      </trkpt>
      <trkpt lat="46.59731" lon="5.48239">
        <ele>233.6</ele>
        <time>2021-08-26T13:52:37Z</time>
      </trkpt>
      <trkpt lat="46.5973" lon="5.48217">
        <ele>233.6</ele>
        <time>2021-08-26T13:52:39Z</time>
      </trkpt>
      <trkpt lat="46.59729" lon="5.48196">
        <ele>233.6</ele>
        <time>2021-08-26T13:52:41Z</time>
      </trkpt>
      <trkpt lat="46.59727" lon="5.48175">
        <ele>233.6</ele>
        <time>2021-08-26T13:52:43Z</time>
      </trkpt>
      <trkpt lat="46.59727" lon="5.48165">
        <ele>233.6</ele>
        <time>2021-08-26T13:52:44Z</time>
      </trkpt>
      <trkpt lat="46.59727" lon="5.48155">
        <ele>233.6</ele>
        <time>2021-08-26T13:52:45Z</time>
      </trkpt>
      <trkpt lat="46.59728" lon="5.48134">
        <ele>233.4</ele>
        <time>2021-08-26T13:52:47Z</time>
      </trkpt>
      <trkpt lat="46.5973" lon="5.48123">
        <ele>233.4</ele>
        <time>2021-08-26T13:52:48Z</time>
      </trkpt>
      <trkpt lat="46.59731" lon="5.48111">
        <ele>233.4</ele>
        <time>2021-08-26T13:52:49Z</time>
      </trkpt>
      <trkpt lat="46.59733" lon="5.48088">
        <ele>233.2</ele>
        <time>2021-08-26T13:52:51Z</time>
      </trkpt>
      <trkpt lat="46.59735" lon="5.48076">
        <ele>233</ele>
        <time>2021-08-26T13:52:52Z</time>
      </trkpt>
      <trkpt lat="46.59736" lon="5.48065">
        <ele>233</ele>
        <time>2021-08-26T13:52:53Z</time>
      </trkpt>
      <trkpt lat="46.59742" lon="5.48043">
        <ele>232.8</ele>
        <time>2021-08-26T13:52:55Z</time>
      </trkpt>
      <trkpt lat="46.59749" lon="5.48022">
        <ele>231.8</ele>
        <time>2021-08-26T13:52:57Z</time>
      </trkpt>
      <trkpt lat="46.5975" lon="5.4801">
        <ele>231.6</ele>
        <time>2021-08-26T13:52:58Z</time>
      </trkpt>
      <trkpt lat="46.59748" lon="5.47998">
        <ele>231.4</ele>
        <time>2021-08-26T13:52:59Z</time>
      </trkpt>
      <trkpt lat="46.59742" lon="5.47974">
        <ele>231</ele>
        <time>2021-08-26T13:53:01Z</time>
      </trkpt>
      <trkpt lat="46.5974" lon="5.47962">
        <ele>230.8</ele>
        <time>2021-08-26T13:53:02Z</time>
      </trkpt>
      <trkpt lat="46.59738" lon="5.4795">
        <ele>230.6</ele>
        <time>2021-08-26T13:53:03Z</time>
      </trkpt>
      <trkpt lat="46.59733" lon="5.47926">
        <ele>230</ele>
        <time>2021-08-26T13:53:05Z</time>
      </trkpt>
      <trkpt lat="46.5973" lon="5.47915">
        <ele>229.6</ele>
        <time>2021-08-26T13:53:06Z</time>
      </trkpt>
      <trkpt lat="46.59727" lon="5.47903">
        <ele>229.2</ele>
        <time>2021-08-26T13:53:07Z</time>
      </trkpt>
      <trkpt lat="46.59723" lon="5.4788">
        <ele>228.6</ele>
        <time>2021-08-26T13:53:09Z</time>
      </trkpt>
      <trkpt lat="46.59719" lon="5.47858">
        <ele>228.4</ele>
        <time>2021-08-26T13:53:11Z</time>
      </trkpt>
      <trkpt lat="46.59715" lon="5.47836">
        <ele>228.2</ele>
        <time>2021-08-26T13:53:13Z</time>
      </trkpt>
      <trkpt lat="46.59712" lon="5.47815">
        <ele>228.2</ele>
        <time>2021-08-26T13:53:15Z</time>
      </trkpt>
      <trkpt lat="46.5971" lon="5.47794">
        <ele>228.2</ele>
        <time>2021-08-26T13:53:17Z</time>
      </trkpt>
      <trkpt lat="46.59707" lon="5.47774">
        <ele>228.2</ele>
        <time>2021-08-26T13:53:19Z</time>
      </trkpt>
      <trkpt lat="46.59705" lon="5.47764">
        <ele>228.2</ele>
        <time>2021-08-26T13:53:20Z</time>
      </trkpt>
      <trkpt lat="46.59702" lon="5.47754">
        <ele>228.2</ele>
        <time>2021-08-26T13:53:21Z</time>
      </trkpt>
      <trkpt lat="46.59698" lon="5.47745">
        <ele>228.2</ele>
        <time>2021-08-26T13:53:22Z</time>
      </trkpt>
      <trkpt lat="46.59693" lon="5.47737">
        <ele>228.4</ele>
        <time>2021-08-26T13:53:23Z</time>
      </trkpt>
      <trkpt lat="46.59683" lon="5.47719">
        <ele>228.4</ele>
        <time>2021-08-26T13:53:25Z</time>
      </trkpt>
      <trkpt lat="46.59673" lon="5.47703">
        <ele>228.6</ele>
        <time>2021-08-26T13:53:27Z</time>
      </trkpt>
      <trkpt lat="46.59664" lon="5.47685">
        <ele>228.4</ele>
        <time>2021-08-26T13:53:29Z</time>
      </trkpt>
      <trkpt lat="46.59661" lon="5.47675">
        <ele>228.6</ele>
        <time>2021-08-26T13:53:30Z</time>
      </trkpt>
      <trkpt lat="46.59661" lon="5.47665">
        <ele>228.6</ele>
        <time>2021-08-26T13:53:31Z</time>
      </trkpt>
      <trkpt lat="46.59663" lon="5.47644">
        <ele>228.6</ele>
        <time>2021-08-26T13:53:33Z</time>
      </trkpt>
      <trkpt lat="46.59664" lon="5.47623">
        <ele>228.6</ele>
        <time>2021-08-26T13:53:35Z</time>
      </trkpt>
      <trkpt lat="46.59661" lon="5.47604">
        <ele>228.6</ele>
        <time>2021-08-26T13:53:37Z</time>
      </trkpt>
      <trkpt lat="46.59655" lon="5.47588">
        <ele>228.6</ele>
        <time>2021-08-26T13:53:39Z</time>
      </trkpt>
      <trkpt lat="46.59647" lon="5.47575">
        <ele>228.6</ele>
        <time>2021-08-26T13:53:41Z</time>
      </trkpt>
      <trkpt lat="46.5964" lon="5.47566">
        <ele>228.8</ele>
        <time>2021-08-26T13:53:43Z</time>
      </trkpt>
      <trkpt lat="46.59633" lon="5.47558">
        <ele>229</ele>
        <time>2021-08-26T13:53:45Z</time>
      </trkpt>
      <trkpt lat="46.59627" lon="5.47549">
        <ele>230</ele>
        <time>2021-08-26T13:53:47Z</time>
      </trkpt>
      <trkpt lat="46.59625" lon="5.47544">
        <ele>230.4</ele>
        <time>2021-08-26T13:53:48Z</time>
      </trkpt>
      <trkpt lat="46.59622" lon="5.47538">
        <ele>231</ele>
        <time>2021-08-26T13:53:49Z</time>
      </trkpt>
      <trkpt lat="46.59621" lon="5.47532">
        <ele>231.4</ele>
        <time>2021-08-26T13:53:50Z</time>
      </trkpt>
      <trkpt lat="46.5962" lon="5.47525">
        <ele>232.6</ele>
        <time>2021-08-26T13:53:51Z</time>
      </trkpt>
      <trkpt lat="46.59619" lon="5.47511">
        <ele>233.6</ele>
        <time>2021-08-26T13:53:53Z</time>
      </trkpt>
      <trkpt lat="46.59621" lon="5.47497">
        <ele>234.4</ele>
        <time>2021-08-26T13:53:55Z</time>
      </trkpt>
      <trkpt lat="46.59622" lon="5.4749">
        <ele>234.6</ele>
        <time>2021-08-26T13:53:56Z</time>
      </trkpt>
      <trkpt lat="46.59622" lon="5.47483">
        <ele>234.8</ele>
        <time>2021-08-26T13:53:57Z</time>
      </trkpt>
      <trkpt lat="46.59624" lon="5.4747">
        <ele>235</ele>
        <time>2021-08-26T13:53:59Z</time>
      </trkpt>
      <trkpt lat="46.59625" lon="5.47459">
        <ele>235.2</ele>
        <time>2021-08-26T13:54:01Z</time>
      </trkpt>
      <trkpt lat="46.59625" lon="5.47449">
        <ele>235.4</ele>
        <time>2021-08-26T13:54:03Z</time>
      </trkpt>
      <trkpt lat="46.59625" lon="5.47441">
        <ele>236</ele>
        <time>2021-08-26T13:54:05Z</time>
      </trkpt>
      <trkpt lat="46.59625" lon="5.47433">
        <ele>236.4</ele>
        <time>2021-08-26T13:54:07Z</time>
      </trkpt>
      <trkpt lat="46.59625" lon="5.47429">
        <ele>237</ele>
        <time>2021-08-26T13:54:08Z</time>
      </trkpt>
      <trkpt lat="46.59624" lon="5.47425">
        <ele>237.4</ele>
        <time>2021-08-26T13:54:09Z</time>
      </trkpt>
      <trkpt lat="46.59623" lon="5.47421">
        <ele>238</ele>
        <time>2021-08-26T13:54:10Z</time>
      </trkpt>
      <trkpt lat="46.59622" lon="5.47417">
        <ele>238.4</ele>
        <time>2021-08-26T13:54:11Z</time>
      </trkpt>
      <trkpt lat="46.59621" lon="5.47412">
        <ele>239</ele>
        <time>2021-08-26T13:54:12Z</time>
      </trkpt>
      <trkpt lat="46.59619" lon="5.47408">
        <ele>239.4</ele>
        <time>2021-08-26T13:54:13Z</time>
      </trkpt>
      <trkpt lat="46.59616" lon="5.474">
        <ele>239.8</ele>
        <time>2021-08-26T13:54:15Z</time>
      </trkpt>
      <trkpt lat="46.59615" lon="5.47397">
        <ele>240.2</ele>
        <time>2021-08-26T13:54:16Z</time>
      </trkpt>
      <trkpt lat="46.59613" lon="5.47394">
        <ele>240.4</ele>
        <time>2021-08-26T13:54:17Z</time>
      </trkpt>
      <trkpt lat="46.59609" lon="5.47387">
        <ele>241</ele>
        <time>2021-08-26T13:54:19Z</time>
      </trkpt>
      <trkpt lat="46.59607" lon="5.47384">
        <ele>241.8</ele>
        <time>2021-08-26T13:54:20Z</time>
      </trkpt>
      <trkpt lat="46.59605" lon="5.4738">
        <ele>242</ele>
        <time>2021-08-26T13:54:21Z</time>
      </trkpt>
      <trkpt lat="46.59601" lon="5.47373">
        <ele>243</ele>
        <time>2021-08-26T13:54:23Z</time>
      </trkpt>
      <trkpt lat="46.59597" lon="5.47367">
        <ele>243.4</ele>
        <time>2021-08-26T13:54:25Z</time>
      </trkpt>
      <trkpt lat="46.59593" lon="5.47361">
        <ele>244.2</ele>
        <time>2021-08-26T13:54:27Z</time>
      </trkpt>
      <trkpt lat="46.59588" lon="5.47355">
        <ele>244.6</ele>
        <time>2021-08-26T13:54:29Z</time>
      </trkpt>
      <trkpt lat="46.59584" lon="5.47349">
        <ele>245</ele>
        <time>2021-08-26T13:54:31Z</time>
      </trkpt>
      <trkpt lat="46.59582" lon="5.47346">
        <ele>245.2</ele>
        <time>2021-08-26T13:54:32Z</time>
      </trkpt>
      <trkpt lat="46.59579" lon="5.47343">
        <ele>245.6</ele>
        <time>2021-08-26T13:54:33Z</time>
      </trkpt>
      <trkpt lat="46.59576" lon="5.47335">
        <ele>246</ele>
        <time>2021-08-26T13:54:35Z</time>
      </trkpt>
      <trkpt lat="46.59574" lon="5.4733">
        <ele>246</ele>
        <time>2021-08-26T13:54:36Z</time>
      </trkpt>
      <trkpt lat="46.59574" lon="5.47324">
        <ele>246.2</ele>
        <time>2021-08-26T13:54:37Z</time>
      </trkpt>
      <trkpt lat="46.59574" lon="5.47318">
        <ele>246.4</ele>
        <time>2021-08-26T13:54:38Z</time>
      </trkpt>
      <trkpt lat="46.59574" lon="5.47312">
        <ele>246.4</ele>
        <time>2021-08-26T13:54:39Z</time>
      </trkpt>
      <trkpt lat="46.59575" lon="5.47297">
        <ele>246.4</ele>
        <time>2021-08-26T13:54:41Z</time>
      </trkpt>
      <trkpt lat="46.59575" lon="5.47289">
        <ele>246.4</ele>
        <time>2021-08-26T13:54:42Z</time>
      </trkpt>
      <trkpt lat="46.59575" lon="5.47281">
        <ele>246.4</ele>
        <time>2021-08-26T13:54:43Z</time>
      </trkpt>
      <trkpt lat="46.59573" lon="5.47265">
        <ele>246.4</ele>
        <time>2021-08-26T13:54:45Z</time>
      </trkpt>
      <trkpt lat="46.59571" lon="5.47259">
        <ele>246.4</ele>
        <time>2021-08-26T13:54:46Z</time>
      </trkpt>
      <trkpt lat="46.59569" lon="5.47254">
        <ele>246.4</ele>
        <time>2021-08-26T13:54:47Z</time>
      </trkpt>
      <trkpt lat="46.59561" lon="5.47249">
        <ele>245.8</ele>
        <time>2021-08-26T13:54:49Z</time>
      </trkpt>
      <trkpt lat="46.59552" lon="5.47249">
        <ele>245.8</ele>
        <time>2021-08-26T13:54:51Z</time>
      </trkpt>
      <trkpt lat="46.59544" lon="5.47249">
        <ele>245.6</ele>
        <time>2021-08-26T13:54:53Z</time>
      </trkpt>
      <trkpt lat="46.59535" lon="5.47249">
        <ele>245.6</ele>
        <time>2021-08-26T13:54:55Z</time>
      </trkpt>
      <trkpt lat="46.59527" lon="5.47248">
        <ele>245.4</ele>
        <time>2021-08-26T13:54:57Z</time>
      </trkpt>
      <trkpt lat="46.59518" lon="5.47247">
        <ele>245.6</ele>
        <time>2021-08-26T13:54:59Z</time>
      </trkpt>
      <trkpt lat="46.59514" lon="5.47245">
        <ele>246</ele>
        <time>2021-08-26T13:55:00Z</time>
      </trkpt>
      <trkpt lat="46.5951" lon="5.47244">
        <ele>246.2</ele>
        <time>2021-08-26T13:55:01Z</time>
      </trkpt>
      <trkpt lat="46.59507" lon="5.47242">
        <ele>246.4</ele>
        <time>2021-08-26T13:55:02Z</time>
      </trkpt>
      <trkpt lat="46.59503" lon="5.47239">
        <ele>246.8</ele>
        <time>2021-08-26T13:55:03Z</time>
      </trkpt>
      <trkpt lat="46.59496" lon="5.47234">
        <ele>247.2</ele>
        <time>2021-08-26T13:55:05Z</time>
      </trkpt>
      <trkpt lat="46.59489" lon="5.47229">
        <ele>247.6</ele>
        <time>2021-08-26T13:55:07Z</time>
      </trkpt>
      <trkpt lat="46.59482" lon="5.47222">
        <ele>248</ele>
        <time>2021-08-26T13:55:09Z</time>
      </trkpt>
      <trkpt lat="46.59475" lon="5.47215">
        <ele>248.6</ele>
        <time>2021-08-26T13:55:11Z</time>
      </trkpt>
      <trkpt lat="46.59468" lon="5.47209">
        <ele>249.2</ele>
        <time>2021-08-26T13:55:13Z</time>
      </trkpt>
      <trkpt lat="46.59461" lon="5.47202">
        <ele>249.8</ele>
        <time>2021-08-26T13:55:15Z</time>
      </trkpt>
      <trkpt lat="46.59455" lon="5.47196">
        <ele>250.4</ele>
        <time>2021-08-26T13:55:17Z</time>
      </trkpt>
      <trkpt lat="46.59451" lon="5.47193">
        <ele>250.8</ele>
        <time>2021-08-26T13:55:18Z</time>
      </trkpt>
      <trkpt lat="46.59448" lon="5.4719">
        <ele>251</ele>
        <time>2021-08-26T13:55:19Z</time>
      </trkpt>
      <trkpt lat="46.59442" lon="5.47184">
        <ele>251.6</ele>
        <time>2021-08-26T13:55:21Z</time>
      </trkpt>
      <trkpt lat="46.59436" lon="5.47176">
        <ele>251.8</ele>
        <time>2021-08-26T13:55:23Z</time>
      </trkpt>
      <trkpt lat="46.59433" lon="5.47172">
        <ele>251.8</ele>
        <time>2021-08-26T13:55:24Z</time>
      </trkpt>
      <trkpt lat="46.59431" lon="5.47166">
        <ele>252</ele>
        <time>2021-08-26T13:55:25Z</time>
      </trkpt>
      <trkpt lat="46.59428" lon="5.47155">
        <ele>252.6</ele>
        <time>2021-08-26T13:55:27Z</time>
      </trkpt>
      <trkpt lat="46.59428" lon="5.47143">
        <ele>253</ele>
        <time>2021-08-26T13:55:29Z</time>
      </trkpt>
      <trkpt lat="46.59429" lon="5.47137">
        <ele>253.2</ele>
        <time>2021-08-26T13:55:30Z</time>
      </trkpt>
      <trkpt lat="46.59431" lon="5.47132">
        <ele>253.2</ele>
        <time>2021-08-26T13:55:31Z</time>
      </trkpt>
      <trkpt lat="46.59436" lon="5.47123">
        <ele>253.4</ele>
        <time>2021-08-26T13:55:33Z</time>
      </trkpt>
      <trkpt lat="46.59441" lon="5.47114">
        <ele>253.4</ele>
        <time>2021-08-26T13:55:35Z</time>
      </trkpt>
      <trkpt lat="46.59447" lon="5.47105">
        <ele>253.6</ele>
        <time>2021-08-26T13:55:37Z</time>
      </trkpt>
      <trkpt lat="46.59452" lon="5.47096">
        <ele>254</ele>
        <time>2021-08-26T13:55:39Z</time>
      </trkpt>
      <trkpt lat="46.59454" lon="5.47091">
        <ele>254.4</ele>
        <time>2021-08-26T13:55:40Z</time>
      </trkpt>
      <trkpt lat="46.59455" lon="5.47085">
        <ele>254.6</ele>
        <time>2021-08-26T13:55:41Z</time>
      </trkpt>
      <trkpt lat="46.59457" lon="5.47074">
        <ele>255.2</ele>
        <time>2021-08-26T13:55:43Z</time>
      </trkpt>
      <trkpt lat="46.59457" lon="5.47068">
        <ele>255.4</ele>
        <time>2021-08-26T13:55:44Z</time>
      </trkpt>
      <trkpt lat="46.59456" lon="5.47062">
        <ele>255.6</ele>
        <time>2021-08-26T13:55:45Z</time>
      </trkpt>
      <trkpt lat="46.59452" lon="5.47052">
        <ele>256.4</ele>
        <time>2021-08-26T13:55:47Z</time>
      </trkpt>
      <trkpt lat="46.59449" lon="5.47048">
        <ele>256.6</ele>
        <time>2021-08-26T13:55:48Z</time>
      </trkpt>
      <trkpt lat="46.59446" lon="5.47044">
        <ele>256.8</ele>
        <time>2021-08-26T13:55:49Z</time>
      </trkpt>
      <trkpt lat="46.59439" lon="5.47038">
        <ele>257.4</ele>
        <time>2021-08-26T13:55:51Z</time>
      </trkpt>
      <trkpt lat="46.59436" lon="5.47036">
        <ele>257.6</ele>
        <time>2021-08-26T13:55:52Z</time>
      </trkpt>
      <trkpt lat="46.59432" lon="5.47034">
        <ele>258</ele>
        <time>2021-08-26T13:55:53Z</time>
      </trkpt>
      <trkpt lat="46.59425" lon="5.4703">
        <ele>258.4</ele>
        <time>2021-08-26T13:55:55Z</time>
      </trkpt>
      <trkpt lat="46.59421" lon="5.47028">
        <ele>258.6</ele>
        <time>2021-08-26T13:55:56Z</time>
      </trkpt>
      <trkpt lat="46.59418" lon="5.47027">
        <ele>259</ele>
        <time>2021-08-26T13:55:57Z</time>
      </trkpt>
      <trkpt lat="46.59411" lon="5.47023">
        <ele>259.2</ele>
        <time>2021-08-26T13:55:59Z</time>
      </trkpt>
      <trkpt lat="46.59403" lon="5.47019">
        <ele>259.6</ele>
        <time>2021-08-26T13:56:01Z</time>
      </trkpt>
      <trkpt lat="46.594" lon="5.47018">
        <ele>260</ele>
        <time>2021-08-26T13:56:02Z</time>
      </trkpt>
      <trkpt lat="46.59396" lon="5.47016">
        <ele>260.2</ele>
        <time>2021-08-26T13:56:03Z</time>
      </trkpt>
      <trkpt lat="46.59393" lon="5.47014">
        <ele>260.4</ele>
        <time>2021-08-26T13:56:04Z</time>
      </trkpt>
      <trkpt lat="46.59389" lon="5.47012">
        <ele>260.6</ele>
        <time>2021-08-26T13:56:05Z</time>
      </trkpt>
      <trkpt lat="46.59382" lon="5.47008">
        <ele>261.2</ele>
        <time>2021-08-26T13:56:07Z</time>
      </trkpt>
      <trkpt lat="46.59374" lon="5.47004">
        <ele>261.8</ele>
        <time>2021-08-26T13:56:09Z</time>
      </trkpt>
      <trkpt lat="46.59367" lon="5.46999">
        <ele>262.2</ele>
        <time>2021-08-26T13:56:11Z</time>
      </trkpt>
      <trkpt lat="46.59363" lon="5.46996">
        <ele>262.4</ele>
        <time>2021-08-26T13:56:12Z</time>
      </trkpt>
      <trkpt lat="46.5936" lon="5.46993">
        <ele>262.6</ele>
        <time>2021-08-26T13:56:13Z</time>
      </trkpt>
      <trkpt lat="46.59354" lon="5.46985">
        <ele>263</ele>
        <time>2021-08-26T13:56:15Z</time>
      </trkpt>
      <trkpt lat="46.5935" lon="5.46976">
        <ele>263.2</ele>
        <time>2021-08-26T13:56:17Z</time>
      </trkpt>
      <trkpt lat="46.59347" lon="5.46971">
        <ele>263.6</ele>
        <time>2021-08-26T13:56:18Z</time>
      </trkpt>
      <trkpt lat="46.59346" lon="5.46966">
        <ele>263.8</ele>
        <time>2021-08-26T13:56:19Z</time>
      </trkpt>
      <trkpt lat="46.59342" lon="5.46955">
        <ele>264.4</ele>
        <time>2021-08-26T13:56:21Z</time>
      </trkpt>
      <trkpt lat="46.59339" lon="5.46945">
        <ele>264.8</ele>
        <time>2021-08-26T13:56:23Z</time>
      </trkpt>
      <trkpt lat="46.59336" lon="5.46934">
        <ele>265.2</ele>
        <time>2021-08-26T13:56:25Z</time>
      </trkpt>
      <trkpt lat="46.59334" lon="5.46929">
        <ele>265.6</ele>
        <time>2021-08-26T13:56:26Z</time>
      </trkpt>
      <trkpt lat="46.59332" lon="5.46924">
        <ele>265.8</ele>
        <time>2021-08-26T13:56:27Z</time>
      </trkpt>
      <trkpt lat="46.59329" lon="5.4692">
        <ele>265.8</ele>
        <time>2021-08-26T13:56:28Z</time>
      </trkpt>
      <trkpt lat="46.59326" lon="5.46916">
        <ele>266</ele>
        <time>2021-08-26T13:56:29Z</time>
      </trkpt>
      <trkpt lat="46.59323" lon="5.46913">
        <ele>266.2</ele>
        <time>2021-08-26T13:56:30Z</time>
      </trkpt>
      <trkpt lat="46.5932" lon="5.46912">
        <ele>266.4</ele>
        <time>2021-08-26T13:56:31Z</time>
      </trkpt>
      <trkpt lat="46.59312" lon="5.46912">
        <ele>266.8</ele>
        <time>2021-08-26T13:56:33Z</time>
      </trkpt>
      <trkpt lat="46.59309" lon="5.46914">
        <ele>267.2</ele>
        <time>2021-08-26T13:56:34Z</time>
      </trkpt>
      <trkpt lat="46.59306" lon="5.46918">
        <ele>267.4</ele>
        <time>2021-08-26T13:56:35Z</time>
      </trkpt>
      <trkpt lat="46.59303" lon="5.46928">
        <ele>267.8</ele>
        <time>2021-08-26T13:56:37Z</time>
      </trkpt>
      <trkpt lat="46.59301" lon="5.46934">
        <ele>268.2</ele>
        <time>2021-08-26T13:56:38Z</time>
      </trkpt>
      <trkpt lat="46.59299" lon="5.46939">
        <ele>268.4</ele>
        <time>2021-08-26T13:56:39Z</time>
      </trkpt>
      <trkpt lat="46.59296" lon="5.46949">
        <ele>269.2</ele>
        <time>2021-08-26T13:56:41Z</time>
      </trkpt>
      <trkpt lat="46.59293" lon="5.46954">
        <ele>269.6</ele>
        <time>2021-08-26T13:56:42Z</time>
      </trkpt>
      <trkpt lat="46.59292" lon="5.46959">
        <ele>269.8</ele>
        <time>2021-08-26T13:56:43Z</time>
      </trkpt>
      <trkpt lat="46.5929" lon="5.46965">
        <ele>270</ele>
        <time>2021-08-26T13:56:44Z</time>
      </trkpt>
      <trkpt lat="46.59289" lon="5.46971">
        <ele>270</ele>
        <time>2021-08-26T13:56:45Z</time>
      </trkpt>
      <trkpt lat="46.59286" lon="5.46982">
        <ele>270.4</ele>
        <time>2021-08-26T13:56:47Z</time>
      </trkpt>
      <trkpt lat="46.59285" lon="5.46988">
        <ele>270.6</ele>
        <time>2021-08-26T13:56:48Z</time>
      </trkpt>
      <trkpt lat="46.59284" lon="5.46994">
        <ele>271</ele>
        <time>2021-08-26T13:56:49Z</time>
      </trkpt>
      <trkpt lat="46.59282" lon="5.47005">
        <ele>271.4</ele>
        <time>2021-08-26T13:56:51Z</time>
      </trkpt>
      <trkpt lat="46.59282" lon="5.47017">
        <ele>271.8</ele>
        <time>2021-08-26T13:56:53Z</time>
      </trkpt>
      <trkpt lat="46.59283" lon="5.47029">
        <ele>272</ele>
        <time>2021-08-26T13:56:55Z</time>
      </trkpt>
      <trkpt lat="46.59286" lon="5.4704">
        <ele>272.6</ele>
        <time>2021-08-26T13:56:57Z</time>
      </trkpt>
      <trkpt lat="46.59287" lon="5.47045">
        <ele>272.8</ele>
        <time>2021-08-26T13:56:58Z</time>
      </trkpt>
      <trkpt lat="46.59289" lon="5.4705">
        <ele>273</ele>
        <time>2021-08-26T13:56:59Z</time>
      </trkpt>
      <trkpt lat="46.59293" lon="5.4706">
        <ele>273.4</ele>
        <time>2021-08-26T13:57:01Z</time>
      </trkpt>
      <trkpt lat="46.59296" lon="5.47071">
        <ele>273.8</ele>
        <time>2021-08-26T13:57:03Z</time>
      </trkpt>
      <trkpt lat="46.59297" lon="5.47076">
        <ele>274</ele>
        <time>2021-08-26T13:57:04Z</time>
      </trkpt>
      <trkpt lat="46.59297" lon="5.47082">
        <ele>274.2</ele>
        <time>2021-08-26T13:57:05Z</time>
      </trkpt>
      <trkpt lat="46.59297" lon="5.47094">
        <ele>274.6</ele>
        <time>2021-08-26T13:57:07Z</time>
      </trkpt>
      <trkpt lat="46.59297" lon="5.47099">
        <ele>274.8</ele>
        <time>2021-08-26T13:57:08Z</time>
      </trkpt>
      <trkpt lat="46.59296" lon="5.47104">
        <ele>275.2</ele>
        <time>2021-08-26T13:57:09Z</time>
      </trkpt>
      <trkpt lat="46.59292" lon="5.47114">
        <ele>275.6</ele>
        <time>2021-08-26T13:57:11Z</time>
      </trkpt>
      <trkpt lat="46.59288" lon="5.47123">
        <ele>276</ele>
        <time>2021-08-26T13:57:13Z</time>
      </trkpt>
      <trkpt lat="46.59285" lon="5.47126">
        <ele>276.2</ele>
        <time>2021-08-26T13:57:14Z</time>
      </trkpt>
      <trkpt lat="46.59282" lon="5.4713">
        <ele>276.2</ele>
        <time>2021-08-26T13:57:15Z</time>
      </trkpt>
      <trkpt lat="46.59276" lon="5.47135">
        <ele>276.8</ele>
        <time>2021-08-26T13:57:17Z</time>
      </trkpt>
      <trkpt lat="46.59272" lon="5.47137">
        <ele>277</ele>
        <time>2021-08-26T13:57:18Z</time>
      </trkpt>
      <trkpt lat="46.59269" lon="5.47139">
        <ele>277.2</ele>
        <time>2021-08-26T13:57:19Z</time>
      </trkpt>
      <trkpt lat="46.59265" lon="5.47141">
        <ele>277.4</ele>
        <time>2021-08-26T13:57:20Z</time>
      </trkpt>
      <trkpt lat="46.59262" lon="5.47143">
        <ele>277.6</ele>
        <time>2021-08-26T13:57:21Z</time>
      </trkpt>
      <trkpt lat="46.59255" lon="5.47147">
        <ele>278.2</ele>
        <time>2021-08-26T13:57:23Z</time>
      </trkpt>
      <trkpt lat="46.59248" lon="5.47152">
        <ele>278.6</ele>
        <time>2021-08-26T13:57:25Z</time>
      </trkpt>
      <trkpt lat="46.59244" lon="5.47154">
        <ele>279</ele>
        <time>2021-08-26T13:57:26Z</time>
      </trkpt>
      <trkpt lat="46.59241" lon="5.47157">
        <ele>279.2</ele>
        <time>2021-08-26T13:57:27Z</time>
      </trkpt>
      <trkpt lat="46.59235" lon="5.47164">
        <ele>279.6</ele>
        <time>2021-08-26T13:57:29Z</time>
      </trkpt>
      <trkpt lat="46.5923" lon="5.47172">
        <ele>280</ele>
        <time>2021-08-26T13:57:31Z</time>
      </trkpt>
      <trkpt lat="46.59225" lon="5.4718">
        <ele>280.4</ele>
        <time>2021-08-26T13:57:33Z</time>
      </trkpt>
      <trkpt lat="46.59222" lon="5.47184">
        <ele>280.6</ele>
        <time>2021-08-26T13:57:34Z</time>
      </trkpt>
      <trkpt lat="46.5922" lon="5.47189">
        <ele>280.8</ele>
        <time>2021-08-26T13:57:35Z</time>
      </trkpt>
      <trkpt lat="46.59216" lon="5.47198">
        <ele>281.2</ele>
        <time>2021-08-26T13:57:37Z</time>
      </trkpt>
      <trkpt lat="46.59212" lon="5.47208">
        <ele>281.4</ele>
        <time>2021-08-26T13:57:39Z</time>
      </trkpt>
      <trkpt lat="46.5921" lon="5.47213">
        <ele>281.6</ele>
        <time>2021-08-26T13:57:40Z</time>
      </trkpt>
      <trkpt lat="46.59209" lon="5.47218">
        <ele>282</ele>
        <time>2021-08-26T13:57:41Z</time>
      </trkpt>
      <trkpt lat="46.59207" lon="5.47228">
        <ele>282.4</ele>
        <time>2021-08-26T13:57:43Z</time>
      </trkpt>
      <trkpt lat="46.59206" lon="5.47239">
        <ele>282.6</ele>
        <time>2021-08-26T13:57:45Z</time>
      </trkpt>
      <trkpt lat="46.59205" lon="5.47245">
        <ele>282.8</ele>
        <time>2021-08-26T13:57:46Z</time>
      </trkpt>
      <trkpt lat="46.59205" lon="5.47251">
        <ele>282.8</ele>
        <time>2021-08-26T13:57:47Z</time>
      </trkpt>
      <trkpt lat="46.59206" lon="5.47256">
        <ele>283.2</ele>
        <time>2021-08-26T13:57:48Z</time>
      </trkpt>
      <trkpt lat="46.59206" lon="5.47262">
        <ele>283.4</ele>
        <time>2021-08-26T13:57:49Z</time>
      </trkpt>
      <trkpt lat="46.59209" lon="5.47272">
        <ele>284</ele>
        <time>2021-08-26T13:57:51Z</time>
      </trkpt>
      <trkpt lat="46.59211" lon="5.47277">
        <ele>284.2</ele>
        <time>2021-08-26T13:57:52Z</time>
      </trkpt>
      <trkpt lat="46.59212" lon="5.47283">
        <ele>284.4</ele>
        <time>2021-08-26T13:57:53Z</time>
      </trkpt>
      <trkpt lat="46.59216" lon="5.47293">
        <ele>284.8</ele>
        <time>2021-08-26T13:57:55Z</time>
      </trkpt>
      <trkpt lat="46.5922" lon="5.47303">
        <ele>285.4</ele>
        <time>2021-08-26T13:57:57Z</time>
      </trkpt>
      <trkpt lat="46.59224" lon="5.47313">
        <ele>285.8</ele>
        <time>2021-08-26T13:57:59Z</time>
      </trkpt>
      <trkpt lat="46.59227" lon="5.47323">
        <ele>286</ele>
        <time>2021-08-26T13:58:01Z</time>
      </trkpt>
      <trkpt lat="46.59229" lon="5.47334">
        <ele>286.6</ele>
        <time>2021-08-26T13:58:03Z</time>
      </trkpt>
      <trkpt lat="46.59228" lon="5.47346">
        <ele>287</ele>
        <time>2021-08-26T13:58:05Z</time>
      </trkpt>
      <trkpt lat="46.59224" lon="5.47354">
        <ele>287.4</ele>
        <time>2021-08-26T13:58:07Z</time>
      </trkpt>
      <trkpt lat="46.59217" lon="5.4736">
        <ele>287.8</ele>
        <time>2021-08-26T13:58:09Z</time>
      </trkpt>
      <trkpt lat="46.59209" lon="5.47361">
        <ele>288.2</ele>
        <time>2021-08-26T13:58:11Z</time>
      </trkpt>
      <trkpt lat="46.59202" lon="5.47358">
        <ele>288.8</ele>
        <time>2021-08-26T13:58:13Z</time>
      </trkpt>
      <trkpt lat="46.59194" lon="5.47352">
        <ele>289.6</ele>
        <time>2021-08-26T13:58:15Z</time>
      </trkpt>
      <trkpt lat="46.5919" lon="5.4735">
        <ele>290</ele>
        <time>2021-08-26T13:58:16Z</time>
      </trkpt>
      <trkpt lat="46.59187" lon="5.47347">
        <ele>290.4</ele>
        <time>2021-08-26T13:58:17Z</time>
      </trkpt>
      <trkpt lat="46.59179" lon="5.47342">
        <ele>291</ele>
        <time>2021-08-26T13:58:19Z</time>
      </trkpt>
      <trkpt lat="46.59175" lon="5.47339">
        <ele>291.2</ele>
        <time>2021-08-26T13:58:20Z</time>
      </trkpt>
      <trkpt lat="46.59171" lon="5.47337">
        <ele>291.4</ele>
        <time>2021-08-26T13:58:21Z</time>
      </trkpt>
      <trkpt lat="46.59164" lon="5.47333">
        <ele>291.6</ele>
        <time>2021-08-26T13:58:23Z</time>
      </trkpt>
      <trkpt lat="46.59156" lon="5.47329">
        <ele>292</ele>
        <time>2021-08-26T13:58:25Z</time>
      </trkpt>
      <trkpt lat="46.59149" lon="5.47325">
        <ele>292.4</ele>
        <time>2021-08-26T13:58:27Z</time>
      </trkpt>
      <trkpt lat="46.59141" lon="5.47321">
        <ele>292.6</ele>
        <time>2021-08-26T13:58:29Z</time>
      </trkpt>
      <trkpt lat="46.59133" lon="5.47317">
        <ele>293</ele>
        <time>2021-08-26T13:58:31Z</time>
      </trkpt>
      <trkpt lat="46.59129" lon="5.47316">
        <ele>293.2</ele>
        <time>2021-08-26T13:58:32Z</time>
      </trkpt>
      <trkpt lat="46.59125" lon="5.47315">
        <ele>293.6</ele>
        <time>2021-08-26T13:58:33Z</time>
      </trkpt>
      <trkpt lat="46.5912" lon="5.47314">
        <ele>293.8</ele>
        <time>2021-08-26T13:58:34Z</time>
      </trkpt>
      <trkpt lat="46.59116" lon="5.47312">
        <ele>294</ele>
        <time>2021-08-26T13:58:35Z</time>
      </trkpt>
      <trkpt lat="46.59106" lon="5.47308">
        <ele>294.4</ele>
        <time>2021-08-26T13:58:37Z</time>
      </trkpt>
      <trkpt lat="46.59101" lon="5.47306">
        <ele>294.6</ele>
        <time>2021-08-26T13:58:38Z</time>
      </trkpt>
      <trkpt lat="46.59096" lon="5.47305">
        <ele>294.6</ele>
        <time>2021-08-26T13:58:39Z</time>
      </trkpt>
      <trkpt lat="46.59085" lon="5.47302">
        <ele>294.6</ele>
        <time>2021-08-26T13:58:41Z</time>
      </trkpt>
      <trkpt lat="46.59074" lon="5.47298">
        <ele>294.6</ele>
        <time>2021-08-26T13:58:43Z</time>
      </trkpt>
      <trkpt lat="46.59069" lon="5.47296">
        <ele>294.6</ele>
        <time>2021-08-26T13:58:44Z</time>
      </trkpt>
      <trkpt lat="46.59063" lon="5.47292">
        <ele>294.6</ele>
        <time>2021-08-26T13:58:45Z</time>
      </trkpt>
      <trkpt lat="46.59058" lon="5.47288">
        <ele>294.6</ele>
        <time>2021-08-26T13:58:46Z</time>
      </trkpt>
      <trkpt lat="46.59052" lon="5.47282">
        <ele>294.4</ele>
        <time>2021-08-26T13:58:47Z</time>
      </trkpt>
      <trkpt lat="46.59047" lon="5.47276">
        <ele>294.4</ele>
        <time>2021-08-26T13:58:48Z</time>
      </trkpt>
      <trkpt lat="46.59042" lon="5.47269">
        <ele>294.4</ele>
        <time>2021-08-26T13:58:49Z</time>
      </trkpt>
      <trkpt lat="46.59031" lon="5.47256">
        <ele>294</ele>
        <time>2021-08-26T13:58:51Z</time>
      </trkpt>
      <trkpt lat="46.59025" lon="5.47249">
        <ele>293.8</ele>
        <time>2021-08-26T13:58:52Z</time>
      </trkpt>
      <trkpt lat="46.59019" lon="5.47242">
        <ele>293.6</ele>
        <time>2021-08-26T13:58:53Z</time>
      </trkpt>
      <trkpt lat="46.59013" lon="5.47236">
        <ele>293.2</ele>
        <time>2021-08-26T13:58:54Z</time>
      </trkpt>
      <trkpt lat="46.59006" lon="5.4723">
        <ele>293</ele>
        <time>2021-08-26T13:58:55Z</time>
      </trkpt>
      <trkpt lat="46.58991" lon="5.47219">
        <ele>292.4</ele>
        <time>2021-08-26T13:58:57Z</time>
      </trkpt>
      <trkpt lat="46.58983" lon="5.47212">
        <ele>292.2</ele>
        <time>2021-08-26T13:58:58Z</time>
      </trkpt>
      <trkpt lat="46.58975" lon="5.47205">
        <ele>291.6</ele>
        <time>2021-08-26T13:58:59Z</time>
      </trkpt>
      <trkpt lat="46.58959" lon="5.47192">
        <ele>290.8</ele>
        <time>2021-08-26T13:59:01Z</time>
      </trkpt>
      <trkpt lat="46.58943" lon="5.47177">
        <ele>290</ele>
        <time>2021-08-26T13:59:03Z</time>
      </trkpt>
      <trkpt lat="46.58935" lon="5.4717">
        <ele>289.2</ele>
        <time>2021-08-26T13:59:04Z</time>
      </trkpt>
      <trkpt lat="46.58927" lon="5.47163">
        <ele>288.8</ele>
        <time>2021-08-26T13:59:05Z</time>
      </trkpt>
      <trkpt lat="46.58919" lon="5.47156">
        <ele>288</ele>
        <time>2021-08-26T13:59:06Z</time>
      </trkpt>
      <trkpt lat="46.58911" lon="5.47149">
        <ele>287.4</ele>
        <time>2021-08-26T13:59:07Z</time>
      </trkpt>
      <trkpt lat="46.58903" lon="5.47143">
        <ele>286.6</ele>
        <time>2021-08-26T13:59:08Z</time>
      </trkpt>
      <trkpt lat="46.58894" lon="5.47137">
        <ele>286</ele>
        <time>2021-08-26T13:59:09Z</time>
      </trkpt>
      <trkpt lat="46.58885" lon="5.47133">
        <ele>285.6</ele>
        <time>2021-08-26T13:59:10Z</time>
      </trkpt>
      <trkpt lat="46.58877" lon="5.47128">
        <ele>285.2</ele>
        <time>2021-08-26T13:59:11Z</time>
      </trkpt>
      <trkpt lat="46.58859" lon="5.47117">
        <ele>284.4</ele>
        <time>2021-08-26T13:59:13Z</time>
      </trkpt>
      <trkpt lat="46.58842" lon="5.47103">
        <ele>283.8</ele>
        <time>2021-08-26T13:59:15Z</time>
      </trkpt>
      <trkpt lat="46.58834" lon="5.47095">
        <ele>283.8</ele>
        <time>2021-08-26T13:59:16Z</time>
      </trkpt>
      <trkpt lat="46.58827" lon="5.47087">
        <ele>283.6</ele>
        <time>2021-08-26T13:59:17Z</time>
      </trkpt>
      <trkpt lat="46.58813" lon="5.47068">
        <ele>283</ele>
        <time>2021-08-26T13:59:19Z</time>
      </trkpt>
      <trkpt lat="46.58798" lon="5.4705">
        <ele>282</ele>
        <time>2021-08-26T13:59:21Z</time>
      </trkpt>
      <trkpt lat="46.58791" lon="5.47043">
        <ele>281.4</ele>
        <time>2021-08-26T13:59:22Z</time>
      </trkpt>
      <trkpt lat="46.58783" lon="5.47036">
        <ele>280.8</ele>
        <time>2021-08-26T13:59:23Z</time>
      </trkpt>
      <trkpt lat="46.58766" lon="5.47026">
        <ele>280.4</ele>
        <time>2021-08-26T13:59:25Z</time>
      </trkpt>
      <trkpt lat="46.58757" lon="5.47023">
        <ele>280.4</ele>
        <time>2021-08-26T13:59:26Z</time>
      </trkpt>
      <trkpt lat="46.58748" lon="5.47021">
        <ele>280.2</ele>
        <time>2021-08-26T13:59:27Z</time>
      </trkpt>
      <trkpt lat="46.58739" lon="5.4702">
        <ele>280</ele>
        <time>2021-08-26T13:59:28Z</time>
      </trkpt>
      <trkpt lat="46.58729" lon="5.4702">
        <ele>280</ele>
        <time>2021-08-26T13:59:29Z</time>
      </trkpt>
      <trkpt lat="46.5872" lon="5.47021">
        <ele>279.6</ele>
        <time>2021-08-26T13:59:30Z</time>
      </trkpt>
      <trkpt lat="46.58712" lon="5.47023">
        <ele>279.4</ele>
        <time>2021-08-26T13:59:31Z</time>
      </trkpt>
      <trkpt lat="46.58694" lon="5.47029">
        <ele>278.8</ele>
        <time>2021-08-26T13:59:33Z</time>
      </trkpt>
      <trkpt lat="46.58685" lon="5.47032">
        <ele>278.6</ele>
        <time>2021-08-26T13:59:34Z</time>
      </trkpt>
      <trkpt lat="46.58675" lon="5.47033">
        <ele>278.4</ele>
        <time>2021-08-26T13:59:35Z</time>
      </trkpt>
      <trkpt lat="46.58655" lon="5.47028">
        <ele>277.8</ele>
        <time>2021-08-26T13:59:37Z</time>
      </trkpt>
      <trkpt lat="46.58645" lon="5.47022">
        <ele>277.6</ele>
        <time>2021-08-26T13:59:38Z</time>
      </trkpt>
      <trkpt lat="46.58635" lon="5.47015">
        <ele>277.6</ele>
        <time>2021-08-26T13:59:39Z</time>
      </trkpt>
      <trkpt lat="46.58627" lon="5.47007">
        <ele>277.4</ele>
        <time>2021-08-26T13:59:40Z</time>
      </trkpt>
      <trkpt lat="46.5862" lon="5.46999">
        <ele>276.6</ele>
        <time>2021-08-26T13:59:41Z</time>
      </trkpt>
      <trkpt lat="46.58607" lon="5.46984">
        <ele>275.2</ele>
        <time>2021-08-26T13:59:43Z</time>
      </trkpt>
      <trkpt lat="46.58603" lon="5.46973">
        <ele>274.4</ele>
        <time>2021-08-26T13:59:44Z</time>
      </trkpt>
      <trkpt lat="46.586" lon="5.46961">
        <ele>273.4</ele>
        <time>2021-08-26T13:59:45Z</time>
      </trkpt>
      <trkpt lat="46.58599" lon="5.46949">
        <ele>272.4</ele>
        <time>2021-08-26T13:59:46Z</time>
      </trkpt>
      <trkpt lat="46.58599" lon="5.46936">
        <ele>271.2</ele>
        <time>2021-08-26T13:59:47Z</time>
      </trkpt>
      <trkpt lat="46.58597" lon="5.46917">
        <ele>270.2</ele>
        <time>2021-08-26T13:59:49Z</time>
      </trkpt>
      <trkpt lat="46.58591" lon="5.46913">
        <ele>270</ele>
        <time>2021-08-26T13:59:50Z</time>
      </trkpt>
      <trkpt lat="46.58586" lon="5.46914">
        <ele>269.8</ele>
        <time>2021-08-26T13:59:51Z</time>
      </trkpt>
      <trkpt lat="46.58579" lon="5.46928">
        <ele>268.6</ele>
        <time>2021-08-26T13:59:53Z</time>
      </trkpt>
      <trkpt lat="46.58576" lon="5.46939">
        <ele>268</ele>
        <time>2021-08-26T13:59:54Z</time>
      </trkpt>
      <trkpt lat="46.58573" lon="5.46949">
        <ele>266.8</ele>
        <time>2021-08-26T13:59:55Z</time>
      </trkpt>
      <trkpt lat="46.58563" lon="5.46966">
        <ele>265.8</ele>
        <time>2021-08-26T13:59:57Z</time>
      </trkpt>
      <trkpt lat="46.58549" lon="5.46967">
        <ele>264.8</ele>
        <time>2021-08-26T13:59:59Z</time>
      </trkpt>
      <trkpt lat="46.58537" lon="5.46957">
        <ele>263.2</ele>
        <time>2021-08-26T14:00:01Z</time>
      </trkpt>
      <trkpt lat="46.58532" lon="5.4695">
        <ele>262.4</ele>
        <time>2021-08-26T14:00:02Z</time>
      </trkpt>
      <trkpt lat="46.58527" lon="5.46943">
        <ele>262.2</ele>
        <time>2021-08-26T14:00:03Z</time>
      </trkpt>
      <trkpt lat="46.58518" lon="5.4693">
        <ele>261.6</ele>
        <time>2021-08-26T14:00:05Z</time>
      </trkpt>
      <trkpt lat="46.5851" lon="5.46918">
        <ele>261.4</ele>
        <time>2021-08-26T14:00:07Z</time>
      </trkpt>
      <trkpt lat="46.58506" lon="5.46912">
        <ele>261.4</ele>
        <time>2021-08-26T14:00:08Z</time>
      </trkpt>
      <trkpt lat="46.58503" lon="5.46906">
        <ele>261.4</ele>
        <time>2021-08-26T14:00:09Z</time>
      </trkpt>
      <trkpt lat="46.58498" lon="5.46896">
        <ele>261.4</ele>
        <time>2021-08-26T14:00:11Z</time>
      </trkpt>
      <trkpt lat="46.58494" lon="5.46885">
        <ele>261.4</ele>
        <time>2021-08-26T14:00:13Z</time>
      </trkpt>
      <trkpt lat="46.58491" lon="5.46879">
        <ele>261.4</ele>
        <time>2021-08-26T14:00:14Z</time>
      </trkpt>
      <trkpt lat="46.58489" lon="5.46874">
        <ele>261.6</ele>
        <time>2021-08-26T14:00:15Z</time>
      </trkpt>
      <trkpt lat="46.58485" lon="5.46864">
        <ele>262.2</ele>
        <time>2021-08-26T14:00:17Z</time>
      </trkpt>
      <trkpt lat="46.5848" lon="5.46853">
        <ele>262.8</ele>
        <time>2021-08-26T14:00:19Z</time>
      </trkpt>
      <trkpt lat="46.58478" lon="5.46848">
        <ele>263.2</ele>
        <time>2021-08-26T14:00:20Z</time>
      </trkpt>
      <trkpt lat="46.58476" lon="5.46844">
        <ele>263.6</ele>
        <time>2021-08-26T14:00:21Z</time>
      </trkpt>
      <trkpt lat="46.58472" lon="5.46834">
        <ele>264.6</ele>
        <time>2021-08-26T14:00:23Z</time>
      </trkpt>
      <trkpt lat="46.58467" lon="5.46824">
        <ele>265.2</ele>
        <time>2021-08-26T14:00:25Z</time>
      </trkpt>
      <trkpt lat="46.58463" lon="5.46813">
        <ele>266</ele>
        <time>2021-08-26T14:00:27Z</time>
      </trkpt>
      <trkpt lat="46.58459" lon="5.46803">
        <ele>266.6</ele>
        <time>2021-08-26T14:00:29Z</time>
      </trkpt>
      <trkpt lat="46.58456" lon="5.46793">
        <ele>267.2</ele>
        <time>2021-08-26T14:00:31Z</time>
      </trkpt>
      <trkpt lat="46.58454" lon="5.46787">
        <ele>267.6</ele>
        <time>2021-08-26T14:00:32Z</time>
      </trkpt>
      <trkpt lat="46.58453" lon="5.46781">
        <ele>267.8</ele>
        <time>2021-08-26T14:00:33Z</time>
      </trkpt>
      <trkpt lat="46.58452" lon="5.46769">
        <ele>268.6</ele>
        <time>2021-08-26T14:00:35Z</time>
      </trkpt>
      <trkpt lat="46.58452" lon="5.46758">
        <ele>269</ele>
        <time>2021-08-26T14:00:37Z</time>
      </trkpt>
      <trkpt lat="46.58455" lon="5.46748">
        <ele>269.6</ele>
        <time>2021-08-26T14:00:39Z</time>
      </trkpt>
      <trkpt lat="46.58457" lon="5.46744">
        <ele>269.8</ele>
        <time>2021-08-26T14:00:40Z</time>
      </trkpt>
      <trkpt lat="46.5846" lon="5.4674">
        <ele>270</ele>
        <time>2021-08-26T14:00:41Z</time>
      </trkpt>
      <trkpt lat="46.58466" lon="5.46733">
        <ele>270.6</ele>
        <time>2021-08-26T14:00:43Z</time>
      </trkpt>
      <trkpt lat="46.58469" lon="5.4673">
        <ele>270.8</ele>
        <time>2021-08-26T14:00:44Z</time>
      </trkpt>
      <trkpt lat="46.58472" lon="5.46727">
        <ele>271</ele>
        <time>2021-08-26T14:00:45Z</time>
      </trkpt>
      <trkpt lat="46.58479" lon="5.46721">
        <ele>271.6</ele>
        <time>2021-08-26T14:00:47Z</time>
      </trkpt>
      <trkpt lat="46.58485" lon="5.46715">
        <ele>272.2</ele>
        <time>2021-08-26T14:00:49Z</time>
      </trkpt>
      <trkpt lat="46.58492" lon="5.46708">
        <ele>273</ele>
        <time>2021-08-26T14:00:51Z</time>
      </trkpt>
      <trkpt lat="46.58496" lon="5.46705">
        <ele>273.2</ele>
        <time>2021-08-26T14:00:52Z</time>
      </trkpt>
      <trkpt lat="46.58499" lon="5.46701">
        <ele>273.4</ele>
        <time>2021-08-26T14:00:53Z</time>
      </trkpt>
      <trkpt lat="46.58506" lon="5.46695">
        <ele>273.8</ele>
        <time>2021-08-26T14:00:55Z</time>
      </trkpt>
      <trkpt lat="46.58512" lon="5.46689">
        <ele>274.4</ele>
        <time>2021-08-26T14:00:57Z</time>
      </trkpt>
      <trkpt lat="46.58519" lon="5.46682">
        <ele>274.6</ele>
        <time>2021-08-26T14:00:59Z</time>
      </trkpt>
      <trkpt lat="46.58525" lon="5.46676">
        <ele>275</ele>
        <time>2021-08-26T14:01:01Z</time>
      </trkpt>
      <trkpt lat="46.58531" lon="5.46668">
        <ele>275.4</ele>
        <time>2021-08-26T14:01:03Z</time>
      </trkpt>
      <trkpt lat="46.58533" lon="5.46664">
        <ele>275.6</ele>
        <time>2021-08-26T14:01:04Z</time>
      </trkpt>
      <trkpt lat="46.58536" lon="5.4666">
        <ele>275.8</ele>
        <time>2021-08-26T14:01:05Z</time>
      </trkpt>
      <trkpt lat="46.58541" lon="5.4665">
        <ele>276.2</ele>
        <time>2021-08-26T14:01:07Z</time>
      </trkpt>
      <trkpt lat="46.58543" lon="5.46645">
        <ele>276.4</ele>
        <time>2021-08-26T14:01:08Z</time>
      </trkpt>
      <trkpt lat="46.58545" lon="5.46639">
        <ele>276.4</ele>
        <time>2021-08-26T14:01:09Z</time>
      </trkpt>
      <trkpt lat="46.58547" lon="5.46632">
        <ele>276.6</ele>
        <time>2021-08-26T14:01:10Z</time>
      </trkpt>
      <trkpt lat="46.58549" lon="5.46626">
        <ele>276.8</ele>
        <time>2021-08-26T14:01:11Z</time>
      </trkpt>
      <trkpt lat="46.58552" lon="5.46612">
        <ele>276.8</ele>
        <time>2021-08-26T14:01:13Z</time>
      </trkpt>
      <trkpt lat="46.58554" lon="5.46597">
        <ele>277</ele>
        <time>2021-08-26T14:01:15Z</time>
      </trkpt>
      <trkpt lat="46.58555" lon="5.46582">
        <ele>277.2</ele>
        <time>2021-08-26T14:01:17Z</time>
      </trkpt>
      <trkpt lat="46.58557" lon="5.46567">
        <ele>277.2</ele>
        <time>2021-08-26T14:01:19Z</time>
      </trkpt>
      <trkpt lat="46.58559" lon="5.46552">
        <ele>277.2</ele>
        <time>2021-08-26T14:01:21Z</time>
      </trkpt>
      <trkpt lat="46.5856" lon="5.46537">
        <ele>277.2</ele>
        <time>2021-08-26T14:01:23Z</time>
      </trkpt>
      <trkpt lat="46.58562" lon="5.46522">
        <ele>277.2</ele>
        <time>2021-08-26T14:01:25Z</time>
      </trkpt>
      <trkpt lat="46.58563" lon="5.46514">
        <ele>277.2</ele>
        <time>2021-08-26T14:01:26Z</time>
      </trkpt>
      <trkpt lat="46.58564" lon="5.46507">
        <ele>277.2</ele>
        <time>2021-08-26T14:01:27Z</time>
      </trkpt>
      <trkpt lat="46.58565" lon="5.46492">
        <ele>277.4</ele>
        <time>2021-08-26T14:01:29Z</time>
      </trkpt>
      <trkpt lat="46.58566" lon="5.46477">
        <ele>277.6</ele>
        <time>2021-08-26T14:01:31Z</time>
      </trkpt>
      <trkpt lat="46.58566" lon="5.4647">
        <ele>277.6</ele>
        <time>2021-08-26T14:01:32Z</time>
      </trkpt>
      <trkpt lat="46.58566" lon="5.46463">
        <ele>277.8</ele>
        <time>2021-08-26T14:01:33Z</time>
      </trkpt>
      <trkpt lat="46.58567" lon="5.46448">
        <ele>278</ele>
        <time>2021-08-26T14:01:35Z</time>
      </trkpt>
      <trkpt lat="46.58567" lon="5.46433">
        <ele>278.2</ele>
        <time>2021-08-26T14:01:37Z</time>
      </trkpt>
      <trkpt lat="46.58568" lon="5.46419">
        <ele>278.4</ele>
        <time>2021-08-26T14:01:39Z</time>
      </trkpt>
      <trkpt lat="46.58568" lon="5.46411">
        <ele>278.8</ele>
        <time>2021-08-26T14:01:40Z</time>
      </trkpt>
      <trkpt lat="46.58568" lon="5.46404">
        <ele>279</ele>
        <time>2021-08-26T14:01:41Z</time>
      </trkpt>
      <trkpt lat="46.58569" lon="5.4639">
        <ele>279.4</ele>
        <time>2021-08-26T14:01:43Z</time>
      </trkpt>
      <trkpt lat="46.58569" lon="5.46383">
        <ele>279.6</ele>
        <time>2021-08-26T14:01:44Z</time>
      </trkpt>
      <trkpt lat="46.58569" lon="5.46376">
        <ele>279.8</ele>
        <time>2021-08-26T14:01:45Z</time>
      </trkpt>
      <trkpt lat="46.58572" lon="5.46361">
        <ele>280</ele>
        <time>2021-08-26T14:01:47Z</time>
      </trkpt>
      <trkpt lat="46.58575" lon="5.46347">
        <ele>280.2</ele>
        <time>2021-08-26T14:01:49Z</time>
      </trkpt>
      <trkpt lat="46.58577" lon="5.4634">
        <ele>280.4</ele>
        <time>2021-08-26T14:01:50Z</time>
      </trkpt>
      <trkpt lat="46.58579" lon="5.46334">
        <ele>280.4</ele>
        <time>2021-08-26T14:01:51Z</time>
      </trkpt>
      <trkpt lat="46.58584" lon="5.46323">
        <ele>280.4</ele>
        <time>2021-08-26T14:01:53Z</time>
      </trkpt>
      <trkpt lat="46.58587" lon="5.46313">
        <ele>280.4</ele>
        <time>2021-08-26T14:01:55Z</time>
      </trkpt>
      <trkpt lat="46.58587" lon="5.46307">
        <ele>280.6</ele>
        <time>2021-08-26T14:01:57Z</time>
      </trkpt>
      <trkpt lat="46.58587" lon="5.46306">
        <ele>280.6</ele>
        <time>2021-08-26T14:01:58Z</time>
      </trkpt>
      <trkpt lat="46.58587" lon="5.46306">
        <ele>280.6</ele>
        <time>2021-08-26T14:01:59Z</time>
      </trkpt>
      <trkpt lat="46.58587" lon="5.46305">
        <ele>280.8</ele>
        <time>2021-08-26T14:02:01Z</time>
      </trkpt>
      <trkpt lat="46.58591" lon="5.46303">
        <ele>283</ele>
        <time>2021-08-26T14:02:50Z</time>
      </trkpt>
      <trkpt lat="46.58592" lon="5.463">
        <ele>283</ele>
        <time>2021-08-26T14:02:51Z</time>
      </trkpt>
      <trkpt lat="46.58596" lon="5.46291">
        <ele>283</ele>
        <time>2021-08-26T14:02:53Z</time>
      </trkpt>
      <trkpt lat="46.586" lon="5.46279">
        <ele>283</ele>
        <time>2021-08-26T14:02:55Z</time>
      </trkpt>
      <trkpt lat="46.58604" lon="5.46265">
        <ele>283</ele>
        <time>2021-08-26T14:02:57Z</time>
      </trkpt>
      <trkpt lat="46.58605" lon="5.46258">
        <ele>282.8</ele>
        <time>2021-08-26T14:02:58Z</time>
      </trkpt>
      <trkpt lat="46.58606" lon="5.4625">
        <ele>282.6</ele>
        <time>2021-08-26T14:02:59Z</time>
      </trkpt>
      <trkpt lat="46.58608" lon="5.46235">
        <ele>282.6</ele>
        <time>2021-08-26T14:03:01Z</time>
      </trkpt>
      <trkpt lat="46.58606" lon="5.4622">
        <ele>282.4</ele>
        <time>2021-08-26T14:03:03Z</time>
      </trkpt>
      <trkpt lat="46.58602" lon="5.46205">
        <ele>282.4</ele>
        <time>2021-08-26T14:03:05Z</time>
      </trkpt>
      <trkpt lat="46.58597" lon="5.4619">
        <ele>282.4</ele>
        <time>2021-08-26T14:03:07Z</time>
      </trkpt>
      <trkpt lat="46.58594" lon="5.46183">
        <ele>282.4</ele>
        <time>2021-08-26T14:03:08Z</time>
      </trkpt>
      <trkpt lat="46.58591" lon="5.46175">
        <ele>282.4</ele>
        <time>2021-08-26T14:03:09Z</time>
      </trkpt>
      <trkpt lat="46.58586" lon="5.4616">
        <ele>282.4</ele>
        <time>2021-08-26T14:03:11Z</time>
      </trkpt>
      <trkpt lat="46.5858" lon="5.46144">
        <ele>282.4</ele>
        <time>2021-08-26T14:03:13Z</time>
      </trkpt>
      <trkpt lat="46.58577" lon="5.46135">
        <ele>282.4</ele>
        <time>2021-08-26T14:03:14Z</time>
      </trkpt>
      <trkpt lat="46.58575" lon="5.46127">
        <ele>282.4</ele>
        <time>2021-08-26T14:03:15Z</time>
      </trkpt>
      <trkpt lat="46.58569" lon="5.46109">
        <ele>282.4</ele>
        <time>2021-08-26T14:03:17Z</time>
      </trkpt>
      <trkpt lat="46.58564" lon="5.46091">
        <ele>282.2</ele>
        <time>2021-08-26T14:03:19Z</time>
      </trkpt>
      <trkpt lat="46.58561" lon="5.46082">
        <ele>282</ele>
        <time>2021-08-26T14:03:20Z</time>
      </trkpt>
      <trkpt lat="46.58558" lon="5.46073">
        <ele>282</ele>
        <time>2021-08-26T14:03:21Z</time>
      </trkpt>
      <trkpt lat="46.58552" lon="5.46055">
        <ele>281.8</ele>
        <time>2021-08-26T14:03:23Z</time>
      </trkpt>
      <trkpt lat="46.58545" lon="5.46036">
        <ele>281.8</ele>
        <time>2021-08-26T14:03:25Z</time>
      </trkpt>
      <trkpt lat="46.58538" lon="5.46016">
        <ele>281.8</ele>
        <time>2021-08-26T14:03:27Z</time>
      </trkpt>
      <trkpt lat="46.58531" lon="5.45996">
        <ele>281.6</ele>
        <time>2021-08-26T14:03:29Z</time>
      </trkpt>
      <trkpt lat="46.58523" lon="5.45976">
        <ele>281.2</ele>
        <time>2021-08-26T14:03:31Z</time>
      </trkpt>
      <trkpt lat="46.58515" lon="5.45955">
        <ele>281</ele>
        <time>2021-08-26T14:03:33Z</time>
      </trkpt>
      <trkpt lat="46.5851" lon="5.45945">
        <ele>281</ele>
        <time>2021-08-26T14:03:34Z</time>
      </trkpt>
      <trkpt lat="46.58506" lon="5.45934">
        <ele>280.6</ele>
        <time>2021-08-26T14:03:35Z</time>
      </trkpt>
      <trkpt lat="46.58501" lon="5.45924">
        <ele>280.4</ele>
        <time>2021-08-26T14:03:36Z</time>
      </trkpt>
      <trkpt lat="46.58495" lon="5.45915">
        <ele>280</ele>
        <time>2021-08-26T14:03:37Z</time>
      </trkpt>
      <trkpt lat="46.58482" lon="5.45896">
        <ele>278.8</ele>
        <time>2021-08-26T14:03:39Z</time>
      </trkpt>
      <trkpt lat="46.58474" lon="5.45887">
        <ele>278.6</ele>
        <time>2021-08-26T14:03:40Z</time>
      </trkpt>
      <trkpt lat="46.58466" lon="5.45878">
        <ele>278.6</ele>
        <time>2021-08-26T14:03:41Z</time>
      </trkpt>
      <trkpt lat="46.58458" lon="5.4587">
        <ele>278.2</ele>
        <time>2021-08-26T14:03:42Z</time>
      </trkpt>
      <trkpt lat="46.58449" lon="5.45862">
        <ele>278</ele>
        <time>2021-08-26T14:03:43Z</time>
      </trkpt>
      <trkpt lat="46.5844" lon="5.45856">
        <ele>277.8</ele>
        <time>2021-08-26T14:03:44Z</time>
      </trkpt>
      <trkpt lat="46.58431" lon="5.45851">
        <ele>277.2</ele>
        <time>2021-08-26T14:03:45Z</time>
      </trkpt>
      <trkpt lat="46.58413" lon="5.45839">
        <ele>275.8</ele>
        <time>2021-08-26T14:03:47Z</time>
      </trkpt>
      <trkpt lat="46.58398" lon="5.45821">
        <ele>274.2</ele>
        <time>2021-08-26T14:03:49Z</time>
      </trkpt>
      <trkpt lat="46.58389" lon="5.45799">
        <ele>273.2</ele>
        <time>2021-08-26T14:03:51Z</time>
      </trkpt>
      <trkpt lat="46.5838" lon="5.45778">
        <ele>272.8</ele>
        <time>2021-08-26T14:03:53Z</time>
      </trkpt>
      <trkpt lat="46.58376" lon="5.45768">
        <ele>272.8</ele>
        <time>2021-08-26T14:03:54Z</time>
      </trkpt>
      <trkpt lat="46.58373" lon="5.45758">
        <ele>272.8</ele>
        <time>2021-08-26T14:03:55Z</time>
      </trkpt>
      <trkpt lat="46.58372" lon="5.45747">
        <ele>272.8</ele>
        <time>2021-08-26T14:03:56Z</time>
      </trkpt>
      <trkpt lat="46.5837" lon="5.45736">
        <ele>272.8</ele>
        <time>2021-08-26T14:03:57Z</time>
      </trkpt>
      <trkpt lat="46.58369" lon="5.45725">
        <ele>272.8</ele>
        <time>2021-08-26T14:03:58Z</time>
      </trkpt>
      <trkpt lat="46.58365" lon="5.45714">
        <ele>272.8</ele>
        <time>2021-08-26T14:03:59Z</time>
      </trkpt>
      <trkpt lat="46.58361" lon="5.45704">
        <ele>273</ele>
        <time>2021-08-26T14:04:00Z</time>
      </trkpt>
      <trkpt lat="46.58356" lon="5.45694">
        <ele>272.8</ele>
        <time>2021-08-26T14:04:01Z</time>
      </trkpt>
      <trkpt lat="46.58346" lon="5.45675">
        <ele>273.6</ele>
        <time>2021-08-26T14:04:03Z</time>
      </trkpt>
      <trkpt lat="46.58335" lon="5.45657">
        <ele>274.2</ele>
        <time>2021-08-26T14:04:05Z</time>
      </trkpt>
      <trkpt lat="46.58329" lon="5.45648">
        <ele>274.2</ele>
        <time>2021-08-26T14:04:06Z</time>
      </trkpt>
      <trkpt lat="46.58324" lon="5.45639">
        <ele>274.2</ele>
        <time>2021-08-26T14:04:07Z</time>
      </trkpt>
      <trkpt lat="46.58314" lon="5.4562">
        <ele>274.2</ele>
        <time>2021-08-26T14:04:09Z</time>
      </trkpt>
      <trkpt lat="46.58305" lon="5.45602">
        <ele>274.2</ele>
        <time>2021-08-26T14:04:11Z</time>
      </trkpt>
      <trkpt lat="46.58301" lon="5.45592">
        <ele>274.2</ele>
        <time>2021-08-26T14:04:12Z</time>
      </trkpt>
      <trkpt lat="46.58297" lon="5.45582">
        <ele>274.2</ele>
        <time>2021-08-26T14:04:13Z</time>
      </trkpt>
      <trkpt lat="46.58289" lon="5.45562">
        <ele>274.2</ele>
        <time>2021-08-26T14:04:15Z</time>
      </trkpt>
      <trkpt lat="46.58281" lon="5.45541">
        <ele>274.2</ele>
        <time>2021-08-26T14:04:17Z</time>
      </trkpt>
      <trkpt lat="46.58272" lon="5.45519">
        <ele>274</ele>
        <time>2021-08-26T14:04:19Z</time>
      </trkpt>
      <trkpt lat="46.58268" lon="5.45508">
        <ele>274</ele>
        <time>2021-08-26T14:04:20Z</time>
      </trkpt>
      <trkpt lat="46.58264" lon="5.45497">
        <ele>273.8</ele>
        <time>2021-08-26T14:04:21Z</time>
      </trkpt>
      <trkpt lat="46.58253" lon="5.45475">
        <ele>273.8</ele>
        <time>2021-08-26T14:04:23Z</time>
      </trkpt>
      <trkpt lat="46.58241" lon="5.45454">
        <ele>273.6</ele>
        <time>2021-08-26T14:04:25Z</time>
      </trkpt>
      <trkpt lat="46.58234" lon="5.45444">
        <ele>273.4</ele>
        <time>2021-08-26T14:04:26Z</time>
      </trkpt>
      <trkpt lat="46.58226" lon="5.45436">
        <ele>272.8</ele>
        <time>2021-08-26T14:04:27Z</time>
      </trkpt>
      <trkpt lat="46.5821" lon="5.4542">
        <ele>272</ele>
        <time>2021-08-26T14:04:29Z</time>
      </trkpt>
      <trkpt lat="46.58203" lon="5.45412">
        <ele>271.6</ele>
        <time>2021-08-26T14:04:30Z</time>
      </trkpt>
      <trkpt lat="46.58195" lon="5.45405">
        <ele>271.2</ele>
        <time>2021-08-26T14:04:31Z</time>
      </trkpt>
      <trkpt lat="46.58181" lon="5.45388">
        <ele>270</ele>
        <time>2021-08-26T14:04:33Z</time>
      </trkpt>
      <trkpt lat="46.58167" lon="5.45371">
        <ele>269.4</ele>
        <time>2021-08-26T14:04:35Z</time>
      </trkpt>
      <trkpt lat="46.58153" lon="5.45355">
        <ele>269</ele>
        <time>2021-08-26T14:04:37Z</time>
      </trkpt>
      <trkpt lat="46.58138" lon="5.45339">
        <ele>269</ele>
        <time>2021-08-26T14:04:39Z</time>
      </trkpt>
      <trkpt lat="46.58124" lon="5.45324">
        <ele>268.8</ele>
        <time>2021-08-26T14:04:41Z</time>
      </trkpt>
      <trkpt lat="46.58118" lon="5.45317">
        <ele>268.6</ele>
        <time>2021-08-26T14:04:42Z</time>
      </trkpt>
      <trkpt lat="46.58114" lon="5.4531">
        <ele>268.2</ele>
        <time>2021-08-26T14:04:43Z</time>
      </trkpt>
      <trkpt lat="46.58112" lon="5.45303">
        <ele>267.8</ele>
        <time>2021-08-26T14:04:44Z</time>
      </trkpt>
      <trkpt lat="46.58113" lon="5.45296">
        <ele>267.6</ele>
        <time>2021-08-26T14:04:45Z</time>
      </trkpt>
      <trkpt lat="46.5812" lon="5.45282">
        <ele>267</ele>
        <time>2021-08-26T14:04:47Z</time>
      </trkpt>
      <trkpt lat="46.58131" lon="5.45268">
        <ele>266.6</ele>
        <time>2021-08-26T14:04:49Z</time>
      </trkpt>
      <trkpt lat="46.58137" lon="5.4526">
        <ele>266.6</ele>
        <time>2021-08-26T14:04:50Z</time>
      </trkpt>
      <trkpt lat="46.58142" lon="5.45251">
        <ele>266.4</ele>
        <time>2021-08-26T14:04:51Z</time>
      </trkpt>
      <trkpt lat="46.58145" lon="5.45238">
        <ele>266.4</ele>
        <time>2021-08-26T14:04:53Z</time>
      </trkpt>
      <trkpt lat="46.5814" lon="5.4523">
        <ele>265.4</ele>
        <time>2021-08-26T14:04:55Z</time>
      </trkpt>
      <trkpt lat="46.58136" lon="5.45226">
        <ele>264.6</ele>
        <time>2021-08-26T14:04:56Z</time>
      </trkpt>
      <trkpt lat="46.5813" lon="5.45222">
        <ele>263.8</ele>
        <time>2021-08-26T14:04:57Z</time>
      </trkpt>
      <trkpt lat="46.58123" lon="5.45219">
        <ele>263.2</ele>
        <time>2021-08-26T14:04:58Z</time>
      </trkpt>
      <trkpt lat="46.58117" lon="5.45214">
        <ele>262.8</ele>
        <time>2021-08-26T14:04:59Z</time>
      </trkpt>
      <trkpt lat="46.58113" lon="5.45201">
        <ele>262</ele>
        <time>2021-08-26T14:05:01Z</time>
      </trkpt>
      <trkpt lat="46.58116" lon="5.45194">
        <ele>261.8</ele>
        <time>2021-08-26T14:05:02Z</time>
      </trkpt>
      <trkpt lat="46.58122" lon="5.4519">
        <ele>261.4</ele>
        <time>2021-08-26T14:05:03Z</time>
      </trkpt>
      <trkpt lat="46.58137" lon="5.45188">
        <ele>260.2</ele>
        <time>2021-08-26T14:05:05Z</time>
      </trkpt>
      <trkpt lat="46.58145" lon="5.45185">
        <ele>259.6</ele>
        <time>2021-08-26T14:05:06Z</time>
      </trkpt>
      <trkpt lat="46.58153" lon="5.45182">
        <ele>259.2</ele>
        <time>2021-08-26T14:05:07Z</time>
      </trkpt>
      <trkpt lat="46.58169" lon="5.45171">
        <ele>258</ele>
        <time>2021-08-26T14:05:09Z</time>
      </trkpt>
      <trkpt lat="46.58177" lon="5.45164">
        <ele>257.2</ele>
        <time>2021-08-26T14:05:10Z</time>
      </trkpt>
      <trkpt lat="46.58186" lon="5.45158">
        <ele>256.4</ele>
        <time>2021-08-26T14:05:11Z</time>
      </trkpt>
      <trkpt lat="46.58203" lon="5.45143">
        <ele>255.2</ele>
        <time>2021-08-26T14:05:13Z</time>
      </trkpt>
      <trkpt lat="46.5821" lon="5.45132">
        <ele>254.4</ele>
        <time>2021-08-26T14:05:14Z</time>
      </trkpt>
      <trkpt lat="46.58216" lon="5.45121">
        <ele>253.6</ele>
        <time>2021-08-26T14:05:15Z</time>
      </trkpt>
      <trkpt lat="46.58221" lon="5.451">
        <ele>252</ele>
        <time>2021-08-26T14:05:17Z</time>
      </trkpt>
      <trkpt lat="46.58218" lon="5.45082">
        <ele>250.4</ele>
        <time>2021-08-26T14:05:19Z</time>
      </trkpt>
      <trkpt lat="46.58206" lon="5.4507">
        <ele>248.8</ele>
        <time>2021-08-26T14:05:21Z</time>
      </trkpt>
      <trkpt lat="46.58199" lon="5.45067">
        <ele>248.2</ele>
        <time>2021-08-26T14:05:22Z</time>
      </trkpt>
      <trkpt lat="46.58192" lon="5.45063">
        <ele>248</ele>
        <time>2021-08-26T14:05:23Z</time>
      </trkpt>
      <trkpt lat="46.58184" lon="5.4506">
        <ele>247.8</ele>
        <time>2021-08-26T14:05:24Z</time>
      </trkpt>
      <trkpt lat="46.58176" lon="5.45056">
        <ele>247.6</ele>
        <time>2021-08-26T14:05:25Z</time>
      </trkpt>
      <trkpt lat="46.58169" lon="5.4505">
        <ele>247.4</ele>
        <time>2021-08-26T14:05:26Z</time>
      </trkpt>
      <trkpt lat="46.58163" lon="5.45043">
        <ele>247.4</ele>
        <time>2021-08-26T14:05:27Z</time>
      </trkpt>
      <trkpt lat="46.5815" lon="5.45028">
        <ele>247</ele>
        <time>2021-08-26T14:05:29Z</time>
      </trkpt>
      <trkpt lat="46.58139" lon="5.45011">
        <ele>246.6</ele>
        <time>2021-08-26T14:05:31Z</time>
      </trkpt>
      <trkpt lat="46.58132" lon="5.45003">
        <ele>246.4</ele>
        <time>2021-08-26T14:05:32Z</time>
      </trkpt>
      <trkpt lat="46.58126" lon="5.44996">
        <ele>246</ele>
        <time>2021-08-26T14:05:33Z</time>
      </trkpt>
      <trkpt lat="46.58112" lon="5.44984">
        <ele>245.8</ele>
        <time>2021-08-26T14:05:35Z</time>
      </trkpt>
      <trkpt lat="46.58105" lon="5.44978">
        <ele>245.6</ele>
        <time>2021-08-26T14:05:36Z</time>
      </trkpt>
      <trkpt lat="46.58099" lon="5.44972">
        <ele>245.4</ele>
        <time>2021-08-26T14:05:37Z</time>
      </trkpt>
      <trkpt lat="46.58087" lon="5.44957">
        <ele>244.8</ele>
        <time>2021-08-26T14:05:39Z</time>
      </trkpt>
      <trkpt lat="46.58083" lon="5.44948">
        <ele>244.6</ele>
        <time>2021-08-26T14:05:40Z</time>
      </trkpt>
      <trkpt lat="46.58079" lon="5.44939">
        <ele>244.6</ele>
        <time>2021-08-26T14:05:41Z</time>
      </trkpt>
      <trkpt lat="46.58074" lon="5.44929">
        <ele>244.6</ele>
        <time>2021-08-26T14:05:42Z</time>
      </trkpt>
      <trkpt lat="46.5807" lon="5.4492">
        <ele>244.6</ele>
        <time>2021-08-26T14:05:43Z</time>
      </trkpt>
      <trkpt lat="46.58061" lon="5.44902">
        <ele>244.4</ele>
        <time>2021-08-26T14:05:45Z</time>
      </trkpt>
      <trkpt lat="46.58052" lon="5.44884">
        <ele>244.4</ele>
        <time>2021-08-26T14:05:47Z</time>
      </trkpt>
      <trkpt lat="46.58043" lon="5.44865">
        <ele>244.4</ele>
        <time>2021-08-26T14:05:49Z</time>
      </trkpt>
      <trkpt lat="46.58034" lon="5.44846">
        <ele>244.4</ele>
        <time>2021-08-26T14:05:51Z</time>
      </trkpt>
      <trkpt lat="46.58025" lon="5.44828">
        <ele>244.4</ele>
        <time>2021-08-26T14:05:53Z</time>
      </trkpt>
      <trkpt lat="46.58016" lon="5.4481">
        <ele>244.4</ele>
        <time>2021-08-26T14:05:55Z</time>
      </trkpt>
      <trkpt lat="46.58006" lon="5.44793">
        <ele>244.4</ele>
        <time>2021-08-26T14:05:57Z</time>
      </trkpt>
      <trkpt lat="46.57996" lon="5.44777">
        <ele>244.4</ele>
        <time>2021-08-26T14:05:59Z</time>
      </trkpt>
      <trkpt lat="46.57985" lon="5.44762">
        <ele>244.2</ele>
        <time>2021-08-26T14:06:01Z</time>
      </trkpt>
      <trkpt lat="46.57974" lon="5.44747">
        <ele>244</ele>
        <time>2021-08-26T14:06:03Z</time>
      </trkpt>
      <trkpt lat="46.57963" lon="5.44732">
        <ele>244</ele>
        <time>2021-08-26T14:06:05Z</time>
      </trkpt>
      <trkpt lat="46.57953" lon="5.44715">
        <ele>244</ele>
        <time>2021-08-26T14:06:07Z</time>
      </trkpt>
      <trkpt lat="46.57943" lon="5.44698">
        <ele>244</ele>
        <time>2021-08-26T14:06:09Z</time>
      </trkpt>
      <trkpt lat="46.57938" lon="5.44689">
        <ele>243.8</ele>
        <time>2021-08-26T14:06:10Z</time>
      </trkpt>
      <trkpt lat="46.57932" lon="5.44679">
        <ele>243.8</ele>
        <time>2021-08-26T14:06:11Z</time>
      </trkpt>
      <trkpt lat="46.57922" lon="5.44661">
        <ele>243.8</ele>
        <time>2021-08-26T14:06:13Z</time>
      </trkpt>
      <trkpt lat="46.57912" lon="5.44642">
        <ele>243.8</ele>
        <time>2021-08-26T14:06:15Z</time>
      </trkpt>
      <trkpt lat="46.57907" lon="5.44633">
        <ele>243.4</ele>
        <time>2021-08-26T14:06:16Z</time>
      </trkpt>
      <trkpt lat="46.57901" lon="5.44623">
        <ele>243.2</ele>
        <time>2021-08-26T14:06:17Z</time>
      </trkpt>
      <trkpt lat="46.5789" lon="5.44604">
        <ele>242.6</ele>
        <time>2021-08-26T14:06:19Z</time>
      </trkpt>
      <trkpt lat="46.57879" lon="5.44586">
        <ele>242.4</ele>
        <time>2021-08-26T14:06:21Z</time>
      </trkpt>
      <trkpt lat="46.57866" lon="5.44568">
        <ele>242</ele>
        <time>2021-08-26T14:06:23Z</time>
      </trkpt>
      <trkpt lat="46.57854" lon="5.44553">
        <ele>241.6</ele>
        <time>2021-08-26T14:06:25Z</time>
      </trkpt>
      <trkpt lat="46.57841" lon="5.4454">
        <ele>241.4</ele>
        <time>2021-08-26T14:06:27Z</time>
      </trkpt>
      <trkpt lat="46.57827" lon="5.44529">
        <ele>241.4</ele>
        <time>2021-08-26T14:06:29Z</time>
      </trkpt>
      <trkpt lat="46.57815" lon="5.44517">
        <ele>241.2</ele>
        <time>2021-08-26T14:06:31Z</time>
      </trkpt>
      <trkpt lat="46.57803" lon="5.44506">
        <ele>241.2</ele>
        <time>2021-08-26T14:06:33Z</time>
      </trkpt>
      <trkpt lat="46.57792" lon="5.44495">
        <ele>241.6</ele>
        <time>2021-08-26T14:06:35Z</time>
      </trkpt>
      <trkpt lat="46.57782" lon="5.44484">
        <ele>241.8</ele>
        <time>2021-08-26T14:06:37Z</time>
      </trkpt>
      <trkpt lat="46.57777" lon="5.44478">
        <ele>242</ele>
        <time>2021-08-26T14:06:38Z</time>
      </trkpt>
      <trkpt lat="46.57773" lon="5.44472">
        <ele>242</ele>
        <time>2021-08-26T14:06:39Z</time>
      </trkpt>
      <trkpt lat="46.57764" lon="5.4446">
        <ele>243</ele>
        <time>2021-08-26T14:06:41Z</time>
      </trkpt>
      <trkpt lat="46.57755" lon="5.44448">
        <ele>243.6</ele>
        <time>2021-08-26T14:06:43Z</time>
      </trkpt>
      <trkpt lat="46.5775" lon="5.44441">
        <ele>244</ele>
        <time>2021-08-26T14:06:44Z</time>
      </trkpt>
      <trkpt lat="46.57745" lon="5.44435">
        <ele>244.2</ele>
        <time>2021-08-26T14:06:45Z</time>
      </trkpt>
      <trkpt lat="46.57741" lon="5.44429">
        <ele>244.4</ele>
        <time>2021-08-26T14:06:46Z</time>
      </trkpt>
      <trkpt lat="46.57737" lon="5.44422">
        <ele>244.6</ele>
        <time>2021-08-26T14:06:47Z</time>
      </trkpt>
      <trkpt lat="46.57728" lon="5.4441">
        <ele>245</ele>
        <time>2021-08-26T14:06:49Z</time>
      </trkpt>
      <trkpt lat="46.57719" lon="5.44397">
        <ele>245</ele>
        <time>2021-08-26T14:06:51Z</time>
      </trkpt>
      <trkpt lat="46.57711" lon="5.44385">
        <ele>245.2</ele>
        <time>2021-08-26T14:06:53Z</time>
      </trkpt>
      <trkpt lat="46.57703" lon="5.44373">
        <ele>245.4</ele>
        <time>2021-08-26T14:06:55Z</time>
      </trkpt>
      <trkpt lat="46.57699" lon="5.44366">
        <ele>245.6</ele>
        <time>2021-08-26T14:06:56Z</time>
      </trkpt>
      <trkpt lat="46.57695" lon="5.4436">
        <ele>245.8</ele>
        <time>2021-08-26T14:06:57Z</time>
      </trkpt>
      <trkpt lat="46.57687" lon="5.44347">
        <ele>246</ele>
        <time>2021-08-26T14:06:59Z</time>
      </trkpt>
      <trkpt lat="46.57683" lon="5.4434">
        <ele>246.2</ele>
        <time>2021-08-26T14:07:00Z</time>
      </trkpt>
      <trkpt lat="46.57679" lon="5.44334">
        <ele>246.2</ele>
        <time>2021-08-26T14:07:01Z</time>
      </trkpt>
      <trkpt lat="46.5767" lon="5.44322">
        <ele>246.6</ele>
        <time>2021-08-26T14:07:03Z</time>
      </trkpt>
      <trkpt lat="46.57661" lon="5.44311">
        <ele>247</ele>
        <time>2021-08-26T14:07:05Z</time>
      </trkpt>
      <trkpt lat="46.57656" lon="5.44306">
        <ele>247.2</ele>
        <time>2021-08-26T14:07:06Z</time>
      </trkpt>
      <trkpt lat="46.57651" lon="5.44301">
        <ele>247.4</ele>
        <time>2021-08-26T14:07:07Z</time>
      </trkpt>
      <trkpt lat="46.57647" lon="5.44296">
        <ele>247.4</ele>
        <time>2021-08-26T14:07:08Z</time>
      </trkpt>
      <trkpt lat="46.57643" lon="5.44291">
        <ele>247.6</ele>
        <time>2021-08-26T14:07:09Z</time>
      </trkpt>
      <trkpt lat="46.57639" lon="5.44285">
        <ele>247.8</ele>
        <time>2021-08-26T14:07:10Z</time>
      </trkpt>
      <trkpt lat="46.57636" lon="5.44279">
        <ele>248</ele>
        <time>2021-08-26T14:07:11Z</time>
      </trkpt>
      <trkpt lat="46.57632" lon="5.44273">
        <ele>248.2</ele>
        <time>2021-08-26T14:07:12Z</time>
      </trkpt>
      <trkpt lat="46.57628" lon="5.44268">
        <ele>248.6</ele>
        <time>2021-08-26T14:07:13Z</time>
      </trkpt>
      <trkpt lat="46.57619" lon="5.44259">
        <ele>248.8</ele>
        <time>2021-08-26T14:07:15Z</time>
      </trkpt>
      <trkpt lat="46.57615" lon="5.44254">
        <ele>249.2</ele>
        <time>2021-08-26T14:07:16Z</time>
      </trkpt>
      <trkpt lat="46.57611" lon="5.44249">
        <ele>249.4</ele>
        <time>2021-08-26T14:07:17Z</time>
      </trkpt>
      <trkpt lat="46.57607" lon="5.44245">
        <ele>249.6</ele>
        <time>2021-08-26T14:07:18Z</time>
      </trkpt>
      <trkpt lat="46.57603" lon="5.4424">
        <ele>250.2</ele>
        <time>2021-08-26T14:07:19Z</time>
      </trkpt>
      <trkpt lat="46.57595" lon="5.44231">
        <ele>250.8</ele>
        <time>2021-08-26T14:07:21Z</time>
      </trkpt>
      <trkpt lat="46.57587" lon="5.44222">
        <ele>251.2</ele>
        <time>2021-08-26T14:07:23Z</time>
      </trkpt>
      <trkpt lat="46.57579" lon="5.44212">
        <ele>251.6</ele>
        <time>2021-08-26T14:07:25Z</time>
      </trkpt>
      <trkpt lat="46.57572" lon="5.44203">
        <ele>252</ele>
        <time>2021-08-26T14:07:27Z</time>
      </trkpt>
      <trkpt lat="46.57564" lon="5.44194">
        <ele>252.6</ele>
        <time>2021-08-26T14:07:29Z</time>
      </trkpt>
      <trkpt lat="46.57557" lon="5.44186">
        <ele>253</ele>
        <time>2021-08-26T14:07:31Z</time>
      </trkpt>
      <trkpt lat="46.57553" lon="5.44182">
        <ele>253.2</ele>
        <time>2021-08-26T14:07:32Z</time>
      </trkpt>
      <trkpt lat="46.57549" lon="5.44179">
        <ele>253.4</ele>
        <time>2021-08-26T14:07:33Z</time>
      </trkpt>
      <trkpt lat="46.57541" lon="5.44174">
        <ele>253.8</ele>
        <time>2021-08-26T14:07:35Z</time>
      </trkpt>
      <trkpt lat="46.57537" lon="5.44173">
        <ele>254.2</ele>
        <time>2021-08-26T14:07:36Z</time>
      </trkpt>
      <trkpt lat="46.57534" lon="5.44172">
        <ele>254.4</ele>
        <time>2021-08-26T14:07:37Z</time>
      </trkpt>
      <trkpt lat="46.57527" lon="5.44171">
        <ele>254.8</ele>
        <time>2021-08-26T14:07:39Z</time>
      </trkpt>
      <trkpt lat="46.57523" lon="5.44172">
        <ele>255.2</ele>
        <time>2021-08-26T14:07:40Z</time>
      </trkpt>
      <trkpt lat="46.57519" lon="5.44173">
        <ele>255.8</ele>
        <time>2021-08-26T14:07:41Z</time>
      </trkpt>
      <trkpt lat="46.57511" lon="5.44177">
        <ele>256.6</ele>
        <time>2021-08-26T14:07:43Z</time>
      </trkpt>
      <trkpt lat="46.57503" lon="5.44181">
        <ele>257.4</ele>
        <time>2021-08-26T14:07:45Z</time>
      </trkpt>
      <trkpt lat="46.57499" lon="5.44182">
        <ele>257.8</ele>
        <time>2021-08-26T14:07:46Z</time>
      </trkpt>
      <trkpt lat="46.57494" lon="5.44183">
        <ele>258.6</ele>
        <time>2021-08-26T14:07:47Z</time>
      </trkpt>
      <trkpt lat="46.5749" lon="5.44183">
        <ele>259</ele>
        <time>2021-08-26T14:07:48Z</time>
      </trkpt>
      <trkpt lat="46.57485" lon="5.44183">
        <ele>259.2</ele>
        <time>2021-08-26T14:07:49Z</time>
      </trkpt>
      <trkpt lat="46.57475" lon="5.44182">
        <ele>259.8</ele>
        <time>2021-08-26T14:07:51Z</time>
      </trkpt>
      <trkpt lat="46.5747" lon="5.44181">
        <ele>260</ele>
        <time>2021-08-26T14:07:52Z</time>
      </trkpt>
      <trkpt lat="46.57465" lon="5.4418">
        <ele>260.2</ele>
        <time>2021-08-26T14:07:53Z</time>
      </trkpt>
      <trkpt lat="46.57455" lon="5.44178">
        <ele>260.6</ele>
        <time>2021-08-26T14:07:55Z</time>
      </trkpt>
      <trkpt lat="46.57445" lon="5.44176">
        <ele>260.8</ele>
        <time>2021-08-26T14:07:57Z</time>
      </trkpt>
      <trkpt lat="46.57435" lon="5.44173">
        <ele>261</ele>
        <time>2021-08-26T14:07:59Z</time>
      </trkpt>
      <trkpt lat="46.5743" lon="5.44173">
        <ele>261</ele>
        <time>2021-08-26T14:08:00Z</time>
      </trkpt>
      <trkpt lat="46.57425" lon="5.44172">
        <ele>261.2</ele>
        <time>2021-08-26T14:08:01Z</time>
      </trkpt>
      <trkpt lat="46.57416" lon="5.44169">
        <ele>261.6</ele>
        <time>2021-08-26T14:08:03Z</time>
      </trkpt>
      <trkpt lat="46.57412" lon="5.44168">
        <ele>261.6</ele>
        <time>2021-08-26T14:08:04Z</time>
      </trkpt>
      <trkpt lat="46.57408" lon="5.44165">
        <ele>261.8</ele>
        <time>2021-08-26T14:08:05Z</time>
      </trkpt>
      <trkpt lat="46.574" lon="5.4416">
        <ele>262</ele>
        <time>2021-08-26T14:08:07Z</time>
      </trkpt>
      <trkpt lat="46.57396" lon="5.44157">
        <ele>262.4</ele>
        <time>2021-08-26T14:08:08Z</time>
      </trkpt>
      <trkpt lat="46.57392" lon="5.44154">
        <ele>262.6</ele>
        <time>2021-08-26T14:08:09Z</time>
      </trkpt>
      <trkpt lat="46.57383" lon="5.44147">
        <ele>263.4</ele>
        <time>2021-08-26T14:08:11Z</time>
      </trkpt>
      <trkpt lat="46.57375" lon="5.4414">
        <ele>263.8</ele>
        <time>2021-08-26T14:08:13Z</time>
      </trkpt>
      <trkpt lat="46.57365" lon="5.44135">
        <ele>264.6</ele>
        <time>2021-08-26T14:08:15Z</time>
      </trkpt>
      <trkpt lat="46.57359" lon="5.44135">
        <ele>264.8</ele>
        <time>2021-08-26T14:08:16Z</time>
      </trkpt>
      <trkpt lat="46.57353" lon="5.44136">
        <ele>264.8</ele>
        <time>2021-08-26T14:08:17Z</time>
      </trkpt>
      <trkpt lat="46.57346" lon="5.44137">
        <ele>265</ele>
        <time>2021-08-26T14:08:18Z</time>
      </trkpt>
      <trkpt lat="46.57338" lon="5.4414">
        <ele>265</ele>
        <time>2021-08-26T14:08:19Z</time>
      </trkpt>
      <trkpt lat="46.57331" lon="5.44143">
        <ele>265</ele>
        <time>2021-08-26T14:08:20Z</time>
      </trkpt>
      <trkpt lat="46.57323" lon="5.44148">
        <ele>265</ele>
        <time>2021-08-26T14:08:21Z</time>
      </trkpt>
      <trkpt lat="46.5731" lon="5.44159">
        <ele>265</ele>
        <time>2021-08-26T14:08:23Z</time>
      </trkpt>
      <trkpt lat="46.57303" lon="5.44164">
        <ele>265</ele>
        <time>2021-08-26T14:08:24Z</time>
      </trkpt>
      <trkpt lat="46.57295" lon="5.44167">
        <ele>264.8</ele>
        <time>2021-08-26T14:08:25Z</time>
      </trkpt>
      <trkpt lat="46.57281" lon="5.44167">
        <ele>263.6</ele>
        <time>2021-08-26T14:08:27Z</time>
      </trkpt>
      <trkpt lat="46.57274" lon="5.44165">
        <ele>263.4</ele>
        <time>2021-08-26T14:08:28Z</time>
      </trkpt>
      <trkpt lat="46.57268" lon="5.44161">
        <ele>263.2</ele>
        <time>2021-08-26T14:08:29Z</time>
      </trkpt>
      <trkpt lat="46.57263" lon="5.44157">
        <ele>263.2</ele>
        <time>2021-08-26T14:08:30Z</time>
      </trkpt>
      <trkpt lat="46.57258" lon="5.44152">
        <ele>263.2</ele>
        <time>2021-08-26T14:08:31Z</time>
      </trkpt>
      <trkpt lat="46.57251" lon="5.4414">
        <ele>263</ele>
        <time>2021-08-26T14:08:33Z</time>
      </trkpt>
      <trkpt lat="46.57249" lon="5.44133">
        <ele>263</ele>
        <time>2021-08-26T14:08:34Z</time>
      </trkpt>
      <trkpt lat="46.5725" lon="5.44126">
        <ele>263</ele>
        <time>2021-08-26T14:08:35Z</time>
      </trkpt>
      <trkpt lat="46.57252" lon="5.44112">
        <ele>263.4</ele>
        <time>2021-08-26T14:08:37Z</time>
      </trkpt>
      <trkpt lat="46.57255" lon="5.44099">
        <ele>264.4</ele>
        <time>2021-08-26T14:08:39Z</time>
      </trkpt>
      <trkpt lat="46.57256" lon="5.44092">
        <ele>264.8</ele>
        <time>2021-08-26T14:08:40Z</time>
      </trkpt>
      <trkpt lat="46.57258" lon="5.44085">
        <ele>265.4</ele>
        <time>2021-08-26T14:08:41Z</time>
      </trkpt>
      <trkpt lat="46.5726" lon="5.44072">
        <ele>266.2</ele>
        <time>2021-08-26T14:08:43Z</time>
      </trkpt>
      <trkpt lat="46.57262" lon="5.44066">
        <ele>267.2</ele>
        <time>2021-08-26T14:08:44Z</time>
      </trkpt>
      <trkpt lat="46.57263" lon="5.44059">
        <ele>267.6</ele>
        <time>2021-08-26T14:08:45Z</time>
      </trkpt>
      <trkpt lat="46.57264" lon="5.44046">
        <ele>268.2</ele>
        <time>2021-08-26T14:08:47Z</time>
      </trkpt>
      <trkpt lat="46.57265" lon="5.44039">
        <ele>268.6</ele>
        <time>2021-08-26T14:08:48Z</time>
      </trkpt>
      <trkpt lat="46.57265" lon="5.44032">
        <ele>269</ele>
        <time>2021-08-26T14:08:49Z</time>
      </trkpt>
      <trkpt lat="46.57264" lon="5.44016">
        <ele>269.6</ele>
        <time>2021-08-26T14:08:51Z</time>
      </trkpt>
      <trkpt lat="46.57262" lon="5.44008">
        <ele>269.8</ele>
        <time>2021-08-26T14:08:52Z</time>
      </trkpt>
      <trkpt lat="46.5726" lon="5.43999">
        <ele>270</ele>
        <time>2021-08-26T14:08:53Z</time>
      </trkpt>
      <trkpt lat="46.57255" lon="5.43983">
        <ele>270</ele>
        <time>2021-08-26T14:08:55Z</time>
      </trkpt>
      <trkpt lat="46.57253" lon="5.43974">
        <ele>270</ele>
        <time>2021-08-26T14:08:56Z</time>
      </trkpt>
      <trkpt lat="46.57252" lon="5.43965">
        <ele>270</ele>
        <time>2021-08-26T14:08:57Z</time>
      </trkpt>
      <trkpt lat="46.57253" lon="5.43947">
        <ele>270</ele>
        <time>2021-08-26T14:08:59Z</time>
      </trkpt>
      <trkpt lat="46.57255" lon="5.43939">
        <ele>270.2</ele>
        <time>2021-08-26T14:09:00Z</time>
      </trkpt>
      <trkpt lat="46.57257" lon="5.4393">
        <ele>270.2</ele>
        <time>2021-08-26T14:09:01Z</time>
      </trkpt>
      <trkpt lat="46.57261" lon="5.43914">
        <ele>270.2</ele>
        <time>2021-08-26T14:09:03Z</time>
      </trkpt>
      <trkpt lat="46.57265" lon="5.43899">
        <ele>270.2</ele>
        <time>2021-08-26T14:09:05Z</time>
      </trkpt>
      <trkpt lat="46.57267" lon="5.43884">
        <ele>270.2</ele>
        <time>2021-08-26T14:09:07Z</time>
      </trkpt>
      <trkpt lat="46.57268" lon="5.43877">
        <ele>270.2</ele>
        <time>2021-08-26T14:09:08Z</time>
      </trkpt>
      <trkpt lat="46.57268" lon="5.43869">
        <ele>270.2</ele>
        <time>2021-08-26T14:09:09Z</time>
      </trkpt>
      <trkpt lat="46.57268" lon="5.43855">
        <ele>270.2</ele>
        <time>2021-08-26T14:09:11Z</time>
      </trkpt>
      <trkpt lat="46.57269" lon="5.43848">
        <ele>270.8</ele>
        <time>2021-08-26T14:09:12Z</time>
      </trkpt>
      <trkpt lat="46.57269" lon="5.43842">
        <ele>271</ele>
        <time>2021-08-26T14:09:13Z</time>
      </trkpt>
      <trkpt lat="46.57265" lon="5.4383">
        <ele>271.6</ele>
        <time>2021-08-26T14:09:15Z</time>
      </trkpt>
      <trkpt lat="46.57258" lon="5.4382">
        <ele>272</ele>
        <time>2021-08-26T14:09:17Z</time>
      </trkpt>
      <trkpt lat="46.57255" lon="5.43814">
        <ele>272.2</ele>
        <time>2021-08-26T14:09:18Z</time>
      </trkpt>
      <trkpt lat="46.57251" lon="5.43809">
        <ele>272.6</ele>
        <time>2021-08-26T14:09:19Z</time>
      </trkpt>
      <trkpt lat="46.57243" lon="5.43798">
        <ele>273.2</ele>
        <time>2021-08-26T14:09:21Z</time>
      </trkpt>
      <trkpt lat="46.57235" lon="5.43788">
        <ele>273.4</ele>
        <time>2021-08-26T14:09:23Z</time>
      </trkpt>
      <trkpt lat="46.57227" lon="5.4378">
        <ele>273.6</ele>
        <time>2021-08-26T14:09:25Z</time>
      </trkpt>
      <trkpt lat="46.57218" lon="5.43773">
        <ele>273.8</ele>
        <time>2021-08-26T14:09:27Z</time>
      </trkpt>
      <trkpt lat="46.5721" lon="5.43767">
        <ele>274.4</ele>
        <time>2021-08-26T14:09:29Z</time>
      </trkpt>
      <trkpt lat="46.57206" lon="5.43763">
        <ele>274.6</ele>
        <time>2021-08-26T14:09:30Z</time>
      </trkpt>
      <trkpt lat="46.57202" lon="5.4376">
        <ele>274.8</ele>
        <time>2021-08-26T14:09:31Z</time>
      </trkpt>
      <trkpt lat="46.57195" lon="5.43752">
        <ele>275</ele>
        <time>2021-08-26T14:09:33Z</time>
      </trkpt>
      <trkpt lat="46.57185" lon="5.43743">
        <ele>275</ele>
        <time>2021-08-26T14:09:35Z</time>
      </trkpt>
      <trkpt lat="46.57174" lon="5.43735">
        <ele>275</ele>
        <time>2021-08-26T14:09:37Z</time>
      </trkpt>
      <trkpt lat="46.57168" lon="5.4373">
        <ele>275</ele>
        <time>2021-08-26T14:09:38Z</time>
      </trkpt>
      <trkpt lat="46.57163" lon="5.43725">
        <ele>275</ele>
        <time>2021-08-26T14:09:39Z</time>
      </trkpt>
      <trkpt lat="46.57151" lon="5.43715">
        <ele>275</ele>
        <time>2021-08-26T14:09:41Z</time>
      </trkpt>
      <trkpt lat="46.57138" lon="5.43704">
        <ele>274.4</ele>
        <time>2021-08-26T14:09:43Z</time>
      </trkpt>
      <trkpt lat="46.57131" lon="5.43699">
        <ele>274</ele>
        <time>2021-08-26T14:09:44Z</time>
      </trkpt>
      <trkpt lat="46.57124" lon="5.43693">
        <ele>273.8</ele>
        <time>2021-08-26T14:09:45Z</time>
      </trkpt>
      <trkpt lat="46.57117" lon="5.43688">
        <ele>273.4</ele>
        <time>2021-08-26T14:09:46Z</time>
      </trkpt>
      <trkpt lat="46.57109" lon="5.43682">
        <ele>273.2</ele>
        <time>2021-08-26T14:09:47Z</time>
      </trkpt>
      <trkpt lat="46.57095" lon="5.43671">
        <ele>273</ele>
        <time>2021-08-26T14:09:49Z</time>
      </trkpt>
      <trkpt lat="46.57081" lon="5.4366">
        <ele>272.4</ele>
        <time>2021-08-26T14:09:51Z</time>
      </trkpt>
      <trkpt lat="46.57067" lon="5.43649">
        <ele>271.8</ele>
        <time>2021-08-26T14:09:53Z</time>
      </trkpt>
      <trkpt lat="46.57053" lon="5.43638">
        <ele>271.8</ele>
        <time>2021-08-26T14:09:55Z</time>
      </trkpt>
      <trkpt lat="46.5704" lon="5.43628">
        <ele>271.6</ele>
        <time>2021-08-26T14:09:57Z</time>
      </trkpt>
      <trkpt lat="46.57027" lon="5.43619">
        <ele>271.6</ele>
        <time>2021-08-26T14:09:59Z</time>
      </trkpt>
      <trkpt lat="46.57021" lon="5.43614">
        <ele>271.6</ele>
        <time>2021-08-26T14:10:00Z</time>
      </trkpt>
      <trkpt lat="46.57015" lon="5.4361">
        <ele>271.6</ele>
        <time>2021-08-26T14:10:01Z</time>
      </trkpt>
      <trkpt lat="46.57003" lon="5.43601">
        <ele>271.6</ele>
        <time>2021-08-26T14:10:03Z</time>
      </trkpt>
      <trkpt lat="46.56993" lon="5.4359">
        <ele>271.8</ele>
        <time>2021-08-26T14:10:05Z</time>
      </trkpt>
      <trkpt lat="46.56982" lon="5.43579">
        <ele>272.6</ele>
        <time>2021-08-26T14:10:07Z</time>
      </trkpt>
      <trkpt lat="46.56972" lon="5.43569">
        <ele>273.2</ele>
        <time>2021-08-26T14:10:09Z</time>
      </trkpt>
      <trkpt lat="46.56967" lon="5.43564">
        <ele>273.6</ele>
        <time>2021-08-26T14:10:10Z</time>
      </trkpt>
      <trkpt lat="46.56963" lon="5.43559">
        <ele>273.8</ele>
        <time>2021-08-26T14:10:11Z</time>
      </trkpt>
      <trkpt lat="46.56953" lon="5.4355">
        <ele>274.6</ele>
        <time>2021-08-26T14:10:13Z</time>
      </trkpt>
      <trkpt lat="46.56948" lon="5.43545">
        <ele>274.8</ele>
        <time>2021-08-26T14:10:14Z</time>
      </trkpt>
      <trkpt lat="46.56943" lon="5.4354">
        <ele>275</ele>
        <time>2021-08-26T14:10:15Z</time>
      </trkpt>
      <trkpt lat="46.56933" lon="5.4353">
        <ele>275.4</ele>
        <time>2021-08-26T14:10:17Z</time>
      </trkpt>
      <trkpt lat="46.56928" lon="5.43526">
        <ele>275.8</ele>
        <time>2021-08-26T14:10:18Z</time>
      </trkpt>
      <trkpt lat="46.56923" lon="5.43521">
        <ele>276.2</ele>
        <time>2021-08-26T14:10:19Z</time>
      </trkpt>
      <trkpt lat="46.56913" lon="5.43513">
        <ele>276.4</ele>
        <time>2021-08-26T14:10:21Z</time>
      </trkpt>
      <trkpt lat="46.56904" lon="5.43505">
        <ele>276.8</ele>
        <time>2021-08-26T14:10:23Z</time>
      </trkpt>
      <trkpt lat="46.56899" lon="5.435">
        <ele>277.2</ele>
        <time>2021-08-26T14:10:24Z</time>
      </trkpt>
      <trkpt lat="46.56895" lon="5.43496">
        <ele>277.6</ele>
        <time>2021-08-26T14:10:25Z</time>
      </trkpt>
      <trkpt lat="46.56886" lon="5.43486">
        <ele>278</ele>
        <time>2021-08-26T14:10:27Z</time>
      </trkpt>
      <trkpt lat="46.56877" lon="5.43477">
        <ele>278.4</ele>
        <time>2021-08-26T14:10:29Z</time>
      </trkpt>
      <trkpt lat="46.56868" lon="5.43465">
        <ele>279.2</ele>
        <time>2021-08-26T14:10:31Z</time>
      </trkpt>
      <trkpt lat="46.56864" lon="5.43459">
        <ele>279.6</ele>
        <time>2021-08-26T14:10:32Z</time>
      </trkpt>
      <trkpt lat="46.56859" lon="5.43453">
        <ele>279.6</ele>
        <time>2021-08-26T14:10:33Z</time>
      </trkpt>
      <trkpt lat="46.5685" lon="5.43439">
        <ele>280.2</ele>
        <time>2021-08-26T14:10:35Z</time>
      </trkpt>
      <trkpt lat="46.56842" lon="5.43423">
        <ele>280.4</ele>
        <time>2021-08-26T14:10:37Z</time>
      </trkpt>
      <trkpt lat="46.56834" lon="5.43406">
        <ele>280.4</ele>
        <time>2021-08-26T14:10:39Z</time>
      </trkpt>
      <trkpt lat="46.56826" lon="5.43388">
        <ele>280.4</ele>
        <time>2021-08-26T14:10:41Z</time>
      </trkpt>
      <trkpt lat="46.56817" lon="5.43369">
        <ele>280.2</ele>
        <time>2021-08-26T14:10:43Z</time>
      </trkpt>
      <trkpt lat="46.56807" lon="5.43349">
        <ele>279.8</ele>
        <time>2021-08-26T14:10:45Z</time>
      </trkpt>
      <trkpt lat="46.56795" lon="5.43332">
        <ele>279.4</ele>
        <time>2021-08-26T14:10:47Z</time>
      </trkpt>
      <trkpt lat="46.56788" lon="5.43324">
        <ele>279.4</ele>
        <time>2021-08-26T14:10:48Z</time>
      </trkpt>
      <trkpt lat="46.56781" lon="5.43317">
        <ele>279.2</ele>
        <time>2021-08-26T14:10:49Z</time>
      </trkpt>
      <trkpt lat="46.56768" lon="5.43302">
        <ele>278.4</ele>
        <time>2021-08-26T14:10:51Z</time>
      </trkpt>
      <trkpt lat="46.56755" lon="5.43286">
        <ele>277.2</ele>
        <time>2021-08-26T14:10:53Z</time>
      </trkpt>
      <trkpt lat="46.56743" lon="5.43271">
        <ele>276.4</ele>
        <time>2021-08-26T14:10:55Z</time>
      </trkpt>
      <trkpt lat="46.56738" lon="5.43262">
        <ele>276.2</ele>
        <time>2021-08-26T14:10:56Z</time>
      </trkpt>
      <trkpt lat="46.56732" lon="5.43254">
        <ele>276</ele>
        <time>2021-08-26T14:10:57Z</time>
      </trkpt>
      <trkpt lat="46.56723" lon="5.43236">
        <ele>276</ele>
        <time>2021-08-26T14:10:59Z</time>
      </trkpt>
      <trkpt lat="46.56714" lon="5.43218">
        <ele>276</ele>
        <time>2021-08-26T14:11:01Z</time>
      </trkpt>
      <trkpt lat="46.5671" lon="5.43208">
        <ele>276</ele>
        <time>2021-08-26T14:11:02Z</time>
      </trkpt>
      <trkpt lat="46.56706" lon="5.43198">
        <ele>276</ele>
        <time>2021-08-26T14:11:03Z</time>
      </trkpt>
      <trkpt lat="46.56697" lon="5.43179">
        <ele>276</ele>
        <time>2021-08-26T14:11:05Z</time>
      </trkpt>
      <trkpt lat="46.56689" lon="5.4316">
        <ele>276</ele>
        <time>2021-08-26T14:11:07Z</time>
      </trkpt>
      <trkpt lat="46.56682" lon="5.4314">
        <ele>276.2</ele>
        <time>2021-08-26T14:11:09Z</time>
      </trkpt>
      <trkpt lat="46.56674" lon="5.4312">
        <ele>276.2</ele>
        <time>2021-08-26T14:11:11Z</time>
      </trkpt>
      <trkpt lat="46.5667" lon="5.4311">
        <ele>276.2</ele>
        <time>2021-08-26T14:11:12Z</time>
      </trkpt>
      <trkpt lat="46.56666" lon="5.431">
        <ele>276.4</ele>
        <time>2021-08-26T14:11:13Z</time>
      </trkpt>
      <trkpt lat="46.56659" lon="5.4308">
        <ele>276.4</ele>
        <time>2021-08-26T14:11:15Z</time>
      </trkpt>
      <trkpt lat="46.5665" lon="5.4306">
        <ele>276.2</ele>
        <time>2021-08-26T14:11:17Z</time>
      </trkpt>
      <trkpt lat="46.56641" lon="5.4304">
        <ele>276</ele>
        <time>2021-08-26T14:11:19Z</time>
      </trkpt>
      <trkpt lat="46.56637" lon="5.4303">
        <ele>276</ele>
        <time>2021-08-26T14:11:20Z</time>
      </trkpt>
      <trkpt lat="46.56632" lon="5.4302">
        <ele>276</ele>
        <time>2021-08-26T14:11:21Z</time>
      </trkpt>
      <trkpt lat="46.5662" lon="5.43002">
        <ele>276</ele>
        <time>2021-08-26T14:11:23Z</time>
      </trkpt>
      <trkpt lat="46.56607" lon="5.42987">
        <ele>275.8</ele>
        <time>2021-08-26T14:11:25Z</time>
      </trkpt>
      <trkpt lat="46.56593" lon="5.42974">
        <ele>275.6</ele>
        <time>2021-08-26T14:11:27Z</time>
      </trkpt>
      <trkpt lat="46.56578" lon="5.4296">
        <ele>275.6</ele>
        <time>2021-08-26T14:11:29Z</time>
      </trkpt>
      <trkpt lat="46.56565" lon="5.42945">
        <ele>275.4</ele>
        <time>2021-08-26T14:11:31Z</time>
      </trkpt>
      <trkpt lat="46.56552" lon="5.42929">
        <ele>275.4</ele>
        <time>2021-08-26T14:11:33Z</time>
      </trkpt>
      <trkpt lat="46.56539" lon="5.42912">
        <ele>275.2</ele>
        <time>2021-08-26T14:11:35Z</time>
      </trkpt>
      <trkpt lat="46.56526" lon="5.42895">
        <ele>275.2</ele>
        <time>2021-08-26T14:11:37Z</time>
      </trkpt>
      <trkpt lat="46.5652" lon="5.42885">
        <ele>275.2</ele>
        <time>2021-08-26T14:11:38Z</time>
      </trkpt>
      <trkpt lat="46.56514" lon="5.42875">
        <ele>275.2</ele>
        <time>2021-08-26T14:11:39Z</time>
      </trkpt>
      <trkpt lat="46.56503" lon="5.42854">
        <ele>275</ele>
        <time>2021-08-26T14:11:41Z</time>
      </trkpt>
      <trkpt lat="46.56493" lon="5.42831">
        <ele>274.8</ele>
        <time>2021-08-26T14:11:43Z</time>
      </trkpt>
      <trkpt lat="46.56481" lon="5.42808">
        <ele>274.6</ele>
        <time>2021-08-26T14:11:45Z</time>
      </trkpt>
      <trkpt lat="46.56468" lon="5.42785">
        <ele>274.2</ele>
        <time>2021-08-26T14:11:47Z</time>
      </trkpt>
      <trkpt lat="46.56461" lon="5.42774">
        <ele>274</ele>
        <time>2021-08-26T14:11:48Z</time>
      </trkpt>
      <trkpt lat="46.56454" lon="5.42764">
        <ele>273.8</ele>
        <time>2021-08-26T14:11:49Z</time>
      </trkpt>
      <trkpt lat="46.56437" lon="5.42745">
        <ele>273.4</ele>
        <time>2021-08-26T14:11:51Z</time>
      </trkpt>
      <trkpt lat="46.56419" lon="5.42728">
        <ele>273.2</ele>
        <time>2021-08-26T14:11:53Z</time>
      </trkpt>
      <trkpt lat="46.56402" lon="5.42711">
        <ele>273</ele>
        <time>2021-08-26T14:11:55Z</time>
      </trkpt>
      <trkpt lat="46.56386" lon="5.42693">
        <ele>272</ele>
        <time>2021-08-26T14:11:57Z</time>
      </trkpt>
      <trkpt lat="46.56379" lon="5.42684">
        <ele>271.6</ele>
        <time>2021-08-26T14:11:58Z</time>
      </trkpt>
      <trkpt lat="46.56371" lon="5.42674">
        <ele>271</ele>
        <time>2021-08-26T14:11:59Z</time>
      </trkpt>
      <trkpt lat="46.56364" lon="5.42665">
        <ele>270.2</ele>
        <time>2021-08-26T14:12:00Z</time>
      </trkpt>
      <trkpt lat="46.56357" lon="5.42655">
        <ele>269.6</ele>
        <time>2021-08-26T14:12:01Z</time>
      </trkpt>
      <trkpt lat="46.56343" lon="5.42634">
        <ele>269</ele>
        <time>2021-08-26T14:12:03Z</time>
      </trkpt>
      <trkpt lat="46.56332" lon="5.42612">
        <ele>268.8</ele>
        <time>2021-08-26T14:12:05Z</time>
      </trkpt>
      <trkpt lat="46.56326" lon="5.42601">
        <ele>268.8</ele>
        <time>2021-08-26T14:12:06Z</time>
      </trkpt>
      <trkpt lat="46.56321" lon="5.42591">
        <ele>268.8</ele>
        <time>2021-08-26T14:12:07Z</time>
      </trkpt>
      <trkpt lat="46.56312" lon="5.42572">
        <ele>268.6</ele>
        <time>2021-08-26T14:12:09Z</time>
      </trkpt>
      <trkpt lat="46.56307" lon="5.42564">
        <ele>268.6</ele>
        <time>2021-08-26T14:12:10Z</time>
      </trkpt>
      <trkpt lat="46.56303" lon="5.42556">
        <ele>268.8</ele>
        <time>2021-08-26T14:12:11Z</time>
      </trkpt>
      <trkpt lat="46.56294" lon="5.42541">
        <ele>268.8</ele>
        <time>2021-08-26T14:12:13Z</time>
      </trkpt>
      <trkpt lat="46.56284" lon="5.4253">
        <ele>269</ele>
        <time>2021-08-26T14:12:15Z</time>
      </trkpt>
      <trkpt lat="46.56272" lon="5.42521">
        <ele>270.2</ele>
        <time>2021-08-26T14:12:17Z</time>
      </trkpt>
      <trkpt lat="46.56259" lon="5.42507">
        <ele>271.4</ele>
        <time>2021-08-26T14:12:19Z</time>
      </trkpt>
      <trkpt lat="46.56253" lon="5.425">
        <ele>271.8</ele>
        <time>2021-08-26T14:12:20Z</time>
      </trkpt>
      <trkpt lat="46.56249" lon="5.42492">
        <ele>272.2</ele>
        <time>2021-08-26T14:12:21Z</time>
      </trkpt>
      <trkpt lat="46.56245" lon="5.42482">
        <ele>272.6</ele>
        <time>2021-08-26T14:12:22Z</time>
      </trkpt>
      <trkpt lat="46.56241" lon="5.42473">
        <ele>272.8</ele>
        <time>2021-08-26T14:12:23Z</time>
      </trkpt>
      <trkpt lat="46.56236" lon="5.42454">
        <ele>273</ele>
        <time>2021-08-26T14:12:25Z</time>
      </trkpt>
      <trkpt lat="46.56233" lon="5.42436">
        <ele>273.2</ele>
        <time>2021-08-26T14:12:27Z</time>
      </trkpt>
      <trkpt lat="46.56232" lon="5.42417">
        <ele>273.4</ele>
        <time>2021-08-26T14:12:29Z</time>
      </trkpt>
      <trkpt lat="46.56232" lon="5.42408">
        <ele>273.4</ele>
        <time>2021-08-26T14:12:30Z</time>
      </trkpt>
      <trkpt lat="46.56231" lon="5.42398">
        <ele>273.6</ele>
        <time>2021-08-26T14:12:31Z</time>
      </trkpt>
      <trkpt lat="46.5623" lon="5.42388">
        <ele>273.8</ele>
        <time>2021-08-26T14:12:32Z</time>
      </trkpt>
      <trkpt lat="46.56227" lon="5.42379">
        <ele>274</ele>
        <time>2021-08-26T14:12:33Z</time>
      </trkpt>
      <trkpt lat="46.56222" lon="5.4237">
        <ele>274</ele>
        <time>2021-08-26T14:12:34Z</time>
      </trkpt>
      <trkpt lat="46.56217" lon="5.4236">
        <ele>274</ele>
        <time>2021-08-26T14:12:35Z</time>
      </trkpt>
      <trkpt lat="46.56207" lon="5.42341">
        <ele>274.2</ele>
        <time>2021-08-26T14:12:37Z</time>
      </trkpt>
      <trkpt lat="46.56196" lon="5.42323">
        <ele>274.2</ele>
        <time>2021-08-26T14:12:39Z</time>
      </trkpt>
      <trkpt lat="46.5619" lon="5.42315">
        <ele>274.2</ele>
        <time>2021-08-26T14:12:40Z</time>
      </trkpt>
      <trkpt lat="46.56184" lon="5.42308">
        <ele>274.2</ele>
        <time>2021-08-26T14:12:41Z</time>
      </trkpt>
      <trkpt lat="46.56171" lon="5.42296">
        <ele>274</ele>
        <time>2021-08-26T14:12:43Z</time>
      </trkpt>
      <trkpt lat="46.56164" lon="5.42291">
        <ele>274</ele>
        <time>2021-08-26T14:12:44Z</time>
      </trkpt>
      <trkpt lat="46.56157" lon="5.42287">
        <ele>274</ele>
        <time>2021-08-26T14:12:45Z</time>
      </trkpt>
      <trkpt lat="46.56151" lon="5.42284">
        <ele>274</ele>
        <time>2021-08-26T14:12:46Z</time>
      </trkpt>
      <trkpt lat="46.56144" lon="5.42282">
        <ele>274</ele>
        <time>2021-08-26T14:12:47Z</time>
      </trkpt>
      <trkpt lat="46.56132" lon="5.42278">
        <ele>274</ele>
        <time>2021-08-26T14:12:49Z</time>
      </trkpt>
      <trkpt lat="46.56121" lon="5.42274">
        <ele>274</ele>
        <time>2021-08-26T14:12:51Z</time>
      </trkpt>
      <trkpt lat="46.56111" lon="5.42272">
        <ele>274.2</ele>
        <time>2021-08-26T14:12:53Z</time>
      </trkpt>
      <trkpt lat="46.561" lon="5.4227">
        <ele>274.6</ele>
        <time>2021-08-26T14:12:55Z</time>
      </trkpt>
      <trkpt lat="46.56091" lon="5.42269">
        <ele>275.8</ele>
        <time>2021-08-26T14:12:57Z</time>
      </trkpt>
      <trkpt lat="46.56081" lon="5.42267">
        <ele>276.6</ele>
        <time>2021-08-26T14:12:59Z</time>
      </trkpt>
      <trkpt lat="46.56077" lon="5.42266">
        <ele>277.2</ele>
        <time>2021-08-26T14:13:00Z</time>
      </trkpt>
      <trkpt lat="46.56073" lon="5.42264">
        <ele>277.8</ele>
        <time>2021-08-26T14:13:01Z</time>
      </trkpt>
      <trkpt lat="46.56068" lon="5.42262">
        <ele>278.2</ele>
        <time>2021-08-26T14:13:02Z</time>
      </trkpt>
      <trkpt lat="46.56064" lon="5.42258">
        <ele>278.4</ele>
        <time>2021-08-26T14:13:03Z</time>
      </trkpt>
      <trkpt lat="46.56057" lon="5.42251">
        <ele>279.2</ele>
        <time>2021-08-26T14:13:05Z</time>
      </trkpt>
      <trkpt lat="46.56054" lon="5.42247">
        <ele>279.6</ele>
        <time>2021-08-26T14:13:06Z</time>
      </trkpt>
      <trkpt lat="46.56051" lon="5.42241">
        <ele>280</ele>
        <time>2021-08-26T14:13:07Z</time>
      </trkpt>
      <trkpt lat="46.56052" lon="5.42229">
        <ele>280.8</ele>
        <time>2021-08-26T14:13:09Z</time>
      </trkpt>
      <trkpt lat="46.56054" lon="5.42223">
        <ele>281.2</ele>
        <time>2021-08-26T14:13:10Z</time>
      </trkpt>
      <trkpt lat="46.56056" lon="5.42217">
        <ele>281.6</ele>
        <time>2021-08-26T14:13:11Z</time>
      </trkpt>
      <trkpt lat="46.56058" lon="5.4221">
        <ele>281.8</ele>
        <time>2021-08-26T14:13:12Z</time>
      </trkpt>
      <trkpt lat="46.5606" lon="5.42204">
        <ele>282.2</ele>
        <time>2021-08-26T14:13:13Z</time>
      </trkpt>
      <trkpt lat="46.56059" lon="5.42191">
        <ele>283</ele>
        <time>2021-08-26T14:13:15Z</time>
      </trkpt>
      <trkpt lat="46.56052" lon="5.42182">
        <ele>283.6</ele>
        <time>2021-08-26T14:13:17Z</time>
      </trkpt>
      <trkpt lat="46.56048" lon="5.42178">
        <ele>283.8</ele>
        <time>2021-08-26T14:13:18Z</time>
      </trkpt>
      <trkpt lat="46.56044" lon="5.42173">
        <ele>283.8</ele>
        <time>2021-08-26T14:13:19Z</time>
      </trkpt>
      <trkpt lat="46.56036" lon="5.42164">
        <ele>284</ele>
        <time>2021-08-26T14:13:21Z</time>
      </trkpt>
      <trkpt lat="46.56027" lon="5.42155">
        <ele>284.2</ele>
        <time>2021-08-26T14:13:23Z</time>
      </trkpt>
      <trkpt lat="46.5602" lon="5.42144">
        <ele>284.6</ele>
        <time>2021-08-26T14:13:25Z</time>
      </trkpt>
      <trkpt lat="46.56012" lon="5.42134">
        <ele>284.8</ele>
        <time>2021-08-26T14:13:27Z</time>
      </trkpt>
      <trkpt lat="46.56009" lon="5.42129">
        <ele>284.8</ele>
        <time>2021-08-26T14:13:28Z</time>
      </trkpt>
      <trkpt lat="46.56005" lon="5.42125">
        <ele>285</ele>
        <time>2021-08-26T14:13:29Z</time>
      </trkpt>
      <trkpt lat="46.56" lon="5.42123">
        <ele>285.2</ele>
        <time>2021-08-26T14:13:30Z</time>
      </trkpt>
      <trkpt lat="46.55996" lon="5.42121">
        <ele>285.4</ele>
        <time>2021-08-26T14:13:31Z</time>
      </trkpt>
      <trkpt lat="46.55986" lon="5.42119">
        <ele>285.6</ele>
        <time>2021-08-26T14:13:33Z</time>
      </trkpt>
      <trkpt lat="46.55977" lon="5.42118">
        <ele>285.8</ele>
        <time>2021-08-26T14:13:35Z</time>
      </trkpt>
      <trkpt lat="46.55967" lon="5.42116">
        <ele>286</ele>
        <time>2021-08-26T14:13:37Z</time>
      </trkpt>
      <trkpt lat="46.55962" lon="5.42114">
        <ele>286.2</ele>
        <time>2021-08-26T14:13:38Z</time>
      </trkpt>
      <trkpt lat="46.55957" lon="5.42112">
        <ele>286.4</ele>
        <time>2021-08-26T14:13:39Z</time>
      </trkpt>
      <trkpt lat="46.55946" lon="5.42107">
        <ele>286.8</ele>
        <time>2021-08-26T14:13:41Z</time>
      </trkpt>
      <trkpt lat="46.55941" lon="5.42104">
        <ele>286.8</ele>
        <time>2021-08-26T14:13:42Z</time>
      </trkpt>
      <trkpt lat="46.55937" lon="5.42098">
        <ele>286.8</ele>
        <time>2021-08-26T14:13:43Z</time>
      </trkpt>
      <trkpt lat="46.55928" lon="5.42084">
        <ele>287</ele>
        <time>2021-08-26T14:13:45Z</time>
      </trkpt>
      <trkpt lat="46.55917" lon="5.42069">
        <ele>287</ele>
        <time>2021-08-26T14:13:47Z</time>
      </trkpt>
      <trkpt lat="46.55911" lon="5.42061">
        <ele>287</ele>
        <time>2021-08-26T14:13:48Z</time>
      </trkpt>
      <trkpt lat="46.55904" lon="5.42053">
        <ele>287</ele>
        <time>2021-08-26T14:13:49Z</time>
      </trkpt>
      <trkpt lat="46.55889" lon="5.42041">
        <ele>287</ele>
        <time>2021-08-26T14:13:51Z</time>
      </trkpt>
      <trkpt lat="46.55881" lon="5.42036">
        <ele>286.4</ele>
        <time>2021-08-26T14:13:52Z</time>
      </trkpt>
      <trkpt lat="46.55873" lon="5.4203">
        <ele>286.2</ele>
        <time>2021-08-26T14:13:53Z</time>
      </trkpt>
      <trkpt lat="46.55857" lon="5.42017">
        <ele>285.2</ele>
        <time>2021-08-26T14:13:55Z</time>
      </trkpt>
      <trkpt lat="46.55839" lon="5.42001">
        <ele>284.2</ele>
        <time>2021-08-26T14:13:57Z</time>
      </trkpt>
      <trkpt lat="46.55821" lon="5.41984">
        <ele>283.2</ele>
        <time>2021-08-26T14:13:59Z</time>
      </trkpt>
      <trkpt lat="46.55812" lon="5.41974">
        <ele>283</ele>
        <time>2021-08-26T14:14:00Z</time>
      </trkpt>
      <trkpt lat="46.55803" lon="5.41963">
        <ele>282.6</ele>
        <time>2021-08-26T14:14:01Z</time>
      </trkpt>
      <trkpt lat="46.55796" lon="5.41951">
        <ele>282</ele>
        <time>2021-08-26T14:14:02Z</time>
      </trkpt>
      <trkpt lat="46.5579" lon="5.41937">
        <ele>281.4</ele>
        <time>2021-08-26T14:14:03Z</time>
      </trkpt>
      <trkpt lat="46.55787" lon="5.41922">
        <ele>280.6</ele>
        <time>2021-08-26T14:14:04Z</time>
      </trkpt>
      <trkpt lat="46.55785" lon="5.41906">
        <ele>279.6</ele>
        <time>2021-08-26T14:14:05Z</time>
      </trkpt>
      <trkpt lat="46.55783" lon="5.41872">
        <ele>277.8</ele>
        <time>2021-08-26T14:14:07Z</time>
      </trkpt>
      <trkpt lat="46.55783" lon="5.41855">
        <ele>276.8</ele>
        <time>2021-08-26T14:14:08Z</time>
      </trkpt>
      <trkpt lat="46.55784" lon="5.41838">
        <ele>275.6</ele>
        <time>2021-08-26T14:14:09Z</time>
      </trkpt>
      <trkpt lat="46.55785" lon="5.41803">
        <ele>273.6</ele>
        <time>2021-08-26T14:14:11Z</time>
      </trkpt>
      <trkpt lat="46.55787" lon="5.41786">
        <ele>272.6</ele>
        <time>2021-08-26T14:14:12Z</time>
      </trkpt>
      <trkpt lat="46.55789" lon="5.4177">
        <ele>271.8</ele>
        <time>2021-08-26T14:14:13Z</time>
      </trkpt>
      <trkpt lat="46.5579" lon="5.41754">
        <ele>270.8</ele>
        <time>2021-08-26T14:14:14Z</time>
      </trkpt>
      <trkpt lat="46.55791" lon="5.41739">
        <ele>269.8</ele>
        <time>2021-08-26T14:14:15Z</time>
      </trkpt>
      <trkpt lat="46.55792" lon="5.41724">
        <ele>269</ele>
        <time>2021-08-26T14:14:16Z</time>
      </trkpt>
      <trkpt lat="46.55794" lon="5.41711">
        <ele>268</ele>
        <time>2021-08-26T14:14:17Z</time>
      </trkpt>
      <trkpt lat="46.55798" lon="5.417">
        <ele>267.4</ele>
        <time>2021-08-26T14:14:18Z</time>
      </trkpt>
      <trkpt lat="46.55803" lon="5.41691">
        <ele>266.8</ele>
        <time>2021-08-26T14:14:19Z</time>
      </trkpt>
      <trkpt lat="46.55809" lon="5.41682">
        <ele>266.2</ele>
        <time>2021-08-26T14:14:20Z</time>
      </trkpt>
      <trkpt lat="46.55814" lon="5.41672">
        <ele>266.2</ele>
        <time>2021-08-26T14:14:21Z</time>
      </trkpt>
      <trkpt lat="46.55816" lon="5.41661">
        <ele>266.2</ele>
        <time>2021-08-26T14:14:22Z</time>
      </trkpt>
      <trkpt lat="46.55816" lon="5.4165">
        <ele>266.2</ele>
        <time>2021-08-26T14:14:23Z</time>
      </trkpt>
      <trkpt lat="46.55814" lon="5.4164">
        <ele>266.2</ele>
        <time>2021-08-26T14:14:24Z</time>
      </trkpt>
      <trkpt lat="46.55809" lon="5.41632">
        <ele>266.2</ele>
        <time>2021-08-26T14:14:25Z</time>
      </trkpt>
      <trkpt lat="46.55797" lon="5.4162">
        <ele>266.2</ele>
        <time>2021-08-26T14:14:27Z</time>
      </trkpt>
      <trkpt lat="46.55785" lon="5.41607">
        <ele>266.8</ele>
        <time>2021-08-26T14:14:29Z</time>
      </trkpt>
      <trkpt lat="46.5578" lon="5.416">
        <ele>267.4</ele>
        <time>2021-08-26T14:14:30Z</time>
      </trkpt>
      <trkpt lat="46.55774" lon="5.41594">
        <ele>268</ele>
        <time>2021-08-26T14:14:31Z</time>
      </trkpt>
      <trkpt lat="46.55769" lon="5.41587">
        <ele>268.6</ele>
        <time>2021-08-26T14:14:32Z</time>
      </trkpt>
      <trkpt lat="46.55764" lon="5.4158">
        <ele>269.2</ele>
        <time>2021-08-26T14:14:33Z</time>
      </trkpt>
      <trkpt lat="46.55759" lon="5.41573">
        <ele>269.8</ele>
        <time>2021-08-26T14:14:34Z</time>
      </trkpt>
      <trkpt lat="46.55754" lon="5.41566">
        <ele>270.2</ele>
        <time>2021-08-26T14:14:35Z</time>
      </trkpt>
      <trkpt lat="46.5575" lon="5.41558">
        <ele>270.6</ele>
        <time>2021-08-26T14:14:36Z</time>
      </trkpt>
      <trkpt lat="46.55746" lon="5.4155">
        <ele>271</ele>
        <time>2021-08-26T14:14:37Z</time>
      </trkpt>
      <trkpt lat="46.55739" lon="5.41531">
        <ele>271.8</ele>
        <time>2021-08-26T14:14:39Z</time>
      </trkpt>
      <trkpt lat="46.55735" lon="5.41522">
        <ele>272.4</ele>
        <time>2021-08-26T14:14:40Z</time>
      </trkpt>
      <trkpt lat="46.55731" lon="5.41513">
        <ele>272.8</ele>
        <time>2021-08-26T14:14:41Z</time>
      </trkpt>
      <trkpt lat="46.5572" lon="5.41498">
        <ele>273</ele>
        <time>2021-08-26T14:14:43Z</time>
      </trkpt>
      <trkpt lat="46.55713" lon="5.41492">
        <ele>273</ele>
        <time>2021-08-26T14:14:44Z</time>
      </trkpt>
      <trkpt lat="46.55707" lon="5.41485">
        <ele>273.2</ele>
        <time>2021-08-26T14:14:45Z</time>
      </trkpt>
      <trkpt lat="46.55695" lon="5.41473">
        <ele>273.2</ele>
        <time>2021-08-26T14:14:47Z</time>
      </trkpt>
      <trkpt lat="46.55682" lon="5.41461">
        <ele>273.4</ele>
        <time>2021-08-26T14:14:49Z</time>
      </trkpt>
      <trkpt lat="46.5567" lon="5.41447">
        <ele>273.4</ele>
        <time>2021-08-26T14:14:51Z</time>
      </trkpt>
      <trkpt lat="46.5566" lon="5.4143">
        <ele>273.4</ele>
        <time>2021-08-26T14:14:53Z</time>
      </trkpt>
      <trkpt lat="46.55658" lon="5.4142">
        <ele>273.4</ele>
        <time>2021-08-26T14:14:54Z</time>
      </trkpt>
      <trkpt lat="46.55657" lon="5.4141">
        <ele>273.4</ele>
        <time>2021-08-26T14:14:55Z</time>
      </trkpt>
      <trkpt lat="46.55658" lon="5.41389">
        <ele>273.4</ele>
        <time>2021-08-26T14:14:57Z</time>
      </trkpt>
      <trkpt lat="46.5566" lon="5.41369">
        <ele>273.2</ele>
        <time>2021-08-26T14:14:59Z</time>
      </trkpt>
      <trkpt lat="46.5566" lon="5.41349">
        <ele>273.2</ele>
        <time>2021-08-26T14:15:01Z</time>
      </trkpt>
      <trkpt lat="46.55659" lon="5.41339">
        <ele>273.2</ele>
        <time>2021-08-26T14:15:02Z</time>
      </trkpt>
      <trkpt lat="46.55659" lon="5.4133">
        <ele>273.2</ele>
        <time>2021-08-26T14:15:03Z</time>
      </trkpt>
      <trkpt lat="46.55658" lon="5.41311">
        <ele>273.2</ele>
        <time>2021-08-26T14:15:05Z</time>
      </trkpt>
      <trkpt lat="46.55657" lon="5.41301">
        <ele>273.2</ele>
        <time>2021-08-26T14:15:06Z</time>
      </trkpt>
      <trkpt lat="46.55654" lon="5.41293">
        <ele>273.2</ele>
        <time>2021-08-26T14:15:07Z</time>
      </trkpt>
      <trkpt lat="46.55644" lon="5.41279">
        <ele>273.2</ele>
        <time>2021-08-26T14:15:09Z</time>
      </trkpt>
      <trkpt lat="46.55639" lon="5.41274">
        <ele>273.2</ele>
        <time>2021-08-26T14:15:10Z</time>
      </trkpt>
      <trkpt lat="46.55633" lon="5.41268">
        <ele>273.2</ele>
        <time>2021-08-26T14:15:11Z</time>
      </trkpt>
      <trkpt lat="46.55623" lon="5.41257">
        <ele>273.4</ele>
        <time>2021-08-26T14:15:13Z</time>
      </trkpt>
      <trkpt lat="46.55617" lon="5.41252">
        <ele>273.4</ele>
        <time>2021-08-26T14:15:14Z</time>
      </trkpt>
      <trkpt lat="46.55612" lon="5.41246">
        <ele>273.4</ele>
        <time>2021-08-26T14:15:15Z</time>
      </trkpt>
      <trkpt lat="46.55601" lon="5.41235">
        <ele>273.6</ele>
        <time>2021-08-26T14:15:17Z</time>
      </trkpt>
      <trkpt lat="46.5559" lon="5.41225">
        <ele>273.8</ele>
        <time>2021-08-26T14:15:19Z</time>
      </trkpt>
      <trkpt lat="46.5558" lon="5.41214">
        <ele>274</ele>
        <time>2021-08-26T14:15:21Z</time>
      </trkpt>
      <trkpt lat="46.5557" lon="5.41203">
        <ele>274.2</ele>
        <time>2021-08-26T14:15:23Z</time>
      </trkpt>
      <trkpt lat="46.55561" lon="5.41192">
        <ele>274.4</ele>
        <time>2021-08-26T14:15:25Z</time>
      </trkpt>
      <trkpt lat="46.55557" lon="5.41186">
        <ele>274.6</ele>
        <time>2021-08-26T14:15:26Z</time>
      </trkpt>
      <trkpt lat="46.55555" lon="5.41179">
        <ele>274.6</ele>
        <time>2021-08-26T14:15:27Z</time>
      </trkpt>
      <trkpt lat="46.55559" lon="5.41164">
        <ele>274.6</ele>
        <time>2021-08-26T14:15:29Z</time>
      </trkpt>
      <trkpt lat="46.55563" lon="5.41156">
        <ele>274.6</ele>
        <time>2021-08-26T14:15:30Z</time>
      </trkpt>
      <trkpt lat="46.55568" lon="5.41148">
        <ele>274.6</ele>
        <time>2021-08-26T14:15:31Z</time>
      </trkpt>
      <trkpt lat="46.55578" lon="5.4113">
        <ele>274.6</ele>
        <time>2021-08-26T14:15:33Z</time>
      </trkpt>
      <trkpt lat="46.55587" lon="5.41108">
        <ele>274.6</ele>
        <time>2021-08-26T14:15:35Z</time>
      </trkpt>
      <trkpt lat="46.55595" lon="5.41084">
        <ele>274.4</ele>
        <time>2021-08-26T14:15:37Z</time>
      </trkpt>
      <trkpt lat="46.55604" lon="5.41059">
        <ele>273.2</ele>
        <time>2021-08-26T14:15:39Z</time>
      </trkpt>
      <trkpt lat="46.55608" lon="5.41049">
        <ele>272.6</ele>
        <time>2021-08-26T14:15:40Z</time>
      </trkpt>
      <trkpt lat="46.55613" lon="5.4104">
        <ele>271.2</ele>
        <time>2021-08-26T14:15:41Z</time>
      </trkpt>
      <trkpt lat="46.55627" lon="5.41026">
        <ele>269.6</ele>
        <time>2021-08-26T14:15:43Z</time>
      </trkpt>
      <trkpt lat="46.55635" lon="5.4102">
        <ele>268</ele>
        <time>2021-08-26T14:15:44Z</time>
      </trkpt>
      <trkpt lat="46.55643" lon="5.41013">
        <ele>267</ele>
        <time>2021-08-26T14:15:45Z</time>
      </trkpt>
      <trkpt lat="46.55651" lon="5.41005">
        <ele>266.2</ele>
        <time>2021-08-26T14:15:46Z</time>
      </trkpt>
      <trkpt lat="46.55659" lon="5.40996">
        <ele>265.6</ele>
        <time>2021-08-26T14:15:47Z</time>
      </trkpt>
      <trkpt lat="46.55667" lon="5.40988">
        <ele>265.2</ele>
        <time>2021-08-26T14:15:48Z</time>
      </trkpt>
      <trkpt lat="46.55675" lon="5.40981">
        <ele>264.4</ele>
        <time>2021-08-26T14:15:49Z</time>
      </trkpt>
      <trkpt lat="46.55694" lon="5.40976">
        <ele>263.4</ele>
        <time>2021-08-26T14:15:51Z</time>
      </trkpt>
      <trkpt lat="46.55712" lon="5.40975">
        <ele>261.6</ele>
        <time>2021-08-26T14:15:53Z</time>
      </trkpt>
      <trkpt lat="46.55721" lon="5.40973">
        <ele>260.4</ele>
        <time>2021-08-26T14:15:54Z</time>
      </trkpt>
      <trkpt lat="46.5573" lon="5.40968">
        <ele>259.2</ele>
        <time>2021-08-26T14:15:55Z</time>
      </trkpt>
      <trkpt lat="46.55745" lon="5.40954">
        <ele>258</ele>
        <time>2021-08-26T14:15:57Z</time>
      </trkpt>
      <trkpt lat="46.55752" lon="5.40945">
        <ele>257.6</ele>
        <time>2021-08-26T14:15:58Z</time>
      </trkpt>
      <trkpt lat="46.55758" lon="5.40936">
        <ele>257.2</ele>
        <time>2021-08-26T14:15:59Z</time>
      </trkpt>
      <trkpt lat="46.55764" lon="5.40925">
        <ele>256.8</ele>
        <time>2021-08-26T14:16:00Z</time>
      </trkpt>
      <trkpt lat="46.55769" lon="5.40914">
        <ele>256.4</ele>
        <time>2021-08-26T14:16:01Z</time>
      </trkpt>
      <trkpt lat="46.55774" lon="5.40902">
        <ele>256.2</ele>
        <time>2021-08-26T14:16:02Z</time>
      </trkpt>
      <trkpt lat="46.55779" lon="5.40889">
        <ele>255.8</ele>
        <time>2021-08-26T14:16:03Z</time>
      </trkpt>
      <trkpt lat="46.55789" lon="5.40862">
        <ele>254.2</ele>
        <time>2021-08-26T14:16:05Z</time>
      </trkpt>
      <trkpt lat="46.55797" lon="5.40833">
        <ele>254</ele>
        <time>2021-08-26T14:16:07Z</time>
      </trkpt>
      <trkpt lat="46.55806" lon="5.40808">
        <ele>253.4</ele>
        <time>2021-08-26T14:16:09Z</time>
      </trkpt>
      <trkpt lat="46.55811" lon="5.40798">
        <ele>252.8</ele>
        <time>2021-08-26T14:16:10Z</time>
      </trkpt>
      <trkpt lat="46.55817" lon="5.40791">
        <ele>251.2</ele>
        <time>2021-08-26T14:16:11Z</time>
      </trkpt>
      <trkpt lat="46.55832" lon="5.40784">
        <ele>250.2</ele>
        <time>2021-08-26T14:16:13Z</time>
      </trkpt>
      <trkpt lat="46.55848" lon="5.40782">
        <ele>249.6</ele>
        <time>2021-08-26T14:16:15Z</time>
      </trkpt>
      <trkpt lat="46.55864" lon="5.40781">
        <ele>249.2</ele>
        <time>2021-08-26T14:16:17Z</time>
      </trkpt>
      <trkpt lat="46.55873" lon="5.40781">
        <ele>249</ele>
        <time>2021-08-26T14:16:18Z</time>
      </trkpt>
      <trkpt lat="46.55881" lon="5.40781">
        <ele>248.8</ele>
        <time>2021-08-26T14:16:19Z</time>
      </trkpt>
      <trkpt lat="46.55899" lon="5.40781">
        <ele>248.6</ele>
        <time>2021-08-26T14:16:21Z</time>
      </trkpt>
      <trkpt lat="46.55916" lon="5.40782">
        <ele>248.6</ele>
        <time>2021-08-26T14:16:23Z</time>
      </trkpt>
      <trkpt lat="46.55934" lon="5.40781">
        <ele>248.6</ele>
        <time>2021-08-26T14:16:25Z</time>
      </trkpt>
      <trkpt lat="46.5595" lon="5.40776">
        <ele>248.4</ele>
        <time>2021-08-26T14:16:27Z</time>
      </trkpt>
      <trkpt lat="46.55958" lon="5.40773">
        <ele>248</ele>
        <time>2021-08-26T14:16:28Z</time>
      </trkpt>
      <trkpt lat="46.55966" lon="5.40769">
        <ele>247.6</ele>
        <time>2021-08-26T14:16:29Z</time>
      </trkpt>
      <trkpt lat="46.55974" lon="5.40766">
        <ele>247.4</ele>
        <time>2021-08-26T14:16:30Z</time>
      </trkpt>
      <trkpt lat="46.55982" lon="5.40763">
        <ele>247.2</ele>
        <time>2021-08-26T14:16:31Z</time>
      </trkpt>
      <trkpt lat="46.55997" lon="5.40761">
        <ele>247</ele>
        <time>2021-08-26T14:16:33Z</time>
      </trkpt>
      <trkpt lat="46.56005" lon="5.40759">
        <ele>246.6</ele>
        <time>2021-08-26T14:16:34Z</time>
      </trkpt>
      <trkpt lat="46.56012" lon="5.40753">
        <ele>246.2</ele>
        <time>2021-08-26T14:16:35Z</time>
      </trkpt>
      <trkpt lat="46.56023" lon="5.40737">
        <ele>246</ele>
        <time>2021-08-26T14:16:37Z</time>
      </trkpt>
      <trkpt lat="46.56032" lon="5.40716">
        <ele>245.8</ele>
        <time>2021-08-26T14:16:39Z</time>
      </trkpt>
      <trkpt lat="46.5604" lon="5.40694">
        <ele>245.6</ele>
        <time>2021-08-26T14:16:41Z</time>
      </trkpt>
      <trkpt lat="46.56045" lon="5.40682">
        <ele>245.6</ele>
        <time>2021-08-26T14:16:42Z</time>
      </trkpt>
      <trkpt lat="46.56049" lon="5.4067">
        <ele>245.2</ele>
        <time>2021-08-26T14:16:43Z</time>
      </trkpt>
      <trkpt lat="46.56057" lon="5.40645">
        <ele>244.2</ele>
        <time>2021-08-26T14:16:45Z</time>
      </trkpt>
      <trkpt lat="46.56065" lon="5.4062">
        <ele>243.4</ele>
        <time>2021-08-26T14:16:47Z</time>
      </trkpt>
      <trkpt lat="46.56073" lon="5.40595">
        <ele>243</ele>
        <time>2021-08-26T14:16:49Z</time>
      </trkpt>
      <trkpt lat="46.56078" lon="5.40583">
        <ele>243</ele>
        <time>2021-08-26T14:16:50Z</time>
      </trkpt>
      <trkpt lat="46.56082" lon="5.40571">
        <ele>242.6</ele>
        <time>2021-08-26T14:16:51Z</time>
      </trkpt>
      <trkpt lat="46.56089" lon="5.40546">
        <ele>241.8</ele>
        <time>2021-08-26T14:16:53Z</time>
      </trkpt>
      <trkpt lat="46.56096" lon="5.40522">
        <ele>240.6</ele>
        <time>2021-08-26T14:16:55Z</time>
      </trkpt>
      <trkpt lat="46.56103" lon="5.40498">
        <ele>239.8</ele>
        <time>2021-08-26T14:16:57Z</time>
      </trkpt>
      <trkpt lat="46.56106" lon="5.40486">
        <ele>239.6</ele>
        <time>2021-08-26T14:16:58Z</time>
      </trkpt>
      <trkpt lat="46.56109" lon="5.40475">
        <ele>239.6</ele>
        <time>2021-08-26T14:16:59Z</time>
      </trkpt>
      <trkpt lat="46.56117" lon="5.40454">
        <ele>239.4</ele>
        <time>2021-08-26T14:17:01Z</time>
      </trkpt>
      <trkpt lat="46.56125" lon="5.40434">
        <ele>239.4</ele>
        <time>2021-08-26T14:17:03Z</time>
      </trkpt>
      <trkpt lat="46.56133" lon="5.40414">
        <ele>239.4</ele>
        <time>2021-08-26T14:17:05Z</time>
      </trkpt>
      <trkpt lat="46.5614" lon="5.40393">
        <ele>239.2</ele>
        <time>2021-08-26T14:17:07Z</time>
      </trkpt>
      <trkpt lat="46.56142" lon="5.40371">
        <ele>239.2</ele>
        <time>2021-08-26T14:17:09Z</time>
      </trkpt>
      <trkpt lat="46.56136" lon="5.40348">
        <ele>239.2</ele>
        <time>2021-08-26T14:17:11Z</time>
      </trkpt>
      <trkpt lat="46.56131" lon="5.40339">
        <ele>239</ele>
        <time>2021-08-26T14:17:12Z</time>
      </trkpt>
      <trkpt lat="46.56123" lon="5.40331">
        <ele>239</ele>
        <time>2021-08-26T14:17:13Z</time>
      </trkpt>
      <trkpt lat="46.56115" lon="5.40326">
        <ele>238.8</ele>
        <time>2021-08-26T14:17:14Z</time>
      </trkpt>
      <trkpt lat="46.56106" lon="5.40324">
        <ele>238.6</ele>
        <time>2021-08-26T14:17:15Z</time>
      </trkpt>
      <trkpt lat="46.56097" lon="5.40323">
        <ele>238.2</ele>
        <time>2021-08-26T14:17:16Z</time>
      </trkpt>
      <trkpt lat="46.56087" lon="5.40322">
        <ele>237.8</ele>
        <time>2021-08-26T14:17:17Z</time>
      </trkpt>
      <trkpt lat="46.56078" lon="5.40321">
        <ele>237.8</ele>
        <time>2021-08-26T14:17:18Z</time>
      </trkpt>
      <trkpt lat="46.56069" lon="5.40318">
        <ele>237.6</ele>
        <time>2021-08-26T14:17:19Z</time>
      </trkpt>
      <trkpt lat="46.56061" lon="5.40314">
        <ele>237.4</ele>
        <time>2021-08-26T14:17:20Z</time>
      </trkpt>
      <trkpt lat="46.56053" lon="5.40308">
        <ele>237.2</ele>
        <time>2021-08-26T14:17:21Z</time>
      </trkpt>
      <trkpt lat="46.56045" lon="5.40302">
        <ele>237</ele>
        <time>2021-08-26T14:17:22Z</time>
      </trkpt>
      <trkpt lat="46.56037" lon="5.40295">
        <ele>237</ele>
        <time>2021-08-26T14:17:23Z</time>
      </trkpt>
      <trkpt lat="46.5602" lon="5.40282">
        <ele>236.8</ele>
        <time>2021-08-26T14:17:25Z</time>
      </trkpt>
      <trkpt lat="46.56003" lon="5.40268">
        <ele>236.6</ele>
        <time>2021-08-26T14:17:27Z</time>
      </trkpt>
      <trkpt lat="46.55984" lon="5.40254">
        <ele>236.4</ele>
        <time>2021-08-26T14:17:29Z</time>
      </trkpt>
      <trkpt lat="46.55974" lon="5.40246">
        <ele>236.4</ele>
        <time>2021-08-26T14:17:30Z</time>
      </trkpt>
      <trkpt lat="46.55965" lon="5.40238">
        <ele>236.2</ele>
        <time>2021-08-26T14:17:31Z</time>
      </trkpt>
      <trkpt lat="46.55945" lon="5.40222">
        <ele>236</ele>
        <time>2021-08-26T14:17:33Z</time>
      </trkpt>
      <trkpt lat="46.55924" lon="5.40206">
        <ele>234.4</ele>
        <time>2021-08-26T14:17:35Z</time>
      </trkpt>
      <trkpt lat="46.55914" lon="5.402">
        <ele>233.8</ele>
        <time>2021-08-26T14:17:36Z</time>
      </trkpt>
      <trkpt lat="46.55904" lon="5.40193">
        <ele>232.8</ele>
        <time>2021-08-26T14:17:37Z</time>
      </trkpt>
      <trkpt lat="46.55884" lon="5.40181">
        <ele>231.6</ele>
        <time>2021-08-26T14:17:39Z</time>
      </trkpt>
      <trkpt lat="46.55865" lon="5.40169">
        <ele>230</ele>
        <time>2021-08-26T14:17:41Z</time>
      </trkpt>
      <trkpt lat="46.55856" lon="5.40163">
        <ele>229.4</ele>
        <time>2021-08-26T14:17:42Z</time>
      </trkpt>
      <trkpt lat="46.55847" lon="5.40157">
        <ele>229</ele>
        <time>2021-08-26T14:17:43Z</time>
      </trkpt>
      <trkpt lat="46.55839" lon="5.4015">
        <ele>229</ele>
        <time>2021-08-26T14:17:44Z</time>
      </trkpt>
      <trkpt lat="46.55831" lon="5.40144">
        <ele>228.8</ele>
        <time>2021-08-26T14:17:45Z</time>
      </trkpt>
      <trkpt lat="46.55814" lon="5.40132">
        <ele>228.8</ele>
        <time>2021-08-26T14:17:47Z</time>
      </trkpt>
      <trkpt lat="46.55797" lon="5.40123">
        <ele>228.8</ele>
        <time>2021-08-26T14:17:49Z</time>
      </trkpt>
      <trkpt lat="46.55781" lon="5.40117">
        <ele>228.8</ele>
        <time>2021-08-26T14:17:51Z</time>
      </trkpt>
      <trkpt lat="46.55773" lon="5.40114">
        <ele>228.8</ele>
        <time>2021-08-26T14:17:52Z</time>
      </trkpt>
      <trkpt lat="46.55766" lon="5.40112">
        <ele>229.2</ele>
        <time>2021-08-26T14:17:53Z</time>
      </trkpt>
      <trkpt lat="46.5576" lon="5.40108">
        <ele>229.6</ele>
        <time>2021-08-26T14:17:54Z</time>
      </trkpt>
      <trkpt lat="46.55755" lon="5.40102">
        <ele>230</ele>
        <time>2021-08-26T14:17:55Z</time>
      </trkpt>
      <trkpt lat="46.55751" lon="5.40084">
        <ele>230.4</ele>
        <time>2021-08-26T14:17:57Z</time>
      </trkpt>
      <trkpt lat="46.55753" lon="5.40073">
        <ele>231</ele>
        <time>2021-08-26T14:17:58Z</time>
      </trkpt>
      <trkpt lat="46.55755" lon="5.40063">
        <ele>231.6</ele>
        <time>2021-08-26T14:17:59Z</time>
      </trkpt>
      <trkpt lat="46.55759" lon="5.40052">
        <ele>232.2</ele>
        <time>2021-08-26T14:18:00Z</time>
      </trkpt>
      <trkpt lat="46.55762" lon="5.4004">
        <ele>232.4</ele>
        <time>2021-08-26T14:18:01Z</time>
      </trkpt>
      <trkpt lat="46.5577" lon="5.40018">
        <ele>232.4</ele>
        <time>2021-08-26T14:18:03Z</time>
      </trkpt>
      <trkpt lat="46.55778" lon="5.39996">
        <ele>232.6</ele>
        <time>2021-08-26T14:18:05Z</time>
      </trkpt>
      <trkpt lat="46.55785" lon="5.39974">
        <ele>232.6</ele>
        <time>2021-08-26T14:18:07Z</time>
      </trkpt>
      <trkpt lat="46.55793" lon="5.39954">
        <ele>232.6</ele>
        <time>2021-08-26T14:18:09Z</time>
      </trkpt>
      <trkpt lat="46.558" lon="5.39937">
        <ele>232.6</ele>
        <time>2021-08-26T14:18:11Z</time>
      </trkpt>
      <trkpt lat="46.55803" lon="5.39929">
        <ele>232.6</ele>
        <time>2021-08-26T14:18:12Z</time>
      </trkpt>
      <trkpt lat="46.55806" lon="5.39921">
        <ele>232.6</ele>
        <time>2021-08-26T14:18:13Z</time>
      </trkpt>
      <trkpt lat="46.55813" lon="5.39904">
        <ele>232.6</ele>
        <time>2021-08-26T14:18:15Z</time>
      </trkpt>
      <trkpt lat="46.55819" lon="5.39884">
        <ele>232.6</ele>
        <time>2021-08-26T14:18:17Z</time>
      </trkpt>
      <trkpt lat="46.55825" lon="5.39864">
        <ele>232.6</ele>
        <time>2021-08-26T14:18:19Z</time>
      </trkpt>
      <trkpt lat="46.55831" lon="5.39844">
        <ele>232.8</ele>
        <time>2021-08-26T14:18:21Z</time>
      </trkpt>
      <trkpt lat="46.55835" lon="5.39824">
        <ele>233</ele>
        <time>2021-08-26T14:18:23Z</time>
      </trkpt>
      <trkpt lat="46.5584" lon="5.39804">
        <ele>233</ele>
        <time>2021-08-26T14:18:25Z</time>
      </trkpt>
      <trkpt lat="46.55846" lon="5.39785">
        <ele>233.2</ele>
        <time>2021-08-26T14:18:27Z</time>
      </trkpt>
      <trkpt lat="46.55851" lon="5.39766">
        <ele>233.2</ele>
        <time>2021-08-26T14:18:29Z</time>
      </trkpt>
      <trkpt lat="46.55857" lon="5.39746">
        <ele>233</ele>
        <time>2021-08-26T14:18:31Z</time>
      </trkpt>
      <trkpt lat="46.55863" lon="5.39725">
        <ele>233</ele>
        <time>2021-08-26T14:18:33Z</time>
      </trkpt>
      <trkpt lat="46.55869" lon="5.39704">
        <ele>232.8</ele>
        <time>2021-08-26T14:18:35Z</time>
      </trkpt>
      <trkpt lat="46.55874" lon="5.39682">
        <ele>232.8</ele>
        <time>2021-08-26T14:18:37Z</time>
      </trkpt>
      <trkpt lat="46.5588" lon="5.39661">
        <ele>232.4</ele>
        <time>2021-08-26T14:18:39Z</time>
      </trkpt>
      <trkpt lat="46.55885" lon="5.39638">
        <ele>231.4</ele>
        <time>2021-08-26T14:18:41Z</time>
      </trkpt>
      <trkpt lat="46.55887" lon="5.39627">
        <ele>231.2</ele>
        <time>2021-08-26T14:18:42Z</time>
      </trkpt>
      <trkpt lat="46.55889" lon="5.39616">
        <ele>231</ele>
        <time>2021-08-26T14:18:43Z</time>
      </trkpt>
      <trkpt lat="46.55892" lon="5.39592">
        <ele>230.8</ele>
        <time>2021-08-26T14:18:45Z</time>
      </trkpt>
      <trkpt lat="46.55895" lon="5.39569">
        <ele>230.8</ele>
        <time>2021-08-26T14:18:47Z</time>
      </trkpt>
      <trkpt lat="46.55898" lon="5.39546">
        <ele>230.8</ele>
        <time>2021-08-26T14:18:49Z</time>
      </trkpt>
      <trkpt lat="46.55901" lon="5.39524">
        <ele>230.8</ele>
        <time>2021-08-26T14:18:51Z</time>
      </trkpt>
      <trkpt lat="46.55904" lon="5.395">
        <ele>230.6</ele>
        <time>2021-08-26T14:18:53Z</time>
      </trkpt>
      <trkpt lat="46.55907" lon="5.39477">
        <ele>230.2</ele>
        <time>2021-08-26T14:18:55Z</time>
      </trkpt>
      <trkpt lat="46.55909" lon="5.39454">
        <ele>230</ele>
        <time>2021-08-26T14:18:57Z</time>
      </trkpt>
      <trkpt lat="46.55912" lon="5.3943">
        <ele>229.8</ele>
        <time>2021-08-26T14:18:59Z</time>
      </trkpt>
      <trkpt lat="46.55915" lon="5.39406">
        <ele>229.8</ele>
        <time>2021-08-26T14:19:01Z</time>
      </trkpt>
      <trkpt lat="46.55917" lon="5.39382">
        <ele>229.4</ele>
        <time>2021-08-26T14:19:03Z</time>
      </trkpt>
      <trkpt lat="46.55919" lon="5.39359">
        <ele>229.2</ele>
        <time>2021-08-26T14:19:05Z</time>
      </trkpt>
      <trkpt lat="46.55921" lon="5.39347">
        <ele>229</ele>
        <time>2021-08-26T14:19:06Z</time>
      </trkpt>
      <trkpt lat="46.55922" lon="5.39336">
        <ele>229</ele>
        <time>2021-08-26T14:19:07Z</time>
      </trkpt>
      <trkpt lat="46.55925" lon="5.39312">
        <ele>228.6</ele>
        <time>2021-08-26T14:19:09Z</time>
      </trkpt>
      <trkpt lat="46.55928" lon="5.39289">
        <ele>228.2</ele>
        <time>2021-08-26T14:19:11Z</time>
      </trkpt>
      <trkpt lat="46.55931" lon="5.39266">
        <ele>228</ele>
        <time>2021-08-26T14:19:13Z</time>
      </trkpt>
      <trkpt lat="46.55934" lon="5.39243">
        <ele>227.8</ele>
        <time>2021-08-26T14:19:15Z</time>
      </trkpt>
      <trkpt lat="46.55935" lon="5.39231">
        <ele>227.6</ele>
        <time>2021-08-26T14:19:16Z</time>
      </trkpt>
      <trkpt lat="46.55936" lon="5.39219">
        <ele>227.4</ele>
        <time>2021-08-26T14:19:17Z</time>
      </trkpt>
      <trkpt lat="46.55936" lon="5.39195">
        <ele>227.2</ele>
        <time>2021-08-26T14:19:19Z</time>
      </trkpt>
      <trkpt lat="46.55937" lon="5.3917">
        <ele>227</ele>
        <time>2021-08-26T14:19:21Z</time>
      </trkpt>
      <trkpt lat="46.55937" lon="5.39158">
        <ele>226.8</ele>
        <time>2021-08-26T14:19:22Z</time>
      </trkpt>
      <trkpt lat="46.55937" lon="5.39146">
        <ele>226.6</ele>
        <time>2021-08-26T14:19:23Z</time>
      </trkpt>
      <trkpt lat="46.55937" lon="5.39134">
        <ele>226.6</ele>
        <time>2021-08-26T14:19:24Z</time>
      </trkpt>
      <trkpt lat="46.55938" lon="5.39122">
        <ele>226.2</ele>
        <time>2021-08-26T14:19:25Z</time>
      </trkpt>
      <trkpt lat="46.55939" lon="5.39098">
        <ele>225.8</ele>
        <time>2021-08-26T14:19:27Z</time>
      </trkpt>
      <trkpt lat="46.55941" lon="5.39073">
        <ele>225.6</ele>
        <time>2021-08-26T14:19:29Z</time>
      </trkpt>
      <trkpt lat="46.55943" lon="5.39047">
        <ele>225.4</ele>
        <time>2021-08-26T14:19:31Z</time>
      </trkpt>
      <trkpt lat="46.55947" lon="5.39019">
        <ele>225</ele>
        <time>2021-08-26T14:19:33Z</time>
      </trkpt>
      <trkpt lat="46.5595" lon="5.39005">
        <ele>224.8</ele>
        <time>2021-08-26T14:19:34Z</time>
      </trkpt>
      <trkpt lat="46.55954" lon="5.38992">
        <ele>224.8</ele>
        <time>2021-08-26T14:19:35Z</time>
      </trkpt>
      <trkpt lat="46.55962" lon="5.38966">
        <ele>224</ele>
        <time>2021-08-26T14:19:37Z</time>
      </trkpt>
      <trkpt lat="46.55967" lon="5.38953">
        <ele>223.4</ele>
        <time>2021-08-26T14:19:38Z</time>
      </trkpt>
      <trkpt lat="46.55971" lon="5.38941">
        <ele>222.8</ele>
        <time>2021-08-26T14:19:39Z</time>
      </trkpt>
      <trkpt lat="46.55976" lon="5.3893">
        <ele>222</ele>
        <time>2021-08-26T14:19:40Z</time>
      </trkpt>
      <trkpt lat="46.5598" lon="5.38918">
        <ele>221.2</ele>
        <time>2021-08-26T14:19:41Z</time>
      </trkpt>
      <trkpt lat="46.55984" lon="5.38907">
        <ele>220.8</ele>
        <time>2021-08-26T14:19:42Z</time>
      </trkpt>
      <trkpt lat="46.55988" lon="5.38896">
        <ele>220.4</ele>
        <time>2021-08-26T14:19:43Z</time>
      </trkpt>
      <trkpt lat="46.55995" lon="5.38874">
        <ele>219.6</ele>
        <time>2021-08-26T14:19:45Z</time>
      </trkpt>
      <trkpt lat="46.55997" lon="5.38863">
        <ele>219.6</ele>
        <time>2021-08-26T14:19:46Z</time>
      </trkpt>
      <trkpt lat="46.56" lon="5.38853">
        <ele>219.4</ele>
        <time>2021-08-26T14:19:47Z</time>
      </trkpt>
      <trkpt lat="46.56005" lon="5.38832">
        <ele>219.4</ele>
        <time>2021-08-26T14:19:49Z</time>
      </trkpt>
      <trkpt lat="46.56008" lon="5.38812">
        <ele>219.4</ele>
        <time>2021-08-26T14:19:51Z</time>
      </trkpt>
      <trkpt lat="46.56009" lon="5.38793">
        <ele>219.4</ele>
        <time>2021-08-26T14:19:53Z</time>
      </trkpt>
      <trkpt lat="46.5601" lon="5.38776">
        <ele>220.2</ele>
        <time>2021-08-26T14:19:55Z</time>
      </trkpt>
      <trkpt lat="46.56009" lon="5.38759">
        <ele>220.6</ele>
        <time>2021-08-26T14:19:57Z</time>
      </trkpt>
      <trkpt lat="46.56008" lon="5.38751">
        <ele>221.2</ele>
        <time>2021-08-26T14:19:58Z</time>
      </trkpt>
      <trkpt lat="46.56007" lon="5.38743">
        <ele>221.6</ele>
        <time>2021-08-26T14:19:59Z</time>
      </trkpt>
      <trkpt lat="46.56006" lon="5.38736">
        <ele>222.2</ele>
        <time>2021-08-26T14:20:00Z</time>
      </trkpt>
      <trkpt lat="46.56005" lon="5.38728">
        <ele>222.6</ele>
        <time>2021-08-26T14:20:01Z</time>
      </trkpt>
      <trkpt lat="46.56003" lon="5.38712">
        <ele>223.4</ele>
        <time>2021-08-26T14:20:03Z</time>
      </trkpt>
      <trkpt lat="46.56002" lon="5.38696">
        <ele>224.4</ele>
        <time>2021-08-26T14:20:05Z</time>
      </trkpt>
      <trkpt lat="46.56002" lon="5.38687">
        <ele>224.8</ele>
        <time>2021-08-26T14:20:06Z</time>
      </trkpt>
      <trkpt lat="46.56001" lon="5.38679">
        <ele>225.2</ele>
        <time>2021-08-26T14:20:07Z</time>
      </trkpt>
      <trkpt lat="46.56" lon="5.38661">
        <ele>225.8</ele>
        <time>2021-08-26T14:20:09Z</time>
      </trkpt>
      <trkpt lat="46.56" lon="5.38652">
        <ele>226.2</ele>
        <time>2021-08-26T14:20:10Z</time>
      </trkpt>
      <trkpt lat="46.55999" lon="5.38643">
        <ele>226.4</ele>
        <time>2021-08-26T14:20:11Z</time>
      </trkpt>
      <trkpt lat="46.55996" lon="5.38624">
        <ele>226.6</ele>
        <time>2021-08-26T14:20:13Z</time>
      </trkpt>
      <trkpt lat="46.55993" lon="5.38605">
        <ele>226.6</ele>
        <time>2021-08-26T14:20:15Z</time>
      </trkpt>
      <trkpt lat="46.5599" lon="5.38585">
        <ele>226.6</ele>
        <time>2021-08-26T14:20:17Z</time>
      </trkpt>
      <trkpt lat="46.55988" lon="5.38566">
        <ele>226.6</ele>
        <time>2021-08-26T14:20:19Z</time>
      </trkpt>
      <trkpt lat="46.55986" lon="5.38556">
        <ele>226.6</ele>
        <time>2021-08-26T14:20:20Z</time>
      </trkpt>
      <trkpt lat="46.55985" lon="5.38547">
        <ele>226.6</ele>
        <time>2021-08-26T14:20:21Z</time>
      </trkpt>
      <trkpt lat="46.55983" lon="5.38527">
        <ele>226.6</ele>
        <time>2021-08-26T14:20:23Z</time>
      </trkpt>
      <trkpt lat="46.55981" lon="5.38509">
        <ele>226.6</ele>
        <time>2021-08-26T14:20:25Z</time>
      </trkpt>
      <trkpt lat="46.5598" lon="5.38491">
        <ele>226.6</ele>
        <time>2021-08-26T14:20:27Z</time>
      </trkpt>
      <trkpt lat="46.55979" lon="5.38473">
        <ele>226.6</ele>
        <time>2021-08-26T14:20:29Z</time>
      </trkpt>
      <trkpt lat="46.55978" lon="5.38454">
        <ele>226.6</ele>
        <time>2021-08-26T14:20:31Z</time>
      </trkpt>
      <trkpt lat="46.55979" lon="5.38434">
        <ele>226.6</ele>
        <time>2021-08-26T14:20:33Z</time>
      </trkpt>
      <trkpt lat="46.5598" lon="5.38424">
        <ele>226.6</ele>
        <time>2021-08-26T14:20:34Z</time>
      </trkpt>
      <trkpt lat="46.55981" lon="5.38413">
        <ele>226.6</ele>
        <time>2021-08-26T14:20:35Z</time>
      </trkpt>
      <trkpt lat="46.55984" lon="5.38391">
        <ele>226.6</ele>
        <time>2021-08-26T14:20:37Z</time>
      </trkpt>
      <trkpt lat="46.55987" lon="5.38368">
        <ele>226.6</ele>
        <time>2021-08-26T14:20:39Z</time>
      </trkpt>
      <trkpt lat="46.5599" lon="5.38345">
        <ele>226.2</ele>
        <time>2021-08-26T14:20:41Z</time>
      </trkpt>
      <trkpt lat="46.55993" lon="5.38322">
        <ele>225.2</ele>
        <time>2021-08-26T14:20:43Z</time>
      </trkpt>
      <trkpt lat="46.55995" lon="5.3831">
        <ele>225</ele>
        <time>2021-08-26T14:20:44Z</time>
      </trkpt>
      <trkpt lat="46.55996" lon="5.38298">
        <ele>224.8</ele>
        <time>2021-08-26T14:20:45Z</time>
      </trkpt>
      <trkpt lat="46.56" lon="5.38274">
        <ele>224.4</ele>
        <time>2021-08-26T14:20:47Z</time>
      </trkpt>
      <trkpt lat="46.56003" lon="5.3825">
        <ele>224</ele>
        <time>2021-08-26T14:20:49Z</time>
      </trkpt>
      <trkpt lat="46.56006" lon="5.38227">
        <ele>223.4</ele>
        <time>2021-08-26T14:20:51Z</time>
      </trkpt>
      <trkpt lat="46.56012" lon="5.38205">
        <ele>223</ele>
        <time>2021-08-26T14:20:53Z</time>
      </trkpt>
      <trkpt lat="46.56017" lon="5.38197">
        <ele>222.6</ele>
        <time>2021-08-26T14:20:54Z</time>
      </trkpt>
      <trkpt lat="46.56023" lon="5.38189">
        <ele>222.6</ele>
        <time>2021-08-26T14:20:55Z</time>
      </trkpt>
      <trkpt lat="46.56036" lon="5.38178">
        <ele>222.4</ele>
        <time>2021-08-26T14:20:57Z</time>
      </trkpt>
      <trkpt lat="46.56043" lon="5.38173">
        <ele>222.4</ele>
        <time>2021-08-26T14:20:58Z</time>
      </trkpt>
      <trkpt lat="46.5605" lon="5.38168">
        <ele>222.6</ele>
        <time>2021-08-26T14:20:59Z</time>
      </trkpt>
      <trkpt lat="46.56064" lon="5.38159">
        <ele>222.4</ele>
        <time>2021-08-26T14:21:01Z</time>
      </trkpt>
      <trkpt lat="46.56078" lon="5.38149">
        <ele>222.4</ele>
        <time>2021-08-26T14:21:03Z</time>
      </trkpt>
      <trkpt lat="46.56092" lon="5.38139">
        <ele>222.2</ele>
        <time>2021-08-26T14:21:05Z</time>
      </trkpt>
      <trkpt lat="46.56106" lon="5.38128">
        <ele>222</ele>
        <time>2021-08-26T14:21:07Z</time>
      </trkpt>
      <trkpt lat="46.56114" lon="5.38123">
        <ele>222</ele>
        <time>2021-08-26T14:21:08Z</time>
      </trkpt>
      <trkpt lat="46.56121" lon="5.38118">
        <ele>221.8</ele>
        <time>2021-08-26T14:21:09Z</time>
      </trkpt>
      <trkpt lat="46.56135" lon="5.38107">
        <ele>221.8</ele>
        <time>2021-08-26T14:21:11Z</time>
      </trkpt>
      <trkpt lat="46.56148" lon="5.38094">
        <ele>221.6</ele>
        <time>2021-08-26T14:21:13Z</time>
      </trkpt>
      <trkpt lat="46.56154" lon="5.38087">
        <ele>221.4</ele>
        <time>2021-08-26T14:21:14Z</time>
      </trkpt>
      <trkpt lat="46.5616" lon="5.38079">
        <ele>221.4</ele>
        <time>2021-08-26T14:21:15Z</time>
      </trkpt>
      <trkpt lat="46.56169" lon="5.38062">
        <ele>221.2</ele>
        <time>2021-08-26T14:21:17Z</time>
      </trkpt>
      <trkpt lat="46.56178" lon="5.38045">
        <ele>221.2</ele>
        <time>2021-08-26T14:21:19Z</time>
      </trkpt>
      <trkpt lat="46.56187" lon="5.38028">
        <ele>221</ele>
        <time>2021-08-26T14:21:21Z</time>
      </trkpt>
      <trkpt lat="46.56197" lon="5.38011">
        <ele>221</ele>
        <time>2021-08-26T14:21:23Z</time>
      </trkpt>
      <trkpt lat="46.56202" lon="5.38003">
        <ele>220.8</ele>
        <time>2021-08-26T14:21:24Z</time>
      </trkpt>
      <trkpt lat="46.56208" lon="5.37995">
        <ele>220.8</ele>
        <time>2021-08-26T14:21:25Z</time>
      </trkpt>
      <trkpt lat="46.56214" lon="5.37989">
        <ele>220.8</ele>
        <time>2021-08-26T14:21:26Z</time>
      </trkpt>
      <trkpt lat="46.56221" lon="5.37984">
        <ele>220.8</ele>
        <time>2021-08-26T14:21:27Z</time>
      </trkpt>
      <trkpt lat="46.56228" lon="5.37979">
        <ele>220.8</ele>
        <time>2021-08-26T14:21:28Z</time>
      </trkpt>
      <trkpt lat="46.56235" lon="5.37975">
        <ele>220.6</ele>
        <time>2021-08-26T14:21:29Z</time>
      </trkpt>
      <trkpt lat="46.56242" lon="5.37971">
        <ele>220.6</ele>
        <time>2021-08-26T14:21:30Z</time>
      </trkpt>
      <trkpt lat="46.56249" lon="5.37967">
        <ele>220.8</ele>
        <time>2021-08-26T14:21:31Z</time>
      </trkpt>
      <trkpt lat="46.56264" lon="5.3796">
        <ele>220.6</ele>
        <time>2021-08-26T14:21:33Z</time>
      </trkpt>
      <trkpt lat="46.56279" lon="5.37953">
        <ele>220.6</ele>
        <time>2021-08-26T14:21:35Z</time>
      </trkpt>
      <trkpt lat="46.56286" lon="5.37951">
        <ele>220.6</ele>
        <time>2021-08-26T14:21:36Z</time>
      </trkpt>
      <trkpt lat="46.56294" lon="5.3795">
        <ele>220.4</ele>
        <time>2021-08-26T14:21:37Z</time>
      </trkpt>
      <trkpt lat="46.56302" lon="5.3795">
        <ele>220.4</ele>
        <time>2021-08-26T14:21:38Z</time>
      </trkpt>
      <trkpt lat="46.56309" lon="5.3795">
        <ele>220.4</ele>
        <time>2021-08-26T14:21:39Z</time>
      </trkpt>
      <trkpt lat="46.56317" lon="5.37951">
        <ele>220.4</ele>
        <time>2021-08-26T14:21:40Z</time>
      </trkpt>
      <trkpt lat="46.56324" lon="5.37952">
        <ele>220.4</ele>
        <time>2021-08-26T14:21:41Z</time>
      </trkpt>
      <trkpt lat="46.56338" lon="5.37952">
        <ele>220.4</ele>
        <time>2021-08-26T14:21:43Z</time>
      </trkpt>
      <trkpt lat="46.56346" lon="5.37951">
        <ele>220.4</ele>
        <time>2021-08-26T14:21:44Z</time>
      </trkpt>
      <trkpt lat="46.56353" lon="5.37949">
        <ele>220.4</ele>
        <time>2021-08-26T14:21:45Z</time>
      </trkpt>
      <trkpt lat="46.56366" lon="5.37942">
        <ele>220.4</ele>
        <time>2021-08-26T14:21:47Z</time>
      </trkpt>
      <trkpt lat="46.56372" lon="5.37938">
        <ele>220.4</ele>
        <time>2021-08-26T14:21:48Z</time>
      </trkpt>
      <trkpt lat="46.56379" lon="5.37935">
        <ele>220.4</ele>
        <time>2021-08-26T14:21:49Z</time>
      </trkpt>
      <trkpt lat="46.56392" lon="5.37931">
        <ele>220.4</ele>
        <time>2021-08-26T14:21:51Z</time>
      </trkpt>
      <trkpt lat="46.56399" lon="5.37931">
        <ele>220.6</ele>
        <time>2021-08-26T14:21:52Z</time>
      </trkpt>
      <trkpt lat="46.56405" lon="5.37931">
        <ele>220.6</ele>
        <time>2021-08-26T14:21:53Z</time>
      </trkpt>
      <trkpt lat="46.56411" lon="5.37932">
        <ele>220.8</ele>
        <time>2021-08-26T14:21:54Z</time>
      </trkpt>
      <trkpt lat="46.56417" lon="5.37934">
        <ele>220.8</ele>
        <time>2021-08-26T14:21:55Z</time>
      </trkpt>
      <trkpt lat="46.5643" lon="5.37937">
        <ele>221.2</ele>
        <time>2021-08-26T14:21:57Z</time>
      </trkpt>
      <trkpt lat="46.56436" lon="5.37938">
        <ele>221.4</ele>
        <time>2021-08-26T14:21:58Z</time>
      </trkpt>
      <trkpt lat="46.56442" lon="5.3794">
        <ele>221.6</ele>
        <time>2021-08-26T14:21:59Z</time>
      </trkpt>
      <trkpt lat="46.56454" lon="5.37943">
        <ele>221.8</ele>
        <time>2021-08-26T14:22:01Z</time>
      </trkpt>
      <trkpt lat="46.5646" lon="5.37945">
        <ele>221.8</ele>
        <time>2021-08-26T14:22:02Z</time>
      </trkpt>
      <trkpt lat="46.56466" lon="5.37947">
        <ele>222</ele>
        <time>2021-08-26T14:22:03Z</time>
      </trkpt>
      <trkpt lat="46.56479" lon="5.37949">
        <ele>222.2</ele>
        <time>2021-08-26T14:22:05Z</time>
      </trkpt>
      <trkpt lat="46.56491" lon="5.37952">
        <ele>222.6</ele>
        <time>2021-08-26T14:22:07Z</time>
      </trkpt>
      <trkpt lat="46.56503" lon="5.37954">
        <ele>223</ele>
        <time>2021-08-26T14:22:09Z</time>
      </trkpt>
      <trkpt lat="46.56516" lon="5.37952">
        <ele>223.2</ele>
        <time>2021-08-26T14:22:11Z</time>
      </trkpt>
      <trkpt lat="46.56522" lon="5.3795">
        <ele>223.4</ele>
        <time>2021-08-26T14:22:12Z</time>
      </trkpt>
      <trkpt lat="46.56528" lon="5.37946">
        <ele>223.4</ele>
        <time>2021-08-26T14:22:13Z</time>
      </trkpt>
      <trkpt lat="46.56533" lon="5.37942">
        <ele>223.4</ele>
        <time>2021-08-26T14:22:14Z</time>
      </trkpt>
      <trkpt lat="46.56539" lon="5.37938">
        <ele>223.4</ele>
        <time>2021-08-26T14:22:15Z</time>
      </trkpt>
      <trkpt lat="46.5655" lon="5.37929">
        <ele>223.4</ele>
        <time>2021-08-26T14:22:17Z</time>
      </trkpt>
      <trkpt lat="46.56556" lon="5.37926">
        <ele>223.6</ele>
        <time>2021-08-26T14:22:18Z</time>
      </trkpt>
      <trkpt lat="46.56562" lon="5.37923">
        <ele>223.6</ele>
        <time>2021-08-26T14:22:19Z</time>
      </trkpt>
      <trkpt lat="46.56574" lon="5.37919">
        <ele>223.6</ele>
        <time>2021-08-26T14:22:21Z</time>
      </trkpt>
      <trkpt lat="46.56586" lon="5.37918">
        <ele>223.6</ele>
        <time>2021-08-26T14:22:23Z</time>
      </trkpt>
      <trkpt lat="46.56599" lon="5.37918">
        <ele>223.8</ele>
        <time>2021-08-26T14:22:25Z</time>
      </trkpt>
      <trkpt lat="46.56612" lon="5.3792">
        <ele>224.2</ele>
        <time>2021-08-26T14:22:27Z</time>
      </trkpt>
      <trkpt lat="46.56626" lon="5.37922">
        <ele>224.6</ele>
        <time>2021-08-26T14:22:29Z</time>
      </trkpt>
      <trkpt lat="46.5664" lon="5.37925">
        <ele>224.8</ele>
        <time>2021-08-26T14:22:31Z</time>
      </trkpt>
      <trkpt lat="46.56654" lon="5.37928">
        <ele>224.8</ele>
        <time>2021-08-26T14:22:33Z</time>
      </trkpt>
      <trkpt lat="46.56669" lon="5.37932">
        <ele>224.8</ele>
        <time>2021-08-26T14:22:35Z</time>
      </trkpt>
      <trkpt lat="46.56684" lon="5.37935">
        <ele>224.8</ele>
        <time>2021-08-26T14:22:37Z</time>
      </trkpt>
      <trkpt lat="46.56691" lon="5.37936">
        <ele>224.6</ele>
        <time>2021-08-26T14:22:38Z</time>
      </trkpt>
      <trkpt lat="46.56698" lon="5.37938">
        <ele>224.6</ele>
        <time>2021-08-26T14:22:39Z</time>
      </trkpt>
      <trkpt lat="46.56713" lon="5.37942">
        <ele>224.6</ele>
        <time>2021-08-26T14:22:41Z</time>
      </trkpt>
      <trkpt lat="46.56728" lon="5.37946">
        <ele>224.2</ele>
        <time>2021-08-26T14:22:43Z</time>
      </trkpt>
      <trkpt lat="46.56744" lon="5.37949">
        <ele>224.2</ele>
        <time>2021-08-26T14:22:45Z</time>
      </trkpt>
      <trkpt lat="46.56752" lon="5.37951">
        <ele>224</ele>
        <time>2021-08-26T14:22:46Z</time>
      </trkpt>
      <trkpt lat="46.56759" lon="5.37953">
        <ele>223.8</ele>
        <time>2021-08-26T14:22:47Z</time>
      </trkpt>
      <trkpt lat="46.56775" lon="5.37957">
        <ele>223.6</ele>
        <time>2021-08-26T14:22:49Z</time>
      </trkpt>
      <trkpt lat="46.5679" lon="5.3796">
        <ele>223.2</ele>
        <time>2021-08-26T14:22:51Z</time>
      </trkpt>
      <trkpt lat="46.56806" lon="5.37964">
        <ele>223.2</ele>
        <time>2021-08-26T14:22:53Z</time>
      </trkpt>
      <trkpt lat="46.56821" lon="5.37967">
        <ele>223</ele>
        <time>2021-08-26T14:22:55Z</time>
      </trkpt>
      <trkpt lat="46.56836" lon="5.37971">
        <ele>223</ele>
        <time>2021-08-26T14:22:57Z</time>
      </trkpt>
      <trkpt lat="46.56851" lon="5.37974">
        <ele>223</ele>
        <time>2021-08-26T14:22:59Z</time>
      </trkpt>
      <trkpt lat="46.56865" lon="5.37977">
        <ele>222.8</ele>
        <time>2021-08-26T14:23:01Z</time>
      </trkpt>
      <trkpt lat="46.5688" lon="5.37981">
        <ele>222.8</ele>
        <time>2021-08-26T14:23:03Z</time>
      </trkpt>
      <trkpt lat="46.56896" lon="5.37985">
        <ele>222.6</ele>
        <time>2021-08-26T14:23:05Z</time>
      </trkpt>
      <trkpt lat="46.56911" lon="5.37989">
        <ele>222.6</ele>
        <time>2021-08-26T14:23:07Z</time>
      </trkpt>
      <trkpt lat="46.56927" lon="5.37992">
        <ele>222.4</ele>
        <time>2021-08-26T14:23:09Z</time>
      </trkpt>
      <trkpt lat="46.56936" lon="5.37993">
        <ele>222</ele>
        <time>2021-08-26T14:23:10Z</time>
      </trkpt>
      <trkpt lat="46.56944" lon="5.37992">
        <ele>221.8</ele>
        <time>2021-08-26T14:23:11Z</time>
      </trkpt>
      <trkpt lat="46.56961" lon="5.37985">
        <ele>221.2</ele>
        <time>2021-08-26T14:23:13Z</time>
      </trkpt>
      <trkpt lat="46.56969" lon="5.3798">
        <ele>221</ele>
        <time>2021-08-26T14:23:14Z</time>
      </trkpt>
      <trkpt lat="46.56977" lon="5.37975">
        <ele>220.6</ele>
        <time>2021-08-26T14:23:15Z</time>
      </trkpt>
      <trkpt lat="46.56992" lon="5.37964">
        <ele>220</ele>
        <time>2021-08-26T14:23:17Z</time>
      </trkpt>
      <trkpt lat="46.57" lon="5.37958">
        <ele>219.8</ele>
        <time>2021-08-26T14:23:18Z</time>
      </trkpt>
      <trkpt lat="46.57008" lon="5.37953">
        <ele>219.6</ele>
        <time>2021-08-26T14:23:19Z</time>
      </trkpt>
      <trkpt lat="46.57023" lon="5.37942">
        <ele>219.2</ele>
        <time>2021-08-26T14:23:21Z</time>
      </trkpt>
      <trkpt lat="46.57039" lon="5.37929">
        <ele>218.6</ele>
        <time>2021-08-26T14:23:23Z</time>
      </trkpt>
      <trkpt lat="46.57046" lon="5.37923">
        <ele>218.4</ele>
        <time>2021-08-26T14:23:24Z</time>
      </trkpt>
      <trkpt lat="46.57054" lon="5.37917">
        <ele>218.2</ele>
        <time>2021-08-26T14:23:25Z</time>
      </trkpt>
      <trkpt lat="46.57069" lon="5.37903">
        <ele>218</ele>
        <time>2021-08-26T14:23:27Z</time>
      </trkpt>
      <trkpt lat="46.57084" lon="5.3789">
        <ele>218</ele>
        <time>2021-08-26T14:23:29Z</time>
      </trkpt>
      <trkpt lat="46.57098" lon="5.37878">
        <ele>217.8</ele>
        <time>2021-08-26T14:23:31Z</time>
      </trkpt>
      <trkpt lat="46.57112" lon="5.37864">
        <ele>217.8</ele>
        <time>2021-08-26T14:23:33Z</time>
      </trkpt>
      <trkpt lat="46.57126" lon="5.37852">
        <ele>217.8</ele>
        <time>2021-08-26T14:23:35Z</time>
      </trkpt>
      <trkpt lat="46.57139" lon="5.37841">
        <ele>217.8</ele>
        <time>2021-08-26T14:23:37Z</time>
      </trkpt>
      <trkpt lat="46.5715" lon="5.37828">
        <ele>217.8</ele>
        <time>2021-08-26T14:23:39Z</time>
      </trkpt>
      <trkpt lat="46.57161" lon="5.37816">
        <ele>217.8</ele>
        <time>2021-08-26T14:23:41Z</time>
      </trkpt>
      <trkpt lat="46.57172" lon="5.37804">
        <ele>218</ele>
        <time>2021-08-26T14:23:43Z</time>
      </trkpt>
      <trkpt lat="46.57182" lon="5.37792">
        <ele>218.6</ele>
        <time>2021-08-26T14:23:45Z</time>
      </trkpt>
      <trkpt lat="46.57193" lon="5.3778">
        <ele>219.6</ele>
        <time>2021-08-26T14:23:47Z</time>
      </trkpt>
      <trkpt lat="46.57204" lon="5.37767">
        <ele>220.6</ele>
        <time>2021-08-26T14:23:49Z</time>
      </trkpt>
      <trkpt lat="46.5721" lon="5.37761">
        <ele>221</ele>
        <time>2021-08-26T14:23:50Z</time>
      </trkpt>
      <trkpt lat="46.57215" lon="5.37755">
        <ele>221.2</ele>
        <time>2021-08-26T14:23:51Z</time>
      </trkpt>
      <trkpt lat="46.57226" lon="5.37742">
        <ele>221.6</ele>
        <time>2021-08-26T14:23:53Z</time>
      </trkpt>
      <trkpt lat="46.57237" lon="5.37729">
        <ele>221.6</ele>
        <time>2021-08-26T14:23:55Z</time>
      </trkpt>
      <trkpt lat="46.57249" lon="5.37717">
        <ele>221.8</ele>
        <time>2021-08-26T14:23:57Z</time>
      </trkpt>
      <trkpt lat="46.5726" lon="5.37704">
        <ele>222</ele>
        <time>2021-08-26T14:23:59Z</time>
      </trkpt>
      <trkpt lat="46.57272" lon="5.37692">
        <ele>222</ele>
        <time>2021-08-26T14:24:01Z</time>
      </trkpt>
      <trkpt lat="46.57283" lon="5.3768">
        <ele>222.2</ele>
        <time>2021-08-26T14:24:03Z</time>
      </trkpt>
      <trkpt lat="46.57288" lon="5.37674">
        <ele>222.2</ele>
        <time>2021-08-26T14:24:04Z</time>
      </trkpt>
      <trkpt lat="46.57294" lon="5.37668">
        <ele>222.2</ele>
        <time>2021-08-26T14:24:05Z</time>
      </trkpt>
      <trkpt lat="46.57304" lon="5.37656">
        <ele>222.4</ele>
        <time>2021-08-26T14:24:07Z</time>
      </trkpt>
      <trkpt lat="46.57315" lon="5.37645">
        <ele>223</ele>
        <time>2021-08-26T14:24:09Z</time>
      </trkpt>
      <trkpt lat="46.5732" lon="5.37639">
        <ele>223.2</ele>
        <time>2021-08-26T14:24:10Z</time>
      </trkpt>
      <trkpt lat="46.57325" lon="5.37634">
        <ele>223.6</ele>
        <time>2021-08-26T14:24:11Z</time>
      </trkpt>
      <trkpt lat="46.57336" lon="5.37622">
        <ele>224</ele>
        <time>2021-08-26T14:24:13Z</time>
      </trkpt>
      <trkpt lat="46.57341" lon="5.37617">
        <ele>224.2</ele>
        <time>2021-08-26T14:24:14Z</time>
      </trkpt>
      <trkpt lat="46.57347" lon="5.37611">
        <ele>224.6</ele>
        <time>2021-08-26T14:24:15Z</time>
      </trkpt>
      <trkpt lat="46.57357" lon="5.37599">
        <ele>225</ele>
        <time>2021-08-26T14:24:17Z</time>
      </trkpt>
      <trkpt lat="46.57367" lon="5.37586">
        <ele>225.2</ele>
        <time>2021-08-26T14:24:19Z</time>
      </trkpt>
      <trkpt lat="46.57377" lon="5.37572">
        <ele>225.6</ele>
        <time>2021-08-26T14:24:21Z</time>
      </trkpt>
      <trkpt lat="46.57382" lon="5.37565">
        <ele>225.8</ele>
        <time>2021-08-26T14:24:22Z</time>
      </trkpt>
      <trkpt lat="46.57387" lon="5.37557">
        <ele>225.8</ele>
        <time>2021-08-26T14:24:23Z</time>
      </trkpt>
      <trkpt lat="46.57397" lon="5.3754">
        <ele>226</ele>
        <time>2021-08-26T14:24:25Z</time>
      </trkpt>
      <trkpt lat="46.57406" lon="5.37522">
        <ele>226</ele>
        <time>2021-08-26T14:24:27Z</time>
      </trkpt>
      <trkpt lat="46.57416" lon="5.37503">
        <ele>226</ele>
        <time>2021-08-26T14:24:29Z</time>
      </trkpt>
      <trkpt lat="46.57424" lon="5.37482">
        <ele>225.8</ele>
        <time>2021-08-26T14:24:31Z</time>
      </trkpt>
      <trkpt lat="46.57432" lon="5.3746">
        <ele>224.8</ele>
        <time>2021-08-26T14:24:33Z</time>
      </trkpt>
      <trkpt lat="46.57435" lon="5.37448">
        <ele>224.8</ele>
        <time>2021-08-26T14:24:34Z</time>
      </trkpt>
      <trkpt lat="46.57437" lon="5.37437">
        <ele>224.4</ele>
        <time>2021-08-26T14:24:35Z</time>
      </trkpt>
      <trkpt lat="46.57442" lon="5.37414">
        <ele>223.8</ele>
        <time>2021-08-26T14:24:37Z</time>
      </trkpt>
      <trkpt lat="46.57444" lon="5.37403">
        <ele>223.4</ele>
        <time>2021-08-26T14:24:38Z</time>
      </trkpt>
      <trkpt lat="46.57447" lon="5.37393">
        <ele>223.2</ele>
        <time>2021-08-26T14:24:39Z</time>
      </trkpt>
      <trkpt lat="46.57456" lon="5.37375">
        <ele>223</ele>
        <time>2021-08-26T14:24:41Z</time>
      </trkpt>
      <trkpt lat="46.57467" lon="5.37358">
        <ele>222.8</ele>
        <time>2021-08-26T14:24:43Z</time>
      </trkpt>
      <trkpt lat="46.57472" lon="5.37336">
        <ele>222.6</ele>
        <time>2021-08-26T14:24:45Z</time>
      </trkpt>
      <trkpt lat="46.57472" lon="5.37312">
        <ele>222.4</ele>
        <time>2021-08-26T14:24:47Z</time>
      </trkpt>
      <trkpt lat="46.57472" lon="5.37299">
        <ele>222.4</ele>
        <time>2021-08-26T14:24:48Z</time>
      </trkpt>
      <trkpt lat="46.5747" lon="5.37286">
        <ele>222.4</ele>
        <time>2021-08-26T14:24:49Z</time>
      </trkpt>
      <trkpt lat="46.5747" lon="5.37272">
        <ele>222.4</ele>
        <time>2021-08-26T14:24:50Z</time>
      </trkpt>
      <trkpt lat="46.57469" lon="5.37259">
        <ele>222.2</ele>
        <time>2021-08-26T14:24:51Z</time>
      </trkpt>
      <trkpt lat="46.57468" lon="5.37231">
        <ele>221.8</ele>
        <time>2021-08-26T14:24:53Z</time>
      </trkpt>
      <trkpt lat="46.57469" lon="5.37203">
        <ele>221.2</ele>
        <time>2021-08-26T14:24:55Z</time>
      </trkpt>
      <trkpt lat="46.5747" lon="5.37176">
        <ele>220.8</ele>
        <time>2021-08-26T14:24:57Z</time>
      </trkpt>
      <trkpt lat="46.57472" lon="5.37148">
        <ele>219.8</ele>
        <time>2021-08-26T14:24:59Z</time>
      </trkpt>
      <trkpt lat="46.57476" lon="5.37123">
        <ele>218.8</ele>
        <time>2021-08-26T14:25:01Z</time>
      </trkpt>
      <trkpt lat="46.57478" lon="5.37111">
        <ele>218.8</ele>
        <time>2021-08-26T14:25:02Z</time>
      </trkpt>
      <trkpt lat="46.57481" lon="5.37099">
        <ele>218.4</ele>
        <time>2021-08-26T14:25:03Z</time>
      </trkpt>
      <trkpt lat="46.57487" lon="5.37076">
        <ele>218</ele>
        <time>2021-08-26T14:25:05Z</time>
      </trkpt>
      <trkpt lat="46.57494" lon="5.37053">
        <ele>217.6</ele>
        <time>2021-08-26T14:25:07Z</time>
      </trkpt>
      <trkpt lat="46.57502" lon="5.37028">
        <ele>217.4</ele>
        <time>2021-08-26T14:25:09Z</time>
      </trkpt>
      <trkpt lat="46.5751" lon="5.37003">
        <ele>217.2</ele>
        <time>2021-08-26T14:25:11Z</time>
      </trkpt>
      <trkpt lat="46.57517" lon="5.36977">
        <ele>217.2</ele>
        <time>2021-08-26T14:25:13Z</time>
      </trkpt>
      <trkpt lat="46.57524" lon="5.36951">
        <ele>216.4</ele>
        <time>2021-08-26T14:25:15Z</time>
      </trkpt>
      <trkpt lat="46.5753" lon="5.36926">
        <ele>215.6</ele>
        <time>2021-08-26T14:25:17Z</time>
      </trkpt>
      <trkpt lat="46.5753" lon="5.36914">
        <ele>215.4</ele>
        <time>2021-08-26T14:25:18Z</time>
      </trkpt>
      <trkpt lat="46.57529" lon="5.36903">
        <ele>215.2</ele>
        <time>2021-08-26T14:25:19Z</time>
      </trkpt>
      <trkpt lat="46.57523" lon="5.36881">
        <ele>215.2</ele>
        <time>2021-08-26T14:25:21Z</time>
      </trkpt>
      <trkpt lat="46.5752" lon="5.36869">
        <ele>214.8</ele>
        <time>2021-08-26T14:25:22Z</time>
      </trkpt>
      <trkpt lat="46.57519" lon="5.36856">
        <ele>214.6</ele>
        <time>2021-08-26T14:25:23Z</time>
      </trkpt>
      <trkpt lat="46.5752" lon="5.36842">
        <ele>214.4</ele>
        <time>2021-08-26T14:25:24Z</time>
      </trkpt>
      <trkpt lat="46.5752" lon="5.36829">
        <ele>214.4</ele>
        <time>2021-08-26T14:25:25Z</time>
      </trkpt>
      <trkpt lat="46.57522" lon="5.36815">
        <ele>214.2</ele>
        <time>2021-08-26T14:25:26Z</time>
      </trkpt>
      <trkpt lat="46.57524" lon="5.36802">
        <ele>214.2</ele>
        <time>2021-08-26T14:25:27Z</time>
      </trkpt>
      <trkpt lat="46.57526" lon="5.36774">
        <ele>214</ele>
        <time>2021-08-26T14:25:29Z</time>
      </trkpt>
      <trkpt lat="46.57524" lon="5.36746">
        <ele>213.8</ele>
        <time>2021-08-26T14:25:31Z</time>
      </trkpt>
      <trkpt lat="46.57521" lon="5.36719">
        <ele>212.8</ele>
        <time>2021-08-26T14:25:33Z</time>
      </trkpt>
      <trkpt lat="46.57519" lon="5.36705">
        <ele>212.4</ele>
        <time>2021-08-26T14:25:34Z</time>
      </trkpt>
      <trkpt lat="46.57519" lon="5.36691">
        <ele>211.8</ele>
        <time>2021-08-26T14:25:35Z</time>
      </trkpt>
      <trkpt lat="46.57522" lon="5.36676">
        <ele>211.2</ele>
        <time>2021-08-26T14:25:36Z</time>
      </trkpt>
      <trkpt lat="46.57527" lon="5.36664">
        <ele>210.8</ele>
        <time>2021-08-26T14:25:37Z</time>
      </trkpt>
      <trkpt lat="46.57533" lon="5.36652">
        <ele>210.4</ele>
        <time>2021-08-26T14:25:38Z</time>
      </trkpt>
      <trkpt lat="46.57539" lon="5.36639">
        <ele>210</ele>
        <time>2021-08-26T14:25:39Z</time>
      </trkpt>
      <trkpt lat="46.57542" lon="5.36626">
        <ele>209.6</ele>
        <time>2021-08-26T14:25:40Z</time>
      </trkpt>
      <trkpt lat="46.57544" lon="5.36612">
        <ele>209</ele>
        <time>2021-08-26T14:25:41Z</time>
      </trkpt>
      <trkpt lat="46.57542" lon="5.36599">
        <ele>208.6</ele>
        <time>2021-08-26T14:25:42Z</time>
      </trkpt>
      <trkpt lat="46.57539" lon="5.36586">
        <ele>208</ele>
        <time>2021-08-26T14:25:43Z</time>
      </trkpt>
      <trkpt lat="46.57535" lon="5.36575">
        <ele>207.4</ele>
        <time>2021-08-26T14:25:44Z</time>
      </trkpt>
      <trkpt lat="46.57529" lon="5.36565">
        <ele>207</ele>
        <time>2021-08-26T14:25:45Z</time>
      </trkpt>
      <trkpt lat="46.57523" lon="5.36554">
        <ele>206.6</ele>
        <time>2021-08-26T14:25:46Z</time>
      </trkpt>
      <trkpt lat="46.57517" lon="5.36544">
        <ele>206.6</ele>
        <time>2021-08-26T14:25:47Z</time>
      </trkpt>
      <trkpt lat="46.57511" lon="5.36534">
        <ele>206.4</ele>
        <time>2021-08-26T14:25:48Z</time>
      </trkpt>
      <trkpt lat="46.57505" lon="5.36525">
        <ele>206.4</ele>
        <time>2021-08-26T14:25:49Z</time>
      </trkpt>
      <trkpt lat="46.57493" lon="5.36506">
        <ele>206.2</ele>
        <time>2021-08-26T14:25:51Z</time>
      </trkpt>
      <trkpt lat="46.57482" lon="5.36486">
        <ele>206</ele>
        <time>2021-08-26T14:25:53Z</time>
      </trkpt>
      <trkpt lat="46.57471" lon="5.36468">
        <ele>206</ele>
        <time>2021-08-26T14:25:55Z</time>
      </trkpt>
      <trkpt lat="46.5746" lon="5.36449">
        <ele>206.2</ele>
        <time>2021-08-26T14:25:57Z</time>
      </trkpt>
      <trkpt lat="46.5745" lon="5.36431">
        <ele>206.2</ele>
        <time>2021-08-26T14:25:59Z</time>
      </trkpt>
      <trkpt lat="46.57442" lon="5.36413">
        <ele>206.4</ele>
        <time>2021-08-26T14:26:01Z</time>
      </trkpt>
      <trkpt lat="46.57435" lon="5.36395">
        <ele>206.4</ele>
        <time>2021-08-26T14:26:03Z</time>
      </trkpt>
      <trkpt lat="46.57431" lon="5.36377">
        <ele>206.8</ele>
        <time>2021-08-26T14:26:05Z</time>
      </trkpt>
      <trkpt lat="46.57428" lon="5.36359">
        <ele>207.2</ele>
        <time>2021-08-26T14:26:07Z</time>
      </trkpt>
      <trkpt lat="46.57426" lon="5.3635">
        <ele>207.6</ele>
        <time>2021-08-26T14:26:08Z</time>
      </trkpt>
      <trkpt lat="46.57425" lon="5.36341">
        <ele>207.8</ele>
        <time>2021-08-26T14:26:09Z</time>
      </trkpt>
      <trkpt lat="46.57422" lon="5.36323">
        <ele>208</ele>
        <time>2021-08-26T14:26:11Z</time>
      </trkpt>
      <trkpt lat="46.57419" lon="5.36306">
        <ele>209</ele>
        <time>2021-08-26T14:26:13Z</time>
      </trkpt>
      <trkpt lat="46.57416" lon="5.36287">
        <ele>210</ele>
        <time>2021-08-26T14:26:15Z</time>
      </trkpt>
      <trkpt lat="46.57414" lon="5.36278">
        <ele>210.4</ele>
        <time>2021-08-26T14:26:16Z</time>
      </trkpt>
      <trkpt lat="46.57413" lon="5.36269">
        <ele>210.8</ele>
        <time>2021-08-26T14:26:17Z</time>
      </trkpt>
      <trkpt lat="46.5741" lon="5.36252">
        <ele>211.6</ele>
        <time>2021-08-26T14:26:19Z</time>
      </trkpt>
      <trkpt lat="46.57407" lon="5.36235">
        <ele>212.2</ele>
        <time>2021-08-26T14:26:21Z</time>
      </trkpt>
      <trkpt lat="46.57405" lon="5.36218">
        <ele>212.8</ele>
        <time>2021-08-26T14:26:23Z</time>
      </trkpt>
      <trkpt lat="46.57402" lon="5.36201">
        <ele>213.4</ele>
        <time>2021-08-26T14:26:25Z</time>
      </trkpt>
      <trkpt lat="46.57401" lon="5.36193">
        <ele>213.6</ele>
        <time>2021-08-26T14:26:26Z</time>
      </trkpt>
      <trkpt lat="46.574" lon="5.36185">
        <ele>213.6</ele>
        <time>2021-08-26T14:26:27Z</time>
      </trkpt>
      <trkpt lat="46.57398" lon="5.36177">
        <ele>213.8</ele>
        <time>2021-08-26T14:26:28Z</time>
      </trkpt>
      <trkpt lat="46.57397" lon="5.36169">
        <ele>214.2</ele>
        <time>2021-08-26T14:26:29Z</time>
      </trkpt>
      <trkpt lat="46.57396" lon="5.36153">
        <ele>214.4</ele>
        <time>2021-08-26T14:26:31Z</time>
      </trkpt>
      <trkpt lat="46.57395" lon="5.36137">
        <ele>214.6</ele>
        <time>2021-08-26T14:26:33Z</time>
      </trkpt>
      <trkpt lat="46.57395" lon="5.36129">
        <ele>214.8</ele>
        <time>2021-08-26T14:26:34Z</time>
      </trkpt>
      <trkpt lat="46.57395" lon="5.36121">
        <ele>215.2</ele>
        <time>2021-08-26T14:26:35Z</time>
      </trkpt>
      <trkpt lat="46.57398" lon="5.36105">
        <ele>215.4</ele>
        <time>2021-08-26T14:26:37Z</time>
      </trkpt>
      <trkpt lat="46.57401" lon="5.3609">
        <ele>215.8</ele>
        <time>2021-08-26T14:26:39Z</time>
      </trkpt>
      <trkpt lat="46.57403" lon="5.36082">
        <ele>216</ele>
        <time>2021-08-26T14:26:40Z</time>
      </trkpt>
      <trkpt lat="46.57404" lon="5.36075">
        <ele>216.2</ele>
        <time>2021-08-26T14:26:41Z</time>
      </trkpt>
      <trkpt lat="46.57407" lon="5.36059">
        <ele>216.6</ele>
        <time>2021-08-26T14:26:43Z</time>
      </trkpt>
      <trkpt lat="46.57408" lon="5.36042">
        <ele>216.6</ele>
        <time>2021-08-26T14:26:45Z</time>
      </trkpt>
      <trkpt lat="46.57409" lon="5.36025">
        <ele>217.2</ele>
        <time>2021-08-26T14:26:47Z</time>
      </trkpt>
      <trkpt lat="46.57408" lon="5.36007">
        <ele>217.8</ele>
        <time>2021-08-26T14:26:49Z</time>
      </trkpt>
      <trkpt lat="46.57406" lon="5.35989">
        <ele>218</ele>
        <time>2021-08-26T14:26:51Z</time>
      </trkpt>
      <trkpt lat="46.57403" lon="5.35969">
        <ele>218</ele>
        <time>2021-08-26T14:26:53Z</time>
      </trkpt>
      <trkpt lat="46.57401" lon="5.35948">
        <ele>218.2</ele>
        <time>2021-08-26T14:26:55Z</time>
      </trkpt>
      <trkpt lat="46.57398" lon="5.35925">
        <ele>218.2</ele>
        <time>2021-08-26T14:26:57Z</time>
      </trkpt>
      <trkpt lat="46.57396" lon="5.35913">
        <ele>218.2</ele>
        <time>2021-08-26T14:26:58Z</time>
      </trkpt>
      <trkpt lat="46.57393" lon="5.35901">
        <ele>218</ele>
        <time>2021-08-26T14:26:59Z</time>
      </trkpt>
      <trkpt lat="46.5739" lon="5.35889">
        <ele>217.8</ele>
        <time>2021-08-26T14:27:00Z</time>
      </trkpt>
      <trkpt lat="46.57386" lon="5.35878">
        <ele>217.6</ele>
        <time>2021-08-26T14:27:01Z</time>
      </trkpt>
      <trkpt lat="46.5738" lon="5.35867">
        <ele>217.2</ele>
        <time>2021-08-26T14:27:02Z</time>
      </trkpt>
      <trkpt lat="46.57374" lon="5.35858">
        <ele>216.4</ele>
        <time>2021-08-26T14:27:03Z</time>
      </trkpt>
      <trkpt lat="46.57366" lon="5.35851">
        <ele>215.8</ele>
        <time>2021-08-26T14:27:04Z</time>
      </trkpt>
      <trkpt lat="46.57358" lon="5.35845">
        <ele>215.2</ele>
        <time>2021-08-26T14:27:05Z</time>
      </trkpt>
      <trkpt lat="46.57349" lon="5.35841">
        <ele>214.6</ele>
        <time>2021-08-26T14:27:06Z</time>
      </trkpt>
      <trkpt lat="46.5734" lon="5.35838">
        <ele>214.2</ele>
        <time>2021-08-26T14:27:07Z</time>
      </trkpt>
      <trkpt lat="46.57321" lon="5.35835">
        <ele>213.6</ele>
        <time>2021-08-26T14:27:09Z</time>
      </trkpt>
      <trkpt lat="46.57303" lon="5.35829">
        <ele>212.4</ele>
        <time>2021-08-26T14:27:11Z</time>
      </trkpt>
      <trkpt lat="46.57294" lon="5.35825">
        <ele>212</ele>
        <time>2021-08-26T14:27:12Z</time>
      </trkpt>
      <trkpt lat="46.57285" lon="5.3582">
        <ele>211.8</ele>
        <time>2021-08-26T14:27:13Z</time>
      </trkpt>
      <trkpt lat="46.57268" lon="5.35809">
        <ele>211.4</ele>
        <time>2021-08-26T14:27:15Z</time>
      </trkpt>
      <trkpt lat="46.5726" lon="5.35804">
        <ele>211.4</ele>
        <time>2021-08-26T14:27:16Z</time>
      </trkpt>
      <trkpt lat="46.57252" lon="5.35798">
        <ele>211.2</ele>
        <time>2021-08-26T14:27:17Z</time>
      </trkpt>
      <trkpt lat="46.57235" lon="5.35788">
        <ele>211</ele>
        <time>2021-08-26T14:27:19Z</time>
      </trkpt>
      <trkpt lat="46.57218" lon="5.35778">
        <ele>210.4</ele>
        <time>2021-08-26T14:27:21Z</time>
      </trkpt>
      <trkpt lat="46.57202" lon="5.35768">
        <ele>210.2</ele>
        <time>2021-08-26T14:27:23Z</time>
      </trkpt>
      <trkpt lat="46.57186" lon="5.35757">
        <ele>210</ele>
        <time>2021-08-26T14:27:25Z</time>
      </trkpt>
      <trkpt lat="46.5717" lon="5.35747">
        <ele>210</ele>
        <time>2021-08-26T14:27:27Z</time>
      </trkpt>
      <trkpt lat="46.57154" lon="5.35737">
        <ele>210</ele>
        <time>2021-08-26T14:27:29Z</time>
      </trkpt>
      <trkpt lat="46.57138" lon="5.35724">
        <ele>209.8</ele>
        <time>2021-08-26T14:27:31Z</time>
      </trkpt>
      <trkpt lat="46.57131" lon="5.35717">
        <ele>209.8</ele>
        <time>2021-08-26T14:27:32Z</time>
      </trkpt>
      <trkpt lat="46.57125" lon="5.3571">
        <ele>209.8</ele>
        <time>2021-08-26T14:27:33Z</time>
      </trkpt>
      <trkpt lat="46.57112" lon="5.35693">
        <ele>209.8</ele>
        <time>2021-08-26T14:27:35Z</time>
      </trkpt>
      <trkpt lat="46.57099" lon="5.35677">
        <ele>209.6</ele>
        <time>2021-08-26T14:27:37Z</time>
      </trkpt>
      <trkpt lat="46.57093" lon="5.35669">
        <ele>209.6</ele>
        <time>2021-08-26T14:27:38Z</time>
      </trkpt>
      <trkpt lat="46.57087" lon="5.35662">
        <ele>209.6</ele>
        <time>2021-08-26T14:27:39Z</time>
      </trkpt>
      <trkpt lat="46.57075" lon="5.35646">
        <ele>209.6</ele>
        <time>2021-08-26T14:27:41Z</time>
      </trkpt>
      <trkpt lat="46.57063" lon="5.3563">
        <ele>209.8</ele>
        <time>2021-08-26T14:27:43Z</time>
      </trkpt>
      <trkpt lat="46.57058" lon="5.35621">
        <ele>209.8</ele>
        <time>2021-08-26T14:27:44Z</time>
      </trkpt>
      <trkpt lat="46.57053" lon="5.3561">
        <ele>209.8</ele>
        <time>2021-08-26T14:27:45Z</time>
      </trkpt>
      <trkpt lat="46.57048" lon="5.35588">
        <ele>209.6</ele>
        <time>2021-08-26T14:27:47Z</time>
      </trkpt>
      <trkpt lat="46.57046" lon="5.35577">
        <ele>209.6</ele>
        <time>2021-08-26T14:27:48Z</time>
      </trkpt>
      <trkpt lat="46.57045" lon="5.35565">
        <ele>209.6</ele>
        <time>2021-08-26T14:27:49Z</time>
      </trkpt>
      <trkpt lat="46.57043" lon="5.35543">
        <ele>209.6</ele>
        <time>2021-08-26T14:27:51Z</time>
      </trkpt>
      <trkpt lat="46.57041" lon="5.35522">
        <ele>209.8</ele>
        <time>2021-08-26T14:27:53Z</time>
      </trkpt>
      <trkpt lat="46.57039" lon="5.35502">
        <ele>209.8</ele>
        <time>2021-08-26T14:27:55Z</time>
      </trkpt>
      <trkpt lat="46.57038" lon="5.35483">
        <ele>210</ele>
        <time>2021-08-26T14:27:57Z</time>
      </trkpt>
      <trkpt lat="46.57036" lon="5.35463">
        <ele>210.2</ele>
        <time>2021-08-26T14:27:59Z</time>
      </trkpt>
      <trkpt lat="46.57034" lon="5.35442">
        <ele>211</ele>
        <time>2021-08-26T14:28:01Z</time>
      </trkpt>
      <trkpt lat="46.5703" lon="5.35422">
        <ele>211.2</ele>
        <time>2021-08-26T14:28:03Z</time>
      </trkpt>
      <trkpt lat="46.57027" lon="5.35412">
        <ele>211.4</ele>
        <time>2021-08-26T14:28:04Z</time>
      </trkpt>
      <trkpt lat="46.57024" lon="5.35403">
        <ele>211.4</ele>
        <time>2021-08-26T14:28:05Z</time>
      </trkpt>
      <trkpt lat="46.57018" lon="5.35384">
        <ele>211.6</ele>
        <time>2021-08-26T14:28:07Z</time>
      </trkpt>
      <trkpt lat="46.57012" lon="5.35366">
        <ele>211.8</ele>
        <time>2021-08-26T14:28:09Z</time>
      </trkpt>
      <trkpt lat="46.57007" lon="5.35347">
        <ele>211.8</ele>
        <time>2021-08-26T14:28:11Z</time>
      </trkpt>
      <trkpt lat="46.57001" lon="5.35328">
        <ele>211.8</ele>
        <time>2021-08-26T14:28:13Z</time>
      </trkpt>
      <trkpt lat="46.56996" lon="5.35309">
        <ele>212</ele>
        <time>2021-08-26T14:28:15Z</time>
      </trkpt>
      <trkpt lat="46.5699" lon="5.35291">
        <ele>212.4</ele>
        <time>2021-08-26T14:28:17Z</time>
      </trkpt>
      <trkpt lat="46.56987" lon="5.35281">
        <ele>212.4</ele>
        <time>2021-08-26T14:28:18Z</time>
      </trkpt>
      <trkpt lat="46.56985" lon="5.35272">
        <ele>212.4</ele>
        <time>2021-08-26T14:28:19Z</time>
      </trkpt>
      <trkpt lat="46.56982" lon="5.35253">
        <ele>212.6</ele>
        <time>2021-08-26T14:28:21Z</time>
      </trkpt>
      <trkpt lat="46.56978" lon="5.35235">
        <ele>212.6</ele>
        <time>2021-08-26T14:28:23Z</time>
      </trkpt>
      <trkpt lat="46.56975" lon="5.35218">
        <ele>212.6</ele>
        <time>2021-08-26T14:28:25Z</time>
      </trkpt>
      <trkpt lat="46.56973" lon="5.3521">
        <ele>212.6</ele>
        <time>2021-08-26T14:28:26Z</time>
      </trkpt>
      <trkpt lat="46.5697" lon="5.35203">
        <ele>212.6</ele>
        <time>2021-08-26T14:28:27Z</time>
      </trkpt>
      <trkpt lat="46.56962" lon="5.3519">
        <ele>213</ele>
        <time>2021-08-26T14:28:29Z</time>
      </trkpt>
      <trkpt lat="46.56954" lon="5.35181">
        <ele>213.8</ele>
        <time>2021-08-26T14:28:31Z</time>
      </trkpt>
      <trkpt lat="46.56949" lon="5.35177">
        <ele>214</ele>
        <time>2021-08-26T14:28:32Z</time>
      </trkpt>
      <trkpt lat="46.56945" lon="5.35173">
        <ele>214.6</ele>
        <time>2021-08-26T14:28:33Z</time>
      </trkpt>
      <trkpt lat="46.5694" lon="5.35169">
        <ele>214.8</ele>
        <time>2021-08-26T14:28:34Z</time>
      </trkpt>
      <trkpt lat="46.56935" lon="5.35166">
        <ele>215.4</ele>
        <time>2021-08-26T14:28:35Z</time>
      </trkpt>
      <trkpt lat="46.56926" lon="5.35158">
        <ele>216</ele>
        <time>2021-08-26T14:28:37Z</time>
      </trkpt>
      <trkpt lat="46.56921" lon="5.35152">
        <ele>216.6</ele>
        <time>2021-08-26T14:28:38Z</time>
      </trkpt>
      <trkpt lat="46.56916" lon="5.35146">
        <ele>217</ele>
        <time>2021-08-26T14:28:39Z</time>
      </trkpt>
      <trkpt lat="46.56912" lon="5.3514">
        <ele>217.2</ele>
        <time>2021-08-26T14:28:40Z</time>
      </trkpt>
      <trkpt lat="46.56908" lon="5.35133">
        <ele>217.4</ele>
        <time>2021-08-26T14:28:41Z</time>
      </trkpt>
      <trkpt lat="46.569" lon="5.35117">
        <ele>217.6</ele>
        <time>2021-08-26T14:28:43Z</time>
      </trkpt>
      <trkpt lat="46.56891" lon="5.35098">
        <ele>217.6</ele>
        <time>2021-08-26T14:28:45Z</time>
      </trkpt>
      <trkpt lat="46.56881" lon="5.35079">
        <ele>217.6</ele>
        <time>2021-08-26T14:28:47Z</time>
      </trkpt>
      <trkpt lat="46.56871" lon="5.35058">
        <ele>217.6</ele>
        <time>2021-08-26T14:28:49Z</time>
      </trkpt>
      <trkpt lat="46.56861" lon="5.35035">
        <ele>217.4</ele>
        <time>2021-08-26T14:28:51Z</time>
      </trkpt>
      <trkpt lat="46.56849" lon="5.35011">
        <ele>216.8</ele>
        <time>2021-08-26T14:28:53Z</time>
      </trkpt>
      <trkpt lat="46.56838" lon="5.34986">
        <ele>215.4</ele>
        <time>2021-08-26T14:28:55Z</time>
      </trkpt>
      <trkpt lat="46.5683" lon="5.34957">
        <ele>214.4</ele>
        <time>2021-08-26T14:28:57Z</time>
      </trkpt>
      <trkpt lat="46.56823" lon="5.34926">
        <ele>213.4</ele>
        <time>2021-08-26T14:28:59Z</time>
      </trkpt>
      <trkpt lat="46.56821" lon="5.3491">
        <ele>212.4</ele>
        <time>2021-08-26T14:29:00Z</time>
      </trkpt>
      <trkpt lat="46.56818" lon="5.34895">
        <ele>211.8</ele>
        <time>2021-08-26T14:29:01Z</time>
      </trkpt>
      <trkpt lat="46.56815" lon="5.3488">
        <ele>211.2</ele>
        <time>2021-08-26T14:29:02Z</time>
      </trkpt>
      <trkpt lat="46.56812" lon="5.34865">
        <ele>210.4</ele>
        <time>2021-08-26T14:29:03Z</time>
      </trkpt>
      <trkpt lat="46.56809" lon="5.3485">
        <ele>209.6</ele>
        <time>2021-08-26T14:29:04Z</time>
      </trkpt>
      <trkpt lat="46.56806" lon="5.34835">
        <ele>208.4</ele>
        <time>2021-08-26T14:29:05Z</time>
      </trkpt>
      <trkpt lat="46.56801" lon="5.34807">
        <ele>206.8</ele>
        <time>2021-08-26T14:29:07Z</time>
      </trkpt>
      <trkpt lat="46.56795" lon="5.34779">
        <ele>205.8</ele>
        <time>2021-08-26T14:29:09Z</time>
      </trkpt>
      <trkpt lat="46.5679" lon="5.34753">
        <ele>205.4</ele>
        <time>2021-08-26T14:29:11Z</time>
      </trkpt>
      <trkpt lat="46.56785" lon="5.34728">
        <ele>205.2</ele>
        <time>2021-08-26T14:29:13Z</time>
      </trkpt>
      <trkpt lat="46.56782" lon="5.34715">
        <ele>205.2</ele>
        <time>2021-08-26T14:29:14Z</time>
      </trkpt>
      <trkpt lat="46.5678" lon="5.34703">
        <ele>205.2</ele>
        <time>2021-08-26T14:29:15Z</time>
      </trkpt>
      <trkpt lat="46.56773" lon="5.3468">
        <ele>205.2</ele>
        <time>2021-08-26T14:29:17Z</time>
      </trkpt>
      <trkpt lat="46.56768" lon="5.34669">
        <ele>205.2</ele>
        <time>2021-08-26T14:29:18Z</time>
      </trkpt>
      <trkpt lat="46.56762" lon="5.3466">
        <ele>205.2</ele>
        <time>2021-08-26T14:29:19Z</time>
      </trkpt>
      <trkpt lat="46.56746" lon="5.34652">
        <ele>205.6</ele>
        <time>2021-08-26T14:29:21Z</time>
      </trkpt>
      <trkpt lat="46.56729" lon="5.34655">
        <ele>205.8</ele>
        <time>2021-08-26T14:29:23Z</time>
      </trkpt>
      <trkpt lat="46.56721" lon="5.34659">
        <ele>206</ele>
        <time>2021-08-26T14:29:24Z</time>
      </trkpt>
      <trkpt lat="46.56713" lon="5.34664">
        <ele>206</ele>
        <time>2021-08-26T14:29:25Z</time>
      </trkpt>
      <trkpt lat="46.56697" lon="5.34669">
        <ele>206</ele>
        <time>2021-08-26T14:29:27Z</time>
      </trkpt>
      <trkpt lat="46.5668" lon="5.34674">
        <ele>206.2</ele>
        <time>2021-08-26T14:29:29Z</time>
      </trkpt>
      <trkpt lat="46.56663" lon="5.34679">
        <ele>206.2</ele>
        <time>2021-08-26T14:29:31Z</time>
      </trkpt>
      <trkpt lat="46.56648" lon="5.34686">
        <ele>206.2</ele>
        <time>2021-08-26T14:29:33Z</time>
      </trkpt>
      <trkpt lat="46.5664" lon="5.34692">
        <ele>206.2</ele>
        <time>2021-08-26T14:29:34Z</time>
      </trkpt>
      <trkpt lat="46.56634" lon="5.347">
        <ele>206.2</ele>
        <time>2021-08-26T14:29:35Z</time>
      </trkpt>
      <trkpt lat="46.56624" lon="5.34719">
        <ele>206.6</ele>
        <time>2021-08-26T14:29:37Z</time>
      </trkpt>
      <trkpt lat="46.5662" lon="5.34729">
        <ele>206.6</ele>
        <time>2021-08-26T14:29:38Z</time>
      </trkpt>
      <trkpt lat="46.56615" lon="5.34739">
        <ele>206.6</ele>
        <time>2021-08-26T14:29:39Z</time>
      </trkpt>
      <trkpt lat="46.56611" lon="5.34747">
        <ele>206.8</ele>
        <time>2021-08-26T14:29:40Z</time>
      </trkpt>
      <trkpt lat="46.56605" lon="5.34754">
        <ele>206.8</ele>
        <time>2021-08-26T14:29:41Z</time>
      </trkpt>
      <trkpt lat="46.566" lon="5.3476">
        <ele>207</ele>
        <time>2021-08-26T14:29:42Z</time>
      </trkpt>
      <trkpt lat="46.56594" lon="5.34765">
        <ele>207</ele>
        <time>2021-08-26T14:29:43Z</time>
      </trkpt>
      <trkpt lat="46.56582" lon="5.34769">
        <ele>207</ele>
        <time>2021-08-26T14:29:45Z</time>
      </trkpt>
      <trkpt lat="46.5657" lon="5.34767">
        <ele>207.2</ele>
        <time>2021-08-26T14:29:47Z</time>
      </trkpt>
      <trkpt lat="46.5656" lon="5.34762">
        <ele>207.8</ele>
        <time>2021-08-26T14:29:49Z</time>
      </trkpt>
      <trkpt lat="46.56554" lon="5.34759">
        <ele>208.4</ele>
        <time>2021-08-26T14:29:50Z</time>
      </trkpt>
      <trkpt lat="46.56549" lon="5.34756">
        <ele>208.8</ele>
        <time>2021-08-26T14:29:51Z</time>
      </trkpt>
      <trkpt lat="46.56545" lon="5.34754">
        <ele>209.4</ele>
        <time>2021-08-26T14:29:52Z</time>
      </trkpt>
      <trkpt lat="46.5654" lon="5.34752">
        <ele>209.8</ele>
        <time>2021-08-26T14:29:53Z</time>
      </trkpt>
      <trkpt lat="46.5653" lon="5.34748">
        <ele>210.6</ele>
        <time>2021-08-26T14:29:55Z</time>
      </trkpt>
      <trkpt lat="46.56521" lon="5.34743">
        <ele>211.6</ele>
        <time>2021-08-26T14:29:57Z</time>
      </trkpt>
      <trkpt lat="46.56517" lon="5.34741">
        <ele>211.8</ele>
        <time>2021-08-26T14:29:58Z</time>
      </trkpt>
      <trkpt lat="46.56512" lon="5.34739">
        <ele>212.2</ele>
        <time>2021-08-26T14:29:59Z</time>
      </trkpt>
      <trkpt lat="46.56503" lon="5.34734">
        <ele>212.8</ele>
        <time>2021-08-26T14:30:01Z</time>
      </trkpt>
      <trkpt lat="46.56499" lon="5.34732">
        <ele>213.2</ele>
        <time>2021-08-26T14:30:02Z</time>
      </trkpt>
      <trkpt lat="46.56494" lon="5.34729">
        <ele>213.4</ele>
        <time>2021-08-26T14:30:03Z</time>
      </trkpt>
      <trkpt lat="46.56485" lon="5.34723">
        <ele>214</ele>
        <time>2021-08-26T14:30:05Z</time>
      </trkpt>
      <trkpt lat="46.5648" lon="5.3472">
        <ele>214.2</ele>
        <time>2021-08-26T14:30:06Z</time>
      </trkpt>
      <trkpt lat="46.56475" lon="5.34716">
        <ele>214.6</ele>
        <time>2021-08-26T14:30:07Z</time>
      </trkpt>
      <trkpt lat="46.56465" lon="5.3471">
        <ele>215.6</ele>
        <time>2021-08-26T14:30:09Z</time>
      </trkpt>
      <trkpt lat="46.56456" lon="5.34704">
        <ele>216.2</ele>
        <time>2021-08-26T14:30:11Z</time>
      </trkpt>
      <trkpt lat="46.56448" lon="5.34699">
        <ele>216.4</ele>
        <time>2021-08-26T14:30:13Z</time>
      </trkpt>
      <trkpt lat="46.56439" lon="5.34693">
        <ele>216.6</ele>
        <time>2021-08-26T14:30:15Z</time>
      </trkpt>
      <trkpt lat="46.56434" lon="5.3469">
        <ele>216.8</ele>
        <time>2021-08-26T14:30:16Z</time>
      </trkpt>
      <trkpt lat="46.56429" lon="5.34687">
        <ele>217</ele>
        <time>2021-08-26T14:30:17Z</time>
      </trkpt>
      <trkpt lat="46.56419" lon="5.34681">
        <ele>217.6</ele>
        <time>2021-08-26T14:30:19Z</time>
      </trkpt>
      <trkpt lat="46.56414" lon="5.34679">
        <ele>217.6</ele>
        <time>2021-08-26T14:30:20Z</time>
      </trkpt>
      <trkpt lat="46.56409" lon="5.34677">
        <ele>217.8</ele>
        <time>2021-08-26T14:30:21Z</time>
      </trkpt>
      <trkpt lat="46.56404" lon="5.34675">
        <ele>217.8</ele>
        <time>2021-08-26T14:30:22Z</time>
      </trkpt>
      <trkpt lat="46.56399" lon="5.34674">
        <ele>218</ele>
        <time>2021-08-26T14:30:23Z</time>
      </trkpt>
      <trkpt lat="46.56389" lon="5.34671">
        <ele>218</ele>
        <time>2021-08-26T14:30:25Z</time>
      </trkpt>
      <trkpt lat="46.56384" lon="5.34671">
        <ele>218.2</ele>
        <time>2021-08-26T14:30:26Z</time>
      </trkpt>
      <trkpt lat="46.56379" lon="5.3467">
        <ele>218.4</ele>
        <time>2021-08-26T14:30:27Z</time>
      </trkpt>
      <trkpt lat="46.56368" lon="5.34666">
        <ele>218.8</ele>
        <time>2021-08-26T14:30:29Z</time>
      </trkpt>
      <trkpt lat="46.56363" lon="5.34664">
        <ele>219.2</ele>
        <time>2021-08-26T14:30:30Z</time>
      </trkpt>
      <trkpt lat="46.56358" lon="5.34661">
        <ele>219.6</ele>
        <time>2021-08-26T14:30:31Z</time>
      </trkpt>
      <trkpt lat="46.56353" lon="5.34658">
        <ele>219.8</ele>
        <time>2021-08-26T14:30:32Z</time>
      </trkpt>
      <trkpt lat="46.56347" lon="5.34656">
        <ele>220</ele>
        <time>2021-08-26T14:30:33Z</time>
      </trkpt>
      <trkpt lat="46.56337" lon="5.3465">
        <ele>220.2</ele>
        <time>2021-08-26T14:30:35Z</time>
      </trkpt>
      <trkpt lat="46.56331" lon="5.34648">
        <ele>220.6</ele>
        <time>2021-08-26T14:30:36Z</time>
      </trkpt>
      <trkpt lat="46.56325" lon="5.34646">
        <ele>220.6</ele>
        <time>2021-08-26T14:30:37Z</time>
      </trkpt>
      <trkpt lat="46.56313" lon="5.34644">
        <ele>221</ele>
        <time>2021-08-26T14:30:39Z</time>
      </trkpt>
      <trkpt lat="46.56299" lon="5.34644">
        <ele>221</ele>
        <time>2021-08-26T14:30:41Z</time>
      </trkpt>
      <trkpt lat="46.56283" lon="5.34645">
        <ele>221</ele>
        <time>2021-08-26T14:30:43Z</time>
      </trkpt>
      <trkpt lat="46.56275" lon="5.34647">
        <ele>221</ele>
        <time>2021-08-26T14:30:44Z</time>
      </trkpt>
      <trkpt lat="46.56267" lon="5.34649">
        <ele>221</ele>
        <time>2021-08-26T14:30:45Z</time>
      </trkpt>
      <trkpt lat="46.5625" lon="5.34654">
        <ele>221</ele>
        <time>2021-08-26T14:30:47Z</time>
      </trkpt>
      <trkpt lat="46.56233" lon="5.34658">
        <ele>220.6</ele>
        <time>2021-08-26T14:30:49Z</time>
      </trkpt>
      <trkpt lat="46.56224" lon="5.34661">
        <ele>220.2</ele>
        <time>2021-08-26T14:30:50Z</time>
      </trkpt>
      <trkpt lat="46.56215" lon="5.34663">
        <ele>219.8</ele>
        <time>2021-08-26T14:30:51Z</time>
      </trkpt>
      <trkpt lat="46.56205" lon="5.34666">
        <ele>219.2</ele>
        <time>2021-08-26T14:30:52Z</time>
      </trkpt>
      <trkpt lat="46.56196" lon="5.34669">
        <ele>218.8</ele>
        <time>2021-08-26T14:30:53Z</time>
      </trkpt>
      <trkpt lat="46.56186" lon="5.34672">
        <ele>218</ele>
        <time>2021-08-26T14:30:54Z</time>
      </trkpt>
      <trkpt lat="46.56177" lon="5.34674">
        <ele>217.4</ele>
        <time>2021-08-26T14:30:55Z</time>
      </trkpt>
      <trkpt lat="46.56167" lon="5.34675">
        <ele>217.2</ele>
        <time>2021-08-26T14:30:56Z</time>
      </trkpt>
      <trkpt lat="46.56156" lon="5.34676">
        <ele>217</ele>
        <time>2021-08-26T14:30:57Z</time>
      </trkpt>
      <trkpt lat="46.56146" lon="5.34676">
        <ele>216.8</ele>
        <time>2021-08-26T14:30:58Z</time>
      </trkpt>
      <trkpt lat="46.56136" lon="5.34675">
        <ele>216.8</ele>
        <time>2021-08-26T14:30:59Z</time>
      </trkpt>
      <trkpt lat="46.56115" lon="5.34672">
        <ele>215.8</ele>
        <time>2021-08-26T14:31:01Z</time>
      </trkpt>
      <trkpt lat="46.56094" lon="5.34667">
        <ele>214.6</ele>
        <time>2021-08-26T14:31:03Z</time>
      </trkpt>
      <trkpt lat="46.56072" lon="5.34662">
        <ele>213.2</ele>
        <time>2021-08-26T14:31:05Z</time>
      </trkpt>
      <trkpt lat="46.56052" lon="5.34657">
        <ele>212</ele>
        <time>2021-08-26T14:31:07Z</time>
      </trkpt>
      <trkpt lat="46.56032" lon="5.34651">
        <ele>211</ele>
        <time>2021-08-26T14:31:09Z</time>
      </trkpt>
      <trkpt lat="46.56012" lon="5.34647">
        <ele>210.4</ele>
        <time>2021-08-26T14:31:11Z</time>
      </trkpt>
      <trkpt lat="46.55994" lon="5.34643">
        <ele>210</ele>
        <time>2021-08-26T14:31:13Z</time>
      </trkpt>
      <trkpt lat="46.55985" lon="5.34641">
        <ele>209.8</ele>
        <time>2021-08-26T14:31:14Z</time>
      </trkpt>
      <trkpt lat="46.55976" lon="5.34638">
        <ele>209.8</ele>
        <time>2021-08-26T14:31:15Z</time>
      </trkpt>
      <trkpt lat="46.55958" lon="5.34634">
        <ele>209.6</ele>
        <time>2021-08-26T14:31:17Z</time>
      </trkpt>
      <trkpt lat="46.5594" lon="5.34629">
        <ele>209.4</ele>
        <time>2021-08-26T14:31:19Z</time>
      </trkpt>
      <trkpt lat="46.55922" lon="5.34624">
        <ele>209.2</ele>
        <time>2021-08-26T14:31:21Z</time>
      </trkpt>
      <trkpt lat="46.55904" lon="5.3462">
        <ele>209.2</ele>
        <time>2021-08-26T14:31:23Z</time>
      </trkpt>
      <trkpt lat="46.55887" lon="5.34615">
        <ele>209.2</ele>
        <time>2021-08-26T14:31:25Z</time>
      </trkpt>
      <trkpt lat="46.55871" lon="5.34611">
        <ele>209.4</ele>
        <time>2021-08-26T14:31:27Z</time>
      </trkpt>
      <trkpt lat="46.55863" lon="5.34609">
        <ele>209.4</ele>
        <time>2021-08-26T14:31:28Z</time>
      </trkpt>
      <trkpt lat="46.55856" lon="5.34608">
        <ele>209.6</ele>
        <time>2021-08-26T14:31:29Z</time>
      </trkpt>
      <trkpt lat="46.5584" lon="5.34604">
        <ele>209.8</ele>
        <time>2021-08-26T14:31:31Z</time>
      </trkpt>
      <trkpt lat="46.55825" lon="5.346">
        <ele>210.4</ele>
        <time>2021-08-26T14:31:33Z</time>
      </trkpt>
      <trkpt lat="46.5581" lon="5.34596">
        <ele>210.8</ele>
        <time>2021-08-26T14:31:35Z</time>
      </trkpt>
      <trkpt lat="46.55794" lon="5.34593">
        <ele>210.8</ele>
        <time>2021-08-26T14:31:37Z</time>
      </trkpt>
      <trkpt lat="46.55786" lon="5.34591">
        <ele>210.8</ele>
        <time>2021-08-26T14:31:38Z</time>
      </trkpt>
      <trkpt lat="46.55778" lon="5.34588">
        <ele>211</ele>
        <time>2021-08-26T14:31:39Z</time>
      </trkpt>
      <trkpt lat="46.55763" lon="5.34584">
        <ele>211</ele>
        <time>2021-08-26T14:31:41Z</time>
      </trkpt>
      <trkpt lat="46.55748" lon="5.3458">
        <ele>211</ele>
        <time>2021-08-26T14:31:43Z</time>
      </trkpt>
      <trkpt lat="46.55734" lon="5.34577">
        <ele>211</ele>
        <time>2021-08-26T14:31:45Z</time>
      </trkpt>
      <trkpt lat="46.55721" lon="5.34574">
        <ele>211.2</ele>
        <time>2021-08-26T14:31:47Z</time>
      </trkpt>
      <trkpt lat="46.55709" lon="5.34572">
        <ele>211.2</ele>
        <time>2021-08-26T14:31:49Z</time>
      </trkpt>
      <trkpt lat="46.55697" lon="5.3457">
        <ele>211.6</ele>
        <time>2021-08-26T14:31:51Z</time>
      </trkpt>
      <trkpt lat="46.55691" lon="5.3457">
        <ele>212</ele>
        <time>2021-08-26T14:31:52Z</time>
      </trkpt>
      <trkpt lat="46.55686" lon="5.3457">
        <ele>212.4</ele>
        <time>2021-08-26T14:31:53Z</time>
      </trkpt>
      <trkpt lat="46.5568" lon="5.34571">
        <ele>213</ele>
        <time>2021-08-26T14:31:54Z</time>
      </trkpt>
      <trkpt lat="46.55674" lon="5.34571">
        <ele>213.2</ele>
        <time>2021-08-26T14:31:55Z</time>
      </trkpt>
      <trkpt lat="46.55669" lon="5.34571">
        <ele>213.6</ele>
        <time>2021-08-26T14:31:56Z</time>
      </trkpt>
      <trkpt lat="46.55663" lon="5.34571">
        <ele>214</ele>
        <time>2021-08-26T14:31:57Z</time>
      </trkpt>
      <trkpt lat="46.55653" lon="5.34572">
        <ele>215</ele>
        <time>2021-08-26T14:31:59Z</time>
      </trkpt>
      <trkpt lat="46.55647" lon="5.34572">
        <ele>215.6</ele>
        <time>2021-08-26T14:32:00Z</time>
      </trkpt>
      <trkpt lat="46.55642" lon="5.34571">
        <ele>215.8</ele>
        <time>2021-08-26T14:32:01Z</time>
      </trkpt>
      <trkpt lat="46.55632" lon="5.3457">
        <ele>216.6</ele>
        <time>2021-08-26T14:32:03Z</time>
      </trkpt>
      <trkpt lat="46.55627" lon="5.34569">
        <ele>216.8</ele>
        <time>2021-08-26T14:32:04Z</time>
      </trkpt>
      <trkpt lat="46.55623" lon="5.34568">
        <ele>217.4</ele>
        <time>2021-08-26T14:32:05Z</time>
      </trkpt>
      <trkpt lat="46.55618" lon="5.34566">
        <ele>217.6</ele>
        <time>2021-08-26T14:32:06Z</time>
      </trkpt>
      <trkpt lat="46.55613" lon="5.34565">
        <ele>217.8</ele>
        <time>2021-08-26T14:32:07Z</time>
      </trkpt>
      <trkpt lat="46.55605" lon="5.34562">
        <ele>218.6</ele>
        <time>2021-08-26T14:32:09Z</time>
      </trkpt>
      <trkpt lat="46.556" lon="5.3456">
        <ele>218.8</ele>
        <time>2021-08-26T14:32:10Z</time>
      </trkpt>
      <trkpt lat="46.55596" lon="5.34558">
        <ele>219.2</ele>
        <time>2021-08-26T14:32:11Z</time>
      </trkpt>
      <trkpt lat="46.55592" lon="5.34556">
        <ele>219.6</ele>
        <time>2021-08-26T14:32:12Z</time>
      </trkpt>
      <trkpt lat="46.55587" lon="5.34555">
        <ele>220.2</ele>
        <time>2021-08-26T14:32:13Z</time>
      </trkpt>
      <trkpt lat="46.55578" lon="5.34551">
        <ele>220.8</ele>
        <time>2021-08-26T14:32:15Z</time>
      </trkpt>
      <trkpt lat="46.55568" lon="5.34548">
        <ele>221.2</ele>
        <time>2021-08-26T14:32:17Z</time>
      </trkpt>
      <trkpt lat="46.55564" lon="5.34547">
        <ele>221.4</ele>
        <time>2021-08-26T14:32:18Z</time>
      </trkpt>
      <trkpt lat="46.55559" lon="5.34545">
        <ele>222</ele>
        <time>2021-08-26T14:32:19Z</time>
      </trkpt>
      <trkpt lat="46.5555" lon="5.34542">
        <ele>222.6</ele>
        <time>2021-08-26T14:32:21Z</time>
      </trkpt>
      <trkpt lat="46.55545" lon="5.34539">
        <ele>222.8</ele>
        <time>2021-08-26T14:32:22Z</time>
      </trkpt>
      <trkpt lat="46.55539" lon="5.34537">
        <ele>223</ele>
        <time>2021-08-26T14:32:23Z</time>
      </trkpt>
      <trkpt lat="46.55529" lon="5.3453">
        <ele>223.4</ele>
        <time>2021-08-26T14:32:25Z</time>
      </trkpt>
      <trkpt lat="46.55518" lon="5.34523">
        <ele>223.6</ele>
        <time>2021-08-26T14:32:27Z</time>
      </trkpt>
      <trkpt lat="46.55508" lon="5.34515">
        <ele>223.8</ele>
        <time>2021-08-26T14:32:29Z</time>
      </trkpt>
      <trkpt lat="46.55498" lon="5.34507">
        <ele>223.8</ele>
        <time>2021-08-26T14:32:31Z</time>
      </trkpt>
      <trkpt lat="46.55488" lon="5.34498">
        <ele>224</ele>
        <time>2021-08-26T14:32:33Z</time>
      </trkpt>
      <trkpt lat="46.55477" lon="5.34487">
        <ele>224.2</ele>
        <time>2021-08-26T14:32:35Z</time>
      </trkpt>
      <trkpt lat="46.55467" lon="5.34476">
        <ele>224.2</ele>
        <time>2021-08-26T14:32:37Z</time>
      </trkpt>
      <trkpt lat="46.55455" lon="5.34464">
        <ele>224.2</ele>
        <time>2021-08-26T14:32:39Z</time>
      </trkpt>
      <trkpt lat="46.55443" lon="5.34453">
        <ele>224.2</ele>
        <time>2021-08-26T14:32:41Z</time>
      </trkpt>
      <trkpt lat="46.55432" lon="5.3444">
        <ele>224</ele>
        <time>2021-08-26T14:32:43Z</time>
      </trkpt>
      <trkpt lat="46.5542" lon="5.34428">
        <ele>224</ele>
        <time>2021-08-26T14:32:45Z</time>
      </trkpt>
      <trkpt lat="46.55408" lon="5.34415">
        <ele>223.8</ele>
        <time>2021-08-26T14:32:47Z</time>
      </trkpt>
      <trkpt lat="46.55396" lon="5.34403">
        <ele>223.8</ele>
        <time>2021-08-26T14:32:49Z</time>
      </trkpt>
      <trkpt lat="46.55385" lon="5.34391">
        <ele>223.8</ele>
        <time>2021-08-26T14:32:51Z</time>
      </trkpt>
      <trkpt lat="46.55379" lon="5.34385">
        <ele>223.8</ele>
        <time>2021-08-26T14:32:52Z</time>
      </trkpt>
      <trkpt lat="46.55373" lon="5.34378">
        <ele>223.8</ele>
        <time>2021-08-26T14:32:53Z</time>
      </trkpt>
      <trkpt lat="46.55362" lon="5.34366">
        <ele>223.8</ele>
        <time>2021-08-26T14:32:55Z</time>
      </trkpt>
      <trkpt lat="46.55351" lon="5.34354">
        <ele>223.8</ele>
        <time>2021-08-26T14:32:57Z</time>
      </trkpt>
      <trkpt lat="46.55339" lon="5.34342">
        <ele>223.8</ele>
        <time>2021-08-26T14:32:59Z</time>
      </trkpt>
      <trkpt lat="46.55328" lon="5.3433">
        <ele>224</ele>
        <time>2021-08-26T14:33:01Z</time>
      </trkpt>
      <trkpt lat="46.55323" lon="5.34324">
        <ele>224.2</ele>
        <time>2021-08-26T14:33:02Z</time>
      </trkpt>
      <trkpt lat="46.55317" lon="5.34318">
        <ele>224.4</ele>
        <time>2021-08-26T14:33:03Z</time>
      </trkpt>
      <trkpt lat="46.55307" lon="5.34304">
        <ele>224.6</ele>
        <time>2021-08-26T14:33:05Z</time>
      </trkpt>
      <trkpt lat="46.55302" lon="5.34298">
        <ele>224.6</ele>
        <time>2021-08-26T14:33:06Z</time>
      </trkpt>
      <trkpt lat="46.55297" lon="5.34293">
        <ele>224.6</ele>
        <time>2021-08-26T14:33:07Z</time>
      </trkpt>
      <trkpt lat="46.55288" lon="5.34281">
        <ele>224.8</ele>
        <time>2021-08-26T14:33:09Z</time>
      </trkpt>
      <trkpt lat="46.55278" lon="5.34269">
        <ele>225.2</ele>
        <time>2021-08-26T14:33:11Z</time>
      </trkpt>
      <trkpt lat="46.55268" lon="5.34259">
        <ele>225.4</ele>
        <time>2021-08-26T14:33:13Z</time>
      </trkpt>
      <trkpt lat="46.55263" lon="5.34253">
        <ele>225.6</ele>
        <time>2021-08-26T14:33:14Z</time>
      </trkpt>
      <trkpt lat="46.55259" lon="5.34247">
        <ele>226</ele>
        <time>2021-08-26T14:33:15Z</time>
      </trkpt>
      <trkpt lat="46.5525" lon="5.34233">
        <ele>226.6</ele>
        <time>2021-08-26T14:33:17Z</time>
      </trkpt>
      <trkpt lat="46.55246" lon="5.34225">
        <ele>227</ele>
        <time>2021-08-26T14:33:18Z</time>
      </trkpt>
      <trkpt lat="46.55243" lon="5.34217">
        <ele>227.2</ele>
        <time>2021-08-26T14:33:19Z</time>
      </trkpt>
      <trkpt lat="46.55239" lon="5.34199">
        <ele>227.6</ele>
        <time>2021-08-26T14:33:21Z</time>
      </trkpt>
      <trkpt lat="46.55238" lon="5.34191">
        <ele>227.6</ele>
        <time>2021-08-26T14:33:22Z</time>
      </trkpt>
      <trkpt lat="46.55237" lon="5.34182">
        <ele>227.6</ele>
        <time>2021-08-26T14:33:23Z</time>
      </trkpt>
      <trkpt lat="46.55234" lon="5.34165">
        <ele>227.8</ele>
        <time>2021-08-26T14:33:25Z</time>
      </trkpt>
      <trkpt lat="46.55231" lon="5.34147">
        <ele>228</ele>
        <time>2021-08-26T14:33:27Z</time>
      </trkpt>
      <trkpt lat="46.55229" lon="5.34139">
        <ele>228.2</ele>
        <time>2021-08-26T14:33:28Z</time>
      </trkpt>
      <trkpt lat="46.55227" lon="5.3413">
        <ele>228.4</ele>
        <time>2021-08-26T14:33:29Z</time>
      </trkpt>
      <trkpt lat="46.55221" lon="5.34112">
        <ele>229</ele>
        <time>2021-08-26T14:33:31Z</time>
      </trkpt>
      <trkpt lat="46.55217" lon="5.34104">
        <ele>229.2</ele>
        <time>2021-08-26T14:33:32Z</time>
      </trkpt>
      <trkpt lat="46.55214" lon="5.34095">
        <ele>229.4</ele>
        <time>2021-08-26T14:33:33Z</time>
      </trkpt>
      <trkpt lat="46.55205" lon="5.34078">
        <ele>229.6</ele>
        <time>2021-08-26T14:33:35Z</time>
      </trkpt>
      <trkpt lat="46.55198" lon="5.3406">
        <ele>229.6</ele>
        <time>2021-08-26T14:33:37Z</time>
      </trkpt>
      <trkpt lat="46.5519" lon="5.3404">
        <ele>229.6</ele>
        <time>2021-08-26T14:33:39Z</time>
      </trkpt>
      <trkpt lat="46.55187" lon="5.34029">
        <ele>229.6</ele>
        <time>2021-08-26T14:33:40Z</time>
      </trkpt>
      <trkpt lat="46.55185" lon="5.34017">
        <ele>229.6</ele>
        <time>2021-08-26T14:33:41Z</time>
      </trkpt>
      <trkpt lat="46.55183" lon="5.34004">
        <ele>229.6</ele>
        <time>2021-08-26T14:33:42Z</time>
      </trkpt>
      <trkpt lat="46.55179" lon="5.33992">
        <ele>229.6</ele>
        <time>2021-08-26T14:33:43Z</time>
      </trkpt>
      <trkpt lat="46.55175" lon="5.3398">
        <ele>229.4</ele>
        <time>2021-08-26T14:33:44Z</time>
      </trkpt>
      <trkpt lat="46.55169" lon="5.33969">
        <ele>229.4</ele>
        <time>2021-08-26T14:33:45Z</time>
      </trkpt>
      <trkpt lat="46.55158" lon="5.33946">
        <ele>228.8</ele>
        <time>2021-08-26T14:33:47Z</time>
      </trkpt>
      <trkpt lat="46.55144" lon="5.33923">
        <ele>228</ele>
        <time>2021-08-26T14:33:49Z</time>
      </trkpt>
      <trkpt lat="46.55131" lon="5.33902">
        <ele>226.8</ele>
        <time>2021-08-26T14:33:51Z</time>
      </trkpt>
      <trkpt lat="46.55116" lon="5.33881">
        <ele>225.8</ele>
        <time>2021-08-26T14:33:53Z</time>
      </trkpt>
      <trkpt lat="46.55102" lon="5.3386">
        <ele>223.8</ele>
        <time>2021-08-26T14:33:55Z</time>
      </trkpt>
      <trkpt lat="46.55094" lon="5.3385">
        <ele>223</ele>
        <time>2021-08-26T14:33:56Z</time>
      </trkpt>
      <trkpt lat="46.55086" lon="5.3384">
        <ele>222.2</ele>
        <time>2021-08-26T14:33:57Z</time>
      </trkpt>
      <trkpt lat="46.55069" lon="5.33823">
        <ele>221</ele>
        <time>2021-08-26T14:33:59Z</time>
      </trkpt>
      <trkpt lat="46.55059" lon="5.33815">
        <ele>220.8</ele>
        <time>2021-08-26T14:34:00Z</time>
      </trkpt>
      <trkpt lat="46.5505" lon="5.33809">
        <ele>220.6</ele>
        <time>2021-08-26T14:34:01Z</time>
      </trkpt>
      <trkpt lat="46.55031" lon="5.33798">
        <ele>219.8</ele>
        <time>2021-08-26T14:34:03Z</time>
      </trkpt>
      <trkpt lat="46.55021" lon="5.33793">
        <ele>219.4</ele>
        <time>2021-08-26T14:34:04Z</time>
      </trkpt>
      <trkpt lat="46.55011" lon="5.33789">
        <ele>218.8</ele>
        <time>2021-08-26T14:34:05Z</time>
      </trkpt>
      <trkpt lat="46.55001" lon="5.33786">
        <ele>218.6</ele>
        <time>2021-08-26T14:34:06Z</time>
      </trkpt>
      <trkpt lat="46.54991" lon="5.33783">
        <ele>218.4</ele>
        <time>2021-08-26T14:34:07Z</time>
      </trkpt>
      <trkpt lat="46.5497" lon="5.33778">
        <ele>218.2</ele>
        <time>2021-08-26T14:34:09Z</time>
      </trkpt>
      <trkpt lat="46.54949" lon="5.33773">
        <ele>218</ele>
        <time>2021-08-26T14:34:11Z</time>
      </trkpt>
      <trkpt lat="46.54929" lon="5.33769">
        <ele>217.8</ele>
        <time>2021-08-26T14:34:13Z</time>
      </trkpt>
      <trkpt lat="46.54909" lon="5.33767">
        <ele>217.4</ele>
        <time>2021-08-26T14:34:15Z</time>
      </trkpt>
      <trkpt lat="46.549" lon="5.33767">
        <ele>217.2</ele>
        <time>2021-08-26T14:34:16Z</time>
      </trkpt>
      <trkpt lat="46.5489" lon="5.33768">
        <ele>217.2</ele>
        <time>2021-08-26T14:34:17Z</time>
      </trkpt>
      <trkpt lat="46.54872" lon="5.33771">
        <ele>217.2</ele>
        <time>2021-08-26T14:34:19Z</time>
      </trkpt>
      <trkpt lat="46.54854" lon="5.33774">
        <ele>217.2</ele>
        <time>2021-08-26T14:34:21Z</time>
      </trkpt>
      <trkpt lat="46.54837" lon="5.33776">
        <ele>217.2</ele>
        <time>2021-08-26T14:34:23Z</time>
      </trkpt>
      <trkpt lat="46.5482" lon="5.33777">
        <ele>217.2</ele>
        <time>2021-08-26T14:34:25Z</time>
      </trkpt>
      <trkpt lat="46.54804" lon="5.33776">
        <ele>217.4</ele>
        <time>2021-08-26T14:34:27Z</time>
      </trkpt>
      <trkpt lat="46.54797" lon="5.33775">
        <ele>217.6</ele>
        <time>2021-08-26T14:34:28Z</time>
      </trkpt>
      <trkpt lat="46.54789" lon="5.33774">
        <ele>217.8</ele>
        <time>2021-08-26T14:34:29Z</time>
      </trkpt>
      <trkpt lat="46.54774" lon="5.33774">
        <ele>218.2</ele>
        <time>2021-08-26T14:34:31Z</time>
      </trkpt>
      <trkpt lat="46.54767" lon="5.33774">
        <ele>218.6</ele>
        <time>2021-08-26T14:34:32Z</time>
      </trkpt>
      <trkpt lat="46.5476" lon="5.33774">
        <ele>218.8</ele>
        <time>2021-08-26T14:34:33Z</time>
      </trkpt>
      <trkpt lat="46.54746" lon="5.33774">
        <ele>219.4</ele>
        <time>2021-08-26T14:34:35Z</time>
      </trkpt>
      <trkpt lat="46.5474" lon="5.33774">
        <ele>219.6</ele>
        <time>2021-08-26T14:34:36Z</time>
      </trkpt>
      <trkpt lat="46.54733" lon="5.33775">
        <ele>219.8</ele>
        <time>2021-08-26T14:34:37Z</time>
      </trkpt>
      <trkpt lat="46.5472" lon="5.33777">
        <ele>220.2</ele>
        <time>2021-08-26T14:34:39Z</time>
      </trkpt>
      <trkpt lat="46.54713" lon="5.33779">
        <ele>220.6</ele>
        <time>2021-08-26T14:34:40Z</time>
      </trkpt>
      <trkpt lat="46.54707" lon="5.3378">
        <ele>221</ele>
        <time>2021-08-26T14:34:41Z</time>
      </trkpt>
      <trkpt lat="46.54695" lon="5.33783">
        <ele>221.6</ele>
        <time>2021-08-26T14:34:43Z</time>
      </trkpt>
      <trkpt lat="46.54683" lon="5.33785">
        <ele>222</ele>
        <time>2021-08-26T14:34:45Z</time>
      </trkpt>
      <trkpt lat="46.54671" lon="5.33785">
        <ele>222.8</ele>
        <time>2021-08-26T14:34:47Z</time>
      </trkpt>
      <trkpt lat="46.54658" lon="5.33784">
        <ele>223</ele>
        <time>2021-08-26T14:34:49Z</time>
      </trkpt>
      <trkpt lat="46.54653" lon="5.33783">
        <ele>223.4</ele>
        <time>2021-08-26T14:34:50Z</time>
      </trkpt>
      <trkpt lat="46.54647" lon="5.33783">
        <ele>224</ele>
        <time>2021-08-26T14:34:51Z</time>
      </trkpt>
      <trkpt lat="46.54636" lon="5.3378">
        <ele>224.8</ele>
        <time>2021-08-26T14:34:53Z</time>
      </trkpt>
      <trkpt lat="46.54625" lon="5.33778">
        <ele>225</ele>
        <time>2021-08-26T14:34:55Z</time>
      </trkpt>
      <trkpt lat="46.54613" lon="5.33775">
        <ele>225.6</ele>
        <time>2021-08-26T14:34:57Z</time>
      </trkpt>
      <trkpt lat="46.54599" lon="5.33771">
        <ele>226</ele>
        <time>2021-08-26T14:34:59Z</time>
      </trkpt>
      <trkpt lat="46.54585" lon="5.33766">
        <ele>226.2</ele>
        <time>2021-08-26T14:35:01Z</time>
      </trkpt>
      <trkpt lat="46.54569" lon="5.3376">
        <ele>226.2</ele>
        <time>2021-08-26T14:35:03Z</time>
      </trkpt>
      <trkpt lat="46.54553" lon="5.33751">
        <ele>226.2</ele>
        <time>2021-08-26T14:35:05Z</time>
      </trkpt>
      <trkpt lat="46.54535" lon="5.33742">
        <ele>226.2</ele>
        <time>2021-08-26T14:35:07Z</time>
      </trkpt>
      <trkpt lat="46.54526" lon="5.33738">
        <ele>226</ele>
        <time>2021-08-26T14:35:08Z</time>
      </trkpt>
      <trkpt lat="46.54517" lon="5.33733">
        <ele>225.8</ele>
        <time>2021-08-26T14:35:09Z</time>
      </trkpt>
      <trkpt lat="46.54497" lon="5.33723">
        <ele>225.4</ele>
        <time>2021-08-26T14:35:11Z</time>
      </trkpt>
      <trkpt lat="46.54487" lon="5.33718">
        <ele>224.8</ele>
        <time>2021-08-26T14:35:12Z</time>
      </trkpt>
      <trkpt lat="46.54477" lon="5.33713">
        <ele>224.2</ele>
        <time>2021-08-26T14:35:13Z</time>
      </trkpt>
      <trkpt lat="46.54467" lon="5.33708">
        <ele>223.2</ele>
        <time>2021-08-26T14:35:14Z</time>
      </trkpt>
      <trkpt lat="46.54456" lon="5.33703">
        <ele>222</ele>
        <time>2021-08-26T14:35:15Z</time>
      </trkpt>
      <trkpt lat="46.54435" lon="5.33694">
        <ele>220.6</ele>
        <time>2021-08-26T14:35:17Z</time>
      </trkpt>
      <trkpt lat="46.54413" lon="5.33684">
        <ele>218.8</ele>
        <time>2021-08-26T14:35:19Z</time>
      </trkpt>
      <trkpt lat="46.5439" lon="5.33674">
        <ele>217.2</ele>
        <time>2021-08-26T14:35:21Z</time>
      </trkpt>
      <trkpt lat="46.54379" lon="5.33668">
        <ele>216.4</ele>
        <time>2021-08-26T14:35:22Z</time>
      </trkpt>
      <trkpt lat="46.54367" lon="5.33664">
        <ele>215.8</ele>
        <time>2021-08-26T14:35:23Z</time>
      </trkpt>
      <trkpt lat="46.54344" lon="5.33659">
        <ele>214.2</ele>
        <time>2021-08-26T14:35:25Z</time>
      </trkpt>
      <trkpt lat="46.54333" lon="5.33657">
        <ele>213.4</ele>
        <time>2021-08-26T14:35:26Z</time>
      </trkpt>
      <trkpt lat="46.54323" lon="5.33656">
        <ele>212.8</ele>
        <time>2021-08-26T14:35:27Z</time>
      </trkpt>
      <trkpt lat="46.54303" lon="5.33653">
        <ele>212.4</ele>
        <time>2021-08-26T14:35:29Z</time>
      </trkpt>
      <trkpt lat="46.54284" lon="5.33651">
        <ele>212.2</ele>
        <time>2021-08-26T14:35:31Z</time>
      </trkpt>
      <trkpt lat="46.54266" lon="5.3365">
        <ele>212.2</ele>
        <time>2021-08-26T14:35:33Z</time>
      </trkpt>
      <trkpt lat="46.54249" lon="5.33649">
        <ele>212.2</ele>
        <time>2021-08-26T14:35:35Z</time>
      </trkpt>
      <trkpt lat="46.54232" lon="5.33648">
        <ele>212.2</ele>
        <time>2021-08-26T14:35:37Z</time>
      </trkpt>
      <trkpt lat="46.54213" lon="5.33646">
        <ele>213.2</ele>
        <time>2021-08-26T14:35:39Z</time>
      </trkpt>
      <trkpt lat="46.54193" lon="5.33645">
        <ele>213.8</ele>
        <time>2021-08-26T14:35:41Z</time>
      </trkpt>
      <trkpt lat="46.54183" lon="5.33645">
        <ele>213.8</ele>
        <time>2021-08-26T14:35:42Z</time>
      </trkpt>
      <trkpt lat="46.54173" lon="5.33644">
        <ele>213.8</ele>
        <time>2021-08-26T14:35:43Z</time>
      </trkpt>
      <trkpt lat="46.54153" lon="5.33642">
        <ele>213.8</ele>
        <time>2021-08-26T14:35:45Z</time>
      </trkpt>
      <trkpt lat="46.54132" lon="5.33637">
        <ele>213.8</ele>
        <time>2021-08-26T14:35:47Z</time>
      </trkpt>
      <trkpt lat="46.54122" lon="5.33632">
        <ele>213.8</ele>
        <time>2021-08-26T14:35:48Z</time>
      </trkpt>
      <trkpt lat="46.54112" lon="5.33628">
        <ele>213.8</ele>
        <time>2021-08-26T14:35:49Z</time>
      </trkpt>
      <trkpt lat="46.54093" lon="5.33617">
        <ele>213.2</ele>
        <time>2021-08-26T14:35:51Z</time>
      </trkpt>
      <trkpt lat="46.54083" lon="5.33611">
        <ele>212.8</ele>
        <time>2021-08-26T14:35:52Z</time>
      </trkpt>
      <trkpt lat="46.54074" lon="5.33605">
        <ele>212</ele>
        <time>2021-08-26T14:35:53Z</time>
      </trkpt>
      <trkpt lat="46.54065" lon="5.33599">
        <ele>211.4</ele>
        <time>2021-08-26T14:35:54Z</time>
      </trkpt>
      <trkpt lat="46.54056" lon="5.33593">
        <ele>211</ele>
        <time>2021-08-26T14:35:55Z</time>
      </trkpt>
      <trkpt lat="46.54039" lon="5.33582">
        <ele>210.2</ele>
        <time>2021-08-26T14:35:57Z</time>
      </trkpt>
      <trkpt lat="46.54023" lon="5.33573">
        <ele>210</ele>
        <time>2021-08-26T14:35:59Z</time>
      </trkpt>
      <trkpt lat="46.54016" lon="5.3357">
        <ele>210</ele>
        <time>2021-08-26T14:36:00Z</time>
      </trkpt>
      <trkpt lat="46.54009" lon="5.33567">
        <ele>210</ele>
        <time>2021-08-26T14:36:01Z</time>
      </trkpt>
      <trkpt lat="46.53995" lon="5.33564">
        <ele>210</ele>
        <time>2021-08-26T14:36:03Z</time>
      </trkpt>
      <trkpt lat="46.53984" lon="5.33563">
        <ele>210</ele>
        <time>2021-08-26T14:36:05Z</time>
      </trkpt>
      <trkpt lat="46.53973" lon="5.33562">
        <ele>210.6</ele>
        <time>2021-08-26T14:36:07Z</time>
      </trkpt>
      <trkpt lat="46.53968" lon="5.33561">
        <ele>211</ele>
        <time>2021-08-26T14:36:08Z</time>
      </trkpt>
      <trkpt lat="46.53963" lon="5.3356">
        <ele>211.8</ele>
        <time>2021-08-26T14:36:09Z</time>
      </trkpt>
      <trkpt lat="46.53953" lon="5.3356">
        <ele>213.4</ele>
        <time>2021-08-26T14:36:11Z</time>
      </trkpt>
      <trkpt lat="46.53949" lon="5.33559">
        <ele>214.4</ele>
        <time>2021-08-26T14:36:12Z</time>
      </trkpt>
      <trkpt lat="46.53944" lon="5.33558">
        <ele>215</ele>
        <time>2021-08-26T14:36:13Z</time>
      </trkpt>
      <trkpt lat="46.5394" lon="5.33558">
        <ele>215.6</ele>
        <time>2021-08-26T14:36:14Z</time>
      </trkpt>
      <trkpt lat="46.53935" lon="5.33558">
        <ele>216</ele>
        <time>2021-08-26T14:36:15Z</time>
      </trkpt>
      <trkpt lat="46.53931" lon="5.33557">
        <ele>216.4</ele>
        <time>2021-08-26T14:36:16Z</time>
      </trkpt>
      <trkpt lat="46.53926" lon="5.33557">
        <ele>216.8</ele>
        <time>2021-08-26T14:36:17Z</time>
      </trkpt>
      <trkpt lat="46.53917" lon="5.33556">
        <ele>217.4</ele>
        <time>2021-08-26T14:36:19Z</time>
      </trkpt>
      <trkpt lat="46.53912" lon="5.33556">
        <ele>217.8</ele>
        <time>2021-08-26T14:36:20Z</time>
      </trkpt>
      <trkpt lat="46.53907" lon="5.33555">
        <ele>218</ele>
        <time>2021-08-26T14:36:21Z</time>
      </trkpt>
      <trkpt lat="46.53898" lon="5.33554">
        <ele>218.6</ele>
        <time>2021-08-26T14:36:23Z</time>
      </trkpt>
      <trkpt lat="46.53894" lon="5.33554">
        <ele>218.8</ele>
        <time>2021-08-26T14:36:24Z</time>
      </trkpt>
      <trkpt lat="46.53889" lon="5.33553">
        <ele>219</ele>
        <time>2021-08-26T14:36:25Z</time>
      </trkpt>
      <trkpt lat="46.53885" lon="5.33553">
        <ele>219.4</ele>
        <time>2021-08-26T14:36:26Z</time>
      </trkpt>
      <trkpt lat="46.5388" lon="5.33552">
        <ele>219.8</ele>
        <time>2021-08-26T14:36:27Z</time>
      </trkpt>
      <trkpt lat="46.53874" lon="5.33552">
        <ele>220</ele>
        <time>2021-08-26T14:36:28Z</time>
      </trkpt>
      <trkpt lat="46.53869" lon="5.33552">
        <ele>220.2</ele>
        <time>2021-08-26T14:36:29Z</time>
      </trkpt>
      <trkpt lat="46.5386" lon="5.33549">
        <ele>220.8</ele>
        <time>2021-08-26T14:36:31Z</time>
      </trkpt>
      <trkpt lat="46.53855" lon="5.33547">
        <ele>221</ele>
        <time>2021-08-26T14:36:32Z</time>
      </trkpt>
      <trkpt lat="46.53851" lon="5.33546">
        <ele>221.4</ele>
        <time>2021-08-26T14:36:33Z</time>
      </trkpt>
      <trkpt lat="46.53841" lon="5.33541">
        <ele>222</ele>
        <time>2021-08-26T14:36:35Z</time>
      </trkpt>
      <trkpt lat="46.53836" lon="5.33539">
        <ele>222.2</ele>
        <time>2021-08-26T14:36:36Z</time>
      </trkpt>
      <trkpt lat="46.53831" lon="5.33536">
        <ele>222.4</ele>
        <time>2021-08-26T14:36:37Z</time>
      </trkpt>
      <trkpt lat="46.53821" lon="5.33531">
        <ele>223</ele>
        <time>2021-08-26T14:36:39Z</time>
      </trkpt>
      <trkpt lat="46.5381" lon="5.33525">
        <ele>223.2</ele>
        <time>2021-08-26T14:36:41Z</time>
      </trkpt>
      <trkpt lat="46.53799" lon="5.33519">
        <ele>223.6</ele>
        <time>2021-08-26T14:36:43Z</time>
      </trkpt>
      <trkpt lat="46.53788" lon="5.33512">
        <ele>223.8</ele>
        <time>2021-08-26T14:36:45Z</time>
      </trkpt>
      <trkpt lat="46.53777" lon="5.33505">
        <ele>223.8</ele>
        <time>2021-08-26T14:36:47Z</time>
      </trkpt>
      <trkpt lat="46.53767" lon="5.33498">
        <ele>224</ele>
        <time>2021-08-26T14:36:49Z</time>
      </trkpt>
      <trkpt lat="46.53758" lon="5.3349">
        <ele>224</ele>
        <time>2021-08-26T14:36:51Z</time>
      </trkpt>
      <trkpt lat="46.53753" lon="5.33487">
        <ele>224</ele>
        <time>2021-08-26T14:36:52Z</time>
      </trkpt>
      <trkpt lat="46.53747" lon="5.33485">
        <ele>224</ele>
        <time>2021-08-26T14:36:53Z</time>
      </trkpt>
      <trkpt lat="46.53737" lon="5.3348">
        <ele>224.2</ele>
        <time>2021-08-26T14:36:55Z</time>
      </trkpt>
      <trkpt lat="46.53732" lon="5.33478">
        <ele>224.4</ele>
        <time>2021-08-26T14:36:56Z</time>
      </trkpt>
      <trkpt lat="46.53727" lon="5.33476">
        <ele>224.8</ele>
        <time>2021-08-26T14:36:57Z</time>
      </trkpt>
      <trkpt lat="46.53719" lon="5.3347">
        <ele>225.2</ele>
        <time>2021-08-26T14:36:59Z</time>
      </trkpt>
      <trkpt lat="46.53715" lon="5.33467">
        <ele>225.4</ele>
        <time>2021-08-26T14:37:00Z</time>
      </trkpt>
      <trkpt lat="46.53713" lon="5.33465">
        <ele>225.6</ele>
        <time>2021-08-26T14:37:01Z</time>
      </trkpt>
      <trkpt lat="46.53709" lon="5.33461">
        <ele>225.6</ele>
        <time>2021-08-26T14:37:03Z</time>
      </trkpt>
      <trkpt lat="46.53704" lon="5.33459">
        <ele>226</ele>
        <time>2021-08-26T14:37:05Z</time>
      </trkpt>
      <trkpt lat="46.537" lon="5.3346">
        <ele>226.2</ele>
        <time>2021-08-26T14:37:06Z</time>
      </trkpt>
      <trkpt lat="46.53696" lon="5.33463">
        <ele>226.6</ele>
        <time>2021-08-26T14:37:07Z</time>
      </trkpt>
      <trkpt lat="46.53692" lon="5.33467">
        <ele>226.8</ele>
        <time>2021-08-26T14:37:08Z</time>
      </trkpt>
      <trkpt lat="46.53688" lon="5.33472">
        <ele>227.2</ele>
        <time>2021-08-26T14:37:09Z</time>
      </trkpt>
      <trkpt lat="46.53678" lon="5.33482">
        <ele>227.4</ele>
        <time>2021-08-26T14:37:11Z</time>
      </trkpt>
      <trkpt lat="46.53667" lon="5.33492">
        <ele>227.4</ele>
        <time>2021-08-26T14:37:13Z</time>
      </trkpt>
      <trkpt lat="46.53656" lon="5.33503">
        <ele>227.4</ele>
        <time>2021-08-26T14:37:15Z</time>
      </trkpt>
      <trkpt lat="46.53644" lon="5.33512">
        <ele>227.4</ele>
        <time>2021-08-26T14:37:17Z</time>
      </trkpt>
      <trkpt lat="46.53637" lon="5.33513">
        <ele>227.4</ele>
        <time>2021-08-26T14:37:18Z</time>
      </trkpt>
      <trkpt lat="46.5363" lon="5.3351">
        <ele>227.2</ele>
        <time>2021-08-26T14:37:19Z</time>
      </trkpt>
      <trkpt lat="46.53624" lon="5.33504">
        <ele>227.2</ele>
        <time>2021-08-26T14:37:20Z</time>
      </trkpt>
      <trkpt lat="46.53619" lon="5.33496">
        <ele>227.2</ele>
        <time>2021-08-26T14:37:21Z</time>
      </trkpt>
      <trkpt lat="46.53614" lon="5.33489">
        <ele>227</ele>
        <time>2021-08-26T14:37:22Z</time>
      </trkpt>
      <trkpt lat="46.53609" lon="5.33481">
        <ele>226.6</ele>
        <time>2021-08-26T14:37:23Z</time>
      </trkpt>
      <trkpt lat="46.53598" lon="5.33465">
        <ele>226</ele>
        <time>2021-08-26T14:37:25Z</time>
      </trkpt>
      <trkpt lat="46.53593" lon="5.33457">
        <ele>226</ele>
        <time>2021-08-26T14:37:26Z</time>
      </trkpt>
      <trkpt lat="46.53588" lon="5.3345">
        <ele>225.8</ele>
        <time>2021-08-26T14:37:27Z</time>
      </trkpt>
      <trkpt lat="46.53577" lon="5.33436">
        <ele>225.8</ele>
        <time>2021-08-26T14:37:29Z</time>
      </trkpt>
      <trkpt lat="46.53567" lon="5.33421">
        <ele>225.8</ele>
        <time>2021-08-26T14:37:31Z</time>
      </trkpt>
      <trkpt lat="46.53557" lon="5.33407">
        <ele>225.8</ele>
        <time>2021-08-26T14:37:33Z</time>
      </trkpt>
      <trkpt lat="46.53547" lon="5.33393">
        <ele>226.2</ele>
        <time>2021-08-26T14:37:35Z</time>
      </trkpt>
      <trkpt lat="46.53538" lon="5.33379">
        <ele>226.6</ele>
        <time>2021-08-26T14:37:37Z</time>
      </trkpt>
      <trkpt lat="46.53528" lon="5.33366">
        <ele>227.2</ele>
        <time>2021-08-26T14:37:39Z</time>
      </trkpt>
      <trkpt lat="46.53518" lon="5.33353">
        <ele>227.8</ele>
        <time>2021-08-26T14:37:41Z</time>
      </trkpt>
      <trkpt lat="46.53513" lon="5.33346">
        <ele>228</ele>
        <time>2021-08-26T14:37:42Z</time>
      </trkpt>
      <trkpt lat="46.53509" lon="5.3334">
        <ele>228.2</ele>
        <time>2021-08-26T14:37:43Z</time>
      </trkpt>
      <trkpt lat="46.53499" lon="5.33326">
        <ele>228.8</ele>
        <time>2021-08-26T14:37:45Z</time>
      </trkpt>
      <trkpt lat="46.53489" lon="5.33313">
        <ele>229.2</ele>
        <time>2021-08-26T14:37:47Z</time>
      </trkpt>
      <trkpt lat="46.53479" lon="5.33299">
        <ele>229.6</ele>
        <time>2021-08-26T14:37:49Z</time>
      </trkpt>
      <trkpt lat="46.53469" lon="5.33284">
        <ele>229.8</ele>
        <time>2021-08-26T14:37:51Z</time>
      </trkpt>
      <trkpt lat="46.53458" lon="5.33269">
        <ele>230</ele>
        <time>2021-08-26T14:37:53Z</time>
      </trkpt>
      <trkpt lat="46.53453" lon="5.33262">
        <ele>230</ele>
        <time>2021-08-26T14:37:54Z</time>
      </trkpt>
      <trkpt lat="46.53447" lon="5.33254">
        <ele>230</ele>
        <time>2021-08-26T14:37:55Z</time>
      </trkpt>
      <trkpt lat="46.53436" lon="5.33239">
        <ele>230.2</ele>
        <time>2021-08-26T14:37:57Z</time>
      </trkpt>
      <trkpt lat="46.53426" lon="5.33224">
        <ele>230.2</ele>
        <time>2021-08-26T14:37:59Z</time>
      </trkpt>
      <trkpt lat="46.53415" lon="5.33208">
        <ele>230.2</ele>
        <time>2021-08-26T14:38:01Z</time>
      </trkpt>
      <trkpt lat="46.5341" lon="5.33201">
        <ele>230</ele>
        <time>2021-08-26T14:38:02Z</time>
      </trkpt>
      <trkpt lat="46.53404" lon="5.33193">
        <ele>230</ele>
        <time>2021-08-26T14:38:03Z</time>
      </trkpt>
      <trkpt lat="46.53393" lon="5.33178">
        <ele>230</ele>
        <time>2021-08-26T14:38:05Z</time>
      </trkpt>
      <trkpt lat="46.53383" lon="5.33163">
        <ele>230</ele>
        <time>2021-08-26T14:38:07Z</time>
      </trkpt>
      <trkpt lat="46.53371" lon="5.33148">
        <ele>229.8</ele>
        <time>2021-08-26T14:38:09Z</time>
      </trkpt>
      <trkpt lat="46.53361" lon="5.33133">
        <ele>229.8</ele>
        <time>2021-08-26T14:38:11Z</time>
      </trkpt>
      <trkpt lat="46.53355" lon="5.33125">
        <ele>229.8</ele>
        <time>2021-08-26T14:38:12Z</time>
      </trkpt>
      <trkpt lat="46.53349" lon="5.33117">
        <ele>229.6</ele>
        <time>2021-08-26T14:38:13Z</time>
      </trkpt>
      <trkpt lat="46.53338" lon="5.33102">
        <ele>229.6</ele>
        <time>2021-08-26T14:38:15Z</time>
      </trkpt>
      <trkpt lat="46.53327" lon="5.33087">
        <ele>229.6</ele>
        <time>2021-08-26T14:38:17Z</time>
      </trkpt>
      <trkpt lat="46.53316" lon="5.33072">
        <ele>229.6</ele>
        <time>2021-08-26T14:38:19Z</time>
      </trkpt>
      <trkpt lat="46.53305" lon="5.33057">
        <ele>229.6</ele>
        <time>2021-08-26T14:38:21Z</time>
      </trkpt>
      <trkpt lat="46.53294" lon="5.33042">
        <ele>229.6</ele>
        <time>2021-08-26T14:38:23Z</time>
      </trkpt>
      <trkpt lat="46.53284" lon="5.33024">
        <ele>229.6</ele>
        <time>2021-08-26T14:38:25Z</time>
      </trkpt>
      <trkpt lat="46.53274" lon="5.33007">
        <ele>229.6</ele>
        <time>2021-08-26T14:38:27Z</time>
      </trkpt>
      <trkpt lat="46.53264" lon="5.32988">
        <ele>229.6</ele>
        <time>2021-08-26T14:38:29Z</time>
      </trkpt>
      <trkpt lat="46.53259" lon="5.32978">
        <ele>229.6</ele>
        <time>2021-08-26T14:38:30Z</time>
      </trkpt>
      <trkpt lat="46.53255" lon="5.32968">
        <ele>229.4</ele>
        <time>2021-08-26T14:38:31Z</time>
      </trkpt>
      <trkpt lat="46.53244" lon="5.32948">
        <ele>229.4</ele>
        <time>2021-08-26T14:38:33Z</time>
      </trkpt>
      <trkpt lat="46.53234" lon="5.32926">
        <ele>229</ele>
        <time>2021-08-26T14:38:35Z</time>
      </trkpt>
      <trkpt lat="46.53229" lon="5.32916">
        <ele>228.8</ele>
        <time>2021-08-26T14:38:36Z</time>
      </trkpt>
      <trkpt lat="46.53223" lon="5.32905">
        <ele>228.4</ele>
        <time>2021-08-26T14:38:37Z</time>
      </trkpt>
      <trkpt lat="46.53211" lon="5.32882">
        <ele>227.8</ele>
        <time>2021-08-26T14:38:39Z</time>
      </trkpt>
      <trkpt lat="46.53199" lon="5.32859">
        <ele>226.8</ele>
        <time>2021-08-26T14:38:41Z</time>
      </trkpt>
      <trkpt lat="46.53193" lon="5.32847">
        <ele>226.4</ele>
        <time>2021-08-26T14:38:42Z</time>
      </trkpt>
      <trkpt lat="46.53186" lon="5.32835">
        <ele>226.2</ele>
        <time>2021-08-26T14:38:43Z</time>
      </trkpt>
      <trkpt lat="46.53173" lon="5.32811">
        <ele>225.4</ele>
        <time>2021-08-26T14:38:45Z</time>
      </trkpt>
      <trkpt lat="46.5316" lon="5.32787">
        <ele>224.6</ele>
        <time>2021-08-26T14:38:47Z</time>
      </trkpt>
      <trkpt lat="46.53152" lon="5.32776">
        <ele>224</ele>
        <time>2021-08-26T14:38:48Z</time>
      </trkpt>
      <trkpt lat="46.53144" lon="5.32764">
        <ele>223.4</ele>
        <time>2021-08-26T14:38:49Z</time>
      </trkpt>
      <trkpt lat="46.53136" lon="5.32753">
        <ele>222.8</ele>
        <time>2021-08-26T14:38:50Z</time>
      </trkpt>
      <trkpt lat="46.53127" lon="5.32743">
        <ele>222.4</ele>
        <time>2021-08-26T14:38:51Z</time>
      </trkpt>
      <trkpt lat="46.53118" lon="5.32732">
        <ele>221.8</ele>
        <time>2021-08-26T14:38:52Z</time>
      </trkpt>
      <trkpt lat="46.53109" lon="5.32722">
        <ele>221.2</ele>
        <time>2021-08-26T14:38:53Z</time>
      </trkpt>
      <trkpt lat="46.5309" lon="5.32702">
        <ele>220.4</ele>
        <time>2021-08-26T14:38:55Z</time>
      </trkpt>
      <trkpt lat="46.53071" lon="5.3268">
        <ele>219.2</ele>
        <time>2021-08-26T14:38:57Z</time>
      </trkpt>
      <trkpt lat="46.53052" lon="5.32659">
        <ele>216.8</ele>
        <time>2021-08-26T14:38:59Z</time>
      </trkpt>
      <trkpt lat="46.53033" lon="5.32638">
        <ele>215.6</ele>
        <time>2021-08-26T14:39:01Z</time>
      </trkpt>
      <trkpt lat="46.53013" lon="5.32617">
        <ele>214</ele>
        <time>2021-08-26T14:39:03Z</time>
      </trkpt>
      <trkpt lat="46.53003" lon="5.32606">
        <ele>213.4</ele>
        <time>2021-08-26T14:39:04Z</time>
      </trkpt>
      <trkpt lat="46.52993" lon="5.32595">
        <ele>212.6</ele>
        <time>2021-08-26T14:39:05Z</time>
      </trkpt>
      <trkpt lat="46.52973" lon="5.32575">
        <ele>211</ele>
        <time>2021-08-26T14:39:07Z</time>
      </trkpt>
      <trkpt lat="46.52953" lon="5.32555">
        <ele>209.6</ele>
        <time>2021-08-26T14:39:09Z</time>
      </trkpt>
      <trkpt lat="46.52934" lon="5.32536">
        <ele>208.2</ele>
        <time>2021-08-26T14:39:11Z</time>
      </trkpt>
      <trkpt lat="46.52915" lon="5.32517">
        <ele>207</ele>
        <time>2021-08-26T14:39:13Z</time>
      </trkpt>
      <trkpt lat="46.52897" lon="5.32498">
        <ele>205.8</ele>
        <time>2021-08-26T14:39:15Z</time>
      </trkpt>
      <trkpt lat="46.5288" lon="5.3248">
        <ele>205</ele>
        <time>2021-08-26T14:39:17Z</time>
      </trkpt>
      <trkpt lat="46.52871" lon="5.32472">
        <ele>204.8</ele>
        <time>2021-08-26T14:39:18Z</time>
      </trkpt>
      <trkpt lat="46.52863" lon="5.32464">
        <ele>204.6</ele>
        <time>2021-08-26T14:39:19Z</time>
      </trkpt>
      <trkpt lat="46.52847" lon="5.32447">
        <ele>204.6</ele>
        <time>2021-08-26T14:39:21Z</time>
      </trkpt>
      <trkpt lat="46.52832" lon="5.32431">
        <ele>204.6</ele>
        <time>2021-08-26T14:39:23Z</time>
      </trkpt>
      <trkpt lat="46.52816" lon="5.32415">
        <ele>204.6</ele>
        <time>2021-08-26T14:39:25Z</time>
      </trkpt>
      <trkpt lat="46.52809" lon="5.32407">
        <ele>204.6</ele>
        <time>2021-08-26T14:39:26Z</time>
      </trkpt>
      <trkpt lat="46.52802" lon="5.32399">
        <ele>204.8</ele>
        <time>2021-08-26T14:39:27Z</time>
      </trkpt>
      <trkpt lat="46.52787" lon="5.32383">
        <ele>205</ele>
        <time>2021-08-26T14:39:29Z</time>
      </trkpt>
      <trkpt lat="46.52774" lon="5.32368">
        <ele>205.2</ele>
        <time>2021-08-26T14:39:31Z</time>
      </trkpt>
      <trkpt lat="46.5276" lon="5.32352">
        <ele>205.4</ele>
        <time>2021-08-26T14:39:33Z</time>
      </trkpt>
      <trkpt lat="46.52753" lon="5.32345">
        <ele>205.4</ele>
        <time>2021-08-26T14:39:34Z</time>
      </trkpt>
      <trkpt lat="46.52746" lon="5.32336">
        <ele>205.4</ele>
        <time>2021-08-26T14:39:35Z</time>
      </trkpt>
      <trkpt lat="46.52733" lon="5.3232">
        <ele>205.4</ele>
        <time>2021-08-26T14:39:37Z</time>
      </trkpt>
      <trkpt lat="46.5272" lon="5.32303">
        <ele>205.4</ele>
        <time>2021-08-26T14:39:39Z</time>
      </trkpt>
      <trkpt lat="46.52707" lon="5.32287">
        <ele>205.6</ele>
        <time>2021-08-26T14:39:41Z</time>
      </trkpt>
      <trkpt lat="46.527" lon="5.32279">
        <ele>205.6</ele>
        <time>2021-08-26T14:39:42Z</time>
      </trkpt>
      <trkpt lat="46.52694" lon="5.32271">
        <ele>205.6</ele>
        <time>2021-08-26T14:39:43Z</time>
      </trkpt>
      <trkpt lat="46.5268" lon="5.32256">
        <ele>205.8</ele>
        <time>2021-08-26T14:39:45Z</time>
      </trkpt>
      <trkpt lat="46.52667" lon="5.32242">
        <ele>205.8</ele>
        <time>2021-08-26T14:39:47Z</time>
      </trkpt>
      <trkpt lat="46.52653" lon="5.32231">
        <ele>206</ele>
        <time>2021-08-26T14:39:49Z</time>
      </trkpt>
      <trkpt lat="46.52639" lon="5.32221">
        <ele>206</ele>
        <time>2021-08-26T14:39:51Z</time>
      </trkpt>
      <trkpt lat="46.52626" lon="5.32214">
        <ele>206</ele>
        <time>2021-08-26T14:39:53Z</time>
      </trkpt>
      <trkpt lat="46.52613" lon="5.32207">
        <ele>206.4</ele>
        <time>2021-08-26T14:39:55Z</time>
      </trkpt>
      <trkpt lat="46.526" lon="5.32202">
        <ele>206.8</ele>
        <time>2021-08-26T14:39:57Z</time>
      </trkpt>
      <trkpt lat="46.52594" lon="5.32199">
        <ele>207</ele>
        <time>2021-08-26T14:39:58Z</time>
      </trkpt>
      <trkpt lat="46.52588" lon="5.32196">
        <ele>207.2</ele>
        <time>2021-08-26T14:39:59Z</time>
      </trkpt>
      <trkpt lat="46.52578" lon="5.3219">
        <ele>208</ele>
        <time>2021-08-26T14:40:01Z</time>
      </trkpt>
      <trkpt lat="46.52572" lon="5.32187">
        <ele>208.4</ele>
        <time>2021-08-26T14:40:02Z</time>
      </trkpt>
      <trkpt lat="46.52567" lon="5.32184">
        <ele>208.6</ele>
        <time>2021-08-26T14:40:03Z</time>
      </trkpt>
      <trkpt lat="46.52556" lon="5.32178">
        <ele>209</ele>
        <time>2021-08-26T14:40:05Z</time>
      </trkpt>
      <trkpt lat="46.52551" lon="5.32174">
        <ele>209.4</ele>
        <time>2021-08-26T14:40:06Z</time>
      </trkpt>
      <trkpt lat="46.52546" lon="5.3217">
        <ele>209.8</ele>
        <time>2021-08-26T14:40:07Z</time>
      </trkpt>
      <trkpt lat="46.52537" lon="5.32161">
        <ele>210.6</ele>
        <time>2021-08-26T14:40:09Z</time>
      </trkpt>
      <trkpt lat="46.52528" lon="5.32152">
        <ele>211.6</ele>
        <time>2021-08-26T14:40:11Z</time>
      </trkpt>
      <trkpt lat="46.52519" lon="5.32142">
        <ele>212.4</ele>
        <time>2021-08-26T14:40:13Z</time>
      </trkpt>
      <trkpt lat="46.52514" lon="5.32137">
        <ele>212.8</ele>
        <time>2021-08-26T14:40:14Z</time>
      </trkpt>
      <trkpt lat="46.5251" lon="5.32132">
        <ele>213.2</ele>
        <time>2021-08-26T14:40:15Z</time>
      </trkpt>
      <trkpt lat="46.52503" lon="5.3212">
        <ele>213.6</ele>
        <time>2021-08-26T14:40:17Z</time>
      </trkpt>
      <trkpt lat="46.52494" lon="5.32108">
        <ele>214</ele>
        <time>2021-08-26T14:40:19Z</time>
      </trkpt>
      <trkpt lat="46.52491" lon="5.32101">
        <ele>214.2</ele>
        <time>2021-08-26T14:40:20Z</time>
      </trkpt>
      <trkpt lat="46.52488" lon="5.32095">
        <ele>214.4</ele>
        <time>2021-08-26T14:40:21Z</time>
      </trkpt>
      <trkpt lat="46.5248" lon="5.32084">
        <ele>215.4</ele>
        <time>2021-08-26T14:40:23Z</time>
      </trkpt>
      <trkpt lat="46.52473" lon="5.32073">
        <ele>215.8</ele>
        <time>2021-08-26T14:40:25Z</time>
      </trkpt>
      <trkpt lat="46.52465" lon="5.32061">
        <ele>216.2</ele>
        <time>2021-08-26T14:40:27Z</time>
      </trkpt>
      <trkpt lat="46.52461" lon="5.32056">
        <ele>216.6</ele>
        <time>2021-08-26T14:40:28Z</time>
      </trkpt>
      <trkpt lat="46.52457" lon="5.3205">
        <ele>216.6</ele>
        <time>2021-08-26T14:40:29Z</time>
      </trkpt>
      <trkpt lat="46.52449" lon="5.32039">
        <ele>217</ele>
        <time>2021-08-26T14:40:31Z</time>
      </trkpt>
      <trkpt lat="46.52441" lon="5.32028">
        <ele>217.4</ele>
        <time>2021-08-26T14:40:33Z</time>
      </trkpt>
      <trkpt lat="46.52433" lon="5.32018">
        <ele>217.6</ele>
        <time>2021-08-26T14:40:35Z</time>
      </trkpt>
      <trkpt lat="46.52425" lon="5.32006">
        <ele>217.8</ele>
        <time>2021-08-26T14:40:37Z</time>
      </trkpt>
      <trkpt lat="46.52421" lon="5.32001">
        <ele>218</ele>
        <time>2021-08-26T14:40:38Z</time>
      </trkpt>
      <trkpt lat="46.52417" lon="5.31995">
        <ele>218</ele>
        <time>2021-08-26T14:40:39Z</time>
      </trkpt>
      <trkpt lat="46.52409" lon="5.31984">
        <ele>218.6</ele>
        <time>2021-08-26T14:40:41Z</time>
      </trkpt>
      <trkpt lat="46.52406" lon="5.31979">
        <ele>218.6</ele>
        <time>2021-08-26T14:40:42Z</time>
      </trkpt>
      <trkpt lat="46.52402" lon="5.31974">
        <ele>218.8</ele>
        <time>2021-08-26T14:40:43Z</time>
      </trkpt>
      <trkpt lat="46.52394" lon="5.31962">
        <ele>219.2</ele>
        <time>2021-08-26T14:40:45Z</time>
      </trkpt>
      <trkpt lat="46.52386" lon="5.31952">
        <ele>219.4</ele>
        <time>2021-08-26T14:40:47Z</time>
      </trkpt>
      <trkpt lat="46.52378" lon="5.31941">
        <ele>219.8</ele>
        <time>2021-08-26T14:40:49Z</time>
      </trkpt>
      <trkpt lat="46.5237" lon="5.31931">
        <ele>220.4</ele>
        <time>2021-08-26T14:40:51Z</time>
      </trkpt>
      <trkpt lat="46.52363" lon="5.3192">
        <ele>220.8</ele>
        <time>2021-08-26T14:40:53Z</time>
      </trkpt>
      <trkpt lat="46.52358" lon="5.31914">
        <ele>221</ele>
        <time>2021-08-26T14:40:54Z</time>
      </trkpt>
      <trkpt lat="46.52355" lon="5.31909">
        <ele>221.2</ele>
        <time>2021-08-26T14:40:55Z</time>
      </trkpt>
      <trkpt lat="46.52346" lon="5.31897">
        <ele>221.6</ele>
        <time>2021-08-26T14:40:57Z</time>
      </trkpt>
      <trkpt lat="46.52342" lon="5.31891">
        <ele>221.8</ele>
        <time>2021-08-26T14:40:58Z</time>
      </trkpt>
      <trkpt lat="46.52338" lon="5.31884">
        <ele>222.2</ele>
        <time>2021-08-26T14:40:59Z</time>
      </trkpt>
      <trkpt lat="46.52333" lon="5.31878">
        <ele>222.2</ele>
        <time>2021-08-26T14:41:00Z</time>
      </trkpt>
      <trkpt lat="46.52328" lon="5.31871">
        <ele>222.2</ele>
        <time>2021-08-26T14:41:01Z</time>
      </trkpt>
      <trkpt lat="46.52318" lon="5.31856">
        <ele>222.4</ele>
        <time>2021-08-26T14:41:03Z</time>
      </trkpt>
      <trkpt lat="46.52307" lon="5.31841">
        <ele>222.4</ele>
        <time>2021-08-26T14:41:05Z</time>
      </trkpt>
      <trkpt lat="46.52301" lon="5.31833">
        <ele>222.4</ele>
        <time>2021-08-26T14:41:06Z</time>
      </trkpt>
      <trkpt lat="46.52296" lon="5.31825">
        <ele>222.4</ele>
        <time>2021-08-26T14:41:07Z</time>
      </trkpt>
      <trkpt lat="46.52284" lon="5.31808">
        <ele>222.2</ele>
        <time>2021-08-26T14:41:09Z</time>
      </trkpt>
      <trkpt lat="46.52272" lon="5.31791">
        <ele>221.8</ele>
        <time>2021-08-26T14:41:11Z</time>
      </trkpt>
      <trkpt lat="46.5226" lon="5.31773">
        <ele>221</ele>
        <time>2021-08-26T14:41:13Z</time>
      </trkpt>
      <trkpt lat="46.52253" lon="5.31764">
        <ele>220.8</ele>
        <time>2021-08-26T14:41:14Z</time>
      </trkpt>
      <trkpt lat="46.52247" lon="5.31755">
        <ele>220.4</ele>
        <time>2021-08-26T14:41:15Z</time>
      </trkpt>
      <trkpt lat="46.52234" lon="5.31737">
        <ele>219.8</ele>
        <time>2021-08-26T14:41:17Z</time>
      </trkpt>
      <trkpt lat="46.52228" lon="5.31728">
        <ele>219</ele>
        <time>2021-08-26T14:41:18Z</time>
      </trkpt>
      <trkpt lat="46.52221" lon="5.31719">
        <ele>218.6</ele>
        <time>2021-08-26T14:41:19Z</time>
      </trkpt>
      <trkpt lat="46.52209" lon="5.317">
        <ele>218</ele>
        <time>2021-08-26T14:41:21Z</time>
      </trkpt>
      <trkpt lat="46.52196" lon="5.31682">
        <ele>217.2</ele>
        <time>2021-08-26T14:41:23Z</time>
      </trkpt>
      <trkpt lat="46.52183" lon="5.31663">
        <ele>216.6</ele>
        <time>2021-08-26T14:41:25Z</time>
      </trkpt>
      <trkpt lat="46.5217" lon="5.31645">
        <ele>216.2</ele>
        <time>2021-08-26T14:41:27Z</time>
      </trkpt>
      <trkpt lat="46.52156" lon="5.31626">
        <ele>215.8</ele>
        <time>2021-08-26T14:41:29Z</time>
      </trkpt>
      <trkpt lat="46.5215" lon="5.31616">
        <ele>215.6</ele>
        <time>2021-08-26T14:41:30Z</time>
      </trkpt>
      <trkpt lat="46.52143" lon="5.31606">
        <ele>215.4</ele>
        <time>2021-08-26T14:41:31Z</time>
      </trkpt>
      <trkpt lat="46.52129" lon="5.31587">
        <ele>214.8</ele>
        <time>2021-08-26T14:41:33Z</time>
      </trkpt>
      <trkpt lat="46.52122" lon="5.31577">
        <ele>214.6</ele>
        <time>2021-08-26T14:41:34Z</time>
      </trkpt>
      <trkpt lat="46.52115" lon="5.31567">
        <ele>214.4</ele>
        <time>2021-08-26T14:41:35Z</time>
      </trkpt>
      <trkpt lat="46.52101" lon="5.31547">
        <ele>213.8</ele>
        <time>2021-08-26T14:41:37Z</time>
      </trkpt>
      <trkpt lat="46.52087" lon="5.31527">
        <ele>213.2</ele>
        <time>2021-08-26T14:41:39Z</time>
      </trkpt>
      <trkpt lat="46.52072" lon="5.31506">
        <ele>212.6</ele>
        <time>2021-08-26T14:41:41Z</time>
      </trkpt>
      <trkpt lat="46.52058" lon="5.31486">
        <ele>212</ele>
        <time>2021-08-26T14:41:43Z</time>
      </trkpt>
      <trkpt lat="46.52043" lon="5.31465">
        <ele>211.2</ele>
        <time>2021-08-26T14:41:45Z</time>
      </trkpt>
      <trkpt lat="46.52036" lon="5.31455">
        <ele>210.6</ele>
        <time>2021-08-26T14:41:46Z</time>
      </trkpt>
      <trkpt lat="46.5203" lon="5.31444">
        <ele>210.2</ele>
        <time>2021-08-26T14:41:47Z</time>
      </trkpt>
      <trkpt lat="46.52016" lon="5.31423">
        <ele>209.6</ele>
        <time>2021-08-26T14:41:49Z</time>
      </trkpt>
      <trkpt lat="46.52009" lon="5.31413">
        <ele>209.4</ele>
        <time>2021-08-26T14:41:50Z</time>
      </trkpt>
      <trkpt lat="46.52002" lon="5.31403">
        <ele>209.2</ele>
        <time>2021-08-26T14:41:51Z</time>
      </trkpt>
      <trkpt lat="46.51988" lon="5.31382">
        <ele>208.6</ele>
        <time>2021-08-26T14:41:53Z</time>
      </trkpt>
      <trkpt lat="46.51974" lon="5.31362">
        <ele>208.2</ele>
        <time>2021-08-26T14:41:55Z</time>
      </trkpt>
      <trkpt lat="46.51961" lon="5.31343">
        <ele>207.8</ele>
        <time>2021-08-26T14:41:57Z</time>
      </trkpt>
      <trkpt lat="46.51948" lon="5.31324">
        <ele>207.6</ele>
        <time>2021-08-26T14:41:59Z</time>
      </trkpt>
      <trkpt lat="46.51935" lon="5.31304">
        <ele>207.2</ele>
        <time>2021-08-26T14:42:01Z</time>
      </trkpt>
      <trkpt lat="46.51922" lon="5.31286">
        <ele>207</ele>
        <time>2021-08-26T14:42:03Z</time>
      </trkpt>
      <trkpt lat="46.51909" lon="5.31267">
        <ele>207</ele>
        <time>2021-08-26T14:42:05Z</time>
      </trkpt>
      <trkpt lat="46.51897" lon="5.31248">
        <ele>207</ele>
        <time>2021-08-26T14:42:07Z</time>
      </trkpt>
      <trkpt lat="46.51891" lon="5.31239">
        <ele>207</ele>
        <time>2021-08-26T14:42:08Z</time>
      </trkpt>
      <trkpt lat="46.51885" lon="5.31229">
        <ele>207</ele>
        <time>2021-08-26T14:42:09Z</time>
      </trkpt>
      <trkpt lat="46.51872" lon="5.31212">
        <ele>206.8</ele>
        <time>2021-08-26T14:42:11Z</time>
      </trkpt>
      <trkpt lat="46.51859" lon="5.31196">
        <ele>206.8</ele>
        <time>2021-08-26T14:42:13Z</time>
      </trkpt>
      <trkpt lat="46.51852" lon="5.31189">
        <ele>206.8</ele>
        <time>2021-08-26T14:42:14Z</time>
      </trkpt>
      <trkpt lat="46.51845" lon="5.31183">
        <ele>206.8</ele>
        <time>2021-08-26T14:42:15Z</time>
      </trkpt>
      <trkpt lat="46.51829" lon="5.31176">
        <ele>207</ele>
        <time>2021-08-26T14:42:17Z</time>
      </trkpt>
      <trkpt lat="46.51821" lon="5.31173">
        <ele>207</ele>
        <time>2021-08-26T14:42:18Z</time>
      </trkpt>
      <trkpt lat="46.51814" lon="5.31172">
        <ele>207</ele>
        <time>2021-08-26T14:42:19Z</time>
      </trkpt>
      <trkpt lat="46.51806" lon="5.31171">
        <ele>207</ele>
        <time>2021-08-26T14:42:20Z</time>
      </trkpt>
      <trkpt lat="46.51799" lon="5.31171">
        <ele>207</ele>
        <time>2021-08-26T14:42:21Z</time>
      </trkpt>
      <trkpt lat="46.51784" lon="5.31171">
        <ele>207.2</ele>
        <time>2021-08-26T14:42:23Z</time>
      </trkpt>
      <trkpt lat="46.5177" lon="5.31171">
        <ele>207.4</ele>
        <time>2021-08-26T14:42:25Z</time>
      </trkpt>
      <trkpt lat="46.51756" lon="5.3117">
        <ele>207.8</ele>
        <time>2021-08-26T14:42:27Z</time>
      </trkpt>
      <trkpt lat="46.51749" lon="5.3117">
        <ele>208.2</ele>
        <time>2021-08-26T14:42:28Z</time>
      </trkpt>
      <trkpt lat="46.51742" lon="5.31169">
        <ele>208.6</ele>
        <time>2021-08-26T14:42:29Z</time>
      </trkpt>
      <trkpt lat="46.5173" lon="5.31167">
        <ele>209.4</ele>
        <time>2021-08-26T14:42:31Z</time>
      </trkpt>
      <trkpt lat="46.51724" lon="5.31165">
        <ele>209.6</ele>
        <time>2021-08-26T14:42:32Z</time>
      </trkpt>
      <trkpt lat="46.51718" lon="5.31162">
        <ele>210</ele>
        <time>2021-08-26T14:42:33Z</time>
      </trkpt>
      <trkpt lat="46.51712" lon="5.31159">
        <ele>210.4</ele>
        <time>2021-08-26T14:42:34Z</time>
      </trkpt>
      <trkpt lat="46.51707" lon="5.31154">
        <ele>210.8</ele>
        <time>2021-08-26T14:42:35Z</time>
      </trkpt>
      <trkpt lat="46.51702" lon="5.3115">
        <ele>211.2</ele>
        <time>2021-08-26T14:42:36Z</time>
      </trkpt>
      <trkpt lat="46.51697" lon="5.31144">
        <ele>211.6</ele>
        <time>2021-08-26T14:42:37Z</time>
      </trkpt>
      <trkpt lat="46.51688" lon="5.31133">
        <ele>212.6</ele>
        <time>2021-08-26T14:42:39Z</time>
      </trkpt>
      <trkpt lat="46.5168" lon="5.3112">
        <ele>213.2</ele>
        <time>2021-08-26T14:42:41Z</time>
      </trkpt>
      <trkpt lat="46.51677" lon="5.31113">
        <ele>213.8</ele>
        <time>2021-08-26T14:42:42Z</time>
      </trkpt>
      <trkpt lat="46.51674" lon="5.31106">
        <ele>213.8</ele>
        <time>2021-08-26T14:42:43Z</time>
      </trkpt>
      <trkpt lat="46.5167" lon="5.311">
        <ele>214</ele>
        <time>2021-08-26T14:42:44Z</time>
      </trkpt>
      <trkpt lat="46.51665" lon="5.31096">
        <ele>214.4</ele>
        <time>2021-08-26T14:42:45Z</time>
      </trkpt>
      <trkpt lat="46.51653" lon="5.31095">
        <ele>214.8</ele>
        <time>2021-08-26T14:42:47Z</time>
      </trkpt>
      <trkpt lat="46.51648" lon="5.31097">
        <ele>214.8</ele>
        <time>2021-08-26T14:42:48Z</time>
      </trkpt>
      <trkpt lat="46.51641" lon="5.31099">
        <ele>215</ele>
        <time>2021-08-26T14:42:49Z</time>
      </trkpt>
      <trkpt lat="46.51628" lon="5.31096">
        <ele>215.4</ele>
        <time>2021-08-26T14:42:51Z</time>
      </trkpt>
      <trkpt lat="46.51613" lon="5.31089">
        <ele>215.4</ele>
        <time>2021-08-26T14:42:53Z</time>
      </trkpt>
      <trkpt lat="46.51598" lon="5.31081">
        <ele>215.4</ele>
        <time>2021-08-26T14:42:55Z</time>
      </trkpt>
      <trkpt lat="46.51581" lon="5.31075">
        <ele>215.4</ele>
        <time>2021-08-26T14:42:57Z</time>
      </trkpt>
      <trkpt lat="46.51572" lon="5.31073">
        <ele>215.4</ele>
        <time>2021-08-26T14:42:58Z</time>
      </trkpt>
      <trkpt lat="46.51564" lon="5.31072">
        <ele>215.4</ele>
        <time>2021-08-26T14:42:59Z</time>
      </trkpt>
      <trkpt lat="46.51555" lon="5.31071">
        <ele>215</ele>
        <time>2021-08-26T14:43:00Z</time>
      </trkpt>
      <trkpt lat="46.51547" lon="5.3107">
        <ele>214.6</ele>
        <time>2021-08-26T14:43:01Z</time>
      </trkpt>
      <trkpt lat="46.5153" lon="5.31069">
        <ele>213.6</ele>
        <time>2021-08-26T14:43:03Z</time>
      </trkpt>
      <trkpt lat="46.51513" lon="5.31068">
        <ele>213.2</ele>
        <time>2021-08-26T14:43:05Z</time>
      </trkpt>
      <trkpt lat="46.51497" lon="5.31068">
        <ele>213</ele>
        <time>2021-08-26T14:43:07Z</time>
      </trkpt>
      <trkpt lat="46.5148" lon="5.31067">
        <ele>212.8</ele>
        <time>2021-08-26T14:43:09Z</time>
      </trkpt>
      <trkpt lat="46.51472" lon="5.31067">
        <ele>212.8</ele>
        <time>2021-08-26T14:43:10Z</time>
      </trkpt>
      <trkpt lat="46.51464" lon="5.31066">
        <ele>212.6</ele>
        <time>2021-08-26T14:43:11Z</time>
      </trkpt>
      <trkpt lat="46.51447" lon="5.31066">
        <ele>212.4</ele>
        <time>2021-08-26T14:43:13Z</time>
      </trkpt>
      <trkpt lat="46.51431" lon="5.31067">
        <ele>212.4</ele>
        <time>2021-08-26T14:43:15Z</time>
      </trkpt>
      <trkpt lat="46.51423" lon="5.31067">
        <ele>212.4</ele>
        <time>2021-08-26T14:43:16Z</time>
      </trkpt>
      <trkpt lat="46.51414" lon="5.31067">
        <ele>212.4</ele>
        <time>2021-08-26T14:43:17Z</time>
      </trkpt>
      <trkpt lat="46.51398" lon="5.31069">
        <ele>212.4</ele>
        <time>2021-08-26T14:43:19Z</time>
      </trkpt>
      <trkpt lat="46.51383" lon="5.31069">
        <ele>212.4</ele>
        <time>2021-08-26T14:43:21Z</time>
      </trkpt>
      <trkpt lat="46.51367" lon="5.3107">
        <ele>212.4</ele>
        <time>2021-08-26T14:43:23Z</time>
      </trkpt>
      <trkpt lat="46.51359" lon="5.31071">
        <ele>212.4</ele>
        <time>2021-08-26T14:43:24Z</time>
      </trkpt>
      <trkpt lat="46.51351" lon="5.31071">
        <ele>212.4</ele>
        <time>2021-08-26T14:43:25Z</time>
      </trkpt>
      <trkpt lat="46.51335" lon="5.31072">
        <ele>212.4</ele>
        <time>2021-08-26T14:43:27Z</time>
      </trkpt>
      <trkpt lat="46.51319" lon="5.31073">
        <ele>212.4</ele>
        <time>2021-08-26T14:43:29Z</time>
      </trkpt>
      <trkpt lat="46.51303" lon="5.31073">
        <ele>212.2</ele>
        <time>2021-08-26T14:43:31Z</time>
      </trkpt>
      <trkpt lat="46.51295" lon="5.31074">
        <ele>212.2</ele>
        <time>2021-08-26T14:43:32Z</time>
      </trkpt>
      <trkpt lat="46.51287" lon="5.31074">
        <ele>212.2</ele>
        <time>2021-08-26T14:43:33Z</time>
      </trkpt>
      <trkpt lat="46.51271" lon="5.31076">
        <ele>212.2</ele>
        <time>2021-08-26T14:43:35Z</time>
      </trkpt>
      <trkpt lat="46.51255" lon="5.3108">
        <ele>212.2</ele>
        <time>2021-08-26T14:43:37Z</time>
      </trkpt>
      <trkpt lat="46.51248" lon="5.31083">
        <ele>212</ele>
        <time>2021-08-26T14:43:38Z</time>
      </trkpt>
      <trkpt lat="46.51242" lon="5.31089">
        <ele>212</ele>
        <time>2021-08-26T14:43:39Z</time>
      </trkpt>
      <trkpt lat="46.51229" lon="5.31101">
        <ele>211.8</ele>
        <time>2021-08-26T14:43:41Z</time>
      </trkpt>
      <trkpt lat="46.51223" lon="5.31108">
        <ele>211.8</ele>
        <time>2021-08-26T14:43:42Z</time>
      </trkpt>
      <trkpt lat="46.51218" lon="5.31114">
        <ele>211.8</ele>
        <time>2021-08-26T14:43:43Z</time>
      </trkpt>
      <trkpt lat="46.51208" lon="5.31125">
        <ele>211.8</ele>
        <time>2021-08-26T14:43:45Z</time>
      </trkpt>
      <trkpt lat="46.51199" lon="5.31135">
        <ele>211.8</ele>
        <time>2021-08-26T14:43:47Z</time>
      </trkpt>
      <trkpt lat="46.51192" lon="5.31144">
        <ele>212</ele>
        <time>2021-08-26T14:43:49Z</time>
      </trkpt>
      <trkpt lat="46.51184" lon="5.31154">
        <ele>212.2</ele>
        <time>2021-08-26T14:43:51Z</time>
      </trkpt>
      <trkpt lat="46.51177" lon="5.31165">
        <ele>212.8</ele>
        <time>2021-08-26T14:43:53Z</time>
      </trkpt>
      <trkpt lat="46.51175" lon="5.3117">
        <ele>213</ele>
        <time>2021-08-26T14:43:54Z</time>
      </trkpt>
      <trkpt lat="46.51171" lon="5.31175">
        <ele>213.4</ele>
        <time>2021-08-26T14:43:55Z</time>
      </trkpt>
      <trkpt lat="46.51164" lon="5.31186">
        <ele>213.8</ele>
        <time>2021-08-26T14:43:57Z</time>
      </trkpt>
      <trkpt lat="46.51153" lon="5.312">
        <ele>214.2</ele>
        <time>2021-08-26T14:43:59Z</time>
      </trkpt>
      <trkpt lat="46.51142" lon="5.31215">
        <ele>214.4</ele>
        <time>2021-08-26T14:44:01Z</time>
      </trkpt>
      <trkpt lat="46.5113" lon="5.31229">
        <ele>214.6</ele>
        <time>2021-08-26T14:44:03Z</time>
      </trkpt>
      <trkpt lat="46.51124" lon="5.31236">
        <ele>214.6</ele>
        <time>2021-08-26T14:44:04Z</time>
      </trkpt>
      <trkpt lat="46.51118" lon="5.31243">
        <ele>214.6</ele>
        <time>2021-08-26T14:44:05Z</time>
      </trkpt>
      <trkpt lat="46.51109" lon="5.31255">
        <ele>214.8</ele>
        <time>2021-08-26T14:44:07Z</time>
      </trkpt>
      <trkpt lat="46.51105" lon="5.31261">
        <ele>215</ele>
        <time>2021-08-26T14:44:08Z</time>
      </trkpt>
      <trkpt lat="46.51101" lon="5.31266">
        <ele>215</ele>
        <time>2021-08-26T14:44:09Z</time>
      </trkpt>
      <trkpt lat="46.51096" lon="5.31272">
        <ele>215</ele>
        <time>2021-08-26T14:44:10Z</time>
      </trkpt>
      <trkpt lat="46.51092" lon="5.31277">
        <ele>215</ele>
        <time>2021-08-26T14:44:11Z</time>
      </trkpt>
      <trkpt lat="46.51085" lon="5.31286">
        <ele>215.4</ele>
        <time>2021-08-26T14:44:13Z</time>
      </trkpt>
      <trkpt lat="46.51079" lon="5.313">
        <ele>215.8</ele>
        <time>2021-08-26T14:44:15Z</time>
      </trkpt>
      <trkpt lat="46.51077" lon="5.31307">
        <ele>216</ele>
        <time>2021-08-26T14:44:16Z</time>
      </trkpt>
      <trkpt lat="46.51077" lon="5.31314">
        <ele>216.2</ele>
        <time>2021-08-26T14:44:17Z</time>
      </trkpt>
      <trkpt lat="46.51076" lon="5.31331">
        <ele>217</ele>
        <time>2021-08-26T14:44:19Z</time>
      </trkpt>
      <trkpt lat="46.51076" lon="5.31339">
        <ele>217.2</ele>
        <time>2021-08-26T14:44:20Z</time>
      </trkpt>
      <trkpt lat="46.51076" lon="5.31347">
        <ele>217.8</ele>
        <time>2021-08-26T14:44:21Z</time>
      </trkpt>
      <trkpt lat="46.51073" lon="5.31365">
        <ele>218.4</ele>
        <time>2021-08-26T14:44:23Z</time>
      </trkpt>
      <trkpt lat="46.51071" lon="5.31382">
        <ele>219</ele>
        <time>2021-08-26T14:44:25Z</time>
      </trkpt>
      <trkpt lat="46.51068" lon="5.31399">
        <ele>219.4</ele>
        <time>2021-08-26T14:44:27Z</time>
      </trkpt>
      <trkpt lat="46.51066" lon="5.31408">
        <ele>219.6</ele>
        <time>2021-08-26T14:44:28Z</time>
      </trkpt>
      <trkpt lat="46.51064" lon="5.31416">
        <ele>219.8</ele>
        <time>2021-08-26T14:44:29Z</time>
      </trkpt>
      <trkpt lat="46.5106" lon="5.31433">
        <ele>220</ele>
        <time>2021-08-26T14:44:31Z</time>
      </trkpt>
      <trkpt lat="46.51056" lon="5.3145">
        <ele>220.4</ele>
        <time>2021-08-26T14:44:33Z</time>
      </trkpt>
      <trkpt lat="46.51054" lon="5.31458">
        <ele>220.6</ele>
        <time>2021-08-26T14:44:34Z</time>
      </trkpt>
      <trkpt lat="46.51052" lon="5.31466">
        <ele>220.8</ele>
        <time>2021-08-26T14:44:35Z</time>
      </trkpt>
      <trkpt lat="46.51048" lon="5.31483">
        <ele>221.2</ele>
        <time>2021-08-26T14:44:37Z</time>
      </trkpt>
      <trkpt lat="46.51046" lon="5.31491">
        <ele>221.4</ele>
        <time>2021-08-26T14:44:38Z</time>
      </trkpt>
      <trkpt lat="46.51044" lon="5.31499">
        <ele>221.6</ele>
        <time>2021-08-26T14:44:39Z</time>
      </trkpt>
      <trkpt lat="46.51043" lon="5.31507">
        <ele>221.8</ele>
        <time>2021-08-26T14:44:40Z</time>
      </trkpt>
      <trkpt lat="46.51041" lon="5.31514">
        <ele>222.2</ele>
        <time>2021-08-26T14:44:41Z</time>
      </trkpt>
      <trkpt lat="46.51037" lon="5.31529">
        <ele>222.6</ele>
        <time>2021-08-26T14:44:43Z</time>
      </trkpt>
      <trkpt lat="46.51032" lon="5.31543">
        <ele>223</ele>
        <time>2021-08-26T14:44:45Z</time>
      </trkpt>
      <trkpt lat="46.51025" lon="5.31555">
        <ele>223.4</ele>
        <time>2021-08-26T14:44:47Z</time>
      </trkpt>
      <trkpt lat="46.51017" lon="5.31565">
        <ele>223.8</ele>
        <time>2021-08-26T14:44:49Z</time>
      </trkpt>
      <trkpt lat="46.51013" lon="5.3157">
        <ele>224.2</ele>
        <time>2021-08-26T14:44:50Z</time>
      </trkpt>
      <trkpt lat="46.51008" lon="5.31575">
        <ele>224.4</ele>
        <time>2021-08-26T14:44:51Z</time>
      </trkpt>
      <trkpt lat="46.50998" lon="5.31586">
        <ele>224.6</ele>
        <time>2021-08-26T14:44:53Z</time>
      </trkpt>
      <trkpt lat="46.50986" lon="5.31598">
        <ele>224.6</ele>
        <time>2021-08-26T14:44:55Z</time>
      </trkpt>
      <trkpt lat="46.50973" lon="5.31611">
        <ele>224.6</ele>
        <time>2021-08-26T14:44:57Z</time>
      </trkpt>
      <trkpt lat="46.5096" lon="5.31623">
        <ele>224.6</ele>
        <time>2021-08-26T14:44:59Z</time>
      </trkpt>
      <trkpt lat="46.50948" lon="5.31636">
        <ele>224.6</ele>
        <time>2021-08-26T14:45:01Z</time>
      </trkpt>
      <trkpt lat="46.50936" lon="5.31649">
        <ele>224.2</ele>
        <time>2021-08-26T14:45:03Z</time>
      </trkpt>
      <trkpt lat="46.50925" lon="5.3166">
        <ele>224</ele>
        <time>2021-08-26T14:45:05Z</time>
      </trkpt>
      <trkpt lat="46.50915" lon="5.31669">
        <ele>224</ele>
        <time>2021-08-26T14:45:07Z</time>
      </trkpt>
      <trkpt lat="46.50905" lon="5.31679">
        <ele>224</ele>
        <time>2021-08-26T14:45:09Z</time>
      </trkpt>
      <trkpt lat="46.50896" lon="5.31688">
        <ele>223.8</ele>
        <time>2021-08-26T14:45:11Z</time>
      </trkpt>
      <trkpt lat="46.50886" lon="5.31698">
        <ele>223.8</ele>
        <time>2021-08-26T14:45:13Z</time>
      </trkpt>
      <trkpt lat="46.50877" lon="5.31709">
        <ele>224</ele>
        <time>2021-08-26T14:45:15Z</time>
      </trkpt>
      <trkpt lat="46.50866" lon="5.3172">
        <ele>224.6</ele>
        <time>2021-08-26T14:45:17Z</time>
      </trkpt>
      <trkpt lat="46.50861" lon="5.31725">
        <ele>224.8</ele>
        <time>2021-08-26T14:45:18Z</time>
      </trkpt>
      <trkpt lat="46.50855" lon="5.31729">
        <ele>225</ele>
        <time>2021-08-26T14:45:19Z</time>
      </trkpt>
      <trkpt lat="46.5084" lon="5.31734">
        <ele>225.2</ele>
        <time>2021-08-26T14:45:21Z</time>
      </trkpt>
      <trkpt lat="46.50826" lon="5.31728">
        <ele>225.4</ele>
        <time>2021-08-26T14:45:23Z</time>
      </trkpt>
      <trkpt lat="46.50819" lon="5.31723">
        <ele>225.2</ele>
        <time>2021-08-26T14:45:24Z</time>
      </trkpt>
      <trkpt lat="46.50811" lon="5.31717">
        <ele>225.4</ele>
        <time>2021-08-26T14:45:25Z</time>
      </trkpt>
      <trkpt lat="46.50797" lon="5.31707">
        <ele>225.4</ele>
        <time>2021-08-26T14:45:27Z</time>
      </trkpt>
      <trkpt lat="46.50781" lon="5.31698">
        <ele>225.2</ele>
        <time>2021-08-26T14:45:29Z</time>
      </trkpt>
      <trkpt lat="46.50765" lon="5.31694">
        <ele>224.8</ele>
        <time>2021-08-26T14:45:31Z</time>
      </trkpt>
      <trkpt lat="46.50748" lon="5.31695">
        <ele>224</ele>
        <time>2021-08-26T14:45:33Z</time>
      </trkpt>
      <trkpt lat="46.5074" lon="5.31695">
        <ele>224</ele>
        <time>2021-08-26T14:45:34Z</time>
      </trkpt>
      <trkpt lat="46.50732" lon="5.31697">
        <ele>223.6</ele>
        <time>2021-08-26T14:45:35Z</time>
      </trkpt>
      <trkpt lat="46.50724" lon="5.31698">
        <ele>223.6</ele>
        <time>2021-08-26T14:45:36Z</time>
      </trkpt>
      <trkpt lat="46.50716" lon="5.31699">
        <ele>223.6</ele>
        <time>2021-08-26T14:45:37Z</time>
      </trkpt>
      <trkpt lat="46.507" lon="5.31701">
        <ele>223.6</ele>
        <time>2021-08-26T14:45:39Z</time>
      </trkpt>
      <trkpt lat="46.50684" lon="5.31703">
        <ele>223.6</ele>
        <time>2021-08-26T14:45:41Z</time>
      </trkpt>
      <trkpt lat="46.50669" lon="5.31706">
        <ele>223.6</ele>
        <time>2021-08-26T14:45:43Z</time>
      </trkpt>
      <trkpt lat="46.50661" lon="5.31709">
        <ele>223.6</ele>
        <time>2021-08-26T14:45:44Z</time>
      </trkpt>
      <trkpt lat="46.50654" lon="5.31714">
        <ele>223.6</ele>
        <time>2021-08-26T14:45:45Z</time>
      </trkpt>
      <trkpt lat="46.50643" lon="5.31729">
        <ele>223.6</ele>
        <time>2021-08-26T14:45:47Z</time>
      </trkpt>
      <trkpt lat="46.50635" lon="5.31748">
        <ele>223.4</ele>
        <time>2021-08-26T14:45:49Z</time>
      </trkpt>
      <trkpt lat="46.50631" lon="5.31758">
        <ele>223.4</ele>
        <time>2021-08-26T14:45:50Z</time>
      </trkpt>
      <trkpt lat="46.50627" lon="5.31767">
        <ele>223.4</ele>
        <time>2021-08-26T14:45:51Z</time>
      </trkpt>
      <trkpt lat="46.50623" lon="5.31777">
        <ele>223.4</ele>
        <time>2021-08-26T14:45:52Z</time>
      </trkpt>
      <trkpt lat="46.5062" lon="5.31787">
        <ele>223.4</ele>
        <time>2021-08-26T14:45:53Z</time>
      </trkpt>
      <trkpt lat="46.50612" lon="5.31807">
        <ele>223.4</ele>
        <time>2021-08-26T14:45:55Z</time>
      </trkpt>
      <trkpt lat="46.50605" lon="5.31829">
        <ele>223.4</ele>
        <time>2021-08-26T14:45:57Z</time>
      </trkpt>
      <trkpt lat="46.50601" lon="5.3184">
        <ele>223.2</ele>
        <time>2021-08-26T14:45:58Z</time>
      </trkpt>
      <trkpt lat="46.50596" lon="5.31852">
        <ele>223.2</ele>
        <time>2021-08-26T14:45:59Z</time>
      </trkpt>
      <trkpt lat="46.50587" lon="5.31875">
        <ele>223.2</ele>
        <time>2021-08-26T14:46:01Z</time>
      </trkpt>
      <trkpt lat="46.50579" lon="5.31898">
        <ele>223</ele>
        <time>2021-08-26T14:46:03Z</time>
      </trkpt>
      <trkpt lat="46.50571" lon="5.31923">
        <ele>223</ele>
        <time>2021-08-26T14:46:05Z</time>
      </trkpt>
      <trkpt lat="46.50562" lon="5.31948">
        <ele>222.4</ele>
        <time>2021-08-26T14:46:07Z</time>
      </trkpt>
      <trkpt lat="46.50551" lon="5.31973">
        <ele>221.6</ele>
        <time>2021-08-26T14:46:09Z</time>
      </trkpt>
      <trkpt lat="46.5054" lon="5.31997">
        <ele>220.6</ele>
        <time>2021-08-26T14:46:11Z</time>
      </trkpt>
      <trkpt lat="46.50533" lon="5.32008">
        <ele>220.2</ele>
        <time>2021-08-26T14:46:12Z</time>
      </trkpt>
      <trkpt lat="46.50526" lon="5.32018">
        <ele>219.6</ele>
        <time>2021-08-26T14:46:13Z</time>
      </trkpt>
      <trkpt lat="46.50513" lon="5.32038">
        <ele>218.6</ele>
        <time>2021-08-26T14:46:15Z</time>
      </trkpt>
      <trkpt lat="46.50507" lon="5.32049">
        <ele>217.8</ele>
        <time>2021-08-26T14:46:16Z</time>
      </trkpt>
      <trkpt lat="46.50501" lon="5.3206">
        <ele>217.2</ele>
        <time>2021-08-26T14:46:17Z</time>
      </trkpt>
      <trkpt lat="46.5049" lon="5.32081">
        <ele>215.8</ele>
        <time>2021-08-26T14:46:19Z</time>
      </trkpt>
      <trkpt lat="46.50481" lon="5.32103">
        <ele>214.8</ele>
        <time>2021-08-26T14:46:21Z</time>
      </trkpt>
      <trkpt lat="46.50477" lon="5.32113">
        <ele>214.6</ele>
        <time>2021-08-26T14:46:22Z</time>
      </trkpt>
      <trkpt lat="46.50474" lon="5.32123">
        <ele>214.4</ele>
        <time>2021-08-26T14:46:23Z</time>
      </trkpt>
      <trkpt lat="46.50468" lon="5.32144">
        <ele>214.4</ele>
        <time>2021-08-26T14:46:25Z</time>
      </trkpt>
      <trkpt lat="46.50462" lon="5.32164">
        <ele>214.2</ele>
        <time>2021-08-26T14:46:27Z</time>
      </trkpt>
      <trkpt lat="46.50458" lon="5.32173">
        <ele>214.2</ele>
        <time>2021-08-26T14:46:28Z</time>
      </trkpt>
      <trkpt lat="46.50454" lon="5.3218">
        <ele>214.2</ele>
        <time>2021-08-26T14:46:29Z</time>
      </trkpt>
      <trkpt lat="46.50449" lon="5.32186">
        <ele>214.4</ele>
        <time>2021-08-26T14:46:30Z</time>
      </trkpt>
      <trkpt lat="46.50444" lon="5.32189">
        <ele>214.4</ele>
        <time>2021-08-26T14:46:31Z</time>
      </trkpt>
      <trkpt lat="46.50436" lon="5.32192">
        <ele>214.6</ele>
        <time>2021-08-26T14:46:33Z</time>
      </trkpt>
      <trkpt lat="46.50434" lon="5.32193">
        <ele>214.6</ele>
        <time>2021-08-26T14:46:34Z</time>
      </trkpt>
      <trkpt lat="46.50434" lon="5.32193">
        <ele>214.8</ele>
        <time>2021-08-26T14:46:35Z</time>
      </trkpt>
      <trkpt lat="46.50434" lon="5.32192">
        <ele>214.8</ele>
        <time>2021-08-26T14:46:36Z</time>
      </trkpt>
      <trkpt lat="46.5043" lon="5.32192">
        <ele>216.2</ele>
        <time>2021-08-26T14:46:45Z</time>
      </trkpt>
      <trkpt lat="46.50428" lon="5.32195">
        <ele>216.2</ele>
        <time>2021-08-26T14:46:46Z</time>
      </trkpt>
      <trkpt lat="46.50427" lon="5.32198">
        <ele>216.2</ele>
        <time>2021-08-26T14:46:47Z</time>
      </trkpt>
      <trkpt lat="46.50426" lon="5.32207">
        <ele>216.4</ele>
        <time>2021-08-26T14:46:49Z</time>
      </trkpt>
      <trkpt lat="46.50426" lon="5.3221">
        <ele>216.4</ele>
        <time>2021-08-26T14:46:50Z</time>
      </trkpt>
      <trkpt lat="46.50426" lon="5.32213">
        <ele>216.4</ele>
        <time>2021-08-26T14:46:51Z</time>
      </trkpt>
      <trkpt lat="46.50427" lon="5.3222">
        <ele>216.4</ele>
        <time>2021-08-26T14:46:53Z</time>
      </trkpt>
      <trkpt lat="46.50427" lon="5.3223">
        <ele>216.4</ele>
        <time>2021-08-26T14:46:55Z</time>
      </trkpt>
      <trkpt lat="46.50427" lon="5.32244">
        <ele>216.4</ele>
        <time>2021-08-26T14:46:57Z</time>
      </trkpt>
      <trkpt lat="46.50428" lon="5.32261">
        <ele>216.4</ele>
        <time>2021-08-26T14:46:59Z</time>
      </trkpt>
      <trkpt lat="46.5043" lon="5.32279">
        <ele>216.4</ele>
        <time>2021-08-26T14:47:01Z</time>
      </trkpt>
      <trkpt lat="46.50431" lon="5.32289">
        <ele>216.4</ele>
        <time>2021-08-26T14:47:02Z</time>
      </trkpt>
      <trkpt lat="46.50433" lon="5.32298">
        <ele>216.4</ele>
        <time>2021-08-26T14:47:03Z</time>
      </trkpt>
      <trkpt lat="46.50437" lon="5.32318">
        <ele>216.4</ele>
        <time>2021-08-26T14:47:05Z</time>
      </trkpt>
      <trkpt lat="46.50441" lon="5.32338">
        <ele>216.4</ele>
        <time>2021-08-26T14:47:07Z</time>
      </trkpt>
      <trkpt lat="46.50444" lon="5.32348">
        <ele>216.4</ele>
        <time>2021-08-26T14:47:08Z</time>
      </trkpt>
      <trkpt lat="46.50446" lon="5.32358">
        <ele>216.2</ele>
        <time>2021-08-26T14:47:09Z</time>
      </trkpt>
      <trkpt lat="46.5045" lon="5.32378">
        <ele>216.2</ele>
        <time>2021-08-26T14:47:11Z</time>
      </trkpt>
      <trkpt lat="46.50454" lon="5.32398">
        <ele>216</ele>
        <time>2021-08-26T14:47:13Z</time>
      </trkpt>
      <trkpt lat="46.50458" lon="5.32417">
        <ele>215.4</ele>
        <time>2021-08-26T14:47:15Z</time>
      </trkpt>
      <trkpt lat="46.5046" lon="5.32426">
        <ele>215</ele>
        <time>2021-08-26T14:47:16Z</time>
      </trkpt>
      <trkpt lat="46.50461" lon="5.32436">
        <ele>214.8</ele>
        <time>2021-08-26T14:47:17Z</time>
      </trkpt>
      <trkpt lat="46.50464" lon="5.32455">
        <ele>214.6</ele>
        <time>2021-08-26T14:47:19Z</time>
      </trkpt>
      <trkpt lat="46.50466" lon="5.32474">
        <ele>214.6</ele>
        <time>2021-08-26T14:47:21Z</time>
      </trkpt>
      <trkpt lat="46.50467" lon="5.32493">
        <ele>214.6</ele>
        <time>2021-08-26T14:47:23Z</time>
      </trkpt>
      <trkpt lat="46.50468" lon="5.32512">
        <ele>214.6</ele>
        <time>2021-08-26T14:47:25Z</time>
      </trkpt>
      <trkpt lat="46.5047" lon="5.32531">
        <ele>214.8</ele>
        <time>2021-08-26T14:47:27Z</time>
      </trkpt>
      <trkpt lat="46.50471" lon="5.32549">
        <ele>215.2</ele>
        <time>2021-08-26T14:47:29Z</time>
      </trkpt>
      <trkpt lat="46.50472" lon="5.32568">
        <ele>215.6</ele>
        <time>2021-08-26T14:47:31Z</time>
      </trkpt>
      <trkpt lat="46.50473" lon="5.32586">
        <ele>216</ele>
        <time>2021-08-26T14:47:33Z</time>
      </trkpt>
      <trkpt lat="46.50474" lon="5.32605">
        <ele>216.4</ele>
        <time>2021-08-26T14:47:35Z</time>
      </trkpt>
      <trkpt lat="46.50474" lon="5.32624">
        <ele>216.6</ele>
        <time>2021-08-26T14:47:37Z</time>
      </trkpt>
      <trkpt lat="46.50474" lon="5.32642">
        <ele>217.2</ele>
        <time>2021-08-26T14:47:39Z</time>
      </trkpt>
      <trkpt lat="46.50474" lon="5.32652">
        <ele>217.4</ele>
        <time>2021-08-26T14:47:40Z</time>
      </trkpt>
      <trkpt lat="46.50474" lon="5.32661">
        <ele>217.4</ele>
        <time>2021-08-26T14:47:41Z</time>
      </trkpt>
      <trkpt lat="46.50473" lon="5.32679">
        <ele>217.6</ele>
        <time>2021-08-26T14:47:43Z</time>
      </trkpt>
      <trkpt lat="46.50473" lon="5.32698">
        <ele>217.8</ele>
        <time>2021-08-26T14:47:45Z</time>
      </trkpt>
      <trkpt lat="46.50472" lon="5.32716">
        <ele>217.8</ele>
        <time>2021-08-26T14:47:47Z</time>
      </trkpt>
      <trkpt lat="46.50472" lon="5.32734">
        <ele>217.8</ele>
        <time>2021-08-26T14:47:49Z</time>
      </trkpt>
      <trkpt lat="46.50472" lon="5.32752">
        <ele>218.2</ele>
        <time>2021-08-26T14:47:51Z</time>
      </trkpt>
      <trkpt lat="46.50472" lon="5.32761">
        <ele>218.2</ele>
        <time>2021-08-26T14:47:52Z</time>
      </trkpt>
      <trkpt lat="46.50471" lon="5.3277">
        <ele>218.2</ele>
        <time>2021-08-26T14:47:53Z</time>
      </trkpt>
      <trkpt lat="46.50471" lon="5.32789">
        <ele>218.4</ele>
        <time>2021-08-26T14:47:55Z</time>
      </trkpt>
      <trkpt lat="46.5047" lon="5.32808">
        <ele>218.4</ele>
        <time>2021-08-26T14:47:57Z</time>
      </trkpt>
      <trkpt lat="46.5047" lon="5.32828">
        <ele>218.8</ele>
        <time>2021-08-26T14:47:59Z</time>
      </trkpt>
      <trkpt lat="46.5047" lon="5.32846">
        <ele>219.2</ele>
        <time>2021-08-26T14:48:01Z</time>
      </trkpt>
      <trkpt lat="46.5047" lon="5.32855">
        <ele>219.4</ele>
        <time>2021-08-26T14:48:02Z</time>
      </trkpt>
      <trkpt lat="46.5047" lon="5.32865">
        <ele>219.4</ele>
        <time>2021-08-26T14:48:03Z</time>
      </trkpt>
      <trkpt lat="46.50469" lon="5.32882">
        <ele>219.6</ele>
        <time>2021-08-26T14:48:05Z</time>
      </trkpt>
      <trkpt lat="46.50469" lon="5.3289">
        <ele>219.6</ele>
        <time>2021-08-26T14:48:06Z</time>
      </trkpt>
      <trkpt lat="46.50469" lon="5.32898">
        <ele>219.6</ele>
        <time>2021-08-26T14:48:07Z</time>
      </trkpt>
      <trkpt lat="46.50469" lon="5.32914">
        <ele>219.8</ele>
        <time>2021-08-26T14:48:09Z</time>
      </trkpt>
      <trkpt lat="46.50469" lon="5.32929">
        <ele>220</ele>
        <time>2021-08-26T14:48:11Z</time>
      </trkpt>
      <trkpt lat="46.50469" lon="5.32944">
        <ele>220.4</ele>
        <time>2021-08-26T14:48:13Z</time>
      </trkpt>
      <trkpt lat="46.50469" lon="5.32951">
        <ele>220.6</ele>
        <time>2021-08-26T14:48:14Z</time>
      </trkpt>
      <trkpt lat="46.50468" lon="5.32958">
        <ele>220.8</ele>
        <time>2021-08-26T14:48:15Z</time>
      </trkpt>
      <trkpt lat="46.50468" lon="5.32972">
        <ele>221.4</ele>
        <time>2021-08-26T14:48:17Z</time>
      </trkpt>
      <trkpt lat="46.50468" lon="5.3298">
        <ele>221.8</ele>
        <time>2021-08-26T14:48:18Z</time>
      </trkpt>
      <trkpt lat="46.50468" lon="5.32987">
        <ele>222.2</ele>
        <time>2021-08-26T14:48:19Z</time>
      </trkpt>
      <trkpt lat="46.50468" lon="5.33001">
        <ele>223</ele>
        <time>2021-08-26T14:48:21Z</time>
      </trkpt>
      <trkpt lat="46.50468" lon="5.33008">
        <ele>223.2</ele>
        <time>2021-08-26T14:48:22Z</time>
      </trkpt>
      <trkpt lat="46.50468" lon="5.33015">
        <ele>223.4</ele>
        <time>2021-08-26T14:48:23Z</time>
      </trkpt>
      <trkpt lat="46.50468" lon="5.33029">
        <ele>224</ele>
        <time>2021-08-26T14:48:25Z</time>
      </trkpt>
      <trkpt lat="46.50467" lon="5.33042">
        <ele>224.6</ele>
        <time>2021-08-26T14:48:27Z</time>
      </trkpt>
      <trkpt lat="46.50467" lon="5.33049">
        <ele>224.8</ele>
        <time>2021-08-26T14:48:28Z</time>
      </trkpt>
      <trkpt lat="46.50467" lon="5.33055">
        <ele>225.2</ele>
        <time>2021-08-26T14:48:29Z</time>
      </trkpt>
      <trkpt lat="46.50467" lon="5.33068">
        <ele>225.6</ele>
        <time>2021-08-26T14:48:31Z</time>
      </trkpt>
      <trkpt lat="46.50466" lon="5.3308">
        <ele>226</ele>
        <time>2021-08-26T14:48:33Z</time>
      </trkpt>
      <trkpt lat="46.50464" lon="5.33091">
        <ele>226.2</ele>
        <time>2021-08-26T14:48:35Z</time>
      </trkpt>
      <trkpt lat="46.50463" lon="5.33097">
        <ele>226.6</ele>
        <time>2021-08-26T14:48:36Z</time>
      </trkpt>
      <trkpt lat="46.50462" lon="5.33104">
        <ele>226.8</ele>
        <time>2021-08-26T14:48:37Z</time>
      </trkpt>
      <trkpt lat="46.50462" lon="5.3311">
        <ele>227</ele>
        <time>2021-08-26T14:48:38Z</time>
      </trkpt>
      <trkpt lat="46.50461" lon="5.33116">
        <ele>227.2</ele>
        <time>2021-08-26T14:48:39Z</time>
      </trkpt>
      <trkpt lat="46.5046" lon="5.33122">
        <ele>227.6</ele>
        <time>2021-08-26T14:48:40Z</time>
      </trkpt>
      <trkpt lat="46.50459" lon="5.33129">
        <ele>227.8</ele>
        <time>2021-08-26T14:48:41Z</time>
      </trkpt>
      <trkpt lat="46.50459" lon="5.33135">
        <ele>228</ele>
        <time>2021-08-26T14:48:42Z</time>
      </trkpt>
      <trkpt lat="46.50458" lon="5.33142">
        <ele>228</ele>
        <time>2021-08-26T14:48:43Z</time>
      </trkpt>
      <trkpt lat="46.50457" lon="5.33154">
        <ele>228.8</ele>
        <time>2021-08-26T14:48:45Z</time>
      </trkpt>
      <trkpt lat="46.50456" lon="5.33168">
        <ele>229.4</ele>
        <time>2021-08-26T14:48:47Z</time>
      </trkpt>
      <trkpt lat="46.50455" lon="5.33182">
        <ele>229.8</ele>
        <time>2021-08-26T14:48:49Z</time>
      </trkpt>
      <trkpt lat="46.50454" lon="5.33196">
        <ele>230.4</ele>
        <time>2021-08-26T14:48:51Z</time>
      </trkpt>
      <trkpt lat="46.50453" lon="5.33212">
        <ele>231</ele>
        <time>2021-08-26T14:48:53Z</time>
      </trkpt>
      <trkpt lat="46.50452" lon="5.33229">
        <ele>231.4</ele>
        <time>2021-08-26T14:48:55Z</time>
      </trkpt>
      <trkpt lat="46.50452" lon="5.33247">
        <ele>231.4</ele>
        <time>2021-08-26T14:48:57Z</time>
      </trkpt>
      <trkpt lat="46.50451" lon="5.33267">
        <ele>231.4</ele>
        <time>2021-08-26T14:48:59Z</time>
      </trkpt>
      <trkpt lat="46.50449" lon="5.33287">
        <ele>231.4</ele>
        <time>2021-08-26T14:49:01Z</time>
      </trkpt>
      <trkpt lat="46.50448" lon="5.33308">
        <ele>231.4</ele>
        <time>2021-08-26T14:49:03Z</time>
      </trkpt>
      <trkpt lat="46.50447" lon="5.33329">
        <ele>231.4</ele>
        <time>2021-08-26T14:49:05Z</time>
      </trkpt>
      <trkpt lat="46.50446" lon="5.3334">
        <ele>231.4</ele>
        <time>2021-08-26T14:49:06Z</time>
      </trkpt>
      <trkpt lat="46.50444" lon="5.33351">
        <ele>231.2</ele>
        <time>2021-08-26T14:49:07Z</time>
      </trkpt>
      <trkpt lat="46.50442" lon="5.33372">
        <ele>231.2</ele>
        <time>2021-08-26T14:49:09Z</time>
      </trkpt>
      <trkpt lat="46.50437" lon="5.33393">
        <ele>230.8</ele>
        <time>2021-08-26T14:49:11Z</time>
      </trkpt>
      <trkpt lat="46.50434" lon="5.33402">
        <ele>230.6</ele>
        <time>2021-08-26T14:49:12Z</time>
      </trkpt>
      <trkpt lat="46.50431" lon="5.33411">
        <ele>230.6</ele>
        <time>2021-08-26T14:49:13Z</time>
      </trkpt>
      <trkpt lat="46.50423" lon="5.33427">
        <ele>230.6</ele>
        <time>2021-08-26T14:49:15Z</time>
      </trkpt>
      <trkpt lat="46.50419" lon="5.33434">
        <ele>230.6</ele>
        <time>2021-08-26T14:49:16Z</time>
      </trkpt>
      <trkpt lat="46.50415" lon="5.33441">
        <ele>230.6</ele>
        <time>2021-08-26T14:49:17Z</time>
      </trkpt>
      <trkpt lat="46.50407" lon="5.33453">
        <ele>230.6</ele>
        <time>2021-08-26T14:49:19Z</time>
      </trkpt>
      <trkpt lat="46.50398" lon="5.33465">
        <ele>230.6</ele>
        <time>2021-08-26T14:49:21Z</time>
      </trkpt>
      <trkpt lat="46.50391" lon="5.33476">
        <ele>230.6</ele>
        <time>2021-08-26T14:49:23Z</time>
      </trkpt>
      <trkpt lat="46.50384" lon="5.33486">
        <ele>231</ele>
        <time>2021-08-26T14:49:25Z</time>
      </trkpt>
      <trkpt lat="46.50376" lon="5.33496">
        <ele>231.2</ele>
        <time>2021-08-26T14:49:27Z</time>
      </trkpt>
      <trkpt lat="46.50368" lon="5.33505">
        <ele>231.4</ele>
        <time>2021-08-26T14:49:29Z</time>
      </trkpt>
      <trkpt lat="46.50359" lon="5.33516">
        <ele>231.8</ele>
        <time>2021-08-26T14:49:31Z</time>
      </trkpt>
      <trkpt lat="46.5035" lon="5.33527">
        <ele>232</ele>
        <time>2021-08-26T14:49:33Z</time>
      </trkpt>
      <trkpt lat="46.5034" lon="5.33539">
        <ele>232.4</ele>
        <time>2021-08-26T14:49:35Z</time>
      </trkpt>
      <trkpt lat="46.50335" lon="5.33545">
        <ele>232.4</ele>
        <time>2021-08-26T14:49:36Z</time>
      </trkpt>
      <trkpt lat="46.5033" lon="5.33551">
        <ele>232.6</ele>
        <time>2021-08-26T14:49:37Z</time>
      </trkpt>
      <trkpt lat="46.5032" lon="5.33562">
        <ele>232.6</ele>
        <time>2021-08-26T14:49:39Z</time>
      </trkpt>
      <trkpt lat="46.5031" lon="5.33573">
        <ele>232.6</ele>
        <time>2021-08-26T14:49:41Z</time>
      </trkpt>
      <trkpt lat="46.503" lon="5.33585">
        <ele>233</ele>
        <time>2021-08-26T14:49:43Z</time>
      </trkpt>
      <trkpt lat="46.50295" lon="5.33591">
        <ele>233.2</ele>
        <time>2021-08-26T14:49:44Z</time>
      </trkpt>
      <trkpt lat="46.50289" lon="5.33597">
        <ele>233.2</ele>
        <time>2021-08-26T14:49:45Z</time>
      </trkpt>
      <trkpt lat="46.50279" lon="5.33608">
        <ele>233.2</ele>
        <time>2021-08-26T14:49:47Z</time>
      </trkpt>
      <trkpt lat="46.50272" lon="5.33616">
        <ele>233.6</ele>
        <time>2021-08-26T14:49:48Z</time>
      </trkpt>
      <trkpt lat="46.50266" lon="5.33624">
        <ele>233.6</ele>
        <time>2021-08-26T14:49:49Z</time>
      </trkpt>
      <trkpt lat="46.50254" lon="5.33636">
        <ele>234</ele>
        <time>2021-08-26T14:49:51Z</time>
      </trkpt>
      <trkpt lat="46.50248" lon="5.33642">
        <ele>234</ele>
        <time>2021-08-26T14:49:52Z</time>
      </trkpt>
      <trkpt lat="46.50242" lon="5.33648">
        <ele>234.2</ele>
        <time>2021-08-26T14:49:53Z</time>
      </trkpt>
      <trkpt lat="46.50237" lon="5.33654">
        <ele>234.2</ele>
        <time>2021-08-26T14:49:54Z</time>
      </trkpt>
      <trkpt lat="46.50232" lon="5.33659">
        <ele>234.2</ele>
        <time>2021-08-26T14:49:55Z</time>
      </trkpt>
      <trkpt lat="46.50223" lon="5.3367">
        <ele>234.2</ele>
        <time>2021-08-26T14:49:57Z</time>
      </trkpt>
      <trkpt lat="46.50212" lon="5.33682">
        <ele>234.2</ele>
        <time>2021-08-26T14:49:59Z</time>
      </trkpt>
      <trkpt lat="46.50207" lon="5.33687">
        <ele>234.2</ele>
        <time>2021-08-26T14:50:00Z</time>
      </trkpt>
      <trkpt lat="46.50202" lon="5.33693">
        <ele>234.2</ele>
        <time>2021-08-26T14:50:01Z</time>
      </trkpt>
      <trkpt lat="46.50191" lon="5.33704">
        <ele>234.4</ele>
        <time>2021-08-26T14:50:03Z</time>
      </trkpt>
      <trkpt lat="46.50179" lon="5.33715">
        <ele>234.4</ele>
        <time>2021-08-26T14:50:05Z</time>
      </trkpt>
      <trkpt lat="46.50173" lon="5.33721">
        <ele>234.4</ele>
        <time>2021-08-26T14:50:06Z</time>
      </trkpt>
      <trkpt lat="46.50166" lon="5.33728">
        <ele>234.4</ele>
        <time>2021-08-26T14:50:07Z</time>
      </trkpt>
      <trkpt lat="46.50152" lon="5.3374">
        <ele>234.4</ele>
        <time>2021-08-26T14:50:09Z</time>
      </trkpt>
      <trkpt lat="46.50139" lon="5.33753">
        <ele>234.4</ele>
        <time>2021-08-26T14:50:11Z</time>
      </trkpt>
      <trkpt lat="46.50132" lon="5.3376">
        <ele>234.2</ele>
        <time>2021-08-26T14:50:12Z</time>
      </trkpt>
      <trkpt lat="46.50126" lon="5.33766">
        <ele>234.2</ele>
        <time>2021-08-26T14:50:13Z</time>
      </trkpt>
      <trkpt lat="46.50114" lon="5.3378">
        <ele>234</ele>
        <time>2021-08-26T14:50:15Z</time>
      </trkpt>
      <trkpt lat="46.50102" lon="5.33792">
        <ele>233.8</ele>
        <time>2021-08-26T14:50:17Z</time>
      </trkpt>
      <trkpt lat="46.5009" lon="5.33806">
        <ele>233.8</ele>
        <time>2021-08-26T14:50:19Z</time>
      </trkpt>
      <trkpt lat="46.50078" lon="5.33819">
        <ele>233.8</ele>
        <time>2021-08-26T14:50:21Z</time>
      </trkpt>
      <trkpt lat="46.50066" lon="5.33831">
        <ele>233.8</ele>
        <time>2021-08-26T14:50:23Z</time>
      </trkpt>
      <trkpt lat="46.50057" lon="5.33843">
        <ele>233.8</ele>
        <time>2021-08-26T14:50:25Z</time>
      </trkpt>
      <trkpt lat="46.50052" lon="5.33849">
        <ele>234</ele>
        <time>2021-08-26T14:50:26Z</time>
      </trkpt>
      <trkpt lat="46.50046" lon="5.33855">
        <ele>234.2</ele>
        <time>2021-08-26T14:50:27Z</time>
      </trkpt>
      <trkpt lat="46.50036" lon="5.33867">
        <ele>234.4</ele>
        <time>2021-08-26T14:50:29Z</time>
      </trkpt>
      <trkpt lat="46.50024" lon="5.33879">
        <ele>235</ele>
        <time>2021-08-26T14:50:31Z</time>
      </trkpt>
      <trkpt lat="46.50014" lon="5.3389">
        <ele>235.4</ele>
        <time>2021-08-26T14:50:33Z</time>
      </trkpt>
      <trkpt lat="46.49999" lon="5.33905">
        <ele>235.8</ele>
        <time>2021-08-26T14:50:35Z</time>
      </trkpt>
      <trkpt lat="46.49986" lon="5.33919">
        <ele>236.2</ele>
        <time>2021-08-26T14:50:37Z</time>
      </trkpt>
      <trkpt lat="46.49972" lon="5.33933">
        <ele>236.6</ele>
        <time>2021-08-26T14:50:39Z</time>
      </trkpt>
      <trkpt lat="46.4996" lon="5.33946">
        <ele>236.6</ele>
        <time>2021-08-26T14:50:41Z</time>
      </trkpt>
      <trkpt lat="46.49948" lon="5.3396">
        <ele>236.6</ele>
        <time>2021-08-26T14:50:43Z</time>
      </trkpt>
      <trkpt lat="46.49935" lon="5.33974">
        <ele>236.6</ele>
        <time>2021-08-26T14:50:45Z</time>
      </trkpt>
      <trkpt lat="46.49921" lon="5.3399">
        <ele>236.6</ele>
        <time>2021-08-26T14:50:47Z</time>
      </trkpt>
      <trkpt lat="46.49906" lon="5.34005">
        <ele>236.4</ele>
        <time>2021-08-26T14:50:49Z</time>
      </trkpt>
      <trkpt lat="46.49892" lon="5.34021">
        <ele>236</ele>
        <time>2021-08-26T14:50:51Z</time>
      </trkpt>
      <trkpt lat="46.49877" lon="5.34038">
        <ele>235.6</ele>
        <time>2021-08-26T14:50:53Z</time>
      </trkpt>
      <trkpt lat="46.4987" lon="5.34046">
        <ele>235.4</ele>
        <time>2021-08-26T14:50:54Z</time>
      </trkpt>
      <trkpt lat="46.49864" lon="5.34055">
        <ele>235.2</ele>
        <time>2021-08-26T14:50:55Z</time>
      </trkpt>
      <trkpt lat="46.49852" lon="5.34072">
        <ele>234.4</ele>
        <time>2021-08-26T14:50:57Z</time>
      </trkpt>
      <trkpt lat="46.49846" lon="5.34081">
        <ele>234</ele>
        <time>2021-08-26T14:50:58Z</time>
      </trkpt>
      <trkpt lat="46.49841" lon="5.34089">
        <ele>234</ele>
        <time>2021-08-26T14:50:59Z</time>
      </trkpt>
      <trkpt lat="46.49836" lon="5.34097">
        <ele>233.8</ele>
        <time>2021-08-26T14:51:00Z</time>
      </trkpt>
      <trkpt lat="46.49831" lon="5.34106">
        <ele>233.8</ele>
        <time>2021-08-26T14:51:01Z</time>
      </trkpt>
      <trkpt lat="46.49821" lon="5.34123">
        <ele>233.8</ele>
        <time>2021-08-26T14:51:03Z</time>
      </trkpt>
      <trkpt lat="46.49811" lon="5.3414">
        <ele>233.8</ele>
        <time>2021-08-26T14:51:05Z</time>
      </trkpt>
      <trkpt lat="46.49801" lon="5.34157">
        <ele>233.8</ele>
        <time>2021-08-26T14:51:07Z</time>
      </trkpt>
      <trkpt lat="46.49795" lon="5.34166">
        <ele>234</ele>
        <time>2021-08-26T14:51:08Z</time>
      </trkpt>
      <trkpt lat="46.4979" lon="5.34174">
        <ele>234</ele>
        <time>2021-08-26T14:51:09Z</time>
      </trkpt>
      <trkpt lat="46.4978" lon="5.34192">
        <ele>234</ele>
        <time>2021-08-26T14:51:11Z</time>
      </trkpt>
      <trkpt lat="46.4977" lon="5.3421">
        <ele>234.2</ele>
        <time>2021-08-26T14:51:13Z</time>
      </trkpt>
      <trkpt lat="46.49759" lon="5.34228">
        <ele>234.2</ele>
        <time>2021-08-26T14:51:15Z</time>
      </trkpt>
      <trkpt lat="46.49754" lon="5.34236">
        <ele>234.2</ele>
        <time>2021-08-26T14:51:16Z</time>
      </trkpt>
      <trkpt lat="46.49749" lon="5.34245">
        <ele>234.2</ele>
        <time>2021-08-26T14:51:17Z</time>
      </trkpt>
      <trkpt lat="46.49739" lon="5.34263">
        <ele>234</ele>
        <time>2021-08-26T14:51:19Z</time>
      </trkpt>
      <trkpt lat="46.49729" lon="5.34281">
        <ele>234</ele>
        <time>2021-08-26T14:51:21Z</time>
      </trkpt>
      <trkpt lat="46.4972" lon="5.34301">
        <ele>234</ele>
        <time>2021-08-26T14:51:23Z</time>
      </trkpt>
      <trkpt lat="46.49716" lon="5.34311">
        <ele>234</ele>
        <time>2021-08-26T14:51:24Z</time>
      </trkpt>
      <trkpt lat="46.49712" lon="5.34321">
        <ele>234</ele>
        <time>2021-08-26T14:51:25Z</time>
      </trkpt>
      <trkpt lat="46.49706" lon="5.34342">
        <ele>234</ele>
        <time>2021-08-26T14:51:27Z</time>
      </trkpt>
      <trkpt lat="46.49699" lon="5.34364">
        <ele>233.8</ele>
        <time>2021-08-26T14:51:29Z</time>
      </trkpt>
      <trkpt lat="46.49692" lon="5.34388">
        <ele>233.8</ele>
        <time>2021-08-26T14:51:31Z</time>
      </trkpt>
      <trkpt lat="46.49685" lon="5.34412">
        <ele>233.8</ele>
        <time>2021-08-26T14:51:33Z</time>
      </trkpt>
      <trkpt lat="46.49681" lon="5.34425">
        <ele>233.6</ele>
        <time>2021-08-26T14:51:34Z</time>
      </trkpt>
      <trkpt lat="46.49678" lon="5.34437">
        <ele>233.6</ele>
        <time>2021-08-26T14:51:35Z</time>
      </trkpt>
      <trkpt lat="46.4967" lon="5.34462">
        <ele>233.4</ele>
        <time>2021-08-26T14:51:37Z</time>
      </trkpt>
      <trkpt lat="46.49666" lon="5.34475">
        <ele>233</ele>
        <time>2021-08-26T14:51:38Z</time>
      </trkpt>
      <trkpt lat="46.49662" lon="5.34487">
        <ele>232.6</ele>
        <time>2021-08-26T14:51:39Z</time>
      </trkpt>
      <trkpt lat="46.49655" lon="5.34512">
        <ele>231.6</ele>
        <time>2021-08-26T14:51:41Z</time>
      </trkpt>
      <trkpt lat="46.49651" lon="5.34523">
        <ele>231.2</ele>
        <time>2021-08-26T14:51:42Z</time>
      </trkpt>
      <trkpt lat="46.49644" lon="5.34533">
        <ele>231</ele>
        <time>2021-08-26T14:51:43Z</time>
      </trkpt>
      <trkpt lat="46.49637" lon="5.34542">
        <ele>230.6</ele>
        <time>2021-08-26T14:51:44Z</time>
      </trkpt>
      <trkpt lat="46.4963" lon="5.3455">
        <ele>230.4</ele>
        <time>2021-08-26T14:51:45Z</time>
      </trkpt>
      <trkpt lat="46.49617" lon="5.34565">
        <ele>229.8</ele>
        <time>2021-08-26T14:51:47Z</time>
      </trkpt>
      <trkpt lat="46.49605" lon="5.34582">
        <ele>229.2</ele>
        <time>2021-08-26T14:51:49Z</time>
      </trkpt>
      <trkpt lat="46.49593" lon="5.34599">
        <ele>228.8</ele>
        <time>2021-08-26T14:51:51Z</time>
      </trkpt>
      <trkpt lat="46.49581" lon="5.34614">
        <ele>228.6</ele>
        <time>2021-08-26T14:51:53Z</time>
      </trkpt>
      <trkpt lat="46.49576" lon="5.34621">
        <ele>228.8</ele>
        <time>2021-08-26T14:51:54Z</time>
      </trkpt>
      <trkpt lat="46.4957" lon="5.34629">
        <ele>228.6</ele>
        <time>2021-08-26T14:51:55Z</time>
      </trkpt>
      <trkpt lat="46.4956" lon="5.34641">
        <ele>228.6</ele>
        <time>2021-08-26T14:51:57Z</time>
      </trkpt>
      <trkpt lat="46.49551" lon="5.34653">
        <ele>228.6</ele>
        <time>2021-08-26T14:51:59Z</time>
      </trkpt>
      <trkpt lat="46.49547" lon="5.34658">
        <ele>228.6</ele>
        <time>2021-08-26T14:52:00Z</time>
      </trkpt>
      <trkpt lat="46.49543" lon="5.34662">
        <ele>229.2</ele>
        <time>2021-08-26T14:52:01Z</time>
      </trkpt>
      <trkpt lat="46.49535" lon="5.3467">
        <ele>229.8</ele>
        <time>2021-08-26T14:52:03Z</time>
      </trkpt>
      <trkpt lat="46.49531" lon="5.34674">
        <ele>229.8</ele>
        <time>2021-08-26T14:52:04Z</time>
      </trkpt>
      <trkpt lat="46.49527" lon="5.34677">
        <ele>230</ele>
        <time>2021-08-26T14:52:05Z</time>
      </trkpt>
      <trkpt lat="46.49523" lon="5.34681">
        <ele>230.6</ele>
        <time>2021-08-26T14:52:06Z</time>
      </trkpt>
      <trkpt lat="46.4952" lon="5.34684">
        <ele>230.8</ele>
        <time>2021-08-26T14:52:07Z</time>
      </trkpt>
      <trkpt lat="46.49513" lon="5.34691">
        <ele>231.6</ele>
        <time>2021-08-26T14:52:09Z</time>
      </trkpt>
      <trkpt lat="46.49507" lon="5.34697">
        <ele>232.4</ele>
        <time>2021-08-26T14:52:11Z</time>
      </trkpt>
      <trkpt lat="46.49503" lon="5.34701">
        <ele>232.6</ele>
        <time>2021-08-26T14:52:12Z</time>
      </trkpt>
      <trkpt lat="46.49499" lon="5.34705">
        <ele>233</ele>
        <time>2021-08-26T14:52:13Z</time>
      </trkpt>
      <trkpt lat="46.49493" lon="5.34712">
        <ele>233.8</ele>
        <time>2021-08-26T14:52:15Z</time>
      </trkpt>
      <trkpt lat="46.4949" lon="5.34715">
        <ele>234.2</ele>
        <time>2021-08-26T14:52:16Z</time>
      </trkpt>
      <trkpt lat="46.49487" lon="5.34717">
        <ele>234.6</ele>
        <time>2021-08-26T14:52:17Z</time>
      </trkpt>
      <trkpt lat="46.49484" lon="5.34721">
        <ele>234.8</ele>
        <time>2021-08-26T14:52:18Z</time>
      </trkpt>
      <trkpt lat="46.49481" lon="5.34724">
        <ele>235.2</ele>
        <time>2021-08-26T14:52:19Z</time>
      </trkpt>
      <trkpt lat="46.49476" lon="5.34729">
        <ele>235.8</ele>
        <time>2021-08-26T14:52:21Z</time>
      </trkpt>
      <trkpt lat="46.49473" lon="5.34733">
        <ele>236</ele>
        <time>2021-08-26T14:52:22Z</time>
      </trkpt>
      <trkpt lat="46.49468" lon="5.34738">
        <ele>236.2</ele>
        <time>2021-08-26T14:52:23Z</time>
      </trkpt>
      <trkpt lat="46.49462" lon="5.34745">
        <ele>237</ele>
        <time>2021-08-26T14:52:25Z</time>
      </trkpt>
      <trkpt lat="46.49459" lon="5.34749">
        <ele>237.4</ele>
        <time>2021-08-26T14:52:26Z</time>
      </trkpt>
      <trkpt lat="46.49456" lon="5.34751">
        <ele>237.6</ele>
        <time>2021-08-26T14:52:27Z</time>
      </trkpt>
      <trkpt lat="46.49452" lon="5.34753">
        <ele>238.4</ele>
        <time>2021-08-26T14:52:29Z</time>
      </trkpt>
      <trkpt lat="46.4945" lon="5.34756">
        <ele>238.6</ele>
        <time>2021-08-26T14:52:30Z</time>
      </trkpt>
      <trkpt lat="46.49447" lon="5.34758">
        <ele>239</ele>
        <time>2021-08-26T14:52:31Z</time>
      </trkpt>
      <trkpt lat="46.49444" lon="5.3476">
        <ele>239.4</ele>
        <time>2021-08-26T14:52:32Z</time>
      </trkpt>
      <trkpt lat="46.49441" lon="5.34762">
        <ele>239.6</ele>
        <time>2021-08-26T14:52:33Z</time>
      </trkpt>
      <trkpt lat="46.49438" lon="5.34764">
        <ele>240</ele>
        <time>2021-08-26T14:52:34Z</time>
      </trkpt>
      <trkpt lat="46.49434" lon="5.34766">
        <ele>240.2</ele>
        <time>2021-08-26T14:52:35Z</time>
      </trkpt>
      <trkpt lat="46.49426" lon="5.3477">
        <ele>240.6</ele>
        <time>2021-08-26T14:52:37Z</time>
      </trkpt>
      <trkpt lat="46.49421" lon="5.34771">
        <ele>240.8</ele>
        <time>2021-08-26T14:52:38Z</time>
      </trkpt>
      <trkpt lat="46.49415" lon="5.34774">
        <ele>241</ele>
        <time>2021-08-26T14:52:39Z</time>
      </trkpt>
      <trkpt lat="46.49411" lon="5.34774">
        <ele>241</ele>
        <time>2021-08-26T14:52:40Z</time>
      </trkpt>
      <trkpt lat="46.49405" lon="5.34774">
        <ele>241</ele>
        <time>2021-08-26T14:52:41Z</time>
      </trkpt>
      <trkpt lat="46.49393" lon="5.34778">
        <ele>241</ele>
        <time>2021-08-26T14:52:43Z</time>
      </trkpt>
      <trkpt lat="46.49378" lon="5.34782">
        <ele>241</ele>
        <time>2021-08-26T14:52:45Z</time>
      </trkpt>
      <trkpt lat="46.49365" lon="5.34785">
        <ele>241</ele>
        <time>2021-08-26T14:52:47Z</time>
      </trkpt>
      <trkpt lat="46.49353" lon="5.34788">
        <ele>241</ele>
        <time>2021-08-26T14:52:49Z</time>
      </trkpt>
      <trkpt lat="46.49341" lon="5.34792">
        <ele>241</ele>
        <time>2021-08-26T14:52:51Z</time>
      </trkpt>
      <trkpt lat="46.49331" lon="5.34796">
        <ele>241</ele>
        <time>2021-08-26T14:52:53Z</time>
      </trkpt>
      <trkpt lat="46.4932" lon="5.34805">
        <ele>241</ele>
        <time>2021-08-26T14:52:55Z</time>
      </trkpt>
      <trkpt lat="46.4931" lon="5.34815">
        <ele>241</ele>
        <time>2021-08-26T14:52:57Z</time>
      </trkpt>
      <trkpt lat="46.49301" lon="5.34827">
        <ele>240.8</ele>
        <time>2021-08-26T14:52:59Z</time>
      </trkpt>
      <trkpt lat="46.49297" lon="5.34834">
        <ele>240.8</ele>
        <time>2021-08-26T14:53:00Z</time>
      </trkpt>
      <trkpt lat="46.49291" lon="5.34841">
        <ele>240.8</ele>
        <time>2021-08-26T14:53:01Z</time>
      </trkpt>
      <trkpt lat="46.49281" lon="5.34857">
        <ele>240.8</ele>
        <time>2021-08-26T14:53:03Z</time>
      </trkpt>
      <trkpt lat="46.49273" lon="5.34871">
        <ele>240.8</ele>
        <time>2021-08-26T14:53:05Z</time>
      </trkpt>
      <trkpt lat="46.49264" lon="5.34886">
        <ele>241</ele>
        <time>2021-08-26T14:53:07Z</time>
      </trkpt>
      <trkpt lat="46.49254" lon="5.349">
        <ele>241</ele>
        <time>2021-08-26T14:53:09Z</time>
      </trkpt>
      <trkpt lat="46.49243" lon="5.34917">
        <ele>241</ele>
        <time>2021-08-26T14:53:11Z</time>
      </trkpt>
      <trkpt lat="46.4923" lon="5.34935">
        <ele>241</ele>
        <time>2021-08-26T14:53:13Z</time>
      </trkpt>
      <trkpt lat="46.49219" lon="5.34949">
        <ele>241</ele>
        <time>2021-08-26T14:53:15Z</time>
      </trkpt>
      <trkpt lat="46.49213" lon="5.34954">
        <ele>241.2</ele>
        <time>2021-08-26T14:53:16Z</time>
      </trkpt>
      <trkpt lat="46.49208" lon="5.3496">
        <ele>241.2</ele>
        <time>2021-08-26T14:53:17Z</time>
      </trkpt>
      <trkpt lat="46.49198" lon="5.3497">
        <ele>241.2</ele>
        <time>2021-08-26T14:53:19Z</time>
      </trkpt>
      <trkpt lat="46.49187" lon="5.34978">
        <ele>241.2</ele>
        <time>2021-08-26T14:53:21Z</time>
      </trkpt>
      <trkpt lat="46.49182" lon="5.34982">
        <ele>241.4</ele>
        <time>2021-08-26T14:53:22Z</time>
      </trkpt>
      <trkpt lat="46.49177" lon="5.34986">
        <ele>241.4</ele>
        <time>2021-08-26T14:53:23Z</time>
      </trkpt>
      <trkpt lat="46.49167" lon="5.34994">
        <ele>241.6</ele>
        <time>2021-08-26T14:53:25Z</time>
      </trkpt>
      <trkpt lat="46.49154" lon="5.35004">
        <ele>241.8</ele>
        <time>2021-08-26T14:53:27Z</time>
      </trkpt>
      <trkpt lat="46.49142" lon="5.35014">
        <ele>241.8</ele>
        <time>2021-08-26T14:53:29Z</time>
      </trkpt>
      <trkpt lat="46.49131" lon="5.35023">
        <ele>242</ele>
        <time>2021-08-26T14:53:31Z</time>
      </trkpt>
      <trkpt lat="46.49119" lon="5.35032">
        <ele>242.2</ele>
        <time>2021-08-26T14:53:33Z</time>
      </trkpt>
      <trkpt lat="46.49107" lon="5.3504">
        <ele>242.2</ele>
        <time>2021-08-26T14:53:35Z</time>
      </trkpt>
      <trkpt lat="46.49099" lon="5.3505">
        <ele>242.4</ele>
        <time>2021-08-26T14:53:36Z</time>
      </trkpt>
      <trkpt lat="46.49094" lon="5.35054">
        <ele>242.6</ele>
        <time>2021-08-26T14:53:37Z</time>
      </trkpt>
      <trkpt lat="46.49082" lon="5.35067">
        <ele>242.8</ele>
        <time>2021-08-26T14:53:39Z</time>
      </trkpt>
      <trkpt lat="46.49078" lon="5.35072">
        <ele>243</ele>
        <time>2021-08-26T14:53:40Z</time>
      </trkpt>
      <trkpt lat="46.49073" lon="5.35079">
        <ele>243.2</ele>
        <time>2021-08-26T14:53:41Z</time>
      </trkpt>
      <trkpt lat="46.4907" lon="5.35084">
        <ele>243.6</ele>
        <time>2021-08-26T14:53:42Z</time>
      </trkpt>
      <trkpt lat="46.49067" lon="5.35091">
        <ele>243.6</ele>
        <time>2021-08-26T14:53:43Z</time>
      </trkpt>
      <trkpt lat="46.49063" lon="5.35099">
        <ele>243.8</ele>
        <time>2021-08-26T14:53:44Z</time>
      </trkpt>
      <trkpt lat="46.49059" lon="5.35107">
        <ele>243.8</ele>
        <time>2021-08-26T14:53:45Z</time>
      </trkpt>
      <trkpt lat="46.49051" lon="5.35125">
        <ele>243.8</ele>
        <time>2021-08-26T14:53:47Z</time>
      </trkpt>
      <trkpt lat="46.4904" lon="5.35145">
        <ele>243.8</ele>
        <time>2021-08-26T14:53:49Z</time>
      </trkpt>
      <trkpt lat="46.49033" lon="5.35156">
        <ele>243.8</ele>
        <time>2021-08-26T14:53:50Z</time>
      </trkpt>
      <trkpt lat="46.49028" lon="5.35167">
        <ele>243.8</ele>
        <time>2021-08-26T14:53:51Z</time>
      </trkpt>
      <trkpt lat="46.49016" lon="5.3519">
        <ele>243.8</ele>
        <time>2021-08-26T14:53:53Z</time>
      </trkpt>
      <trkpt lat="46.49005" lon="5.35213">
        <ele>243.6</ele>
        <time>2021-08-26T14:53:55Z</time>
      </trkpt>
      <trkpt lat="46.48994" lon="5.35234">
        <ele>243.4</ele>
        <time>2021-08-26T14:53:57Z</time>
      </trkpt>
      <trkpt lat="46.48984" lon="5.35257">
        <ele>243.2</ele>
        <time>2021-08-26T14:53:59Z</time>
      </trkpt>
      <trkpt lat="46.48973" lon="5.35279">
        <ele>242.4</ele>
        <time>2021-08-26T14:54:01Z</time>
      </trkpt>
      <trkpt lat="46.48962" lon="5.353">
        <ele>242.2</ele>
        <time>2021-08-26T14:54:03Z</time>
      </trkpt>
      <trkpt lat="46.48958" lon="5.3531">
        <ele>242</ele>
        <time>2021-08-26T14:54:04Z</time>
      </trkpt>
      <trkpt lat="46.48953" lon="5.35321">
        <ele>242</ele>
        <time>2021-08-26T14:54:05Z</time>
      </trkpt>
      <trkpt lat="46.48943" lon="5.35342">
        <ele>241.8</ele>
        <time>2021-08-26T14:54:07Z</time>
      </trkpt>
      <trkpt lat="46.48932" lon="5.35363">
        <ele>241.4</ele>
        <time>2021-08-26T14:54:09Z</time>
      </trkpt>
      <trkpt lat="46.4892" lon="5.35384">
        <ele>241.2</ele>
        <time>2021-08-26T14:54:11Z</time>
      </trkpt>
      <trkpt lat="46.48914" lon="5.35395">
        <ele>241.2</ele>
        <time>2021-08-26T14:54:12Z</time>
      </trkpt>
      <trkpt lat="46.48908" lon="5.35405">
        <ele>241.2</ele>
        <time>2021-08-26T14:54:13Z</time>
      </trkpt>
      <trkpt lat="46.48899" lon="5.35424">
        <ele>241.2</ele>
        <time>2021-08-26T14:54:15Z</time>
      </trkpt>
      <trkpt lat="46.4889" lon="5.35442">
        <ele>241.2</ele>
        <time>2021-08-26T14:54:17Z</time>
      </trkpt>
      <trkpt lat="46.48881" lon="5.35461">
        <ele>241.2</ele>
        <time>2021-08-26T14:54:19Z</time>
      </trkpt>
      <trkpt lat="46.48872" lon="5.35479">
        <ele>241.6</ele>
        <time>2021-08-26T14:54:21Z</time>
      </trkpt>
      <trkpt lat="46.48864" lon="5.35497">
        <ele>241.6</ele>
        <time>2021-08-26T14:54:23Z</time>
      </trkpt>
      <trkpt lat="46.48856" lon="5.35514">
        <ele>241.8</ele>
        <time>2021-08-26T14:54:25Z</time>
      </trkpt>
      <trkpt lat="46.48848" lon="5.35531">
        <ele>242</ele>
        <time>2021-08-26T14:54:27Z</time>
      </trkpt>
      <trkpt lat="46.48844" lon="5.3554">
        <ele>242</ele>
        <time>2021-08-26T14:54:28Z</time>
      </trkpt>
      <trkpt lat="46.4884" lon="5.35548">
        <ele>242.2</ele>
        <time>2021-08-26T14:54:29Z</time>
      </trkpt>
      <trkpt lat="46.48837" lon="5.35557">
        <ele>242.2</ele>
        <time>2021-08-26T14:54:30Z</time>
      </trkpt>
      <trkpt lat="46.48833" lon="5.35566">
        <ele>242.2</ele>
        <time>2021-08-26T14:54:31Z</time>
      </trkpt>
      <trkpt lat="46.48825" lon="5.35584">
        <ele>242.4</ele>
        <time>2021-08-26T14:54:33Z</time>
      </trkpt>
      <trkpt lat="46.48817" lon="5.35602">
        <ele>242.4</ele>
        <time>2021-08-26T14:54:35Z</time>
      </trkpt>
      <trkpt lat="46.48809" lon="5.35621">
        <ele>242.6</ele>
        <time>2021-08-26T14:54:37Z</time>
      </trkpt>
      <trkpt lat="46.48801" lon="5.35639">
        <ele>242.6</ele>
        <time>2021-08-26T14:54:39Z</time>
      </trkpt>
      <trkpt lat="46.48793" lon="5.35658">
        <ele>242.6</ele>
        <time>2021-08-26T14:54:41Z</time>
      </trkpt>
      <trkpt lat="46.48789" lon="5.35667">
        <ele>242.8</ele>
        <time>2021-08-26T14:54:42Z</time>
      </trkpt>
      <trkpt lat="46.48785" lon="5.35676">
        <ele>242.8</ele>
        <time>2021-08-26T14:54:43Z</time>
      </trkpt>
      <trkpt lat="46.48777" lon="5.35695">
        <ele>242.8</ele>
        <time>2021-08-26T14:54:45Z</time>
      </trkpt>
      <trkpt lat="46.48769" lon="5.35714">
        <ele>242.6</ele>
        <time>2021-08-26T14:54:47Z</time>
      </trkpt>
      <trkpt lat="46.48761" lon="5.35734">
        <ele>242.4</ele>
        <time>2021-08-26T14:54:49Z</time>
      </trkpt>
      <trkpt lat="46.48753" lon="5.35753">
        <ele>242.4</ele>
        <time>2021-08-26T14:54:51Z</time>
      </trkpt>
      <trkpt lat="46.48745" lon="5.35772">
        <ele>242.4</ele>
        <time>2021-08-26T14:54:53Z</time>
      </trkpt>
      <trkpt lat="46.48736" lon="5.3579">
        <ele>242.6</ele>
        <time>2021-08-26T14:54:55Z</time>
      </trkpt>
      <trkpt lat="46.48728" lon="5.3581">
        <ele>242.6</ele>
        <time>2021-08-26T14:54:57Z</time>
      </trkpt>
      <trkpt lat="46.48724" lon="5.35819">
        <ele>242.6</ele>
        <time>2021-08-26T14:54:58Z</time>
      </trkpt>
      <trkpt lat="46.4872" lon="5.35828">
        <ele>242.6</ele>
        <time>2021-08-26T14:54:59Z</time>
      </trkpt>
      <trkpt lat="46.48716" lon="5.35837">
        <ele>242.6</ele>
        <time>2021-08-26T14:55:00Z</time>
      </trkpt>
      <trkpt lat="46.48712" lon="5.35846">
        <ele>242.6</ele>
        <time>2021-08-26T14:55:01Z</time>
      </trkpt>
      <trkpt lat="46.48704" lon="5.35865">
        <ele>242.6</ele>
        <time>2021-08-26T14:55:03Z</time>
      </trkpt>
      <trkpt lat="46.487" lon="5.35874">
        <ele>242.6</ele>
        <time>2021-08-26T14:55:04Z</time>
      </trkpt>
      <trkpt lat="46.48696" lon="5.35883">
        <ele>242.8</ele>
        <time>2021-08-26T14:55:05Z</time>
      </trkpt>
      <trkpt lat="46.4869" lon="5.35901">
        <ele>243</ele>
        <time>2021-08-26T14:55:07Z</time>
      </trkpt>
      <trkpt lat="46.48685" lon="5.3592">
        <ele>243.4</ele>
        <time>2021-08-26T14:55:09Z</time>
      </trkpt>
      <trkpt lat="46.48683" lon="5.3593">
        <ele>243.6</ele>
        <time>2021-08-26T14:55:10Z</time>
      </trkpt>
      <trkpt lat="46.48681" lon="5.3594">
        <ele>243.8</ele>
        <time>2021-08-26T14:55:11Z</time>
      </trkpt>
      <trkpt lat="46.48677" lon="5.35961">
        <ele>244.4</ele>
        <time>2021-08-26T14:55:13Z</time>
      </trkpt>
      <trkpt lat="46.48676" lon="5.35971">
        <ele>244.8</ele>
        <time>2021-08-26T14:55:14Z</time>
      </trkpt>
      <trkpt lat="46.48674" lon="5.35982">
        <ele>245.2</ele>
        <time>2021-08-26T14:55:15Z</time>
      </trkpt>
      <trkpt lat="46.48671" lon="5.36003">
        <ele>245.6</ele>
        <time>2021-08-26T14:55:17Z</time>
      </trkpt>
      <trkpt lat="46.48667" lon="5.36025">
        <ele>245.6</ele>
        <time>2021-08-26T14:55:19Z</time>
      </trkpt>
      <trkpt lat="46.48664" lon="5.36036">
        <ele>245.6</ele>
        <time>2021-08-26T14:55:20Z</time>
      </trkpt>
      <trkpt lat="46.48662" lon="5.36048">
        <ele>245.6</ele>
        <time>2021-08-26T14:55:21Z</time>
      </trkpt>
      <trkpt lat="46.48657" lon="5.36072">
        <ele>245.6</ele>
        <time>2021-08-26T14:55:23Z</time>
      </trkpt>
      <trkpt lat="46.48652" lon="5.36096">
        <ele>245.6</ele>
        <time>2021-08-26T14:55:25Z</time>
      </trkpt>
      <trkpt lat="46.48647" lon="5.36121">
        <ele>245.6</ele>
        <time>2021-08-26T14:55:27Z</time>
      </trkpt>
      <trkpt lat="46.48645" lon="5.36133">
        <ele>245.6</ele>
        <time>2021-08-26T14:55:28Z</time>
      </trkpt>
      <trkpt lat="46.48643" lon="5.36144">
        <ele>245.2</ele>
        <time>2021-08-26T14:55:29Z</time>
      </trkpt>
      <trkpt lat="46.4864" lon="5.36167">
        <ele>244.4</ele>
        <time>2021-08-26T14:55:31Z</time>
      </trkpt>
      <trkpt lat="46.48639" lon="5.36188">
        <ele>244.2</ele>
        <time>2021-08-26T14:55:33Z</time>
      </trkpt>
      <trkpt lat="46.48637" lon="5.36209">
        <ele>244</ele>
        <time>2021-08-26T14:55:35Z</time>
      </trkpt>
      <trkpt lat="46.48635" lon="5.3623">
        <ele>244</ele>
        <time>2021-08-26T14:55:37Z</time>
      </trkpt>
      <trkpt lat="46.48633" lon="5.36249">
        <ele>244</ele>
        <time>2021-08-26T14:55:39Z</time>
      </trkpt>
      <trkpt lat="46.48632" lon="5.36259">
        <ele>244</ele>
        <time>2021-08-26T14:55:40Z</time>
      </trkpt>
      <trkpt lat="46.48631" lon="5.36268">
        <ele>244</ele>
        <time>2021-08-26T14:55:41Z</time>
      </trkpt>
      <trkpt lat="46.48628" lon="5.36286">
        <ele>244.2</ele>
        <time>2021-08-26T14:55:43Z</time>
      </trkpt>
      <trkpt lat="46.48626" lon="5.36294">
        <ele>244.4</ele>
        <time>2021-08-26T14:55:44Z</time>
      </trkpt>
      <trkpt lat="46.48623" lon="5.36302">
        <ele>244.6</ele>
        <time>2021-08-26T14:55:45Z</time>
      </trkpt>
      <trkpt lat="46.4862" lon="5.36309">
        <ele>244.6</ele>
        <time>2021-08-26T14:55:46Z</time>
      </trkpt>
      <trkpt lat="46.48616" lon="5.36314">
        <ele>245</ele>
        <time>2021-08-26T14:55:47Z</time>
      </trkpt>
      <trkpt lat="46.48606" lon="5.3632">
        <ele>245.6</ele>
        <time>2021-08-26T14:55:49Z</time>
      </trkpt>
      <trkpt lat="46.48596" lon="5.36323">
        <ele>246.2</ele>
        <time>2021-08-26T14:55:51Z</time>
      </trkpt>
      <trkpt lat="46.48585" lon="5.36324">
        <ele>246.6</ele>
        <time>2021-08-26T14:55:53Z</time>
      </trkpt>
      <trkpt lat="46.4858" lon="5.36325">
        <ele>247</ele>
        <time>2021-08-26T14:55:54Z</time>
      </trkpt>
      <trkpt lat="46.48575" lon="5.36326">
        <ele>247.6</ele>
        <time>2021-08-26T14:55:55Z</time>
      </trkpt>
      <trkpt lat="46.48564" lon="5.36327">
        <ele>248.4</ele>
        <time>2021-08-26T14:55:57Z</time>
      </trkpt>
      <trkpt lat="46.48553" lon="5.36328">
        <ele>249.2</ele>
        <time>2021-08-26T14:55:59Z</time>
      </trkpt>
      <trkpt lat="46.48548" lon="5.36329">
        <ele>249.4</ele>
        <time>2021-08-26T14:56:00Z</time>
      </trkpt>
      <trkpt lat="46.48542" lon="5.3633">
        <ele>249.8</ele>
        <time>2021-08-26T14:56:01Z</time>
      </trkpt>
      <trkpt lat="46.4853" lon="5.36332">
        <ele>250.2</ele>
        <time>2021-08-26T14:56:03Z</time>
      </trkpt>
      <trkpt lat="46.48525" lon="5.36333">
        <ele>250.4</ele>
        <time>2021-08-26T14:56:04Z</time>
      </trkpt>
      <trkpt lat="46.48519" lon="5.36334">
        <ele>250.6</ele>
        <time>2021-08-26T14:56:05Z</time>
      </trkpt>
      <trkpt lat="46.48507" lon="5.36335">
        <ele>251</ele>
        <time>2021-08-26T14:56:07Z</time>
      </trkpt>
      <trkpt lat="46.48495" lon="5.36338">
        <ele>251.2</ele>
        <time>2021-08-26T14:56:09Z</time>
      </trkpt>
      <trkpt lat="46.48483" lon="5.3634">
        <ele>251.4</ele>
        <time>2021-08-26T14:56:11Z</time>
      </trkpt>
      <trkpt lat="46.48476" lon="5.36341">
        <ele>251.4</ele>
        <time>2021-08-26T14:56:12Z</time>
      </trkpt>
      <trkpt lat="46.4847" lon="5.36342">
        <ele>251.6</ele>
        <time>2021-08-26T14:56:13Z</time>
      </trkpt>
      <trkpt lat="46.48457" lon="5.36344">
        <ele>251.6</ele>
        <time>2021-08-26T14:56:15Z</time>
      </trkpt>
      <trkpt lat="46.48443" lon="5.36346">
        <ele>251.8</ele>
        <time>2021-08-26T14:56:17Z</time>
      </trkpt>
      <trkpt lat="46.4843" lon="5.36349">
        <ele>251.8</ele>
        <time>2021-08-26T14:56:19Z</time>
      </trkpt>
      <trkpt lat="46.48424" lon="5.36351">
        <ele>251.8</ele>
        <time>2021-08-26T14:56:20Z</time>
      </trkpt>
      <trkpt lat="46.48417" lon="5.36354">
        <ele>251.8</ele>
        <time>2021-08-26T14:56:21Z</time>
      </trkpt>
      <trkpt lat="46.48405" lon="5.36362">
        <ele>251.8</ele>
        <time>2021-08-26T14:56:23Z</time>
      </trkpt>
      <trkpt lat="46.48399" lon="5.36366">
        <ele>251.8</ele>
        <time>2021-08-26T14:56:24Z</time>
      </trkpt>
      <trkpt lat="46.48393" lon="5.36371">
        <ele>251.8</ele>
        <time>2021-08-26T14:56:25Z</time>
      </trkpt>
      <trkpt lat="46.48383" lon="5.36384">
        <ele>251.8</ele>
        <time>2021-08-26T14:56:27Z</time>
      </trkpt>
      <trkpt lat="46.48371" lon="5.36396">
        <ele>251.8</ele>
        <time>2021-08-26T14:56:29Z</time>
      </trkpt>
      <trkpt lat="46.4836" lon="5.36407">
        <ele>251.8</ele>
        <time>2021-08-26T14:56:31Z</time>
      </trkpt>
      <trkpt lat="46.48349" lon="5.36419">
        <ele>252</ele>
        <time>2021-08-26T14:56:33Z</time>
      </trkpt>
      <trkpt lat="46.48339" lon="5.3643">
        <ele>252</ele>
        <time>2021-08-26T14:56:35Z</time>
      </trkpt>
      <trkpt lat="46.48328" lon="5.36441">
        <ele>252.2</ele>
        <time>2021-08-26T14:56:37Z</time>
      </trkpt>
      <trkpt lat="46.48318" lon="5.36453">
        <ele>252.4</ele>
        <time>2021-08-26T14:56:39Z</time>
      </trkpt>
      <trkpt lat="46.48313" lon="5.36458">
        <ele>252.6</ele>
        <time>2021-08-26T14:56:40Z</time>
      </trkpt>
      <trkpt lat="46.48308" lon="5.36464">
        <ele>252.8</ele>
        <time>2021-08-26T14:56:41Z</time>
      </trkpt>
      <trkpt lat="46.48298" lon="5.36475">
        <ele>253.4</ele>
        <time>2021-08-26T14:56:43Z</time>
      </trkpt>
      <trkpt lat="46.48288" lon="5.36487">
        <ele>253.6</ele>
        <time>2021-08-26T14:56:45Z</time>
      </trkpt>
      <trkpt lat="46.48283" lon="5.36492">
        <ele>254</ele>
        <time>2021-08-26T14:56:46Z</time>
      </trkpt>
      <trkpt lat="46.48278" lon="5.36497">
        <ele>254.2</ele>
        <time>2021-08-26T14:56:47Z</time>
      </trkpt>
      <trkpt lat="46.48273" lon="5.36502">
        <ele>254.4</ele>
        <time>2021-08-26T14:56:48Z</time>
      </trkpt>
      <trkpt lat="46.48269" lon="5.36508">
        <ele>254.4</ele>
        <time>2021-08-26T14:56:49Z</time>
      </trkpt>
      <trkpt lat="46.48259" lon="5.36519">
        <ele>254.8</ele>
        <time>2021-08-26T14:56:51Z</time>
      </trkpt>
      <trkpt lat="46.48249" lon="5.36529">
        <ele>255</ele>
        <time>2021-08-26T14:56:53Z</time>
      </trkpt>
      <trkpt lat="46.4824" lon="5.3654">
        <ele>255.6</ele>
        <time>2021-08-26T14:56:55Z</time>
      </trkpt>
      <trkpt lat="46.48235" lon="5.36546">
        <ele>255.8</ele>
        <time>2021-08-26T14:56:56Z</time>
      </trkpt>
      <trkpt lat="46.4823" lon="5.36551">
        <ele>255.8</ele>
        <time>2021-08-26T14:56:57Z</time>
      </trkpt>
      <trkpt lat="46.48225" lon="5.36555">
        <ele>256</ele>
        <time>2021-08-26T14:56:58Z</time>
      </trkpt>
      <trkpt lat="46.48219" lon="5.36558">
        <ele>256.2</ele>
        <time>2021-08-26T14:56:59Z</time>
      </trkpt>
      <trkpt lat="46.48213" lon="5.36559">
        <ele>256.2</ele>
        <time>2021-08-26T14:57:00Z</time>
      </trkpt>
      <trkpt lat="46.48207" lon="5.36559">
        <ele>256.4</ele>
        <time>2021-08-26T14:57:01Z</time>
      </trkpt>
      <trkpt lat="46.48195" lon="5.36565">
        <ele>256.6</ele>
        <time>2021-08-26T14:57:03Z</time>
      </trkpt>
      <trkpt lat="46.48188" lon="5.36581">
        <ele>256.8</ele>
        <time>2021-08-26T14:57:05Z</time>
      </trkpt>
      <trkpt lat="46.48184" lon="5.3659">
        <ele>257</ele>
        <time>2021-08-26T14:57:06Z</time>
      </trkpt>
      <trkpt lat="46.4818" lon="5.36598">
        <ele>257.4</ele>
        <time>2021-08-26T14:57:07Z</time>
      </trkpt>
      <trkpt lat="46.4817" lon="5.36613">
        <ele>257.8</ele>
        <time>2021-08-26T14:57:09Z</time>
      </trkpt>
      <trkpt lat="46.48165" lon="5.36619">
        <ele>257.8</ele>
        <time>2021-08-26T14:57:10Z</time>
      </trkpt>
      <trkpt lat="46.4816" lon="5.36625">
        <ele>257.8</ele>
        <time>2021-08-26T14:57:11Z</time>
      </trkpt>
      <trkpt lat="46.48149" lon="5.36636">
        <ele>258</ele>
        <time>2021-08-26T14:57:13Z</time>
      </trkpt>
      <trkpt lat="46.48138" lon="5.36645">
        <ele>258</ele>
        <time>2021-08-26T14:57:15Z</time>
      </trkpt>
      <trkpt lat="46.48132" lon="5.3665">
        <ele>258.2</ele>
        <time>2021-08-26T14:57:16Z</time>
      </trkpt>
      <trkpt lat="46.48127" lon="5.36655">
        <ele>258.4</ele>
        <time>2021-08-26T14:57:17Z</time>
      </trkpt>
      <trkpt lat="46.48122" lon="5.3666">
        <ele>258.4</ele>
        <time>2021-08-26T14:57:18Z</time>
      </trkpt>
      <trkpt lat="46.48118" lon="5.36665">
        <ele>258.6</ele>
        <time>2021-08-26T14:57:19Z</time>
      </trkpt>
      <trkpt lat="46.48111" lon="5.36675">
        <ele>259</ele>
        <time>2021-08-26T14:57:21Z</time>
      </trkpt>
      <trkpt lat="46.48104" lon="5.36682">
        <ele>259.2</ele>
        <time>2021-08-26T14:57:23Z</time>
      </trkpt>
      <trkpt lat="46.481" lon="5.36691">
        <ele>259.4</ele>
        <time>2021-08-26T14:57:25Z</time>
      </trkpt>
      <trkpt lat="46.48101" lon="5.36695">
        <ele>259.6</ele>
        <time>2021-08-26T14:57:26Z</time>
      </trkpt>
      <trkpt lat="46.48104" lon="5.36699">
        <ele>259.6</ele>
        <time>2021-08-26T14:57:27Z</time>
      </trkpt>
      <trkpt lat="46.48108" lon="5.36703">
        <ele>260</ele>
        <time>2021-08-26T14:57:28Z</time>
      </trkpt>
      <trkpt lat="46.48112" lon="5.36707">
        <ele>260.2</ele>
        <time>2021-08-26T14:57:29Z</time>
      </trkpt>
      <trkpt lat="46.4812" lon="5.36714">
        <ele>260.6</ele>
        <time>2021-08-26T14:57:31Z</time>
      </trkpt>
      <trkpt lat="46.48128" lon="5.36721">
        <ele>261</ele>
        <time>2021-08-26T14:57:33Z</time>
      </trkpt>
      <trkpt lat="46.48136" lon="5.36727">
        <ele>261.2</ele>
        <time>2021-08-26T14:57:35Z</time>
      </trkpt>
      <trkpt lat="46.48144" lon="5.36734">
        <ele>261.4</ele>
        <time>2021-08-26T14:57:37Z</time>
      </trkpt>
      <trkpt lat="46.48152" lon="5.3674">
        <ele>261.6</ele>
        <time>2021-08-26T14:57:39Z</time>
      </trkpt>
      <trkpt lat="46.48156" lon="5.36744">
        <ele>261.6</ele>
        <time>2021-08-26T14:57:40Z</time>
      </trkpt>
      <trkpt lat="46.4816" lon="5.36747">
        <ele>261.8</ele>
        <time>2021-08-26T14:57:41Z</time>
      </trkpt>
      <trkpt lat="46.48167" lon="5.36753">
        <ele>262.4</ele>
        <time>2021-08-26T14:57:43Z</time>
      </trkpt>
      <trkpt lat="46.48175" lon="5.3676">
        <ele>263</ele>
        <time>2021-08-26T14:57:45Z</time>
      </trkpt>
      <trkpt lat="46.48183" lon="5.36766">
        <ele>263.4</ele>
        <time>2021-08-26T14:57:47Z</time>
      </trkpt>
      <trkpt lat="46.48191" lon="5.36773">
        <ele>264.2</ele>
        <time>2021-08-26T14:57:49Z</time>
      </trkpt>
      <trkpt lat="46.48198" lon="5.36779">
        <ele>264.8</ele>
        <time>2021-08-26T14:57:51Z</time>
      </trkpt>
      <trkpt lat="46.48206" lon="5.36786">
        <ele>265.2</ele>
        <time>2021-08-26T14:57:53Z</time>
      </trkpt>
      <trkpt lat="46.48209" lon="5.36789">
        <ele>265.4</ele>
        <time>2021-08-26T14:57:54Z</time>
      </trkpt>
      <trkpt lat="46.48213" lon="5.36792">
        <ele>265.6</ele>
        <time>2021-08-26T14:57:55Z</time>
      </trkpt>
      <trkpt lat="46.4822" lon="5.36797">
        <ele>265.8</ele>
        <time>2021-08-26T14:57:57Z</time>
      </trkpt>
      <trkpt lat="46.48227" lon="5.36803">
        <ele>266.2</ele>
        <time>2021-08-26T14:57:59Z</time>
      </trkpt>
      <trkpt lat="46.4823" lon="5.36806">
        <ele>266.4</ele>
        <time>2021-08-26T14:58:00Z</time>
      </trkpt>
      <trkpt lat="46.48234" lon="5.36809">
        <ele>266.8</ele>
        <time>2021-08-26T14:58:01Z</time>
      </trkpt>
      <trkpt lat="46.48241" lon="5.36814">
        <ele>267</ele>
        <time>2021-08-26T14:58:03Z</time>
      </trkpt>
      <trkpt lat="46.48247" lon="5.3682">
        <ele>267.6</ele>
        <time>2021-08-26T14:58:05Z</time>
      </trkpt>
      <trkpt lat="46.48254" lon="5.36826">
        <ele>268.2</ele>
        <time>2021-08-26T14:58:07Z</time>
      </trkpt>
      <trkpt lat="46.4826" lon="5.36833">
        <ele>268.8</ele>
        <time>2021-08-26T14:58:09Z</time>
      </trkpt>
    </trkseg>
  </trk>
</gpx>